<?xml version="1.0" encoding="UTF-8" standalone="no" ?>
<gpx xmlns="http://www.topografix.com/GPX/1/1" creator="www.cicloide.com" version="1.1" xmlns:xsi="http://www.w3.org/2001/XMLSchema-instance" xsi:schemaLocation="http://www.topografix.com/GPX/1/1 http://www.topografix.com/GPX/1/1/gpx.xsd">
  <trk>
    <name>www.cicloide.com 341280</name>
    <desc>www.cicloide.com 341280</desc>
    <trkseg>
      <trkpt lat="42.458809000" lon="-2.465042000">
        <ele>399.30</ele>
        <time>2016-10-22T05:01:35Z</time>
      </trkpt>
      <trkpt lat="42.458824000" lon="-2.465045000">
        <ele>399.30</ele>
        <time>2016-10-22T05:01:36Z</time>
      </trkpt>
      <trkpt lat="42.458874000" lon="-2.465088000">
        <ele>399.30</ele>
        <time>2016-10-22T05:01:40Z</time>
      </trkpt>
      <trkpt lat="42.458919000" lon="-2.465143000">
        <ele>399.30</ele>
        <time>2016-10-22T05:01:44Z</time>
      </trkpt>
      <trkpt lat="42.458910000" lon="-2.465170000">
        <ele>399.30</ele>
        <time>2016-10-22T05:01:48Z</time>
      </trkpt>
      <trkpt lat="42.458875000" lon="-2.465167000">
        <ele>399.30</ele>
        <time>2016-10-22T05:01:52Z</time>
      </trkpt>
      <trkpt lat="42.458890000" lon="-2.465171000">
        <ele>399.30</ele>
        <time>2016-10-22T05:01:56Z</time>
      </trkpt>
      <trkpt lat="42.458893000" lon="-2.465171000">
        <ele>399.30</ele>
        <time>2016-10-22T05:02:00Z</time>
      </trkpt>
      <trkpt lat="42.458968000" lon="-2.465191000">
        <ele>399.30</ele>
        <time>2016-10-22T05:02:03Z</time>
      </trkpt>
      <trkpt lat="42.459000000" lon="-2.465202000">
        <ele>399.30</ele>
        <time>2016-10-22T05:02:04Z</time>
      </trkpt>
      <trkpt lat="42.459017000" lon="-2.465206000">
        <ele>399.30</ele>
        <time>2016-10-22T05:02:05Z</time>
      </trkpt>
      <trkpt lat="42.459029000" lon="-2.465208000">
        <ele>399.30</ele>
        <time>2016-10-22T05:02:06Z</time>
      </trkpt>
      <trkpt lat="42.459037000" lon="-2.465209000">
        <ele>399.30</ele>
        <time>2016-10-22T05:02:07Z</time>
      </trkpt>
      <trkpt lat="42.459045000" lon="-2.465209000">
        <ele>399.30</ele>
        <time>2016-10-22T05:02:08Z</time>
      </trkpt>
      <trkpt lat="42.459051000" lon="-2.465209000">
        <ele>399.30</ele>
        <time>2016-10-22T05:02:09Z</time>
      </trkpt>
      <trkpt lat="42.459054000" lon="-2.465207000">
        <ele>399.30</ele>
        <time>2016-10-22T05:02:10Z</time>
      </trkpt>
      <trkpt lat="42.459056000" lon="-2.465206000">
        <ele>399.30</ele>
        <time>2016-10-22T05:02:11Z</time>
      </trkpt>
      <trkpt lat="42.459056000" lon="-2.465203000">
        <ele>399.30</ele>
        <time>2016-10-22T05:02:12Z</time>
      </trkpt>
      <trkpt lat="42.459062000" lon="-2.465202000">
        <ele>399.30</ele>
        <time>2016-10-22T05:02:13Z</time>
      </trkpt>
      <trkpt lat="42.459066000" lon="-2.465200000">
        <ele>399.30</ele>
        <time>2016-10-22T05:02:14Z</time>
      </trkpt>
      <trkpt lat="42.459066000" lon="-2.465198000">
        <ele>399.30</ele>
        <time>2016-10-22T05:02:15Z</time>
      </trkpt>
      <trkpt lat="42.459062000" lon="-2.465196000">
        <ele>399.30</ele>
        <time>2016-10-22T05:02:16Z</time>
      </trkpt>
      <trkpt lat="42.459061000" lon="-2.465193000">
        <ele>399.30</ele>
        <time>2016-10-22T05:02:17Z</time>
      </trkpt>
      <trkpt lat="42.459058000" lon="-2.465192000">
        <ele>399.30</ele>
        <time>2016-10-22T05:02:18Z</time>
      </trkpt>
      <trkpt lat="42.459050000" lon="-2.465189000">
        <ele>399.30</ele>
        <time>2016-10-22T05:02:19Z</time>
      </trkpt>
      <trkpt lat="42.459041000" lon="-2.465190000">
        <ele>399.30</ele>
        <time>2016-10-22T05:02:20Z</time>
      </trkpt>
      <trkpt lat="42.459034000" lon="-2.465191000">
        <ele>399.30</ele>
        <time>2016-10-22T05:02:21Z</time>
      </trkpt>
      <trkpt lat="42.459028000" lon="-2.465192000">
        <ele>399.30</ele>
        <time>2016-10-22T05:02:22Z</time>
      </trkpt>
      <trkpt lat="42.459024000" lon="-2.465194000">
        <ele>399.30</ele>
        <time>2016-10-22T05:02:23Z</time>
      </trkpt>
      <trkpt lat="42.459019000" lon="-2.465194000">
        <ele>399.30</ele>
        <time>2016-10-22T05:02:24Z</time>
      </trkpt>
      <trkpt lat="42.459017000" lon="-2.465195000">
        <ele>399.30</ele>
        <time>2016-10-22T05:02:25Z</time>
      </trkpt>
      <trkpt lat="42.459018000" lon="-2.465196000">
        <ele>399.30</ele>
        <time>2016-10-22T05:02:26Z</time>
      </trkpt>
      <trkpt lat="42.459019000" lon="-2.465197000">
        <ele>399.30</ele>
        <time>2016-10-22T05:02:27Z</time>
      </trkpt>
      <trkpt lat="42.459020000" lon="-2.465195000">
        <ele>399.30</ele>
        <time>2016-10-22T05:02:28Z</time>
      </trkpt>
      <trkpt lat="42.459024000" lon="-2.465194000">
        <ele>399.30</ele>
        <time>2016-10-22T05:02:29Z</time>
      </trkpt>
      <trkpt lat="42.459028000" lon="-2.465193000">
        <ele>399.30</ele>
        <time>2016-10-22T05:02:30Z</time>
      </trkpt>
      <trkpt lat="42.459034000" lon="-2.465191000">
        <ele>399.30</ele>
        <time>2016-10-22T05:02:31Z</time>
      </trkpt>
      <trkpt lat="42.459036000" lon="-2.465187000">
        <ele>399.30</ele>
        <time>2016-10-22T05:02:32Z</time>
      </trkpt>
      <trkpt lat="42.459037000" lon="-2.465182000">
        <ele>399.30</ele>
        <time>2016-10-22T05:02:33Z</time>
      </trkpt>
      <trkpt lat="42.459035000" lon="-2.465178000">
        <ele>399.30</ele>
        <time>2016-10-22T05:02:34Z</time>
      </trkpt>
      <trkpt lat="42.459037000" lon="-2.465177000">
        <ele>399.30</ele>
        <time>2016-10-22T05:02:35Z</time>
      </trkpt>
      <trkpt lat="42.459037000" lon="-2.465173000">
        <ele>399.30</ele>
        <time>2016-10-22T05:02:36Z</time>
      </trkpt>
      <trkpt lat="42.459039000" lon="-2.465169000">
        <ele>399.30</ele>
        <time>2016-10-22T05:02:37Z</time>
      </trkpt>
      <trkpt lat="42.459042000" lon="-2.465166000">
        <ele>399.30</ele>
        <time>2016-10-22T05:02:38Z</time>
      </trkpt>
      <trkpt lat="42.459048000" lon="-2.465165000">
        <ele>399.30</ele>
        <time>2016-10-22T05:02:39Z</time>
      </trkpt>
      <trkpt lat="42.459055000" lon="-2.465165000">
        <ele>399.30</ele>
        <time>2016-10-22T05:02:40Z</time>
      </trkpt>
      <trkpt lat="42.459072000" lon="-2.465165000">
        <ele>399.30</ele>
        <time>2016-10-22T05:02:42Z</time>
      </trkpt>
      <trkpt lat="42.459079000" lon="-2.465166000">
        <ele>399.30</ele>
        <time>2016-10-22T05:02:43Z</time>
      </trkpt>
      <trkpt lat="42.459085000" lon="-2.465169000">
        <ele>399.30</ele>
        <time>2016-10-22T05:02:44Z</time>
      </trkpt>
      <trkpt lat="42.459092000" lon="-2.465173000">
        <ele>399.30</ele>
        <time>2016-10-22T05:02:45Z</time>
      </trkpt>
      <trkpt lat="42.459095000" lon="-2.465176000">
        <ele>399.30</ele>
        <time>2016-10-22T05:02:46Z</time>
      </trkpt>
      <trkpt lat="42.459099000" lon="-2.465182000">
        <ele>399.30</ele>
        <time>2016-10-22T05:02:47Z</time>
      </trkpt>
      <trkpt lat="42.459097000" lon="-2.465185000">
        <ele>399.30</ele>
        <time>2016-10-22T05:02:48Z</time>
      </trkpt>
      <trkpt lat="42.459096000" lon="-2.465183000">
        <ele>399.30</ele>
        <time>2016-10-22T05:02:49Z</time>
      </trkpt>
      <trkpt lat="42.459093000" lon="-2.465183000">
        <ele>399.30</ele>
        <time>2016-10-22T05:02:50Z</time>
      </trkpt>
      <trkpt lat="42.459090000" lon="-2.465183000">
        <ele>399.30</ele>
        <time>2016-10-22T05:02:51Z</time>
      </trkpt>
      <trkpt lat="42.459087000" lon="-2.465183000">
        <ele>399.30</ele>
        <time>2016-10-22T05:02:52Z</time>
      </trkpt>
      <trkpt lat="42.459084000" lon="-2.465185000">
        <ele>399.30</ele>
        <time>2016-10-22T05:02:53Z</time>
      </trkpt>
      <trkpt lat="42.459082000" lon="-2.465186000">
        <ele>399.30</ele>
        <time>2016-10-22T05:02:54Z</time>
      </trkpt>
      <trkpt lat="42.459078000" lon="-2.465188000">
        <ele>399.30</ele>
        <time>2016-10-22T05:02:55Z</time>
      </trkpt>
      <trkpt lat="42.459078000" lon="-2.465194000">
        <ele>399.30</ele>
        <time>2016-10-22T05:02:56Z</time>
      </trkpt>
      <trkpt lat="42.459080000" lon="-2.465201000">
        <ele>399.30</ele>
        <time>2016-10-22T05:02:57Z</time>
      </trkpt>
      <trkpt lat="42.459083000" lon="-2.465209000">
        <ele>399.30</ele>
        <time>2016-10-22T05:02:58Z</time>
      </trkpt>
      <trkpt lat="42.459086000" lon="-2.465217000">
        <ele>399.30</ele>
        <time>2016-10-22T05:02:59Z</time>
      </trkpt>
      <trkpt lat="42.459081000" lon="-2.465223000">
        <ele>399.30</ele>
        <time>2016-10-22T05:03:00Z</time>
      </trkpt>
      <trkpt lat="42.459076000" lon="-2.465229000">
        <ele>399.30</ele>
        <time>2016-10-22T05:03:01Z</time>
      </trkpt>
      <trkpt lat="42.459070000" lon="-2.465235000">
        <ele>399.30</ele>
        <time>2016-10-22T05:03:02Z</time>
      </trkpt>
      <trkpt lat="42.459061000" lon="-2.465238000">
        <ele>399.30</ele>
        <time>2016-10-22T05:03:03Z</time>
      </trkpt>
      <trkpt lat="42.459053000" lon="-2.465244000">
        <ele>399.30</ele>
        <time>2016-10-22T05:03:04Z</time>
      </trkpt>
      <trkpt lat="42.459043000" lon="-2.465248000">
        <ele>399.30</ele>
        <time>2016-10-22T05:03:05Z</time>
      </trkpt>
      <trkpt lat="42.459035000" lon="-2.465251000">
        <ele>399.30</ele>
        <time>2016-10-22T05:03:06Z</time>
      </trkpt>
      <trkpt lat="42.459033000" lon="-2.465256000">
        <ele>399.30</ele>
        <time>2016-10-22T05:03:07Z</time>
      </trkpt>
      <trkpt lat="42.459021000" lon="-2.465256000">
        <ele>399.30</ele>
        <time>2016-10-22T05:03:08Z</time>
      </trkpt>
      <trkpt lat="42.459013000" lon="-2.465259000">
        <ele>399.30</ele>
        <time>2016-10-22T05:03:09Z</time>
      </trkpt>
      <trkpt lat="42.459005000" lon="-2.465258000">
        <ele>399.30</ele>
        <time>2016-10-22T05:03:10Z</time>
      </trkpt>
      <trkpt lat="42.459002000" lon="-2.465258000">
        <ele>399.30</ele>
        <time>2016-10-22T05:03:11Z</time>
      </trkpt>
      <trkpt lat="42.458997000" lon="-2.465257000">
        <ele>399.30</ele>
        <time>2016-10-22T05:03:12Z</time>
      </trkpt>
      <trkpt lat="42.458994000" lon="-2.465255000">
        <ele>399.30</ele>
        <time>2016-10-22T05:03:13Z</time>
      </trkpt>
      <trkpt lat="42.458991000" lon="-2.465254000">
        <ele>399.30</ele>
        <time>2016-10-22T05:03:14Z</time>
      </trkpt>
      <trkpt lat="42.458988000" lon="-2.465250000">
        <ele>399.30</ele>
        <time>2016-10-22T05:03:15Z</time>
      </trkpt>
      <trkpt lat="42.458988000" lon="-2.465250000">
        <ele>399.30</ele>
        <time>2016-10-22T05:03:16Z</time>
      </trkpt>
      <trkpt lat="42.458988000" lon="-2.465250000">
        <ele>399.30</ele>
        <time>2016-10-22T05:03:17Z</time>
      </trkpt>
      <trkpt lat="42.458988000" lon="-2.465250000">
        <ele>399.30</ele>
        <time>2016-10-22T05:03:18Z</time>
      </trkpt>
      <trkpt lat="42.458988000" lon="-2.465250000">
        <ele>399.30</ele>
        <time>2016-10-22T05:03:19Z</time>
      </trkpt>
      <trkpt lat="42.458988000" lon="-2.465250000">
        <ele>399.30</ele>
        <time>2016-10-22T05:03:20Z</time>
      </trkpt>
      <trkpt lat="42.458988000" lon="-2.465250000">
        <ele>399.30</ele>
        <time>2016-10-22T05:03:21Z</time>
      </trkpt>
      <trkpt lat="42.458988000" lon="-2.465250000">
        <ele>399.30</ele>
        <time>2016-10-22T05:03:22Z</time>
      </trkpt>
      <trkpt lat="42.458988000" lon="-2.465250000">
        <ele>399.30</ele>
        <time>2016-10-22T05:03:23Z</time>
      </trkpt>
      <trkpt lat="42.458988000" lon="-2.465250000">
        <ele>399.30</ele>
        <time>2016-10-22T05:03:24Z</time>
      </trkpt>
      <trkpt lat="42.458988000" lon="-2.465250000">
        <ele>399.30</ele>
        <time>2016-10-22T05:03:25Z</time>
      </trkpt>
      <trkpt lat="42.458988000" lon="-2.465250000">
        <ele>399.30</ele>
        <time>2016-10-22T05:03:26Z</time>
      </trkpt>
      <trkpt lat="42.458988000" lon="-2.465250000">
        <ele>399.30</ele>
        <time>2016-10-22T05:03:27Z</time>
      </trkpt>
      <trkpt lat="42.458988000" lon="-2.465250000">
        <ele>399.30</ele>
        <time>2016-10-22T05:03:28Z</time>
      </trkpt>
      <trkpt lat="42.458988000" lon="-2.465250000">
        <ele>399.30</ele>
        <time>2016-10-22T05:03:29Z</time>
      </trkpt>
      <trkpt lat="42.458988000" lon="-2.465250000">
        <ele>399.30</ele>
        <time>2016-10-22T05:03:30Z</time>
      </trkpt>
      <trkpt lat="42.458988000" lon="-2.465250000">
        <ele>399.30</ele>
        <time>2016-10-22T05:03:31Z</time>
      </trkpt>
      <trkpt lat="42.458988000" lon="-2.465250000">
        <ele>399.30</ele>
        <time>2016-10-22T05:03:32Z</time>
      </trkpt>
      <trkpt lat="42.458988000" lon="-2.465250000">
        <ele>399.30</ele>
        <time>2016-10-22T05:03:33Z</time>
      </trkpt>
      <trkpt lat="42.458988000" lon="-2.465250000">
        <ele>399.30</ele>
        <time>2016-10-22T05:03:34Z</time>
      </trkpt>
      <trkpt lat="42.458988000" lon="-2.465250000">
        <ele>399.30</ele>
        <time>2016-10-22T05:03:35Z</time>
      </trkpt>
      <trkpt lat="42.458988000" lon="-2.465250000">
        <ele>399.30</ele>
        <time>2016-10-22T05:03:36Z</time>
      </trkpt>
      <trkpt lat="42.458988000" lon="-2.465250000">
        <ele>399.30</ele>
        <time>2016-10-22T05:03:37Z</time>
      </trkpt>
      <trkpt lat="42.458988000" lon="-2.465250000">
        <ele>399.30</ele>
        <time>2016-10-22T05:03:38Z</time>
      </trkpt>
      <trkpt lat="42.458988000" lon="-2.465250000">
        <ele>399.30</ele>
        <time>2016-10-22T05:03:39Z</time>
      </trkpt>
      <trkpt lat="42.458988000" lon="-2.465250000">
        <ele>399.30</ele>
        <time>2016-10-22T05:03:40Z</time>
      </trkpt>
      <trkpt lat="42.458988000" lon="-2.465250000">
        <ele>399.30</ele>
        <time>2016-10-22T05:03:41Z</time>
      </trkpt>
      <trkpt lat="42.458988000" lon="-2.465250000">
        <ele>399.30</ele>
        <time>2016-10-22T05:03:43Z</time>
      </trkpt>
      <trkpt lat="42.458988000" lon="-2.465250000">
        <ele>399.30</ele>
        <time>2016-10-22T05:03:44Z</time>
      </trkpt>
      <trkpt lat="42.458988000" lon="-2.465250000">
        <ele>399.30</ele>
        <time>2016-10-22T05:03:45Z</time>
      </trkpt>
      <trkpt lat="42.458988000" lon="-2.465250000">
        <ele>399.30</ele>
        <time>2016-10-22T05:03:46Z</time>
      </trkpt>
      <trkpt lat="42.458988000" lon="-2.465250000">
        <ele>399.30</ele>
        <time>2016-10-22T05:03:47Z</time>
      </trkpt>
      <trkpt lat="42.458988000" lon="-2.465250000">
        <ele>399.30</ele>
        <time>2016-10-22T05:03:48Z</time>
      </trkpt>
      <trkpt lat="42.458988000" lon="-2.465250000">
        <ele>399.30</ele>
        <time>2016-10-22T05:03:49Z</time>
      </trkpt>
      <trkpt lat="42.458988000" lon="-2.465250000">
        <ele>399.30</ele>
        <time>2016-10-22T05:03:50Z</time>
      </trkpt>
      <trkpt lat="42.458988000" lon="-2.465250000">
        <ele>399.30</ele>
        <time>2016-10-22T05:03:51Z</time>
      </trkpt>
      <trkpt lat="42.458988000" lon="-2.465250000">
        <ele>399.30</ele>
        <time>2016-10-22T05:03:52Z</time>
      </trkpt>
      <trkpt lat="42.458988000" lon="-2.465250000">
        <ele>399.30</ele>
        <time>2016-10-22T05:03:53Z</time>
      </trkpt>
      <trkpt lat="42.458988000" lon="-2.465250000">
        <ele>399.30</ele>
        <time>2016-10-22T05:03:54Z</time>
      </trkpt>
      <trkpt lat="42.458987000" lon="-2.465239000">
        <ele>399.30</ele>
        <time>2016-10-22T05:03:55Z</time>
      </trkpt>
      <trkpt lat="42.458987000" lon="-2.465239000">
        <ele>399.30</ele>
        <time>2016-10-22T05:03:56Z</time>
      </trkpt>
      <trkpt lat="42.458987000" lon="-2.465239000">
        <ele>399.30</ele>
        <time>2016-10-22T05:03:57Z</time>
      </trkpt>
      <trkpt lat="42.458987000" lon="-2.465239000">
        <ele>399.30</ele>
        <time>2016-10-22T05:03:58Z</time>
      </trkpt>
      <trkpt lat="42.458987000" lon="-2.465239000">
        <ele>399.30</ele>
        <time>2016-10-22T05:03:59Z</time>
      </trkpt>
      <trkpt lat="42.458987000" lon="-2.465239000">
        <ele>399.30</ele>
        <time>2016-10-22T05:04:00Z</time>
      </trkpt>
      <trkpt lat="42.458987000" lon="-2.465239000">
        <ele>399.30</ele>
        <time>2016-10-22T05:04:01Z</time>
      </trkpt>
      <trkpt lat="42.458987000" lon="-2.465239000">
        <ele>399.30</ele>
        <time>2016-10-22T05:04:02Z</time>
      </trkpt>
      <trkpt lat="42.458987000" lon="-2.465239000">
        <ele>399.30</ele>
        <time>2016-10-22T05:04:03Z</time>
      </trkpt>
      <trkpt lat="42.458987000" lon="-2.465239000">
        <ele>399.30</ele>
        <time>2016-10-22T05:04:04Z</time>
      </trkpt>
      <trkpt lat="42.458987000" lon="-2.465239000">
        <ele>399.30</ele>
        <time>2016-10-22T05:04:05Z</time>
      </trkpt>
      <trkpt lat="42.458987000" lon="-2.465239000">
        <ele>399.30</ele>
        <time>2016-10-22T05:04:06Z</time>
      </trkpt>
      <trkpt lat="42.458987000" lon="-2.465239000">
        <ele>399.30</ele>
        <time>2016-10-22T05:04:07Z</time>
      </trkpt>
      <trkpt lat="42.458987000" lon="-2.465239000">
        <ele>399.30</ele>
        <time>2016-10-22T05:04:08Z</time>
      </trkpt>
      <trkpt lat="42.458987000" lon="-2.465239000">
        <ele>399.30</ele>
        <time>2016-10-22T05:04:09Z</time>
      </trkpt>
      <trkpt lat="42.458987000" lon="-2.465239000">
        <ele>399.30</ele>
        <time>2016-10-22T05:04:10Z</time>
      </trkpt>
      <trkpt lat="42.458987000" lon="-2.465239000">
        <ele>399.30</ele>
        <time>2016-10-22T05:04:11Z</time>
      </trkpt>
      <trkpt lat="42.458987000" lon="-2.465239000">
        <ele>399.30</ele>
        <time>2016-10-22T05:04:12Z</time>
      </trkpt>
      <trkpt lat="42.458987000" lon="-2.465239000">
        <ele>399.30</ele>
        <time>2016-10-22T05:04:13Z</time>
      </trkpt>
      <trkpt lat="42.458987000" lon="-2.465239000">
        <ele>399.30</ele>
        <time>2016-10-22T05:04:14Z</time>
      </trkpt>
      <trkpt lat="42.458987000" lon="-2.465239000">
        <ele>399.30</ele>
        <time>2016-10-22T05:04:15Z</time>
      </trkpt>
      <trkpt lat="42.458987000" lon="-2.465239000">
        <ele>399.30</ele>
        <time>2016-10-22T05:04:16Z</time>
      </trkpt>
      <trkpt lat="42.458987000" lon="-2.465239000">
        <ele>399.30</ele>
        <time>2016-10-22T05:04:17Z</time>
      </trkpt>
      <trkpt lat="42.458987000" lon="-2.465239000">
        <ele>399.30</ele>
        <time>2016-10-22T05:04:18Z</time>
      </trkpt>
      <trkpt lat="42.458987000" lon="-2.465239000">
        <ele>399.30</ele>
        <time>2016-10-22T05:04:19Z</time>
      </trkpt>
      <trkpt lat="42.458987000" lon="-2.465239000">
        <ele>399.30</ele>
        <time>2016-10-22T05:04:20Z</time>
      </trkpt>
      <trkpt lat="42.458987000" lon="-2.465239000">
        <ele>399.30</ele>
        <time>2016-10-22T05:04:21Z</time>
      </trkpt>
      <trkpt lat="42.458987000" lon="-2.465239000">
        <ele>399.30</ele>
        <time>2016-10-22T05:04:22Z</time>
      </trkpt>
      <trkpt lat="42.458987000" lon="-2.465239000">
        <ele>399.30</ele>
        <time>2016-10-22T05:04:23Z</time>
      </trkpt>
      <trkpt lat="42.458987000" lon="-2.465239000">
        <ele>399.30</ele>
        <time>2016-10-22T05:04:24Z</time>
      </trkpt>
      <trkpt lat="42.458987000" lon="-2.465239000">
        <ele>399.30</ele>
        <time>2016-10-22T05:04:25Z</time>
      </trkpt>
      <trkpt lat="42.458987000" lon="-2.465239000">
        <ele>399.30</ele>
        <time>2016-10-22T05:04:26Z</time>
      </trkpt>
      <trkpt lat="42.458987000" lon="-2.465239000">
        <ele>399.30</ele>
        <time>2016-10-22T05:04:27Z</time>
      </trkpt>
      <trkpt lat="42.458987000" lon="-2.465239000">
        <ele>399.30</ele>
        <time>2016-10-22T05:04:28Z</time>
      </trkpt>
      <trkpt lat="42.458987000" lon="-2.465239000">
        <ele>399.30</ele>
        <time>2016-10-22T05:04:29Z</time>
      </trkpt>
      <trkpt lat="42.458987000" lon="-2.465239000">
        <ele>399.30</ele>
        <time>2016-10-22T05:04:30Z</time>
      </trkpt>
      <trkpt lat="42.458987000" lon="-2.465239000">
        <ele>399.30</ele>
        <time>2016-10-22T05:04:31Z</time>
      </trkpt>
      <trkpt lat="42.458987000" lon="-2.465239000">
        <ele>399.30</ele>
        <time>2016-10-22T05:04:32Z</time>
      </trkpt>
      <trkpt lat="42.458987000" lon="-2.465239000">
        <ele>399.30</ele>
        <time>2016-10-22T05:04:33Z</time>
      </trkpt>
      <trkpt lat="42.458987000" lon="-2.465239000">
        <ele>399.30</ele>
        <time>2016-10-22T05:04:34Z</time>
      </trkpt>
      <trkpt lat="42.458998000" lon="-2.465235000">
        <ele>399.30</ele>
        <time>2016-10-22T05:04:35Z</time>
      </trkpt>
      <trkpt lat="42.458998000" lon="-2.465235000">
        <ele>399.30</ele>
        <time>2016-10-22T05:04:36Z</time>
      </trkpt>
      <trkpt lat="42.458998000" lon="-2.465235000">
        <ele>399.30</ele>
        <time>2016-10-22T05:04:37Z</time>
      </trkpt>
      <trkpt lat="42.458998000" lon="-2.465235000">
        <ele>399.30</ele>
        <time>2016-10-22T05:04:38Z</time>
      </trkpt>
      <trkpt lat="42.458998000" lon="-2.465235000">
        <ele>399.30</ele>
        <time>2016-10-22T05:04:39Z</time>
      </trkpt>
      <trkpt lat="42.458998000" lon="-2.465235000">
        <ele>399.30</ele>
        <time>2016-10-22T05:04:40Z</time>
      </trkpt>
      <trkpt lat="42.458998000" lon="-2.465235000">
        <ele>399.30</ele>
        <time>2016-10-22T05:04:41Z</time>
      </trkpt>
      <trkpt lat="42.458998000" lon="-2.465235000">
        <ele>399.30</ele>
        <time>2016-10-22T05:04:42Z</time>
      </trkpt>
      <trkpt lat="42.458998000" lon="-2.465235000">
        <ele>399.30</ele>
        <time>2016-10-22T05:04:43Z</time>
      </trkpt>
      <trkpt lat="42.458998000" lon="-2.465235000">
        <ele>399.30</ele>
        <time>2016-10-22T05:04:45Z</time>
      </trkpt>
      <trkpt lat="42.458998000" lon="-2.465235000">
        <ele>399.30</ele>
        <time>2016-10-22T05:04:46Z</time>
      </trkpt>
      <trkpt lat="42.458998000" lon="-2.465235000">
        <ele>399.30</ele>
        <time>2016-10-22T05:04:47Z</time>
      </trkpt>
      <trkpt lat="42.458998000" lon="-2.465235000">
        <ele>399.30</ele>
        <time>2016-10-22T05:04:48Z</time>
      </trkpt>
      <trkpt lat="42.458998000" lon="-2.465235000">
        <ele>399.30</ele>
        <time>2016-10-22T05:04:49Z</time>
      </trkpt>
      <trkpt lat="42.458998000" lon="-2.465235000">
        <ele>399.30</ele>
        <time>2016-10-22T05:04:50Z</time>
      </trkpt>
      <trkpt lat="42.458998000" lon="-2.465235000">
        <ele>399.30</ele>
        <time>2016-10-22T05:04:51Z</time>
      </trkpt>
      <trkpt lat="42.458998000" lon="-2.465235000">
        <ele>399.30</ele>
        <time>2016-10-22T05:04:52Z</time>
      </trkpt>
      <trkpt lat="42.458998000" lon="-2.465235000">
        <ele>399.30</ele>
        <time>2016-10-22T05:04:53Z</time>
      </trkpt>
      <trkpt lat="42.458998000" lon="-2.465235000">
        <ele>399.30</ele>
        <time>2016-10-22T05:04:54Z</time>
      </trkpt>
      <trkpt lat="42.458998000" lon="-2.465235000">
        <ele>399.30</ele>
        <time>2016-10-22T05:04:55Z</time>
      </trkpt>
      <trkpt lat="42.458998000" lon="-2.465235000">
        <ele>399.30</ele>
        <time>2016-10-22T05:04:56Z</time>
      </trkpt>
      <trkpt lat="42.458998000" lon="-2.465235000">
        <ele>399.30</ele>
        <time>2016-10-22T05:04:57Z</time>
      </trkpt>
      <trkpt lat="42.458998000" lon="-2.465235000">
        <ele>399.30</ele>
        <time>2016-10-22T05:04:58Z</time>
      </trkpt>
      <trkpt lat="42.458998000" lon="-2.465235000">
        <ele>399.30</ele>
        <time>2016-10-22T05:04:59Z</time>
      </trkpt>
      <trkpt lat="42.458998000" lon="-2.465235000">
        <ele>399.30</ele>
        <time>2016-10-22T05:05:00Z</time>
      </trkpt>
      <trkpt lat="42.458998000" lon="-2.465235000">
        <ele>399.30</ele>
        <time>2016-10-22T05:05:01Z</time>
      </trkpt>
      <trkpt lat="42.458998000" lon="-2.465235000">
        <ele>399.30</ele>
        <time>2016-10-22T05:05:02Z</time>
      </trkpt>
      <trkpt lat="42.458998000" lon="-2.465235000">
        <ele>399.30</ele>
        <time>2016-10-22T05:05:03Z</time>
      </trkpt>
      <trkpt lat="42.458998000" lon="-2.465235000">
        <ele>399.30</ele>
        <time>2016-10-22T05:05:04Z</time>
      </trkpt>
      <trkpt lat="42.458998000" lon="-2.465235000">
        <ele>399.30</ele>
        <time>2016-10-22T05:05:05Z</time>
      </trkpt>
      <trkpt lat="42.458998000" lon="-2.465235000">
        <ele>399.30</ele>
        <time>2016-10-22T05:05:06Z</time>
      </trkpt>
      <trkpt lat="42.458998000" lon="-2.465235000">
        <ele>399.30</ele>
        <time>2016-10-22T05:05:07Z</time>
      </trkpt>
      <trkpt lat="42.458998000" lon="-2.465235000">
        <ele>399.30</ele>
        <time>2016-10-22T05:05:08Z</time>
      </trkpt>
      <trkpt lat="42.458998000" lon="-2.465235000">
        <ele>399.30</ele>
        <time>2016-10-22T05:05:09Z</time>
      </trkpt>
      <trkpt lat="42.458998000" lon="-2.465235000">
        <ele>399.30</ele>
        <time>2016-10-22T05:05:10Z</time>
      </trkpt>
      <trkpt lat="42.458998000" lon="-2.465235000">
        <ele>399.30</ele>
        <time>2016-10-22T05:05:11Z</time>
      </trkpt>
      <trkpt lat="42.458998000" lon="-2.465235000">
        <ele>399.30</ele>
        <time>2016-10-22T05:05:12Z</time>
      </trkpt>
      <trkpt lat="42.458998000" lon="-2.465235000">
        <ele>399.30</ele>
        <time>2016-10-22T05:05:13Z</time>
      </trkpt>
      <trkpt lat="42.458998000" lon="-2.465235000">
        <ele>399.30</ele>
        <time>2016-10-22T05:05:14Z</time>
      </trkpt>
      <trkpt lat="42.459001000" lon="-2.465225000">
        <ele>399.30</ele>
        <time>2016-10-22T05:05:15Z</time>
      </trkpt>
      <trkpt lat="42.459001000" lon="-2.465225000">
        <ele>399.30</ele>
        <time>2016-10-22T05:05:16Z</time>
      </trkpt>
      <trkpt lat="42.459001000" lon="-2.465225000">
        <ele>399.30</ele>
        <time>2016-10-22T05:05:17Z</time>
      </trkpt>
      <trkpt lat="42.459001000" lon="-2.465225000">
        <ele>399.30</ele>
        <time>2016-10-22T05:05:18Z</time>
      </trkpt>
      <trkpt lat="42.459001000" lon="-2.465225000">
        <ele>399.30</ele>
        <time>2016-10-22T05:05:19Z</time>
      </trkpt>
      <trkpt lat="42.459001000" lon="-2.465225000">
        <ele>399.30</ele>
        <time>2016-10-22T05:05:20Z</time>
      </trkpt>
      <trkpt lat="42.459001000" lon="-2.465225000">
        <ele>399.30</ele>
        <time>2016-10-22T05:05:21Z</time>
      </trkpt>
      <trkpt lat="42.459001000" lon="-2.465225000">
        <ele>399.30</ele>
        <time>2016-10-22T05:05:22Z</time>
      </trkpt>
      <trkpt lat="42.459001000" lon="-2.465225000">
        <ele>399.30</ele>
        <time>2016-10-22T05:05:23Z</time>
      </trkpt>
      <trkpt lat="42.459001000" lon="-2.465225000">
        <ele>399.30</ele>
        <time>2016-10-22T05:05:24Z</time>
      </trkpt>
      <trkpt lat="42.459001000" lon="-2.465225000">
        <ele>399.30</ele>
        <time>2016-10-22T05:05:25Z</time>
      </trkpt>
      <trkpt lat="42.459001000" lon="-2.465225000">
        <ele>399.30</ele>
        <time>2016-10-22T05:05:26Z</time>
      </trkpt>
      <trkpt lat="42.459001000" lon="-2.465225000">
        <ele>399.30</ele>
        <time>2016-10-22T05:05:27Z</time>
      </trkpt>
      <trkpt lat="42.459001000" lon="-2.465225000">
        <ele>399.30</ele>
        <time>2016-10-22T05:05:28Z</time>
      </trkpt>
      <trkpt lat="42.459001000" lon="-2.465225000">
        <ele>399.30</ele>
        <time>2016-10-22T05:05:29Z</time>
      </trkpt>
      <trkpt lat="42.459001000" lon="-2.465225000">
        <ele>399.30</ele>
        <time>2016-10-22T05:05:30Z</time>
      </trkpt>
      <trkpt lat="42.459001000" lon="-2.465225000">
        <ele>399.30</ele>
        <time>2016-10-22T05:05:31Z</time>
      </trkpt>
      <trkpt lat="42.459001000" lon="-2.465225000">
        <ele>399.30</ele>
        <time>2016-10-22T05:05:32Z</time>
      </trkpt>
      <trkpt lat="42.459001000" lon="-2.465225000">
        <ele>399.30</ele>
        <time>2016-10-22T05:05:33Z</time>
      </trkpt>
      <trkpt lat="42.459001000" lon="-2.465225000">
        <ele>399.30</ele>
        <time>2016-10-22T05:05:34Z</time>
      </trkpt>
      <trkpt lat="42.459001000" lon="-2.465225000">
        <ele>399.30</ele>
        <time>2016-10-22T05:05:35Z</time>
      </trkpt>
      <trkpt lat="42.459001000" lon="-2.465225000">
        <ele>399.30</ele>
        <time>2016-10-22T05:05:36Z</time>
      </trkpt>
      <trkpt lat="42.459001000" lon="-2.465225000">
        <ele>399.30</ele>
        <time>2016-10-22T05:05:37Z</time>
      </trkpt>
      <trkpt lat="42.459001000" lon="-2.465225000">
        <ele>399.30</ele>
        <time>2016-10-22T05:05:38Z</time>
      </trkpt>
      <trkpt lat="42.459001000" lon="-2.465225000">
        <ele>399.30</ele>
        <time>2016-10-22T05:05:39Z</time>
      </trkpt>
      <trkpt lat="42.459001000" lon="-2.465225000">
        <ele>399.30</ele>
        <time>2016-10-22T05:05:40Z</time>
      </trkpt>
      <trkpt lat="42.459001000" lon="-2.465225000">
        <ele>399.30</ele>
        <time>2016-10-22T05:05:41Z</time>
      </trkpt>
      <trkpt lat="42.459001000" lon="-2.465225000">
        <ele>399.30</ele>
        <time>2016-10-22T05:05:42Z</time>
      </trkpt>
      <trkpt lat="42.459001000" lon="-2.465225000">
        <ele>399.30</ele>
        <time>2016-10-22T05:05:43Z</time>
      </trkpt>
      <trkpt lat="42.459001000" lon="-2.465225000">
        <ele>399.30</ele>
        <time>2016-10-22T05:05:44Z</time>
      </trkpt>
      <trkpt lat="42.459001000" lon="-2.465225000">
        <ele>399.30</ele>
        <time>2016-10-22T05:05:46Z</time>
      </trkpt>
      <trkpt lat="42.459001000" lon="-2.465225000">
        <ele>399.30</ele>
        <time>2016-10-22T05:05:47Z</time>
      </trkpt>
      <trkpt lat="42.459001000" lon="-2.465225000">
        <ele>399.30</ele>
        <time>2016-10-22T05:05:48Z</time>
      </trkpt>
      <trkpt lat="42.459001000" lon="-2.465225000">
        <ele>399.30</ele>
        <time>2016-10-22T05:05:49Z</time>
      </trkpt>
      <trkpt lat="42.459001000" lon="-2.465225000">
        <ele>399.30</ele>
        <time>2016-10-22T05:05:50Z</time>
      </trkpt>
      <trkpt lat="42.459001000" lon="-2.465225000">
        <ele>399.30</ele>
        <time>2016-10-22T05:05:51Z</time>
      </trkpt>
      <trkpt lat="42.459001000" lon="-2.465225000">
        <ele>399.30</ele>
        <time>2016-10-22T05:05:52Z</time>
      </trkpt>
      <trkpt lat="42.459001000" lon="-2.465225000">
        <ele>399.30</ele>
        <time>2016-10-22T05:05:53Z</time>
      </trkpt>
      <trkpt lat="42.459001000" lon="-2.465225000">
        <ele>399.30</ele>
        <time>2016-10-22T05:05:54Z</time>
      </trkpt>
      <trkpt lat="42.458996000" lon="-2.465224000">
        <ele>399.30</ele>
        <time>2016-10-22T05:05:55Z</time>
      </trkpt>
      <trkpt lat="42.458996000" lon="-2.465224000">
        <ele>399.30</ele>
        <time>2016-10-22T05:05:56Z</time>
      </trkpt>
      <trkpt lat="42.458996000" lon="-2.465224000">
        <ele>399.30</ele>
        <time>2016-10-22T05:05:57Z</time>
      </trkpt>
      <trkpt lat="42.458996000" lon="-2.465224000">
        <ele>399.30</ele>
        <time>2016-10-22T05:05:58Z</time>
      </trkpt>
      <trkpt lat="42.458996000" lon="-2.465224000">
        <ele>399.30</ele>
        <time>2016-10-22T05:05:59Z</time>
      </trkpt>
      <trkpt lat="42.458996000" lon="-2.465224000">
        <ele>399.30</ele>
        <time>2016-10-22T05:06:00Z</time>
      </trkpt>
      <trkpt lat="42.458996000" lon="-2.465224000">
        <ele>399.30</ele>
        <time>2016-10-22T05:06:01Z</time>
      </trkpt>
      <trkpt lat="42.458996000" lon="-2.465224000">
        <ele>399.30</ele>
        <time>2016-10-22T05:06:02Z</time>
      </trkpt>
      <trkpt lat="42.458996000" lon="-2.465224000">
        <ele>399.30</ele>
        <time>2016-10-22T05:06:03Z</time>
      </trkpt>
      <trkpt lat="42.458996000" lon="-2.465224000">
        <ele>399.30</ele>
        <time>2016-10-22T05:06:04Z</time>
      </trkpt>
      <trkpt lat="42.458996000" lon="-2.465224000">
        <ele>399.30</ele>
        <time>2016-10-22T05:06:05Z</time>
      </trkpt>
      <trkpt lat="42.458996000" lon="-2.465224000">
        <ele>399.30</ele>
        <time>2016-10-22T05:06:06Z</time>
      </trkpt>
      <trkpt lat="42.458996000" lon="-2.465224000">
        <ele>399.30</ele>
        <time>2016-10-22T05:06:07Z</time>
      </trkpt>
      <trkpt lat="42.458996000" lon="-2.465224000">
        <ele>399.30</ele>
        <time>2016-10-22T05:06:08Z</time>
      </trkpt>
      <trkpt lat="42.458996000" lon="-2.465224000">
        <ele>399.30</ele>
        <time>2016-10-22T05:06:09Z</time>
      </trkpt>
      <trkpt lat="42.458996000" lon="-2.465224000">
        <ele>399.30</ele>
        <time>2016-10-22T05:06:10Z</time>
      </trkpt>
      <trkpt lat="42.458996000" lon="-2.465224000">
        <ele>399.30</ele>
        <time>2016-10-22T05:06:11Z</time>
      </trkpt>
      <trkpt lat="42.458996000" lon="-2.465224000">
        <ele>399.30</ele>
        <time>2016-10-22T05:06:12Z</time>
      </trkpt>
      <trkpt lat="42.458996000" lon="-2.465224000">
        <ele>399.30</ele>
        <time>2016-10-22T05:06:13Z</time>
      </trkpt>
      <trkpt lat="42.458996000" lon="-2.465224000">
        <ele>399.30</ele>
        <time>2016-10-22T05:06:14Z</time>
      </trkpt>
      <trkpt lat="42.458996000" lon="-2.465224000">
        <ele>399.30</ele>
        <time>2016-10-22T05:06:15Z</time>
      </trkpt>
      <trkpt lat="42.458996000" lon="-2.465224000">
        <ele>399.30</ele>
        <time>2016-10-22T05:06:16Z</time>
      </trkpt>
      <trkpt lat="42.458996000" lon="-2.465224000">
        <ele>399.30</ele>
        <time>2016-10-22T05:06:17Z</time>
      </trkpt>
      <trkpt lat="42.458996000" lon="-2.465224000">
        <ele>399.30</ele>
        <time>2016-10-22T05:06:18Z</time>
      </trkpt>
      <trkpt lat="42.458996000" lon="-2.465224000">
        <ele>399.30</ele>
        <time>2016-10-22T05:06:19Z</time>
      </trkpt>
      <trkpt lat="42.458996000" lon="-2.465224000">
        <ele>399.30</ele>
        <time>2016-10-22T05:06:20Z</time>
      </trkpt>
      <trkpt lat="42.458996000" lon="-2.465224000">
        <ele>399.30</ele>
        <time>2016-10-22T05:06:21Z</time>
      </trkpt>
      <trkpt lat="42.458996000" lon="-2.465224000">
        <ele>399.30</ele>
        <time>2016-10-22T05:06:22Z</time>
      </trkpt>
      <trkpt lat="42.458996000" lon="-2.465224000">
        <ele>399.30</ele>
        <time>2016-10-22T05:06:23Z</time>
      </trkpt>
      <trkpt lat="42.458996000" lon="-2.465224000">
        <ele>399.30</ele>
        <time>2016-10-22T05:06:24Z</time>
      </trkpt>
      <trkpt lat="42.458996000" lon="-2.465224000">
        <ele>399.30</ele>
        <time>2016-10-22T05:06:25Z</time>
      </trkpt>
      <trkpt lat="42.458996000" lon="-2.465224000">
        <ele>399.30</ele>
        <time>2016-10-22T05:06:26Z</time>
      </trkpt>
      <trkpt lat="42.458996000" lon="-2.465224000">
        <ele>399.30</ele>
        <time>2016-10-22T05:06:27Z</time>
      </trkpt>
      <trkpt lat="42.458996000" lon="-2.465224000">
        <ele>399.30</ele>
        <time>2016-10-22T05:06:28Z</time>
      </trkpt>
      <trkpt lat="42.458996000" lon="-2.465224000">
        <ele>399.30</ele>
        <time>2016-10-22T05:06:29Z</time>
      </trkpt>
      <trkpt lat="42.458996000" lon="-2.465224000">
        <ele>399.30</ele>
        <time>2016-10-22T05:06:30Z</time>
      </trkpt>
      <trkpt lat="42.458996000" lon="-2.465224000">
        <ele>399.30</ele>
        <time>2016-10-22T05:06:31Z</time>
      </trkpt>
      <trkpt lat="42.458996000" lon="-2.465224000">
        <ele>399.30</ele>
        <time>2016-10-22T05:06:32Z</time>
      </trkpt>
      <trkpt lat="42.458996000" lon="-2.465224000">
        <ele>399.30</ele>
        <time>2016-10-22T05:06:33Z</time>
      </trkpt>
      <trkpt lat="42.458996000" lon="-2.465224000">
        <ele>399.30</ele>
        <time>2016-10-22T05:06:34Z</time>
      </trkpt>
      <trkpt lat="42.458983000" lon="-2.465224000">
        <ele>399.30</ele>
        <time>2016-10-22T05:06:35Z</time>
      </trkpt>
      <trkpt lat="42.458983000" lon="-2.465224000">
        <ele>399.10</ele>
        <time>2016-10-22T05:06:36Z</time>
      </trkpt>
      <trkpt lat="42.458983000" lon="-2.465224000">
        <ele>399.00</ele>
        <time>2016-10-22T05:06:37Z</time>
      </trkpt>
      <trkpt lat="42.458983000" lon="-2.465224000">
        <ele>398.90</ele>
        <time>2016-10-22T05:06:38Z</time>
      </trkpt>
      <trkpt lat="42.458983000" lon="-2.465224000">
        <ele>399.00</ele>
        <time>2016-10-22T05:06:39Z</time>
      </trkpt>
      <trkpt lat="42.458933000" lon="-2.465210000">
        <ele>399.10</ele>
        <time>2016-10-22T05:06:40Z</time>
      </trkpt>
      <trkpt lat="42.458915000" lon="-2.465205000">
        <ele>399.20</ele>
        <time>2016-10-22T05:06:41Z</time>
      </trkpt>
      <trkpt lat="42.458897000" lon="-2.465201000">
        <ele>399.30</ele>
        <time>2016-10-22T05:06:42Z</time>
      </trkpt>
      <trkpt lat="42.458882000" lon="-2.465194000">
        <ele>399.40</ele>
        <time>2016-10-22T05:06:43Z</time>
      </trkpt>
      <trkpt lat="42.458871000" lon="-2.465190000">
        <ele>399.40</ele>
        <time>2016-10-22T05:06:44Z</time>
      </trkpt>
      <trkpt lat="42.458871000" lon="-2.465190000">
        <ele>399.40</ele>
        <time>2016-10-22T05:06:45Z</time>
      </trkpt>
      <trkpt lat="42.458871000" lon="-2.465190000">
        <ele>399.30</ele>
        <time>2016-10-22T05:06:47Z</time>
      </trkpt>
      <trkpt lat="42.458871000" lon="-2.465190000">
        <ele>399.10</ele>
        <time>2016-10-22T05:06:48Z</time>
      </trkpt>
      <trkpt lat="42.458871000" lon="-2.465190000">
        <ele>399.00</ele>
        <time>2016-10-22T05:06:49Z</time>
      </trkpt>
      <trkpt lat="42.458871000" lon="-2.465190000">
        <ele>398.90</ele>
        <time>2016-10-22T05:06:50Z</time>
      </trkpt>
      <trkpt lat="42.458871000" lon="-2.465190000">
        <ele>399.10</ele>
        <time>2016-10-22T05:06:51Z</time>
      </trkpt>
      <trkpt lat="42.458871000" lon="-2.465190000">
        <ele>399.30</ele>
        <time>2016-10-22T05:06:52Z</time>
      </trkpt>
      <trkpt lat="42.458871000" lon="-2.465190000">
        <ele>399.40</ele>
        <time>2016-10-22T05:06:53Z</time>
      </trkpt>
      <trkpt lat="42.458871000" lon="-2.465190000">
        <ele>399.50</ele>
        <time>2016-10-22T05:06:54Z</time>
      </trkpt>
      <trkpt lat="42.458871000" lon="-2.465190000">
        <ele>399.50</ele>
        <time>2016-10-22T05:06:55Z</time>
      </trkpt>
      <trkpt lat="42.458871000" lon="-2.465190000">
        <ele>399.50</ele>
        <time>2016-10-22T05:06:56Z</time>
      </trkpt>
      <trkpt lat="42.458871000" lon="-2.465190000">
        <ele>399.60</ele>
        <time>2016-10-22T05:06:57Z</time>
      </trkpt>
      <trkpt lat="42.458871000" lon="-2.465190000">
        <ele>399.60</ele>
        <time>2016-10-22T05:06:58Z</time>
      </trkpt>
      <trkpt lat="42.458871000" lon="-2.465190000">
        <ele>399.40</ele>
        <time>2016-10-22T05:06:59Z</time>
      </trkpt>
      <trkpt lat="42.458871000" lon="-2.465190000">
        <ele>399.40</ele>
        <time>2016-10-22T05:07:00Z</time>
      </trkpt>
      <trkpt lat="42.458871000" lon="-2.465190000">
        <ele>399.40</ele>
        <time>2016-10-22T05:07:01Z</time>
      </trkpt>
      <trkpt lat="42.458871000" lon="-2.465190000">
        <ele>399.50</ele>
        <time>2016-10-22T05:07:02Z</time>
      </trkpt>
      <trkpt lat="42.458871000" lon="-2.465190000">
        <ele>399.30</ele>
        <time>2016-10-22T05:07:03Z</time>
      </trkpt>
      <trkpt lat="42.458871000" lon="-2.465190000">
        <ele>399.20</ele>
        <time>2016-10-22T05:07:04Z</time>
      </trkpt>
      <trkpt lat="42.458871000" lon="-2.465190000">
        <ele>399.10</ele>
        <time>2016-10-22T05:07:05Z</time>
      </trkpt>
      <trkpt lat="42.458871000" lon="-2.465190000">
        <ele>399.00</ele>
        <time>2016-10-22T05:07:06Z</time>
      </trkpt>
      <trkpt lat="42.458871000" lon="-2.465190000">
        <ele>398.90</ele>
        <time>2016-10-22T05:07:07Z</time>
      </trkpt>
      <trkpt lat="42.458871000" lon="-2.465190000">
        <ele>398.90</ele>
        <time>2016-10-22T05:07:08Z</time>
      </trkpt>
      <trkpt lat="42.458871000" lon="-2.465190000">
        <ele>399.00</ele>
        <time>2016-10-22T05:07:09Z</time>
      </trkpt>
      <trkpt lat="42.458871000" lon="-2.465190000">
        <ele>399.10</ele>
        <time>2016-10-22T05:07:10Z</time>
      </trkpt>
      <trkpt lat="42.458871000" lon="-2.465190000">
        <ele>399.30</ele>
        <time>2016-10-22T05:07:11Z</time>
      </trkpt>
      <trkpt lat="42.458871000" lon="-2.465190000">
        <ele>399.40</ele>
        <time>2016-10-22T05:07:12Z</time>
      </trkpt>
      <trkpt lat="42.458871000" lon="-2.465190000">
        <ele>399.50</ele>
        <time>2016-10-22T05:07:13Z</time>
      </trkpt>
      <trkpt lat="42.458871000" lon="-2.465190000">
        <ele>399.60</ele>
        <time>2016-10-22T05:07:14Z</time>
      </trkpt>
      <trkpt lat="42.458871000" lon="-2.465190000">
        <ele>399.60</ele>
        <time>2016-10-22T05:07:15Z</time>
      </trkpt>
      <trkpt lat="42.458871000" lon="-2.465190000">
        <ele>399.70</ele>
        <time>2016-10-22T05:07:16Z</time>
      </trkpt>
      <trkpt lat="42.458871000" lon="-2.465190000">
        <ele>399.60</ele>
        <time>2016-10-22T05:07:17Z</time>
      </trkpt>
      <trkpt lat="42.458871000" lon="-2.465190000">
        <ele>399.50</ele>
        <time>2016-10-22T05:07:18Z</time>
      </trkpt>
      <trkpt lat="42.458871000" lon="-2.465190000">
        <ele>399.50</ele>
        <time>2016-10-22T05:07:19Z</time>
      </trkpt>
      <trkpt lat="42.458871000" lon="-2.465190000">
        <ele>399.40</ele>
        <time>2016-10-22T05:07:20Z</time>
      </trkpt>
      <trkpt lat="42.458871000" lon="-2.465190000">
        <ele>399.40</ele>
        <time>2016-10-22T05:07:21Z</time>
      </trkpt>
      <trkpt lat="42.458878000" lon="-2.465244000">
        <ele>399.40</ele>
        <time>2016-10-22T05:07:22Z</time>
      </trkpt>
      <trkpt lat="42.458889000" lon="-2.465265000">
        <ele>399.40</ele>
        <time>2016-10-22T05:07:23Z</time>
      </trkpt>
      <trkpt lat="42.458904000" lon="-2.465272000">
        <ele>399.30</ele>
        <time>2016-10-22T05:07:24Z</time>
      </trkpt>
      <trkpt lat="42.458919000" lon="-2.465273000">
        <ele>399.40</ele>
        <time>2016-10-22T05:07:25Z</time>
      </trkpt>
      <trkpt lat="42.458933000" lon="-2.465277000">
        <ele>399.40</ele>
        <time>2016-10-22T05:07:26Z</time>
      </trkpt>
      <trkpt lat="42.458941000" lon="-2.465277000">
        <ele>399.50</ele>
        <time>2016-10-22T05:07:27Z</time>
      </trkpt>
      <trkpt lat="42.458951000" lon="-2.465275000">
        <ele>399.50</ele>
        <time>2016-10-22T05:07:28Z</time>
      </trkpt>
      <trkpt lat="42.458966000" lon="-2.465277000">
        <ele>399.40</ele>
        <time>2016-10-22T05:07:29Z</time>
      </trkpt>
      <trkpt lat="42.458981000" lon="-2.465283000">
        <ele>399.40</ele>
        <time>2016-10-22T05:07:30Z</time>
      </trkpt>
      <trkpt lat="42.458996000" lon="-2.465293000">
        <ele>399.40</ele>
        <time>2016-10-22T05:07:31Z</time>
      </trkpt>
      <trkpt lat="42.459010000" lon="-2.465303000">
        <ele>399.40</ele>
        <time>2016-10-22T05:07:32Z</time>
      </trkpt>
      <trkpt lat="42.459022000" lon="-2.465315000">
        <ele>399.30</ele>
        <time>2016-10-22T05:07:33Z</time>
      </trkpt>
      <trkpt lat="42.459034000" lon="-2.465325000">
        <ele>399.20</ele>
        <time>2016-10-22T05:07:34Z</time>
      </trkpt>
      <trkpt lat="42.459046000" lon="-2.465343000">
        <ele>399.20</ele>
        <time>2016-10-22T05:07:35Z</time>
      </trkpt>
      <trkpt lat="42.459058000" lon="-2.465359000">
        <ele>399.10</ele>
        <time>2016-10-22T05:07:36Z</time>
      </trkpt>
      <trkpt lat="42.459072000" lon="-2.465380000">
        <ele>399.10</ele>
        <time>2016-10-22T05:07:37Z</time>
      </trkpt>
      <trkpt lat="42.459084000" lon="-2.465401000">
        <ele>399.10</ele>
        <time>2016-10-22T05:07:38Z</time>
      </trkpt>
      <trkpt lat="42.459103000" lon="-2.465428000">
        <ele>399.20</ele>
        <time>2016-10-22T05:07:39Z</time>
      </trkpt>
      <trkpt lat="42.459117000" lon="-2.465454000">
        <ele>399.20</ele>
        <time>2016-10-22T05:07:40Z</time>
      </trkpt>
      <trkpt lat="42.459128000" lon="-2.465475000">
        <ele>399.20</ele>
        <time>2016-10-22T05:07:41Z</time>
      </trkpt>
      <trkpt lat="42.459141000" lon="-2.465505000">
        <ele>399.20</ele>
        <time>2016-10-22T05:07:42Z</time>
      </trkpt>
      <trkpt lat="42.459150000" lon="-2.465530000">
        <ele>399.30</ele>
        <time>2016-10-22T05:07:43Z</time>
      </trkpt>
      <trkpt lat="42.459161000" lon="-2.465547000">
        <ele>399.30</ele>
        <time>2016-10-22T05:07:44Z</time>
      </trkpt>
      <trkpt lat="42.459169000" lon="-2.465563000">
        <ele>399.20</ele>
        <time>2016-10-22T05:07:45Z</time>
      </trkpt>
      <trkpt lat="42.459177000" lon="-2.465583000">
        <ele>399.20</ele>
        <time>2016-10-22T05:07:46Z</time>
      </trkpt>
      <trkpt lat="42.459190000" lon="-2.465620000">
        <ele>399.10</ele>
        <time>2016-10-22T05:07:48Z</time>
      </trkpt>
      <trkpt lat="42.459193000" lon="-2.465644000">
        <ele>399.20</ele>
        <time>2016-10-22T05:07:49Z</time>
      </trkpt>
      <trkpt lat="42.459204000" lon="-2.465669000">
        <ele>399.30</ele>
        <time>2016-10-22T05:07:50Z</time>
      </trkpt>
      <trkpt lat="42.459212000" lon="-2.465692000">
        <ele>399.40</ele>
        <time>2016-10-22T05:07:51Z</time>
      </trkpt>
      <trkpt lat="42.459222000" lon="-2.465717000">
        <ele>399.40</ele>
        <time>2016-10-22T05:07:52Z</time>
      </trkpt>
      <trkpt lat="42.459237000" lon="-2.465738000">
        <ele>399.40</ele>
        <time>2016-10-22T05:07:53Z</time>
      </trkpt>
      <trkpt lat="42.459259000" lon="-2.465762000">
        <ele>399.40</ele>
        <time>2016-10-22T05:07:54Z</time>
      </trkpt>
      <trkpt lat="42.459284000" lon="-2.465791000">
        <ele>399.40</ele>
        <time>2016-10-22T05:07:55Z</time>
      </trkpt>
      <trkpt lat="42.459315000" lon="-2.465818000">
        <ele>399.30</ele>
        <time>2016-10-22T05:07:56Z</time>
      </trkpt>
      <trkpt lat="42.459346000" lon="-2.465832000">
        <ele>399.30</ele>
        <time>2016-10-22T05:07:57Z</time>
      </trkpt>
      <trkpt lat="42.459375000" lon="-2.465838000">
        <ele>399.30</ele>
        <time>2016-10-22T05:07:58Z</time>
      </trkpt>
      <trkpt lat="42.459408000" lon="-2.465840000">
        <ele>399.10</ele>
        <time>2016-10-22T05:07:59Z</time>
      </trkpt>
      <trkpt lat="42.459443000" lon="-2.465848000">
        <ele>398.90</ele>
        <time>2016-10-22T05:08:00Z</time>
      </trkpt>
      <trkpt lat="42.459480000" lon="-2.465858000">
        <ele>398.70</ele>
        <time>2016-10-22T05:08:01Z</time>
      </trkpt>
      <trkpt lat="42.459516000" lon="-2.465868000">
        <ele>398.60</ele>
        <time>2016-10-22T05:08:02Z</time>
      </trkpt>
      <trkpt lat="42.459554000" lon="-2.465880000">
        <ele>398.50</ele>
        <time>2016-10-22T05:08:03Z</time>
      </trkpt>
      <trkpt lat="42.459593000" lon="-2.465890000">
        <ele>398.50</ele>
        <time>2016-10-22T05:08:04Z</time>
      </trkpt>
      <trkpt lat="42.459629000" lon="-2.465904000">
        <ele>398.40</ele>
        <time>2016-10-22T05:08:05Z</time>
      </trkpt>
      <trkpt lat="42.459662000" lon="-2.465914000">
        <ele>398.40</ele>
        <time>2016-10-22T05:08:06Z</time>
      </trkpt>
      <trkpt lat="42.459696000" lon="-2.465929000">
        <ele>398.10</ele>
        <time>2016-10-22T05:08:07Z</time>
      </trkpt>
      <trkpt lat="42.459727000" lon="-2.465939000">
        <ele>397.90</ele>
        <time>2016-10-22T05:08:08Z</time>
      </trkpt>
      <trkpt lat="42.459757000" lon="-2.465950000">
        <ele>397.70</ele>
        <time>2016-10-22T05:08:09Z</time>
      </trkpt>
      <trkpt lat="42.459787000" lon="-2.465965000">
        <ele>397.60</ele>
        <time>2016-10-22T05:08:10Z</time>
      </trkpt>
      <trkpt lat="42.459818000" lon="-2.465976000">
        <ele>397.50</ele>
        <time>2016-10-22T05:08:11Z</time>
      </trkpt>
      <trkpt lat="42.459850000" lon="-2.465991000">
        <ele>397.50</ele>
        <time>2016-10-22T05:08:12Z</time>
      </trkpt>
      <trkpt lat="42.459885000" lon="-2.466004000">
        <ele>397.50</ele>
        <time>2016-10-22T05:08:13Z</time>
      </trkpt>
      <trkpt lat="42.459918000" lon="-2.466018000">
        <ele>397.50</ele>
        <time>2016-10-22T05:08:14Z</time>
      </trkpt>
      <trkpt lat="42.459952000" lon="-2.466032000">
        <ele>397.40</ele>
        <time>2016-10-22T05:08:15Z</time>
      </trkpt>
      <trkpt lat="42.459987000" lon="-2.466048000">
        <ele>397.30</ele>
        <time>2016-10-22T05:08:16Z</time>
      </trkpt>
      <trkpt lat="42.460022000" lon="-2.466065000">
        <ele>397.10</ele>
        <time>2016-10-22T05:08:17Z</time>
      </trkpt>
      <trkpt lat="42.460059000" lon="-2.466085000">
        <ele>397.00</ele>
        <time>2016-10-22T05:08:18Z</time>
      </trkpt>
      <trkpt lat="42.460091000" lon="-2.466105000">
        <ele>396.90</ele>
        <time>2016-10-22T05:08:19Z</time>
      </trkpt>
      <trkpt lat="42.460128000" lon="-2.466122000">
        <ele>396.80</ele>
        <time>2016-10-22T05:08:20Z</time>
      </trkpt>
      <trkpt lat="42.460163000" lon="-2.466136000">
        <ele>396.70</ele>
        <time>2016-10-22T05:08:21Z</time>
      </trkpt>
      <trkpt lat="42.460199000" lon="-2.466147000">
        <ele>396.60</ele>
        <time>2016-10-22T05:08:22Z</time>
      </trkpt>
      <trkpt lat="42.460236000" lon="-2.466164000">
        <ele>396.50</ele>
        <time>2016-10-22T05:08:23Z</time>
      </trkpt>
      <trkpt lat="42.460273000" lon="-2.466179000">
        <ele>396.40</ele>
        <time>2016-10-22T05:08:24Z</time>
      </trkpt>
      <trkpt lat="42.460306000" lon="-2.466193000">
        <ele>396.40</ele>
        <time>2016-10-22T05:08:25Z</time>
      </trkpt>
      <trkpt lat="42.460340000" lon="-2.466205000">
        <ele>396.40</ele>
        <time>2016-10-22T05:08:26Z</time>
      </trkpt>
      <trkpt lat="42.460370000" lon="-2.466214000">
        <ele>396.30</ele>
        <time>2016-10-22T05:08:27Z</time>
      </trkpt>
      <trkpt lat="42.460397000" lon="-2.466218000">
        <ele>396.20</ele>
        <time>2016-10-22T05:08:28Z</time>
      </trkpt>
      <trkpt lat="42.460424000" lon="-2.466227000">
        <ele>396.10</ele>
        <time>2016-10-22T05:08:29Z</time>
      </trkpt>
      <trkpt lat="42.460450000" lon="-2.466240000">
        <ele>396.00</ele>
        <time>2016-10-22T05:08:30Z</time>
      </trkpt>
      <trkpt lat="42.460475000" lon="-2.466249000">
        <ele>395.90</ele>
        <time>2016-10-22T05:08:31Z</time>
      </trkpt>
      <trkpt lat="42.460501000" lon="-2.466256000">
        <ele>395.80</ele>
        <time>2016-10-22T05:08:32Z</time>
      </trkpt>
      <trkpt lat="42.460522000" lon="-2.466267000">
        <ele>395.70</ele>
        <time>2016-10-22T05:08:33Z</time>
      </trkpt>
      <trkpt lat="42.460542000" lon="-2.466274000">
        <ele>395.60</ele>
        <time>2016-10-22T05:08:34Z</time>
      </trkpt>
      <trkpt lat="42.460560000" lon="-2.466287000">
        <ele>395.50</ele>
        <time>2016-10-22T05:08:35Z</time>
      </trkpt>
      <trkpt lat="42.460582000" lon="-2.466300000">
        <ele>395.40</ele>
        <time>2016-10-22T05:08:36Z</time>
      </trkpt>
      <trkpt lat="42.460608000" lon="-2.466309000">
        <ele>395.30</ele>
        <time>2016-10-22T05:08:37Z</time>
      </trkpt>
      <trkpt lat="42.460634000" lon="-2.466320000">
        <ele>395.20</ele>
        <time>2016-10-22T05:08:38Z</time>
      </trkpt>
      <trkpt lat="42.460662000" lon="-2.466332000">
        <ele>395.20</ele>
        <time>2016-10-22T05:08:39Z</time>
      </trkpt>
      <trkpt lat="42.460688000" lon="-2.466344000">
        <ele>395.20</ele>
        <time>2016-10-22T05:08:40Z</time>
      </trkpt>
      <trkpt lat="42.460716000" lon="-2.466357000">
        <ele>394.80</ele>
        <time>2016-10-22T05:08:41Z</time>
      </trkpt>
      <trkpt lat="42.460739000" lon="-2.466368000">
        <ele>394.60</ele>
        <time>2016-10-22T05:08:42Z</time>
      </trkpt>
      <trkpt lat="42.460762000" lon="-2.466383000">
        <ele>394.50</ele>
        <time>2016-10-22T05:08:43Z</time>
      </trkpt>
      <trkpt lat="42.460792000" lon="-2.466396000">
        <ele>394.40</ele>
        <time>2016-10-22T05:08:44Z</time>
      </trkpt>
      <trkpt lat="42.460820000" lon="-2.466409000">
        <ele>394.30</ele>
        <time>2016-10-22T05:08:45Z</time>
      </trkpt>
      <trkpt lat="42.460842000" lon="-2.466420000">
        <ele>394.30</ele>
        <time>2016-10-22T05:08:46Z</time>
      </trkpt>
      <trkpt lat="42.460868000" lon="-2.466435000">
        <ele>394.20</ele>
        <time>2016-10-22T05:08:47Z</time>
      </trkpt>
      <trkpt lat="42.460925000" lon="-2.466459000">
        <ele>394.00</ele>
        <time>2016-10-22T05:08:49Z</time>
      </trkpt>
      <trkpt lat="42.460950000" lon="-2.466472000">
        <ele>393.90</ele>
        <time>2016-10-22T05:08:50Z</time>
      </trkpt>
      <trkpt lat="42.460975000" lon="-2.466484000">
        <ele>393.70</ele>
        <time>2016-10-22T05:08:51Z</time>
      </trkpt>
      <trkpt lat="42.461004000" lon="-2.466499000">
        <ele>393.70</ele>
        <time>2016-10-22T05:08:52Z</time>
      </trkpt>
      <trkpt lat="42.461032000" lon="-2.466513000">
        <ele>393.60</ele>
        <time>2016-10-22T05:08:53Z</time>
      </trkpt>
      <trkpt lat="42.461054000" lon="-2.466524000">
        <ele>393.50</ele>
        <time>2016-10-22T05:08:54Z</time>
      </trkpt>
      <trkpt lat="42.461079000" lon="-2.466532000">
        <ele>393.50</ele>
        <time>2016-10-22T05:08:55Z</time>
      </trkpt>
      <trkpt lat="42.461107000" lon="-2.466542000">
        <ele>393.50</ele>
        <time>2016-10-22T05:08:56Z</time>
      </trkpt>
      <trkpt lat="42.461138000" lon="-2.466550000">
        <ele>393.60</ele>
        <time>2016-10-22T05:08:57Z</time>
      </trkpt>
      <trkpt lat="42.461170000" lon="-2.466559000">
        <ele>393.70</ele>
        <time>2016-10-22T05:08:58Z</time>
      </trkpt>
      <trkpt lat="42.461201000" lon="-2.466576000">
        <ele>393.50</ele>
        <time>2016-10-22T05:08:59Z</time>
      </trkpt>
      <trkpt lat="42.461232000" lon="-2.466591000">
        <ele>393.30</ele>
        <time>2016-10-22T05:09:00Z</time>
      </trkpt>
      <trkpt lat="42.461263000" lon="-2.466605000">
        <ele>393.30</ele>
        <time>2016-10-22T05:09:01Z</time>
      </trkpt>
      <trkpt lat="42.461293000" lon="-2.466618000">
        <ele>393.20</ele>
        <time>2016-10-22T05:09:02Z</time>
      </trkpt>
      <trkpt lat="42.461323000" lon="-2.466632000">
        <ele>393.20</ele>
        <time>2016-10-22T05:09:03Z</time>
      </trkpt>
      <trkpt lat="42.461352000" lon="-2.466644000">
        <ele>393.10</ele>
        <time>2016-10-22T05:09:04Z</time>
      </trkpt>
      <trkpt lat="42.461381000" lon="-2.466654000">
        <ele>393.10</ele>
        <time>2016-10-22T05:09:05Z</time>
      </trkpt>
      <trkpt lat="42.461408000" lon="-2.466665000">
        <ele>393.10</ele>
        <time>2016-10-22T05:09:06Z</time>
      </trkpt>
      <trkpt lat="42.461440000" lon="-2.466676000">
        <ele>393.00</ele>
        <time>2016-10-22T05:09:07Z</time>
      </trkpt>
      <trkpt lat="42.461468000" lon="-2.466694000">
        <ele>392.90</ele>
        <time>2016-10-22T05:09:08Z</time>
      </trkpt>
      <trkpt lat="42.461497000" lon="-2.466704000">
        <ele>393.00</ele>
        <time>2016-10-22T05:09:09Z</time>
      </trkpt>
      <trkpt lat="42.461525000" lon="-2.466715000">
        <ele>393.00</ele>
        <time>2016-10-22T05:09:10Z</time>
      </trkpt>
      <trkpt lat="42.461553000" lon="-2.466729000">
        <ele>392.90</ele>
        <time>2016-10-22T05:09:11Z</time>
      </trkpt>
      <trkpt lat="42.461580000" lon="-2.466738000">
        <ele>392.80</ele>
        <time>2016-10-22T05:09:12Z</time>
      </trkpt>
      <trkpt lat="42.461608000" lon="-2.466748000">
        <ele>392.80</ele>
        <time>2016-10-22T05:09:13Z</time>
      </trkpt>
      <trkpt lat="42.461636000" lon="-2.466763000">
        <ele>392.70</ele>
        <time>2016-10-22T05:09:14Z</time>
      </trkpt>
      <trkpt lat="42.461659000" lon="-2.466774000">
        <ele>392.60</ele>
        <time>2016-10-22T05:09:15Z</time>
      </trkpt>
      <trkpt lat="42.461683000" lon="-2.466787000">
        <ele>392.60</ele>
        <time>2016-10-22T05:09:16Z</time>
      </trkpt>
      <trkpt lat="42.461705000" lon="-2.466795000">
        <ele>392.50</ele>
        <time>2016-10-22T05:09:17Z</time>
      </trkpt>
      <trkpt lat="42.461729000" lon="-2.466802000">
        <ele>392.50</ele>
        <time>2016-10-22T05:09:18Z</time>
      </trkpt>
      <trkpt lat="42.461753000" lon="-2.466815000">
        <ele>392.40</ele>
        <time>2016-10-22T05:09:19Z</time>
      </trkpt>
      <trkpt lat="42.461780000" lon="-2.466825000">
        <ele>392.40</ele>
        <time>2016-10-22T05:09:20Z</time>
      </trkpt>
      <trkpt lat="42.461807000" lon="-2.466834000">
        <ele>392.40</ele>
        <time>2016-10-22T05:09:21Z</time>
      </trkpt>
      <trkpt lat="42.461833000" lon="-2.466845000">
        <ele>392.50</ele>
        <time>2016-10-22T05:09:22Z</time>
      </trkpt>
      <trkpt lat="42.461858000" lon="-2.466852000">
        <ele>392.50</ele>
        <time>2016-10-22T05:09:23Z</time>
      </trkpt>
      <trkpt lat="42.461882000" lon="-2.466859000">
        <ele>392.50</ele>
        <time>2016-10-22T05:09:24Z</time>
      </trkpt>
      <trkpt lat="42.461906000" lon="-2.466871000">
        <ele>392.50</ele>
        <time>2016-10-22T05:09:25Z</time>
      </trkpt>
      <trkpt lat="42.461927000" lon="-2.466880000">
        <ele>392.50</ele>
        <time>2016-10-22T05:09:26Z</time>
      </trkpt>
      <trkpt lat="42.461945000" lon="-2.466888000">
        <ele>392.50</ele>
        <time>2016-10-22T05:09:27Z</time>
      </trkpt>
      <trkpt lat="42.461965000" lon="-2.466897000">
        <ele>392.50</ele>
        <time>2016-10-22T05:09:28Z</time>
      </trkpt>
      <trkpt lat="42.461987000" lon="-2.466902000">
        <ele>392.40</ele>
        <time>2016-10-22T05:09:29Z</time>
      </trkpt>
      <trkpt lat="42.462009000" lon="-2.466911000">
        <ele>392.40</ele>
        <time>2016-10-22T05:09:30Z</time>
      </trkpt>
      <trkpt lat="42.462024000" lon="-2.466924000">
        <ele>392.20</ele>
        <time>2016-10-22T05:09:31Z</time>
      </trkpt>
      <trkpt lat="42.462043000" lon="-2.466936000">
        <ele>392.20</ele>
        <time>2016-10-22T05:09:32Z</time>
      </trkpt>
      <trkpt lat="42.462064000" lon="-2.466939000">
        <ele>392.10</ele>
        <time>2016-10-22T05:09:33Z</time>
      </trkpt>
      <trkpt lat="42.462086000" lon="-2.466936000">
        <ele>392.10</ele>
        <time>2016-10-22T05:09:34Z</time>
      </trkpt>
      <trkpt lat="42.462112000" lon="-2.466934000">
        <ele>392.10</ele>
        <time>2016-10-22T05:09:35Z</time>
      </trkpt>
      <trkpt lat="42.462135000" lon="-2.466929000">
        <ele>392.20</ele>
        <time>2016-10-22T05:09:36Z</time>
      </trkpt>
      <trkpt lat="42.462161000" lon="-2.466925000">
        <ele>392.20</ele>
        <time>2016-10-22T05:09:37Z</time>
      </trkpt>
      <trkpt lat="42.462190000" lon="-2.466912000">
        <ele>392.30</ele>
        <time>2016-10-22T05:09:38Z</time>
      </trkpt>
      <trkpt lat="42.462224000" lon="-2.466901000">
        <ele>392.30</ele>
        <time>2016-10-22T05:09:39Z</time>
      </trkpt>
      <trkpt lat="42.462263000" lon="-2.466899000">
        <ele>392.30</ele>
        <time>2016-10-22T05:09:40Z</time>
      </trkpt>
      <trkpt lat="42.462300000" lon="-2.466910000">
        <ele>392.30</ele>
        <time>2016-10-22T05:09:41Z</time>
      </trkpt>
      <trkpt lat="42.462335000" lon="-2.466933000">
        <ele>392.30</ele>
        <time>2016-10-22T05:09:42Z</time>
      </trkpt>
      <trkpt lat="42.462368000" lon="-2.466967000">
        <ele>392.30</ele>
        <time>2016-10-22T05:09:43Z</time>
      </trkpt>
      <trkpt lat="42.462394000" lon="-2.467006000">
        <ele>392.30</ele>
        <time>2016-10-22T05:09:44Z</time>
      </trkpt>
      <trkpt lat="42.462416000" lon="-2.467047000">
        <ele>392.30</ele>
        <time>2016-10-22T05:09:45Z</time>
      </trkpt>
      <trkpt lat="42.462439000" lon="-2.467081000">
        <ele>392.20</ele>
        <time>2016-10-22T05:09:46Z</time>
      </trkpt>
      <trkpt lat="42.462465000" lon="-2.467108000">
        <ele>392.30</ele>
        <time>2016-10-22T05:09:47Z</time>
      </trkpt>
      <trkpt lat="42.462491000" lon="-2.467130000">
        <ele>392.30</ele>
        <time>2016-10-22T05:09:48Z</time>
      </trkpt>
      <trkpt lat="42.462520000" lon="-2.467144000">
        <ele>392.30</ele>
        <time>2016-10-22T05:09:49Z</time>
      </trkpt>
      <trkpt lat="42.462578000" lon="-2.467166000">
        <ele>392.30</ele>
        <time>2016-10-22T05:09:51Z</time>
      </trkpt>
      <trkpt lat="42.462607000" lon="-2.467181000">
        <ele>392.30</ele>
        <time>2016-10-22T05:09:52Z</time>
      </trkpt>
      <trkpt lat="42.462633000" lon="-2.467196000">
        <ele>392.30</ele>
        <time>2016-10-22T05:09:53Z</time>
      </trkpt>
      <trkpt lat="42.462663000" lon="-2.467207000">
        <ele>392.30</ele>
        <time>2016-10-22T05:09:54Z</time>
      </trkpt>
      <trkpt lat="42.462693000" lon="-2.467215000">
        <ele>392.40</ele>
        <time>2016-10-22T05:09:55Z</time>
      </trkpt>
      <trkpt lat="42.462722000" lon="-2.467225000">
        <ele>392.50</ele>
        <time>2016-10-22T05:09:56Z</time>
      </trkpt>
      <trkpt lat="42.462751000" lon="-2.467237000">
        <ele>392.70</ele>
        <time>2016-10-22T05:09:57Z</time>
      </trkpt>
      <trkpt lat="42.462778000" lon="-2.467254000">
        <ele>392.90</ele>
        <time>2016-10-22T05:09:58Z</time>
      </trkpt>
      <trkpt lat="42.462803000" lon="-2.467269000">
        <ele>393.10</ele>
        <time>2016-10-22T05:09:59Z</time>
      </trkpt>
      <trkpt lat="42.462830000" lon="-2.467283000">
        <ele>393.20</ele>
        <time>2016-10-22T05:10:00Z</time>
      </trkpt>
      <trkpt lat="42.462856000" lon="-2.467293000">
        <ele>393.20</ele>
        <time>2016-10-22T05:10:01Z</time>
      </trkpt>
      <trkpt lat="42.462887000" lon="-2.467304000">
        <ele>393.30</ele>
        <time>2016-10-22T05:10:02Z</time>
      </trkpt>
      <trkpt lat="42.462924000" lon="-2.467311000">
        <ele>393.40</ele>
        <time>2016-10-22T05:10:03Z</time>
      </trkpt>
      <trkpt lat="42.462966000" lon="-2.467320000">
        <ele>393.40</ele>
        <time>2016-10-22T05:10:04Z</time>
      </trkpt>
      <trkpt lat="42.463006000" lon="-2.467324000">
        <ele>393.40</ele>
        <time>2016-10-22T05:10:05Z</time>
      </trkpt>
      <trkpt lat="42.463044000" lon="-2.467328000">
        <ele>393.40</ele>
        <time>2016-10-22T05:10:06Z</time>
      </trkpt>
      <trkpt lat="42.463080000" lon="-2.467335000">
        <ele>393.60</ele>
        <time>2016-10-22T05:10:07Z</time>
      </trkpt>
      <trkpt lat="42.463111000" lon="-2.467342000">
        <ele>393.60</ele>
        <time>2016-10-22T05:10:08Z</time>
      </trkpt>
      <trkpt lat="42.463139000" lon="-2.467347000">
        <ele>393.80</ele>
        <time>2016-10-22T05:10:09Z</time>
      </trkpt>
      <trkpt lat="42.463166000" lon="-2.467346000">
        <ele>394.00</ele>
        <time>2016-10-22T05:10:10Z</time>
      </trkpt>
      <trkpt lat="42.463191000" lon="-2.467345000">
        <ele>394.10</ele>
        <time>2016-10-22T05:10:11Z</time>
      </trkpt>
      <trkpt lat="42.463218000" lon="-2.467338000">
        <ele>394.20</ele>
        <time>2016-10-22T05:10:12Z</time>
      </trkpt>
      <trkpt lat="42.463246000" lon="-2.467328000">
        <ele>394.30</ele>
        <time>2016-10-22T05:10:13Z</time>
      </trkpt>
      <trkpt lat="42.463272000" lon="-2.467315000">
        <ele>394.30</ele>
        <time>2016-10-22T05:10:14Z</time>
      </trkpt>
      <trkpt lat="42.463303000" lon="-2.467303000">
        <ele>394.40</ele>
        <time>2016-10-22T05:10:15Z</time>
      </trkpt>
      <trkpt lat="42.463333000" lon="-2.467299000">
        <ele>394.40</ele>
        <time>2016-10-22T05:10:16Z</time>
      </trkpt>
      <trkpt lat="42.463363000" lon="-2.467303000">
        <ele>394.50</ele>
        <time>2016-10-22T05:10:17Z</time>
      </trkpt>
      <trkpt lat="42.463390000" lon="-2.467314000">
        <ele>394.60</ele>
        <time>2016-10-22T05:10:18Z</time>
      </trkpt>
      <trkpt lat="42.463416000" lon="-2.467335000">
        <ele>394.80</ele>
        <time>2016-10-22T05:10:19Z</time>
      </trkpt>
      <trkpt lat="42.463441000" lon="-2.467354000">
        <ele>394.90</ele>
        <time>2016-10-22T05:10:20Z</time>
      </trkpt>
      <trkpt lat="42.463467000" lon="-2.467375000">
        <ele>394.90</ele>
        <time>2016-10-22T05:10:21Z</time>
      </trkpt>
      <trkpt lat="42.463494000" lon="-2.467397000">
        <ele>395.00</ele>
        <time>2016-10-22T05:10:22Z</time>
      </trkpt>
      <trkpt lat="42.463521000" lon="-2.467415000">
        <ele>395.00</ele>
        <time>2016-10-22T05:10:23Z</time>
      </trkpt>
      <trkpt lat="42.463551000" lon="-2.467427000">
        <ele>395.00</ele>
        <time>2016-10-22T05:10:24Z</time>
      </trkpt>
      <trkpt lat="42.463576000" lon="-2.467435000">
        <ele>395.10</ele>
        <time>2016-10-22T05:10:25Z</time>
      </trkpt>
      <trkpt lat="42.463605000" lon="-2.467439000">
        <ele>395.10</ele>
        <time>2016-10-22T05:10:26Z</time>
      </trkpt>
      <trkpt lat="42.463633000" lon="-2.467440000">
        <ele>395.30</ele>
        <time>2016-10-22T05:10:27Z</time>
      </trkpt>
      <trkpt lat="42.463663000" lon="-2.467442000">
        <ele>395.50</ele>
        <time>2016-10-22T05:10:28Z</time>
      </trkpt>
      <trkpt lat="42.463693000" lon="-2.467442000">
        <ele>395.70</ele>
        <time>2016-10-22T05:10:29Z</time>
      </trkpt>
      <trkpt lat="42.463722000" lon="-2.467443000">
        <ele>395.90</ele>
        <time>2016-10-22T05:10:30Z</time>
      </trkpt>
      <trkpt lat="42.463747000" lon="-2.467442000">
        <ele>396.10</ele>
        <time>2016-10-22T05:10:31Z</time>
      </trkpt>
      <trkpt lat="42.463774000" lon="-2.467438000">
        <ele>396.30</ele>
        <time>2016-10-22T05:10:32Z</time>
      </trkpt>
      <trkpt lat="42.463804000" lon="-2.467429000">
        <ele>396.40</ele>
        <time>2016-10-22T05:10:33Z</time>
      </trkpt>
      <trkpt lat="42.463833000" lon="-2.467419000">
        <ele>396.40</ele>
        <time>2016-10-22T05:10:34Z</time>
      </trkpt>
      <trkpt lat="42.463860000" lon="-2.467412000">
        <ele>396.60</ele>
        <time>2016-10-22T05:10:35Z</time>
      </trkpt>
      <trkpt lat="42.463886000" lon="-2.467402000">
        <ele>396.80</ele>
        <time>2016-10-22T05:10:36Z</time>
      </trkpt>
      <trkpt lat="42.463915000" lon="-2.467398000">
        <ele>396.90</ele>
        <time>2016-10-22T05:10:37Z</time>
      </trkpt>
      <trkpt lat="42.463942000" lon="-2.467393000">
        <ele>397.00</ele>
        <time>2016-10-22T05:10:38Z</time>
      </trkpt>
      <trkpt lat="42.463971000" lon="-2.467391000">
        <ele>397.10</ele>
        <time>2016-10-22T05:10:39Z</time>
      </trkpt>
      <trkpt lat="42.463986000" lon="-2.467425000">
        <ele>397.10</ele>
        <time>2016-10-22T05:10:40Z</time>
      </trkpt>
      <trkpt lat="42.464014000" lon="-2.467418000">
        <ele>397.10</ele>
        <time>2016-10-22T05:10:41Z</time>
      </trkpt>
      <trkpt lat="42.464038000" lon="-2.467428000">
        <ele>397.10</ele>
        <time>2016-10-22T05:10:42Z</time>
      </trkpt>
      <trkpt lat="42.464069000" lon="-2.467422000">
        <ele>397.10</ele>
        <time>2016-10-22T05:10:43Z</time>
      </trkpt>
      <trkpt lat="42.464099000" lon="-2.467416000">
        <ele>397.10</ele>
        <time>2016-10-22T05:10:44Z</time>
      </trkpt>
      <trkpt lat="42.464133000" lon="-2.467418000">
        <ele>397.20</ele>
        <time>2016-10-22T05:10:45Z</time>
      </trkpt>
      <trkpt lat="42.464160000" lon="-2.467416000">
        <ele>397.40</ele>
        <time>2016-10-22T05:10:46Z</time>
      </trkpt>
      <trkpt lat="42.464191000" lon="-2.467418000">
        <ele>397.50</ele>
        <time>2016-10-22T05:10:47Z</time>
      </trkpt>
      <trkpt lat="42.464223000" lon="-2.467423000">
        <ele>397.60</ele>
        <time>2016-10-22T05:10:48Z</time>
      </trkpt>
      <trkpt lat="42.464252000" lon="-2.467421000">
        <ele>397.70</ele>
        <time>2016-10-22T05:10:49Z</time>
      </trkpt>
      <trkpt lat="42.464280000" lon="-2.467414000">
        <ele>397.80</ele>
        <time>2016-10-22T05:10:50Z</time>
      </trkpt>
      <trkpt lat="42.464336000" lon="-2.467393000">
        <ele>397.80</ele>
        <time>2016-10-22T05:10:52Z</time>
      </trkpt>
      <trkpt lat="42.464362000" lon="-2.467390000">
        <ele>397.80</ele>
        <time>2016-10-22T05:10:53Z</time>
      </trkpt>
      <trkpt lat="42.464387000" lon="-2.467384000">
        <ele>397.80</ele>
        <time>2016-10-22T05:10:54Z</time>
      </trkpt>
      <trkpt lat="42.464413000" lon="-2.467382000">
        <ele>397.80</ele>
        <time>2016-10-22T05:10:55Z</time>
      </trkpt>
      <trkpt lat="42.464442000" lon="-2.467378000">
        <ele>397.80</ele>
        <time>2016-10-22T05:10:56Z</time>
      </trkpt>
      <trkpt lat="42.464468000" lon="-2.467366000">
        <ele>397.80</ele>
        <time>2016-10-22T05:10:57Z</time>
      </trkpt>
      <trkpt lat="42.464495000" lon="-2.467357000">
        <ele>397.80</ele>
        <time>2016-10-22T05:10:58Z</time>
      </trkpt>
      <trkpt lat="42.464522000" lon="-2.467350000">
        <ele>397.90</ele>
        <time>2016-10-22T05:10:59Z</time>
      </trkpt>
      <trkpt lat="42.464550000" lon="-2.467344000">
        <ele>398.00</ele>
        <time>2016-10-22T05:11:00Z</time>
      </trkpt>
      <trkpt lat="42.464580000" lon="-2.467339000">
        <ele>398.00</ele>
        <time>2016-10-22T05:11:01Z</time>
      </trkpt>
      <trkpt lat="42.464608000" lon="-2.467327000">
        <ele>398.10</ele>
        <time>2016-10-22T05:11:02Z</time>
      </trkpt>
      <trkpt lat="42.464635000" lon="-2.467315000">
        <ele>398.10</ele>
        <time>2016-10-22T05:11:03Z</time>
      </trkpt>
      <trkpt lat="42.464662000" lon="-2.467313000">
        <ele>398.10</ele>
        <time>2016-10-22T05:11:04Z</time>
      </trkpt>
      <trkpt lat="42.464687000" lon="-2.467310000">
        <ele>398.10</ele>
        <time>2016-10-22T05:11:05Z</time>
      </trkpt>
      <trkpt lat="42.464710000" lon="-2.467306000">
        <ele>398.10</ele>
        <time>2016-10-22T05:11:06Z</time>
      </trkpt>
      <trkpt lat="42.464735000" lon="-2.467305000">
        <ele>398.20</ele>
        <time>2016-10-22T05:11:07Z</time>
      </trkpt>
      <trkpt lat="42.464759000" lon="-2.467301000">
        <ele>398.20</ele>
        <time>2016-10-22T05:11:08Z</time>
      </trkpt>
      <trkpt lat="42.464784000" lon="-2.467298000">
        <ele>398.20</ele>
        <time>2016-10-22T05:11:09Z</time>
      </trkpt>
      <trkpt lat="42.464804000" lon="-2.467292000">
        <ele>398.20</ele>
        <time>2016-10-22T05:11:10Z</time>
      </trkpt>
      <trkpt lat="42.464823000" lon="-2.467283000">
        <ele>398.20</ele>
        <time>2016-10-22T05:11:11Z</time>
      </trkpt>
      <trkpt lat="42.464843000" lon="-2.467273000">
        <ele>398.20</ele>
        <time>2016-10-22T05:11:12Z</time>
      </trkpt>
      <trkpt lat="42.464864000" lon="-2.467267000">
        <ele>398.10</ele>
        <time>2016-10-22T05:11:13Z</time>
      </trkpt>
      <trkpt lat="42.464883000" lon="-2.467264000">
        <ele>398.10</ele>
        <time>2016-10-22T05:11:14Z</time>
      </trkpt>
      <trkpt lat="42.464901000" lon="-2.467262000">
        <ele>398.00</ele>
        <time>2016-10-22T05:11:15Z</time>
      </trkpt>
      <trkpt lat="42.464915000" lon="-2.467258000">
        <ele>398.00</ele>
        <time>2016-10-22T05:11:16Z</time>
      </trkpt>
      <trkpt lat="42.464927000" lon="-2.467255000">
        <ele>398.00</ele>
        <time>2016-10-22T05:11:17Z</time>
      </trkpt>
      <trkpt lat="42.464931000" lon="-2.467262000">
        <ele>398.00</ele>
        <time>2016-10-22T05:11:18Z</time>
      </trkpt>
      <trkpt lat="42.464934000" lon="-2.467271000">
        <ele>398.00</ele>
        <time>2016-10-22T05:11:19Z</time>
      </trkpt>
      <trkpt lat="42.464934000" lon="-2.467271000">
        <ele>398.00</ele>
        <time>2016-10-22T05:11:20Z</time>
      </trkpt>
      <trkpt lat="42.464934000" lon="-2.467271000">
        <ele>398.10</ele>
        <time>2016-10-22T05:11:21Z</time>
      </trkpt>
      <trkpt lat="42.464934000" lon="-2.467271000">
        <ele>398.10</ele>
        <time>2016-10-22T05:11:22Z</time>
      </trkpt>
      <trkpt lat="42.464934000" lon="-2.467271000">
        <ele>398.20</ele>
        <time>2016-10-22T05:11:23Z</time>
      </trkpt>
      <trkpt lat="42.464934000" lon="-2.467271000">
        <ele>398.20</ele>
        <time>2016-10-22T05:11:24Z</time>
      </trkpt>
      <trkpt lat="42.464934000" lon="-2.467271000">
        <ele>398.20</ele>
        <time>2016-10-22T05:11:25Z</time>
      </trkpt>
      <trkpt lat="42.464934000" lon="-2.467271000">
        <ele>398.30</ele>
        <time>2016-10-22T05:11:26Z</time>
      </trkpt>
      <trkpt lat="42.464934000" lon="-2.467271000">
        <ele>398.30</ele>
        <time>2016-10-22T05:11:27Z</time>
      </trkpt>
      <trkpt lat="42.464934000" lon="-2.467271000">
        <ele>398.40</ele>
        <time>2016-10-22T05:11:28Z</time>
      </trkpt>
      <trkpt lat="42.464934000" lon="-2.467271000">
        <ele>398.40</ele>
        <time>2016-10-22T05:11:29Z</time>
      </trkpt>
      <trkpt lat="42.464934000" lon="-2.467271000">
        <ele>398.40</ele>
        <time>2016-10-22T05:11:30Z</time>
      </trkpt>
      <trkpt lat="42.464934000" lon="-2.467271000">
        <ele>398.40</ele>
        <time>2016-10-22T05:11:31Z</time>
      </trkpt>
      <trkpt lat="42.464934000" lon="-2.467271000">
        <ele>398.40</ele>
        <time>2016-10-22T05:11:32Z</time>
      </trkpt>
      <trkpt lat="42.464934000" lon="-2.467271000">
        <ele>398.40</ele>
        <time>2016-10-22T05:11:33Z</time>
      </trkpt>
      <trkpt lat="42.464960000" lon="-2.467273000">
        <ele>398.30</ele>
        <time>2016-10-22T05:11:34Z</time>
      </trkpt>
      <trkpt lat="42.464981000" lon="-2.467270000">
        <ele>398.30</ele>
        <time>2016-10-22T05:11:35Z</time>
      </trkpt>
      <trkpt lat="42.465006000" lon="-2.467269000">
        <ele>398.40</ele>
        <time>2016-10-22T05:11:36Z</time>
      </trkpt>
      <trkpt lat="42.465035000" lon="-2.467263000">
        <ele>398.40</ele>
        <time>2016-10-22T05:11:37Z</time>
      </trkpt>
      <trkpt lat="42.465066000" lon="-2.467258000">
        <ele>398.40</ele>
        <time>2016-10-22T05:11:38Z</time>
      </trkpt>
      <trkpt lat="42.465106000" lon="-2.467255000">
        <ele>398.50</ele>
        <time>2016-10-22T05:11:39Z</time>
      </trkpt>
      <trkpt lat="42.465146000" lon="-2.467255000">
        <ele>398.50</ele>
        <time>2016-10-22T05:11:40Z</time>
      </trkpt>
      <trkpt lat="42.465183000" lon="-2.467250000">
        <ele>398.70</ele>
        <time>2016-10-22T05:11:41Z</time>
      </trkpt>
      <trkpt lat="42.465217000" lon="-2.467244000">
        <ele>398.80</ele>
        <time>2016-10-22T05:11:42Z</time>
      </trkpt>
      <trkpt lat="42.465251000" lon="-2.467243000">
        <ele>398.90</ele>
        <time>2016-10-22T05:11:43Z</time>
      </trkpt>
      <trkpt lat="42.465282000" lon="-2.467234000">
        <ele>399.00</ele>
        <time>2016-10-22T05:11:44Z</time>
      </trkpt>
      <trkpt lat="42.465313000" lon="-2.467226000">
        <ele>399.00</ele>
        <time>2016-10-22T05:11:45Z</time>
      </trkpt>
      <trkpt lat="42.465343000" lon="-2.467214000">
        <ele>399.00</ele>
        <time>2016-10-22T05:11:46Z</time>
      </trkpt>
      <trkpt lat="42.465374000" lon="-2.467200000">
        <ele>399.10</ele>
        <time>2016-10-22T05:11:47Z</time>
      </trkpt>
      <trkpt lat="42.465404000" lon="-2.467188000">
        <ele>399.10</ele>
        <time>2016-10-22T05:11:48Z</time>
      </trkpt>
      <trkpt lat="42.465436000" lon="-2.467183000">
        <ele>399.10</ele>
        <time>2016-10-22T05:11:49Z</time>
      </trkpt>
      <trkpt lat="42.465467000" lon="-2.467168000">
        <ele>399.10</ele>
        <time>2016-10-22T05:11:50Z</time>
      </trkpt>
      <trkpt lat="42.465498000" lon="-2.467156000">
        <ele>399.10</ele>
        <time>2016-10-22T05:11:51Z</time>
      </trkpt>
      <trkpt lat="42.465530000" lon="-2.467148000">
        <ele>399.10</ele>
        <time>2016-10-22T05:11:52Z</time>
      </trkpt>
      <trkpt lat="42.465597000" lon="-2.467123000">
        <ele>399.10</ele>
        <time>2016-10-22T05:11:54Z</time>
      </trkpt>
      <trkpt lat="42.465628000" lon="-2.467111000">
        <ele>399.20</ele>
        <time>2016-10-22T05:11:55Z</time>
      </trkpt>
      <trkpt lat="42.465660000" lon="-2.467095000">
        <ele>399.20</ele>
        <time>2016-10-22T05:11:56Z</time>
      </trkpt>
      <trkpt lat="42.465691000" lon="-2.467079000">
        <ele>399.30</ele>
        <time>2016-10-22T05:11:57Z</time>
      </trkpt>
      <trkpt lat="42.465725000" lon="-2.467066000">
        <ele>399.30</ele>
        <time>2016-10-22T05:11:58Z</time>
      </trkpt>
      <trkpt lat="42.465756000" lon="-2.467052000">
        <ele>399.40</ele>
        <time>2016-10-22T05:11:59Z</time>
      </trkpt>
      <trkpt lat="42.465784000" lon="-2.467039000">
        <ele>399.40</ele>
        <time>2016-10-22T05:12:00Z</time>
      </trkpt>
      <trkpt lat="42.465814000" lon="-2.467025000">
        <ele>399.40</ele>
        <time>2016-10-22T05:12:01Z</time>
      </trkpt>
      <trkpt lat="42.465846000" lon="-2.467015000">
        <ele>399.50</ele>
        <time>2016-10-22T05:12:02Z</time>
      </trkpt>
      <trkpt lat="42.465878000" lon="-2.467001000">
        <ele>399.50</ele>
        <time>2016-10-22T05:12:03Z</time>
      </trkpt>
      <trkpt lat="42.465909000" lon="-2.466988000">
        <ele>399.50</ele>
        <time>2016-10-22T05:12:04Z</time>
      </trkpt>
      <trkpt lat="42.465941000" lon="-2.466970000">
        <ele>399.50</ele>
        <time>2016-10-22T05:12:05Z</time>
      </trkpt>
      <trkpt lat="42.465972000" lon="-2.466959000">
        <ele>399.50</ele>
        <time>2016-10-22T05:12:06Z</time>
      </trkpt>
      <trkpt lat="42.466001000" lon="-2.466940000">
        <ele>399.60</ele>
        <time>2016-10-22T05:12:07Z</time>
      </trkpt>
      <trkpt lat="42.466029000" lon="-2.466922000">
        <ele>399.70</ele>
        <time>2016-10-22T05:12:08Z</time>
      </trkpt>
      <trkpt lat="42.466059000" lon="-2.466909000">
        <ele>399.80</ele>
        <time>2016-10-22T05:12:09Z</time>
      </trkpt>
      <trkpt lat="42.466087000" lon="-2.466894000">
        <ele>399.90</ele>
        <time>2016-10-22T05:12:10Z</time>
      </trkpt>
      <trkpt lat="42.466117000" lon="-2.466877000">
        <ele>400.00</ele>
        <time>2016-10-22T05:12:11Z</time>
      </trkpt>
      <trkpt lat="42.466146000" lon="-2.466861000">
        <ele>400.10</ele>
        <time>2016-10-22T05:12:12Z</time>
      </trkpt>
      <trkpt lat="42.466175000" lon="-2.466843000">
        <ele>400.10</ele>
        <time>2016-10-22T05:12:13Z</time>
      </trkpt>
      <trkpt lat="42.466200000" lon="-2.466825000">
        <ele>400.20</ele>
        <time>2016-10-22T05:12:14Z</time>
      </trkpt>
      <trkpt lat="42.466230000" lon="-2.466807000">
        <ele>400.20</ele>
        <time>2016-10-22T05:12:15Z</time>
      </trkpt>
      <trkpt lat="42.466257000" lon="-2.466787000">
        <ele>400.20</ele>
        <time>2016-10-22T05:12:16Z</time>
      </trkpt>
      <trkpt lat="42.466285000" lon="-2.466768000">
        <ele>400.20</ele>
        <time>2016-10-22T05:12:17Z</time>
      </trkpt>
      <trkpt lat="42.466311000" lon="-2.466748000">
        <ele>400.20</ele>
        <time>2016-10-22T05:12:18Z</time>
      </trkpt>
      <trkpt lat="42.466338000" lon="-2.466730000">
        <ele>400.30</ele>
        <time>2016-10-22T05:12:19Z</time>
      </trkpt>
      <trkpt lat="42.466366000" lon="-2.466710000">
        <ele>400.30</ele>
        <time>2016-10-22T05:12:20Z</time>
      </trkpt>
      <trkpt lat="42.466394000" lon="-2.466693000">
        <ele>400.30</ele>
        <time>2016-10-22T05:12:21Z</time>
      </trkpt>
      <trkpt lat="42.466424000" lon="-2.466676000">
        <ele>400.40</ele>
        <time>2016-10-22T05:12:22Z</time>
      </trkpt>
      <trkpt lat="42.466451000" lon="-2.466661000">
        <ele>400.40</ele>
        <time>2016-10-22T05:12:23Z</time>
      </trkpt>
      <trkpt lat="42.466478000" lon="-2.466644000">
        <ele>400.40</ele>
        <time>2016-10-22T05:12:24Z</time>
      </trkpt>
      <trkpt lat="42.466506000" lon="-2.466627000">
        <ele>400.40</ele>
        <time>2016-10-22T05:12:25Z</time>
      </trkpt>
      <trkpt lat="42.466535000" lon="-2.466606000">
        <ele>400.40</ele>
        <time>2016-10-22T05:12:26Z</time>
      </trkpt>
      <trkpt lat="42.466571000" lon="-2.466590000">
        <ele>400.50</ele>
        <time>2016-10-22T05:12:27Z</time>
      </trkpt>
      <trkpt lat="42.466608000" lon="-2.466577000">
        <ele>400.50</ele>
        <time>2016-10-22T05:12:28Z</time>
      </trkpt>
      <trkpt lat="42.466639000" lon="-2.466561000">
        <ele>400.60</ele>
        <time>2016-10-22T05:12:29Z</time>
      </trkpt>
      <trkpt lat="42.466671000" lon="-2.466547000">
        <ele>400.60</ele>
        <time>2016-10-22T05:12:30Z</time>
      </trkpt>
      <trkpt lat="42.466703000" lon="-2.466529000">
        <ele>400.70</ele>
        <time>2016-10-22T05:12:31Z</time>
      </trkpt>
      <trkpt lat="42.466732000" lon="-2.466512000">
        <ele>400.80</ele>
        <time>2016-10-22T05:12:32Z</time>
      </trkpt>
      <trkpt lat="42.466762000" lon="-2.466494000">
        <ele>400.90</ele>
        <time>2016-10-22T05:12:33Z</time>
      </trkpt>
      <trkpt lat="42.466792000" lon="-2.466477000">
        <ele>401.00</ele>
        <time>2016-10-22T05:12:34Z</time>
      </trkpt>
      <trkpt lat="42.466825000" lon="-2.466465000">
        <ele>401.00</ele>
        <time>2016-10-22T05:12:35Z</time>
      </trkpt>
      <trkpt lat="42.466861000" lon="-2.466455000">
        <ele>401.00</ele>
        <time>2016-10-22T05:12:36Z</time>
      </trkpt>
      <trkpt lat="42.466893000" lon="-2.466440000">
        <ele>400.90</ele>
        <time>2016-10-22T05:12:37Z</time>
      </trkpt>
      <trkpt lat="42.466925000" lon="-2.466425000">
        <ele>400.80</ele>
        <time>2016-10-22T05:12:38Z</time>
      </trkpt>
      <trkpt lat="42.466959000" lon="-2.466411000">
        <ele>400.70</ele>
        <time>2016-10-22T05:12:39Z</time>
      </trkpt>
      <trkpt lat="42.466991000" lon="-2.466396000">
        <ele>400.60</ele>
        <time>2016-10-22T05:12:40Z</time>
      </trkpt>
      <trkpt lat="42.467023000" lon="-2.466383000">
        <ele>400.60</ele>
        <time>2016-10-22T05:12:41Z</time>
      </trkpt>
      <trkpt lat="42.467057000" lon="-2.466370000">
        <ele>400.50</ele>
        <time>2016-10-22T05:12:42Z</time>
      </trkpt>
      <trkpt lat="42.467094000" lon="-2.466358000">
        <ele>400.60</ele>
        <time>2016-10-22T05:12:43Z</time>
      </trkpt>
      <trkpt lat="42.467132000" lon="-2.466352000">
        <ele>400.60</ele>
        <time>2016-10-22T05:12:44Z</time>
      </trkpt>
      <trkpt lat="42.467173000" lon="-2.466348000">
        <ele>400.50</ele>
        <time>2016-10-22T05:12:45Z</time>
      </trkpt>
      <trkpt lat="42.467216000" lon="-2.466348000">
        <ele>400.40</ele>
        <time>2016-10-22T05:12:46Z</time>
      </trkpt>
      <trkpt lat="42.467257000" lon="-2.466343000">
        <ele>400.40</ele>
        <time>2016-10-22T05:12:47Z</time>
      </trkpt>
      <trkpt lat="42.467298000" lon="-2.466337000">
        <ele>400.30</ele>
        <time>2016-10-22T05:12:48Z</time>
      </trkpt>
      <trkpt lat="42.467331000" lon="-2.466332000">
        <ele>400.30</ele>
        <time>2016-10-22T05:12:49Z</time>
      </trkpt>
      <trkpt lat="42.467361000" lon="-2.466323000">
        <ele>400.30</ele>
        <time>2016-10-22T05:12:50Z</time>
      </trkpt>
      <trkpt lat="42.467385000" lon="-2.466318000">
        <ele>400.00</ele>
        <time>2016-10-22T05:12:51Z</time>
      </trkpt>
      <trkpt lat="42.467406000" lon="-2.466313000">
        <ele>399.90</ele>
        <time>2016-10-22T05:12:52Z</time>
      </trkpt>
      <trkpt lat="42.467425000" lon="-2.466310000">
        <ele>399.70</ele>
        <time>2016-10-22T05:12:53Z</time>
      </trkpt>
      <trkpt lat="42.467440000" lon="-2.466307000">
        <ele>399.60</ele>
        <time>2016-10-22T05:12:54Z</time>
      </trkpt>
      <trkpt lat="42.467501000" lon="-2.466307000">
        <ele>399.30</ele>
        <time>2016-10-22T05:12:56Z</time>
      </trkpt>
      <trkpt lat="42.467546000" lon="-2.466312000">
        <ele>399.20</ele>
        <time>2016-10-22T05:12:57Z</time>
      </trkpt>
      <trkpt lat="42.467590000" lon="-2.466311000">
        <ele>399.10</ele>
        <time>2016-10-22T05:12:58Z</time>
      </trkpt>
      <trkpt lat="42.467634000" lon="-2.466310000">
        <ele>398.90</ele>
        <time>2016-10-22T05:12:59Z</time>
      </trkpt>
      <trkpt lat="42.467668000" lon="-2.466318000">
        <ele>398.80</ele>
        <time>2016-10-22T05:13:00Z</time>
      </trkpt>
      <trkpt lat="42.467692000" lon="-2.466334000">
        <ele>398.90</ele>
        <time>2016-10-22T05:13:01Z</time>
      </trkpt>
      <trkpt lat="42.467708000" lon="-2.466362000">
        <ele>399.00</ele>
        <time>2016-10-22T05:13:02Z</time>
      </trkpt>
      <trkpt lat="42.467719000" lon="-2.466398000">
        <ele>399.10</ele>
        <time>2016-10-22T05:13:03Z</time>
      </trkpt>
      <trkpt lat="42.467727000" lon="-2.466433000">
        <ele>399.10</ele>
        <time>2016-10-22T05:13:04Z</time>
      </trkpt>
      <trkpt lat="42.467736000" lon="-2.466467000">
        <ele>399.20</ele>
        <time>2016-10-22T05:13:05Z</time>
      </trkpt>
      <trkpt lat="42.467740000" lon="-2.466501000">
        <ele>399.20</ele>
        <time>2016-10-22T05:13:06Z</time>
      </trkpt>
      <trkpt lat="42.467742000" lon="-2.466541000">
        <ele>399.30</ele>
        <time>2016-10-22T05:13:07Z</time>
      </trkpt>
      <trkpt lat="42.467744000" lon="-2.466578000">
        <ele>399.40</ele>
        <time>2016-10-22T05:13:08Z</time>
      </trkpt>
      <trkpt lat="42.467745000" lon="-2.466616000">
        <ele>399.40</ele>
        <time>2016-10-22T05:13:09Z</time>
      </trkpt>
      <trkpt lat="42.467750000" lon="-2.466655000">
        <ele>399.50</ele>
        <time>2016-10-22T05:13:10Z</time>
      </trkpt>
      <trkpt lat="42.467750000" lon="-2.466693000">
        <ele>399.70</ele>
        <time>2016-10-22T05:13:11Z</time>
      </trkpt>
      <trkpt lat="42.467752000" lon="-2.466730000">
        <ele>399.80</ele>
        <time>2016-10-22T05:13:12Z</time>
      </trkpt>
      <trkpt lat="42.467753000" lon="-2.466765000">
        <ele>400.00</ele>
        <time>2016-10-22T05:13:13Z</time>
      </trkpt>
      <trkpt lat="42.467755000" lon="-2.466801000">
        <ele>400.20</ele>
        <time>2016-10-22T05:13:14Z</time>
      </trkpt>
      <trkpt lat="42.467758000" lon="-2.466835000">
        <ele>400.20</ele>
        <time>2016-10-22T05:13:15Z</time>
      </trkpt>
      <trkpt lat="42.467762000" lon="-2.466869000">
        <ele>400.30</ele>
        <time>2016-10-22T05:13:16Z</time>
      </trkpt>
      <trkpt lat="42.467766000" lon="-2.466905000">
        <ele>400.40</ele>
        <time>2016-10-22T05:13:17Z</time>
      </trkpt>
      <trkpt lat="42.467769000" lon="-2.466940000">
        <ele>400.60</ele>
        <time>2016-10-22T05:13:18Z</time>
      </trkpt>
      <trkpt lat="42.467771000" lon="-2.466973000">
        <ele>400.70</ele>
        <time>2016-10-22T05:13:19Z</time>
      </trkpt>
      <trkpt lat="42.467775000" lon="-2.467008000">
        <ele>400.80</ele>
        <time>2016-10-22T05:13:20Z</time>
      </trkpt>
      <trkpt lat="42.467779000" lon="-2.467043000">
        <ele>401.10</ele>
        <time>2016-10-22T05:13:21Z</time>
      </trkpt>
      <trkpt lat="42.467781000" lon="-2.467076000">
        <ele>401.30</ele>
        <time>2016-10-22T05:13:22Z</time>
      </trkpt>
      <trkpt lat="42.467782000" lon="-2.467113000">
        <ele>401.60</ele>
        <time>2016-10-22T05:13:23Z</time>
      </trkpt>
      <trkpt lat="42.467782000" lon="-2.467148000">
        <ele>401.80</ele>
        <time>2016-10-22T05:13:24Z</time>
      </trkpt>
      <trkpt lat="42.467783000" lon="-2.467179000">
        <ele>402.00</ele>
        <time>2016-10-22T05:13:25Z</time>
      </trkpt>
      <trkpt lat="42.467787000" lon="-2.467211000">
        <ele>402.20</ele>
        <time>2016-10-22T05:13:26Z</time>
      </trkpt>
      <trkpt lat="42.467790000" lon="-2.467243000">
        <ele>402.30</ele>
        <time>2016-10-22T05:13:27Z</time>
      </trkpt>
      <trkpt lat="42.467794000" lon="-2.467277000">
        <ele>402.40</ele>
        <time>2016-10-22T05:13:28Z</time>
      </trkpt>
      <trkpt lat="42.467799000" lon="-2.467311000">
        <ele>402.60</ele>
        <time>2016-10-22T05:13:29Z</time>
      </trkpt>
      <trkpt lat="42.467803000" lon="-2.467342000">
        <ele>402.80</ele>
        <time>2016-10-22T05:13:30Z</time>
      </trkpt>
      <trkpt lat="42.467807000" lon="-2.467377000">
        <ele>403.10</ele>
        <time>2016-10-22T05:13:31Z</time>
      </trkpt>
      <trkpt lat="42.467809000" lon="-2.467415000">
        <ele>403.40</ele>
        <time>2016-10-22T05:13:32Z</time>
      </trkpt>
      <trkpt lat="42.467812000" lon="-2.467449000">
        <ele>403.60</ele>
        <time>2016-10-22T05:13:33Z</time>
      </trkpt>
      <trkpt lat="42.467814000" lon="-2.467481000">
        <ele>403.70</ele>
        <time>2016-10-22T05:13:34Z</time>
      </trkpt>
      <trkpt lat="42.467816000" lon="-2.467513000">
        <ele>403.90</ele>
        <time>2016-10-22T05:13:35Z</time>
      </trkpt>
      <trkpt lat="42.467820000" lon="-2.467546000">
        <ele>404.00</ele>
        <time>2016-10-22T05:13:36Z</time>
      </trkpt>
      <trkpt lat="42.467824000" lon="-2.467581000">
        <ele>404.10</ele>
        <time>2016-10-22T05:13:37Z</time>
      </trkpt>
      <trkpt lat="42.467826000" lon="-2.467614000">
        <ele>404.20</ele>
        <time>2016-10-22T05:13:38Z</time>
      </trkpt>
      <trkpt lat="42.467827000" lon="-2.467650000">
        <ele>404.60</ele>
        <time>2016-10-22T05:13:39Z</time>
      </trkpt>
      <trkpt lat="42.467829000" lon="-2.467686000">
        <ele>404.80</ele>
        <time>2016-10-22T05:13:40Z</time>
      </trkpt>
      <trkpt lat="42.467829000" lon="-2.467722000">
        <ele>405.00</ele>
        <time>2016-10-22T05:13:41Z</time>
      </trkpt>
      <trkpt lat="42.467834000" lon="-2.467758000">
        <ele>405.20</ele>
        <time>2016-10-22T05:13:42Z</time>
      </trkpt>
      <trkpt lat="42.467838000" lon="-2.467791000">
        <ele>405.40</ele>
        <time>2016-10-22T05:13:43Z</time>
      </trkpt>
      <trkpt lat="42.467839000" lon="-2.467824000">
        <ele>405.50</ele>
        <time>2016-10-22T05:13:44Z</time>
      </trkpt>
      <trkpt lat="42.467839000" lon="-2.467860000">
        <ele>405.70</ele>
        <time>2016-10-22T05:13:45Z</time>
      </trkpt>
      <trkpt lat="42.467841000" lon="-2.467897000">
        <ele>405.90</ele>
        <time>2016-10-22T05:13:46Z</time>
      </trkpt>
      <trkpt lat="42.467840000" lon="-2.467935000">
        <ele>406.10</ele>
        <time>2016-10-22T05:13:47Z</time>
      </trkpt>
      <trkpt lat="42.467839000" lon="-2.467971000">
        <ele>406.20</ele>
        <time>2016-10-22T05:13:48Z</time>
      </trkpt>
      <trkpt lat="42.467844000" lon="-2.468007000">
        <ele>406.40</ele>
        <time>2016-10-22T05:13:49Z</time>
      </trkpt>
      <trkpt lat="42.467848000" lon="-2.468041000">
        <ele>406.50</ele>
        <time>2016-10-22T05:13:50Z</time>
      </trkpt>
      <trkpt lat="42.467851000" lon="-2.468075000">
        <ele>406.90</ele>
        <time>2016-10-22T05:13:51Z</time>
      </trkpt>
      <trkpt lat="42.467856000" lon="-2.468108000">
        <ele>407.10</ele>
        <time>2016-10-22T05:13:52Z</time>
      </trkpt>
      <trkpt lat="42.467857000" lon="-2.468141000">
        <ele>407.30</ele>
        <time>2016-10-22T05:13:53Z</time>
      </trkpt>
      <trkpt lat="42.467856000" lon="-2.468176000">
        <ele>407.50</ele>
        <time>2016-10-22T05:13:54Z</time>
      </trkpt>
      <trkpt lat="42.467858000" lon="-2.468212000">
        <ele>407.60</ele>
        <time>2016-10-22T05:13:55Z</time>
      </trkpt>
      <trkpt lat="42.467867000" lon="-2.468280000">
        <ele>407.90</ele>
        <time>2016-10-22T05:13:57Z</time>
      </trkpt>
      <trkpt lat="42.467871000" lon="-2.468317000">
        <ele>408.00</ele>
        <time>2016-10-22T05:13:58Z</time>
      </trkpt>
      <trkpt lat="42.467874000" lon="-2.468356000">
        <ele>408.10</ele>
        <time>2016-10-22T05:13:59Z</time>
      </trkpt>
      <trkpt lat="42.467876000" lon="-2.468392000">
        <ele>408.20</ele>
        <time>2016-10-22T05:14:00Z</time>
      </trkpt>
      <trkpt lat="42.467874000" lon="-2.468431000">
        <ele>408.30</ele>
        <time>2016-10-22T05:14:01Z</time>
      </trkpt>
      <trkpt lat="42.467874000" lon="-2.468470000">
        <ele>408.50</ele>
        <time>2016-10-22T05:14:02Z</time>
      </trkpt>
      <trkpt lat="42.467874000" lon="-2.468506000">
        <ele>408.60</ele>
        <time>2016-10-22T05:14:03Z</time>
      </trkpt>
      <trkpt lat="42.467875000" lon="-2.468541000">
        <ele>408.80</ele>
        <time>2016-10-22T05:14:04Z</time>
      </trkpt>
      <trkpt lat="42.467877000" lon="-2.468577000">
        <ele>408.80</ele>
        <time>2016-10-22T05:14:05Z</time>
      </trkpt>
      <trkpt lat="42.467879000" lon="-2.468616000">
        <ele>408.90</ele>
        <time>2016-10-22T05:14:06Z</time>
      </trkpt>
      <trkpt lat="42.467882000" lon="-2.468649000">
        <ele>409.00</ele>
        <time>2016-10-22T05:14:07Z</time>
      </trkpt>
      <trkpt lat="42.467885000" lon="-2.468683000">
        <ele>409.00</ele>
        <time>2016-10-22T05:14:08Z</time>
      </trkpt>
      <trkpt lat="42.467886000" lon="-2.468719000">
        <ele>409.00</ele>
        <time>2016-10-22T05:14:09Z</time>
      </trkpt>
      <trkpt lat="42.467890000" lon="-2.468754000">
        <ele>409.10</ele>
        <time>2016-10-22T05:14:10Z</time>
      </trkpt>
      <trkpt lat="42.467892000" lon="-2.468789000">
        <ele>409.40</ele>
        <time>2016-10-22T05:14:11Z</time>
      </trkpt>
      <trkpt lat="42.467896000" lon="-2.468823000">
        <ele>409.60</ele>
        <time>2016-10-22T05:14:12Z</time>
      </trkpt>
      <trkpt lat="42.467896000" lon="-2.468860000">
        <ele>409.80</ele>
        <time>2016-10-22T05:14:13Z</time>
      </trkpt>
      <trkpt lat="42.467897000" lon="-2.468898000">
        <ele>409.90</ele>
        <time>2016-10-22T05:14:14Z</time>
      </trkpt>
      <trkpt lat="42.467900000" lon="-2.468933000">
        <ele>410.00</ele>
        <time>2016-10-22T05:14:15Z</time>
      </trkpt>
      <trkpt lat="42.467902000" lon="-2.468968000">
        <ele>410.10</ele>
        <time>2016-10-22T05:14:16Z</time>
      </trkpt>
      <trkpt lat="42.467902000" lon="-2.469004000">
        <ele>410.40</ele>
        <time>2016-10-22T05:14:17Z</time>
      </trkpt>
      <trkpt lat="42.467906000" lon="-2.469037000">
        <ele>410.70</ele>
        <time>2016-10-22T05:14:18Z</time>
      </trkpt>
      <trkpt lat="42.467908000" lon="-2.469075000">
        <ele>410.90</ele>
        <time>2016-10-22T05:14:19Z</time>
      </trkpt>
      <trkpt lat="42.467912000" lon="-2.469111000">
        <ele>411.10</ele>
        <time>2016-10-22T05:14:20Z</time>
      </trkpt>
      <trkpt lat="42.467914000" lon="-2.469150000">
        <ele>411.20</ele>
        <time>2016-10-22T05:14:21Z</time>
      </trkpt>
      <trkpt lat="42.467917000" lon="-2.469187000">
        <ele>411.20</ele>
        <time>2016-10-22T05:14:22Z</time>
      </trkpt>
      <trkpt lat="42.467920000" lon="-2.469222000">
        <ele>411.40</ele>
        <time>2016-10-22T05:14:23Z</time>
      </trkpt>
      <trkpt lat="42.467924000" lon="-2.469260000">
        <ele>411.50</ele>
        <time>2016-10-22T05:14:24Z</time>
      </trkpt>
      <trkpt lat="42.467927000" lon="-2.469295000">
        <ele>411.60</ele>
        <time>2016-10-22T05:14:25Z</time>
      </trkpt>
      <trkpt lat="42.467931000" lon="-2.469332000">
        <ele>411.70</ele>
        <time>2016-10-22T05:14:26Z</time>
      </trkpt>
      <trkpt lat="42.467932000" lon="-2.469372000">
        <ele>411.70</ele>
        <time>2016-10-22T05:14:27Z</time>
      </trkpt>
      <trkpt lat="42.467934000" lon="-2.469407000">
        <ele>411.80</ele>
        <time>2016-10-22T05:14:28Z</time>
      </trkpt>
      <trkpt lat="42.467935000" lon="-2.469442000">
        <ele>411.80</ele>
        <time>2016-10-22T05:14:29Z</time>
      </trkpt>
      <trkpt lat="42.467937000" lon="-2.469474000">
        <ele>411.80</ele>
        <time>2016-10-22T05:14:30Z</time>
      </trkpt>
      <trkpt lat="42.467939000" lon="-2.469507000">
        <ele>411.90</ele>
        <time>2016-10-22T05:14:31Z</time>
      </trkpt>
      <trkpt lat="42.467942000" lon="-2.469543000">
        <ele>411.90</ele>
        <time>2016-10-22T05:14:32Z</time>
      </trkpt>
      <trkpt lat="42.467944000" lon="-2.469580000">
        <ele>412.00</ele>
        <time>2016-10-22T05:14:33Z</time>
      </trkpt>
      <trkpt lat="42.467945000" lon="-2.469617000">
        <ele>412.00</ele>
        <time>2016-10-22T05:14:34Z</time>
      </trkpt>
      <trkpt lat="42.467947000" lon="-2.469653000">
        <ele>412.30</ele>
        <time>2016-10-22T05:14:35Z</time>
      </trkpt>
      <trkpt lat="42.467948000" lon="-2.469689000">
        <ele>412.50</ele>
        <time>2016-10-22T05:14:36Z</time>
      </trkpt>
      <trkpt lat="42.467948000" lon="-2.469723000">
        <ele>412.70</ele>
        <time>2016-10-22T05:14:37Z</time>
      </trkpt>
      <trkpt lat="42.467946000" lon="-2.469759000">
        <ele>412.90</ele>
        <time>2016-10-22T05:14:38Z</time>
      </trkpt>
      <trkpt lat="42.467947000" lon="-2.469795000">
        <ele>413.20</ele>
        <time>2016-10-22T05:14:39Z</time>
      </trkpt>
      <trkpt lat="42.467949000" lon="-2.469832000">
        <ele>413.40</ele>
        <time>2016-10-22T05:14:40Z</time>
      </trkpt>
      <trkpt lat="42.467950000" lon="-2.469870000">
        <ele>413.60</ele>
        <time>2016-10-22T05:14:41Z</time>
      </trkpt>
      <trkpt lat="42.467952000" lon="-2.469906000">
        <ele>413.80</ele>
        <time>2016-10-22T05:14:42Z</time>
      </trkpt>
      <trkpt lat="42.467956000" lon="-2.469942000">
        <ele>413.70</ele>
        <time>2016-10-22T05:14:43Z</time>
      </trkpt>
      <trkpt lat="42.467956000" lon="-2.469980000">
        <ele>413.60</ele>
        <time>2016-10-22T05:14:44Z</time>
      </trkpt>
      <trkpt lat="42.467957000" lon="-2.470016000">
        <ele>413.50</ele>
        <time>2016-10-22T05:14:45Z</time>
      </trkpt>
      <trkpt lat="42.467957000" lon="-2.470054000">
        <ele>413.50</ele>
        <time>2016-10-22T05:14:46Z</time>
      </trkpt>
      <trkpt lat="42.467959000" lon="-2.470092000">
        <ele>413.60</ele>
        <time>2016-10-22T05:14:47Z</time>
      </trkpt>
      <trkpt lat="42.467963000" lon="-2.470128000">
        <ele>413.70</ele>
        <time>2016-10-22T05:14:48Z</time>
      </trkpt>
      <trkpt lat="42.467968000" lon="-2.470164000">
        <ele>413.90</ele>
        <time>2016-10-22T05:14:49Z</time>
      </trkpt>
      <trkpt lat="42.467970000" lon="-2.470200000">
        <ele>414.00</ele>
        <time>2016-10-22T05:14:50Z</time>
      </trkpt>
      <trkpt lat="42.467973000" lon="-2.470237000">
        <ele>414.20</ele>
        <time>2016-10-22T05:14:51Z</time>
      </trkpt>
      <trkpt lat="42.467975000" lon="-2.470273000">
        <ele>414.30</ele>
        <time>2016-10-22T05:14:52Z</time>
      </trkpt>
      <trkpt lat="42.467978000" lon="-2.470309000">
        <ele>414.50</ele>
        <time>2016-10-22T05:14:53Z</time>
      </trkpt>
      <trkpt lat="42.467981000" lon="-2.470345000">
        <ele>414.80</ele>
        <time>2016-10-22T05:14:54Z</time>
      </trkpt>
      <trkpt lat="42.467983000" lon="-2.470383000">
        <ele>414.70</ele>
        <time>2016-10-22T05:14:55Z</time>
      </trkpt>
      <trkpt lat="42.467986000" lon="-2.470422000">
        <ele>414.70</ele>
        <time>2016-10-22T05:14:56Z</time>
      </trkpt>
      <trkpt lat="42.467990000" lon="-2.470500000">
        <ele>415.00</ele>
        <time>2016-10-22T05:14:58Z</time>
      </trkpt>
      <trkpt lat="42.467995000" lon="-2.470538000">
        <ele>415.00</ele>
        <time>2016-10-22T05:14:59Z</time>
      </trkpt>
      <trkpt lat="42.468000000" lon="-2.470576000">
        <ele>415.00</ele>
        <time>2016-10-22T05:15:00Z</time>
      </trkpt>
      <trkpt lat="42.468004000" lon="-2.470615000">
        <ele>415.10</ele>
        <time>2016-10-22T05:15:01Z</time>
      </trkpt>
      <trkpt lat="42.468009000" lon="-2.470653000">
        <ele>415.10</ele>
        <time>2016-10-22T05:15:02Z</time>
      </trkpt>
      <trkpt lat="42.468011000" lon="-2.470691000">
        <ele>415.00</ele>
        <time>2016-10-22T05:15:03Z</time>
      </trkpt>
      <trkpt lat="42.468013000" lon="-2.470731000">
        <ele>415.00</ele>
        <time>2016-10-22T05:15:04Z</time>
      </trkpt>
      <trkpt lat="42.468017000" lon="-2.470772000">
        <ele>415.00</ele>
        <time>2016-10-22T05:15:05Z</time>
      </trkpt>
      <trkpt lat="42.468020000" lon="-2.470811000">
        <ele>414.90</ele>
        <time>2016-10-22T05:15:06Z</time>
      </trkpt>
      <trkpt lat="42.468024000" lon="-2.470849000">
        <ele>415.00</ele>
        <time>2016-10-22T05:15:07Z</time>
      </trkpt>
      <trkpt lat="42.468023000" lon="-2.470888000">
        <ele>415.10</ele>
        <time>2016-10-22T05:15:08Z</time>
      </trkpt>
      <trkpt lat="42.468025000" lon="-2.470927000">
        <ele>415.10</ele>
        <time>2016-10-22T05:15:09Z</time>
      </trkpt>
      <trkpt lat="42.468027000" lon="-2.470965000">
        <ele>415.20</ele>
        <time>2016-10-22T05:15:10Z</time>
      </trkpt>
      <trkpt lat="42.468027000" lon="-2.471004000">
        <ele>415.20</ele>
        <time>2016-10-22T05:15:11Z</time>
      </trkpt>
      <trkpt lat="42.468028000" lon="-2.471044000">
        <ele>415.20</ele>
        <time>2016-10-22T05:15:12Z</time>
      </trkpt>
      <trkpt lat="42.468029000" lon="-2.471083000">
        <ele>415.50</ele>
        <time>2016-10-22T05:15:13Z</time>
      </trkpt>
      <trkpt lat="42.468029000" lon="-2.471124000">
        <ele>415.60</ele>
        <time>2016-10-22T05:15:14Z</time>
      </trkpt>
      <trkpt lat="42.468026000" lon="-2.471167000">
        <ele>415.80</ele>
        <time>2016-10-22T05:15:15Z</time>
      </trkpt>
      <trkpt lat="42.468027000" lon="-2.471209000">
        <ele>415.90</ele>
        <time>2016-10-22T05:15:16Z</time>
      </trkpt>
      <trkpt lat="42.468028000" lon="-2.471254000">
        <ele>415.90</ele>
        <time>2016-10-22T05:15:17Z</time>
      </trkpt>
      <trkpt lat="42.468029000" lon="-2.471297000">
        <ele>416.00</ele>
        <time>2016-10-22T05:15:18Z</time>
      </trkpt>
      <trkpt lat="42.468031000" lon="-2.471340000">
        <ele>416.00</ele>
        <time>2016-10-22T05:15:19Z</time>
      </trkpt>
      <trkpt lat="42.468031000" lon="-2.471384000">
        <ele>416.00</ele>
        <time>2016-10-22T05:15:20Z</time>
      </trkpt>
      <trkpt lat="42.468029000" lon="-2.471427000">
        <ele>415.90</ele>
        <time>2016-10-22T05:15:21Z</time>
      </trkpt>
      <trkpt lat="42.468030000" lon="-2.471469000">
        <ele>415.90</ele>
        <time>2016-10-22T05:15:22Z</time>
      </trkpt>
      <trkpt lat="42.468029000" lon="-2.471511000">
        <ele>416.00</ele>
        <time>2016-10-22T05:15:23Z</time>
      </trkpt>
      <trkpt lat="42.468029000" lon="-2.471553000">
        <ele>416.00</ele>
        <time>2016-10-22T05:15:24Z</time>
      </trkpt>
      <trkpt lat="42.468029000" lon="-2.471594000">
        <ele>416.10</ele>
        <time>2016-10-22T05:15:25Z</time>
      </trkpt>
      <trkpt lat="42.468030000" lon="-2.471634000">
        <ele>416.20</ele>
        <time>2016-10-22T05:15:26Z</time>
      </trkpt>
      <trkpt lat="42.468030000" lon="-2.471674000">
        <ele>416.30</ele>
        <time>2016-10-22T05:15:27Z</time>
      </trkpt>
      <trkpt lat="42.468032000" lon="-2.471717000">
        <ele>416.40</ele>
        <time>2016-10-22T05:15:28Z</time>
      </trkpt>
      <trkpt lat="42.468036000" lon="-2.471759000">
        <ele>416.40</ele>
        <time>2016-10-22T05:15:29Z</time>
      </trkpt>
      <trkpt lat="42.468040000" lon="-2.471802000">
        <ele>416.50</ele>
        <time>2016-10-22T05:15:30Z</time>
      </trkpt>
      <trkpt lat="42.468043000" lon="-2.471842000">
        <ele>416.50</ele>
        <time>2016-10-22T05:15:31Z</time>
      </trkpt>
      <trkpt lat="42.468046000" lon="-2.471883000">
        <ele>416.50</ele>
        <time>2016-10-22T05:15:32Z</time>
      </trkpt>
      <trkpt lat="42.468053000" lon="-2.471924000">
        <ele>416.50</ele>
        <time>2016-10-22T05:15:33Z</time>
      </trkpt>
      <trkpt lat="42.468059000" lon="-2.471965000">
        <ele>416.50</ele>
        <time>2016-10-22T05:15:34Z</time>
      </trkpt>
      <trkpt lat="42.468065000" lon="-2.472005000">
        <ele>416.50</ele>
        <time>2016-10-22T05:15:35Z</time>
      </trkpt>
      <trkpt lat="42.468071000" lon="-2.472047000">
        <ele>416.50</ele>
        <time>2016-10-22T05:15:36Z</time>
      </trkpt>
      <trkpt lat="42.468078000" lon="-2.472093000">
        <ele>416.50</ele>
        <time>2016-10-22T05:15:37Z</time>
      </trkpt>
      <trkpt lat="42.468091000" lon="-2.472132000">
        <ele>416.50</ele>
        <time>2016-10-22T05:15:38Z</time>
      </trkpt>
      <trkpt lat="42.468106000" lon="-2.472163000">
        <ele>416.50</ele>
        <time>2016-10-22T05:15:39Z</time>
      </trkpt>
      <trkpt lat="42.468120000" lon="-2.472201000">
        <ele>416.50</ele>
        <time>2016-10-22T05:15:40Z</time>
      </trkpt>
      <trkpt lat="42.468131000" lon="-2.472239000">
        <ele>416.50</ele>
        <time>2016-10-22T05:15:41Z</time>
      </trkpt>
      <trkpt lat="42.468144000" lon="-2.472274000">
        <ele>416.50</ele>
        <time>2016-10-22T05:15:42Z</time>
      </trkpt>
      <trkpt lat="42.468157000" lon="-2.472312000">
        <ele>416.40</ele>
        <time>2016-10-22T05:15:43Z</time>
      </trkpt>
      <trkpt lat="42.468174000" lon="-2.472350000">
        <ele>416.40</ele>
        <time>2016-10-22T05:15:44Z</time>
      </trkpt>
      <trkpt lat="42.468191000" lon="-2.472382000">
        <ele>416.40</ele>
        <time>2016-10-22T05:15:45Z</time>
      </trkpt>
      <trkpt lat="42.468204000" lon="-2.472422000">
        <ele>416.30</ele>
        <time>2016-10-22T05:15:46Z</time>
      </trkpt>
      <trkpt lat="42.468217000" lon="-2.472458000">
        <ele>416.40</ele>
        <time>2016-10-22T05:15:47Z</time>
      </trkpt>
      <trkpt lat="42.468228000" lon="-2.472493000">
        <ele>416.40</ele>
        <time>2016-10-22T05:15:48Z</time>
      </trkpt>
      <trkpt lat="42.468234000" lon="-2.472531000">
        <ele>416.50</ele>
        <time>2016-10-22T05:15:49Z</time>
      </trkpt>
      <trkpt lat="42.468238000" lon="-2.472570000">
        <ele>416.60</ele>
        <time>2016-10-22T05:15:50Z</time>
      </trkpt>
      <trkpt lat="42.468242000" lon="-2.472608000">
        <ele>416.80</ele>
        <time>2016-10-22T05:15:51Z</time>
      </trkpt>
      <trkpt lat="42.468242000" lon="-2.472647000">
        <ele>416.90</ele>
        <time>2016-10-22T05:15:52Z</time>
      </trkpt>
      <trkpt lat="42.468243000" lon="-2.472685000">
        <ele>417.00</ele>
        <time>2016-10-22T05:15:53Z</time>
      </trkpt>
      <trkpt lat="42.468248000" lon="-2.472725000">
        <ele>417.00</ele>
        <time>2016-10-22T05:15:54Z</time>
      </trkpt>
      <trkpt lat="42.468252000" lon="-2.472763000">
        <ele>417.00</ele>
        <time>2016-10-22T05:15:55Z</time>
      </trkpt>
      <trkpt lat="42.468257000" lon="-2.472803000">
        <ele>417.00</ele>
        <time>2016-10-22T05:15:56Z</time>
      </trkpt>
      <trkpt lat="42.468265000" lon="-2.472840000">
        <ele>417.00</ele>
        <time>2016-10-22T05:15:57Z</time>
      </trkpt>
      <trkpt lat="42.468295000" lon="-2.472906000">
        <ele>417.00</ele>
        <time>2016-10-22T05:15:59Z</time>
      </trkpt>
      <trkpt lat="42.468316000" lon="-2.472933000">
        <ele>417.00</ele>
        <time>2016-10-22T05:16:00Z</time>
      </trkpt>
      <trkpt lat="42.468341000" lon="-2.472949000">
        <ele>417.20</ele>
        <time>2016-10-22T05:16:01Z</time>
      </trkpt>
      <trkpt lat="42.468371000" lon="-2.472954000">
        <ele>417.30</ele>
        <time>2016-10-22T05:16:02Z</time>
      </trkpt>
      <trkpt lat="42.468397000" lon="-2.472963000">
        <ele>417.40</ele>
        <time>2016-10-22T05:16:03Z</time>
      </trkpt>
      <trkpt lat="42.468424000" lon="-2.472962000">
        <ele>417.50</ele>
        <time>2016-10-22T05:16:04Z</time>
      </trkpt>
      <trkpt lat="42.468454000" lon="-2.472959000">
        <ele>417.50</ele>
        <time>2016-10-22T05:16:05Z</time>
      </trkpt>
      <trkpt lat="42.468485000" lon="-2.472958000">
        <ele>417.40</ele>
        <time>2016-10-22T05:16:06Z</time>
      </trkpt>
      <trkpt lat="42.468515000" lon="-2.472954000">
        <ele>417.40</ele>
        <time>2016-10-22T05:16:07Z</time>
      </trkpt>
      <trkpt lat="42.468544000" lon="-2.472950000">
        <ele>417.40</ele>
        <time>2016-10-22T05:16:08Z</time>
      </trkpt>
      <trkpt lat="42.468573000" lon="-2.472949000">
        <ele>417.40</ele>
        <time>2016-10-22T05:16:09Z</time>
      </trkpt>
      <trkpt lat="42.468603000" lon="-2.472945000">
        <ele>417.40</ele>
        <time>2016-10-22T05:16:10Z</time>
      </trkpt>
      <trkpt lat="42.468634000" lon="-2.472948000">
        <ele>417.40</ele>
        <time>2016-10-22T05:16:11Z</time>
      </trkpt>
      <trkpt lat="42.468666000" lon="-2.472952000">
        <ele>417.40</ele>
        <time>2016-10-22T05:16:12Z</time>
      </trkpt>
      <trkpt lat="42.468698000" lon="-2.472954000">
        <ele>417.40</ele>
        <time>2016-10-22T05:16:13Z</time>
      </trkpt>
      <trkpt lat="42.468727000" lon="-2.472958000">
        <ele>417.40</ele>
        <time>2016-10-22T05:16:14Z</time>
      </trkpt>
      <trkpt lat="42.468756000" lon="-2.472959000">
        <ele>417.40</ele>
        <time>2016-10-22T05:16:15Z</time>
      </trkpt>
      <trkpt lat="42.468787000" lon="-2.472957000">
        <ele>417.40</ele>
        <time>2016-10-22T05:16:16Z</time>
      </trkpt>
      <trkpt lat="42.468816000" lon="-2.472961000">
        <ele>417.50</ele>
        <time>2016-10-22T05:16:17Z</time>
      </trkpt>
      <trkpt lat="42.468846000" lon="-2.472965000">
        <ele>417.50</ele>
        <time>2016-10-22T05:16:18Z</time>
      </trkpt>
      <trkpt lat="42.468878000" lon="-2.472967000">
        <ele>417.50</ele>
        <time>2016-10-22T05:16:19Z</time>
      </trkpt>
      <trkpt lat="42.468912000" lon="-2.472964000">
        <ele>417.50</ele>
        <time>2016-10-22T05:16:20Z</time>
      </trkpt>
      <trkpt lat="42.468944000" lon="-2.472966000">
        <ele>417.60</ele>
        <time>2016-10-22T05:16:21Z</time>
      </trkpt>
      <trkpt lat="42.468974000" lon="-2.472964000">
        <ele>417.60</ele>
        <time>2016-10-22T05:16:22Z</time>
      </trkpt>
      <trkpt lat="42.469002000" lon="-2.472960000">
        <ele>417.60</ele>
        <time>2016-10-22T05:16:23Z</time>
      </trkpt>
      <trkpt lat="42.469032000" lon="-2.472959000">
        <ele>417.60</ele>
        <time>2016-10-22T05:16:24Z</time>
      </trkpt>
      <trkpt lat="42.469066000" lon="-2.472955000">
        <ele>417.60</ele>
        <time>2016-10-22T05:16:25Z</time>
      </trkpt>
      <trkpt lat="42.469099000" lon="-2.472952000">
        <ele>417.60</ele>
        <time>2016-10-22T05:16:26Z</time>
      </trkpt>
      <trkpt lat="42.469128000" lon="-2.472951000">
        <ele>417.60</ele>
        <time>2016-10-22T05:16:27Z</time>
      </trkpt>
      <trkpt lat="42.469154000" lon="-2.472956000">
        <ele>417.60</ele>
        <time>2016-10-22T05:16:28Z</time>
      </trkpt>
      <trkpt lat="42.469183000" lon="-2.472957000">
        <ele>417.60</ele>
        <time>2016-10-22T05:16:29Z</time>
      </trkpt>
      <trkpt lat="42.469213000" lon="-2.472959000">
        <ele>417.60</ele>
        <time>2016-10-22T05:16:30Z</time>
      </trkpt>
      <trkpt lat="42.469251000" lon="-2.472957000">
        <ele>417.60</ele>
        <time>2016-10-22T05:16:31Z</time>
      </trkpt>
      <trkpt lat="42.469284000" lon="-2.472960000">
        <ele>417.60</ele>
        <time>2016-10-22T05:16:32Z</time>
      </trkpt>
      <trkpt lat="42.469315000" lon="-2.472963000">
        <ele>417.60</ele>
        <time>2016-10-22T05:16:33Z</time>
      </trkpt>
      <trkpt lat="42.469343000" lon="-2.472965000">
        <ele>417.70</ele>
        <time>2016-10-22T05:16:34Z</time>
      </trkpt>
      <trkpt lat="42.469371000" lon="-2.472965000">
        <ele>417.70</ele>
        <time>2016-10-22T05:16:35Z</time>
      </trkpt>
      <trkpt lat="42.469403000" lon="-2.472974000">
        <ele>417.70</ele>
        <time>2016-10-22T05:16:36Z</time>
      </trkpt>
      <trkpt lat="42.469435000" lon="-2.472973000">
        <ele>417.80</ele>
        <time>2016-10-22T05:16:37Z</time>
      </trkpt>
      <trkpt lat="42.469467000" lon="-2.472972000">
        <ele>417.80</ele>
        <time>2016-10-22T05:16:38Z</time>
      </trkpt>
      <trkpt lat="42.469498000" lon="-2.472966000">
        <ele>417.80</ele>
        <time>2016-10-22T05:16:39Z</time>
      </trkpt>
      <trkpt lat="42.469534000" lon="-2.472951000">
        <ele>417.90</ele>
        <time>2016-10-22T05:16:40Z</time>
      </trkpt>
      <trkpt lat="42.469566000" lon="-2.472940000">
        <ele>417.80</ele>
        <time>2016-10-22T05:16:41Z</time>
      </trkpt>
      <trkpt lat="42.469598000" lon="-2.472934000">
        <ele>417.80</ele>
        <time>2016-10-22T05:16:42Z</time>
      </trkpt>
      <trkpt lat="42.469632000" lon="-2.472931000">
        <ele>417.90</ele>
        <time>2016-10-22T05:16:43Z</time>
      </trkpt>
      <trkpt lat="42.469663000" lon="-2.472930000">
        <ele>418.00</ele>
        <time>2016-10-22T05:16:44Z</time>
      </trkpt>
      <trkpt lat="42.469691000" lon="-2.472931000">
        <ele>418.00</ele>
        <time>2016-10-22T05:16:45Z</time>
      </trkpt>
      <trkpt lat="42.469719000" lon="-2.472931000">
        <ele>418.00</ele>
        <time>2016-10-22T05:16:46Z</time>
      </trkpt>
      <trkpt lat="42.469745000" lon="-2.472932000">
        <ele>418.10</ele>
        <time>2016-10-22T05:16:47Z</time>
      </trkpt>
      <trkpt lat="42.469769000" lon="-2.472928000">
        <ele>418.10</ele>
        <time>2016-10-22T05:16:48Z</time>
      </trkpt>
      <trkpt lat="42.469797000" lon="-2.472925000">
        <ele>418.10</ele>
        <time>2016-10-22T05:16:49Z</time>
      </trkpt>
      <trkpt lat="42.469827000" lon="-2.472922000">
        <ele>418.10</ele>
        <time>2016-10-22T05:16:50Z</time>
      </trkpt>
      <trkpt lat="42.469857000" lon="-2.472920000">
        <ele>418.10</ele>
        <time>2016-10-22T05:16:51Z</time>
      </trkpt>
      <trkpt lat="42.469887000" lon="-2.472925000">
        <ele>418.10</ele>
        <time>2016-10-22T05:16:52Z</time>
      </trkpt>
      <trkpt lat="42.469916000" lon="-2.472932000">
        <ele>418.10</ele>
        <time>2016-10-22T05:16:53Z</time>
      </trkpt>
      <trkpt lat="42.469944000" lon="-2.472949000">
        <ele>418.10</ele>
        <time>2016-10-22T05:16:54Z</time>
      </trkpt>
      <trkpt lat="42.469965000" lon="-2.472975000">
        <ele>418.10</ele>
        <time>2016-10-22T05:16:55Z</time>
      </trkpt>
      <trkpt lat="42.469982000" lon="-2.473004000">
        <ele>418.10</ele>
        <time>2016-10-22T05:16:56Z</time>
      </trkpt>
      <trkpt lat="42.469994000" lon="-2.473038000">
        <ele>418.10</ele>
        <time>2016-10-22T05:16:57Z</time>
      </trkpt>
      <trkpt lat="42.470001000" lon="-2.473075000">
        <ele>418.20</ele>
        <time>2016-10-22T05:16:58Z</time>
      </trkpt>
      <trkpt lat="42.470004000" lon="-2.473114000">
        <ele>418.20</ele>
        <time>2016-10-22T05:16:59Z</time>
      </trkpt>
      <trkpt lat="42.470005000" lon="-2.473199000">
        <ele>418.20</ele>
        <time>2016-10-22T05:17:01Z</time>
      </trkpt>
      <trkpt lat="42.470009000" lon="-2.473247000">
        <ele>418.20</ele>
        <time>2016-10-22T05:17:02Z</time>
      </trkpt>
      <trkpt lat="42.470015000" lon="-2.473291000">
        <ele>418.20</ele>
        <time>2016-10-22T05:17:03Z</time>
      </trkpt>
      <trkpt lat="42.470018000" lon="-2.473337000">
        <ele>418.20</ele>
        <time>2016-10-22T05:17:04Z</time>
      </trkpt>
      <trkpt lat="42.470020000" lon="-2.473384000">
        <ele>418.20</ele>
        <time>2016-10-22T05:17:05Z</time>
      </trkpt>
      <trkpt lat="42.470022000" lon="-2.473431000">
        <ele>418.10</ele>
        <time>2016-10-22T05:17:06Z</time>
      </trkpt>
      <trkpt lat="42.470022000" lon="-2.473477000">
        <ele>418.20</ele>
        <time>2016-10-22T05:17:07Z</time>
      </trkpt>
      <trkpt lat="42.470022000" lon="-2.473521000">
        <ele>418.30</ele>
        <time>2016-10-22T05:17:08Z</time>
      </trkpt>
      <trkpt lat="42.470021000" lon="-2.473567000">
        <ele>418.30</ele>
        <time>2016-10-22T05:17:09Z</time>
      </trkpt>
      <trkpt lat="42.470018000" lon="-2.473613000">
        <ele>418.40</ele>
        <time>2016-10-22T05:17:10Z</time>
      </trkpt>
      <trkpt lat="42.470018000" lon="-2.473656000">
        <ele>418.40</ele>
        <time>2016-10-22T05:17:11Z</time>
      </trkpt>
      <trkpt lat="42.470019000" lon="-2.473700000">
        <ele>418.40</ele>
        <time>2016-10-22T05:17:12Z</time>
      </trkpt>
      <trkpt lat="42.470020000" lon="-2.473745000">
        <ele>418.40</ele>
        <time>2016-10-22T05:17:13Z</time>
      </trkpt>
      <trkpt lat="42.470020000" lon="-2.473791000">
        <ele>418.40</ele>
        <time>2016-10-22T05:17:14Z</time>
      </trkpt>
      <trkpt lat="42.470021000" lon="-2.473834000">
        <ele>418.30</ele>
        <time>2016-10-22T05:17:15Z</time>
      </trkpt>
      <trkpt lat="42.470020000" lon="-2.473882000">
        <ele>418.20</ele>
        <time>2016-10-22T05:17:16Z</time>
      </trkpt>
      <trkpt lat="42.470021000" lon="-2.473927000">
        <ele>418.10</ele>
        <time>2016-10-22T05:17:17Z</time>
      </trkpt>
      <trkpt lat="42.470022000" lon="-2.473973000">
        <ele>418.00</ele>
        <time>2016-10-22T05:17:18Z</time>
      </trkpt>
      <trkpt lat="42.470026000" lon="-2.474018000">
        <ele>417.90</ele>
        <time>2016-10-22T05:17:19Z</time>
      </trkpt>
      <trkpt lat="42.470026000" lon="-2.474064000">
        <ele>417.80</ele>
        <time>2016-10-22T05:17:20Z</time>
      </trkpt>
      <trkpt lat="42.470028000" lon="-2.474107000">
        <ele>417.80</ele>
        <time>2016-10-22T05:17:21Z</time>
      </trkpt>
      <trkpt lat="42.470028000" lon="-2.474152000">
        <ele>417.70</ele>
        <time>2016-10-22T05:17:22Z</time>
      </trkpt>
      <trkpt lat="42.470028000" lon="-2.474196000">
        <ele>417.80</ele>
        <time>2016-10-22T05:17:23Z</time>
      </trkpt>
      <trkpt lat="42.470029000" lon="-2.474239000">
        <ele>417.80</ele>
        <time>2016-10-22T05:17:24Z</time>
      </trkpt>
      <trkpt lat="42.470030000" lon="-2.474284000">
        <ele>417.70</ele>
        <time>2016-10-22T05:17:25Z</time>
      </trkpt>
      <trkpt lat="42.470031000" lon="-2.474328000">
        <ele>417.60</ele>
        <time>2016-10-22T05:17:26Z</time>
      </trkpt>
      <trkpt lat="42.470036000" lon="-2.474370000">
        <ele>417.40</ele>
        <time>2016-10-22T05:17:27Z</time>
      </trkpt>
      <trkpt lat="42.470037000" lon="-2.474412000">
        <ele>417.30</ele>
        <time>2016-10-22T05:17:28Z</time>
      </trkpt>
      <trkpt lat="42.470038000" lon="-2.474454000">
        <ele>417.10</ele>
        <time>2016-10-22T05:17:29Z</time>
      </trkpt>
      <trkpt lat="42.470039000" lon="-2.474498000">
        <ele>417.00</ele>
        <time>2016-10-22T05:17:30Z</time>
      </trkpt>
      <trkpt lat="42.470039000" lon="-2.474542000">
        <ele>417.10</ele>
        <time>2016-10-22T05:17:31Z</time>
      </trkpt>
      <trkpt lat="42.470040000" lon="-2.474586000">
        <ele>417.20</ele>
        <time>2016-10-22T05:17:32Z</time>
      </trkpt>
      <trkpt lat="42.470040000" lon="-2.474630000">
        <ele>417.20</ele>
        <time>2016-10-22T05:17:33Z</time>
      </trkpt>
      <trkpt lat="42.470040000" lon="-2.474673000">
        <ele>417.20</ele>
        <time>2016-10-22T05:17:34Z</time>
      </trkpt>
      <trkpt lat="42.470041000" lon="-2.474717000">
        <ele>417.20</ele>
        <time>2016-10-22T05:17:35Z</time>
      </trkpt>
      <trkpt lat="42.470042000" lon="-2.474761000">
        <ele>417.30</ele>
        <time>2016-10-22T05:17:36Z</time>
      </trkpt>
      <trkpt lat="42.470042000" lon="-2.474805000">
        <ele>417.30</ele>
        <time>2016-10-22T05:17:37Z</time>
      </trkpt>
      <trkpt lat="42.470041000" lon="-2.474851000">
        <ele>417.30</ele>
        <time>2016-10-22T05:17:38Z</time>
      </trkpt>
      <trkpt lat="42.470043000" lon="-2.474897000">
        <ele>417.30</ele>
        <time>2016-10-22T05:17:39Z</time>
      </trkpt>
      <trkpt lat="42.470045000" lon="-2.474941000">
        <ele>417.30</ele>
        <time>2016-10-22T05:17:40Z</time>
      </trkpt>
      <trkpt lat="42.470048000" lon="-2.474984000">
        <ele>417.20</ele>
        <time>2016-10-22T05:17:41Z</time>
      </trkpt>
      <trkpt lat="42.470049000" lon="-2.475028000">
        <ele>417.10</ele>
        <time>2016-10-22T05:17:42Z</time>
      </trkpt>
      <trkpt lat="42.470050000" lon="-2.475072000">
        <ele>417.00</ele>
        <time>2016-10-22T05:17:43Z</time>
      </trkpt>
      <trkpt lat="42.470052000" lon="-2.475116000">
        <ele>417.00</ele>
        <time>2016-10-22T05:17:44Z</time>
      </trkpt>
      <trkpt lat="42.470053000" lon="-2.475161000">
        <ele>417.00</ele>
        <time>2016-10-22T05:17:45Z</time>
      </trkpt>
      <trkpt lat="42.470055000" lon="-2.475205000">
        <ele>417.00</ele>
        <time>2016-10-22T05:17:46Z</time>
      </trkpt>
      <trkpt lat="42.470057000" lon="-2.475249000">
        <ele>417.00</ele>
        <time>2016-10-22T05:17:47Z</time>
      </trkpt>
      <trkpt lat="42.470061000" lon="-2.475292000">
        <ele>417.00</ele>
        <time>2016-10-22T05:17:48Z</time>
      </trkpt>
      <trkpt lat="42.470061000" lon="-2.475341000">
        <ele>417.00</ele>
        <time>2016-10-22T05:17:49Z</time>
      </trkpt>
      <trkpt lat="42.470063000" lon="-2.475389000">
        <ele>417.00</ele>
        <time>2016-10-22T05:17:50Z</time>
      </trkpt>
      <trkpt lat="42.470063000" lon="-2.475434000">
        <ele>417.00</ele>
        <time>2016-10-22T05:17:51Z</time>
      </trkpt>
      <trkpt lat="42.470067000" lon="-2.475478000">
        <ele>417.00</ele>
        <time>2016-10-22T05:17:52Z</time>
      </trkpt>
      <trkpt lat="42.470077000" lon="-2.475524000">
        <ele>417.00</ele>
        <time>2016-10-22T05:17:53Z</time>
      </trkpt>
      <trkpt lat="42.470087000" lon="-2.475565000">
        <ele>417.00</ele>
        <time>2016-10-22T05:17:54Z</time>
      </trkpt>
      <trkpt lat="42.470102000" lon="-2.475603000">
        <ele>417.00</ele>
        <time>2016-10-22T05:17:55Z</time>
      </trkpt>
      <trkpt lat="42.470116000" lon="-2.475639000">
        <ele>417.00</ele>
        <time>2016-10-22T05:17:56Z</time>
      </trkpt>
      <trkpt lat="42.470131000" lon="-2.475678000">
        <ele>417.00</ele>
        <time>2016-10-22T05:17:57Z</time>
      </trkpt>
      <trkpt lat="42.470148000" lon="-2.475722000">
        <ele>416.90</ele>
        <time>2016-10-22T05:17:58Z</time>
      </trkpt>
      <trkpt lat="42.470163000" lon="-2.475768000">
        <ele>416.80</ele>
        <time>2016-10-22T05:17:59Z</time>
      </trkpt>
      <trkpt lat="42.470182000" lon="-2.475812000">
        <ele>416.70</ele>
        <time>2016-10-22T05:18:00Z</time>
      </trkpt>
      <trkpt lat="42.470198000" lon="-2.475860000">
        <ele>416.70</ele>
        <time>2016-10-22T05:18:01Z</time>
      </trkpt>
      <trkpt lat="42.470232000" lon="-2.475958000">
        <ele>416.60</ele>
        <time>2016-10-22T05:18:03Z</time>
      </trkpt>
      <trkpt lat="42.470249000" lon="-2.476008000">
        <ele>416.60</ele>
        <time>2016-10-22T05:18:04Z</time>
      </trkpt>
      <trkpt lat="42.470268000" lon="-2.476059000">
        <ele>416.40</ele>
        <time>2016-10-22T05:18:05Z</time>
      </trkpt>
      <trkpt lat="42.470287000" lon="-2.476109000">
        <ele>416.20</ele>
        <time>2016-10-22T05:18:06Z</time>
      </trkpt>
      <trkpt lat="42.470306000" lon="-2.476157000">
        <ele>416.10</ele>
        <time>2016-10-22T05:18:07Z</time>
      </trkpt>
      <trkpt lat="42.470324000" lon="-2.476203000">
        <ele>416.00</ele>
        <time>2016-10-22T05:18:08Z</time>
      </trkpt>
      <trkpt lat="42.470343000" lon="-2.476246000">
        <ele>415.90</ele>
        <time>2016-10-22T05:18:09Z</time>
      </trkpt>
      <trkpt lat="42.470361000" lon="-2.476284000">
        <ele>415.70</ele>
        <time>2016-10-22T05:18:10Z</time>
      </trkpt>
      <trkpt lat="42.470382000" lon="-2.476320000">
        <ele>415.50</ele>
        <time>2016-10-22T05:18:11Z</time>
      </trkpt>
      <trkpt lat="42.470402000" lon="-2.476350000">
        <ele>415.40</ele>
        <time>2016-10-22T05:18:12Z</time>
      </trkpt>
      <trkpt lat="42.470420000" lon="-2.476385000">
        <ele>415.20</ele>
        <time>2016-10-22T05:18:13Z</time>
      </trkpt>
      <trkpt lat="42.470443000" lon="-2.476420000">
        <ele>415.10</ele>
        <time>2016-10-22T05:18:14Z</time>
      </trkpt>
      <trkpt lat="42.470462000" lon="-2.476466000">
        <ele>414.90</ele>
        <time>2016-10-22T05:18:15Z</time>
      </trkpt>
      <trkpt lat="42.470477000" lon="-2.476517000">
        <ele>414.80</ele>
        <time>2016-10-22T05:18:16Z</time>
      </trkpt>
      <trkpt lat="42.470491000" lon="-2.476574000">
        <ele>414.80</ele>
        <time>2016-10-22T05:18:17Z</time>
      </trkpt>
      <trkpt lat="42.470509000" lon="-2.476633000">
        <ele>414.80</ele>
        <time>2016-10-22T05:18:18Z</time>
      </trkpt>
      <trkpt lat="42.470527000" lon="-2.476694000">
        <ele>414.70</ele>
        <time>2016-10-22T05:18:19Z</time>
      </trkpt>
      <trkpt lat="42.470546000" lon="-2.476747000">
        <ele>414.60</ele>
        <time>2016-10-22T05:18:20Z</time>
      </trkpt>
      <trkpt lat="42.470567000" lon="-2.476795000">
        <ele>414.30</ele>
        <time>2016-10-22T05:18:21Z</time>
      </trkpt>
      <trkpt lat="42.470590000" lon="-2.476844000">
        <ele>414.00</ele>
        <time>2016-10-22T05:18:22Z</time>
      </trkpt>
      <trkpt lat="42.470610000" lon="-2.476899000">
        <ele>413.80</ele>
        <time>2016-10-22T05:18:23Z</time>
      </trkpt>
      <trkpt lat="42.470625000" lon="-2.476961000">
        <ele>413.60</ele>
        <time>2016-10-22T05:18:24Z</time>
      </trkpt>
      <trkpt lat="42.470636000" lon="-2.477026000">
        <ele>413.30</ele>
        <time>2016-10-22T05:18:25Z</time>
      </trkpt>
      <trkpt lat="42.470650000" lon="-2.477096000">
        <ele>413.10</ele>
        <time>2016-10-22T05:18:26Z</time>
      </trkpt>
      <trkpt lat="42.470662000" lon="-2.477170000">
        <ele>412.90</ele>
        <time>2016-10-22T05:18:27Z</time>
      </trkpt>
      <trkpt lat="42.470674000" lon="-2.477246000">
        <ele>412.70</ele>
        <time>2016-10-22T05:18:28Z</time>
      </trkpt>
      <trkpt lat="42.470682000" lon="-2.477319000">
        <ele>412.40</ele>
        <time>2016-10-22T05:18:29Z</time>
      </trkpt>
      <trkpt lat="42.470689000" lon="-2.477390000">
        <ele>412.10</ele>
        <time>2016-10-22T05:18:30Z</time>
      </trkpt>
      <trkpt lat="42.470694000" lon="-2.477465000">
        <ele>411.80</ele>
        <time>2016-10-22T05:18:31Z</time>
      </trkpt>
      <trkpt lat="42.470700000" lon="-2.477541000">
        <ele>411.50</ele>
        <time>2016-10-22T05:18:32Z</time>
      </trkpt>
      <trkpt lat="42.470708000" lon="-2.477620000">
        <ele>411.10</ele>
        <time>2016-10-22T05:18:33Z</time>
      </trkpt>
      <trkpt lat="42.470718000" lon="-2.477700000">
        <ele>410.90</ele>
        <time>2016-10-22T05:18:34Z</time>
      </trkpt>
      <trkpt lat="42.470727000" lon="-2.477783000">
        <ele>410.60</ele>
        <time>2016-10-22T05:18:35Z</time>
      </trkpt>
      <trkpt lat="42.470733000" lon="-2.477869000">
        <ele>410.40</ele>
        <time>2016-10-22T05:18:36Z</time>
      </trkpt>
      <trkpt lat="42.470740000" lon="-2.477957000">
        <ele>410.20</ele>
        <time>2016-10-22T05:18:37Z</time>
      </trkpt>
      <trkpt lat="42.470751000" lon="-2.478044000">
        <ele>410.10</ele>
        <time>2016-10-22T05:18:38Z</time>
      </trkpt>
      <trkpt lat="42.470765000" lon="-2.478129000">
        <ele>409.80</ele>
        <time>2016-10-22T05:18:39Z</time>
      </trkpt>
      <trkpt lat="42.470780000" lon="-2.478213000">
        <ele>409.60</ele>
        <time>2016-10-22T05:18:40Z</time>
      </trkpt>
      <trkpt lat="42.470795000" lon="-2.478296000">
        <ele>409.40</ele>
        <time>2016-10-22T05:18:41Z</time>
      </trkpt>
      <trkpt lat="42.470813000" lon="-2.478377000">
        <ele>409.30</ele>
        <time>2016-10-22T05:18:42Z</time>
      </trkpt>
      <trkpt lat="42.470832000" lon="-2.478454000">
        <ele>409.10</ele>
        <time>2016-10-22T05:18:43Z</time>
      </trkpt>
      <trkpt lat="42.470850000" lon="-2.478532000">
        <ele>408.90</ele>
        <time>2016-10-22T05:18:44Z</time>
      </trkpt>
      <trkpt lat="42.470870000" lon="-2.478607000">
        <ele>409.00</ele>
        <time>2016-10-22T05:18:45Z</time>
      </trkpt>
      <trkpt lat="42.470893000" lon="-2.478680000">
        <ele>409.00</ele>
        <time>2016-10-22T05:18:46Z</time>
      </trkpt>
      <trkpt lat="42.470920000" lon="-2.478747000">
        <ele>408.80</ele>
        <time>2016-10-22T05:18:47Z</time>
      </trkpt>
      <trkpt lat="42.470949000" lon="-2.478812000">
        <ele>408.60</ele>
        <time>2016-10-22T05:18:48Z</time>
      </trkpt>
      <trkpt lat="42.470974000" lon="-2.478877000">
        <ele>408.80</ele>
        <time>2016-10-22T05:18:49Z</time>
      </trkpt>
      <trkpt lat="42.470999000" lon="-2.478935000">
        <ele>408.90</ele>
        <time>2016-10-22T05:18:50Z</time>
      </trkpt>
      <trkpt lat="42.471029000" lon="-2.478986000">
        <ele>408.80</ele>
        <time>2016-10-22T05:18:51Z</time>
      </trkpt>
      <trkpt lat="42.471056000" lon="-2.479030000">
        <ele>408.70</ele>
        <time>2016-10-22T05:18:52Z</time>
      </trkpt>
      <trkpt lat="42.471080000" lon="-2.479067000">
        <ele>409.00</ele>
        <time>2016-10-22T05:18:53Z</time>
      </trkpt>
      <trkpt lat="42.471103000" lon="-2.479102000">
        <ele>409.10</ele>
        <time>2016-10-22T05:18:54Z</time>
      </trkpt>
      <trkpt lat="42.471124000" lon="-2.479135000">
        <ele>409.30</ele>
        <time>2016-10-22T05:18:55Z</time>
      </trkpt>
      <trkpt lat="42.471144000" lon="-2.479168000">
        <ele>409.40</ele>
        <time>2016-10-22T05:18:56Z</time>
      </trkpt>
      <trkpt lat="42.471166000" lon="-2.479199000">
        <ele>409.50</ele>
        <time>2016-10-22T05:18:57Z</time>
      </trkpt>
      <trkpt lat="42.471184000" lon="-2.479230000">
        <ele>409.60</ele>
        <time>2016-10-22T05:18:58Z</time>
      </trkpt>
      <trkpt lat="42.471203000" lon="-2.479266000">
        <ele>409.80</ele>
        <time>2016-10-22T05:18:59Z</time>
      </trkpt>
      <trkpt lat="42.471220000" lon="-2.479304000">
        <ele>409.90</ele>
        <time>2016-10-22T05:19:00Z</time>
      </trkpt>
      <trkpt lat="42.471235000" lon="-2.479340000">
        <ele>410.20</ele>
        <time>2016-10-22T05:19:01Z</time>
      </trkpt>
      <trkpt lat="42.471249000" lon="-2.479376000">
        <ele>410.40</ele>
        <time>2016-10-22T05:19:02Z</time>
      </trkpt>
      <trkpt lat="42.471262000" lon="-2.479412000">
        <ele>410.70</ele>
        <time>2016-10-22T05:19:03Z</time>
      </trkpt>
      <trkpt lat="42.471283000" lon="-2.479490000">
        <ele>411.00</ele>
        <time>2016-10-22T05:19:05Z</time>
      </trkpt>
      <trkpt lat="42.471294000" lon="-2.479530000">
        <ele>411.20</ele>
        <time>2016-10-22T05:19:06Z</time>
      </trkpt>
      <trkpt lat="42.471307000" lon="-2.479566000">
        <ele>411.30</ele>
        <time>2016-10-22T05:19:07Z</time>
      </trkpt>
      <trkpt lat="42.471317000" lon="-2.479604000">
        <ele>411.30</ele>
        <time>2016-10-22T05:19:08Z</time>
      </trkpt>
      <trkpt lat="42.471322000" lon="-2.479645000">
        <ele>411.70</ele>
        <time>2016-10-22T05:19:09Z</time>
      </trkpt>
      <trkpt lat="42.471327000" lon="-2.479686000">
        <ele>411.90</ele>
        <time>2016-10-22T05:19:10Z</time>
      </trkpt>
      <trkpt lat="42.471333000" lon="-2.479725000">
        <ele>412.10</ele>
        <time>2016-10-22T05:19:11Z</time>
      </trkpt>
      <trkpt lat="42.471335000" lon="-2.479764000">
        <ele>412.30</ele>
        <time>2016-10-22T05:19:12Z</time>
      </trkpt>
      <trkpt lat="42.471340000" lon="-2.479801000">
        <ele>412.60</ele>
        <time>2016-10-22T05:19:13Z</time>
      </trkpt>
      <trkpt lat="42.471343000" lon="-2.479838000">
        <ele>412.90</ele>
        <time>2016-10-22T05:19:14Z</time>
      </trkpt>
      <trkpt lat="42.471345000" lon="-2.479877000">
        <ele>413.10</ele>
        <time>2016-10-22T05:19:15Z</time>
      </trkpt>
      <trkpt lat="42.471347000" lon="-2.479918000">
        <ele>413.30</ele>
        <time>2016-10-22T05:19:16Z</time>
      </trkpt>
      <trkpt lat="42.471349000" lon="-2.479957000">
        <ele>413.50</ele>
        <time>2016-10-22T05:19:17Z</time>
      </trkpt>
      <trkpt lat="42.471351000" lon="-2.479999000">
        <ele>413.60</ele>
        <time>2016-10-22T05:19:18Z</time>
      </trkpt>
      <trkpt lat="42.471353000" lon="-2.480040000">
        <ele>413.70</ele>
        <time>2016-10-22T05:19:19Z</time>
      </trkpt>
      <trkpt lat="42.471355000" lon="-2.480081000">
        <ele>413.80</ele>
        <time>2016-10-22T05:19:20Z</time>
      </trkpt>
      <trkpt lat="42.471357000" lon="-2.480120000">
        <ele>413.90</ele>
        <time>2016-10-22T05:19:21Z</time>
      </trkpt>
      <trkpt lat="42.471358000" lon="-2.480158000">
        <ele>413.90</ele>
        <time>2016-10-22T05:19:22Z</time>
      </trkpt>
      <trkpt lat="42.471363000" lon="-2.480198000">
        <ele>414.20</ele>
        <time>2016-10-22T05:19:23Z</time>
      </trkpt>
      <trkpt lat="42.471367000" lon="-2.480239000">
        <ele>414.30</ele>
        <time>2016-10-22T05:19:24Z</time>
      </trkpt>
      <trkpt lat="42.471371000" lon="-2.480284000">
        <ele>414.50</ele>
        <time>2016-10-22T05:19:25Z</time>
      </trkpt>
      <trkpt lat="42.471377000" lon="-2.480325000">
        <ele>414.70</ele>
        <time>2016-10-22T05:19:26Z</time>
      </trkpt>
      <trkpt lat="42.471383000" lon="-2.480364000">
        <ele>414.90</ele>
        <time>2016-10-22T05:19:27Z</time>
      </trkpt>
      <trkpt lat="42.471390000" lon="-2.480402000">
        <ele>415.10</ele>
        <time>2016-10-22T05:19:28Z</time>
      </trkpt>
      <trkpt lat="42.471398000" lon="-2.480438000">
        <ele>415.30</ele>
        <time>2016-10-22T05:19:29Z</time>
      </trkpt>
      <trkpt lat="42.471407000" lon="-2.480473000">
        <ele>415.40</ele>
        <time>2016-10-22T05:19:30Z</time>
      </trkpt>
      <trkpt lat="42.471420000" lon="-2.480507000">
        <ele>415.50</ele>
        <time>2016-10-22T05:19:31Z</time>
      </trkpt>
      <trkpt lat="42.471429000" lon="-2.480543000">
        <ele>415.60</ele>
        <time>2016-10-22T05:19:32Z</time>
      </trkpt>
      <trkpt lat="42.471438000" lon="-2.480583000">
        <ele>415.70</ele>
        <time>2016-10-22T05:19:33Z</time>
      </trkpt>
      <trkpt lat="42.471448000" lon="-2.480622000">
        <ele>415.80</ele>
        <time>2016-10-22T05:19:34Z</time>
      </trkpt>
      <trkpt lat="42.471460000" lon="-2.480661000">
        <ele>415.80</ele>
        <time>2016-10-22T05:19:35Z</time>
      </trkpt>
      <trkpt lat="42.471474000" lon="-2.480697000">
        <ele>415.90</ele>
        <time>2016-10-22T05:19:36Z</time>
      </trkpt>
      <trkpt lat="42.471487000" lon="-2.480732000">
        <ele>415.90</ele>
        <time>2016-10-22T05:19:37Z</time>
      </trkpt>
      <trkpt lat="42.471499000" lon="-2.480765000">
        <ele>415.90</ele>
        <time>2016-10-22T05:19:38Z</time>
      </trkpt>
      <trkpt lat="42.471512000" lon="-2.480799000">
        <ele>415.90</ele>
        <time>2016-10-22T05:19:39Z</time>
      </trkpt>
      <trkpt lat="42.471527000" lon="-2.480837000">
        <ele>416.00</ele>
        <time>2016-10-22T05:19:40Z</time>
      </trkpt>
      <trkpt lat="42.471543000" lon="-2.480871000">
        <ele>416.10</ele>
        <time>2016-10-22T05:19:41Z</time>
      </trkpt>
      <trkpt lat="42.471560000" lon="-2.480905000">
        <ele>416.20</ele>
        <time>2016-10-22T05:19:42Z</time>
      </trkpt>
      <trkpt lat="42.471577000" lon="-2.480938000">
        <ele>416.30</ele>
        <time>2016-10-22T05:19:43Z</time>
      </trkpt>
      <trkpt lat="42.471599000" lon="-2.480968000">
        <ele>416.40</ele>
        <time>2016-10-22T05:19:44Z</time>
      </trkpt>
      <trkpt lat="42.471615000" lon="-2.481005000">
        <ele>416.70</ele>
        <time>2016-10-22T05:19:45Z</time>
      </trkpt>
      <trkpt lat="42.471634000" lon="-2.481039000">
        <ele>416.90</ele>
        <time>2016-10-22T05:19:46Z</time>
      </trkpt>
      <trkpt lat="42.471652000" lon="-2.481071000">
        <ele>417.10</ele>
        <time>2016-10-22T05:19:47Z</time>
      </trkpt>
      <trkpt lat="42.471670000" lon="-2.481102000">
        <ele>417.20</ele>
        <time>2016-10-22T05:19:48Z</time>
      </trkpt>
      <trkpt lat="42.471690000" lon="-2.481132000">
        <ele>417.40</ele>
        <time>2016-10-22T05:19:49Z</time>
      </trkpt>
      <trkpt lat="42.471710000" lon="-2.481159000">
        <ele>417.50</ele>
        <time>2016-10-22T05:19:50Z</time>
      </trkpt>
      <trkpt lat="42.471732000" lon="-2.481185000">
        <ele>417.70</ele>
        <time>2016-10-22T05:19:51Z</time>
      </trkpt>
      <trkpt lat="42.471752000" lon="-2.481211000">
        <ele>417.80</ele>
        <time>2016-10-22T05:19:52Z</time>
      </trkpt>
      <trkpt lat="42.471772000" lon="-2.481239000">
        <ele>417.90</ele>
        <time>2016-10-22T05:19:53Z</time>
      </trkpt>
      <trkpt lat="42.471792000" lon="-2.481271000">
        <ele>418.00</ele>
        <time>2016-10-22T05:19:54Z</time>
      </trkpt>
      <trkpt lat="42.471811000" lon="-2.481301000">
        <ele>418.10</ele>
        <time>2016-10-22T05:19:55Z</time>
      </trkpt>
      <trkpt lat="42.471830000" lon="-2.481332000">
        <ele>418.10</ele>
        <time>2016-10-22T05:19:56Z</time>
      </trkpt>
      <trkpt lat="42.471851000" lon="-2.481361000">
        <ele>418.10</ele>
        <time>2016-10-22T05:19:57Z</time>
      </trkpt>
      <trkpt lat="42.471872000" lon="-2.481394000">
        <ele>418.20</ele>
        <time>2016-10-22T05:19:58Z</time>
      </trkpt>
      <trkpt lat="42.471894000" lon="-2.481424000">
        <ele>418.40</ele>
        <time>2016-10-22T05:19:59Z</time>
      </trkpt>
      <trkpt lat="42.471917000" lon="-2.481455000">
        <ele>418.50</ele>
        <time>2016-10-22T05:20:00Z</time>
      </trkpt>
      <trkpt lat="42.471939000" lon="-2.481485000">
        <ele>418.60</ele>
        <time>2016-10-22T05:20:01Z</time>
      </trkpt>
      <trkpt lat="42.471959000" lon="-2.481517000">
        <ele>418.70</ele>
        <time>2016-10-22T05:20:02Z</time>
      </trkpt>
      <trkpt lat="42.471979000" lon="-2.481552000">
        <ele>418.70</ele>
        <time>2016-10-22T05:20:03Z</time>
      </trkpt>
      <trkpt lat="42.472000000" lon="-2.481585000">
        <ele>418.60</ele>
        <time>2016-10-22T05:20:04Z</time>
      </trkpt>
      <trkpt lat="42.472020000" lon="-2.481621000">
        <ele>418.60</ele>
        <time>2016-10-22T05:20:05Z</time>
      </trkpt>
      <trkpt lat="42.472060000" lon="-2.481693000">
        <ele>418.80</ele>
        <time>2016-10-22T05:20:07Z</time>
      </trkpt>
      <trkpt lat="42.472080000" lon="-2.481724000">
        <ele>418.90</ele>
        <time>2016-10-22T05:20:08Z</time>
      </trkpt>
      <trkpt lat="42.472102000" lon="-2.481758000">
        <ele>419.00</ele>
        <time>2016-10-22T05:20:09Z</time>
      </trkpt>
      <trkpt lat="42.472120000" lon="-2.481789000">
        <ele>419.10</ele>
        <time>2016-10-22T05:20:10Z</time>
      </trkpt>
      <trkpt lat="42.472137000" lon="-2.481827000">
        <ele>419.10</ele>
        <time>2016-10-22T05:20:11Z</time>
      </trkpt>
      <trkpt lat="42.472155000" lon="-2.481865000">
        <ele>419.20</ele>
        <time>2016-10-22T05:20:12Z</time>
      </trkpt>
      <trkpt lat="42.472173000" lon="-2.481901000">
        <ele>419.20</ele>
        <time>2016-10-22T05:20:13Z</time>
      </trkpt>
      <trkpt lat="42.472191000" lon="-2.481940000">
        <ele>419.20</ele>
        <time>2016-10-22T05:20:14Z</time>
      </trkpt>
      <trkpt lat="42.472210000" lon="-2.481974000">
        <ele>419.40</ele>
        <time>2016-10-22T05:20:15Z</time>
      </trkpt>
      <trkpt lat="42.472230000" lon="-2.482007000">
        <ele>419.50</ele>
        <time>2016-10-22T05:20:16Z</time>
      </trkpt>
      <trkpt lat="42.472252000" lon="-2.482044000">
        <ele>419.60</ele>
        <time>2016-10-22T05:20:17Z</time>
      </trkpt>
      <trkpt lat="42.472272000" lon="-2.482084000">
        <ele>419.70</ele>
        <time>2016-10-22T05:20:18Z</time>
      </trkpt>
      <trkpt lat="42.472288000" lon="-2.482120000">
        <ele>419.80</ele>
        <time>2016-10-22T05:20:19Z</time>
      </trkpt>
      <trkpt lat="42.472305000" lon="-2.482159000">
        <ele>419.80</ele>
        <time>2016-10-22T05:20:20Z</time>
      </trkpt>
      <trkpt lat="42.472323000" lon="-2.482196000">
        <ele>419.80</ele>
        <time>2016-10-22T05:20:21Z</time>
      </trkpt>
      <trkpt lat="42.472341000" lon="-2.482230000">
        <ele>419.80</ele>
        <time>2016-10-22T05:20:22Z</time>
      </trkpt>
      <trkpt lat="42.472361000" lon="-2.482269000">
        <ele>419.80</ele>
        <time>2016-10-22T05:20:23Z</time>
      </trkpt>
      <trkpt lat="42.472378000" lon="-2.482307000">
        <ele>419.80</ele>
        <time>2016-10-22T05:20:24Z</time>
      </trkpt>
      <trkpt lat="42.472395000" lon="-2.482346000">
        <ele>419.90</ele>
        <time>2016-10-22T05:20:25Z</time>
      </trkpt>
      <trkpt lat="42.472410000" lon="-2.482384000">
        <ele>420.00</ele>
        <time>2016-10-22T05:20:26Z</time>
      </trkpt>
      <trkpt lat="42.472428000" lon="-2.482422000">
        <ele>420.10</ele>
        <time>2016-10-22T05:20:27Z</time>
      </trkpt>
      <trkpt lat="42.472442000" lon="-2.482456000">
        <ele>420.10</ele>
        <time>2016-10-22T05:20:28Z</time>
      </trkpt>
      <trkpt lat="42.472458000" lon="-2.482493000">
        <ele>420.20</ele>
        <time>2016-10-22T05:20:29Z</time>
      </trkpt>
      <trkpt lat="42.472476000" lon="-2.482528000">
        <ele>420.30</ele>
        <time>2016-10-22T05:20:30Z</time>
      </trkpt>
      <trkpt lat="42.472490000" lon="-2.482567000">
        <ele>420.40</ele>
        <time>2016-10-22T05:20:31Z</time>
      </trkpt>
      <trkpt lat="42.472506000" lon="-2.482601000">
        <ele>420.50</ele>
        <time>2016-10-22T05:20:32Z</time>
      </trkpt>
      <trkpt lat="42.472524000" lon="-2.482638000">
        <ele>420.60</ele>
        <time>2016-10-22T05:20:33Z</time>
      </trkpt>
      <trkpt lat="42.472542000" lon="-2.482673000">
        <ele>420.60</ele>
        <time>2016-10-22T05:20:34Z</time>
      </trkpt>
      <trkpt lat="42.472560000" lon="-2.482708000">
        <ele>420.70</ele>
        <time>2016-10-22T05:20:35Z</time>
      </trkpt>
      <trkpt lat="42.472575000" lon="-2.482744000">
        <ele>420.80</ele>
        <time>2016-10-22T05:20:36Z</time>
      </trkpt>
      <trkpt lat="42.472591000" lon="-2.482776000">
        <ele>420.90</ele>
        <time>2016-10-22T05:20:37Z</time>
      </trkpt>
      <trkpt lat="42.472605000" lon="-2.482813000">
        <ele>421.10</ele>
        <time>2016-10-22T05:20:38Z</time>
      </trkpt>
      <trkpt lat="42.472621000" lon="-2.482848000">
        <ele>421.30</ele>
        <time>2016-10-22T05:20:39Z</time>
      </trkpt>
      <trkpt lat="42.472640000" lon="-2.482883000">
        <ele>421.50</ele>
        <time>2016-10-22T05:20:40Z</time>
      </trkpt>
      <trkpt lat="42.472659000" lon="-2.482919000">
        <ele>421.50</ele>
        <time>2016-10-22T05:20:41Z</time>
      </trkpt>
      <trkpt lat="42.472679000" lon="-2.482955000">
        <ele>421.60</ele>
        <time>2016-10-22T05:20:42Z</time>
      </trkpt>
      <trkpt lat="42.472695000" lon="-2.482991000">
        <ele>421.60</ele>
        <time>2016-10-22T05:20:43Z</time>
      </trkpt>
      <trkpt lat="42.472712000" lon="-2.483030000">
        <ele>421.70</ele>
        <time>2016-10-22T05:20:44Z</time>
      </trkpt>
      <trkpt lat="42.472730000" lon="-2.483064000">
        <ele>421.70</ele>
        <time>2016-10-22T05:20:45Z</time>
      </trkpt>
      <trkpt lat="42.472747000" lon="-2.483095000">
        <ele>421.70</ele>
        <time>2016-10-22T05:20:46Z</time>
      </trkpt>
      <trkpt lat="42.472763000" lon="-2.483129000">
        <ele>421.90</ele>
        <time>2016-10-22T05:20:47Z</time>
      </trkpt>
      <trkpt lat="42.472779000" lon="-2.483165000">
        <ele>422.10</ele>
        <time>2016-10-22T05:20:48Z</time>
      </trkpt>
      <trkpt lat="42.472793000" lon="-2.483200000">
        <ele>422.30</ele>
        <time>2016-10-22T05:20:49Z</time>
      </trkpt>
      <trkpt lat="42.472807000" lon="-2.483236000">
        <ele>422.40</ele>
        <time>2016-10-22T05:20:50Z</time>
      </trkpt>
      <trkpt lat="42.472828000" lon="-2.483271000">
        <ele>422.60</ele>
        <time>2016-10-22T05:20:51Z</time>
      </trkpt>
      <trkpt lat="42.472845000" lon="-2.483305000">
        <ele>422.70</ele>
        <time>2016-10-22T05:20:52Z</time>
      </trkpt>
      <trkpt lat="42.472856000" lon="-2.483342000">
        <ele>422.90</ele>
        <time>2016-10-22T05:20:53Z</time>
      </trkpt>
      <trkpt lat="42.472869000" lon="-2.483379000">
        <ele>422.90</ele>
        <time>2016-10-22T05:20:54Z</time>
      </trkpt>
      <trkpt lat="42.472885000" lon="-2.483418000">
        <ele>422.90</ele>
        <time>2016-10-22T05:20:55Z</time>
      </trkpt>
      <trkpt lat="42.472897000" lon="-2.483457000">
        <ele>423.00</ele>
        <time>2016-10-22T05:20:56Z</time>
      </trkpt>
      <trkpt lat="42.472914000" lon="-2.483495000">
        <ele>422.90</ele>
        <time>2016-10-22T05:20:57Z</time>
      </trkpt>
      <trkpt lat="42.472927000" lon="-2.483531000">
        <ele>422.80</ele>
        <time>2016-10-22T05:20:58Z</time>
      </trkpt>
      <trkpt lat="42.472940000" lon="-2.483570000">
        <ele>422.80</ele>
        <time>2016-10-22T05:20:59Z</time>
      </trkpt>
      <trkpt lat="42.472956000" lon="-2.483606000">
        <ele>422.80</ele>
        <time>2016-10-22T05:21:00Z</time>
      </trkpt>
      <trkpt lat="42.472969000" lon="-2.483639000">
        <ele>422.80</ele>
        <time>2016-10-22T05:21:01Z</time>
      </trkpt>
      <trkpt lat="42.472983000" lon="-2.483675000">
        <ele>422.90</ele>
        <time>2016-10-22T05:21:02Z</time>
      </trkpt>
      <trkpt lat="42.472999000" lon="-2.483713000">
        <ele>422.90</ele>
        <time>2016-10-22T05:21:03Z</time>
      </trkpt>
      <trkpt lat="42.473013000" lon="-2.483750000">
        <ele>423.00</ele>
        <time>2016-10-22T05:21:04Z</time>
      </trkpt>
      <trkpt lat="42.473025000" lon="-2.483789000">
        <ele>423.20</ele>
        <time>2016-10-22T05:21:05Z</time>
      </trkpt>
      <trkpt lat="42.473036000" lon="-2.483828000">
        <ele>423.30</ele>
        <time>2016-10-22T05:21:06Z</time>
      </trkpt>
      <trkpt lat="42.473049000" lon="-2.483865000">
        <ele>423.40</ele>
        <time>2016-10-22T05:21:07Z</time>
      </trkpt>
      <trkpt lat="42.473075000" lon="-2.483943000">
        <ele>423.50</ele>
        <time>2016-10-22T05:21:09Z</time>
      </trkpt>
      <trkpt lat="42.473087000" lon="-2.483980000">
        <ele>423.50</ele>
        <time>2016-10-22T05:21:10Z</time>
      </trkpt>
      <trkpt lat="42.473100000" lon="-2.484022000">
        <ele>423.50</ele>
        <time>2016-10-22T05:21:11Z</time>
      </trkpt>
      <trkpt lat="42.473113000" lon="-2.484060000">
        <ele>423.50</ele>
        <time>2016-10-22T05:21:12Z</time>
      </trkpt>
      <trkpt lat="42.473126000" lon="-2.484100000">
        <ele>423.50</ele>
        <time>2016-10-22T05:21:13Z</time>
      </trkpt>
      <trkpt lat="42.473139000" lon="-2.484139000">
        <ele>423.40</ele>
        <time>2016-10-22T05:21:14Z</time>
      </trkpt>
      <trkpt lat="42.473151000" lon="-2.484178000">
        <ele>423.60</ele>
        <time>2016-10-22T05:21:15Z</time>
      </trkpt>
      <trkpt lat="42.473164000" lon="-2.484215000">
        <ele>423.60</ele>
        <time>2016-10-22T05:21:16Z</time>
      </trkpt>
      <trkpt lat="42.473179000" lon="-2.484251000">
        <ele>423.70</ele>
        <time>2016-10-22T05:21:17Z</time>
      </trkpt>
      <trkpt lat="42.473192000" lon="-2.484289000">
        <ele>423.80</ele>
        <time>2016-10-22T05:21:18Z</time>
      </trkpt>
      <trkpt lat="42.473206000" lon="-2.484324000">
        <ele>423.80</ele>
        <time>2016-10-22T05:21:19Z</time>
      </trkpt>
      <trkpt lat="42.473214000" lon="-2.484363000">
        <ele>423.80</ele>
        <time>2016-10-22T05:21:20Z</time>
      </trkpt>
      <trkpt lat="42.473223000" lon="-2.484407000">
        <ele>424.00</ele>
        <time>2016-10-22T05:21:21Z</time>
      </trkpt>
      <trkpt lat="42.473235000" lon="-2.484446000">
        <ele>424.20</ele>
        <time>2016-10-22T05:21:22Z</time>
      </trkpt>
      <trkpt lat="42.473247000" lon="-2.484488000">
        <ele>424.30</ele>
        <time>2016-10-22T05:21:23Z</time>
      </trkpt>
      <trkpt lat="42.473254000" lon="-2.484530000">
        <ele>424.40</ele>
        <time>2016-10-22T05:21:24Z</time>
      </trkpt>
      <trkpt lat="42.473263000" lon="-2.484574000">
        <ele>424.60</ele>
        <time>2016-10-22T05:21:25Z</time>
      </trkpt>
      <trkpt lat="42.473272000" lon="-2.484614000">
        <ele>424.70</ele>
        <time>2016-10-22T05:21:26Z</time>
      </trkpt>
      <trkpt lat="42.473278000" lon="-2.484652000">
        <ele>424.80</ele>
        <time>2016-10-22T05:21:27Z</time>
      </trkpt>
      <trkpt lat="42.473289000" lon="-2.484690000">
        <ele>424.90</ele>
        <time>2016-10-22T05:21:28Z</time>
      </trkpt>
      <trkpt lat="42.473299000" lon="-2.484729000">
        <ele>425.00</ele>
        <time>2016-10-22T05:21:29Z</time>
      </trkpt>
      <trkpt lat="42.473306000" lon="-2.484768000">
        <ele>425.00</ele>
        <time>2016-10-22T05:21:30Z</time>
      </trkpt>
      <trkpt lat="42.473314000" lon="-2.484810000">
        <ele>425.00</ele>
        <time>2016-10-22T05:21:31Z</time>
      </trkpt>
      <trkpt lat="42.473319000" lon="-2.484854000">
        <ele>425.10</ele>
        <time>2016-10-22T05:21:32Z</time>
      </trkpt>
      <trkpt lat="42.473326000" lon="-2.484897000">
        <ele>425.10</ele>
        <time>2016-10-22T05:21:33Z</time>
      </trkpt>
      <trkpt lat="42.473333000" lon="-2.484936000">
        <ele>425.10</ele>
        <time>2016-10-22T05:21:34Z</time>
      </trkpt>
      <trkpt lat="42.473344000" lon="-2.484976000">
        <ele>425.30</ele>
        <time>2016-10-22T05:21:35Z</time>
      </trkpt>
      <trkpt lat="42.473353000" lon="-2.485018000">
        <ele>425.40</ele>
        <time>2016-10-22T05:21:36Z</time>
      </trkpt>
      <trkpt lat="42.473363000" lon="-2.485057000">
        <ele>425.50</ele>
        <time>2016-10-22T05:21:37Z</time>
      </trkpt>
      <trkpt lat="42.473371000" lon="-2.485096000">
        <ele>425.60</ele>
        <time>2016-10-22T05:21:38Z</time>
      </trkpt>
      <trkpt lat="42.473381000" lon="-2.485137000">
        <ele>425.70</ele>
        <time>2016-10-22T05:21:39Z</time>
      </trkpt>
      <trkpt lat="42.473388000" lon="-2.485180000">
        <ele>425.70</ele>
        <time>2016-10-22T05:21:40Z</time>
      </trkpt>
      <trkpt lat="42.473398000" lon="-2.485220000">
        <ele>426.00</ele>
        <time>2016-10-22T05:21:41Z</time>
      </trkpt>
      <trkpt lat="42.473407000" lon="-2.485261000">
        <ele>426.20</ele>
        <time>2016-10-22T05:21:42Z</time>
      </trkpt>
      <trkpt lat="42.473414000" lon="-2.485305000">
        <ele>426.30</ele>
        <time>2016-10-22T05:21:43Z</time>
      </trkpt>
      <trkpt lat="42.473422000" lon="-2.485345000">
        <ele>426.30</ele>
        <time>2016-10-22T05:21:44Z</time>
      </trkpt>
      <trkpt lat="42.473431000" lon="-2.485384000">
        <ele>426.40</ele>
        <time>2016-10-22T05:21:45Z</time>
      </trkpt>
      <trkpt lat="42.473439000" lon="-2.485424000">
        <ele>426.50</ele>
        <time>2016-10-22T05:21:46Z</time>
      </trkpt>
      <trkpt lat="42.473444000" lon="-2.485467000">
        <ele>426.60</ele>
        <time>2016-10-22T05:21:47Z</time>
      </trkpt>
      <trkpt lat="42.473451000" lon="-2.485508000">
        <ele>426.60</ele>
        <time>2016-10-22T05:21:48Z</time>
      </trkpt>
      <trkpt lat="42.473460000" lon="-2.485551000">
        <ele>426.70</ele>
        <time>2016-10-22T05:21:49Z</time>
      </trkpt>
      <trkpt lat="42.473465000" lon="-2.485597000">
        <ele>426.70</ele>
        <time>2016-10-22T05:21:50Z</time>
      </trkpt>
      <trkpt lat="42.473475000" lon="-2.485639000">
        <ele>426.90</ele>
        <time>2016-10-22T05:21:51Z</time>
      </trkpt>
      <trkpt lat="42.473483000" lon="-2.485682000">
        <ele>427.10</ele>
        <time>2016-10-22T05:21:52Z</time>
      </trkpt>
      <trkpt lat="42.473491000" lon="-2.485722000">
        <ele>427.20</ele>
        <time>2016-10-22T05:21:53Z</time>
      </trkpt>
      <trkpt lat="42.473496000" lon="-2.485764000">
        <ele>427.30</ele>
        <time>2016-10-22T05:21:54Z</time>
      </trkpt>
      <trkpt lat="42.473507000" lon="-2.485801000">
        <ele>427.40</ele>
        <time>2016-10-22T05:21:55Z</time>
      </trkpt>
      <trkpt lat="42.473519000" lon="-2.485838000">
        <ele>427.50</ele>
        <time>2016-10-22T05:21:56Z</time>
      </trkpt>
      <trkpt lat="42.473529000" lon="-2.485876000">
        <ele>427.40</ele>
        <time>2016-10-22T05:21:57Z</time>
      </trkpt>
      <trkpt lat="42.473537000" lon="-2.485915000">
        <ele>427.40</ele>
        <time>2016-10-22T05:21:58Z</time>
      </trkpt>
      <trkpt lat="42.473544000" lon="-2.485955000">
        <ele>427.50</ele>
        <time>2016-10-22T05:21:59Z</time>
      </trkpt>
      <trkpt lat="42.473557000" lon="-2.485992000">
        <ele>427.50</ele>
        <time>2016-10-22T05:22:00Z</time>
      </trkpt>
      <trkpt lat="42.473567000" lon="-2.486034000">
        <ele>427.50</ele>
        <time>2016-10-22T05:22:01Z</time>
      </trkpt>
      <trkpt lat="42.473577000" lon="-2.486075000">
        <ele>427.40</ele>
        <time>2016-10-22T05:22:02Z</time>
      </trkpt>
      <trkpt lat="42.473582000" lon="-2.486118000">
        <ele>427.60</ele>
        <time>2016-10-22T05:22:03Z</time>
      </trkpt>
      <trkpt lat="42.473590000" lon="-2.486163000">
        <ele>427.80</ele>
        <time>2016-10-22T05:22:04Z</time>
      </trkpt>
      <trkpt lat="42.473599000" lon="-2.486205000">
        <ele>427.90</ele>
        <time>2016-10-22T05:22:05Z</time>
      </trkpt>
      <trkpt lat="42.473609000" lon="-2.486245000">
        <ele>428.00</ele>
        <time>2016-10-22T05:22:06Z</time>
      </trkpt>
      <trkpt lat="42.473620000" lon="-2.486286000">
        <ele>428.10</ele>
        <time>2016-10-22T05:22:07Z</time>
      </trkpt>
      <trkpt lat="42.473626000" lon="-2.486327000">
        <ele>428.10</ele>
        <time>2016-10-22T05:22:08Z</time>
      </trkpt>
      <trkpt lat="42.473633000" lon="-2.486367000">
        <ele>428.10</ele>
        <time>2016-10-22T05:22:09Z</time>
      </trkpt>
      <trkpt lat="42.473650000" lon="-2.486447000">
        <ele>428.00</ele>
        <time>2016-10-22T05:22:11Z</time>
      </trkpt>
      <trkpt lat="42.473656000" lon="-2.486487000">
        <ele>428.00</ele>
        <time>2016-10-22T05:22:12Z</time>
      </trkpt>
      <trkpt lat="42.473664000" lon="-2.486528000">
        <ele>428.10</ele>
        <time>2016-10-22T05:22:13Z</time>
      </trkpt>
      <trkpt lat="42.473672000" lon="-2.486566000">
        <ele>428.10</ele>
        <time>2016-10-22T05:22:14Z</time>
      </trkpt>
      <trkpt lat="42.473681000" lon="-2.486605000">
        <ele>428.20</ele>
        <time>2016-10-22T05:22:15Z</time>
      </trkpt>
      <trkpt lat="42.473689000" lon="-2.486644000">
        <ele>428.40</ele>
        <time>2016-10-22T05:22:16Z</time>
      </trkpt>
      <trkpt lat="42.473698000" lon="-2.486681000">
        <ele>428.40</ele>
        <time>2016-10-22T05:22:17Z</time>
      </trkpt>
      <trkpt lat="42.473704000" lon="-2.486721000">
        <ele>428.50</ele>
        <time>2016-10-22T05:22:18Z</time>
      </trkpt>
      <trkpt lat="42.473711000" lon="-2.486763000">
        <ele>428.60</ele>
        <time>2016-10-22T05:22:19Z</time>
      </trkpt>
      <trkpt lat="42.473717000" lon="-2.486802000">
        <ele>428.60</ele>
        <time>2016-10-22T05:22:20Z</time>
      </trkpt>
      <trkpt lat="42.473725000" lon="-2.486843000">
        <ele>428.70</ele>
        <time>2016-10-22T05:22:21Z</time>
      </trkpt>
      <trkpt lat="42.473733000" lon="-2.486884000">
        <ele>428.90</ele>
        <time>2016-10-22T05:22:22Z</time>
      </trkpt>
      <trkpt lat="42.473737000" lon="-2.486926000">
        <ele>429.00</ele>
        <time>2016-10-22T05:22:23Z</time>
      </trkpt>
      <trkpt lat="42.473745000" lon="-2.486967000">
        <ele>429.10</ele>
        <time>2016-10-22T05:22:24Z</time>
      </trkpt>
      <trkpt lat="42.473757000" lon="-2.487006000">
        <ele>429.20</ele>
        <time>2016-10-22T05:22:25Z</time>
      </trkpt>
      <trkpt lat="42.473766000" lon="-2.487046000">
        <ele>429.20</ele>
        <time>2016-10-22T05:22:26Z</time>
      </trkpt>
      <trkpt lat="42.473773000" lon="-2.487087000">
        <ele>429.30</ele>
        <time>2016-10-22T05:22:27Z</time>
      </trkpt>
      <trkpt lat="42.473780000" lon="-2.487127000">
        <ele>429.30</ele>
        <time>2016-10-22T05:22:28Z</time>
      </trkpt>
      <trkpt lat="42.473788000" lon="-2.487166000">
        <ele>429.40</ele>
        <time>2016-10-22T05:22:29Z</time>
      </trkpt>
      <trkpt lat="42.473796000" lon="-2.487206000">
        <ele>429.50</ele>
        <time>2016-10-22T05:22:30Z</time>
      </trkpt>
      <trkpt lat="42.473806000" lon="-2.487246000">
        <ele>429.60</ele>
        <time>2016-10-22T05:22:31Z</time>
      </trkpt>
      <trkpt lat="42.473816000" lon="-2.487288000">
        <ele>429.70</ele>
        <time>2016-10-22T05:22:32Z</time>
      </trkpt>
      <trkpt lat="42.473823000" lon="-2.487333000">
        <ele>429.80</ele>
        <time>2016-10-22T05:22:33Z</time>
      </trkpt>
      <trkpt lat="42.473831000" lon="-2.487373000">
        <ele>429.80</ele>
        <time>2016-10-22T05:22:34Z</time>
      </trkpt>
      <trkpt lat="42.473840000" lon="-2.487414000">
        <ele>429.90</ele>
        <time>2016-10-22T05:22:35Z</time>
      </trkpt>
      <trkpt lat="42.473851000" lon="-2.487450000">
        <ele>430.00</ele>
        <time>2016-10-22T05:22:36Z</time>
      </trkpt>
      <trkpt lat="42.473861000" lon="-2.487484000">
        <ele>430.10</ele>
        <time>2016-10-22T05:22:37Z</time>
      </trkpt>
      <trkpt lat="42.473872000" lon="-2.487521000">
        <ele>430.10</ele>
        <time>2016-10-22T05:22:38Z</time>
      </trkpt>
      <trkpt lat="42.473883000" lon="-2.487559000">
        <ele>430.40</ele>
        <time>2016-10-22T05:22:39Z</time>
      </trkpt>
      <trkpt lat="42.473894000" lon="-2.487594000">
        <ele>430.50</ele>
        <time>2016-10-22T05:22:40Z</time>
      </trkpt>
      <trkpt lat="42.473906000" lon="-2.487629000">
        <ele>430.70</ele>
        <time>2016-10-22T05:22:41Z</time>
      </trkpt>
      <trkpt lat="42.473919000" lon="-2.487661000">
        <ele>430.80</ele>
        <time>2016-10-22T05:22:42Z</time>
      </trkpt>
      <trkpt lat="42.473932000" lon="-2.487698000">
        <ele>430.80</ele>
        <time>2016-10-22T05:22:43Z</time>
      </trkpt>
      <trkpt lat="42.473946000" lon="-2.487734000">
        <ele>430.90</ele>
        <time>2016-10-22T05:22:44Z</time>
      </trkpt>
      <trkpt lat="42.473961000" lon="-2.487767000">
        <ele>430.90</ele>
        <time>2016-10-22T05:22:45Z</time>
      </trkpt>
      <trkpt lat="42.473974000" lon="-2.487799000">
        <ele>431.00</ele>
        <time>2016-10-22T05:22:46Z</time>
      </trkpt>
      <trkpt lat="42.473989000" lon="-2.487829000">
        <ele>431.10</ele>
        <time>2016-10-22T05:22:47Z</time>
      </trkpt>
      <trkpt lat="42.474007000" lon="-2.487860000">
        <ele>431.20</ele>
        <time>2016-10-22T05:22:48Z</time>
      </trkpt>
      <trkpt lat="42.474023000" lon="-2.487892000">
        <ele>431.40</ele>
        <time>2016-10-22T05:22:49Z</time>
      </trkpt>
      <trkpt lat="42.474038000" lon="-2.487923000">
        <ele>431.50</ele>
        <time>2016-10-22T05:22:50Z</time>
      </trkpt>
      <trkpt lat="42.474053000" lon="-2.487956000">
        <ele>431.60</ele>
        <time>2016-10-22T05:22:51Z</time>
      </trkpt>
      <trkpt lat="42.474071000" lon="-2.487984000">
        <ele>431.80</ele>
        <time>2016-10-22T05:22:52Z</time>
      </trkpt>
      <trkpt lat="42.474088000" lon="-2.488012000">
        <ele>431.80</ele>
        <time>2016-10-22T05:22:53Z</time>
      </trkpt>
      <trkpt lat="42.474105000" lon="-2.488038000">
        <ele>431.90</ele>
        <time>2016-10-22T05:22:54Z</time>
      </trkpt>
      <trkpt lat="42.474122000" lon="-2.488068000">
        <ele>432.10</ele>
        <time>2016-10-22T05:22:55Z</time>
      </trkpt>
      <trkpt lat="42.474140000" lon="-2.488097000">
        <ele>432.20</ele>
        <time>2016-10-22T05:22:56Z</time>
      </trkpt>
      <trkpt lat="42.474154000" lon="-2.488127000">
        <ele>432.30</ele>
        <time>2016-10-22T05:22:57Z</time>
      </trkpt>
      <trkpt lat="42.474173000" lon="-2.488157000">
        <ele>432.40</ele>
        <time>2016-10-22T05:22:58Z</time>
      </trkpt>
      <trkpt lat="42.474191000" lon="-2.488185000">
        <ele>432.60</ele>
        <time>2016-10-22T05:22:59Z</time>
      </trkpt>
      <trkpt lat="42.474208000" lon="-2.488213000">
        <ele>432.80</ele>
        <time>2016-10-22T05:23:00Z</time>
      </trkpt>
      <trkpt lat="42.474225000" lon="-2.488241000">
        <ele>433.00</ele>
        <time>2016-10-22T05:23:01Z</time>
      </trkpt>
      <trkpt lat="42.474243000" lon="-2.488269000">
        <ele>433.10</ele>
        <time>2016-10-22T05:23:02Z</time>
      </trkpt>
      <trkpt lat="42.474259000" lon="-2.488297000">
        <ele>433.20</ele>
        <time>2016-10-22T05:23:03Z</time>
      </trkpt>
      <trkpt lat="42.474273000" lon="-2.488326000">
        <ele>433.30</ele>
        <time>2016-10-22T05:23:04Z</time>
      </trkpt>
      <trkpt lat="42.474289000" lon="-2.488354000">
        <ele>433.50</ele>
        <time>2016-10-22T05:23:05Z</time>
      </trkpt>
      <trkpt lat="42.474309000" lon="-2.488379000">
        <ele>433.50</ele>
        <time>2016-10-22T05:23:06Z</time>
      </trkpt>
      <trkpt lat="42.474327000" lon="-2.488405000">
        <ele>433.80</ele>
        <time>2016-10-22T05:23:07Z</time>
      </trkpt>
      <trkpt lat="42.474343000" lon="-2.488428000">
        <ele>433.90</ele>
        <time>2016-10-22T05:23:08Z</time>
      </trkpt>
      <trkpt lat="42.474361000" lon="-2.488455000">
        <ele>434.20</ele>
        <time>2016-10-22T05:23:09Z</time>
      </trkpt>
      <trkpt lat="42.474378000" lon="-2.488481000">
        <ele>434.40</ele>
        <time>2016-10-22T05:23:10Z</time>
      </trkpt>
      <trkpt lat="42.474392000" lon="-2.488508000">
        <ele>434.60</ele>
        <time>2016-10-22T05:23:11Z</time>
      </trkpt>
      <trkpt lat="42.474421000" lon="-2.488557000">
        <ele>434.90</ele>
        <time>2016-10-22T05:23:13Z</time>
      </trkpt>
      <trkpt lat="42.474433000" lon="-2.488579000">
        <ele>434.90</ele>
        <time>2016-10-22T05:23:14Z</time>
      </trkpt>
      <trkpt lat="42.474444000" lon="-2.488599000">
        <ele>435.20</ele>
        <time>2016-10-22T05:23:15Z</time>
      </trkpt>
      <trkpt lat="42.474457000" lon="-2.488617000">
        <ele>435.40</ele>
        <time>2016-10-22T05:23:16Z</time>
      </trkpt>
      <trkpt lat="42.474463000" lon="-2.488639000">
        <ele>435.50</ele>
        <time>2016-10-22T05:23:17Z</time>
      </trkpt>
      <trkpt lat="42.474467000" lon="-2.488665000">
        <ele>435.60</ele>
        <time>2016-10-22T05:23:18Z</time>
      </trkpt>
      <trkpt lat="42.474473000" lon="-2.488689000">
        <ele>435.80</ele>
        <time>2016-10-22T05:23:19Z</time>
      </trkpt>
      <trkpt lat="42.474477000" lon="-2.488713000">
        <ele>435.90</ele>
        <time>2016-10-22T05:23:20Z</time>
      </trkpt>
      <trkpt lat="42.474483000" lon="-2.488745000">
        <ele>436.00</ele>
        <time>2016-10-22T05:23:21Z</time>
      </trkpt>
      <trkpt lat="42.474490000" lon="-2.488783000">
        <ele>436.10</ele>
        <time>2016-10-22T05:23:22Z</time>
      </trkpt>
      <trkpt lat="42.474498000" lon="-2.488830000">
        <ele>436.20</ele>
        <time>2016-10-22T05:23:23Z</time>
      </trkpt>
      <trkpt lat="42.474505000" lon="-2.488882000">
        <ele>436.30</ele>
        <time>2016-10-22T05:23:24Z</time>
      </trkpt>
      <trkpt lat="42.474520000" lon="-2.488937000">
        <ele>436.10</ele>
        <time>2016-10-22T05:23:25Z</time>
      </trkpt>
      <trkpt lat="42.474532000" lon="-2.488997000">
        <ele>436.00</ele>
        <time>2016-10-22T05:23:26Z</time>
      </trkpt>
      <trkpt lat="42.474545000" lon="-2.489060000">
        <ele>435.70</ele>
        <time>2016-10-22T05:23:27Z</time>
      </trkpt>
      <trkpt lat="42.474555000" lon="-2.489121000">
        <ele>435.50</ele>
        <time>2016-10-22T05:23:28Z</time>
      </trkpt>
      <trkpt lat="42.474565000" lon="-2.489179000">
        <ele>435.40</ele>
        <time>2016-10-22T05:23:29Z</time>
      </trkpt>
      <trkpt lat="42.474569000" lon="-2.489238000">
        <ele>435.20</ele>
        <time>2016-10-22T05:23:30Z</time>
      </trkpt>
      <trkpt lat="42.474574000" lon="-2.489292000">
        <ele>435.20</ele>
        <time>2016-10-22T05:23:31Z</time>
      </trkpt>
      <trkpt lat="42.474577000" lon="-2.489345000">
        <ele>435.20</ele>
        <time>2016-10-22T05:23:32Z</time>
      </trkpt>
      <trkpt lat="42.474586000" lon="-2.489392000">
        <ele>435.20</ele>
        <time>2016-10-22T05:23:33Z</time>
      </trkpt>
      <trkpt lat="42.474591000" lon="-2.489439000">
        <ele>435.20</ele>
        <time>2016-10-22T05:23:34Z</time>
      </trkpt>
      <trkpt lat="42.474596000" lon="-2.489479000">
        <ele>435.20</ele>
        <time>2016-10-22T05:23:35Z</time>
      </trkpt>
      <trkpt lat="42.474599000" lon="-2.489519000">
        <ele>435.20</ele>
        <time>2016-10-22T05:23:36Z</time>
      </trkpt>
      <trkpt lat="42.474603000" lon="-2.489559000">
        <ele>435.20</ele>
        <time>2016-10-22T05:23:37Z</time>
      </trkpt>
      <trkpt lat="42.474607000" lon="-2.489599000">
        <ele>435.20</ele>
        <time>2016-10-22T05:23:38Z</time>
      </trkpt>
      <trkpt lat="42.474610000" lon="-2.489640000">
        <ele>435.30</ele>
        <time>2016-10-22T05:23:39Z</time>
      </trkpt>
      <trkpt lat="42.474614000" lon="-2.489680000">
        <ele>435.30</ele>
        <time>2016-10-22T05:23:40Z</time>
      </trkpt>
      <trkpt lat="42.474617000" lon="-2.489723000">
        <ele>435.30</ele>
        <time>2016-10-22T05:23:41Z</time>
      </trkpt>
      <trkpt lat="42.474621000" lon="-2.489767000">
        <ele>435.30</ele>
        <time>2016-10-22T05:23:42Z</time>
      </trkpt>
      <trkpt lat="42.474618000" lon="-2.489811000">
        <ele>435.30</ele>
        <time>2016-10-22T05:23:43Z</time>
      </trkpt>
      <trkpt lat="42.474617000" lon="-2.489857000">
        <ele>435.30</ele>
        <time>2016-10-22T05:23:44Z</time>
      </trkpt>
      <trkpt lat="42.474616000" lon="-2.489901000">
        <ele>435.30</ele>
        <time>2016-10-22T05:23:45Z</time>
      </trkpt>
      <trkpt lat="42.474619000" lon="-2.489949000">
        <ele>435.30</ele>
        <time>2016-10-22T05:23:46Z</time>
      </trkpt>
      <trkpt lat="42.474619000" lon="-2.489994000">
        <ele>435.30</ele>
        <time>2016-10-22T05:23:47Z</time>
      </trkpt>
      <trkpt lat="42.474621000" lon="-2.490043000">
        <ele>435.30</ele>
        <time>2016-10-22T05:23:48Z</time>
      </trkpt>
      <trkpt lat="42.474626000" lon="-2.490090000">
        <ele>435.40</ele>
        <time>2016-10-22T05:23:49Z</time>
      </trkpt>
      <trkpt lat="42.474627000" lon="-2.490137000">
        <ele>435.50</ele>
        <time>2016-10-22T05:23:50Z</time>
      </trkpt>
      <trkpt lat="42.474629000" lon="-2.490183000">
        <ele>435.60</ele>
        <time>2016-10-22T05:23:51Z</time>
      </trkpt>
      <trkpt lat="42.474630000" lon="-2.490226000">
        <ele>435.70</ele>
        <time>2016-10-22T05:23:52Z</time>
      </trkpt>
      <trkpt lat="42.474634000" lon="-2.490270000">
        <ele>435.80</ele>
        <time>2016-10-22T05:23:53Z</time>
      </trkpt>
      <trkpt lat="42.474639000" lon="-2.490312000">
        <ele>435.80</ele>
        <time>2016-10-22T05:23:54Z</time>
      </trkpt>
      <trkpt lat="42.474643000" lon="-2.490354000">
        <ele>435.80</ele>
        <time>2016-10-22T05:23:55Z</time>
      </trkpt>
      <trkpt lat="42.474649000" lon="-2.490396000">
        <ele>435.80</ele>
        <time>2016-10-22T05:23:56Z</time>
      </trkpt>
      <trkpt lat="42.474656000" lon="-2.490438000">
        <ele>435.80</ele>
        <time>2016-10-22T05:23:57Z</time>
      </trkpt>
      <trkpt lat="42.474659000" lon="-2.490472000">
        <ele>435.80</ele>
        <time>2016-10-22T05:23:58Z</time>
      </trkpt>
      <trkpt lat="42.474666000" lon="-2.490509000">
        <ele>435.80</ele>
        <time>2016-10-22T05:23:59Z</time>
      </trkpt>
      <trkpt lat="42.474673000" lon="-2.490549000">
        <ele>435.80</ele>
        <time>2016-10-22T05:24:00Z</time>
      </trkpt>
      <trkpt lat="42.474681000" lon="-2.490588000">
        <ele>435.90</ele>
        <time>2016-10-22T05:24:01Z</time>
      </trkpt>
      <trkpt lat="42.474687000" lon="-2.490628000">
        <ele>435.90</ele>
        <time>2016-10-22T05:24:02Z</time>
      </trkpt>
      <trkpt lat="42.474694000" lon="-2.490667000">
        <ele>435.90</ele>
        <time>2016-10-22T05:24:03Z</time>
      </trkpt>
      <trkpt lat="42.474700000" lon="-2.490706000">
        <ele>436.00</ele>
        <time>2016-10-22T05:24:04Z</time>
      </trkpt>
      <trkpt lat="42.474705000" lon="-2.490742000">
        <ele>436.00</ele>
        <time>2016-10-22T05:24:05Z</time>
      </trkpt>
      <trkpt lat="42.474712000" lon="-2.490781000">
        <ele>436.10</ele>
        <time>2016-10-22T05:24:06Z</time>
      </trkpt>
      <trkpt lat="42.474719000" lon="-2.490820000">
        <ele>436.20</ele>
        <time>2016-10-22T05:24:07Z</time>
      </trkpt>
      <trkpt lat="42.474725000" lon="-2.490858000">
        <ele>436.30</ele>
        <time>2016-10-22T05:24:08Z</time>
      </trkpt>
      <trkpt lat="42.474731000" lon="-2.490895000">
        <ele>436.50</ele>
        <time>2016-10-22T05:24:09Z</time>
      </trkpt>
      <trkpt lat="42.474736000" lon="-2.490934000">
        <ele>436.60</ele>
        <time>2016-10-22T05:24:10Z</time>
      </trkpt>
      <trkpt lat="42.474747000" lon="-2.490973000">
        <ele>436.80</ele>
        <time>2016-10-22T05:24:11Z</time>
      </trkpt>
      <trkpt lat="42.474754000" lon="-2.491016000">
        <ele>437.00</ele>
        <time>2016-10-22T05:24:12Z</time>
      </trkpt>
      <trkpt lat="42.474758000" lon="-2.491056000">
        <ele>437.10</ele>
        <time>2016-10-22T05:24:13Z</time>
      </trkpt>
      <trkpt lat="42.474772000" lon="-2.491139000">
        <ele>437.40</ele>
        <time>2016-10-22T05:24:15Z</time>
      </trkpt>
      <trkpt lat="42.474774000" lon="-2.491182000">
        <ele>437.50</ele>
        <time>2016-10-22T05:24:16Z</time>
      </trkpt>
      <trkpt lat="42.474778000" lon="-2.491223000">
        <ele>437.50</ele>
        <time>2016-10-22T05:24:17Z</time>
      </trkpt>
      <trkpt lat="42.474780000" lon="-2.491268000">
        <ele>437.60</ele>
        <time>2016-10-22T05:24:18Z</time>
      </trkpt>
      <trkpt lat="42.474785000" lon="-2.491309000">
        <ele>437.80</ele>
        <time>2016-10-22T05:24:19Z</time>
      </trkpt>
      <trkpt lat="42.474788000" lon="-2.491352000">
        <ele>437.90</ele>
        <time>2016-10-22T05:24:20Z</time>
      </trkpt>
      <trkpt lat="42.474793000" lon="-2.491394000">
        <ele>438.10</ele>
        <time>2016-10-22T05:24:21Z</time>
      </trkpt>
      <trkpt lat="42.474798000" lon="-2.491436000">
        <ele>438.20</ele>
        <time>2016-10-22T05:24:22Z</time>
      </trkpt>
      <trkpt lat="42.474801000" lon="-2.491479000">
        <ele>438.30</ele>
        <time>2016-10-22T05:24:23Z</time>
      </trkpt>
      <trkpt lat="42.474806000" lon="-2.491523000">
        <ele>438.30</ele>
        <time>2016-10-22T05:24:24Z</time>
      </trkpt>
      <trkpt lat="42.474808000" lon="-2.491565000">
        <ele>438.60</ele>
        <time>2016-10-22T05:24:25Z</time>
      </trkpt>
      <trkpt lat="42.474811000" lon="-2.491605000">
        <ele>438.70</ele>
        <time>2016-10-22T05:24:26Z</time>
      </trkpt>
      <trkpt lat="42.474814000" lon="-2.491646000">
        <ele>438.90</ele>
        <time>2016-10-22T05:24:27Z</time>
      </trkpt>
      <trkpt lat="42.474818000" lon="-2.491686000">
        <ele>439.00</ele>
        <time>2016-10-22T05:24:28Z</time>
      </trkpt>
      <trkpt lat="42.474821000" lon="-2.491727000">
        <ele>439.00</ele>
        <time>2016-10-22T05:24:29Z</time>
      </trkpt>
      <trkpt lat="42.474824000" lon="-2.491768000">
        <ele>439.10</ele>
        <time>2016-10-22T05:24:30Z</time>
      </trkpt>
      <trkpt lat="42.474827000" lon="-2.491810000">
        <ele>439.20</ele>
        <time>2016-10-22T05:24:31Z</time>
      </trkpt>
      <trkpt lat="42.474829000" lon="-2.491850000">
        <ele>439.30</ele>
        <time>2016-10-22T05:24:32Z</time>
      </trkpt>
      <trkpt lat="42.474836000" lon="-2.491893000">
        <ele>439.40</ele>
        <time>2016-10-22T05:24:33Z</time>
      </trkpt>
      <trkpt lat="42.474838000" lon="-2.491934000">
        <ele>439.50</ele>
        <time>2016-10-22T05:24:34Z</time>
      </trkpt>
      <trkpt lat="42.474842000" lon="-2.491974000">
        <ele>439.50</ele>
        <time>2016-10-22T05:24:35Z</time>
      </trkpt>
      <trkpt lat="42.474846000" lon="-2.492010000">
        <ele>439.70</ele>
        <time>2016-10-22T05:24:36Z</time>
      </trkpt>
      <trkpt lat="42.474850000" lon="-2.492056000">
        <ele>439.90</ele>
        <time>2016-10-22T05:24:37Z</time>
      </trkpt>
      <trkpt lat="42.474851000" lon="-2.492098000">
        <ele>440.00</ele>
        <time>2016-10-22T05:24:38Z</time>
      </trkpt>
      <trkpt lat="42.474852000" lon="-2.492141000">
        <ele>440.20</ele>
        <time>2016-10-22T05:24:39Z</time>
      </trkpt>
      <trkpt lat="42.474854000" lon="-2.492185000">
        <ele>440.30</ele>
        <time>2016-10-22T05:24:40Z</time>
      </trkpt>
      <trkpt lat="42.474856000" lon="-2.492224000">
        <ele>440.40</ele>
        <time>2016-10-22T05:24:41Z</time>
      </trkpt>
      <trkpt lat="42.474857000" lon="-2.492267000">
        <ele>440.50</ele>
        <time>2016-10-22T05:24:42Z</time>
      </trkpt>
      <trkpt lat="42.474858000" lon="-2.492308000">
        <ele>440.50</ele>
        <time>2016-10-22T05:24:43Z</time>
      </trkpt>
      <trkpt lat="42.474858000" lon="-2.492355000">
        <ele>440.70</ele>
        <time>2016-10-22T05:24:44Z</time>
      </trkpt>
      <trkpt lat="42.474859000" lon="-2.492405000">
        <ele>440.80</ele>
        <time>2016-10-22T05:24:45Z</time>
      </trkpt>
      <trkpt lat="42.474861000" lon="-2.492454000">
        <ele>441.00</ele>
        <time>2016-10-22T05:24:46Z</time>
      </trkpt>
      <trkpt lat="42.474861000" lon="-2.492501000">
        <ele>441.10</ele>
        <time>2016-10-22T05:24:47Z</time>
      </trkpt>
      <trkpt lat="42.474860000" lon="-2.492546000">
        <ele>441.20</ele>
        <time>2016-10-22T05:24:48Z</time>
      </trkpt>
      <trkpt lat="42.474862000" lon="-2.492588000">
        <ele>441.30</ele>
        <time>2016-10-22T05:24:49Z</time>
      </trkpt>
      <trkpt lat="42.474865000" lon="-2.492630000">
        <ele>441.40</ele>
        <time>2016-10-22T05:24:50Z</time>
      </trkpt>
      <trkpt lat="42.474863000" lon="-2.492674000">
        <ele>441.40</ele>
        <time>2016-10-22T05:24:51Z</time>
      </trkpt>
      <trkpt lat="42.474863000" lon="-2.492714000">
        <ele>441.50</ele>
        <time>2016-10-22T05:24:52Z</time>
      </trkpt>
      <trkpt lat="42.474862000" lon="-2.492753000">
        <ele>441.50</ele>
        <time>2016-10-22T05:24:53Z</time>
      </trkpt>
      <trkpt lat="42.474860000" lon="-2.492798000">
        <ele>441.50</ele>
        <time>2016-10-22T05:24:54Z</time>
      </trkpt>
      <trkpt lat="42.474857000" lon="-2.492839000">
        <ele>441.50</ele>
        <time>2016-10-22T05:24:55Z</time>
      </trkpt>
      <trkpt lat="42.474850000" lon="-2.492879000">
        <ele>441.60</ele>
        <time>2016-10-22T05:24:56Z</time>
      </trkpt>
      <trkpt lat="42.474845000" lon="-2.492923000">
        <ele>441.60</ele>
        <time>2016-10-22T05:24:57Z</time>
      </trkpt>
      <trkpt lat="42.474834000" lon="-2.492967000">
        <ele>441.60</ele>
        <time>2016-10-22T05:24:58Z</time>
      </trkpt>
      <trkpt lat="42.474821000" lon="-2.493010000">
        <ele>441.60</ele>
        <time>2016-10-22T05:24:59Z</time>
      </trkpt>
      <trkpt lat="42.474807000" lon="-2.493052000">
        <ele>441.60</ele>
        <time>2016-10-22T05:25:00Z</time>
      </trkpt>
      <trkpt lat="42.474791000" lon="-2.493090000">
        <ele>441.60</ele>
        <time>2016-10-22T05:25:01Z</time>
      </trkpt>
      <trkpt lat="42.474775000" lon="-2.493130000">
        <ele>441.70</ele>
        <time>2016-10-22T05:25:02Z</time>
      </trkpt>
      <trkpt lat="42.474759000" lon="-2.493172000">
        <ele>441.70</ele>
        <time>2016-10-22T05:25:03Z</time>
      </trkpt>
      <trkpt lat="42.474742000" lon="-2.493213000">
        <ele>441.80</ele>
        <time>2016-10-22T05:25:04Z</time>
      </trkpt>
      <trkpt lat="42.474725000" lon="-2.493254000">
        <ele>441.90</ele>
        <time>2016-10-22T05:25:05Z</time>
      </trkpt>
      <trkpt lat="42.474707000" lon="-2.493291000">
        <ele>441.90</ele>
        <time>2016-10-22T05:25:06Z</time>
      </trkpt>
      <trkpt lat="42.474688000" lon="-2.493330000">
        <ele>442.00</ele>
        <time>2016-10-22T05:25:07Z</time>
      </trkpt>
      <trkpt lat="42.474669000" lon="-2.493369000">
        <ele>442.00</ele>
        <time>2016-10-22T05:25:08Z</time>
      </trkpt>
      <trkpt lat="42.474653000" lon="-2.493407000">
        <ele>442.10</ele>
        <time>2016-10-22T05:25:09Z</time>
      </trkpt>
      <trkpt lat="42.474636000" lon="-2.493448000">
        <ele>442.20</ele>
        <time>2016-10-22T05:25:10Z</time>
      </trkpt>
      <trkpt lat="42.474620000" lon="-2.493489000">
        <ele>442.30</ele>
        <time>2016-10-22T05:25:11Z</time>
      </trkpt>
      <trkpt lat="42.474600000" lon="-2.493533000">
        <ele>442.40</ele>
        <time>2016-10-22T05:25:12Z</time>
      </trkpt>
      <trkpt lat="42.474582000" lon="-2.493574000">
        <ele>442.50</ele>
        <time>2016-10-22T05:25:13Z</time>
      </trkpt>
      <trkpt lat="42.474567000" lon="-2.493614000">
        <ele>442.50</ele>
        <time>2016-10-22T05:25:14Z</time>
      </trkpt>
      <trkpt lat="42.474552000" lon="-2.493652000">
        <ele>442.60</ele>
        <time>2016-10-22T05:25:15Z</time>
      </trkpt>
      <trkpt lat="42.474512000" lon="-2.493728000">
        <ele>442.60</ele>
        <time>2016-10-22T05:25:17Z</time>
      </trkpt>
      <trkpt lat="42.474491000" lon="-2.493765000">
        <ele>442.70</ele>
        <time>2016-10-22T05:25:18Z</time>
      </trkpt>
      <trkpt lat="42.474468000" lon="-2.493803000">
        <ele>442.80</ele>
        <time>2016-10-22T05:25:19Z</time>
      </trkpt>
      <trkpt lat="42.474447000" lon="-2.493838000">
        <ele>442.80</ele>
        <time>2016-10-22T05:25:20Z</time>
      </trkpt>
      <trkpt lat="42.474426000" lon="-2.493875000">
        <ele>442.90</ele>
        <time>2016-10-22T05:25:21Z</time>
      </trkpt>
      <trkpt lat="42.474406000" lon="-2.493915000">
        <ele>442.90</ele>
        <time>2016-10-22T05:25:22Z</time>
      </trkpt>
      <trkpt lat="42.474388000" lon="-2.493954000">
        <ele>442.90</ele>
        <time>2016-10-22T05:25:23Z</time>
      </trkpt>
      <trkpt lat="42.474370000" lon="-2.493996000">
        <ele>442.90</ele>
        <time>2016-10-22T05:25:24Z</time>
      </trkpt>
      <trkpt lat="42.474356000" lon="-2.494036000">
        <ele>443.00</ele>
        <time>2016-10-22T05:25:25Z</time>
      </trkpt>
      <trkpt lat="42.474339000" lon="-2.494077000">
        <ele>443.00</ele>
        <time>2016-10-22T05:25:26Z</time>
      </trkpt>
      <trkpt lat="42.474326000" lon="-2.494119000">
        <ele>443.00</ele>
        <time>2016-10-22T05:25:27Z</time>
      </trkpt>
      <trkpt lat="42.474311000" lon="-2.494162000">
        <ele>443.10</ele>
        <time>2016-10-22T05:25:28Z</time>
      </trkpt>
      <trkpt lat="42.474298000" lon="-2.494203000">
        <ele>443.20</ele>
        <time>2016-10-22T05:25:29Z</time>
      </trkpt>
      <trkpt lat="42.474283000" lon="-2.494241000">
        <ele>443.20</ele>
        <time>2016-10-22T05:25:30Z</time>
      </trkpt>
      <trkpt lat="42.474268000" lon="-2.494281000">
        <ele>443.30</ele>
        <time>2016-10-22T05:25:31Z</time>
      </trkpt>
      <trkpt lat="42.474254000" lon="-2.494320000">
        <ele>443.40</ele>
        <time>2016-10-22T05:25:32Z</time>
      </trkpt>
      <trkpt lat="42.474241000" lon="-2.494360000">
        <ele>443.60</ele>
        <time>2016-10-22T05:25:33Z</time>
      </trkpt>
      <trkpt lat="42.474228000" lon="-2.494401000">
        <ele>443.70</ele>
        <time>2016-10-22T05:25:34Z</time>
      </trkpt>
      <trkpt lat="42.474216000" lon="-2.494442000">
        <ele>443.70</ele>
        <time>2016-10-22T05:25:35Z</time>
      </trkpt>
      <trkpt lat="42.474208000" lon="-2.494485000">
        <ele>443.90</ele>
        <time>2016-10-22T05:25:36Z</time>
      </trkpt>
      <trkpt lat="42.474198000" lon="-2.494529000">
        <ele>444.10</ele>
        <time>2016-10-22T05:25:37Z</time>
      </trkpt>
      <trkpt lat="42.474187000" lon="-2.494571000">
        <ele>444.20</ele>
        <time>2016-10-22T05:25:38Z</time>
      </trkpt>
      <trkpt lat="42.474182000" lon="-2.494613000">
        <ele>444.20</ele>
        <time>2016-10-22T05:25:39Z</time>
      </trkpt>
      <trkpt lat="42.474174000" lon="-2.494656000">
        <ele>444.20</ele>
        <time>2016-10-22T05:25:40Z</time>
      </trkpt>
      <trkpt lat="42.474167000" lon="-2.494699000">
        <ele>444.10</ele>
        <time>2016-10-22T05:25:41Z</time>
      </trkpt>
      <trkpt lat="42.474158000" lon="-2.494742000">
        <ele>444.10</ele>
        <time>2016-10-22T05:25:42Z</time>
      </trkpt>
      <trkpt lat="42.474150000" lon="-2.494787000">
        <ele>444.00</ele>
        <time>2016-10-22T05:25:43Z</time>
      </trkpt>
      <trkpt lat="42.474142000" lon="-2.494831000">
        <ele>444.20</ele>
        <time>2016-10-22T05:25:44Z</time>
      </trkpt>
      <trkpt lat="42.474135000" lon="-2.494874000">
        <ele>444.30</ele>
        <time>2016-10-22T05:25:45Z</time>
      </trkpt>
      <trkpt lat="42.474126000" lon="-2.494917000">
        <ele>444.50</ele>
        <time>2016-10-22T05:25:46Z</time>
      </trkpt>
      <trkpt lat="42.474118000" lon="-2.494959000">
        <ele>444.60</ele>
        <time>2016-10-22T05:25:47Z</time>
      </trkpt>
      <trkpt lat="42.474110000" lon="-2.495002000">
        <ele>444.70</ele>
        <time>2016-10-22T05:25:48Z</time>
      </trkpt>
      <trkpt lat="42.474102000" lon="-2.495045000">
        <ele>444.70</ele>
        <time>2016-10-22T05:25:49Z</time>
      </trkpt>
      <trkpt lat="42.474095000" lon="-2.495094000">
        <ele>444.80</ele>
        <time>2016-10-22T05:25:50Z</time>
      </trkpt>
      <trkpt lat="42.474084000" lon="-2.495138000">
        <ele>444.80</ele>
        <time>2016-10-22T05:25:51Z</time>
      </trkpt>
      <trkpt lat="42.474079000" lon="-2.495181000">
        <ele>444.90</ele>
        <time>2016-10-22T05:25:52Z</time>
      </trkpt>
      <trkpt lat="42.474069000" lon="-2.495227000">
        <ele>445.00</ele>
        <time>2016-10-22T05:25:53Z</time>
      </trkpt>
      <trkpt lat="42.474059000" lon="-2.495276000">
        <ele>445.00</ele>
        <time>2016-10-22T05:25:54Z</time>
      </trkpt>
      <trkpt lat="42.474048000" lon="-2.495322000">
        <ele>445.10</ele>
        <time>2016-10-22T05:25:55Z</time>
      </trkpt>
      <trkpt lat="42.474040000" lon="-2.495367000">
        <ele>445.10</ele>
        <time>2016-10-22T05:25:56Z</time>
      </trkpt>
      <trkpt lat="42.474034000" lon="-2.495414000">
        <ele>445.10</ele>
        <time>2016-10-22T05:25:57Z</time>
      </trkpt>
      <trkpt lat="42.474027000" lon="-2.495459000">
        <ele>445.10</ele>
        <time>2016-10-22T05:25:58Z</time>
      </trkpt>
      <trkpt lat="42.474021000" lon="-2.495505000">
        <ele>445.10</ele>
        <time>2016-10-22T05:25:59Z</time>
      </trkpt>
      <trkpt lat="42.474016000" lon="-2.495552000">
        <ele>445.10</ele>
        <time>2016-10-22T05:26:00Z</time>
      </trkpt>
      <trkpt lat="42.474009000" lon="-2.495598000">
        <ele>445.20</ele>
        <time>2016-10-22T05:26:01Z</time>
      </trkpt>
      <trkpt lat="42.474004000" lon="-2.495647000">
        <ele>445.30</ele>
        <time>2016-10-22T05:26:02Z</time>
      </trkpt>
      <trkpt lat="42.473999000" lon="-2.495692000">
        <ele>445.40</ele>
        <time>2016-10-22T05:26:03Z</time>
      </trkpt>
      <trkpt lat="42.473997000" lon="-2.495739000">
        <ele>445.40</ele>
        <time>2016-10-22T05:26:04Z</time>
      </trkpt>
      <trkpt lat="42.473993000" lon="-2.495783000">
        <ele>445.50</ele>
        <time>2016-10-22T05:26:05Z</time>
      </trkpt>
      <trkpt lat="42.473991000" lon="-2.495830000">
        <ele>445.60</ele>
        <time>2016-10-22T05:26:06Z</time>
      </trkpt>
      <trkpt lat="42.473988000" lon="-2.495879000">
        <ele>445.80</ele>
        <time>2016-10-22T05:26:07Z</time>
      </trkpt>
      <trkpt lat="42.473986000" lon="-2.495925000">
        <ele>446.00</ele>
        <time>2016-10-22T05:26:08Z</time>
      </trkpt>
      <trkpt lat="42.473985000" lon="-2.495969000">
        <ele>446.10</ele>
        <time>2016-10-22T05:26:09Z</time>
      </trkpt>
      <trkpt lat="42.473984000" lon="-2.496015000">
        <ele>446.10</ele>
        <time>2016-10-22T05:26:10Z</time>
      </trkpt>
      <trkpt lat="42.473983000" lon="-2.496058000">
        <ele>446.10</ele>
        <time>2016-10-22T05:26:11Z</time>
      </trkpt>
      <trkpt lat="42.473987000" lon="-2.496102000">
        <ele>446.10</ele>
        <time>2016-10-22T05:26:12Z</time>
      </trkpt>
      <trkpt lat="42.473994000" lon="-2.496145000">
        <ele>446.10</ele>
        <time>2016-10-22T05:26:13Z</time>
      </trkpt>
      <trkpt lat="42.474000000" lon="-2.496191000">
        <ele>446.10</ele>
        <time>2016-10-22T05:26:14Z</time>
      </trkpt>
      <trkpt lat="42.474004000" lon="-2.496236000">
        <ele>446.10</ele>
        <time>2016-10-22T05:26:15Z</time>
      </trkpt>
      <trkpt lat="42.474011000" lon="-2.496280000">
        <ele>446.10</ele>
        <time>2016-10-22T05:26:16Z</time>
      </trkpt>
      <trkpt lat="42.474027000" lon="-2.496368000">
        <ele>446.20</ele>
        <time>2016-10-22T05:26:18Z</time>
      </trkpt>
      <trkpt lat="42.474037000" lon="-2.496408000">
        <ele>446.20</ele>
        <time>2016-10-22T05:26:19Z</time>
      </trkpt>
      <trkpt lat="42.474045000" lon="-2.496447000">
        <ele>446.30</ele>
        <time>2016-10-22T05:26:20Z</time>
      </trkpt>
      <trkpt lat="42.474057000" lon="-2.496482000">
        <ele>446.30</ele>
        <time>2016-10-22T05:26:21Z</time>
      </trkpt>
      <trkpt lat="42.474069000" lon="-2.496522000">
        <ele>446.30</ele>
        <time>2016-10-22T05:26:22Z</time>
      </trkpt>
      <trkpt lat="42.474079000" lon="-2.496561000">
        <ele>446.30</ele>
        <time>2016-10-22T05:26:23Z</time>
      </trkpt>
      <trkpt lat="42.474089000" lon="-2.496601000">
        <ele>446.60</ele>
        <time>2016-10-22T05:26:24Z</time>
      </trkpt>
      <trkpt lat="42.474099000" lon="-2.496641000">
        <ele>446.80</ele>
        <time>2016-10-22T05:26:25Z</time>
      </trkpt>
      <trkpt lat="42.474110000" lon="-2.496682000">
        <ele>447.00</ele>
        <time>2016-10-22T05:26:26Z</time>
      </trkpt>
      <trkpt lat="42.474122000" lon="-2.496724000">
        <ele>447.10</ele>
        <time>2016-10-22T05:26:27Z</time>
      </trkpt>
      <trkpt lat="42.474138000" lon="-2.496765000">
        <ele>447.20</ele>
        <time>2016-10-22T05:26:28Z</time>
      </trkpt>
      <trkpt lat="42.474150000" lon="-2.496804000">
        <ele>447.20</ele>
        <time>2016-10-22T05:26:29Z</time>
      </trkpt>
      <trkpt lat="42.474165000" lon="-2.496844000">
        <ele>447.40</ele>
        <time>2016-10-22T05:26:30Z</time>
      </trkpt>
      <trkpt lat="42.474180000" lon="-2.496885000">
        <ele>447.50</ele>
        <time>2016-10-22T05:26:31Z</time>
      </trkpt>
      <trkpt lat="42.474196000" lon="-2.496924000">
        <ele>447.70</ele>
        <time>2016-10-22T05:26:32Z</time>
      </trkpt>
      <trkpt lat="42.474213000" lon="-2.496963000">
        <ele>447.90</ele>
        <time>2016-10-22T05:26:33Z</time>
      </trkpt>
      <trkpt lat="42.474229000" lon="-2.497002000">
        <ele>448.00</ele>
        <time>2016-10-22T05:26:34Z</time>
      </trkpt>
      <trkpt lat="42.474246000" lon="-2.497038000">
        <ele>448.10</ele>
        <time>2016-10-22T05:26:35Z</time>
      </trkpt>
      <trkpt lat="42.474262000" lon="-2.497075000">
        <ele>448.20</ele>
        <time>2016-10-22T05:26:36Z</time>
      </trkpt>
      <trkpt lat="42.474277000" lon="-2.497113000">
        <ele>448.20</ele>
        <time>2016-10-22T05:26:37Z</time>
      </trkpt>
      <trkpt lat="42.474294000" lon="-2.497147000">
        <ele>448.30</ele>
        <time>2016-10-22T05:26:38Z</time>
      </trkpt>
      <trkpt lat="42.474313000" lon="-2.497184000">
        <ele>448.40</ele>
        <time>2016-10-22T05:26:39Z</time>
      </trkpt>
      <trkpt lat="42.474332000" lon="-2.497225000">
        <ele>448.60</ele>
        <time>2016-10-22T05:26:40Z</time>
      </trkpt>
      <trkpt lat="42.474351000" lon="-2.497259000">
        <ele>448.80</ele>
        <time>2016-10-22T05:26:41Z</time>
      </trkpt>
      <trkpt lat="42.474372000" lon="-2.497298000">
        <ele>448.90</ele>
        <time>2016-10-22T05:26:42Z</time>
      </trkpt>
      <trkpt lat="42.474393000" lon="-2.497334000">
        <ele>448.90</ele>
        <time>2016-10-22T05:26:43Z</time>
      </trkpt>
      <trkpt lat="42.474413000" lon="-2.497366000">
        <ele>448.90</ele>
        <time>2016-10-22T05:26:44Z</time>
      </trkpt>
      <trkpt lat="42.474432000" lon="-2.497397000">
        <ele>448.90</ele>
        <time>2016-10-22T05:26:45Z</time>
      </trkpt>
      <trkpt lat="42.474456000" lon="-2.497432000">
        <ele>448.90</ele>
        <time>2016-10-22T05:26:46Z</time>
      </trkpt>
      <trkpt lat="42.474477000" lon="-2.497463000">
        <ele>448.90</ele>
        <time>2016-10-22T05:26:47Z</time>
      </trkpt>
      <trkpt lat="42.474500000" lon="-2.497488000">
        <ele>448.90</ele>
        <time>2016-10-22T05:26:48Z</time>
      </trkpt>
      <trkpt lat="42.474526000" lon="-2.497512000">
        <ele>448.90</ele>
        <time>2016-10-22T05:26:49Z</time>
      </trkpt>
      <trkpt lat="42.474551000" lon="-2.497538000">
        <ele>449.20</ele>
        <time>2016-10-22T05:26:50Z</time>
      </trkpt>
      <trkpt lat="42.474578000" lon="-2.497563000">
        <ele>449.30</ele>
        <time>2016-10-22T05:26:51Z</time>
      </trkpt>
      <trkpt lat="42.474602000" lon="-2.497584000">
        <ele>449.50</ele>
        <time>2016-10-22T05:26:52Z</time>
      </trkpt>
      <trkpt lat="42.474626000" lon="-2.497609000">
        <ele>449.70</ele>
        <time>2016-10-22T05:26:53Z</time>
      </trkpt>
      <trkpt lat="42.474651000" lon="-2.497633000">
        <ele>449.90</ele>
        <time>2016-10-22T05:26:54Z</time>
      </trkpt>
      <trkpt lat="42.474673000" lon="-2.497654000">
        <ele>450.00</ele>
        <time>2016-10-22T05:26:55Z</time>
      </trkpt>
      <trkpt lat="42.474698000" lon="-2.497672000">
        <ele>450.10</ele>
        <time>2016-10-22T05:26:56Z</time>
      </trkpt>
      <trkpt lat="42.474724000" lon="-2.497698000">
        <ele>450.20</ele>
        <time>2016-10-22T05:26:57Z</time>
      </trkpt>
      <trkpt lat="42.474751000" lon="-2.497723000">
        <ele>450.20</ele>
        <time>2016-10-22T05:26:58Z</time>
      </trkpt>
      <trkpt lat="42.474776000" lon="-2.497744000">
        <ele>450.30</ele>
        <time>2016-10-22T05:26:59Z</time>
      </trkpt>
      <trkpt lat="42.474799000" lon="-2.497768000">
        <ele>450.30</ele>
        <time>2016-10-22T05:27:00Z</time>
      </trkpt>
      <trkpt lat="42.474821000" lon="-2.497790000">
        <ele>450.30</ele>
        <time>2016-10-22T05:27:01Z</time>
      </trkpt>
      <trkpt lat="42.474844000" lon="-2.497812000">
        <ele>450.40</ele>
        <time>2016-10-22T05:27:02Z</time>
      </trkpt>
      <trkpt lat="42.474868000" lon="-2.497833000">
        <ele>450.50</ele>
        <time>2016-10-22T05:27:03Z</time>
      </trkpt>
      <trkpt lat="42.474893000" lon="-2.497857000">
        <ele>450.70</ele>
        <time>2016-10-22T05:27:04Z</time>
      </trkpt>
      <trkpt lat="42.474917000" lon="-2.497883000">
        <ele>450.90</ele>
        <time>2016-10-22T05:27:05Z</time>
      </trkpt>
      <trkpt lat="42.474942000" lon="-2.497911000">
        <ele>451.00</ele>
        <time>2016-10-22T05:27:06Z</time>
      </trkpt>
      <trkpt lat="42.474964000" lon="-2.497938000">
        <ele>451.10</ele>
        <time>2016-10-22T05:27:07Z</time>
      </trkpt>
      <trkpt lat="42.474989000" lon="-2.497962000">
        <ele>451.20</ele>
        <time>2016-10-22T05:27:08Z</time>
      </trkpt>
      <trkpt lat="42.475012000" lon="-2.497986000">
        <ele>451.30</ele>
        <time>2016-10-22T05:27:09Z</time>
      </trkpt>
      <trkpt lat="42.475033000" lon="-2.498007000">
        <ele>451.40</ele>
        <time>2016-10-22T05:27:10Z</time>
      </trkpt>
      <trkpt lat="42.475054000" lon="-2.498031000">
        <ele>451.50</ele>
        <time>2016-10-22T05:27:11Z</time>
      </trkpt>
      <trkpt lat="42.475078000" lon="-2.498054000">
        <ele>451.50</ele>
        <time>2016-10-22T05:27:12Z</time>
      </trkpt>
      <trkpt lat="42.475100000" lon="-2.498078000">
        <ele>451.50</ele>
        <time>2016-10-22T05:27:13Z</time>
      </trkpt>
      <trkpt lat="42.475120000" lon="-2.498102000">
        <ele>451.60</ele>
        <time>2016-10-22T05:27:14Z</time>
      </trkpt>
      <trkpt lat="42.475143000" lon="-2.498126000">
        <ele>451.60</ele>
        <time>2016-10-22T05:27:15Z</time>
      </trkpt>
      <trkpt lat="42.475167000" lon="-2.498147000">
        <ele>451.80</ele>
        <time>2016-10-22T05:27:16Z</time>
      </trkpt>
      <trkpt lat="42.475190000" lon="-2.498168000">
        <ele>451.90</ele>
        <time>2016-10-22T05:27:17Z</time>
      </trkpt>
      <trkpt lat="42.475214000" lon="-2.498191000">
        <ele>452.10</ele>
        <time>2016-10-22T05:27:18Z</time>
      </trkpt>
      <trkpt lat="42.475264000" lon="-2.498231000">
        <ele>452.30</ele>
        <time>2016-10-22T05:27:20Z</time>
      </trkpt>
      <trkpt lat="42.475288000" lon="-2.498253000">
        <ele>452.30</ele>
        <time>2016-10-22T05:27:21Z</time>
      </trkpt>
      <trkpt lat="42.475314000" lon="-2.498268000">
        <ele>452.50</ele>
        <time>2016-10-22T05:27:22Z</time>
      </trkpt>
      <trkpt lat="42.475339000" lon="-2.498287000">
        <ele>452.60</ele>
        <time>2016-10-22T05:27:23Z</time>
      </trkpt>
      <trkpt lat="42.475363000" lon="-2.498302000">
        <ele>452.60</ele>
        <time>2016-10-22T05:27:24Z</time>
      </trkpt>
      <trkpt lat="42.475389000" lon="-2.498315000">
        <ele>452.70</ele>
        <time>2016-10-22T05:27:25Z</time>
      </trkpt>
      <trkpt lat="42.475416000" lon="-2.498329000">
        <ele>452.80</ele>
        <time>2016-10-22T05:27:26Z</time>
      </trkpt>
      <trkpt lat="42.475442000" lon="-2.498343000">
        <ele>452.90</ele>
        <time>2016-10-22T05:27:27Z</time>
      </trkpt>
      <trkpt lat="42.475467000" lon="-2.498356000">
        <ele>453.00</ele>
        <time>2016-10-22T05:27:28Z</time>
      </trkpt>
      <trkpt lat="42.475492000" lon="-2.498368000">
        <ele>453.10</ele>
        <time>2016-10-22T05:27:29Z</time>
      </trkpt>
      <trkpt lat="42.475517000" lon="-2.498378000">
        <ele>453.40</ele>
        <time>2016-10-22T05:27:30Z</time>
      </trkpt>
      <trkpt lat="42.475541000" lon="-2.498387000">
        <ele>453.60</ele>
        <time>2016-10-22T05:27:31Z</time>
      </trkpt>
      <trkpt lat="42.475566000" lon="-2.498395000">
        <ele>453.70</ele>
        <time>2016-10-22T05:27:32Z</time>
      </trkpt>
      <trkpt lat="42.475593000" lon="-2.498405000">
        <ele>453.80</ele>
        <time>2016-10-22T05:27:33Z</time>
      </trkpt>
      <trkpt lat="42.475620000" lon="-2.498418000">
        <ele>454.00</ele>
        <time>2016-10-22T05:27:34Z</time>
      </trkpt>
      <trkpt lat="42.475646000" lon="-2.498430000">
        <ele>454.10</ele>
        <time>2016-10-22T05:27:35Z</time>
      </trkpt>
      <trkpt lat="42.475673000" lon="-2.498441000">
        <ele>454.30</ele>
        <time>2016-10-22T05:27:36Z</time>
      </trkpt>
      <trkpt lat="42.475698000" lon="-2.498452000">
        <ele>454.40</ele>
        <time>2016-10-22T05:27:37Z</time>
      </trkpt>
      <trkpt lat="42.475725000" lon="-2.498463000">
        <ele>454.50</ele>
        <time>2016-10-22T05:27:38Z</time>
      </trkpt>
      <trkpt lat="42.475751000" lon="-2.498477000">
        <ele>454.60</ele>
        <time>2016-10-22T05:27:39Z</time>
      </trkpt>
      <trkpt lat="42.475776000" lon="-2.498494000">
        <ele>454.70</ele>
        <time>2016-10-22T05:27:40Z</time>
      </trkpt>
      <trkpt lat="42.475802000" lon="-2.498506000">
        <ele>454.70</ele>
        <time>2016-10-22T05:27:41Z</time>
      </trkpt>
      <trkpt lat="42.475829000" lon="-2.498517000">
        <ele>454.80</ele>
        <time>2016-10-22T05:27:42Z</time>
      </trkpt>
      <trkpt lat="42.475855000" lon="-2.498534000">
        <ele>454.90</ele>
        <time>2016-10-22T05:27:43Z</time>
      </trkpt>
      <trkpt lat="42.475882000" lon="-2.498547000">
        <ele>455.10</ele>
        <time>2016-10-22T05:27:44Z</time>
      </trkpt>
      <trkpt lat="42.475908000" lon="-2.498560000">
        <ele>455.30</ele>
        <time>2016-10-22T05:27:45Z</time>
      </trkpt>
      <trkpt lat="42.475935000" lon="-2.498574000">
        <ele>455.50</ele>
        <time>2016-10-22T05:27:46Z</time>
      </trkpt>
      <trkpt lat="42.475960000" lon="-2.498588000">
        <ele>455.60</ele>
        <time>2016-10-22T05:27:47Z</time>
      </trkpt>
      <trkpt lat="42.475985000" lon="-2.498603000">
        <ele>455.70</ele>
        <time>2016-10-22T05:27:48Z</time>
      </trkpt>
      <trkpt lat="42.476010000" lon="-2.498617000">
        <ele>455.70</ele>
        <time>2016-10-22T05:27:49Z</time>
      </trkpt>
      <trkpt lat="42.476036000" lon="-2.498632000">
        <ele>455.90</ele>
        <time>2016-10-22T05:27:50Z</time>
      </trkpt>
      <trkpt lat="42.476063000" lon="-2.498643000">
        <ele>456.00</ele>
        <time>2016-10-22T05:27:51Z</time>
      </trkpt>
      <trkpt lat="42.476090000" lon="-2.498658000">
        <ele>456.00</ele>
        <time>2016-10-22T05:27:52Z</time>
      </trkpt>
      <trkpt lat="42.476116000" lon="-2.498670000">
        <ele>455.90</ele>
        <time>2016-10-22T05:27:53Z</time>
      </trkpt>
      <trkpt lat="42.476139000" lon="-2.498681000">
        <ele>456.20</ele>
        <time>2016-10-22T05:27:54Z</time>
      </trkpt>
      <trkpt lat="42.476164000" lon="-2.498694000">
        <ele>456.30</ele>
        <time>2016-10-22T05:27:55Z</time>
      </trkpt>
      <trkpt lat="42.476188000" lon="-2.498706000">
        <ele>456.50</ele>
        <time>2016-10-22T05:27:56Z</time>
      </trkpt>
      <trkpt lat="42.476213000" lon="-2.498713000">
        <ele>456.60</ele>
        <time>2016-10-22T05:27:57Z</time>
      </trkpt>
      <trkpt lat="42.476239000" lon="-2.498723000">
        <ele>456.60</ele>
        <time>2016-10-22T05:27:58Z</time>
      </trkpt>
      <trkpt lat="42.476266000" lon="-2.498733000">
        <ele>456.70</ele>
        <time>2016-10-22T05:27:59Z</time>
      </trkpt>
      <trkpt lat="42.476288000" lon="-2.498746000">
        <ele>456.80</ele>
        <time>2016-10-22T05:28:00Z</time>
      </trkpt>
      <trkpt lat="42.476313000" lon="-2.498756000">
        <ele>456.80</ele>
        <time>2016-10-22T05:28:01Z</time>
      </trkpt>
      <trkpt lat="42.476339000" lon="-2.498766000">
        <ele>456.90</ele>
        <time>2016-10-22T05:28:02Z</time>
      </trkpt>
      <trkpt lat="42.476364000" lon="-2.498777000">
        <ele>456.90</ele>
        <time>2016-10-22T05:28:03Z</time>
      </trkpt>
      <trkpt lat="42.476390000" lon="-2.498785000">
        <ele>457.00</ele>
        <time>2016-10-22T05:28:04Z</time>
      </trkpt>
      <trkpt lat="42.476416000" lon="-2.498797000">
        <ele>457.10</ele>
        <time>2016-10-22T05:28:05Z</time>
      </trkpt>
      <trkpt lat="42.476442000" lon="-2.498809000">
        <ele>457.30</ele>
        <time>2016-10-22T05:28:06Z</time>
      </trkpt>
      <trkpt lat="42.476466000" lon="-2.498817000">
        <ele>457.40</ele>
        <time>2016-10-22T05:28:07Z</time>
      </trkpt>
      <trkpt lat="42.476489000" lon="-2.498825000">
        <ele>457.70</ele>
        <time>2016-10-22T05:28:08Z</time>
      </trkpt>
      <trkpt lat="42.476513000" lon="-2.498834000">
        <ele>457.90</ele>
        <time>2016-10-22T05:28:09Z</time>
      </trkpt>
      <trkpt lat="42.476537000" lon="-2.498846000">
        <ele>458.10</ele>
        <time>2016-10-22T05:28:10Z</time>
      </trkpt>
      <trkpt lat="42.476563000" lon="-2.498855000">
        <ele>458.20</ele>
        <time>2016-10-22T05:28:11Z</time>
      </trkpt>
      <trkpt lat="42.476590000" lon="-2.498865000">
        <ele>458.30</ele>
        <time>2016-10-22T05:28:12Z</time>
      </trkpt>
      <trkpt lat="42.476616000" lon="-2.498875000">
        <ele>458.40</ele>
        <time>2016-10-22T05:28:13Z</time>
      </trkpt>
      <trkpt lat="42.476642000" lon="-2.498883000">
        <ele>458.40</ele>
        <time>2016-10-22T05:28:14Z</time>
      </trkpt>
      <trkpt lat="42.476668000" lon="-2.498892000">
        <ele>458.50</ele>
        <time>2016-10-22T05:28:15Z</time>
      </trkpt>
      <trkpt lat="42.476693000" lon="-2.498901000">
        <ele>458.50</ele>
        <time>2016-10-22T05:28:16Z</time>
      </trkpt>
      <trkpt lat="42.476720000" lon="-2.498913000">
        <ele>458.60</ele>
        <time>2016-10-22T05:28:17Z</time>
      </trkpt>
      <trkpt lat="42.476747000" lon="-2.498924000">
        <ele>458.60</ele>
        <time>2016-10-22T05:28:18Z</time>
      </trkpt>
      <trkpt lat="42.476775000" lon="-2.498937000">
        <ele>458.70</ele>
        <time>2016-10-22T05:28:19Z</time>
      </trkpt>
      <trkpt lat="42.476800000" lon="-2.498948000">
        <ele>458.70</ele>
        <time>2016-10-22T05:28:20Z</time>
      </trkpt>
      <trkpt lat="42.476849000" lon="-2.498974000">
        <ele>458.80</ele>
        <time>2016-10-22T05:28:22Z</time>
      </trkpt>
      <trkpt lat="42.476874000" lon="-2.498986000">
        <ele>458.90</ele>
        <time>2016-10-22T05:28:23Z</time>
      </trkpt>
      <trkpt lat="42.476898000" lon="-2.498997000">
        <ele>459.00</ele>
        <time>2016-10-22T05:28:24Z</time>
      </trkpt>
      <trkpt lat="42.476923000" lon="-2.499010000">
        <ele>459.10</ele>
        <time>2016-10-22T05:28:25Z</time>
      </trkpt>
      <trkpt lat="42.476946000" lon="-2.499021000">
        <ele>459.10</ele>
        <time>2016-10-22T05:28:26Z</time>
      </trkpt>
      <trkpt lat="42.476970000" lon="-2.499033000">
        <ele>459.20</ele>
        <time>2016-10-22T05:28:27Z</time>
      </trkpt>
      <trkpt lat="42.476991000" lon="-2.499045000">
        <ele>459.30</ele>
        <time>2016-10-22T05:28:28Z</time>
      </trkpt>
      <trkpt lat="42.477016000" lon="-2.499056000">
        <ele>459.50</ele>
        <time>2016-10-22T05:28:29Z</time>
      </trkpt>
      <trkpt lat="42.477037000" lon="-2.499073000">
        <ele>459.60</ele>
        <time>2016-10-22T05:28:30Z</time>
      </trkpt>
      <trkpt lat="42.477062000" lon="-2.499087000">
        <ele>459.60</ele>
        <time>2016-10-22T05:28:31Z</time>
      </trkpt>
      <trkpt lat="42.477088000" lon="-2.499104000">
        <ele>459.70</ele>
        <time>2016-10-22T05:28:32Z</time>
      </trkpt>
      <trkpt lat="42.477114000" lon="-2.499120000">
        <ele>459.70</ele>
        <time>2016-10-22T05:28:33Z</time>
      </trkpt>
      <trkpt lat="42.477141000" lon="-2.499133000">
        <ele>460.00</ele>
        <time>2016-10-22T05:28:34Z</time>
      </trkpt>
      <trkpt lat="42.477164000" lon="-2.499146000">
        <ele>460.20</ele>
        <time>2016-10-22T05:28:35Z</time>
      </trkpt>
      <trkpt lat="42.477191000" lon="-2.499165000">
        <ele>460.40</ele>
        <time>2016-10-22T05:28:36Z</time>
      </trkpt>
      <trkpt lat="42.477218000" lon="-2.499185000">
        <ele>460.50</ele>
        <time>2016-10-22T05:28:37Z</time>
      </trkpt>
      <trkpt lat="42.477241000" lon="-2.499204000">
        <ele>460.60</ele>
        <time>2016-10-22T05:28:38Z</time>
      </trkpt>
      <trkpt lat="42.477264000" lon="-2.499225000">
        <ele>460.70</ele>
        <time>2016-10-22T05:28:39Z</time>
      </trkpt>
      <trkpt lat="42.477286000" lon="-2.499247000">
        <ele>460.80</ele>
        <time>2016-10-22T05:28:40Z</time>
      </trkpt>
      <trkpt lat="42.477309000" lon="-2.499271000">
        <ele>460.80</ele>
        <time>2016-10-22T05:28:41Z</time>
      </trkpt>
      <trkpt lat="42.477329000" lon="-2.499296000">
        <ele>460.90</ele>
        <time>2016-10-22T05:28:42Z</time>
      </trkpt>
      <trkpt lat="42.477350000" lon="-2.499318000">
        <ele>460.90</ele>
        <time>2016-10-22T05:28:43Z</time>
      </trkpt>
      <trkpt lat="42.477369000" lon="-2.499343000">
        <ele>461.00</ele>
        <time>2016-10-22T05:28:44Z</time>
      </trkpt>
      <trkpt lat="42.477392000" lon="-2.499365000">
        <ele>461.10</ele>
        <time>2016-10-22T05:28:45Z</time>
      </trkpt>
      <trkpt lat="42.477410000" lon="-2.499391000">
        <ele>461.20</ele>
        <time>2016-10-22T05:28:46Z</time>
      </trkpt>
      <trkpt lat="42.477428000" lon="-2.499416000">
        <ele>461.20</ele>
        <time>2016-10-22T05:28:47Z</time>
      </trkpt>
      <trkpt lat="42.477446000" lon="-2.499440000">
        <ele>461.20</ele>
        <time>2016-10-22T05:28:48Z</time>
      </trkpt>
      <trkpt lat="42.477466000" lon="-2.499468000">
        <ele>461.30</ele>
        <time>2016-10-22T05:28:49Z</time>
      </trkpt>
      <trkpt lat="42.477483000" lon="-2.499496000">
        <ele>461.40</ele>
        <time>2016-10-22T05:28:50Z</time>
      </trkpt>
      <trkpt lat="42.477502000" lon="-2.499523000">
        <ele>461.50</ele>
        <time>2016-10-22T05:28:51Z</time>
      </trkpt>
      <trkpt lat="42.477520000" lon="-2.499553000">
        <ele>461.60</ele>
        <time>2016-10-22T05:28:52Z</time>
      </trkpt>
      <trkpt lat="42.477538000" lon="-2.499581000">
        <ele>461.70</ele>
        <time>2016-10-22T05:28:53Z</time>
      </trkpt>
      <trkpt lat="42.477556000" lon="-2.499604000">
        <ele>461.70</ele>
        <time>2016-10-22T05:28:54Z</time>
      </trkpt>
      <trkpt lat="42.477578000" lon="-2.499628000">
        <ele>461.70</ele>
        <time>2016-10-22T05:28:55Z</time>
      </trkpt>
      <trkpt lat="42.477600000" lon="-2.499652000">
        <ele>461.80</ele>
        <time>2016-10-22T05:28:56Z</time>
      </trkpt>
      <trkpt lat="42.477622000" lon="-2.499674000">
        <ele>461.90</ele>
        <time>2016-10-22T05:28:57Z</time>
      </trkpt>
      <trkpt lat="42.477642000" lon="-2.499693000">
        <ele>462.00</ele>
        <time>2016-10-22T05:28:58Z</time>
      </trkpt>
      <trkpt lat="42.477663000" lon="-2.499718000">
        <ele>462.20</ele>
        <time>2016-10-22T05:28:59Z</time>
      </trkpt>
      <trkpt lat="42.477684000" lon="-2.499743000">
        <ele>462.30</ele>
        <time>2016-10-22T05:29:00Z</time>
      </trkpt>
      <trkpt lat="42.477702000" lon="-2.499767000">
        <ele>462.30</ele>
        <time>2016-10-22T05:29:01Z</time>
      </trkpt>
      <trkpt lat="42.477726000" lon="-2.499789000">
        <ele>462.50</ele>
        <time>2016-10-22T05:29:02Z</time>
      </trkpt>
      <trkpt lat="42.477750000" lon="-2.499811000">
        <ele>462.70</ele>
        <time>2016-10-22T05:29:03Z</time>
      </trkpt>
      <trkpt lat="42.477775000" lon="-2.499835000">
        <ele>462.80</ele>
        <time>2016-10-22T05:29:04Z</time>
      </trkpt>
      <trkpt lat="42.477798000" lon="-2.499857000">
        <ele>462.80</ele>
        <time>2016-10-22T05:29:05Z</time>
      </trkpt>
      <trkpt lat="42.477822000" lon="-2.499879000">
        <ele>462.90</ele>
        <time>2016-10-22T05:29:06Z</time>
      </trkpt>
      <trkpt lat="42.477846000" lon="-2.499897000">
        <ele>462.90</ele>
        <time>2016-10-22T05:29:07Z</time>
      </trkpt>
      <trkpt lat="42.477870000" lon="-2.499915000">
        <ele>463.00</ele>
        <time>2016-10-22T05:29:08Z</time>
      </trkpt>
      <trkpt lat="42.477894000" lon="-2.499935000">
        <ele>463.10</ele>
        <time>2016-10-22T05:29:09Z</time>
      </trkpt>
      <trkpt lat="42.477919000" lon="-2.499955000">
        <ele>463.10</ele>
        <time>2016-10-22T05:29:10Z</time>
      </trkpt>
      <trkpt lat="42.477946000" lon="-2.499973000">
        <ele>463.10</ele>
        <time>2016-10-22T05:29:11Z</time>
      </trkpt>
      <trkpt lat="42.477973000" lon="-2.499988000">
        <ele>463.30</ele>
        <time>2016-10-22T05:29:12Z</time>
      </trkpt>
      <trkpt lat="42.478001000" lon="-2.500003000">
        <ele>463.40</ele>
        <time>2016-10-22T05:29:13Z</time>
      </trkpt>
      <trkpt lat="42.478029000" lon="-2.500019000">
        <ele>463.50</ele>
        <time>2016-10-22T05:29:14Z</time>
      </trkpt>
      <trkpt lat="42.478057000" lon="-2.500039000">
        <ele>463.60</ele>
        <time>2016-10-22T05:29:15Z</time>
      </trkpt>
      <trkpt lat="42.478083000" lon="-2.500055000">
        <ele>463.70</ele>
        <time>2016-10-22T05:29:16Z</time>
      </trkpt>
      <trkpt lat="42.478110000" lon="-2.500064000">
        <ele>463.70</ele>
        <time>2016-10-22T05:29:17Z</time>
      </trkpt>
      <trkpt lat="42.478138000" lon="-2.500077000">
        <ele>463.90</ele>
        <time>2016-10-22T05:29:18Z</time>
      </trkpt>
      <trkpt lat="42.478169000" lon="-2.500088000">
        <ele>464.00</ele>
        <time>2016-10-22T05:29:19Z</time>
      </trkpt>
      <trkpt lat="42.478196000" lon="-2.500103000">
        <ele>464.00</ele>
        <time>2016-10-22T05:29:20Z</time>
      </trkpt>
      <trkpt lat="42.478225000" lon="-2.500112000">
        <ele>464.10</ele>
        <time>2016-10-22T05:29:21Z</time>
      </trkpt>
      <trkpt lat="42.478255000" lon="-2.500120000">
        <ele>464.20</ele>
        <time>2016-10-22T05:29:22Z</time>
      </trkpt>
      <trkpt lat="42.478315000" lon="-2.500134000">
        <ele>464.40</ele>
        <time>2016-10-22T05:29:24Z</time>
      </trkpt>
      <trkpt lat="42.478347000" lon="-2.500141000">
        <ele>464.40</ele>
        <time>2016-10-22T05:29:25Z</time>
      </trkpt>
      <trkpt lat="42.478378000" lon="-2.500146000">
        <ele>464.40</ele>
        <time>2016-10-22T05:29:26Z</time>
      </trkpt>
      <trkpt lat="42.478407000" lon="-2.500150000">
        <ele>464.50</ele>
        <time>2016-10-22T05:29:27Z</time>
      </trkpt>
      <trkpt lat="42.478440000" lon="-2.500150000">
        <ele>464.60</ele>
        <time>2016-10-22T05:29:28Z</time>
      </trkpt>
      <trkpt lat="42.478474000" lon="-2.500150000">
        <ele>464.60</ele>
        <time>2016-10-22T05:29:29Z</time>
      </trkpt>
      <trkpt lat="42.478507000" lon="-2.500152000">
        <ele>464.70</ele>
        <time>2016-10-22T05:29:30Z</time>
      </trkpt>
      <trkpt lat="42.478538000" lon="-2.500154000">
        <ele>464.70</ele>
        <time>2016-10-22T05:29:31Z</time>
      </trkpt>
      <trkpt lat="42.478569000" lon="-2.500157000">
        <ele>464.80</ele>
        <time>2016-10-22T05:29:32Z</time>
      </trkpt>
      <trkpt lat="42.478601000" lon="-2.500154000">
        <ele>464.80</ele>
        <time>2016-10-22T05:29:33Z</time>
      </trkpt>
      <trkpt lat="42.478635000" lon="-2.500153000">
        <ele>464.90</ele>
        <time>2016-10-22T05:29:34Z</time>
      </trkpt>
      <trkpt lat="42.478670000" lon="-2.500154000">
        <ele>465.00</ele>
        <time>2016-10-22T05:29:35Z</time>
      </trkpt>
      <trkpt lat="42.478705000" lon="-2.500151000">
        <ele>465.20</ele>
        <time>2016-10-22T05:29:36Z</time>
      </trkpt>
      <trkpt lat="42.478738000" lon="-2.500142000">
        <ele>465.40</ele>
        <time>2016-10-22T05:29:37Z</time>
      </trkpt>
      <trkpt lat="42.478770000" lon="-2.500140000">
        <ele>465.50</ele>
        <time>2016-10-22T05:29:38Z</time>
      </trkpt>
      <trkpt lat="42.478800000" lon="-2.500140000">
        <ele>465.60</ele>
        <time>2016-10-22T05:29:39Z</time>
      </trkpt>
      <trkpt lat="42.478830000" lon="-2.500139000">
        <ele>465.80</ele>
        <time>2016-10-22T05:29:40Z</time>
      </trkpt>
      <trkpt lat="42.478860000" lon="-2.500140000">
        <ele>465.90</ele>
        <time>2016-10-22T05:29:41Z</time>
      </trkpt>
      <trkpt lat="42.478889000" lon="-2.500143000">
        <ele>466.10</ele>
        <time>2016-10-22T05:29:42Z</time>
      </trkpt>
      <trkpt lat="42.478919000" lon="-2.500144000">
        <ele>466.10</ele>
        <time>2016-10-22T05:29:43Z</time>
      </trkpt>
      <trkpt lat="42.478948000" lon="-2.500144000">
        <ele>466.30</ele>
        <time>2016-10-22T05:29:44Z</time>
      </trkpt>
      <trkpt lat="42.478976000" lon="-2.500145000">
        <ele>466.40</ele>
        <time>2016-10-22T05:29:45Z</time>
      </trkpt>
      <trkpt lat="42.479005000" lon="-2.500144000">
        <ele>466.40</ele>
        <time>2016-10-22T05:29:46Z</time>
      </trkpt>
      <trkpt lat="42.479031000" lon="-2.500146000">
        <ele>466.50</ele>
        <time>2016-10-22T05:29:47Z</time>
      </trkpt>
      <trkpt lat="42.479058000" lon="-2.500150000">
        <ele>466.70</ele>
        <time>2016-10-22T05:29:48Z</time>
      </trkpt>
      <trkpt lat="42.479087000" lon="-2.500155000">
        <ele>466.90</ele>
        <time>2016-10-22T05:29:49Z</time>
      </trkpt>
      <trkpt lat="42.479115000" lon="-2.500157000">
        <ele>467.20</ele>
        <time>2016-10-22T05:29:50Z</time>
      </trkpt>
      <trkpt lat="42.479139000" lon="-2.500162000">
        <ele>467.40</ele>
        <time>2016-10-22T05:29:51Z</time>
      </trkpt>
      <trkpt lat="42.479167000" lon="-2.500170000">
        <ele>467.60</ele>
        <time>2016-10-22T05:29:52Z</time>
      </trkpt>
      <trkpt lat="42.479194000" lon="-2.500174000">
        <ele>467.70</ele>
        <time>2016-10-22T05:29:53Z</time>
      </trkpt>
      <trkpt lat="42.479222000" lon="-2.500178000">
        <ele>467.90</ele>
        <time>2016-10-22T05:29:54Z</time>
      </trkpt>
      <trkpt lat="42.479246000" lon="-2.500184000">
        <ele>468.10</ele>
        <time>2016-10-22T05:29:55Z</time>
      </trkpt>
      <trkpt lat="42.479269000" lon="-2.500185000">
        <ele>468.30</ele>
        <time>2016-10-22T05:29:56Z</time>
      </trkpt>
      <trkpt lat="42.479293000" lon="-2.500188000">
        <ele>468.40</ele>
        <time>2016-10-22T05:29:57Z</time>
      </trkpt>
      <trkpt lat="42.479316000" lon="-2.500187000">
        <ele>468.70</ele>
        <time>2016-10-22T05:29:58Z</time>
      </trkpt>
      <trkpt lat="42.479342000" lon="-2.500189000">
        <ele>468.90</ele>
        <time>2016-10-22T05:29:59Z</time>
      </trkpt>
      <trkpt lat="42.479365000" lon="-2.500193000">
        <ele>469.30</ele>
        <time>2016-10-22T05:30:00Z</time>
      </trkpt>
      <trkpt lat="42.479390000" lon="-2.500193000">
        <ele>469.60</ele>
        <time>2016-10-22T05:30:01Z</time>
      </trkpt>
      <trkpt lat="42.479416000" lon="-2.500195000">
        <ele>469.80</ele>
        <time>2016-10-22T05:30:02Z</time>
      </trkpt>
      <trkpt lat="42.479440000" lon="-2.500200000">
        <ele>470.00</ele>
        <time>2016-10-22T05:30:03Z</time>
      </trkpt>
      <trkpt lat="42.479465000" lon="-2.500200000">
        <ele>470.20</ele>
        <time>2016-10-22T05:30:04Z</time>
      </trkpt>
      <trkpt lat="42.479491000" lon="-2.500205000">
        <ele>470.30</ele>
        <time>2016-10-22T05:30:05Z</time>
      </trkpt>
      <trkpt lat="42.479516000" lon="-2.500211000">
        <ele>470.50</ele>
        <time>2016-10-22T05:30:06Z</time>
      </trkpt>
      <trkpt lat="42.479537000" lon="-2.500218000">
        <ele>470.70</ele>
        <time>2016-10-22T05:30:07Z</time>
      </trkpt>
      <trkpt lat="42.479558000" lon="-2.500226000">
        <ele>470.90</ele>
        <time>2016-10-22T05:30:08Z</time>
      </trkpt>
      <trkpt lat="42.479582000" lon="-2.500235000">
        <ele>471.10</ele>
        <time>2016-10-22T05:30:09Z</time>
      </trkpt>
      <trkpt lat="42.479603000" lon="-2.500247000">
        <ele>471.30</ele>
        <time>2016-10-22T05:30:10Z</time>
      </trkpt>
      <trkpt lat="42.479622000" lon="-2.500260000">
        <ele>471.50</ele>
        <time>2016-10-22T05:30:11Z</time>
      </trkpt>
      <trkpt lat="42.479639000" lon="-2.500279000">
        <ele>471.70</ele>
        <time>2016-10-22T05:30:12Z</time>
      </trkpt>
      <trkpt lat="42.479658000" lon="-2.500299000">
        <ele>471.80</ele>
        <time>2016-10-22T05:30:13Z</time>
      </trkpt>
      <trkpt lat="42.479674000" lon="-2.500318000">
        <ele>472.00</ele>
        <time>2016-10-22T05:30:14Z</time>
      </trkpt>
      <trkpt lat="42.479691000" lon="-2.500338000">
        <ele>472.20</ele>
        <time>2016-10-22T05:30:15Z</time>
      </trkpt>
      <trkpt lat="42.479707000" lon="-2.500357000">
        <ele>472.50</ele>
        <time>2016-10-22T05:30:16Z</time>
      </trkpt>
      <trkpt lat="42.479723000" lon="-2.500378000">
        <ele>472.60</ele>
        <time>2016-10-22T05:30:17Z</time>
      </trkpt>
      <trkpt lat="42.479735000" lon="-2.500399000">
        <ele>472.90</ele>
        <time>2016-10-22T05:30:18Z</time>
      </trkpt>
      <trkpt lat="42.479749000" lon="-2.500420000">
        <ele>473.10</ele>
        <time>2016-10-22T05:30:19Z</time>
      </trkpt>
      <trkpt lat="42.479761000" lon="-2.500444000">
        <ele>473.30</ele>
        <time>2016-10-22T05:30:20Z</time>
      </trkpt>
      <trkpt lat="42.479773000" lon="-2.500470000">
        <ele>473.40</ele>
        <time>2016-10-22T05:30:21Z</time>
      </trkpt>
      <trkpt lat="42.479786000" lon="-2.500493000">
        <ele>473.50</ele>
        <time>2016-10-22T05:30:22Z</time>
      </trkpt>
      <trkpt lat="42.479798000" lon="-2.500515000">
        <ele>473.60</ele>
        <time>2016-10-22T05:30:23Z</time>
      </trkpt>
      <trkpt lat="42.479809000" lon="-2.500542000">
        <ele>473.90</ele>
        <time>2016-10-22T05:30:24Z</time>
      </trkpt>
      <trkpt lat="42.479832000" lon="-2.500592000">
        <ele>474.20</ele>
        <time>2016-10-22T05:30:26Z</time>
      </trkpt>
      <trkpt lat="42.479841000" lon="-2.500618000">
        <ele>474.30</ele>
        <time>2016-10-22T05:30:27Z</time>
      </trkpt>
      <trkpt lat="42.479849000" lon="-2.500641000">
        <ele>474.40</ele>
        <time>2016-10-22T05:30:28Z</time>
      </trkpt>
      <trkpt lat="42.479859000" lon="-2.500666000">
        <ele>474.40</ele>
        <time>2016-10-22T05:30:29Z</time>
      </trkpt>
      <trkpt lat="42.479871000" lon="-2.500689000">
        <ele>474.70</ele>
        <time>2016-10-22T05:30:30Z</time>
      </trkpt>
      <trkpt lat="42.479885000" lon="-2.500714000">
        <ele>474.90</ele>
        <time>2016-10-22T05:30:31Z</time>
      </trkpt>
      <trkpt lat="42.479897000" lon="-2.500740000">
        <ele>475.20</ele>
        <time>2016-10-22T05:30:32Z</time>
      </trkpt>
      <trkpt lat="42.479910000" lon="-2.500761000">
        <ele>475.30</ele>
        <time>2016-10-22T05:30:33Z</time>
      </trkpt>
      <trkpt lat="42.479925000" lon="-2.500784000">
        <ele>475.50</ele>
        <time>2016-10-22T05:30:34Z</time>
      </trkpt>
      <trkpt lat="42.479938000" lon="-2.500807000">
        <ele>475.70</ele>
        <time>2016-10-22T05:30:35Z</time>
      </trkpt>
      <trkpt lat="42.479951000" lon="-2.500832000">
        <ele>475.80</ele>
        <time>2016-10-22T05:30:36Z</time>
      </trkpt>
      <trkpt lat="42.479965000" lon="-2.500856000">
        <ele>475.90</ele>
        <time>2016-10-22T05:30:37Z</time>
      </trkpt>
      <trkpt lat="42.479980000" lon="-2.500879000">
        <ele>476.00</ele>
        <time>2016-10-22T05:30:38Z</time>
      </trkpt>
      <trkpt lat="42.479995000" lon="-2.500905000">
        <ele>476.20</ele>
        <time>2016-10-22T05:30:39Z</time>
      </trkpt>
      <trkpt lat="42.480007000" lon="-2.500929000">
        <ele>476.30</ele>
        <time>2016-10-22T05:30:40Z</time>
      </trkpt>
      <trkpt lat="42.480019000" lon="-2.500952000">
        <ele>476.40</ele>
        <time>2016-10-22T05:30:41Z</time>
      </trkpt>
      <trkpt lat="42.480033000" lon="-2.500976000">
        <ele>476.60</ele>
        <time>2016-10-22T05:30:42Z</time>
      </trkpt>
      <trkpt lat="42.480047000" lon="-2.500998000">
        <ele>476.70</ele>
        <time>2016-10-22T05:30:43Z</time>
      </trkpt>
      <trkpt lat="42.480061000" lon="-2.501017000">
        <ele>477.00</ele>
        <time>2016-10-22T05:30:44Z</time>
      </trkpt>
      <trkpt lat="42.480079000" lon="-2.501036000">
        <ele>477.20</ele>
        <time>2016-10-22T05:30:45Z</time>
      </trkpt>
      <trkpt lat="42.480095000" lon="-2.501055000">
        <ele>477.50</ele>
        <time>2016-10-22T05:30:46Z</time>
      </trkpt>
      <trkpt lat="42.480114000" lon="-2.501076000">
        <ele>477.70</ele>
        <time>2016-10-22T05:30:47Z</time>
      </trkpt>
      <trkpt lat="42.480135000" lon="-2.501091000">
        <ele>477.90</ele>
        <time>2016-10-22T05:30:48Z</time>
      </trkpt>
      <trkpt lat="42.480159000" lon="-2.501110000">
        <ele>478.00</ele>
        <time>2016-10-22T05:30:49Z</time>
      </trkpt>
      <trkpt lat="42.480182000" lon="-2.501123000">
        <ele>478.10</ele>
        <time>2016-10-22T05:30:50Z</time>
      </trkpt>
      <trkpt lat="42.480207000" lon="-2.501137000">
        <ele>478.20</ele>
        <time>2016-10-22T05:30:51Z</time>
      </trkpt>
      <trkpt lat="42.480233000" lon="-2.501143000">
        <ele>478.60</ele>
        <time>2016-10-22T05:30:52Z</time>
      </trkpt>
      <trkpt lat="42.480257000" lon="-2.501152000">
        <ele>478.90</ele>
        <time>2016-10-22T05:30:53Z</time>
      </trkpt>
      <trkpt lat="42.480284000" lon="-2.501157000">
        <ele>479.10</ele>
        <time>2016-10-22T05:30:54Z</time>
      </trkpt>
      <trkpt lat="42.480311000" lon="-2.501158000">
        <ele>479.20</ele>
        <time>2016-10-22T05:30:55Z</time>
      </trkpt>
      <trkpt lat="42.480339000" lon="-2.501157000">
        <ele>479.30</ele>
        <time>2016-10-22T05:30:56Z</time>
      </trkpt>
      <trkpt lat="42.480367000" lon="-2.501154000">
        <ele>479.40</ele>
        <time>2016-10-22T05:30:57Z</time>
      </trkpt>
      <trkpt lat="42.480393000" lon="-2.501150000">
        <ele>479.40</ele>
        <time>2016-10-22T05:30:58Z</time>
      </trkpt>
      <trkpt lat="42.480419000" lon="-2.501145000">
        <ele>479.30</ele>
        <time>2016-10-22T05:30:59Z</time>
      </trkpt>
      <trkpt lat="42.480447000" lon="-2.501142000">
        <ele>479.30</ele>
        <time>2016-10-22T05:31:00Z</time>
      </trkpt>
      <trkpt lat="42.480472000" lon="-2.501142000">
        <ele>479.20</ele>
        <time>2016-10-22T05:31:01Z</time>
      </trkpt>
      <trkpt lat="42.480499000" lon="-2.501141000">
        <ele>479.20</ele>
        <time>2016-10-22T05:31:02Z</time>
      </trkpt>
      <trkpt lat="42.480526000" lon="-2.501141000">
        <ele>479.20</ele>
        <time>2016-10-22T05:31:03Z</time>
      </trkpt>
      <trkpt lat="42.480551000" lon="-2.501135000">
        <ele>479.20</ele>
        <time>2016-10-22T05:31:04Z</time>
      </trkpt>
      <trkpt lat="42.480579000" lon="-2.501127000">
        <ele>479.20</ele>
        <time>2016-10-22T05:31:05Z</time>
      </trkpt>
      <trkpt lat="42.480608000" lon="-2.501121000">
        <ele>479.30</ele>
        <time>2016-10-22T05:31:06Z</time>
      </trkpt>
      <trkpt lat="42.480639000" lon="-2.501120000">
        <ele>479.40</ele>
        <time>2016-10-22T05:31:07Z</time>
      </trkpt>
      <trkpt lat="42.480668000" lon="-2.501112000">
        <ele>479.50</ele>
        <time>2016-10-22T05:31:08Z</time>
      </trkpt>
      <trkpt lat="42.480698000" lon="-2.501104000">
        <ele>479.50</ele>
        <time>2016-10-22T05:31:09Z</time>
      </trkpt>
      <trkpt lat="42.480727000" lon="-2.501093000">
        <ele>479.60</ele>
        <time>2016-10-22T05:31:10Z</time>
      </trkpt>
      <trkpt lat="42.480757000" lon="-2.501075000">
        <ele>479.60</ele>
        <time>2016-10-22T05:31:11Z</time>
      </trkpt>
      <trkpt lat="42.480783000" lon="-2.501054000">
        <ele>479.60</ele>
        <time>2016-10-22T05:31:12Z</time>
      </trkpt>
      <trkpt lat="42.480803000" lon="-2.501030000">
        <ele>479.60</ele>
        <time>2016-10-22T05:31:13Z</time>
      </trkpt>
      <trkpt lat="42.480821000" lon="-2.501007000">
        <ele>480.00</ele>
        <time>2016-10-22T05:31:14Z</time>
      </trkpt>
      <trkpt lat="42.480839000" lon="-2.500988000">
        <ele>480.20</ele>
        <time>2016-10-22T05:31:15Z</time>
      </trkpt>
      <trkpt lat="42.480860000" lon="-2.500970000">
        <ele>480.50</ele>
        <time>2016-10-22T05:31:16Z</time>
      </trkpt>
      <trkpt lat="42.480882000" lon="-2.500945000">
        <ele>480.70</ele>
        <time>2016-10-22T05:31:17Z</time>
      </trkpt>
      <trkpt lat="42.480903000" lon="-2.500924000">
        <ele>480.90</ele>
        <time>2016-10-22T05:31:18Z</time>
      </trkpt>
      <trkpt lat="42.480926000" lon="-2.500902000">
        <ele>481.00</ele>
        <time>2016-10-22T05:31:19Z</time>
      </trkpt>
      <trkpt lat="42.480952000" lon="-2.500887000">
        <ele>481.50</ele>
        <time>2016-10-22T05:31:20Z</time>
      </trkpt>
      <trkpt lat="42.480976000" lon="-2.500873000">
        <ele>481.80</ele>
        <time>2016-10-22T05:31:21Z</time>
      </trkpt>
      <trkpt lat="42.481002000" lon="-2.500868000">
        <ele>482.10</ele>
        <time>2016-10-22T05:31:22Z</time>
      </trkpt>
      <trkpt lat="42.481026000" lon="-2.500876000">
        <ele>482.30</ele>
        <time>2016-10-22T05:31:23Z</time>
      </trkpt>
      <trkpt lat="42.481051000" lon="-2.500886000">
        <ele>482.70</ele>
        <time>2016-10-22T05:31:24Z</time>
      </trkpt>
      <trkpt lat="42.481074000" lon="-2.500900000">
        <ele>483.00</ele>
        <time>2016-10-22T05:31:25Z</time>
      </trkpt>
      <trkpt lat="42.481095000" lon="-2.500920000">
        <ele>483.20</ele>
        <time>2016-10-22T05:31:26Z</time>
      </trkpt>
      <trkpt lat="42.481128000" lon="-2.500974000">
        <ele>483.70</ele>
        <time>2016-10-22T05:31:28Z</time>
      </trkpt>
      <trkpt lat="42.481142000" lon="-2.501002000">
        <ele>483.80</ele>
        <time>2016-10-22T05:31:29Z</time>
      </trkpt>
      <trkpt lat="42.481152000" lon="-2.501030000">
        <ele>484.00</ele>
        <time>2016-10-22T05:31:30Z</time>
      </trkpt>
      <trkpt lat="42.481160000" lon="-2.501057000">
        <ele>484.10</ele>
        <time>2016-10-22T05:31:31Z</time>
      </trkpt>
      <trkpt lat="42.481174000" lon="-2.501083000">
        <ele>484.40</ele>
        <time>2016-10-22T05:31:32Z</time>
      </trkpt>
      <trkpt lat="42.481188000" lon="-2.501107000">
        <ele>484.70</ele>
        <time>2016-10-22T05:31:33Z</time>
      </trkpt>
      <trkpt lat="42.481202000" lon="-2.501128000">
        <ele>485.00</ele>
        <time>2016-10-22T05:31:34Z</time>
      </trkpt>
      <trkpt lat="42.481215000" lon="-2.501151000">
        <ele>485.30</ele>
        <time>2016-10-22T05:31:35Z</time>
      </trkpt>
      <trkpt lat="42.481227000" lon="-2.501174000">
        <ele>485.60</ele>
        <time>2016-10-22T05:31:36Z</time>
      </trkpt>
      <trkpt lat="42.481244000" lon="-2.501195000">
        <ele>485.80</ele>
        <time>2016-10-22T05:31:37Z</time>
      </trkpt>
      <trkpt lat="42.481262000" lon="-2.501217000">
        <ele>486.00</ele>
        <time>2016-10-22T05:31:38Z</time>
      </trkpt>
      <trkpt lat="42.481278000" lon="-2.501242000">
        <ele>486.10</ele>
        <time>2016-10-22T05:31:39Z</time>
      </trkpt>
      <trkpt lat="42.481296000" lon="-2.501260000">
        <ele>486.40</ele>
        <time>2016-10-22T05:31:40Z</time>
      </trkpt>
      <trkpt lat="42.481315000" lon="-2.501279000">
        <ele>486.60</ele>
        <time>2016-10-22T05:31:41Z</time>
      </trkpt>
      <trkpt lat="42.481335000" lon="-2.501294000">
        <ele>486.90</ele>
        <time>2016-10-22T05:31:42Z</time>
      </trkpt>
      <trkpt lat="42.481352000" lon="-2.501313000">
        <ele>487.20</ele>
        <time>2016-10-22T05:31:43Z</time>
      </trkpt>
      <trkpt lat="42.481371000" lon="-2.501325000">
        <ele>487.30</ele>
        <time>2016-10-22T05:31:44Z</time>
      </trkpt>
      <trkpt lat="42.481393000" lon="-2.501341000">
        <ele>487.40</ele>
        <time>2016-10-22T05:31:45Z</time>
      </trkpt>
      <trkpt lat="42.481417000" lon="-2.501355000">
        <ele>487.90</ele>
        <time>2016-10-22T05:31:46Z</time>
      </trkpt>
      <trkpt lat="42.481440000" lon="-2.501370000">
        <ele>488.30</ele>
        <time>2016-10-22T05:31:47Z</time>
      </trkpt>
      <trkpt lat="42.481465000" lon="-2.501383000">
        <ele>488.50</ele>
        <time>2016-10-22T05:31:48Z</time>
      </trkpt>
      <trkpt lat="42.481487000" lon="-2.501397000">
        <ele>488.70</ele>
        <time>2016-10-22T05:31:49Z</time>
      </trkpt>
      <trkpt lat="42.481510000" lon="-2.501408000">
        <ele>488.90</ele>
        <time>2016-10-22T05:31:50Z</time>
      </trkpt>
      <trkpt lat="42.481534000" lon="-2.501421000">
        <ele>489.00</ele>
        <time>2016-10-22T05:31:51Z</time>
      </trkpt>
      <trkpt lat="42.481556000" lon="-2.501437000">
        <ele>489.20</ele>
        <time>2016-10-22T05:31:52Z</time>
      </trkpt>
      <trkpt lat="42.481581000" lon="-2.501447000">
        <ele>489.40</ele>
        <time>2016-10-22T05:31:53Z</time>
      </trkpt>
      <trkpt lat="42.481603000" lon="-2.501461000">
        <ele>489.50</ele>
        <time>2016-10-22T05:31:54Z</time>
      </trkpt>
      <trkpt lat="42.481629000" lon="-2.501473000">
        <ele>489.60</ele>
        <time>2016-10-22T05:31:55Z</time>
      </trkpt>
      <trkpt lat="42.481655000" lon="-2.501479000">
        <ele>489.70</ele>
        <time>2016-10-22T05:31:56Z</time>
      </trkpt>
      <trkpt lat="42.481680000" lon="-2.501490000">
        <ele>489.80</ele>
        <time>2016-10-22T05:31:57Z</time>
      </trkpt>
      <trkpt lat="42.481704000" lon="-2.501502000">
        <ele>489.90</ele>
        <time>2016-10-22T05:31:58Z</time>
      </trkpt>
      <trkpt lat="42.481731000" lon="-2.501511000">
        <ele>489.90</ele>
        <time>2016-10-22T05:31:59Z</time>
      </trkpt>
      <trkpt lat="42.481755000" lon="-2.501521000">
        <ele>490.00</ele>
        <time>2016-10-22T05:32:00Z</time>
      </trkpt>
      <trkpt lat="42.481779000" lon="-2.501534000">
        <ele>490.10</ele>
        <time>2016-10-22T05:32:01Z</time>
      </trkpt>
      <trkpt lat="42.481803000" lon="-2.501550000">
        <ele>490.10</ele>
        <time>2016-10-22T05:32:02Z</time>
      </trkpt>
      <trkpt lat="42.481828000" lon="-2.501564000">
        <ele>490.20</ele>
        <time>2016-10-22T05:32:03Z</time>
      </trkpt>
      <trkpt lat="42.481853000" lon="-2.501576000">
        <ele>490.30</ele>
        <time>2016-10-22T05:32:04Z</time>
      </trkpt>
      <trkpt lat="42.481878000" lon="-2.501589000">
        <ele>490.40</ele>
        <time>2016-10-22T05:32:05Z</time>
      </trkpt>
      <trkpt lat="42.481903000" lon="-2.501604000">
        <ele>490.70</ele>
        <time>2016-10-22T05:32:06Z</time>
      </trkpt>
      <trkpt lat="42.481924000" lon="-2.501623000">
        <ele>490.80</ele>
        <time>2016-10-22T05:32:07Z</time>
      </trkpt>
      <trkpt lat="42.481947000" lon="-2.501639000">
        <ele>491.00</ele>
        <time>2016-10-22T05:32:08Z</time>
      </trkpt>
      <trkpt lat="42.481968000" lon="-2.501654000">
        <ele>491.20</ele>
        <time>2016-10-22T05:32:09Z</time>
      </trkpt>
      <trkpt lat="42.481989000" lon="-2.501671000">
        <ele>491.50</ele>
        <time>2016-10-22T05:32:10Z</time>
      </trkpt>
      <trkpt lat="42.482013000" lon="-2.501688000">
        <ele>491.70</ele>
        <time>2016-10-22T05:32:11Z</time>
      </trkpt>
      <trkpt lat="42.482036000" lon="-2.501704000">
        <ele>492.00</ele>
        <time>2016-10-22T05:32:12Z</time>
      </trkpt>
      <trkpt lat="42.482061000" lon="-2.501719000">
        <ele>492.20</ele>
        <time>2016-10-22T05:32:13Z</time>
      </trkpt>
      <trkpt lat="42.482085000" lon="-2.501736000">
        <ele>492.50</ele>
        <time>2016-10-22T05:32:14Z</time>
      </trkpt>
      <trkpt lat="42.482113000" lon="-2.501750000">
        <ele>492.70</ele>
        <time>2016-10-22T05:32:15Z</time>
      </trkpt>
      <trkpt lat="42.482138000" lon="-2.501762000">
        <ele>492.90</ele>
        <time>2016-10-22T05:32:16Z</time>
      </trkpt>
      <trkpt lat="42.482164000" lon="-2.501773000">
        <ele>493.00</ele>
        <time>2016-10-22T05:32:17Z</time>
      </trkpt>
      <trkpt lat="42.482192000" lon="-2.501783000">
        <ele>493.10</ele>
        <time>2016-10-22T05:32:18Z</time>
      </trkpt>
      <trkpt lat="42.482220000" lon="-2.501785000">
        <ele>493.20</ele>
        <time>2016-10-22T05:32:19Z</time>
      </trkpt>
      <trkpt lat="42.482249000" lon="-2.501789000">
        <ele>493.30</ele>
        <time>2016-10-22T05:32:20Z</time>
      </trkpt>
      <trkpt lat="42.482274000" lon="-2.501794000">
        <ele>493.30</ele>
        <time>2016-10-22T05:32:21Z</time>
      </trkpt>
      <trkpt lat="42.482301000" lon="-2.501795000">
        <ele>493.50</ele>
        <time>2016-10-22T05:32:22Z</time>
      </trkpt>
      <trkpt lat="42.482326000" lon="-2.501794000">
        <ele>493.70</ele>
        <time>2016-10-22T05:32:23Z</time>
      </trkpt>
      <trkpt lat="42.482356000" lon="-2.501795000">
        <ele>493.80</ele>
        <time>2016-10-22T05:32:24Z</time>
      </trkpt>
      <trkpt lat="42.482383000" lon="-2.501791000">
        <ele>493.80</ele>
        <time>2016-10-22T05:32:25Z</time>
      </trkpt>
      <trkpt lat="42.482412000" lon="-2.501786000">
        <ele>493.90</ele>
        <time>2016-10-22T05:32:26Z</time>
      </trkpt>
      <trkpt lat="42.482439000" lon="-2.501783000">
        <ele>493.90</ele>
        <time>2016-10-22T05:32:27Z</time>
      </trkpt>
      <trkpt lat="42.482468000" lon="-2.501780000">
        <ele>494.00</ele>
        <time>2016-10-22T05:32:28Z</time>
      </trkpt>
      <trkpt lat="42.482526000" lon="-2.501776000">
        <ele>494.30</ele>
        <time>2016-10-22T05:32:30Z</time>
      </trkpt>
      <trkpt lat="42.482556000" lon="-2.501771000">
        <ele>494.40</ele>
        <time>2016-10-22T05:32:31Z</time>
      </trkpt>
      <trkpt lat="42.482585000" lon="-2.501761000">
        <ele>494.60</ele>
        <time>2016-10-22T05:32:32Z</time>
      </trkpt>
      <trkpt lat="42.482616000" lon="-2.501753000">
        <ele>494.70</ele>
        <time>2016-10-22T05:32:33Z</time>
      </trkpt>
      <trkpt lat="42.482644000" lon="-2.501745000">
        <ele>494.80</ele>
        <time>2016-10-22T05:32:34Z</time>
      </trkpt>
      <trkpt lat="42.482671000" lon="-2.501739000">
        <ele>494.90</ele>
        <time>2016-10-22T05:32:35Z</time>
      </trkpt>
      <trkpt lat="42.482698000" lon="-2.501732000">
        <ele>494.90</ele>
        <time>2016-10-22T05:32:36Z</time>
      </trkpt>
      <trkpt lat="42.482727000" lon="-2.501727000">
        <ele>495.00</ele>
        <time>2016-10-22T05:32:37Z</time>
      </trkpt>
      <trkpt lat="42.482758000" lon="-2.501721000">
        <ele>495.00</ele>
        <time>2016-10-22T05:32:38Z</time>
      </trkpt>
      <trkpt lat="42.482789000" lon="-2.501717000">
        <ele>495.00</ele>
        <time>2016-10-22T05:32:39Z</time>
      </trkpt>
      <trkpt lat="42.482820000" lon="-2.501712000">
        <ele>495.00</ele>
        <time>2016-10-22T05:32:40Z</time>
      </trkpt>
      <trkpt lat="42.482851000" lon="-2.501708000">
        <ele>495.10</ele>
        <time>2016-10-22T05:32:41Z</time>
      </trkpt>
      <trkpt lat="42.482883000" lon="-2.501707000">
        <ele>495.10</ele>
        <time>2016-10-22T05:32:42Z</time>
      </trkpt>
      <trkpt lat="42.482914000" lon="-2.501713000">
        <ele>495.10</ele>
        <time>2016-10-22T05:32:43Z</time>
      </trkpt>
      <trkpt lat="42.482946000" lon="-2.501719000">
        <ele>495.10</ele>
        <time>2016-10-22T05:32:44Z</time>
      </trkpt>
      <trkpt lat="42.482977000" lon="-2.501727000">
        <ele>495.20</ele>
        <time>2016-10-22T05:32:45Z</time>
      </trkpt>
      <trkpt lat="42.483008000" lon="-2.501739000">
        <ele>495.40</ele>
        <time>2016-10-22T05:32:46Z</time>
      </trkpt>
      <trkpt lat="42.483035000" lon="-2.501756000">
        <ele>495.50</ele>
        <time>2016-10-22T05:32:47Z</time>
      </trkpt>
      <trkpt lat="42.483062000" lon="-2.501773000">
        <ele>495.70</ele>
        <time>2016-10-22T05:32:48Z</time>
      </trkpt>
      <trkpt lat="42.483089000" lon="-2.501795000">
        <ele>495.80</ele>
        <time>2016-10-22T05:32:49Z</time>
      </trkpt>
      <trkpt lat="42.483113000" lon="-2.501820000">
        <ele>495.90</ele>
        <time>2016-10-22T05:32:50Z</time>
      </trkpt>
      <trkpt lat="42.483142000" lon="-2.501845000">
        <ele>495.90</ele>
        <time>2016-10-22T05:32:51Z</time>
      </trkpt>
      <trkpt lat="42.483172000" lon="-2.501865000">
        <ele>496.00</ele>
        <time>2016-10-22T05:32:52Z</time>
      </trkpt>
      <trkpt lat="42.483203000" lon="-2.501888000">
        <ele>496.00</ele>
        <time>2016-10-22T05:32:53Z</time>
      </trkpt>
      <trkpt lat="42.483233000" lon="-2.501911000">
        <ele>496.10</ele>
        <time>2016-10-22T05:32:54Z</time>
      </trkpt>
      <trkpt lat="42.483262000" lon="-2.501932000">
        <ele>496.10</ele>
        <time>2016-10-22T05:32:55Z</time>
      </trkpt>
      <trkpt lat="42.483293000" lon="-2.501952000">
        <ele>496.20</ele>
        <time>2016-10-22T05:32:56Z</time>
      </trkpt>
      <trkpt lat="42.483321000" lon="-2.501969000">
        <ele>496.30</ele>
        <time>2016-10-22T05:32:57Z</time>
      </trkpt>
      <trkpt lat="42.483350000" lon="-2.501980000">
        <ele>496.40</ele>
        <time>2016-10-22T05:32:58Z</time>
      </trkpt>
      <trkpt lat="42.483381000" lon="-2.501992000">
        <ele>496.50</ele>
        <time>2016-10-22T05:32:59Z</time>
      </trkpt>
      <trkpt lat="42.483411000" lon="-2.501998000">
        <ele>496.50</ele>
        <time>2016-10-22T05:33:00Z</time>
      </trkpt>
      <trkpt lat="42.483437000" lon="-2.502009000">
        <ele>496.60</ele>
        <time>2016-10-22T05:33:01Z</time>
      </trkpt>
      <trkpt lat="42.483463000" lon="-2.502021000">
        <ele>496.70</ele>
        <time>2016-10-22T05:33:02Z</time>
      </trkpt>
      <trkpt lat="42.483487000" lon="-2.502036000">
        <ele>496.80</ele>
        <time>2016-10-22T05:33:03Z</time>
      </trkpt>
      <trkpt lat="42.483512000" lon="-2.502047000">
        <ele>497.10</ele>
        <time>2016-10-22T05:33:04Z</time>
      </trkpt>
      <trkpt lat="42.483536000" lon="-2.502058000">
        <ele>497.20</ele>
        <time>2016-10-22T05:33:05Z</time>
      </trkpt>
      <trkpt lat="42.483560000" lon="-2.502073000">
        <ele>497.40</ele>
        <time>2016-10-22T05:33:06Z</time>
      </trkpt>
      <trkpt lat="42.483586000" lon="-2.502085000">
        <ele>497.60</ele>
        <time>2016-10-22T05:33:07Z</time>
      </trkpt>
      <trkpt lat="42.483610000" lon="-2.502100000">
        <ele>497.70</ele>
        <time>2016-10-22T05:33:08Z</time>
      </trkpt>
      <trkpt lat="42.483632000" lon="-2.502116000">
        <ele>497.80</ele>
        <time>2016-10-22T05:33:09Z</time>
      </trkpt>
      <trkpt lat="42.483656000" lon="-2.502135000">
        <ele>497.90</ele>
        <time>2016-10-22T05:33:10Z</time>
      </trkpt>
      <trkpt lat="42.483680000" lon="-2.502150000">
        <ele>498.00</ele>
        <time>2016-10-22T05:33:11Z</time>
      </trkpt>
      <trkpt lat="42.483702000" lon="-2.502166000">
        <ele>498.20</ele>
        <time>2016-10-22T05:33:12Z</time>
      </trkpt>
      <trkpt lat="42.483726000" lon="-2.502182000">
        <ele>498.30</ele>
        <time>2016-10-22T05:33:13Z</time>
      </trkpt>
      <trkpt lat="42.483749000" lon="-2.502198000">
        <ele>498.40</ele>
        <time>2016-10-22T05:33:14Z</time>
      </trkpt>
      <trkpt lat="42.483772000" lon="-2.502213000">
        <ele>498.50</ele>
        <time>2016-10-22T05:33:15Z</time>
      </trkpt>
      <trkpt lat="42.483795000" lon="-2.502226000">
        <ele>498.50</ele>
        <time>2016-10-22T05:33:16Z</time>
      </trkpt>
      <trkpt lat="42.483819000" lon="-2.502235000">
        <ele>498.60</ele>
        <time>2016-10-22T05:33:17Z</time>
      </trkpt>
      <trkpt lat="42.483844000" lon="-2.502249000">
        <ele>498.60</ele>
        <time>2016-10-22T05:33:18Z</time>
      </trkpt>
      <trkpt lat="42.483867000" lon="-2.502265000">
        <ele>498.60</ele>
        <time>2016-10-22T05:33:19Z</time>
      </trkpt>
      <trkpt lat="42.483891000" lon="-2.502281000">
        <ele>498.80</ele>
        <time>2016-10-22T05:33:20Z</time>
      </trkpt>
      <trkpt lat="42.483918000" lon="-2.502295000">
        <ele>499.00</ele>
        <time>2016-10-22T05:33:21Z</time>
      </trkpt>
      <trkpt lat="42.483942000" lon="-2.502310000">
        <ele>499.30</ele>
        <time>2016-10-22T05:33:22Z</time>
      </trkpt>
      <trkpt lat="42.483963000" lon="-2.502331000">
        <ele>499.60</ele>
        <time>2016-10-22T05:33:23Z</time>
      </trkpt>
      <trkpt lat="42.483985000" lon="-2.502350000">
        <ele>499.70</ele>
        <time>2016-10-22T05:33:24Z</time>
      </trkpt>
      <trkpt lat="42.484007000" lon="-2.502371000">
        <ele>499.90</ele>
        <time>2016-10-22T05:33:25Z</time>
      </trkpt>
      <trkpt lat="42.484029000" lon="-2.502389000">
        <ele>500.00</ele>
        <time>2016-10-22T05:33:26Z</time>
      </trkpt>
      <trkpt lat="42.484049000" lon="-2.502408000">
        <ele>500.00</ele>
        <time>2016-10-22T05:33:27Z</time>
      </trkpt>
      <trkpt lat="42.484071000" lon="-2.502429000">
        <ele>500.00</ele>
        <time>2016-10-22T05:33:28Z</time>
      </trkpt>
      <trkpt lat="42.484096000" lon="-2.502452000">
        <ele>500.00</ele>
        <time>2016-10-22T05:33:29Z</time>
      </trkpt>
      <trkpt lat="42.484118000" lon="-2.502475000">
        <ele>500.00</ele>
        <time>2016-10-22T05:33:30Z</time>
      </trkpt>
      <trkpt lat="42.484156000" lon="-2.502517000">
        <ele>500.00</ele>
        <time>2016-10-22T05:33:32Z</time>
      </trkpt>
      <trkpt lat="42.484175000" lon="-2.502538000">
        <ele>499.90</ele>
        <time>2016-10-22T05:33:33Z</time>
      </trkpt>
      <trkpt lat="42.484194000" lon="-2.502557000">
        <ele>499.90</ele>
        <time>2016-10-22T05:33:34Z</time>
      </trkpt>
      <trkpt lat="42.484213000" lon="-2.502575000">
        <ele>499.80</ele>
        <time>2016-10-22T05:33:35Z</time>
      </trkpt>
      <trkpt lat="42.484233000" lon="-2.502595000">
        <ele>499.80</ele>
        <time>2016-10-22T05:33:36Z</time>
      </trkpt>
      <trkpt lat="42.484257000" lon="-2.502619000">
        <ele>499.80</ele>
        <time>2016-10-22T05:33:37Z</time>
      </trkpt>
      <trkpt lat="42.484281000" lon="-2.502637000">
        <ele>499.70</ele>
        <time>2016-10-22T05:33:38Z</time>
      </trkpt>
      <trkpt lat="42.484304000" lon="-2.502660000">
        <ele>499.70</ele>
        <time>2016-10-22T05:33:39Z</time>
      </trkpt>
      <trkpt lat="42.484325000" lon="-2.502681000">
        <ele>499.60</ele>
        <time>2016-10-22T05:33:40Z</time>
      </trkpt>
      <trkpt lat="42.484343000" lon="-2.502702000">
        <ele>499.60</ele>
        <time>2016-10-22T05:33:41Z</time>
      </trkpt>
      <trkpt lat="42.484360000" lon="-2.502724000">
        <ele>499.60</ele>
        <time>2016-10-22T05:33:42Z</time>
      </trkpt>
      <trkpt lat="42.484378000" lon="-2.502741000">
        <ele>499.50</ele>
        <time>2016-10-22T05:33:43Z</time>
      </trkpt>
      <trkpt lat="42.484395000" lon="-2.502760000">
        <ele>499.50</ele>
        <time>2016-10-22T05:33:44Z</time>
      </trkpt>
      <trkpt lat="42.484413000" lon="-2.502779000">
        <ele>499.40</ele>
        <time>2016-10-22T05:33:45Z</time>
      </trkpt>
      <trkpt lat="42.484428000" lon="-2.502794000">
        <ele>499.30</ele>
        <time>2016-10-22T05:33:46Z</time>
      </trkpt>
      <trkpt lat="42.484434000" lon="-2.502807000">
        <ele>499.20</ele>
        <time>2016-10-22T05:33:47Z</time>
      </trkpt>
      <trkpt lat="42.484437000" lon="-2.502814000">
        <ele>499.00</ele>
        <time>2016-10-22T05:33:48Z</time>
      </trkpt>
      <trkpt lat="42.484438000" lon="-2.502814000">
        <ele>498.90</ele>
        <time>2016-10-22T05:33:49Z</time>
      </trkpt>
      <trkpt lat="42.484438000" lon="-2.502814000">
        <ele>498.80</ele>
        <time>2016-10-22T05:33:50Z</time>
      </trkpt>
      <trkpt lat="42.484438000" lon="-2.502814000">
        <ele>498.70</ele>
        <time>2016-10-22T05:33:51Z</time>
      </trkpt>
      <trkpt lat="42.484438000" lon="-2.502814000">
        <ele>498.60</ele>
        <time>2016-10-22T05:33:52Z</time>
      </trkpt>
      <trkpt lat="42.484438000" lon="-2.502814000">
        <ele>498.50</ele>
        <time>2016-10-22T05:33:53Z</time>
      </trkpt>
      <trkpt lat="42.484438000" lon="-2.502814000">
        <ele>498.50</ele>
        <time>2016-10-22T05:33:54Z</time>
      </trkpt>
      <trkpt lat="42.484438000" lon="-2.502814000">
        <ele>498.40</ele>
        <time>2016-10-22T05:33:55Z</time>
      </trkpt>
      <trkpt lat="42.484438000" lon="-2.502814000">
        <ele>498.20</ele>
        <time>2016-10-22T05:33:56Z</time>
      </trkpt>
      <trkpt lat="42.484438000" lon="-2.502814000">
        <ele>498.10</ele>
        <time>2016-10-22T05:33:57Z</time>
      </trkpt>
      <trkpt lat="42.484438000" lon="-2.502814000">
        <ele>498.10</ele>
        <time>2016-10-22T05:33:58Z</time>
      </trkpt>
      <trkpt lat="42.484438000" lon="-2.502814000">
        <ele>498.10</ele>
        <time>2016-10-22T05:33:59Z</time>
      </trkpt>
      <trkpt lat="42.484438000" lon="-2.502814000">
        <ele>498.00</ele>
        <time>2016-10-22T05:34:00Z</time>
      </trkpt>
      <trkpt lat="42.484438000" lon="-2.502814000">
        <ele>498.00</ele>
        <time>2016-10-22T05:34:01Z</time>
      </trkpt>
      <trkpt lat="42.484438000" lon="-2.502814000">
        <ele>498.10</ele>
        <time>2016-10-22T05:34:02Z</time>
      </trkpt>
      <trkpt lat="42.484438000" lon="-2.502814000">
        <ele>498.10</ele>
        <time>2016-10-22T05:34:03Z</time>
      </trkpt>
      <trkpt lat="42.484438000" lon="-2.502814000">
        <ele>498.20</ele>
        <time>2016-10-22T05:34:04Z</time>
      </trkpt>
      <trkpt lat="42.484438000" lon="-2.502814000">
        <ele>498.20</ele>
        <time>2016-10-22T05:34:05Z</time>
      </trkpt>
      <trkpt lat="42.484438000" lon="-2.502814000">
        <ele>498.20</ele>
        <time>2016-10-22T05:34:06Z</time>
      </trkpt>
      <trkpt lat="42.484438000" lon="-2.502814000">
        <ele>498.20</ele>
        <time>2016-10-22T05:34:07Z</time>
      </trkpt>
      <trkpt lat="42.484438000" lon="-2.502814000">
        <ele>498.10</ele>
        <time>2016-10-22T05:34:08Z</time>
      </trkpt>
      <trkpt lat="42.484438000" lon="-2.502814000">
        <ele>498.00</ele>
        <time>2016-10-22T05:34:09Z</time>
      </trkpt>
      <trkpt lat="42.484438000" lon="-2.502814000">
        <ele>497.90</ele>
        <time>2016-10-22T05:34:10Z</time>
      </trkpt>
      <trkpt lat="42.484438000" lon="-2.502814000">
        <ele>497.90</ele>
        <time>2016-10-22T05:34:11Z</time>
      </trkpt>
      <trkpt lat="42.484438000" lon="-2.502814000">
        <ele>497.80</ele>
        <time>2016-10-22T05:34:12Z</time>
      </trkpt>
      <trkpt lat="42.484438000" lon="-2.502814000">
        <ele>497.80</ele>
        <time>2016-10-22T05:34:13Z</time>
      </trkpt>
      <trkpt lat="42.484451000" lon="-2.502839000">
        <ele>497.80</ele>
        <time>2016-10-22T05:34:14Z</time>
      </trkpt>
      <trkpt lat="42.484476000" lon="-2.502868000">
        <ele>497.80</ele>
        <time>2016-10-22T05:34:15Z</time>
      </trkpt>
      <trkpt lat="42.484504000" lon="-2.502900000">
        <ele>497.70</ele>
        <time>2016-10-22T05:34:16Z</time>
      </trkpt>
      <trkpt lat="42.484532000" lon="-2.502934000">
        <ele>497.60</ele>
        <time>2016-10-22T05:34:17Z</time>
      </trkpt>
      <trkpt lat="42.484554000" lon="-2.502982000">
        <ele>497.50</ele>
        <time>2016-10-22T05:34:18Z</time>
      </trkpt>
      <trkpt lat="42.484572000" lon="-2.503035000">
        <ele>497.30</ele>
        <time>2016-10-22T05:34:19Z</time>
      </trkpt>
      <trkpt lat="42.484591000" lon="-2.503090000">
        <ele>497.20</ele>
        <time>2016-10-22T05:34:20Z</time>
      </trkpt>
      <trkpt lat="42.484600000" lon="-2.503155000">
        <ele>497.00</ele>
        <time>2016-10-22T05:34:21Z</time>
      </trkpt>
      <trkpt lat="42.484608000" lon="-2.503223000">
        <ele>496.80</ele>
        <time>2016-10-22T05:34:22Z</time>
      </trkpt>
      <trkpt lat="42.484612000" lon="-2.503295000">
        <ele>496.50</ele>
        <time>2016-10-22T05:34:23Z</time>
      </trkpt>
      <trkpt lat="42.484608000" lon="-2.503370000">
        <ele>496.10</ele>
        <time>2016-10-22T05:34:24Z</time>
      </trkpt>
      <trkpt lat="42.484603000" lon="-2.503442000">
        <ele>495.80</ele>
        <time>2016-10-22T05:34:25Z</time>
      </trkpt>
      <trkpt lat="42.484598000" lon="-2.503512000">
        <ele>495.60</ele>
        <time>2016-10-22T05:34:26Z</time>
      </trkpt>
      <trkpt lat="42.484589000" lon="-2.503579000">
        <ele>495.40</ele>
        <time>2016-10-22T05:34:27Z</time>
      </trkpt>
      <trkpt lat="42.484577000" lon="-2.503648000">
        <ele>495.20</ele>
        <time>2016-10-22T05:34:28Z</time>
      </trkpt>
      <trkpt lat="42.484570000" lon="-2.503708000">
        <ele>495.10</ele>
        <time>2016-10-22T05:34:29Z</time>
      </trkpt>
      <trkpt lat="42.484566000" lon="-2.503772000">
        <ele>495.00</ele>
        <time>2016-10-22T05:34:30Z</time>
      </trkpt>
      <trkpt lat="42.484567000" lon="-2.503827000">
        <ele>494.90</ele>
        <time>2016-10-22T05:34:31Z</time>
      </trkpt>
      <trkpt lat="42.484566000" lon="-2.503877000">
        <ele>494.80</ele>
        <time>2016-10-22T05:34:32Z</time>
      </trkpt>
      <trkpt lat="42.484569000" lon="-2.503978000">
        <ele>494.80</ele>
        <time>2016-10-22T05:34:34Z</time>
      </trkpt>
      <trkpt lat="42.484571000" lon="-2.504025000">
        <ele>494.90</ele>
        <time>2016-10-22T05:34:35Z</time>
      </trkpt>
      <trkpt lat="42.484578000" lon="-2.504069000">
        <ele>495.00</ele>
        <time>2016-10-22T05:34:36Z</time>
      </trkpt>
      <trkpt lat="42.484585000" lon="-2.504113000">
        <ele>495.00</ele>
        <time>2016-10-22T05:34:37Z</time>
      </trkpt>
      <trkpt lat="42.484594000" lon="-2.504156000">
        <ele>495.30</ele>
        <time>2016-10-22T05:34:38Z</time>
      </trkpt>
      <trkpt lat="42.484607000" lon="-2.504200000">
        <ele>495.60</ele>
        <time>2016-10-22T05:34:39Z</time>
      </trkpt>
      <trkpt lat="42.484616000" lon="-2.504247000">
        <ele>495.80</ele>
        <time>2016-10-22T05:34:40Z</time>
      </trkpt>
      <trkpt lat="42.484629000" lon="-2.504292000">
        <ele>495.90</ele>
        <time>2016-10-22T05:34:41Z</time>
      </trkpt>
      <trkpt lat="42.484641000" lon="-2.504338000">
        <ele>496.00</ele>
        <time>2016-10-22T05:34:42Z</time>
      </trkpt>
      <trkpt lat="42.484650000" lon="-2.504379000">
        <ele>496.10</ele>
        <time>2016-10-22T05:34:43Z</time>
      </trkpt>
      <trkpt lat="42.484665000" lon="-2.504421000">
        <ele>496.00</ele>
        <time>2016-10-22T05:34:44Z</time>
      </trkpt>
      <trkpt lat="42.484681000" lon="-2.504467000">
        <ele>496.00</ele>
        <time>2016-10-22T05:34:45Z</time>
      </trkpt>
      <trkpt lat="42.484700000" lon="-2.504512000">
        <ele>495.90</ele>
        <time>2016-10-22T05:34:46Z</time>
      </trkpt>
      <trkpt lat="42.484722000" lon="-2.504552000">
        <ele>495.90</ele>
        <time>2016-10-22T05:34:47Z</time>
      </trkpt>
      <trkpt lat="42.484747000" lon="-2.504589000">
        <ele>496.10</ele>
        <time>2016-10-22T05:34:48Z</time>
      </trkpt>
      <trkpt lat="42.484768000" lon="-2.504633000">
        <ele>496.30</ele>
        <time>2016-10-22T05:34:49Z</time>
      </trkpt>
      <trkpt lat="42.484795000" lon="-2.504673000">
        <ele>496.40</ele>
        <time>2016-10-22T05:34:50Z</time>
      </trkpt>
      <trkpt lat="42.484820000" lon="-2.504712000">
        <ele>496.50</ele>
        <time>2016-10-22T05:34:51Z</time>
      </trkpt>
      <trkpt lat="42.484846000" lon="-2.504749000">
        <ele>496.60</ele>
        <time>2016-10-22T05:34:52Z</time>
      </trkpt>
      <trkpt lat="42.484877000" lon="-2.504791000">
        <ele>496.70</ele>
        <time>2016-10-22T05:34:53Z</time>
      </trkpt>
      <trkpt lat="42.484900000" lon="-2.504831000">
        <ele>496.70</ele>
        <time>2016-10-22T05:34:54Z</time>
      </trkpt>
      <trkpt lat="42.484928000" lon="-2.504867000">
        <ele>496.80</ele>
        <time>2016-10-22T05:34:55Z</time>
      </trkpt>
      <trkpt lat="42.484956000" lon="-2.504899000">
        <ele>496.80</ele>
        <time>2016-10-22T05:34:56Z</time>
      </trkpt>
      <trkpt lat="42.484984000" lon="-2.504938000">
        <ele>496.90</ele>
        <time>2016-10-22T05:34:57Z</time>
      </trkpt>
      <trkpt lat="42.485010000" lon="-2.504981000">
        <ele>497.00</ele>
        <time>2016-10-22T05:34:58Z</time>
      </trkpt>
      <trkpt lat="42.485029000" lon="-2.505034000">
        <ele>497.00</ele>
        <time>2016-10-22T05:34:59Z</time>
      </trkpt>
      <trkpt lat="42.485047000" lon="-2.505091000">
        <ele>497.00</ele>
        <time>2016-10-22T05:35:00Z</time>
      </trkpt>
      <trkpt lat="42.485062000" lon="-2.505152000">
        <ele>496.90</ele>
        <time>2016-10-22T05:35:01Z</time>
      </trkpt>
      <trkpt lat="42.485078000" lon="-2.505220000">
        <ele>496.80</ele>
        <time>2016-10-22T05:35:02Z</time>
      </trkpt>
      <trkpt lat="42.485086000" lon="-2.505290000">
        <ele>496.70</ele>
        <time>2016-10-22T05:35:03Z</time>
      </trkpt>
      <trkpt lat="42.485095000" lon="-2.505361000">
        <ele>496.50</ele>
        <time>2016-10-22T05:35:04Z</time>
      </trkpt>
      <trkpt lat="42.485098000" lon="-2.505432000">
        <ele>496.30</ele>
        <time>2016-10-22T05:35:05Z</time>
      </trkpt>
      <trkpt lat="42.485098000" lon="-2.505505000">
        <ele>495.80</ele>
        <time>2016-10-22T05:35:06Z</time>
      </trkpt>
      <trkpt lat="42.485097000" lon="-2.505577000">
        <ele>495.50</ele>
        <time>2016-10-22T05:35:07Z</time>
      </trkpt>
      <trkpt lat="42.485100000" lon="-2.505646000">
        <ele>495.20</ele>
        <time>2016-10-22T05:35:08Z</time>
      </trkpt>
      <trkpt lat="42.485104000" lon="-2.505718000">
        <ele>495.10</ele>
        <time>2016-10-22T05:35:09Z</time>
      </trkpt>
      <trkpt lat="42.485108000" lon="-2.505788000">
        <ele>494.90</ele>
        <time>2016-10-22T05:35:10Z</time>
      </trkpt>
      <trkpt lat="42.485116000" lon="-2.505859000">
        <ele>494.80</ele>
        <time>2016-10-22T05:35:11Z</time>
      </trkpt>
      <trkpt lat="42.485125000" lon="-2.505925000">
        <ele>494.70</ele>
        <time>2016-10-22T05:35:12Z</time>
      </trkpt>
      <trkpt lat="42.485135000" lon="-2.505996000">
        <ele>494.50</ele>
        <time>2016-10-22T05:35:13Z</time>
      </trkpt>
      <trkpt lat="42.485145000" lon="-2.506064000">
        <ele>494.50</ele>
        <time>2016-10-22T05:35:14Z</time>
      </trkpt>
      <trkpt lat="42.485157000" lon="-2.506133000">
        <ele>494.40</ele>
        <time>2016-10-22T05:35:15Z</time>
      </trkpt>
      <trkpt lat="42.485162000" lon="-2.506205000">
        <ele>494.20</ele>
        <time>2016-10-22T05:35:16Z</time>
      </trkpt>
      <trkpt lat="42.485166000" lon="-2.506281000">
        <ele>494.00</ele>
        <time>2016-10-22T05:35:17Z</time>
      </trkpt>
      <trkpt lat="42.485172000" lon="-2.506362000">
        <ele>493.40</ele>
        <time>2016-10-22T05:35:18Z</time>
      </trkpt>
      <trkpt lat="42.485177000" lon="-2.506449000">
        <ele>493.00</ele>
        <time>2016-10-22T05:35:19Z</time>
      </trkpt>
      <trkpt lat="42.485186000" lon="-2.506541000">
        <ele>492.60</ele>
        <time>2016-10-22T05:35:20Z</time>
      </trkpt>
      <trkpt lat="42.485195000" lon="-2.506638000">
        <ele>492.30</ele>
        <time>2016-10-22T05:35:21Z</time>
      </trkpt>
      <trkpt lat="42.485206000" lon="-2.506738000">
        <ele>491.90</ele>
        <time>2016-10-22T05:35:22Z</time>
      </trkpt>
      <trkpt lat="42.485211000" lon="-2.506839000">
        <ele>491.70</ele>
        <time>2016-10-22T05:35:23Z</time>
      </trkpt>
      <trkpt lat="42.485220000" lon="-2.506940000">
        <ele>491.30</ele>
        <time>2016-10-22T05:35:24Z</time>
      </trkpt>
      <trkpt lat="42.485225000" lon="-2.507039000">
        <ele>491.00</ele>
        <time>2016-10-22T05:35:25Z</time>
      </trkpt>
      <trkpt lat="42.485235000" lon="-2.507135000">
        <ele>490.50</ele>
        <time>2016-10-22T05:35:26Z</time>
      </trkpt>
      <trkpt lat="42.485249000" lon="-2.507228000">
        <ele>490.10</ele>
        <time>2016-10-22T05:35:27Z</time>
      </trkpt>
      <trkpt lat="42.485259000" lon="-2.507321000">
        <ele>489.70</ele>
        <time>2016-10-22T05:35:28Z</time>
      </trkpt>
      <trkpt lat="42.485272000" lon="-2.507412000">
        <ele>489.40</ele>
        <time>2016-10-22T05:35:29Z</time>
      </trkpt>
      <trkpt lat="42.485291000" lon="-2.507496000">
        <ele>489.20</ele>
        <time>2016-10-22T05:35:30Z</time>
      </trkpt>
      <trkpt lat="42.485311000" lon="-2.507577000">
        <ele>489.10</ele>
        <time>2016-10-22T05:35:31Z</time>
      </trkpt>
      <trkpt lat="42.485334000" lon="-2.507654000">
        <ele>489.00</ele>
        <time>2016-10-22T05:35:32Z</time>
      </trkpt>
      <trkpt lat="42.485356000" lon="-2.507731000">
        <ele>489.00</ele>
        <time>2016-10-22T05:35:33Z</time>
      </trkpt>
      <trkpt lat="42.485383000" lon="-2.507804000">
        <ele>489.00</ele>
        <time>2016-10-22T05:35:34Z</time>
      </trkpt>
      <trkpt lat="42.485430000" lon="-2.507945000">
        <ele>488.90</ele>
        <time>2016-10-22T05:35:36Z</time>
      </trkpt>
      <trkpt lat="42.485454000" lon="-2.508015000">
        <ele>488.70</ele>
        <time>2016-10-22T05:35:37Z</time>
      </trkpt>
      <trkpt lat="42.485480000" lon="-2.508077000">
        <ele>488.60</ele>
        <time>2016-10-22T05:35:38Z</time>
      </trkpt>
      <trkpt lat="42.485508000" lon="-2.508135000">
        <ele>488.50</ele>
        <time>2016-10-22T05:35:39Z</time>
      </trkpt>
      <trkpt lat="42.485540000" lon="-2.508187000">
        <ele>488.50</ele>
        <time>2016-10-22T05:35:40Z</time>
      </trkpt>
      <trkpt lat="42.485573000" lon="-2.508238000">
        <ele>488.40</ele>
        <time>2016-10-22T05:35:41Z</time>
      </trkpt>
      <trkpt lat="42.485609000" lon="-2.508285000">
        <ele>488.40</ele>
        <time>2016-10-22T05:35:42Z</time>
      </trkpt>
      <trkpt lat="42.485641000" lon="-2.508333000">
        <ele>488.40</ele>
        <time>2016-10-22T05:35:43Z</time>
      </trkpt>
      <trkpt lat="42.485672000" lon="-2.508384000">
        <ele>488.40</ele>
        <time>2016-10-22T05:35:44Z</time>
      </trkpt>
      <trkpt lat="42.485701000" lon="-2.508434000">
        <ele>488.50</ele>
        <time>2016-10-22T05:35:45Z</time>
      </trkpt>
      <trkpt lat="42.485728000" lon="-2.508485000">
        <ele>488.50</ele>
        <time>2016-10-22T05:35:46Z</time>
      </trkpt>
      <trkpt lat="42.485746000" lon="-2.508543000">
        <ele>488.40</ele>
        <time>2016-10-22T05:35:47Z</time>
      </trkpt>
      <trkpt lat="42.485766000" lon="-2.508598000">
        <ele>488.40</ele>
        <time>2016-10-22T05:35:48Z</time>
      </trkpt>
      <trkpt lat="42.485782000" lon="-2.508655000">
        <ele>488.40</ele>
        <time>2016-10-22T05:35:49Z</time>
      </trkpt>
      <trkpt lat="42.485800000" lon="-2.508713000">
        <ele>488.30</ele>
        <time>2016-10-22T05:35:50Z</time>
      </trkpt>
      <trkpt lat="42.485812000" lon="-2.508769000">
        <ele>488.30</ele>
        <time>2016-10-22T05:35:51Z</time>
      </trkpt>
      <trkpt lat="42.485829000" lon="-2.508826000">
        <ele>488.30</ele>
        <time>2016-10-22T05:35:52Z</time>
      </trkpt>
      <trkpt lat="42.485845000" lon="-2.508882000">
        <ele>488.30</ele>
        <time>2016-10-22T05:35:53Z</time>
      </trkpt>
      <trkpt lat="42.485860000" lon="-2.508939000">
        <ele>488.30</ele>
        <time>2016-10-22T05:35:54Z</time>
      </trkpt>
      <trkpt lat="42.485879000" lon="-2.508993000">
        <ele>488.20</ele>
        <time>2016-10-22T05:35:55Z</time>
      </trkpt>
      <trkpt lat="42.485905000" lon="-2.509044000">
        <ele>488.20</ele>
        <time>2016-10-22T05:35:56Z</time>
      </trkpt>
      <trkpt lat="42.485932000" lon="-2.509094000">
        <ele>488.10</ele>
        <time>2016-10-22T05:35:57Z</time>
      </trkpt>
      <trkpt lat="42.485961000" lon="-2.509140000">
        <ele>488.10</ele>
        <time>2016-10-22T05:35:58Z</time>
      </trkpt>
      <trkpt lat="42.485991000" lon="-2.509184000">
        <ele>488.00</ele>
        <time>2016-10-22T05:35:59Z</time>
      </trkpt>
      <trkpt lat="42.486021000" lon="-2.509228000">
        <ele>487.90</ele>
        <time>2016-10-22T05:36:00Z</time>
      </trkpt>
      <trkpt lat="42.486052000" lon="-2.509274000">
        <ele>487.90</ele>
        <time>2016-10-22T05:36:01Z</time>
      </trkpt>
      <trkpt lat="42.486082000" lon="-2.509318000">
        <ele>487.90</ele>
        <time>2016-10-22T05:36:02Z</time>
      </trkpt>
      <trkpt lat="42.486110000" lon="-2.509360000">
        <ele>487.90</ele>
        <time>2016-10-22T05:36:03Z</time>
      </trkpt>
      <trkpt lat="42.486127000" lon="-2.509407000">
        <ele>487.90</ele>
        <time>2016-10-22T05:36:04Z</time>
      </trkpt>
      <trkpt lat="42.486138000" lon="-2.509459000">
        <ele>487.90</ele>
        <time>2016-10-22T05:36:05Z</time>
      </trkpt>
      <trkpt lat="42.486142000" lon="-2.509515000">
        <ele>487.90</ele>
        <time>2016-10-22T05:36:06Z</time>
      </trkpt>
      <trkpt lat="42.486137000" lon="-2.509570000">
        <ele>487.90</ele>
        <time>2016-10-22T05:36:07Z</time>
      </trkpt>
      <trkpt lat="42.486129000" lon="-2.509626000">
        <ele>487.90</ele>
        <time>2016-10-22T05:36:08Z</time>
      </trkpt>
      <trkpt lat="42.486118000" lon="-2.509679000">
        <ele>488.20</ele>
        <time>2016-10-22T05:36:09Z</time>
      </trkpt>
      <trkpt lat="42.486103000" lon="-2.509735000">
        <ele>488.40</ele>
        <time>2016-10-22T05:36:10Z</time>
      </trkpt>
      <trkpt lat="42.486090000" lon="-2.509788000">
        <ele>488.50</ele>
        <time>2016-10-22T05:36:11Z</time>
      </trkpt>
      <trkpt lat="42.486076000" lon="-2.509844000">
        <ele>488.50</ele>
        <time>2016-10-22T05:36:12Z</time>
      </trkpt>
      <trkpt lat="42.486067000" lon="-2.509896000">
        <ele>488.60</ele>
        <time>2016-10-22T05:36:13Z</time>
      </trkpt>
      <trkpt lat="42.486061000" lon="-2.509953000">
        <ele>488.70</ele>
        <time>2016-10-22T05:36:14Z</time>
      </trkpt>
      <trkpt lat="42.486054000" lon="-2.510007000">
        <ele>488.80</ele>
        <time>2016-10-22T05:36:15Z</time>
      </trkpt>
      <trkpt lat="42.486050000" lon="-2.510058000">
        <ele>488.80</ele>
        <time>2016-10-22T05:36:16Z</time>
      </trkpt>
      <trkpt lat="42.486049000" lon="-2.510105000">
        <ele>488.90</ele>
        <time>2016-10-22T05:36:17Z</time>
      </trkpt>
      <trkpt lat="42.486049000" lon="-2.510148000">
        <ele>489.00</ele>
        <time>2016-10-22T05:36:18Z</time>
      </trkpt>
      <trkpt lat="42.486046000" lon="-2.510193000">
        <ele>489.00</ele>
        <time>2016-10-22T05:36:19Z</time>
      </trkpt>
      <trkpt lat="42.486048000" lon="-2.510236000">
        <ele>489.00</ele>
        <time>2016-10-22T05:36:20Z</time>
      </trkpt>
      <trkpt lat="42.486052000" lon="-2.510281000">
        <ele>489.30</ele>
        <time>2016-10-22T05:36:21Z</time>
      </trkpt>
      <trkpt lat="42.486054000" lon="-2.510327000">
        <ele>489.50</ele>
        <time>2016-10-22T05:36:22Z</time>
      </trkpt>
      <trkpt lat="42.486055000" lon="-2.510371000">
        <ele>489.70</ele>
        <time>2016-10-22T05:36:23Z</time>
      </trkpt>
      <trkpt lat="42.486056000" lon="-2.510416000">
        <ele>489.80</ele>
        <time>2016-10-22T05:36:24Z</time>
      </trkpt>
      <trkpt lat="42.486052000" lon="-2.510463000">
        <ele>490.00</ele>
        <time>2016-10-22T05:36:25Z</time>
      </trkpt>
      <trkpt lat="42.486047000" lon="-2.510507000">
        <ele>490.10</ele>
        <time>2016-10-22T05:36:26Z</time>
      </trkpt>
      <trkpt lat="42.486046000" lon="-2.510551000">
        <ele>490.20</ele>
        <time>2016-10-22T05:36:27Z</time>
      </trkpt>
      <trkpt lat="42.486050000" lon="-2.510595000">
        <ele>490.20</ele>
        <time>2016-10-22T05:36:28Z</time>
      </trkpt>
      <trkpt lat="42.486050000" lon="-2.510636000">
        <ele>490.30</ele>
        <time>2016-10-22T05:36:29Z</time>
      </trkpt>
      <trkpt lat="42.486054000" lon="-2.510679000">
        <ele>490.30</ele>
        <time>2016-10-22T05:36:30Z</time>
      </trkpt>
      <trkpt lat="42.486061000" lon="-2.510716000">
        <ele>490.20</ele>
        <time>2016-10-22T05:36:31Z</time>
      </trkpt>
      <trkpt lat="42.486070000" lon="-2.510755000">
        <ele>490.20</ele>
        <time>2016-10-22T05:36:32Z</time>
      </trkpt>
      <trkpt lat="42.486078000" lon="-2.510797000">
        <ele>490.10</ele>
        <time>2016-10-22T05:36:33Z</time>
      </trkpt>
      <trkpt lat="42.486094000" lon="-2.510840000">
        <ele>490.10</ele>
        <time>2016-10-22T05:36:34Z</time>
      </trkpt>
      <trkpt lat="42.486112000" lon="-2.510887000">
        <ele>490.20</ele>
        <time>2016-10-22T05:36:35Z</time>
      </trkpt>
      <trkpt lat="42.486162000" lon="-2.510980000">
        <ele>490.30</ele>
        <time>2016-10-22T05:36:37Z</time>
      </trkpt>
      <trkpt lat="42.486193000" lon="-2.511032000">
        <ele>490.30</ele>
        <time>2016-10-22T05:36:38Z</time>
      </trkpt>
      <trkpt lat="42.486225000" lon="-2.511086000">
        <ele>489.70</ele>
        <time>2016-10-22T05:36:39Z</time>
      </trkpt>
      <trkpt lat="42.486256000" lon="-2.511145000">
        <ele>489.30</ele>
        <time>2016-10-22T05:36:40Z</time>
      </trkpt>
      <trkpt lat="42.486288000" lon="-2.511205000">
        <ele>488.90</ele>
        <time>2016-10-22T05:36:41Z</time>
      </trkpt>
      <trkpt lat="42.486319000" lon="-2.511268000">
        <ele>488.60</ele>
        <time>2016-10-22T05:36:42Z</time>
      </trkpt>
      <trkpt lat="42.486354000" lon="-2.511334000">
        <ele>488.00</ele>
        <time>2016-10-22T05:36:43Z</time>
      </trkpt>
      <trkpt lat="42.486391000" lon="-2.511397000">
        <ele>487.60</ele>
        <time>2016-10-22T05:36:44Z</time>
      </trkpt>
      <trkpt lat="42.486426000" lon="-2.511464000">
        <ele>487.10</ele>
        <time>2016-10-22T05:36:45Z</time>
      </trkpt>
      <trkpt lat="42.486460000" lon="-2.511533000">
        <ele>486.80</ele>
        <time>2016-10-22T05:36:46Z</time>
      </trkpt>
      <trkpt lat="42.486495000" lon="-2.511606000">
        <ele>486.20</ele>
        <time>2016-10-22T05:36:47Z</time>
      </trkpt>
      <trkpt lat="42.486526000" lon="-2.511681000">
        <ele>485.80</ele>
        <time>2016-10-22T05:36:48Z</time>
      </trkpt>
      <trkpt lat="42.486556000" lon="-2.511762000">
        <ele>485.30</ele>
        <time>2016-10-22T05:36:49Z</time>
      </trkpt>
      <trkpt lat="42.486577000" lon="-2.511849000">
        <ele>484.90</ele>
        <time>2016-10-22T05:36:50Z</time>
      </trkpt>
      <trkpt lat="42.486595000" lon="-2.511943000">
        <ele>484.20</ele>
        <time>2016-10-22T05:36:51Z</time>
      </trkpt>
      <trkpt lat="42.486606000" lon="-2.512044000">
        <ele>483.70</ele>
        <time>2016-10-22T05:36:52Z</time>
      </trkpt>
      <trkpt lat="42.486605000" lon="-2.512148000">
        <ele>482.90</ele>
        <time>2016-10-22T05:36:53Z</time>
      </trkpt>
      <trkpt lat="42.486596000" lon="-2.512257000">
        <ele>482.30</ele>
        <time>2016-10-22T05:36:54Z</time>
      </trkpt>
      <trkpt lat="42.486586000" lon="-2.512360000">
        <ele>481.60</ele>
        <time>2016-10-22T05:36:55Z</time>
      </trkpt>
      <trkpt lat="42.486584000" lon="-2.512464000">
        <ele>481.00</ele>
        <time>2016-10-22T05:36:56Z</time>
      </trkpt>
      <trkpt lat="42.486593000" lon="-2.512574000">
        <ele>480.50</ele>
        <time>2016-10-22T05:36:57Z</time>
      </trkpt>
      <trkpt lat="42.486616000" lon="-2.512676000">
        <ele>480.10</ele>
        <time>2016-10-22T05:36:58Z</time>
      </trkpt>
      <trkpt lat="42.486641000" lon="-2.512785000">
        <ele>479.30</ele>
        <time>2016-10-22T05:36:59Z</time>
      </trkpt>
      <trkpt lat="42.486673000" lon="-2.512894000">
        <ele>478.80</ele>
        <time>2016-10-22T05:37:00Z</time>
      </trkpt>
      <trkpt lat="42.486712000" lon="-2.513000000">
        <ele>477.80</ele>
        <time>2016-10-22T05:37:01Z</time>
      </trkpt>
      <trkpt lat="42.486751000" lon="-2.513104000">
        <ele>477.10</ele>
        <time>2016-10-22T05:37:02Z</time>
      </trkpt>
      <trkpt lat="42.486775000" lon="-2.513210000">
        <ele>476.10</ele>
        <time>2016-10-22T05:37:03Z</time>
      </trkpt>
      <trkpt lat="42.486782000" lon="-2.513321000">
        <ele>475.30</ele>
        <time>2016-10-22T05:37:04Z</time>
      </trkpt>
      <trkpt lat="42.486785000" lon="-2.513431000">
        <ele>474.50</ele>
        <time>2016-10-22T05:37:05Z</time>
      </trkpt>
      <trkpt lat="42.486780000" lon="-2.513544000">
        <ele>473.90</ele>
        <time>2016-10-22T05:37:06Z</time>
      </trkpt>
      <trkpt lat="42.486773000" lon="-2.513659000">
        <ele>473.00</ele>
        <time>2016-10-22T05:37:07Z</time>
      </trkpt>
      <trkpt lat="42.486764000" lon="-2.513782000">
        <ele>472.30</ele>
        <time>2016-10-22T05:37:08Z</time>
      </trkpt>
      <trkpt lat="42.486754000" lon="-2.513909000">
        <ele>471.30</ele>
        <time>2016-10-22T05:37:09Z</time>
      </trkpt>
      <trkpt lat="42.486733000" lon="-2.514041000">
        <ele>470.50</ele>
        <time>2016-10-22T05:37:10Z</time>
      </trkpt>
      <trkpt lat="42.486701000" lon="-2.514170000">
        <ele>469.60</ele>
        <time>2016-10-22T05:37:11Z</time>
      </trkpt>
      <trkpt lat="42.486673000" lon="-2.514293000">
        <ele>468.90</ele>
        <time>2016-10-22T05:37:12Z</time>
      </trkpt>
      <trkpt lat="42.486655000" lon="-2.514417000">
        <ele>468.20</ele>
        <time>2016-10-22T05:37:13Z</time>
      </trkpt>
      <trkpt lat="42.486641000" lon="-2.514547000">
        <ele>467.70</ele>
        <time>2016-10-22T05:37:14Z</time>
      </trkpt>
      <trkpt lat="42.486634000" lon="-2.514677000">
        <ele>466.70</ele>
        <time>2016-10-22T05:37:15Z</time>
      </trkpt>
      <trkpt lat="42.486633000" lon="-2.514805000">
        <ele>465.90</ele>
        <time>2016-10-22T05:37:16Z</time>
      </trkpt>
      <trkpt lat="42.486639000" lon="-2.514934000">
        <ele>464.80</ele>
        <time>2016-10-22T05:37:17Z</time>
      </trkpt>
      <trkpt lat="42.486653000" lon="-2.515061000">
        <ele>464.00</ele>
        <time>2016-10-22T05:37:18Z</time>
      </trkpt>
      <trkpt lat="42.486668000" lon="-2.515185000">
        <ele>462.90</ele>
        <time>2016-10-22T05:37:19Z</time>
      </trkpt>
      <trkpt lat="42.486689000" lon="-2.515311000">
        <ele>462.20</ele>
        <time>2016-10-22T05:37:20Z</time>
      </trkpt>
      <trkpt lat="42.486706000" lon="-2.515439000">
        <ele>461.50</ele>
        <time>2016-10-22T05:37:21Z</time>
      </trkpt>
      <trkpt lat="42.486718000" lon="-2.515566000">
        <ele>461.00</ele>
        <time>2016-10-22T05:37:22Z</time>
      </trkpt>
      <trkpt lat="42.486731000" lon="-2.515693000">
        <ele>459.80</ele>
        <time>2016-10-22T05:37:23Z</time>
      </trkpt>
      <trkpt lat="42.486750000" lon="-2.515818000">
        <ele>459.00</ele>
        <time>2016-10-22T05:37:24Z</time>
      </trkpt>
      <trkpt lat="42.486776000" lon="-2.515947000">
        <ele>458.30</ele>
        <time>2016-10-22T05:37:25Z</time>
      </trkpt>
      <trkpt lat="42.486809000" lon="-2.516070000">
        <ele>457.80</ele>
        <time>2016-10-22T05:37:26Z</time>
      </trkpt>
      <trkpt lat="42.486847000" lon="-2.516191000">
        <ele>456.90</ele>
        <time>2016-10-22T05:37:27Z</time>
      </trkpt>
      <trkpt lat="42.486889000" lon="-2.516310000">
        <ele>456.20</ele>
        <time>2016-10-22T05:37:28Z</time>
      </trkpt>
      <trkpt lat="42.486935000" lon="-2.516424000">
        <ele>455.30</ele>
        <time>2016-10-22T05:37:29Z</time>
      </trkpt>
      <trkpt lat="42.486982000" lon="-2.516537000">
        <ele>454.70</ele>
        <time>2016-10-22T05:37:30Z</time>
      </trkpt>
      <trkpt lat="42.487032000" lon="-2.516651000">
        <ele>454.00</ele>
        <time>2016-10-22T05:37:31Z</time>
      </trkpt>
      <trkpt lat="42.487084000" lon="-2.516768000">
        <ele>453.50</ele>
        <time>2016-10-22T05:37:32Z</time>
      </trkpt>
      <trkpt lat="42.487134000" lon="-2.516885000">
        <ele>452.80</ele>
        <time>2016-10-22T05:37:33Z</time>
      </trkpt>
      <trkpt lat="42.487191000" lon="-2.516998000">
        <ele>452.20</ele>
        <time>2016-10-22T05:37:34Z</time>
      </trkpt>
      <trkpt lat="42.487251000" lon="-2.517114000">
        <ele>451.50</ele>
        <time>2016-10-22T05:37:35Z</time>
      </trkpt>
      <trkpt lat="42.487314000" lon="-2.517231000">
        <ele>451.00</ele>
        <time>2016-10-22T05:37:36Z</time>
      </trkpt>
      <trkpt lat="42.487377000" lon="-2.517349000">
        <ele>450.40</ele>
        <time>2016-10-22T05:37:37Z</time>
      </trkpt>
      <trkpt lat="42.487518000" lon="-2.517571000">
        <ele>449.00</ele>
        <time>2016-10-22T05:37:39Z</time>
      </trkpt>
      <trkpt lat="42.487598000" lon="-2.517659000">
        <ele>448.20</ele>
        <time>2016-10-22T05:37:40Z</time>
      </trkpt>
      <trkpt lat="42.487681000" lon="-2.517742000">
        <ele>447.40</ele>
        <time>2016-10-22T05:37:41Z</time>
      </trkpt>
      <trkpt lat="42.487764000" lon="-2.517820000">
        <ele>446.70</ele>
        <time>2016-10-22T05:37:42Z</time>
      </trkpt>
      <trkpt lat="42.487845000" lon="-2.517896000">
        <ele>446.00</ele>
        <time>2016-10-22T05:37:43Z</time>
      </trkpt>
      <trkpt lat="42.487922000" lon="-2.517973000">
        <ele>445.50</ele>
        <time>2016-10-22T05:37:44Z</time>
      </trkpt>
      <trkpt lat="42.488000000" lon="-2.518038000">
        <ele>444.60</ele>
        <time>2016-10-22T05:37:45Z</time>
      </trkpt>
      <trkpt lat="42.488085000" lon="-2.518088000">
        <ele>443.90</ele>
        <time>2016-10-22T05:37:46Z</time>
      </trkpt>
      <trkpt lat="42.488176000" lon="-2.518128000">
        <ele>443.00</ele>
        <time>2016-10-22T05:37:47Z</time>
      </trkpt>
      <trkpt lat="42.488269000" lon="-2.518158000">
        <ele>442.40</ele>
        <time>2016-10-22T05:37:48Z</time>
      </trkpt>
      <trkpt lat="42.488364000" lon="-2.518182000">
        <ele>441.80</ele>
        <time>2016-10-22T05:37:49Z</time>
      </trkpt>
      <trkpt lat="42.488458000" lon="-2.518203000">
        <ele>441.40</ele>
        <time>2016-10-22T05:37:50Z</time>
      </trkpt>
      <trkpt lat="42.488551000" lon="-2.518223000">
        <ele>440.40</ele>
        <time>2016-10-22T05:37:51Z</time>
      </trkpt>
      <trkpt lat="42.488638000" lon="-2.518244000">
        <ele>439.60</ele>
        <time>2016-10-22T05:37:52Z</time>
      </trkpt>
      <trkpt lat="42.488721000" lon="-2.518262000">
        <ele>438.80</ele>
        <time>2016-10-22T05:37:53Z</time>
      </trkpt>
      <trkpt lat="42.488804000" lon="-2.518279000">
        <ele>438.30</ele>
        <time>2016-10-22T05:37:54Z</time>
      </trkpt>
      <trkpt lat="42.488889000" lon="-2.518294000">
        <ele>437.30</ele>
        <time>2016-10-22T05:37:55Z</time>
      </trkpt>
      <trkpt lat="42.488977000" lon="-2.518304000">
        <ele>436.60</ele>
        <time>2016-10-22T05:37:56Z</time>
      </trkpt>
      <trkpt lat="42.489068000" lon="-2.518312000">
        <ele>435.90</ele>
        <time>2016-10-22T05:37:57Z</time>
      </trkpt>
      <trkpt lat="42.489161000" lon="-2.518321000">
        <ele>435.40</ele>
        <time>2016-10-22T05:37:58Z</time>
      </trkpt>
      <trkpt lat="42.489250000" lon="-2.518329000">
        <ele>434.90</ele>
        <time>2016-10-22T05:37:59Z</time>
      </trkpt>
      <trkpt lat="42.489337000" lon="-2.518335000">
        <ele>434.60</ele>
        <time>2016-10-22T05:38:00Z</time>
      </trkpt>
      <trkpt lat="42.489422000" lon="-2.518338000">
        <ele>433.90</ele>
        <time>2016-10-22T05:38:01Z</time>
      </trkpt>
      <trkpt lat="42.489506000" lon="-2.518340000">
        <ele>433.50</ele>
        <time>2016-10-22T05:38:02Z</time>
      </trkpt>
      <trkpt lat="42.489590000" lon="-2.518344000">
        <ele>432.60</ele>
        <time>2016-10-22T05:38:03Z</time>
      </trkpt>
      <trkpt lat="42.489673000" lon="-2.518348000">
        <ele>431.90</ele>
        <time>2016-10-22T05:38:04Z</time>
      </trkpt>
      <trkpt lat="42.489758000" lon="-2.518350000">
        <ele>431.40</ele>
        <time>2016-10-22T05:38:05Z</time>
      </trkpt>
      <trkpt lat="42.489839000" lon="-2.518353000">
        <ele>431.00</ele>
        <time>2016-10-22T05:38:06Z</time>
      </trkpt>
      <trkpt lat="42.489920000" lon="-2.518357000">
        <ele>430.50</ele>
        <time>2016-10-22T05:38:07Z</time>
      </trkpt>
      <trkpt lat="42.489997000" lon="-2.518366000">
        <ele>430.20</ele>
        <time>2016-10-22T05:38:08Z</time>
      </trkpt>
      <trkpt lat="42.490073000" lon="-2.518379000">
        <ele>429.90</ele>
        <time>2016-10-22T05:38:09Z</time>
      </trkpt>
      <trkpt lat="42.490147000" lon="-2.518400000">
        <ele>429.70</ele>
        <time>2016-10-22T05:38:10Z</time>
      </trkpt>
      <trkpt lat="42.490216000" lon="-2.518427000">
        <ele>429.10</ele>
        <time>2016-10-22T05:38:11Z</time>
      </trkpt>
      <trkpt lat="42.490278000" lon="-2.518470000">
        <ele>428.60</ele>
        <time>2016-10-22T05:38:12Z</time>
      </trkpt>
      <trkpt lat="42.490338000" lon="-2.518522000">
        <ele>428.10</ele>
        <time>2016-10-22T05:38:13Z</time>
      </trkpt>
      <trkpt lat="42.490398000" lon="-2.518576000">
        <ele>427.80</ele>
        <time>2016-10-22T05:38:14Z</time>
      </trkpt>
      <trkpt lat="42.490459000" lon="-2.518632000">
        <ele>426.90</ele>
        <time>2016-10-22T05:38:15Z</time>
      </trkpt>
      <trkpt lat="42.490521000" lon="-2.518684000">
        <ele>426.30</ele>
        <time>2016-10-22T05:38:16Z</time>
      </trkpt>
      <trkpt lat="42.490584000" lon="-2.518728000">
        <ele>425.70</ele>
        <time>2016-10-22T05:38:17Z</time>
      </trkpt>
      <trkpt lat="42.490648000" lon="-2.518770000">
        <ele>425.30</ele>
        <time>2016-10-22T05:38:18Z</time>
      </trkpt>
      <trkpt lat="42.490713000" lon="-2.518807000">
        <ele>424.80</ele>
        <time>2016-10-22T05:38:19Z</time>
      </trkpt>
      <trkpt lat="42.490776000" lon="-2.518844000">
        <ele>424.50</ele>
        <time>2016-10-22T05:38:20Z</time>
      </trkpt>
      <trkpt lat="42.490835000" lon="-2.518879000">
        <ele>424.10</ele>
        <time>2016-10-22T05:38:21Z</time>
      </trkpt>
      <trkpt lat="42.490894000" lon="-2.518914000">
        <ele>423.90</ele>
        <time>2016-10-22T05:38:22Z</time>
      </trkpt>
      <trkpt lat="42.490950000" lon="-2.518945000">
        <ele>423.60</ele>
        <time>2016-10-22T05:38:23Z</time>
      </trkpt>
      <trkpt lat="42.491005000" lon="-2.518974000">
        <ele>423.30</ele>
        <time>2016-10-22T05:38:24Z</time>
      </trkpt>
      <trkpt lat="42.491056000" lon="-2.519000000">
        <ele>423.10</ele>
        <time>2016-10-22T05:38:25Z</time>
      </trkpt>
      <trkpt lat="42.491102000" lon="-2.519024000">
        <ele>422.90</ele>
        <time>2016-10-22T05:38:26Z</time>
      </trkpt>
      <trkpt lat="42.491147000" lon="-2.519050000">
        <ele>422.70</ele>
        <time>2016-10-22T05:38:27Z</time>
      </trkpt>
      <trkpt lat="42.491187000" lon="-2.519073000">
        <ele>422.50</ele>
        <time>2016-10-22T05:38:28Z</time>
      </trkpt>
      <trkpt lat="42.491221000" lon="-2.519099000">
        <ele>422.20</ele>
        <time>2016-10-22T05:38:29Z</time>
      </trkpt>
      <trkpt lat="42.491251000" lon="-2.519126000">
        <ele>422.00</ele>
        <time>2016-10-22T05:38:30Z</time>
      </trkpt>
      <trkpt lat="42.491281000" lon="-2.519150000">
        <ele>421.80</ele>
        <time>2016-10-22T05:38:31Z</time>
      </trkpt>
      <trkpt lat="42.491308000" lon="-2.519174000">
        <ele>421.70</ele>
        <time>2016-10-22T05:38:32Z</time>
      </trkpt>
      <trkpt lat="42.491333000" lon="-2.519199000">
        <ele>421.60</ele>
        <time>2016-10-22T05:38:33Z</time>
      </trkpt>
      <trkpt lat="42.491358000" lon="-2.519223000">
        <ele>421.60</ele>
        <time>2016-10-22T05:38:34Z</time>
      </trkpt>
      <trkpt lat="42.491388000" lon="-2.519244000">
        <ele>421.50</ele>
        <time>2016-10-22T05:38:35Z</time>
      </trkpt>
      <trkpt lat="42.491411000" lon="-2.519267000">
        <ele>421.40</ele>
        <time>2016-10-22T05:38:36Z</time>
      </trkpt>
      <trkpt lat="42.491434000" lon="-2.519291000">
        <ele>421.40</ele>
        <time>2016-10-22T05:38:37Z</time>
      </trkpt>
      <trkpt lat="42.491458000" lon="-2.519319000">
        <ele>421.40</ele>
        <time>2016-10-22T05:38:38Z</time>
      </trkpt>
      <trkpt lat="42.491480000" lon="-2.519348000">
        <ele>421.20</ele>
        <time>2016-10-22T05:38:39Z</time>
      </trkpt>
      <trkpt lat="42.491523000" lon="-2.519410000">
        <ele>421.00</ele>
        <time>2016-10-22T05:38:41Z</time>
      </trkpt>
      <trkpt lat="42.491541000" lon="-2.519442000">
        <ele>421.00</ele>
        <time>2016-10-22T05:38:42Z</time>
      </trkpt>
      <trkpt lat="42.491557000" lon="-2.519477000">
        <ele>420.90</ele>
        <time>2016-10-22T05:38:43Z</time>
      </trkpt>
      <trkpt lat="42.491570000" lon="-2.519510000">
        <ele>420.90</ele>
        <time>2016-10-22T05:38:44Z</time>
      </trkpt>
      <trkpt lat="42.491579000" lon="-2.519542000">
        <ele>420.90</ele>
        <time>2016-10-22T05:38:45Z</time>
      </trkpt>
      <trkpt lat="42.491587000" lon="-2.519571000">
        <ele>421.00</ele>
        <time>2016-10-22T05:38:46Z</time>
      </trkpt>
      <trkpt lat="42.491592000" lon="-2.519600000">
        <ele>420.80</ele>
        <time>2016-10-22T05:38:47Z</time>
      </trkpt>
      <trkpt lat="42.491598000" lon="-2.519628000">
        <ele>420.80</ele>
        <time>2016-10-22T05:38:48Z</time>
      </trkpt>
      <trkpt lat="42.491601000" lon="-2.519655000">
        <ele>420.70</ele>
        <time>2016-10-22T05:38:49Z</time>
      </trkpt>
      <trkpt lat="42.491603000" lon="-2.519682000">
        <ele>420.70</ele>
        <time>2016-10-22T05:38:50Z</time>
      </trkpt>
      <trkpt lat="42.491608000" lon="-2.519708000">
        <ele>420.40</ele>
        <time>2016-10-22T05:38:51Z</time>
      </trkpt>
      <trkpt lat="42.491610000" lon="-2.519734000">
        <ele>420.30</ele>
        <time>2016-10-22T05:38:52Z</time>
      </trkpt>
      <trkpt lat="42.491609000" lon="-2.519759000">
        <ele>420.10</ele>
        <time>2016-10-22T05:38:53Z</time>
      </trkpt>
      <trkpt lat="42.491612000" lon="-2.519783000">
        <ele>420.00</ele>
        <time>2016-10-22T05:38:54Z</time>
      </trkpt>
      <trkpt lat="42.491617000" lon="-2.519809000">
        <ele>420.00</ele>
        <time>2016-10-22T05:38:55Z</time>
      </trkpt>
      <trkpt lat="42.491623000" lon="-2.519836000">
        <ele>419.90</ele>
        <time>2016-10-22T05:38:56Z</time>
      </trkpt>
      <trkpt lat="42.491632000" lon="-2.519863000">
        <ele>419.90</ele>
        <time>2016-10-22T05:38:57Z</time>
      </trkpt>
      <trkpt lat="42.491642000" lon="-2.519893000">
        <ele>419.80</ele>
        <time>2016-10-22T05:38:58Z</time>
      </trkpt>
      <trkpt lat="42.491659000" lon="-2.519918000">
        <ele>419.90</ele>
        <time>2016-10-22T05:38:59Z</time>
      </trkpt>
      <trkpt lat="42.491676000" lon="-2.519943000">
        <ele>419.90</ele>
        <time>2016-10-22T05:39:00Z</time>
      </trkpt>
      <trkpt lat="42.491695000" lon="-2.519965000">
        <ele>420.10</ele>
        <time>2016-10-22T05:39:01Z</time>
      </trkpt>
      <trkpt lat="42.491714000" lon="-2.519984000">
        <ele>420.30</ele>
        <time>2016-10-22T05:39:02Z</time>
      </trkpt>
      <trkpt lat="42.491740000" lon="-2.520001000">
        <ele>420.20</ele>
        <time>2016-10-22T05:39:03Z</time>
      </trkpt>
      <trkpt lat="42.491765000" lon="-2.520021000">
        <ele>420.20</ele>
        <time>2016-10-22T05:39:04Z</time>
      </trkpt>
      <trkpt lat="42.491787000" lon="-2.520042000">
        <ele>420.20</ele>
        <time>2016-10-22T05:39:05Z</time>
      </trkpt>
      <trkpt lat="42.491806000" lon="-2.520067000">
        <ele>420.30</ele>
        <time>2016-10-22T05:39:06Z</time>
      </trkpt>
      <trkpt lat="42.491829000" lon="-2.520095000">
        <ele>420.20</ele>
        <time>2016-10-22T05:39:07Z</time>
      </trkpt>
      <trkpt lat="42.491857000" lon="-2.520120000">
        <ele>420.20</ele>
        <time>2016-10-22T05:39:08Z</time>
      </trkpt>
      <trkpt lat="42.491876000" lon="-2.520142000">
        <ele>420.20</ele>
        <time>2016-10-22T05:39:09Z</time>
      </trkpt>
      <trkpt lat="42.491909000" lon="-2.520161000">
        <ele>420.20</ele>
        <time>2016-10-22T05:39:10Z</time>
      </trkpt>
      <trkpt lat="42.491938000" lon="-2.520174000">
        <ele>420.00</ele>
        <time>2016-10-22T05:39:11Z</time>
      </trkpt>
      <trkpt lat="42.491966000" lon="-2.520187000">
        <ele>419.90</ele>
        <time>2016-10-22T05:39:12Z</time>
      </trkpt>
      <trkpt lat="42.491988000" lon="-2.520207000">
        <ele>419.80</ele>
        <time>2016-10-22T05:39:13Z</time>
      </trkpt>
      <trkpt lat="42.492004000" lon="-2.520234000">
        <ele>419.80</ele>
        <time>2016-10-22T05:39:14Z</time>
      </trkpt>
      <trkpt lat="42.492016000" lon="-2.520262000">
        <ele>419.80</ele>
        <time>2016-10-22T05:39:15Z</time>
      </trkpt>
      <trkpt lat="42.492027000" lon="-2.520294000">
        <ele>419.80</ele>
        <time>2016-10-22T05:39:16Z</time>
      </trkpt>
      <trkpt lat="42.492038000" lon="-2.520328000">
        <ele>419.90</ele>
        <time>2016-10-22T05:39:17Z</time>
      </trkpt>
      <trkpt lat="42.492051000" lon="-2.520359000">
        <ele>420.10</ele>
        <time>2016-10-22T05:39:18Z</time>
      </trkpt>
      <trkpt lat="42.492061000" lon="-2.520390000">
        <ele>420.20</ele>
        <time>2016-10-22T05:39:19Z</time>
      </trkpt>
      <trkpt lat="42.492077000" lon="-2.520419000">
        <ele>420.20</ele>
        <time>2016-10-22T05:39:20Z</time>
      </trkpt>
      <trkpt lat="42.492095000" lon="-2.520454000">
        <ele>420.10</ele>
        <time>2016-10-22T05:39:21Z</time>
      </trkpt>
      <trkpt lat="42.492109000" lon="-2.520487000">
        <ele>420.00</ele>
        <time>2016-10-22T05:39:22Z</time>
      </trkpt>
      <trkpt lat="42.492121000" lon="-2.520520000">
        <ele>419.90</ele>
        <time>2016-10-22T05:39:23Z</time>
      </trkpt>
      <trkpt lat="42.492139000" lon="-2.520543000">
        <ele>419.90</ele>
        <time>2016-10-22T05:39:24Z</time>
      </trkpt>
      <trkpt lat="42.492166000" lon="-2.520562000">
        <ele>420.10</ele>
        <time>2016-10-22T05:39:25Z</time>
      </trkpt>
      <trkpt lat="42.492186000" lon="-2.520564000">
        <ele>420.20</ele>
        <time>2016-10-22T05:39:26Z</time>
      </trkpt>
      <trkpt lat="42.492213000" lon="-2.520561000">
        <ele>420.40</ele>
        <time>2016-10-22T05:39:27Z</time>
      </trkpt>
      <trkpt lat="42.492244000" lon="-2.520551000">
        <ele>420.40</ele>
        <time>2016-10-22T05:39:28Z</time>
      </trkpt>
      <trkpt lat="42.492271000" lon="-2.520549000">
        <ele>420.30</ele>
        <time>2016-10-22T05:39:29Z</time>
      </trkpt>
      <trkpt lat="42.492298000" lon="-2.520546000">
        <ele>420.20</ele>
        <time>2016-10-22T05:39:30Z</time>
      </trkpt>
      <trkpt lat="42.492328000" lon="-2.520546000">
        <ele>420.10</ele>
        <time>2016-10-22T05:39:31Z</time>
      </trkpt>
      <trkpt lat="42.492357000" lon="-2.520549000">
        <ele>420.10</ele>
        <time>2016-10-22T05:39:32Z</time>
      </trkpt>
      <trkpt lat="42.492386000" lon="-2.520552000">
        <ele>420.00</ele>
        <time>2016-10-22T05:39:33Z</time>
      </trkpt>
      <trkpt lat="42.492414000" lon="-2.520553000">
        <ele>420.00</ele>
        <time>2016-10-22T05:39:34Z</time>
      </trkpt>
      <trkpt lat="42.492444000" lon="-2.520555000">
        <ele>420.00</ele>
        <time>2016-10-22T05:39:35Z</time>
      </trkpt>
      <trkpt lat="42.492473000" lon="-2.520550000">
        <ele>420.10</ele>
        <time>2016-10-22T05:39:36Z</time>
      </trkpt>
      <trkpt lat="42.492496000" lon="-2.520554000">
        <ele>420.00</ele>
        <time>2016-10-22T05:39:37Z</time>
      </trkpt>
      <trkpt lat="42.492516000" lon="-2.520563000">
        <ele>420.00</ele>
        <time>2016-10-22T05:39:38Z</time>
      </trkpt>
      <trkpt lat="42.492541000" lon="-2.520571000">
        <ele>420.00</ele>
        <time>2016-10-22T05:39:39Z</time>
      </trkpt>
      <trkpt lat="42.492568000" lon="-2.520580000">
        <ele>420.10</ele>
        <time>2016-10-22T05:39:40Z</time>
      </trkpt>
      <trkpt lat="42.492597000" lon="-2.520585000">
        <ele>420.20</ele>
        <time>2016-10-22T05:39:41Z</time>
      </trkpt>
      <trkpt lat="42.492655000" lon="-2.520595000">
        <ele>420.50</ele>
        <time>2016-10-22T05:39:43Z</time>
      </trkpt>
      <trkpt lat="42.492680000" lon="-2.520596000">
        <ele>420.60</ele>
        <time>2016-10-22T05:39:44Z</time>
      </trkpt>
      <trkpt lat="42.492706000" lon="-2.520601000">
        <ele>420.70</ele>
        <time>2016-10-22T05:39:45Z</time>
      </trkpt>
      <trkpt lat="42.492733000" lon="-2.520607000">
        <ele>420.80</ele>
        <time>2016-10-22T05:39:46Z</time>
      </trkpt>
      <trkpt lat="42.492759000" lon="-2.520612000">
        <ele>420.80</ele>
        <time>2016-10-22T05:39:47Z</time>
      </trkpt>
      <trkpt lat="42.492787000" lon="-2.520620000">
        <ele>420.80</ele>
        <time>2016-10-22T05:39:48Z</time>
      </trkpt>
      <trkpt lat="42.492816000" lon="-2.520624000">
        <ele>420.90</ele>
        <time>2016-10-22T05:39:49Z</time>
      </trkpt>
      <trkpt lat="42.492848000" lon="-2.520625000">
        <ele>420.90</ele>
        <time>2016-10-22T05:39:50Z</time>
      </trkpt>
      <trkpt lat="42.492878000" lon="-2.520633000">
        <ele>420.80</ele>
        <time>2016-10-22T05:39:51Z</time>
      </trkpt>
      <trkpt lat="42.492908000" lon="-2.520639000">
        <ele>420.70</ele>
        <time>2016-10-22T05:39:52Z</time>
      </trkpt>
      <trkpt lat="42.492941000" lon="-2.520643000">
        <ele>420.60</ele>
        <time>2016-10-22T05:39:53Z</time>
      </trkpt>
      <trkpt lat="42.492979000" lon="-2.520647000">
        <ele>420.60</ele>
        <time>2016-10-22T05:39:54Z</time>
      </trkpt>
      <trkpt lat="42.493015000" lon="-2.520653000">
        <ele>420.50</ele>
        <time>2016-10-22T05:39:55Z</time>
      </trkpt>
      <trkpt lat="42.493056000" lon="-2.520653000">
        <ele>420.40</ele>
        <time>2016-10-22T05:39:56Z</time>
      </trkpt>
      <trkpt lat="42.493099000" lon="-2.520658000">
        <ele>420.20</ele>
        <time>2016-10-22T05:39:57Z</time>
      </trkpt>
      <trkpt lat="42.493146000" lon="-2.520662000">
        <ele>420.10</ele>
        <time>2016-10-22T05:39:58Z</time>
      </trkpt>
      <trkpt lat="42.493195000" lon="-2.520661000">
        <ele>420.00</ele>
        <time>2016-10-22T05:39:59Z</time>
      </trkpt>
      <trkpt lat="42.493245000" lon="-2.520663000">
        <ele>419.90</ele>
        <time>2016-10-22T05:40:00Z</time>
      </trkpt>
      <trkpt lat="42.493295000" lon="-2.520660000">
        <ele>419.80</ele>
        <time>2016-10-22T05:40:01Z</time>
      </trkpt>
      <trkpt lat="42.493345000" lon="-2.520653000">
        <ele>419.80</ele>
        <time>2016-10-22T05:40:02Z</time>
      </trkpt>
      <trkpt lat="42.493394000" lon="-2.520640000">
        <ele>419.50</ele>
        <time>2016-10-22T05:40:03Z</time>
      </trkpt>
      <trkpt lat="42.493443000" lon="-2.520625000">
        <ele>419.30</ele>
        <time>2016-10-22T05:40:04Z</time>
      </trkpt>
      <trkpt lat="42.493487000" lon="-2.520614000">
        <ele>419.00</ele>
        <time>2016-10-22T05:40:05Z</time>
      </trkpt>
      <trkpt lat="42.493531000" lon="-2.520614000">
        <ele>418.90</ele>
        <time>2016-10-22T05:40:06Z</time>
      </trkpt>
      <trkpt lat="42.493562000" lon="-2.520623000">
        <ele>418.70</ele>
        <time>2016-10-22T05:40:07Z</time>
      </trkpt>
      <trkpt lat="42.493587000" lon="-2.520633000">
        <ele>418.60</ele>
        <time>2016-10-22T05:40:08Z</time>
      </trkpt>
      <trkpt lat="42.493609000" lon="-2.520644000">
        <ele>418.60</ele>
        <time>2016-10-22T05:40:09Z</time>
      </trkpt>
      <trkpt lat="42.493636000" lon="-2.520645000">
        <ele>418.50</ele>
        <time>2016-10-22T05:40:10Z</time>
      </trkpt>
      <trkpt lat="42.493665000" lon="-2.520653000">
        <ele>418.40</ele>
        <time>2016-10-22T05:40:11Z</time>
      </trkpt>
      <trkpt lat="42.493698000" lon="-2.520658000">
        <ele>418.30</ele>
        <time>2016-10-22T05:40:12Z</time>
      </trkpt>
      <trkpt lat="42.493727000" lon="-2.520674000">
        <ele>418.10</ele>
        <time>2016-10-22T05:40:13Z</time>
      </trkpt>
      <trkpt lat="42.493762000" lon="-2.520686000">
        <ele>417.90</ele>
        <time>2016-10-22T05:40:14Z</time>
      </trkpt>
      <trkpt lat="42.493796000" lon="-2.520702000">
        <ele>417.70</ele>
        <time>2016-10-22T05:40:15Z</time>
      </trkpt>
      <trkpt lat="42.493827000" lon="-2.520718000">
        <ele>417.60</ele>
        <time>2016-10-22T05:40:16Z</time>
      </trkpt>
      <trkpt lat="42.493857000" lon="-2.520733000">
        <ele>417.60</ele>
        <time>2016-10-22T05:40:17Z</time>
      </trkpt>
      <trkpt lat="42.493889000" lon="-2.520752000">
        <ele>417.60</ele>
        <time>2016-10-22T05:40:18Z</time>
      </trkpt>
      <trkpt lat="42.493921000" lon="-2.520769000">
        <ele>417.60</ele>
        <time>2016-10-22T05:40:19Z</time>
      </trkpt>
      <trkpt lat="42.493951000" lon="-2.520787000">
        <ele>417.60</ele>
        <time>2016-10-22T05:40:20Z</time>
      </trkpt>
      <trkpt lat="42.493984000" lon="-2.520801000">
        <ele>417.60</ele>
        <time>2016-10-22T05:40:21Z</time>
      </trkpt>
      <trkpt lat="42.494017000" lon="-2.520817000">
        <ele>417.60</ele>
        <time>2016-10-22T05:40:22Z</time>
      </trkpt>
      <trkpt lat="42.494049000" lon="-2.520838000">
        <ele>417.50</ele>
        <time>2016-10-22T05:40:23Z</time>
      </trkpt>
      <trkpt lat="42.494079000" lon="-2.520859000">
        <ele>417.50</ele>
        <time>2016-10-22T05:40:24Z</time>
      </trkpt>
      <trkpt lat="42.494111000" lon="-2.520879000">
        <ele>417.40</ele>
        <time>2016-10-22T05:40:25Z</time>
      </trkpt>
      <trkpt lat="42.494141000" lon="-2.520897000">
        <ele>417.40</ele>
        <time>2016-10-22T05:40:26Z</time>
      </trkpt>
      <trkpt lat="42.494173000" lon="-2.520915000">
        <ele>417.30</ele>
        <time>2016-10-22T05:40:27Z</time>
      </trkpt>
      <trkpt lat="42.494203000" lon="-2.520937000">
        <ele>417.20</ele>
        <time>2016-10-22T05:40:28Z</time>
      </trkpt>
      <trkpt lat="42.494234000" lon="-2.520960000">
        <ele>417.20</ele>
        <time>2016-10-22T05:40:29Z</time>
      </trkpt>
      <trkpt lat="42.494266000" lon="-2.520984000">
        <ele>417.10</ele>
        <time>2016-10-22T05:40:30Z</time>
      </trkpt>
      <trkpt lat="42.494298000" lon="-2.521007000">
        <ele>417.10</ele>
        <time>2016-10-22T05:40:31Z</time>
      </trkpt>
      <trkpt lat="42.494329000" lon="-2.521035000">
        <ele>417.10</ele>
        <time>2016-10-22T05:40:32Z</time>
      </trkpt>
      <trkpt lat="42.494360000" lon="-2.521065000">
        <ele>417.10</ele>
        <time>2016-10-22T05:40:33Z</time>
      </trkpt>
      <trkpt lat="42.494392000" lon="-2.521090000">
        <ele>417.10</ele>
        <time>2016-10-22T05:40:34Z</time>
      </trkpt>
      <trkpt lat="42.494422000" lon="-2.521118000">
        <ele>417.10</ele>
        <time>2016-10-22T05:40:35Z</time>
      </trkpt>
      <trkpt lat="42.494454000" lon="-2.521146000">
        <ele>417.10</ele>
        <time>2016-10-22T05:40:36Z</time>
      </trkpt>
      <trkpt lat="42.494487000" lon="-2.521175000">
        <ele>417.00</ele>
        <time>2016-10-22T05:40:37Z</time>
      </trkpt>
      <trkpt lat="42.494520000" lon="-2.521204000">
        <ele>416.90</ele>
        <time>2016-10-22T05:40:38Z</time>
      </trkpt>
      <trkpt lat="42.494554000" lon="-2.521234000">
        <ele>416.90</ele>
        <time>2016-10-22T05:40:39Z</time>
      </trkpt>
      <trkpt lat="42.494585000" lon="-2.521266000">
        <ele>416.90</ele>
        <time>2016-10-22T05:40:40Z</time>
      </trkpt>
      <trkpt lat="42.494621000" lon="-2.521296000">
        <ele>416.70</ele>
        <time>2016-10-22T05:40:41Z</time>
      </trkpt>
      <trkpt lat="42.494656000" lon="-2.521328000">
        <ele>416.60</ele>
        <time>2016-10-22T05:40:42Z</time>
      </trkpt>
      <trkpt lat="42.494688000" lon="-2.521360000">
        <ele>416.60</ele>
        <time>2016-10-22T05:40:43Z</time>
      </trkpt>
      <trkpt lat="42.494761000" lon="-2.521421000">
        <ele>416.40</ele>
        <time>2016-10-22T05:40:45Z</time>
      </trkpt>
      <trkpt lat="42.494803000" lon="-2.521447000">
        <ele>416.40</ele>
        <time>2016-10-22T05:40:46Z</time>
      </trkpt>
      <trkpt lat="42.494850000" lon="-2.521474000">
        <ele>416.10</ele>
        <time>2016-10-22T05:40:47Z</time>
      </trkpt>
      <trkpt lat="42.494899000" lon="-2.521502000">
        <ele>416.00</ele>
        <time>2016-10-22T05:40:48Z</time>
      </trkpt>
      <trkpt lat="42.494950000" lon="-2.521530000">
        <ele>415.70</ele>
        <time>2016-10-22T05:40:49Z</time>
      </trkpt>
      <trkpt lat="42.495003000" lon="-2.521554000">
        <ele>415.60</ele>
        <time>2016-10-22T05:40:50Z</time>
      </trkpt>
      <trkpt lat="42.495055000" lon="-2.521582000">
        <ele>415.20</ele>
        <time>2016-10-22T05:40:51Z</time>
      </trkpt>
      <trkpt lat="42.495108000" lon="-2.521618000">
        <ele>414.90</ele>
        <time>2016-10-22T05:40:52Z</time>
      </trkpt>
      <trkpt lat="42.495162000" lon="-2.521658000">
        <ele>414.70</ele>
        <time>2016-10-22T05:40:53Z</time>
      </trkpt>
      <trkpt lat="42.495217000" lon="-2.521697000">
        <ele>414.40</ele>
        <time>2016-10-22T05:40:54Z</time>
      </trkpt>
      <trkpt lat="42.495273000" lon="-2.521733000">
        <ele>414.10</ele>
        <time>2016-10-22T05:40:55Z</time>
      </trkpt>
      <trkpt lat="42.495329000" lon="-2.521765000">
        <ele>413.80</ele>
        <time>2016-10-22T05:40:56Z</time>
      </trkpt>
      <trkpt lat="42.495387000" lon="-2.521787000">
        <ele>413.50</ele>
        <time>2016-10-22T05:40:57Z</time>
      </trkpt>
      <trkpt lat="42.495444000" lon="-2.521805000">
        <ele>413.30</ele>
        <time>2016-10-22T05:40:58Z</time>
      </trkpt>
      <trkpt lat="42.495503000" lon="-2.521815000">
        <ele>413.00</ele>
        <time>2016-10-22T05:40:59Z</time>
      </trkpt>
      <trkpt lat="42.495562000" lon="-2.521813000">
        <ele>412.80</ele>
        <time>2016-10-22T05:41:00Z</time>
      </trkpt>
      <trkpt lat="42.495620000" lon="-2.521803000">
        <ele>412.60</ele>
        <time>2016-10-22T05:41:01Z</time>
      </trkpt>
      <trkpt lat="42.495676000" lon="-2.521792000">
        <ele>412.50</ele>
        <time>2016-10-22T05:41:02Z</time>
      </trkpt>
      <trkpt lat="42.495733000" lon="-2.521777000">
        <ele>412.30</ele>
        <time>2016-10-22T05:41:03Z</time>
      </trkpt>
      <trkpt lat="42.495788000" lon="-2.521759000">
        <ele>412.30</ele>
        <time>2016-10-22T05:41:04Z</time>
      </trkpt>
      <trkpt lat="42.495841000" lon="-2.521740000">
        <ele>412.10</ele>
        <time>2016-10-22T05:41:05Z</time>
      </trkpt>
      <trkpt lat="42.495896000" lon="-2.521718000">
        <ele>411.90</ele>
        <time>2016-10-22T05:41:06Z</time>
      </trkpt>
      <trkpt lat="42.495950000" lon="-2.521692000">
        <ele>411.90</ele>
        <time>2016-10-22T05:41:07Z</time>
      </trkpt>
      <trkpt lat="42.495997000" lon="-2.521658000">
        <ele>411.80</ele>
        <time>2016-10-22T05:41:08Z</time>
      </trkpt>
      <trkpt lat="42.496041000" lon="-2.521620000">
        <ele>411.70</ele>
        <time>2016-10-22T05:41:09Z</time>
      </trkpt>
      <trkpt lat="42.496086000" lon="-2.521576000">
        <ele>411.70</ele>
        <time>2016-10-22T05:41:10Z</time>
      </trkpt>
      <trkpt lat="42.496132000" lon="-2.521523000">
        <ele>411.60</ele>
        <time>2016-10-22T05:41:11Z</time>
      </trkpt>
      <trkpt lat="42.496179000" lon="-2.521464000">
        <ele>411.50</ele>
        <time>2016-10-22T05:41:12Z</time>
      </trkpt>
      <trkpt lat="42.496225000" lon="-2.521403000">
        <ele>411.40</ele>
        <time>2016-10-22T05:41:13Z</time>
      </trkpt>
      <trkpt lat="42.496268000" lon="-2.521349000">
        <ele>411.30</ele>
        <time>2016-10-22T05:41:14Z</time>
      </trkpt>
      <trkpt lat="42.496307000" lon="-2.521298000">
        <ele>411.10</ele>
        <time>2016-10-22T05:41:15Z</time>
      </trkpt>
      <trkpt lat="42.496343000" lon="-2.521257000">
        <ele>410.90</ele>
        <time>2016-10-22T05:41:16Z</time>
      </trkpt>
      <trkpt lat="42.496374000" lon="-2.521222000">
        <ele>410.80</ele>
        <time>2016-10-22T05:41:17Z</time>
      </trkpt>
      <trkpt lat="42.496407000" lon="-2.521185000">
        <ele>410.70</ele>
        <time>2016-10-22T05:41:18Z</time>
      </trkpt>
      <trkpt lat="42.496424000" lon="-2.521138000">
        <ele>410.50</ele>
        <time>2016-10-22T05:41:19Z</time>
      </trkpt>
      <trkpt lat="42.496439000" lon="-2.521091000">
        <ele>410.40</ele>
        <time>2016-10-22T05:41:20Z</time>
      </trkpt>
      <trkpt lat="42.496453000" lon="-2.521044000">
        <ele>410.20</ele>
        <time>2016-10-22T05:41:21Z</time>
      </trkpt>
      <trkpt lat="42.496468000" lon="-2.520995000">
        <ele>410.00</ele>
        <time>2016-10-22T05:41:22Z</time>
      </trkpt>
      <trkpt lat="42.496481000" lon="-2.520940000">
        <ele>409.70</ele>
        <time>2016-10-22T05:41:23Z</time>
      </trkpt>
      <trkpt lat="42.496495000" lon="-2.520885000">
        <ele>409.40</ele>
        <time>2016-10-22T05:41:24Z</time>
      </trkpt>
      <trkpt lat="42.496511000" lon="-2.520830000">
        <ele>409.20</ele>
        <time>2016-10-22T05:41:25Z</time>
      </trkpt>
      <trkpt lat="42.496531000" lon="-2.520775000">
        <ele>409.10</ele>
        <time>2016-10-22T05:41:26Z</time>
      </trkpt>
      <trkpt lat="42.496553000" lon="-2.520719000">
        <ele>409.00</ele>
        <time>2016-10-22T05:41:27Z</time>
      </trkpt>
      <trkpt lat="42.496586000" lon="-2.520673000">
        <ele>408.90</ele>
        <time>2016-10-22T05:41:28Z</time>
      </trkpt>
      <trkpt lat="42.496626000" lon="-2.520629000">
        <ele>408.70</ele>
        <time>2016-10-22T05:41:29Z</time>
      </trkpt>
      <trkpt lat="42.496665000" lon="-2.520597000">
        <ele>408.50</ele>
        <time>2016-10-22T05:41:30Z</time>
      </trkpt>
      <trkpt lat="42.496705000" lon="-2.520569000">
        <ele>408.30</ele>
        <time>2016-10-22T05:41:31Z</time>
      </trkpt>
      <trkpt lat="42.496748000" lon="-2.520546000">
        <ele>408.20</ele>
        <time>2016-10-22T05:41:32Z</time>
      </trkpt>
      <trkpt lat="42.496787000" lon="-2.520518000">
        <ele>408.10</ele>
        <time>2016-10-22T05:41:33Z</time>
      </trkpt>
      <trkpt lat="42.496825000" lon="-2.520494000">
        <ele>408.10</ele>
        <time>2016-10-22T05:41:34Z</time>
      </trkpt>
      <trkpt lat="42.496857000" lon="-2.520469000">
        <ele>408.20</ele>
        <time>2016-10-22T05:41:35Z</time>
      </trkpt>
      <trkpt lat="42.496887000" lon="-2.520443000">
        <ele>408.20</ele>
        <time>2016-10-22T05:41:36Z</time>
      </trkpt>
      <trkpt lat="42.496913000" lon="-2.520419000">
        <ele>408.30</ele>
        <time>2016-10-22T05:41:37Z</time>
      </trkpt>
      <trkpt lat="42.496937000" lon="-2.520403000">
        <ele>408.30</ele>
        <time>2016-10-22T05:41:38Z</time>
      </trkpt>
      <trkpt lat="42.496962000" lon="-2.520385000">
        <ele>408.30</ele>
        <time>2016-10-22T05:41:39Z</time>
      </trkpt>
      <trkpt lat="42.496989000" lon="-2.520370000">
        <ele>408.40</ele>
        <time>2016-10-22T05:41:40Z</time>
      </trkpt>
      <trkpt lat="42.497018000" lon="-2.520357000">
        <ele>408.40</ele>
        <time>2016-10-22T05:41:41Z</time>
      </trkpt>
      <trkpt lat="42.497045000" lon="-2.520344000">
        <ele>408.40</ele>
        <time>2016-10-22T05:41:42Z</time>
      </trkpt>
      <trkpt lat="42.497075000" lon="-2.520333000">
        <ele>408.50</ele>
        <time>2016-10-22T05:41:43Z</time>
      </trkpt>
      <trkpt lat="42.497104000" lon="-2.520323000">
        <ele>408.50</ele>
        <time>2016-10-22T05:41:44Z</time>
      </trkpt>
      <trkpt lat="42.497134000" lon="-2.520320000">
        <ele>408.70</ele>
        <time>2016-10-22T05:41:45Z</time>
      </trkpt>
      <trkpt lat="42.497192000" lon="-2.520307000">
        <ele>409.10</ele>
        <time>2016-10-22T05:41:47Z</time>
      </trkpt>
      <trkpt lat="42.497222000" lon="-2.520303000">
        <ele>409.20</ele>
        <time>2016-10-22T05:41:48Z</time>
      </trkpt>
      <trkpt lat="42.497251000" lon="-2.520300000">
        <ele>409.40</ele>
        <time>2016-10-22T05:41:49Z</time>
      </trkpt>
      <trkpt lat="42.497281000" lon="-2.520298000">
        <ele>409.60</ele>
        <time>2016-10-22T05:41:50Z</time>
      </trkpt>
      <trkpt lat="42.497310000" lon="-2.520292000">
        <ele>409.80</ele>
        <time>2016-10-22T05:41:51Z</time>
      </trkpt>
      <trkpt lat="42.497342000" lon="-2.520284000">
        <ele>409.90</ele>
        <time>2016-10-22T05:41:52Z</time>
      </trkpt>
      <trkpt lat="42.497370000" lon="-2.520279000">
        <ele>410.00</ele>
        <time>2016-10-22T05:41:53Z</time>
      </trkpt>
      <trkpt lat="42.497402000" lon="-2.520270000">
        <ele>410.10</ele>
        <time>2016-10-22T05:41:54Z</time>
      </trkpt>
      <trkpt lat="42.497429000" lon="-2.520266000">
        <ele>410.20</ele>
        <time>2016-10-22T05:41:55Z</time>
      </trkpt>
      <trkpt lat="42.497459000" lon="-2.520262000">
        <ele>410.20</ele>
        <time>2016-10-22T05:41:56Z</time>
      </trkpt>
      <trkpt lat="42.497491000" lon="-2.520260000">
        <ele>410.20</ele>
        <time>2016-10-22T05:41:57Z</time>
      </trkpt>
      <trkpt lat="42.497518000" lon="-2.520261000">
        <ele>410.30</ele>
        <time>2016-10-22T05:41:58Z</time>
      </trkpt>
      <trkpt lat="42.497547000" lon="-2.520264000">
        <ele>410.30</ele>
        <time>2016-10-22T05:41:59Z</time>
      </trkpt>
      <trkpt lat="42.497575000" lon="-2.520266000">
        <ele>410.30</ele>
        <time>2016-10-22T05:42:00Z</time>
      </trkpt>
      <trkpt lat="42.497603000" lon="-2.520267000">
        <ele>410.20</ele>
        <time>2016-10-22T05:42:01Z</time>
      </trkpt>
      <trkpt lat="42.497633000" lon="-2.520268000">
        <ele>410.20</ele>
        <time>2016-10-22T05:42:02Z</time>
      </trkpt>
      <trkpt lat="42.497665000" lon="-2.520273000">
        <ele>410.20</ele>
        <time>2016-10-22T05:42:03Z</time>
      </trkpt>
      <trkpt lat="42.497696000" lon="-2.520277000">
        <ele>410.10</ele>
        <time>2016-10-22T05:42:04Z</time>
      </trkpt>
      <trkpt lat="42.497730000" lon="-2.520284000">
        <ele>410.10</ele>
        <time>2016-10-22T05:42:05Z</time>
      </trkpt>
      <trkpt lat="42.497763000" lon="-2.520289000">
        <ele>410.10</ele>
        <time>2016-10-22T05:42:06Z</time>
      </trkpt>
      <trkpt lat="42.497798000" lon="-2.520292000">
        <ele>410.20</ele>
        <time>2016-10-22T05:42:07Z</time>
      </trkpt>
      <trkpt lat="42.497830000" lon="-2.520297000">
        <ele>410.20</ele>
        <time>2016-10-22T05:42:08Z</time>
      </trkpt>
      <trkpt lat="42.497863000" lon="-2.520303000">
        <ele>410.20</ele>
        <time>2016-10-22T05:42:09Z</time>
      </trkpt>
      <trkpt lat="42.497897000" lon="-2.520309000">
        <ele>410.30</ele>
        <time>2016-10-22T05:42:10Z</time>
      </trkpt>
      <trkpt lat="42.497931000" lon="-2.520311000">
        <ele>410.10</ele>
        <time>2016-10-22T05:42:11Z</time>
      </trkpt>
      <trkpt lat="42.497963000" lon="-2.520312000">
        <ele>410.00</ele>
        <time>2016-10-22T05:42:12Z</time>
      </trkpt>
      <trkpt lat="42.497999000" lon="-2.520314000">
        <ele>409.90</ele>
        <time>2016-10-22T05:42:13Z</time>
      </trkpt>
      <trkpt lat="42.498033000" lon="-2.520312000">
        <ele>409.80</ele>
        <time>2016-10-22T05:42:14Z</time>
      </trkpt>
      <trkpt lat="42.498065000" lon="-2.520310000">
        <ele>409.80</ele>
        <time>2016-10-22T05:42:15Z</time>
      </trkpt>
      <trkpt lat="42.498098000" lon="-2.520301000">
        <ele>409.80</ele>
        <time>2016-10-22T05:42:16Z</time>
      </trkpt>
      <trkpt lat="42.498131000" lon="-2.520292000">
        <ele>409.80</ele>
        <time>2016-10-22T05:42:17Z</time>
      </trkpt>
      <trkpt lat="42.498164000" lon="-2.520280000">
        <ele>409.80</ele>
        <time>2016-10-22T05:42:18Z</time>
      </trkpt>
      <trkpt lat="42.498196000" lon="-2.520273000">
        <ele>409.70</ele>
        <time>2016-10-22T05:42:19Z</time>
      </trkpt>
      <trkpt lat="42.498228000" lon="-2.520262000">
        <ele>409.60</ele>
        <time>2016-10-22T05:42:20Z</time>
      </trkpt>
      <trkpt lat="42.498263000" lon="-2.520254000">
        <ele>409.50</ele>
        <time>2016-10-22T05:42:21Z</time>
      </trkpt>
      <trkpt lat="42.498297000" lon="-2.520243000">
        <ele>409.50</ele>
        <time>2016-10-22T05:42:22Z</time>
      </trkpt>
      <trkpt lat="42.498333000" lon="-2.520233000">
        <ele>409.40</ele>
        <time>2016-10-22T05:42:23Z</time>
      </trkpt>
      <trkpt lat="42.498370000" lon="-2.520228000">
        <ele>409.40</ele>
        <time>2016-10-22T05:42:24Z</time>
      </trkpt>
      <trkpt lat="42.498411000" lon="-2.520226000">
        <ele>409.40</ele>
        <time>2016-10-22T05:42:25Z</time>
      </trkpt>
      <trkpt lat="42.498455000" lon="-2.520225000">
        <ele>409.50</ele>
        <time>2016-10-22T05:42:26Z</time>
      </trkpt>
      <trkpt lat="42.498499000" lon="-2.520218000">
        <ele>409.50</ele>
        <time>2016-10-22T05:42:27Z</time>
      </trkpt>
      <trkpt lat="42.498541000" lon="-2.520219000">
        <ele>409.50</ele>
        <time>2016-10-22T05:42:28Z</time>
      </trkpt>
      <trkpt lat="42.498589000" lon="-2.520207000">
        <ele>409.40</ele>
        <time>2016-10-22T05:42:29Z</time>
      </trkpt>
      <trkpt lat="42.498636000" lon="-2.520193000">
        <ele>409.30</ele>
        <time>2016-10-22T05:42:30Z</time>
      </trkpt>
      <trkpt lat="42.498686000" lon="-2.520181000">
        <ele>408.80</ele>
        <time>2016-10-22T05:42:31Z</time>
      </trkpt>
      <trkpt lat="42.498737000" lon="-2.520160000">
        <ele>408.50</ele>
        <time>2016-10-22T05:42:32Z</time>
      </trkpt>
      <trkpt lat="42.498787000" lon="-2.520131000">
        <ele>408.10</ele>
        <time>2016-10-22T05:42:33Z</time>
      </trkpt>
      <trkpt lat="42.498840000" lon="-2.520101000">
        <ele>407.80</ele>
        <time>2016-10-22T05:42:34Z</time>
      </trkpt>
      <trkpt lat="42.498897000" lon="-2.520073000">
        <ele>407.50</ele>
        <time>2016-10-22T05:42:35Z</time>
      </trkpt>
      <trkpt lat="42.498953000" lon="-2.520048000">
        <ele>407.20</ele>
        <time>2016-10-22T05:42:36Z</time>
      </trkpt>
      <trkpt lat="42.499011000" lon="-2.520022000">
        <ele>407.00</ele>
        <time>2016-10-22T05:42:37Z</time>
      </trkpt>
      <trkpt lat="42.499077000" lon="-2.519998000">
        <ele>406.80</ele>
        <time>2016-10-22T05:42:38Z</time>
      </trkpt>
      <trkpt lat="42.499149000" lon="-2.519978000">
        <ele>406.50</ele>
        <time>2016-10-22T05:42:39Z</time>
      </trkpt>
      <trkpt lat="42.499224000" lon="-2.519955000">
        <ele>406.30</ele>
        <time>2016-10-22T05:42:40Z</time>
      </trkpt>
      <trkpt lat="42.499298000" lon="-2.519928000">
        <ele>405.60</ele>
        <time>2016-10-22T05:42:41Z</time>
      </trkpt>
      <trkpt lat="42.499374000" lon="-2.519900000">
        <ele>405.10</ele>
        <time>2016-10-22T05:42:42Z</time>
      </trkpt>
      <trkpt lat="42.499452000" lon="-2.519882000">
        <ele>404.70</ele>
        <time>2016-10-22T05:42:43Z</time>
      </trkpt>
      <trkpt lat="42.499531000" lon="-2.519873000">
        <ele>404.40</ele>
        <time>2016-10-22T05:42:44Z</time>
      </trkpt>
      <trkpt lat="42.499605000" lon="-2.519874000">
        <ele>403.90</ele>
        <time>2016-10-22T05:42:45Z</time>
      </trkpt>
      <trkpt lat="42.499672000" lon="-2.519873000">
        <ele>403.50</ele>
        <time>2016-10-22T05:42:46Z</time>
      </trkpt>
      <trkpt lat="42.499737000" lon="-2.519862000">
        <ele>403.10</ele>
        <time>2016-10-22T05:42:47Z</time>
      </trkpt>
      <trkpt lat="42.499868000" lon="-2.519830000">
        <ele>402.10</ele>
        <time>2016-10-22T05:42:49Z</time>
      </trkpt>
      <trkpt lat="42.499932000" lon="-2.519809000">
        <ele>401.60</ele>
        <time>2016-10-22T05:42:50Z</time>
      </trkpt>
      <trkpt lat="42.499998000" lon="-2.519784000">
        <ele>401.20</ele>
        <time>2016-10-22T05:42:51Z</time>
      </trkpt>
      <trkpt lat="42.500065000" lon="-2.519758000">
        <ele>400.90</ele>
        <time>2016-10-22T05:42:52Z</time>
      </trkpt>
      <trkpt lat="42.500133000" lon="-2.519733000">
        <ele>400.70</ele>
        <time>2016-10-22T05:42:53Z</time>
      </trkpt>
      <trkpt lat="42.500202000" lon="-2.519705000">
        <ele>400.50</ele>
        <time>2016-10-22T05:42:54Z</time>
      </trkpt>
      <trkpt lat="42.500271000" lon="-2.519671000">
        <ele>400.30</ele>
        <time>2016-10-22T05:42:55Z</time>
      </trkpt>
      <trkpt lat="42.500339000" lon="-2.519630000">
        <ele>400.10</ele>
        <time>2016-10-22T05:42:56Z</time>
      </trkpt>
      <trkpt lat="42.500406000" lon="-2.519585000">
        <ele>399.60</ele>
        <time>2016-10-22T05:42:57Z</time>
      </trkpt>
      <trkpt lat="42.500467000" lon="-2.519541000">
        <ele>399.30</ele>
        <time>2016-10-22T05:42:58Z</time>
      </trkpt>
      <trkpt lat="42.500531000" lon="-2.519492000">
        <ele>398.80</ele>
        <time>2016-10-22T05:42:59Z</time>
      </trkpt>
      <trkpt lat="42.500595000" lon="-2.519443000">
        <ele>398.40</ele>
        <time>2016-10-22T05:43:00Z</time>
      </trkpt>
      <trkpt lat="42.500655000" lon="-2.519383000">
        <ele>398.10</ele>
        <time>2016-10-22T05:43:01Z</time>
      </trkpt>
      <trkpt lat="42.500720000" lon="-2.519323000">
        <ele>397.90</ele>
        <time>2016-10-22T05:43:02Z</time>
      </trkpt>
      <trkpt lat="42.500781000" lon="-2.519266000">
        <ele>397.70</ele>
        <time>2016-10-22T05:43:03Z</time>
      </trkpt>
      <trkpt lat="42.500841000" lon="-2.519196000">
        <ele>397.60</ele>
        <time>2016-10-22T05:43:04Z</time>
      </trkpt>
      <trkpt lat="42.500900000" lon="-2.519121000">
        <ele>397.20</ele>
        <time>2016-10-22T05:43:05Z</time>
      </trkpt>
      <trkpt lat="42.500961000" lon="-2.519049000">
        <ele>396.90</ele>
        <time>2016-10-22T05:43:06Z</time>
      </trkpt>
      <trkpt lat="42.501017000" lon="-2.518976000">
        <ele>396.50</ele>
        <time>2016-10-22T05:43:07Z</time>
      </trkpt>
      <trkpt lat="42.501074000" lon="-2.518894000">
        <ele>396.20</ele>
        <time>2016-10-22T05:43:08Z</time>
      </trkpt>
      <trkpt lat="42.501132000" lon="-2.518808000">
        <ele>395.90</ele>
        <time>2016-10-22T05:43:09Z</time>
      </trkpt>
      <trkpt lat="42.501186000" lon="-2.518717000">
        <ele>395.60</ele>
        <time>2016-10-22T05:43:10Z</time>
      </trkpt>
      <trkpt lat="42.501239000" lon="-2.518626000">
        <ele>394.80</ele>
        <time>2016-10-22T05:43:11Z</time>
      </trkpt>
      <trkpt lat="42.501291000" lon="-2.518534000">
        <ele>394.10</ele>
        <time>2016-10-22T05:43:12Z</time>
      </trkpt>
      <trkpt lat="42.501342000" lon="-2.518446000">
        <ele>393.50</ele>
        <time>2016-10-22T05:43:13Z</time>
      </trkpt>
      <trkpt lat="42.501395000" lon="-2.518364000">
        <ele>393.10</ele>
        <time>2016-10-22T05:43:14Z</time>
      </trkpt>
      <trkpt lat="42.501449000" lon="-2.518293000">
        <ele>392.70</ele>
        <time>2016-10-22T05:43:15Z</time>
      </trkpt>
      <trkpt lat="42.501507000" lon="-2.518221000">
        <ele>392.40</ele>
        <time>2016-10-22T05:43:16Z</time>
      </trkpt>
      <trkpt lat="42.501560000" lon="-2.518158000">
        <ele>392.10</ele>
        <time>2016-10-22T05:43:17Z</time>
      </trkpt>
      <trkpt lat="42.501615000" lon="-2.518103000">
        <ele>391.80</ele>
        <time>2016-10-22T05:43:18Z</time>
      </trkpt>
      <trkpt lat="42.501669000" lon="-2.518044000">
        <ele>391.50</ele>
        <time>2016-10-22T05:43:19Z</time>
      </trkpt>
      <trkpt lat="42.501720000" lon="-2.517989000">
        <ele>391.40</ele>
        <time>2016-10-22T05:43:20Z</time>
      </trkpt>
      <trkpt lat="42.501764000" lon="-2.517938000">
        <ele>391.40</ele>
        <time>2016-10-22T05:43:21Z</time>
      </trkpt>
      <trkpt lat="42.501804000" lon="-2.517896000">
        <ele>391.40</ele>
        <time>2016-10-22T05:43:22Z</time>
      </trkpt>
      <trkpt lat="42.501841000" lon="-2.517856000">
        <ele>391.40</ele>
        <time>2016-10-22T05:43:23Z</time>
      </trkpt>
      <trkpt lat="42.501876000" lon="-2.517824000">
        <ele>391.40</ele>
        <time>2016-10-22T05:43:24Z</time>
      </trkpt>
      <trkpt lat="42.501903000" lon="-2.517794000">
        <ele>391.40</ele>
        <time>2016-10-22T05:43:25Z</time>
      </trkpt>
      <trkpt lat="42.501929000" lon="-2.517765000">
        <ele>391.40</ele>
        <time>2016-10-22T05:43:26Z</time>
      </trkpt>
      <trkpt lat="42.501954000" lon="-2.517741000">
        <ele>391.50</ele>
        <time>2016-10-22T05:43:27Z</time>
      </trkpt>
      <trkpt lat="42.501980000" lon="-2.517714000">
        <ele>391.60</ele>
        <time>2016-10-22T05:43:28Z</time>
      </trkpt>
      <trkpt lat="42.502008000" lon="-2.517688000">
        <ele>391.70</ele>
        <time>2016-10-22T05:43:29Z</time>
      </trkpt>
      <trkpt lat="42.502037000" lon="-2.517653000">
        <ele>391.80</ele>
        <time>2016-10-22T05:43:30Z</time>
      </trkpt>
      <trkpt lat="42.502067000" lon="-2.517621000">
        <ele>391.70</ele>
        <time>2016-10-22T05:43:31Z</time>
      </trkpt>
      <trkpt lat="42.502094000" lon="-2.517587000">
        <ele>391.70</ele>
        <time>2016-10-22T05:43:32Z</time>
      </trkpt>
      <trkpt lat="42.502123000" lon="-2.517556000">
        <ele>391.70</ele>
        <time>2016-10-22T05:43:33Z</time>
      </trkpt>
      <trkpt lat="42.502153000" lon="-2.517526000">
        <ele>391.70</ele>
        <time>2016-10-22T05:43:34Z</time>
      </trkpt>
      <trkpt lat="42.502182000" lon="-2.517496000">
        <ele>391.70</ele>
        <time>2016-10-22T05:43:35Z</time>
      </trkpt>
      <trkpt lat="42.502213000" lon="-2.517464000">
        <ele>391.70</ele>
        <time>2016-10-22T05:43:36Z</time>
      </trkpt>
      <trkpt lat="42.502241000" lon="-2.517430000">
        <ele>391.50</ele>
        <time>2016-10-22T05:43:37Z</time>
      </trkpt>
      <trkpt lat="42.502270000" lon="-2.517401000">
        <ele>391.40</ele>
        <time>2016-10-22T05:43:38Z</time>
      </trkpt>
      <trkpt lat="42.502302000" lon="-2.517373000">
        <ele>391.40</ele>
        <time>2016-10-22T05:43:39Z</time>
      </trkpt>
      <trkpt lat="42.502333000" lon="-2.517340000">
        <ele>391.30</ele>
        <time>2016-10-22T05:43:40Z</time>
      </trkpt>
      <trkpt lat="42.502365000" lon="-2.517312000">
        <ele>391.20</ele>
        <time>2016-10-22T05:43:41Z</time>
      </trkpt>
      <trkpt lat="42.502399000" lon="-2.517285000">
        <ele>391.10</ele>
        <time>2016-10-22T05:43:42Z</time>
      </trkpt>
      <trkpt lat="42.502432000" lon="-2.517258000">
        <ele>391.10</ele>
        <time>2016-10-22T05:43:43Z</time>
      </trkpt>
      <trkpt lat="42.502462000" lon="-2.517229000">
        <ele>391.10</ele>
        <time>2016-10-22T05:43:44Z</time>
      </trkpt>
      <trkpt lat="42.502493000" lon="-2.517206000">
        <ele>391.10</ele>
        <time>2016-10-22T05:43:45Z</time>
      </trkpt>
      <trkpt lat="42.502523000" lon="-2.517180000">
        <ele>391.10</ele>
        <time>2016-10-22T05:43:46Z</time>
      </trkpt>
      <trkpt lat="42.502553000" lon="-2.517154000">
        <ele>391.10</ele>
        <time>2016-10-22T05:43:47Z</time>
      </trkpt>
      <trkpt lat="42.502585000" lon="-2.517129000">
        <ele>391.10</ele>
        <time>2016-10-22T05:43:48Z</time>
      </trkpt>
      <trkpt lat="42.502612000" lon="-2.517105000">
        <ele>391.20</ele>
        <time>2016-10-22T05:43:49Z</time>
      </trkpt>
      <trkpt lat="42.502672000" lon="-2.517066000">
        <ele>391.20</ele>
        <time>2016-10-22T05:43:51Z</time>
      </trkpt>
      <trkpt lat="42.502704000" lon="-2.517049000">
        <ele>391.20</ele>
        <time>2016-10-22T05:43:52Z</time>
      </trkpt>
      <trkpt lat="42.502736000" lon="-2.517031000">
        <ele>391.30</ele>
        <time>2016-10-22T05:43:53Z</time>
      </trkpt>
      <trkpt lat="42.502767000" lon="-2.517015000">
        <ele>391.30</ele>
        <time>2016-10-22T05:43:54Z</time>
      </trkpt>
      <trkpt lat="42.502797000" lon="-2.517004000">
        <ele>391.40</ele>
        <time>2016-10-22T05:43:55Z</time>
      </trkpt>
      <trkpt lat="42.502828000" lon="-2.516995000">
        <ele>391.50</ele>
        <time>2016-10-22T05:43:56Z</time>
      </trkpt>
      <trkpt lat="42.502860000" lon="-2.516984000">
        <ele>391.60</ele>
        <time>2016-10-22T05:43:57Z</time>
      </trkpt>
      <trkpt lat="42.502893000" lon="-2.516973000">
        <ele>391.70</ele>
        <time>2016-10-22T05:43:58Z</time>
      </trkpt>
      <trkpt lat="42.502929000" lon="-2.516968000">
        <ele>391.90</ele>
        <time>2016-10-22T05:43:59Z</time>
      </trkpt>
      <trkpt lat="42.502964000" lon="-2.516962000">
        <ele>392.00</ele>
        <time>2016-10-22T05:44:00Z</time>
      </trkpt>
      <trkpt lat="42.503000000" lon="-2.516957000">
        <ele>392.10</ele>
        <time>2016-10-22T05:44:01Z</time>
      </trkpt>
      <trkpt lat="42.503034000" lon="-2.516948000">
        <ele>392.20</ele>
        <time>2016-10-22T05:44:02Z</time>
      </trkpt>
      <trkpt lat="42.503070000" lon="-2.516940000">
        <ele>392.30</ele>
        <time>2016-10-22T05:44:03Z</time>
      </trkpt>
      <trkpt lat="42.503105000" lon="-2.516932000">
        <ele>392.30</ele>
        <time>2016-10-22T05:44:04Z</time>
      </trkpt>
      <trkpt lat="42.503138000" lon="-2.516922000">
        <ele>392.30</ele>
        <time>2016-10-22T05:44:05Z</time>
      </trkpt>
      <trkpt lat="42.503169000" lon="-2.516911000">
        <ele>392.40</ele>
        <time>2016-10-22T05:44:06Z</time>
      </trkpt>
      <trkpt lat="42.503203000" lon="-2.516901000">
        <ele>392.50</ele>
        <time>2016-10-22T05:44:07Z</time>
      </trkpt>
      <trkpt lat="42.503236000" lon="-2.516893000">
        <ele>392.60</ele>
        <time>2016-10-22T05:44:08Z</time>
      </trkpt>
      <trkpt lat="42.503271000" lon="-2.516881000">
        <ele>392.80</ele>
        <time>2016-10-22T05:44:09Z</time>
      </trkpt>
      <trkpt lat="42.503304000" lon="-2.516873000">
        <ele>392.90</ele>
        <time>2016-10-22T05:44:10Z</time>
      </trkpt>
      <trkpt lat="42.503336000" lon="-2.516861000">
        <ele>393.00</ele>
        <time>2016-10-22T05:44:11Z</time>
      </trkpt>
      <trkpt lat="42.503369000" lon="-2.516852000">
        <ele>393.00</ele>
        <time>2016-10-22T05:44:12Z</time>
      </trkpt>
      <trkpt lat="42.503403000" lon="-2.516843000">
        <ele>393.10</ele>
        <time>2016-10-22T05:44:13Z</time>
      </trkpt>
      <trkpt lat="42.503436000" lon="-2.516830000">
        <ele>393.10</ele>
        <time>2016-10-22T05:44:14Z</time>
      </trkpt>
      <trkpt lat="42.503472000" lon="-2.516820000">
        <ele>393.30</ele>
        <time>2016-10-22T05:44:15Z</time>
      </trkpt>
      <trkpt lat="42.503507000" lon="-2.516802000">
        <ele>393.40</ele>
        <time>2016-10-22T05:44:16Z</time>
      </trkpt>
      <trkpt lat="42.503538000" lon="-2.516784000">
        <ele>393.50</ele>
        <time>2016-10-22T05:44:17Z</time>
      </trkpt>
      <trkpt lat="42.503570000" lon="-2.516766000">
        <ele>393.60</ele>
        <time>2016-10-22T05:44:18Z</time>
      </trkpt>
      <trkpt lat="42.503601000" lon="-2.516748000">
        <ele>393.80</ele>
        <time>2016-10-22T05:44:19Z</time>
      </trkpt>
      <trkpt lat="42.503631000" lon="-2.516728000">
        <ele>394.00</ele>
        <time>2016-10-22T05:44:20Z</time>
      </trkpt>
      <trkpt lat="42.503661000" lon="-2.516709000">
        <ele>394.10</ele>
        <time>2016-10-22T05:44:21Z</time>
      </trkpt>
      <trkpt lat="42.503692000" lon="-2.516688000">
        <ele>394.20</ele>
        <time>2016-10-22T05:44:22Z</time>
      </trkpt>
      <trkpt lat="42.503723000" lon="-2.516664000">
        <ele>394.20</ele>
        <time>2016-10-22T05:44:23Z</time>
      </trkpt>
      <trkpt lat="42.503754000" lon="-2.516639000">
        <ele>394.30</ele>
        <time>2016-10-22T05:44:24Z</time>
      </trkpt>
      <trkpt lat="42.503782000" lon="-2.516612000">
        <ele>394.10</ele>
        <time>2016-10-22T05:44:25Z</time>
      </trkpt>
      <trkpt lat="42.503812000" lon="-2.516580000">
        <ele>394.00</ele>
        <time>2016-10-22T05:44:26Z</time>
      </trkpt>
      <trkpt lat="42.503839000" lon="-2.516555000">
        <ele>393.80</ele>
        <time>2016-10-22T05:44:27Z</time>
      </trkpt>
      <trkpt lat="42.503868000" lon="-2.516524000">
        <ele>393.60</ele>
        <time>2016-10-22T05:44:28Z</time>
      </trkpt>
      <trkpt lat="42.503895000" lon="-2.516497000">
        <ele>393.60</ele>
        <time>2016-10-22T05:44:29Z</time>
      </trkpt>
      <trkpt lat="42.503923000" lon="-2.516472000">
        <ele>393.60</ele>
        <time>2016-10-22T05:44:30Z</time>
      </trkpt>
      <trkpt lat="42.503948000" lon="-2.516440000">
        <ele>393.80</ele>
        <time>2016-10-22T05:44:31Z</time>
      </trkpt>
      <trkpt lat="42.503975000" lon="-2.516414000">
        <ele>393.90</ele>
        <time>2016-10-22T05:44:32Z</time>
      </trkpt>
      <trkpt lat="42.504006000" lon="-2.516382000">
        <ele>394.00</ele>
        <time>2016-10-22T05:44:33Z</time>
      </trkpt>
      <trkpt lat="42.504035000" lon="-2.516355000">
        <ele>394.00</ele>
        <time>2016-10-22T05:44:34Z</time>
      </trkpt>
      <trkpt lat="42.504065000" lon="-2.516330000">
        <ele>394.10</ele>
        <time>2016-10-22T05:44:35Z</time>
      </trkpt>
      <trkpt lat="42.504098000" lon="-2.516304000">
        <ele>394.10</ele>
        <time>2016-10-22T05:44:36Z</time>
      </trkpt>
      <trkpt lat="42.504132000" lon="-2.516278000">
        <ele>394.00</ele>
        <time>2016-10-22T05:44:37Z</time>
      </trkpt>
      <trkpt lat="42.504169000" lon="-2.516251000">
        <ele>393.90</ele>
        <time>2016-10-22T05:44:38Z</time>
      </trkpt>
      <trkpt lat="42.504207000" lon="-2.516223000">
        <ele>393.80</ele>
        <time>2016-10-22T05:44:39Z</time>
      </trkpt>
      <trkpt lat="42.504249000" lon="-2.516197000">
        <ele>393.70</ele>
        <time>2016-10-22T05:44:40Z</time>
      </trkpt>
      <trkpt lat="42.504294000" lon="-2.516171000">
        <ele>393.20</ele>
        <time>2016-10-22T05:44:41Z</time>
      </trkpt>
      <trkpt lat="42.504345000" lon="-2.516141000">
        <ele>392.90</ele>
        <time>2016-10-22T05:44:42Z</time>
      </trkpt>
      <trkpt lat="42.504402000" lon="-2.516111000">
        <ele>392.60</ele>
        <time>2016-10-22T05:44:43Z</time>
      </trkpt>
      <trkpt lat="42.504458000" lon="-2.516076000">
        <ele>392.30</ele>
        <time>2016-10-22T05:44:44Z</time>
      </trkpt>
      <trkpt lat="42.504519000" lon="-2.516042000">
        <ele>391.90</ele>
        <time>2016-10-22T05:44:45Z</time>
      </trkpt>
      <trkpt lat="42.504580000" lon="-2.516010000">
        <ele>391.60</ele>
        <time>2016-10-22T05:44:46Z</time>
      </trkpt>
      <trkpt lat="42.504646000" lon="-2.515979000">
        <ele>391.30</ele>
        <time>2016-10-22T05:44:47Z</time>
      </trkpt>
      <trkpt lat="42.504714000" lon="-2.515947000">
        <ele>391.10</ele>
        <time>2016-10-22T05:44:48Z</time>
      </trkpt>
      <trkpt lat="42.504781000" lon="-2.515911000">
        <ele>390.60</ele>
        <time>2016-10-22T05:44:49Z</time>
      </trkpt>
      <trkpt lat="42.504842000" lon="-2.515864000">
        <ele>390.30</ele>
        <time>2016-10-22T05:44:50Z</time>
      </trkpt>
      <trkpt lat="42.504903000" lon="-2.515811000">
        <ele>389.90</ele>
        <time>2016-10-22T05:44:51Z</time>
      </trkpt>
      <trkpt lat="42.505012000" lon="-2.515678000">
        <ele>389.20</ele>
        <time>2016-10-22T05:44:53Z</time>
      </trkpt>
      <trkpt lat="42.505058000" lon="-2.515608000">
        <ele>388.90</ele>
        <time>2016-10-22T05:44:54Z</time>
      </trkpt>
      <trkpt lat="42.505096000" lon="-2.515535000">
        <ele>388.50</ele>
        <time>2016-10-22T05:44:55Z</time>
      </trkpt>
      <trkpt lat="42.505126000" lon="-2.515462000">
        <ele>388.20</ele>
        <time>2016-10-22T05:44:56Z</time>
      </trkpt>
      <trkpt lat="42.505157000" lon="-2.515393000">
        <ele>387.90</ele>
        <time>2016-10-22T05:44:57Z</time>
      </trkpt>
      <trkpt lat="42.505194000" lon="-2.515325000">
        <ele>387.70</ele>
        <time>2016-10-22T05:44:58Z</time>
      </trkpt>
      <trkpt lat="42.505234000" lon="-2.515263000">
        <ele>387.40</ele>
        <time>2016-10-22T05:44:59Z</time>
      </trkpt>
      <trkpt lat="42.505274000" lon="-2.515204000">
        <ele>387.20</ele>
        <time>2016-10-22T05:45:00Z</time>
      </trkpt>
      <trkpt lat="42.505315000" lon="-2.515148000">
        <ele>387.00</ele>
        <time>2016-10-22T05:45:01Z</time>
      </trkpt>
      <trkpt lat="42.505359000" lon="-2.515095000">
        <ele>386.70</ele>
        <time>2016-10-22T05:45:02Z</time>
      </trkpt>
      <trkpt lat="42.505401000" lon="-2.515042000">
        <ele>386.60</ele>
        <time>2016-10-22T05:45:03Z</time>
      </trkpt>
      <trkpt lat="42.505445000" lon="-2.514987000">
        <ele>386.50</ele>
        <time>2016-10-22T05:45:04Z</time>
      </trkpt>
      <trkpt lat="42.505484000" lon="-2.514926000">
        <ele>386.40</ele>
        <time>2016-10-22T05:45:05Z</time>
      </trkpt>
      <trkpt lat="42.505526000" lon="-2.514868000">
        <ele>386.30</ele>
        <time>2016-10-22T05:45:06Z</time>
      </trkpt>
      <trkpt lat="42.505570000" lon="-2.514810000">
        <ele>386.10</ele>
        <time>2016-10-22T05:45:07Z</time>
      </trkpt>
      <trkpt lat="42.505610000" lon="-2.514754000">
        <ele>386.00</ele>
        <time>2016-10-22T05:45:08Z</time>
      </trkpt>
      <trkpt lat="42.505645000" lon="-2.514706000">
        <ele>385.90</ele>
        <time>2016-10-22T05:45:09Z</time>
      </trkpt>
      <trkpt lat="42.505682000" lon="-2.514658000">
        <ele>385.80</ele>
        <time>2016-10-22T05:45:10Z</time>
      </trkpt>
      <trkpt lat="42.505716000" lon="-2.514615000">
        <ele>385.80</ele>
        <time>2016-10-22T05:45:11Z</time>
      </trkpt>
      <trkpt lat="42.505750000" lon="-2.514579000">
        <ele>385.70</ele>
        <time>2016-10-22T05:45:12Z</time>
      </trkpt>
      <trkpt lat="42.505778000" lon="-2.514549000">
        <ele>385.70</ele>
        <time>2016-10-22T05:45:13Z</time>
      </trkpt>
      <trkpt lat="42.505805000" lon="-2.514519000">
        <ele>385.70</ele>
        <time>2016-10-22T05:45:14Z</time>
      </trkpt>
      <trkpt lat="42.505830000" lon="-2.514482000">
        <ele>385.60</ele>
        <time>2016-10-22T05:45:15Z</time>
      </trkpt>
      <trkpt lat="42.505854000" lon="-2.514448000">
        <ele>385.60</ele>
        <time>2016-10-22T05:45:16Z</time>
      </trkpt>
      <trkpt lat="42.505880000" lon="-2.514410000">
        <ele>385.80</ele>
        <time>2016-10-22T05:45:17Z</time>
      </trkpt>
      <trkpt lat="42.505903000" lon="-2.514371000">
        <ele>385.80</ele>
        <time>2016-10-22T05:45:18Z</time>
      </trkpt>
      <trkpt lat="42.505929000" lon="-2.514332000">
        <ele>386.00</ele>
        <time>2016-10-22T05:45:19Z</time>
      </trkpt>
      <trkpt lat="42.505952000" lon="-2.514293000">
        <ele>386.00</ele>
        <time>2016-10-22T05:45:20Z</time>
      </trkpt>
      <trkpt lat="42.505974000" lon="-2.514254000">
        <ele>386.10</ele>
        <time>2016-10-22T05:45:21Z</time>
      </trkpt>
      <trkpt lat="42.505995000" lon="-2.514213000">
        <ele>386.10</ele>
        <time>2016-10-22T05:45:22Z</time>
      </trkpt>
      <trkpt lat="42.506023000" lon="-2.514168000">
        <ele>386.20</ele>
        <time>2016-10-22T05:45:23Z</time>
      </trkpt>
      <trkpt lat="42.506048000" lon="-2.514132000">
        <ele>386.30</ele>
        <time>2016-10-22T05:45:24Z</time>
      </trkpt>
      <trkpt lat="42.506072000" lon="-2.514094000">
        <ele>386.40</ele>
        <time>2016-10-22T05:45:25Z</time>
      </trkpt>
      <trkpt lat="42.506096000" lon="-2.514057000">
        <ele>386.40</ele>
        <time>2016-10-22T05:45:26Z</time>
      </trkpt>
      <trkpt lat="42.506124000" lon="-2.514021000">
        <ele>386.50</ele>
        <time>2016-10-22T05:45:27Z</time>
      </trkpt>
      <trkpt lat="42.506149000" lon="-2.513987000">
        <ele>386.60</ele>
        <time>2016-10-22T05:45:28Z</time>
      </trkpt>
      <trkpt lat="42.506175000" lon="-2.513949000">
        <ele>386.70</ele>
        <time>2016-10-22T05:45:29Z</time>
      </trkpt>
      <trkpt lat="42.506203000" lon="-2.513912000">
        <ele>386.80</ele>
        <time>2016-10-22T05:45:30Z</time>
      </trkpt>
      <trkpt lat="42.506236000" lon="-2.513874000">
        <ele>386.80</ele>
        <time>2016-10-22T05:45:31Z</time>
      </trkpt>
      <trkpt lat="42.506269000" lon="-2.513837000">
        <ele>386.80</ele>
        <time>2016-10-22T05:45:32Z</time>
      </trkpt>
      <trkpt lat="42.506303000" lon="-2.513797000">
        <ele>386.50</ele>
        <time>2016-10-22T05:45:33Z</time>
      </trkpt>
      <trkpt lat="42.506340000" lon="-2.513754000">
        <ele>386.40</ele>
        <time>2016-10-22T05:45:34Z</time>
      </trkpt>
      <trkpt lat="42.506375000" lon="-2.513715000">
        <ele>386.10</ele>
        <time>2016-10-22T05:45:35Z</time>
      </trkpt>
      <trkpt lat="42.506412000" lon="-2.513678000">
        <ele>386.00</ele>
        <time>2016-10-22T05:45:36Z</time>
      </trkpt>
      <trkpt lat="42.506445000" lon="-2.513640000">
        <ele>385.90</ele>
        <time>2016-10-22T05:45:37Z</time>
      </trkpt>
      <trkpt lat="42.506475000" lon="-2.513595000">
        <ele>385.80</ele>
        <time>2016-10-22T05:45:38Z</time>
      </trkpt>
      <trkpt lat="42.506503000" lon="-2.513547000">
        <ele>385.80</ele>
        <time>2016-10-22T05:45:39Z</time>
      </trkpt>
      <trkpt lat="42.506524000" lon="-2.513489000">
        <ele>385.80</ele>
        <time>2016-10-22T05:45:40Z</time>
      </trkpt>
      <trkpt lat="42.506539000" lon="-2.513432000">
        <ele>385.80</ele>
        <time>2016-10-22T05:45:41Z</time>
      </trkpt>
      <trkpt lat="42.506547000" lon="-2.513377000">
        <ele>385.80</ele>
        <time>2016-10-22T05:45:42Z</time>
      </trkpt>
      <trkpt lat="42.506548000" lon="-2.513320000">
        <ele>385.70</ele>
        <time>2016-10-22T05:45:43Z</time>
      </trkpt>
      <trkpt lat="42.506549000" lon="-2.513265000">
        <ele>385.70</ele>
        <time>2016-10-22T05:45:44Z</time>
      </trkpt>
      <trkpt lat="42.506551000" lon="-2.513214000">
        <ele>385.60</ele>
        <time>2016-10-22T05:45:45Z</time>
      </trkpt>
      <trkpt lat="42.506553000" lon="-2.513166000">
        <ele>385.60</ele>
        <time>2016-10-22T05:45:46Z</time>
      </trkpt>
      <trkpt lat="42.506558000" lon="-2.513116000">
        <ele>385.60</ele>
        <time>2016-10-22T05:45:47Z</time>
      </trkpt>
      <trkpt lat="42.506563000" lon="-2.513068000">
        <ele>385.60</ele>
        <time>2016-10-22T05:45:48Z</time>
      </trkpt>
      <trkpt lat="42.506577000" lon="-2.513021000">
        <ele>385.50</ele>
        <time>2016-10-22T05:45:49Z</time>
      </trkpt>
      <trkpt lat="42.506588000" lon="-2.512972000">
        <ele>385.50</ele>
        <time>2016-10-22T05:45:50Z</time>
      </trkpt>
      <trkpt lat="42.506601000" lon="-2.512924000">
        <ele>385.60</ele>
        <time>2016-10-22T05:45:51Z</time>
      </trkpt>
      <trkpt lat="42.506616000" lon="-2.512879000">
        <ele>385.60</ele>
        <time>2016-10-22T05:45:52Z</time>
      </trkpt>
      <trkpt lat="42.506633000" lon="-2.512835000">
        <ele>385.80</ele>
        <time>2016-10-22T05:45:53Z</time>
      </trkpt>
      <trkpt lat="42.506671000" lon="-2.512755000">
        <ele>385.90</ele>
        <time>2016-10-22T05:45:55Z</time>
      </trkpt>
      <trkpt lat="42.506691000" lon="-2.512716000">
        <ele>386.00</ele>
        <time>2016-10-22T05:45:56Z</time>
      </trkpt>
      <trkpt lat="42.506709000" lon="-2.512676000">
        <ele>386.00</ele>
        <time>2016-10-22T05:45:57Z</time>
      </trkpt>
      <trkpt lat="42.506729000" lon="-2.512639000">
        <ele>386.10</ele>
        <time>2016-10-22T05:45:58Z</time>
      </trkpt>
      <trkpt lat="42.506746000" lon="-2.512599000">
        <ele>386.20</ele>
        <time>2016-10-22T05:45:59Z</time>
      </trkpt>
      <trkpt lat="42.506762000" lon="-2.512563000">
        <ele>386.20</ele>
        <time>2016-10-22T05:46:00Z</time>
      </trkpt>
      <trkpt lat="42.506780000" lon="-2.512523000">
        <ele>386.30</ele>
        <time>2016-10-22T05:46:01Z</time>
      </trkpt>
      <trkpt lat="42.506799000" lon="-2.512482000">
        <ele>386.30</ele>
        <time>2016-10-22T05:46:02Z</time>
      </trkpt>
      <trkpt lat="42.506817000" lon="-2.512442000">
        <ele>386.50</ele>
        <time>2016-10-22T05:46:03Z</time>
      </trkpt>
      <trkpt lat="42.506832000" lon="-2.512404000">
        <ele>386.50</ele>
        <time>2016-10-22T05:46:04Z</time>
      </trkpt>
      <trkpt lat="42.506851000" lon="-2.512363000">
        <ele>386.60</ele>
        <time>2016-10-22T05:46:05Z</time>
      </trkpt>
      <trkpt lat="42.506868000" lon="-2.512325000">
        <ele>386.70</ele>
        <time>2016-10-22T05:46:06Z</time>
      </trkpt>
      <trkpt lat="42.506887000" lon="-2.512287000">
        <ele>386.70</ele>
        <time>2016-10-22T05:46:07Z</time>
      </trkpt>
      <trkpt lat="42.506904000" lon="-2.512251000">
        <ele>386.70</ele>
        <time>2016-10-22T05:46:08Z</time>
      </trkpt>
      <trkpt lat="42.506918000" lon="-2.512214000">
        <ele>386.80</ele>
        <time>2016-10-22T05:46:09Z</time>
      </trkpt>
      <trkpt lat="42.506934000" lon="-2.512176000">
        <ele>386.90</ele>
        <time>2016-10-22T05:46:10Z</time>
      </trkpt>
      <trkpt lat="42.506951000" lon="-2.512138000">
        <ele>387.20</ele>
        <time>2016-10-22T05:46:11Z</time>
      </trkpt>
      <trkpt lat="42.506967000" lon="-2.512099000">
        <ele>387.50</ele>
        <time>2016-10-22T05:46:12Z</time>
      </trkpt>
      <trkpt lat="42.506982000" lon="-2.512063000">
        <ele>387.70</ele>
        <time>2016-10-22T05:46:13Z</time>
      </trkpt>
      <trkpt lat="42.506995000" lon="-2.512025000">
        <ele>387.80</ele>
        <time>2016-10-22T05:46:14Z</time>
      </trkpt>
      <trkpt lat="42.507007000" lon="-2.511986000">
        <ele>387.90</ele>
        <time>2016-10-22T05:46:15Z</time>
      </trkpt>
      <trkpt lat="42.507017000" lon="-2.511949000">
        <ele>388.00</ele>
        <time>2016-10-22T05:46:16Z</time>
      </trkpt>
      <trkpt lat="42.507028000" lon="-2.511906000">
        <ele>388.10</ele>
        <time>2016-10-22T05:46:17Z</time>
      </trkpt>
      <trkpt lat="42.507040000" lon="-2.511863000">
        <ele>388.10</ele>
        <time>2016-10-22T05:46:18Z</time>
      </trkpt>
      <trkpt lat="42.507054000" lon="-2.511821000">
        <ele>388.40</ele>
        <time>2016-10-22T05:46:19Z</time>
      </trkpt>
      <trkpt lat="42.507068000" lon="-2.511778000">
        <ele>388.50</ele>
        <time>2016-10-22T05:46:20Z</time>
      </trkpt>
      <trkpt lat="42.507083000" lon="-2.511735000">
        <ele>388.60</ele>
        <time>2016-10-22T05:46:21Z</time>
      </trkpt>
      <trkpt lat="42.507095000" lon="-2.511687000">
        <ele>388.70</ele>
        <time>2016-10-22T05:46:22Z</time>
      </trkpt>
      <trkpt lat="42.507108000" lon="-2.511639000">
        <ele>388.80</ele>
        <time>2016-10-22T05:46:23Z</time>
      </trkpt>
      <trkpt lat="42.507121000" lon="-2.511595000">
        <ele>388.80</ele>
        <time>2016-10-22T05:46:24Z</time>
      </trkpt>
      <trkpt lat="42.507135000" lon="-2.511546000">
        <ele>389.00</ele>
        <time>2016-10-22T05:46:25Z</time>
      </trkpt>
      <trkpt lat="42.507149000" lon="-2.511494000">
        <ele>389.00</ele>
        <time>2016-10-22T05:46:26Z</time>
      </trkpt>
      <trkpt lat="42.507161000" lon="-2.511444000">
        <ele>389.10</ele>
        <time>2016-10-22T05:46:27Z</time>
      </trkpt>
      <trkpt lat="42.507174000" lon="-2.511396000">
        <ele>389.20</ele>
        <time>2016-10-22T05:46:28Z</time>
      </trkpt>
      <trkpt lat="42.507188000" lon="-2.511348000">
        <ele>389.10</ele>
        <time>2016-10-22T05:46:29Z</time>
      </trkpt>
      <trkpt lat="42.507201000" lon="-2.511302000">
        <ele>389.10</ele>
        <time>2016-10-22T05:46:30Z</time>
      </trkpt>
      <trkpt lat="42.507216000" lon="-2.511254000">
        <ele>389.10</ele>
        <time>2016-10-22T05:46:31Z</time>
      </trkpt>
      <trkpt lat="42.507234000" lon="-2.511207000">
        <ele>389.10</ele>
        <time>2016-10-22T05:46:32Z</time>
      </trkpt>
      <trkpt lat="42.507253000" lon="-2.511162000">
        <ele>389.20</ele>
        <time>2016-10-22T05:46:33Z</time>
      </trkpt>
      <trkpt lat="42.507273000" lon="-2.511111000">
        <ele>389.30</ele>
        <time>2016-10-22T05:46:34Z</time>
      </trkpt>
      <trkpt lat="42.507293000" lon="-2.511066000">
        <ele>389.40</ele>
        <time>2016-10-22T05:46:35Z</time>
      </trkpt>
      <trkpt lat="42.507313000" lon="-2.511019000">
        <ele>389.40</ele>
        <time>2016-10-22T05:46:36Z</time>
      </trkpt>
      <trkpt lat="42.507332000" lon="-2.510970000">
        <ele>389.30</ele>
        <time>2016-10-22T05:46:37Z</time>
      </trkpt>
      <trkpt lat="42.507353000" lon="-2.510922000">
        <ele>389.30</ele>
        <time>2016-10-22T05:46:38Z</time>
      </trkpt>
      <trkpt lat="42.507377000" lon="-2.510869000">
        <ele>389.20</ele>
        <time>2016-10-22T05:46:39Z</time>
      </trkpt>
      <trkpt lat="42.507396000" lon="-2.510819000">
        <ele>389.10</ele>
        <time>2016-10-22T05:46:40Z</time>
      </trkpt>
      <trkpt lat="42.507417000" lon="-2.510766000">
        <ele>389.00</ele>
        <time>2016-10-22T05:46:41Z</time>
      </trkpt>
      <trkpt lat="42.507438000" lon="-2.510712000">
        <ele>388.90</ele>
        <time>2016-10-22T05:46:42Z</time>
      </trkpt>
      <trkpt lat="42.507459000" lon="-2.510657000">
        <ele>388.70</ele>
        <time>2016-10-22T05:46:43Z</time>
      </trkpt>
      <trkpt lat="42.507480000" lon="-2.510603000">
        <ele>388.70</ele>
        <time>2016-10-22T05:46:44Z</time>
      </trkpt>
      <trkpt lat="42.507502000" lon="-2.510545000">
        <ele>388.60</ele>
        <time>2016-10-22T05:46:45Z</time>
      </trkpt>
      <trkpt lat="42.507524000" lon="-2.510485000">
        <ele>388.50</ele>
        <time>2016-10-22T05:46:46Z</time>
      </trkpt>
      <trkpt lat="42.507544000" lon="-2.510427000">
        <ele>388.40</ele>
        <time>2016-10-22T05:46:47Z</time>
      </trkpt>
      <trkpt lat="42.507565000" lon="-2.510369000">
        <ele>388.30</ele>
        <time>2016-10-22T05:46:48Z</time>
      </trkpt>
      <trkpt lat="42.507583000" lon="-2.510310000">
        <ele>388.20</ele>
        <time>2016-10-22T05:46:49Z</time>
      </trkpt>
      <trkpt lat="42.507603000" lon="-2.510252000">
        <ele>388.00</ele>
        <time>2016-10-22T05:46:50Z</time>
      </trkpt>
      <trkpt lat="42.507627000" lon="-2.510195000">
        <ele>387.90</ele>
        <time>2016-10-22T05:46:51Z</time>
      </trkpt>
      <trkpt lat="42.507655000" lon="-2.510147000">
        <ele>387.80</ele>
        <time>2016-10-22T05:46:52Z</time>
      </trkpt>
      <trkpt lat="42.507685000" lon="-2.510098000">
        <ele>387.80</ele>
        <time>2016-10-22T05:46:53Z</time>
      </trkpt>
      <trkpt lat="42.507714000" lon="-2.510048000">
        <ele>387.70</ele>
        <time>2016-10-22T05:46:54Z</time>
      </trkpt>
      <trkpt lat="42.507739000" lon="-2.509997000">
        <ele>387.60</ele>
        <time>2016-10-22T05:46:55Z</time>
      </trkpt>
      <trkpt lat="42.507795000" lon="-2.509901000">
        <ele>387.50</ele>
        <time>2016-10-22T05:46:57Z</time>
      </trkpt>
      <trkpt lat="42.507825000" lon="-2.509855000">
        <ele>387.50</ele>
        <time>2016-10-22T05:46:58Z</time>
      </trkpt>
      <trkpt lat="42.507856000" lon="-2.509811000">
        <ele>387.40</ele>
        <time>2016-10-22T05:46:59Z</time>
      </trkpt>
      <trkpt lat="42.507888000" lon="-2.509769000">
        <ele>387.40</ele>
        <time>2016-10-22T05:47:00Z</time>
      </trkpt>
      <trkpt lat="42.507919000" lon="-2.509726000">
        <ele>387.10</ele>
        <time>2016-10-22T05:47:01Z</time>
      </trkpt>
      <trkpt lat="42.507953000" lon="-2.509682000">
        <ele>386.90</ele>
        <time>2016-10-22T05:47:02Z</time>
      </trkpt>
      <trkpt lat="42.507990000" lon="-2.509641000">
        <ele>386.80</ele>
        <time>2016-10-22T05:47:03Z</time>
      </trkpt>
      <trkpt lat="42.508026000" lon="-2.509607000">
        <ele>386.60</ele>
        <time>2016-10-22T05:47:04Z</time>
      </trkpt>
      <trkpt lat="42.508061000" lon="-2.509575000">
        <ele>386.60</ele>
        <time>2016-10-22T05:47:05Z</time>
      </trkpt>
      <trkpt lat="42.508099000" lon="-2.509546000">
        <ele>386.50</ele>
        <time>2016-10-22T05:47:06Z</time>
      </trkpt>
      <trkpt lat="42.508136000" lon="-2.509519000">
        <ele>386.40</ele>
        <time>2016-10-22T05:47:07Z</time>
      </trkpt>
      <trkpt lat="42.508173000" lon="-2.509492000">
        <ele>386.40</ele>
        <time>2016-10-22T05:47:08Z</time>
      </trkpt>
      <trkpt lat="42.508209000" lon="-2.509467000">
        <ele>386.50</ele>
        <time>2016-10-22T05:47:09Z</time>
      </trkpt>
      <trkpt lat="42.508246000" lon="-2.509439000">
        <ele>386.60</ele>
        <time>2016-10-22T05:47:10Z</time>
      </trkpt>
      <trkpt lat="42.508285000" lon="-2.509408000">
        <ele>386.60</ele>
        <time>2016-10-22T05:47:11Z</time>
      </trkpt>
      <trkpt lat="42.508322000" lon="-2.509376000">
        <ele>386.70</ele>
        <time>2016-10-22T05:47:12Z</time>
      </trkpt>
      <trkpt lat="42.508355000" lon="-2.509343000">
        <ele>386.80</ele>
        <time>2016-10-22T05:47:13Z</time>
      </trkpt>
      <trkpt lat="42.508391000" lon="-2.509308000">
        <ele>386.80</ele>
        <time>2016-10-22T05:47:14Z</time>
      </trkpt>
      <trkpt lat="42.508428000" lon="-2.509269000">
        <ele>386.90</ele>
        <time>2016-10-22T05:47:15Z</time>
      </trkpt>
      <trkpt lat="42.508462000" lon="-2.509239000">
        <ele>386.90</ele>
        <time>2016-10-22T05:47:16Z</time>
      </trkpt>
      <trkpt lat="42.508499000" lon="-2.509205000">
        <ele>387.00</ele>
        <time>2016-10-22T05:47:17Z</time>
      </trkpt>
      <trkpt lat="42.508538000" lon="-2.509175000">
        <ele>387.00</ele>
        <time>2016-10-22T05:47:18Z</time>
      </trkpt>
      <trkpt lat="42.508578000" lon="-2.509146000">
        <ele>387.00</ele>
        <time>2016-10-22T05:47:19Z</time>
      </trkpt>
      <trkpt lat="42.508618000" lon="-2.509116000">
        <ele>386.90</ele>
        <time>2016-10-22T05:47:20Z</time>
      </trkpt>
      <trkpt lat="42.508655000" lon="-2.509091000">
        <ele>387.00</ele>
        <time>2016-10-22T05:47:21Z</time>
      </trkpt>
      <trkpt lat="42.508690000" lon="-2.509066000">
        <ele>387.00</ele>
        <time>2016-10-22T05:47:22Z</time>
      </trkpt>
      <trkpt lat="42.508723000" lon="-2.509044000">
        <ele>387.00</ele>
        <time>2016-10-22T05:47:23Z</time>
      </trkpt>
      <trkpt lat="42.508756000" lon="-2.509021000">
        <ele>387.00</ele>
        <time>2016-10-22T05:47:24Z</time>
      </trkpt>
      <trkpt lat="42.508788000" lon="-2.508997000">
        <ele>387.20</ele>
        <time>2016-10-22T05:47:25Z</time>
      </trkpt>
      <trkpt lat="42.508819000" lon="-2.508976000">
        <ele>387.30</ele>
        <time>2016-10-22T05:47:26Z</time>
      </trkpt>
      <trkpt lat="42.508849000" lon="-2.508962000">
        <ele>387.50</ele>
        <time>2016-10-22T05:47:27Z</time>
      </trkpt>
      <trkpt lat="42.508879000" lon="-2.508943000">
        <ele>387.60</ele>
        <time>2016-10-22T05:47:28Z</time>
      </trkpt>
      <trkpt lat="42.508910000" lon="-2.508922000">
        <ele>387.80</ele>
        <time>2016-10-22T05:47:29Z</time>
      </trkpt>
      <trkpt lat="42.508940000" lon="-2.508908000">
        <ele>388.00</ele>
        <time>2016-10-22T05:47:30Z</time>
      </trkpt>
      <trkpt lat="42.508964000" lon="-2.508893000">
        <ele>388.10</ele>
        <time>2016-10-22T05:47:31Z</time>
      </trkpt>
      <trkpt lat="42.508992000" lon="-2.508874000">
        <ele>388.10</ele>
        <time>2016-10-22T05:47:32Z</time>
      </trkpt>
      <trkpt lat="42.509019000" lon="-2.508861000">
        <ele>388.50</ele>
        <time>2016-10-22T05:47:33Z</time>
      </trkpt>
      <trkpt lat="42.509047000" lon="-2.508852000">
        <ele>388.80</ele>
        <time>2016-10-22T05:47:34Z</time>
      </trkpt>
      <trkpt lat="42.509077000" lon="-2.508840000">
        <ele>389.10</ele>
        <time>2016-10-22T05:47:35Z</time>
      </trkpt>
      <trkpt lat="42.509103000" lon="-2.508825000">
        <ele>389.40</ele>
        <time>2016-10-22T05:47:36Z</time>
      </trkpt>
      <trkpt lat="42.509133000" lon="-2.508810000">
        <ele>389.70</ele>
        <time>2016-10-22T05:47:37Z</time>
      </trkpt>
      <trkpt lat="42.509161000" lon="-2.508797000">
        <ele>389.90</ele>
        <time>2016-10-22T05:47:38Z</time>
      </trkpt>
      <trkpt lat="42.509193000" lon="-2.508781000">
        <ele>390.00</ele>
        <time>2016-10-22T05:47:39Z</time>
      </trkpt>
      <trkpt lat="42.509222000" lon="-2.508767000">
        <ele>390.20</ele>
        <time>2016-10-22T05:47:40Z</time>
      </trkpt>
      <trkpt lat="42.509252000" lon="-2.508755000">
        <ele>390.30</ele>
        <time>2016-10-22T05:47:41Z</time>
      </trkpt>
      <trkpt lat="42.509283000" lon="-2.508744000">
        <ele>390.30</ele>
        <time>2016-10-22T05:47:42Z</time>
      </trkpt>
      <trkpt lat="42.509312000" lon="-2.508732000">
        <ele>390.40</ele>
        <time>2016-10-22T05:47:43Z</time>
      </trkpt>
      <trkpt lat="42.509344000" lon="-2.508719000">
        <ele>390.50</ele>
        <time>2016-10-22T05:47:44Z</time>
      </trkpt>
      <trkpt lat="42.509373000" lon="-2.508706000">
        <ele>390.80</ele>
        <time>2016-10-22T05:47:45Z</time>
      </trkpt>
      <trkpt lat="42.509402000" lon="-2.508692000">
        <ele>391.00</ele>
        <time>2016-10-22T05:47:46Z</time>
      </trkpt>
      <trkpt lat="42.509433000" lon="-2.508679000">
        <ele>391.20</ele>
        <time>2016-10-22T05:47:47Z</time>
      </trkpt>
      <trkpt lat="42.509461000" lon="-2.508667000">
        <ele>391.40</ele>
        <time>2016-10-22T05:47:48Z</time>
      </trkpt>
      <trkpt lat="42.509489000" lon="-2.508651000">
        <ele>391.50</ele>
        <time>2016-10-22T05:47:49Z</time>
      </trkpt>
      <trkpt lat="42.509518000" lon="-2.508636000">
        <ele>391.60</ele>
        <time>2016-10-22T05:47:50Z</time>
      </trkpt>
      <trkpt lat="42.509546000" lon="-2.508623000">
        <ele>391.70</ele>
        <time>2016-10-22T05:47:51Z</time>
      </trkpt>
      <trkpt lat="42.509573000" lon="-2.508613000">
        <ele>391.80</ele>
        <time>2016-10-22T05:47:52Z</time>
      </trkpt>
      <trkpt lat="42.509600000" lon="-2.508603000">
        <ele>392.00</ele>
        <time>2016-10-22T05:47:53Z</time>
      </trkpt>
      <trkpt lat="42.509631000" lon="-2.508587000">
        <ele>392.10</ele>
        <time>2016-10-22T05:47:54Z</time>
      </trkpt>
      <trkpt lat="42.509660000" lon="-2.508574000">
        <ele>392.30</ele>
        <time>2016-10-22T05:47:55Z</time>
      </trkpt>
      <trkpt lat="42.509690000" lon="-2.508560000">
        <ele>392.40</ele>
        <time>2016-10-22T05:47:56Z</time>
      </trkpt>
      <trkpt lat="42.509724000" lon="-2.508545000">
        <ele>392.60</ele>
        <time>2016-10-22T05:47:57Z</time>
      </trkpt>
      <trkpt lat="42.509785000" lon="-2.508522000">
        <ele>392.80</ele>
        <time>2016-10-22T05:47:59Z</time>
      </trkpt>
      <trkpt lat="42.509816000" lon="-2.508508000">
        <ele>392.90</ele>
        <time>2016-10-22T05:48:00Z</time>
      </trkpt>
      <trkpt lat="42.509846000" lon="-2.508490000">
        <ele>392.90</ele>
        <time>2016-10-22T05:48:01Z</time>
      </trkpt>
      <trkpt lat="42.509878000" lon="-2.508474000">
        <ele>392.90</ele>
        <time>2016-10-22T05:48:02Z</time>
      </trkpt>
      <trkpt lat="42.509908000" lon="-2.508459000">
        <ele>392.90</ele>
        <time>2016-10-22T05:48:03Z</time>
      </trkpt>
      <trkpt lat="42.509941000" lon="-2.508445000">
        <ele>392.90</ele>
        <time>2016-10-22T05:48:04Z</time>
      </trkpt>
      <trkpt lat="42.509974000" lon="-2.508433000">
        <ele>392.90</ele>
        <time>2016-10-22T05:48:05Z</time>
      </trkpt>
      <trkpt lat="42.510003000" lon="-2.508423000">
        <ele>393.00</ele>
        <time>2016-10-22T05:48:06Z</time>
      </trkpt>
      <trkpt lat="42.510034000" lon="-2.508410000">
        <ele>393.00</ele>
        <time>2016-10-22T05:48:07Z</time>
      </trkpt>
      <trkpt lat="42.510066000" lon="-2.508400000">
        <ele>393.00</ele>
        <time>2016-10-22T05:48:08Z</time>
      </trkpt>
      <trkpt lat="42.510101000" lon="-2.508392000">
        <ele>393.00</ele>
        <time>2016-10-22T05:48:09Z</time>
      </trkpt>
      <trkpt lat="42.510134000" lon="-2.508378000">
        <ele>393.00</ele>
        <time>2016-10-22T05:48:10Z</time>
      </trkpt>
      <trkpt lat="42.510169000" lon="-2.508364000">
        <ele>393.00</ele>
        <time>2016-10-22T05:48:11Z</time>
      </trkpt>
      <trkpt lat="42.510201000" lon="-2.508349000">
        <ele>393.00</ele>
        <time>2016-10-22T05:48:12Z</time>
      </trkpt>
      <trkpt lat="42.510234000" lon="-2.508336000">
        <ele>393.00</ele>
        <time>2016-10-22T05:48:13Z</time>
      </trkpt>
      <trkpt lat="42.510266000" lon="-2.508319000">
        <ele>393.00</ele>
        <time>2016-10-22T05:48:14Z</time>
      </trkpt>
      <trkpt lat="42.510296000" lon="-2.508301000">
        <ele>393.10</ele>
        <time>2016-10-22T05:48:15Z</time>
      </trkpt>
      <trkpt lat="42.510327000" lon="-2.508282000">
        <ele>393.20</ele>
        <time>2016-10-22T05:48:16Z</time>
      </trkpt>
      <trkpt lat="42.510358000" lon="-2.508265000">
        <ele>393.30</ele>
        <time>2016-10-22T05:48:17Z</time>
      </trkpt>
      <trkpt lat="42.510392000" lon="-2.508249000">
        <ele>393.30</ele>
        <time>2016-10-22T05:48:18Z</time>
      </trkpt>
      <trkpt lat="42.510425000" lon="-2.508234000">
        <ele>393.30</ele>
        <time>2016-10-22T05:48:19Z</time>
      </trkpt>
      <trkpt lat="42.510459000" lon="-2.508218000">
        <ele>393.30</ele>
        <time>2016-10-22T05:48:20Z</time>
      </trkpt>
      <trkpt lat="42.510493000" lon="-2.508206000">
        <ele>393.30</ele>
        <time>2016-10-22T05:48:21Z</time>
      </trkpt>
      <trkpt lat="42.510528000" lon="-2.508192000">
        <ele>393.30</ele>
        <time>2016-10-22T05:48:22Z</time>
      </trkpt>
      <trkpt lat="42.510564000" lon="-2.508178000">
        <ele>393.30</ele>
        <time>2016-10-22T05:48:23Z</time>
      </trkpt>
      <trkpt lat="42.510605000" lon="-2.508167000">
        <ele>393.30</ele>
        <time>2016-10-22T05:48:24Z</time>
      </trkpt>
      <trkpt lat="42.510644000" lon="-2.508154000">
        <ele>393.30</ele>
        <time>2016-10-22T05:48:25Z</time>
      </trkpt>
      <trkpt lat="42.510679000" lon="-2.508142000">
        <ele>393.30</ele>
        <time>2016-10-22T05:48:26Z</time>
      </trkpt>
      <trkpt lat="42.510716000" lon="-2.508130000">
        <ele>393.20</ele>
        <time>2016-10-22T05:48:27Z</time>
      </trkpt>
      <trkpt lat="42.510747000" lon="-2.508115000">
        <ele>393.10</ele>
        <time>2016-10-22T05:48:28Z</time>
      </trkpt>
      <trkpt lat="42.510779000" lon="-2.508096000">
        <ele>393.00</ele>
        <time>2016-10-22T05:48:29Z</time>
      </trkpt>
      <trkpt lat="42.510808000" lon="-2.508083000">
        <ele>393.10</ele>
        <time>2016-10-22T05:48:30Z</time>
      </trkpt>
      <trkpt lat="42.510840000" lon="-2.508070000">
        <ele>393.10</ele>
        <time>2016-10-22T05:48:31Z</time>
      </trkpt>
      <trkpt lat="42.510874000" lon="-2.508056000">
        <ele>393.20</ele>
        <time>2016-10-22T05:48:32Z</time>
      </trkpt>
      <trkpt lat="42.510908000" lon="-2.508042000">
        <ele>393.20</ele>
        <time>2016-10-22T05:48:33Z</time>
      </trkpt>
      <trkpt lat="42.510941000" lon="-2.508028000">
        <ele>393.20</ele>
        <time>2016-10-22T05:48:34Z</time>
      </trkpt>
      <trkpt lat="42.510977000" lon="-2.508015000">
        <ele>393.10</ele>
        <time>2016-10-22T05:48:35Z</time>
      </trkpt>
      <trkpt lat="42.511013000" lon="-2.507999000">
        <ele>393.10</ele>
        <time>2016-10-22T05:48:36Z</time>
      </trkpt>
      <trkpt lat="42.511048000" lon="-2.507985000">
        <ele>393.00</ele>
        <time>2016-10-22T05:48:37Z</time>
      </trkpt>
      <trkpt lat="42.511083000" lon="-2.507970000">
        <ele>392.90</ele>
        <time>2016-10-22T05:48:38Z</time>
      </trkpt>
      <trkpt lat="42.511120000" lon="-2.507949000">
        <ele>392.90</ele>
        <time>2016-10-22T05:48:39Z</time>
      </trkpt>
      <trkpt lat="42.511159000" lon="-2.507936000">
        <ele>392.80</ele>
        <time>2016-10-22T05:48:40Z</time>
      </trkpt>
      <trkpt lat="42.511196000" lon="-2.507921000">
        <ele>392.80</ele>
        <time>2016-10-22T05:48:41Z</time>
      </trkpt>
      <trkpt lat="42.511233000" lon="-2.507907000">
        <ele>392.70</ele>
        <time>2016-10-22T05:48:42Z</time>
      </trkpt>
      <trkpt lat="42.511269000" lon="-2.507887000">
        <ele>392.70</ele>
        <time>2016-10-22T05:48:43Z</time>
      </trkpt>
      <trkpt lat="42.511304000" lon="-2.507867000">
        <ele>392.60</ele>
        <time>2016-10-22T05:48:44Z</time>
      </trkpt>
      <trkpt lat="42.511337000" lon="-2.507850000">
        <ele>392.60</ele>
        <time>2016-10-22T05:48:45Z</time>
      </trkpt>
      <trkpt lat="42.511371000" lon="-2.507827000">
        <ele>392.70</ele>
        <time>2016-10-22T05:48:46Z</time>
      </trkpt>
      <trkpt lat="42.511405000" lon="-2.507804000">
        <ele>392.70</ele>
        <time>2016-10-22T05:48:47Z</time>
      </trkpt>
      <trkpt lat="42.511440000" lon="-2.507777000">
        <ele>392.80</ele>
        <time>2016-10-22T05:48:48Z</time>
      </trkpt>
      <trkpt lat="42.511474000" lon="-2.507753000">
        <ele>393.00</ele>
        <time>2016-10-22T05:48:49Z</time>
      </trkpt>
      <trkpt lat="42.511509000" lon="-2.507731000">
        <ele>393.10</ele>
        <time>2016-10-22T05:48:50Z</time>
      </trkpt>
      <trkpt lat="42.511540000" lon="-2.507706000">
        <ele>393.10</ele>
        <time>2016-10-22T05:48:51Z</time>
      </trkpt>
      <trkpt lat="42.511575000" lon="-2.507685000">
        <ele>393.10</ele>
        <time>2016-10-22T05:48:52Z</time>
      </trkpt>
      <trkpt lat="42.511608000" lon="-2.507661000">
        <ele>393.10</ele>
        <time>2016-10-22T05:48:53Z</time>
      </trkpt>
      <trkpt lat="42.511643000" lon="-2.507640000">
        <ele>393.00</ele>
        <time>2016-10-22T05:48:54Z</time>
      </trkpt>
      <trkpt lat="42.511678000" lon="-2.507617000">
        <ele>392.80</ele>
        <time>2016-10-22T05:48:55Z</time>
      </trkpt>
      <trkpt lat="42.511715000" lon="-2.507598000">
        <ele>392.70</ele>
        <time>2016-10-22T05:48:56Z</time>
      </trkpt>
      <trkpt lat="42.511753000" lon="-2.507579000">
        <ele>392.60</ele>
        <time>2016-10-22T05:48:57Z</time>
      </trkpt>
      <trkpt lat="42.511787000" lon="-2.507562000">
        <ele>392.50</ele>
        <time>2016-10-22T05:48:58Z</time>
      </trkpt>
      <trkpt lat="42.511847000" lon="-2.507538000">
        <ele>392.10</ele>
        <time>2016-10-22T05:49:00Z</time>
      </trkpt>
      <trkpt lat="42.511877000" lon="-2.507524000">
        <ele>391.90</ele>
        <time>2016-10-22T05:49:01Z</time>
      </trkpt>
      <trkpt lat="42.511909000" lon="-2.507508000">
        <ele>391.80</ele>
        <time>2016-10-22T05:49:02Z</time>
      </trkpt>
      <trkpt lat="42.511943000" lon="-2.507494000">
        <ele>391.60</ele>
        <time>2016-10-22T05:49:03Z</time>
      </trkpt>
      <trkpt lat="42.511978000" lon="-2.507483000">
        <ele>391.40</ele>
        <time>2016-10-22T05:49:04Z</time>
      </trkpt>
      <trkpt lat="42.512016000" lon="-2.507461000">
        <ele>391.20</ele>
        <time>2016-10-22T05:49:05Z</time>
      </trkpt>
      <trkpt lat="42.512056000" lon="-2.507440000">
        <ele>390.90</ele>
        <time>2016-10-22T05:49:06Z</time>
      </trkpt>
      <trkpt lat="42.512101000" lon="-2.507422000">
        <ele>390.80</ele>
        <time>2016-10-22T05:49:07Z</time>
      </trkpt>
      <trkpt lat="42.512145000" lon="-2.507397000">
        <ele>390.60</ele>
        <time>2016-10-22T05:49:08Z</time>
      </trkpt>
      <trkpt lat="42.512194000" lon="-2.507370000">
        <ele>390.40</ele>
        <time>2016-10-22T05:49:09Z</time>
      </trkpt>
      <trkpt lat="42.512245000" lon="-2.507332000">
        <ele>390.30</ele>
        <time>2016-10-22T05:49:10Z</time>
      </trkpt>
      <trkpt lat="42.512294000" lon="-2.507291000">
        <ele>390.10</ele>
        <time>2016-10-22T05:49:11Z</time>
      </trkpt>
      <trkpt lat="42.512343000" lon="-2.507256000">
        <ele>389.60</ele>
        <time>2016-10-22T05:49:12Z</time>
      </trkpt>
      <trkpt lat="42.512392000" lon="-2.507216000">
        <ele>389.20</ele>
        <time>2016-10-22T05:49:13Z</time>
      </trkpt>
      <trkpt lat="42.512432000" lon="-2.507175000">
        <ele>388.40</ele>
        <time>2016-10-22T05:49:14Z</time>
      </trkpt>
      <trkpt lat="42.512474000" lon="-2.507139000">
        <ele>387.80</ele>
        <time>2016-10-22T05:49:15Z</time>
      </trkpt>
      <trkpt lat="42.512511000" lon="-2.507108000">
        <ele>386.80</ele>
        <time>2016-10-22T05:49:16Z</time>
      </trkpt>
      <trkpt lat="42.512546000" lon="-2.507070000">
        <ele>386.00</ele>
        <time>2016-10-22T05:49:17Z</time>
      </trkpt>
      <trkpt lat="42.512581000" lon="-2.507033000">
        <ele>385.20</ele>
        <time>2016-10-22T05:49:18Z</time>
      </trkpt>
      <trkpt lat="42.512609000" lon="-2.506993000">
        <ele>384.60</ele>
        <time>2016-10-22T05:49:19Z</time>
      </trkpt>
      <trkpt lat="42.512640000" lon="-2.506950000">
        <ele>383.90</ele>
        <time>2016-10-22T05:49:20Z</time>
      </trkpt>
      <trkpt lat="42.512671000" lon="-2.506896000">
        <ele>383.40</ele>
        <time>2016-10-22T05:49:21Z</time>
      </trkpt>
      <trkpt lat="42.512704000" lon="-2.506831000">
        <ele>382.80</ele>
        <time>2016-10-22T05:49:22Z</time>
      </trkpt>
      <trkpt lat="42.512737000" lon="-2.506759000">
        <ele>382.30</ele>
        <time>2016-10-22T05:49:23Z</time>
      </trkpt>
      <trkpt lat="42.512769000" lon="-2.506697000">
        <ele>381.70</ele>
        <time>2016-10-22T05:49:24Z</time>
      </trkpt>
      <trkpt lat="42.512797000" lon="-2.506642000">
        <ele>381.30</ele>
        <time>2016-10-22T05:49:25Z</time>
      </trkpt>
      <trkpt lat="42.512825000" lon="-2.506618000">
        <ele>380.40</ele>
        <time>2016-10-22T05:49:26Z</time>
      </trkpt>
      <trkpt lat="42.512847000" lon="-2.506608000">
        <ele>379.70</ele>
        <time>2016-10-22T05:49:27Z</time>
      </trkpt>
      <trkpt lat="42.512873000" lon="-2.506589000">
        <ele>379.20</ele>
        <time>2016-10-22T05:49:28Z</time>
      </trkpt>
      <trkpt lat="42.512903000" lon="-2.506564000">
        <ele>378.70</ele>
        <time>2016-10-22T05:49:29Z</time>
      </trkpt>
      <trkpt lat="42.512936000" lon="-2.506548000">
        <ele>378.40</ele>
        <time>2016-10-22T05:49:30Z</time>
      </trkpt>
      <trkpt lat="42.512969000" lon="-2.506536000">
        <ele>378.20</ele>
        <time>2016-10-22T05:49:31Z</time>
      </trkpt>
      <trkpt lat="42.513006000" lon="-2.506527000">
        <ele>377.90</ele>
        <time>2016-10-22T05:49:32Z</time>
      </trkpt>
      <trkpt lat="42.513041000" lon="-2.506515000">
        <ele>377.60</ele>
        <time>2016-10-22T05:49:33Z</time>
      </trkpt>
      <trkpt lat="42.513075000" lon="-2.506502000">
        <ele>377.60</ele>
        <time>2016-10-22T05:49:34Z</time>
      </trkpt>
      <trkpt lat="42.513108000" lon="-2.506490000">
        <ele>377.70</ele>
        <time>2016-10-22T05:49:35Z</time>
      </trkpt>
      <trkpt lat="42.513141000" lon="-2.506484000">
        <ele>377.50</ele>
        <time>2016-10-22T05:49:36Z</time>
      </trkpt>
      <trkpt lat="42.513175000" lon="-2.506475000">
        <ele>377.50</ele>
        <time>2016-10-22T05:49:37Z</time>
      </trkpt>
      <trkpt lat="42.513209000" lon="-2.506467000">
        <ele>377.40</ele>
        <time>2016-10-22T05:49:38Z</time>
      </trkpt>
      <trkpt lat="42.513240000" lon="-2.506457000">
        <ele>377.30</ele>
        <time>2016-10-22T05:49:39Z</time>
      </trkpt>
      <trkpt lat="42.513270000" lon="-2.506445000">
        <ele>377.30</ele>
        <time>2016-10-22T05:49:40Z</time>
      </trkpt>
      <trkpt lat="42.513300000" lon="-2.506436000">
        <ele>377.20</ele>
        <time>2016-10-22T05:49:41Z</time>
      </trkpt>
      <trkpt lat="42.513329000" lon="-2.506428000">
        <ele>377.10</ele>
        <time>2016-10-22T05:49:42Z</time>
      </trkpt>
      <trkpt lat="42.513358000" lon="-2.506419000">
        <ele>377.00</ele>
        <time>2016-10-22T05:49:43Z</time>
      </trkpt>
      <trkpt lat="42.513387000" lon="-2.506411000">
        <ele>377.00</ele>
        <time>2016-10-22T05:49:44Z</time>
      </trkpt>
      <trkpt lat="42.513418000" lon="-2.506402000">
        <ele>377.00</ele>
        <time>2016-10-22T05:49:45Z</time>
      </trkpt>
      <trkpt lat="42.513450000" lon="-2.506398000">
        <ele>377.10</ele>
        <time>2016-10-22T05:49:46Z</time>
      </trkpt>
      <trkpt lat="42.513484000" lon="-2.506394000">
        <ele>377.20</ele>
        <time>2016-10-22T05:49:47Z</time>
      </trkpt>
      <trkpt lat="42.513518000" lon="-2.506391000">
        <ele>377.30</ele>
        <time>2016-10-22T05:49:48Z</time>
      </trkpt>
      <trkpt lat="42.513555000" lon="-2.506386000">
        <ele>377.40</ele>
        <time>2016-10-22T05:49:49Z</time>
      </trkpt>
      <trkpt lat="42.513592000" lon="-2.506387000">
        <ele>377.30</ele>
        <time>2016-10-22T05:49:50Z</time>
      </trkpt>
      <trkpt lat="42.513630000" lon="-2.506389000">
        <ele>377.30</ele>
        <time>2016-10-22T05:49:51Z</time>
      </trkpt>
      <trkpt lat="42.513668000" lon="-2.506393000">
        <ele>377.30</ele>
        <time>2016-10-22T05:49:52Z</time>
      </trkpt>
      <trkpt lat="42.513707000" lon="-2.506392000">
        <ele>377.30</ele>
        <time>2016-10-22T05:49:53Z</time>
      </trkpt>
      <trkpt lat="42.513744000" lon="-2.506392000">
        <ele>377.40</ele>
        <time>2016-10-22T05:49:54Z</time>
      </trkpt>
      <trkpt lat="42.513781000" lon="-2.506388000">
        <ele>377.40</ele>
        <time>2016-10-22T05:49:55Z</time>
      </trkpt>
      <trkpt lat="42.513814000" lon="-2.506380000">
        <ele>377.60</ele>
        <time>2016-10-22T05:49:56Z</time>
      </trkpt>
      <trkpt lat="42.513842000" lon="-2.506381000">
        <ele>377.70</ele>
        <time>2016-10-22T05:49:57Z</time>
      </trkpt>
      <trkpt lat="42.513871000" lon="-2.506379000">
        <ele>377.80</ele>
        <time>2016-10-22T05:49:58Z</time>
      </trkpt>
      <trkpt lat="42.513900000" lon="-2.506380000">
        <ele>377.80</ele>
        <time>2016-10-22T05:49:59Z</time>
      </trkpt>
      <trkpt lat="42.513934000" lon="-2.506379000">
        <ele>377.80</ele>
        <time>2016-10-22T05:50:00Z</time>
      </trkpt>
      <trkpt lat="42.513995000" lon="-2.506387000">
        <ele>377.70</ele>
        <time>2016-10-22T05:50:02Z</time>
      </trkpt>
      <trkpt lat="42.514025000" lon="-2.506390000">
        <ele>377.60</ele>
        <time>2016-10-22T05:50:03Z</time>
      </trkpt>
      <trkpt lat="42.514053000" lon="-2.506394000">
        <ele>377.70</ele>
        <time>2016-10-22T05:50:04Z</time>
      </trkpt>
      <trkpt lat="42.514080000" lon="-2.506396000">
        <ele>377.80</ele>
        <time>2016-10-22T05:50:05Z</time>
      </trkpt>
      <trkpt lat="42.514110000" lon="-2.506401000">
        <ele>377.90</ele>
        <time>2016-10-22T05:50:06Z</time>
      </trkpt>
      <trkpt lat="42.514139000" lon="-2.506402000">
        <ele>378.00</ele>
        <time>2016-10-22T05:50:07Z</time>
      </trkpt>
      <trkpt lat="42.514169000" lon="-2.506406000">
        <ele>378.20</ele>
        <time>2016-10-22T05:50:08Z</time>
      </trkpt>
      <trkpt lat="42.514202000" lon="-2.506412000">
        <ele>378.40</ele>
        <time>2016-10-22T05:50:09Z</time>
      </trkpt>
      <trkpt lat="42.514234000" lon="-2.506421000">
        <ele>378.60</ele>
        <time>2016-10-22T05:50:10Z</time>
      </trkpt>
      <trkpt lat="42.514270000" lon="-2.506431000">
        <ele>378.80</ele>
        <time>2016-10-22T05:50:11Z</time>
      </trkpt>
      <trkpt lat="42.514306000" lon="-2.506437000">
        <ele>378.90</ele>
        <time>2016-10-22T05:50:12Z</time>
      </trkpt>
      <trkpt lat="42.514344000" lon="-2.506449000">
        <ele>379.00</ele>
        <time>2016-10-22T05:50:13Z</time>
      </trkpt>
      <trkpt lat="42.514379000" lon="-2.506461000">
        <ele>379.10</ele>
        <time>2016-10-22T05:50:14Z</time>
      </trkpt>
      <trkpt lat="42.514413000" lon="-2.506470000">
        <ele>379.10</ele>
        <time>2016-10-22T05:50:15Z</time>
      </trkpt>
      <trkpt lat="42.514445000" lon="-2.506482000">
        <ele>379.10</ele>
        <time>2016-10-22T05:50:16Z</time>
      </trkpt>
      <trkpt lat="42.514478000" lon="-2.506496000">
        <ele>379.10</ele>
        <time>2016-10-22T05:50:17Z</time>
      </trkpt>
      <trkpt lat="42.514509000" lon="-2.506513000">
        <ele>379.00</ele>
        <time>2016-10-22T05:50:18Z</time>
      </trkpt>
      <trkpt lat="42.514543000" lon="-2.506525000">
        <ele>379.00</ele>
        <time>2016-10-22T05:50:19Z</time>
      </trkpt>
      <trkpt lat="42.514574000" lon="-2.506540000">
        <ele>378.90</ele>
        <time>2016-10-22T05:50:20Z</time>
      </trkpt>
      <trkpt lat="42.514607000" lon="-2.506557000">
        <ele>378.90</ele>
        <time>2016-10-22T05:50:21Z</time>
      </trkpt>
      <trkpt lat="42.514638000" lon="-2.506574000">
        <ele>378.90</ele>
        <time>2016-10-22T05:50:22Z</time>
      </trkpt>
      <trkpt lat="42.514671000" lon="-2.506590000">
        <ele>378.90</ele>
        <time>2016-10-22T05:50:23Z</time>
      </trkpt>
      <trkpt lat="42.514708000" lon="-2.506603000">
        <ele>378.70</ele>
        <time>2016-10-22T05:50:24Z</time>
      </trkpt>
      <trkpt lat="42.514742000" lon="-2.506619000">
        <ele>378.50</ele>
        <time>2016-10-22T05:50:25Z</time>
      </trkpt>
      <trkpt lat="42.514773000" lon="-2.506639000">
        <ele>378.40</ele>
        <time>2016-10-22T05:50:26Z</time>
      </trkpt>
      <trkpt lat="42.514805000" lon="-2.506658000">
        <ele>378.30</ele>
        <time>2016-10-22T05:50:27Z</time>
      </trkpt>
      <trkpt lat="42.514836000" lon="-2.506678000">
        <ele>378.30</ele>
        <time>2016-10-22T05:50:28Z</time>
      </trkpt>
      <trkpt lat="42.514864000" lon="-2.506698000">
        <ele>378.30</ele>
        <time>2016-10-22T05:50:29Z</time>
      </trkpt>
      <trkpt lat="42.514896000" lon="-2.506715000">
        <ele>378.40</ele>
        <time>2016-10-22T05:50:30Z</time>
      </trkpt>
      <trkpt lat="42.514928000" lon="-2.506727000">
        <ele>378.40</ele>
        <time>2016-10-22T05:50:31Z</time>
      </trkpt>
      <trkpt lat="42.514957000" lon="-2.506744000">
        <ele>378.40</ele>
        <time>2016-10-22T05:50:32Z</time>
      </trkpt>
      <trkpt lat="42.514988000" lon="-2.506766000">
        <ele>378.40</ele>
        <time>2016-10-22T05:50:33Z</time>
      </trkpt>
      <trkpt lat="42.515017000" lon="-2.506791000">
        <ele>378.40</ele>
        <time>2016-10-22T05:50:34Z</time>
      </trkpt>
      <trkpt lat="42.515043000" lon="-2.506817000">
        <ele>378.30</ele>
        <time>2016-10-22T05:50:35Z</time>
      </trkpt>
      <trkpt lat="42.515069000" lon="-2.506845000">
        <ele>378.30</ele>
        <time>2016-10-22T05:50:36Z</time>
      </trkpt>
      <trkpt lat="42.515098000" lon="-2.506868000">
        <ele>378.30</ele>
        <time>2016-10-22T05:50:37Z</time>
      </trkpt>
      <trkpt lat="42.515127000" lon="-2.506890000">
        <ele>378.40</ele>
        <time>2016-10-22T05:50:38Z</time>
      </trkpt>
      <trkpt lat="42.515153000" lon="-2.506910000">
        <ele>378.40</ele>
        <time>2016-10-22T05:50:39Z</time>
      </trkpt>
      <trkpt lat="42.515177000" lon="-2.506932000">
        <ele>378.60</ele>
        <time>2016-10-22T05:50:40Z</time>
      </trkpt>
      <trkpt lat="42.515201000" lon="-2.506949000">
        <ele>378.70</ele>
        <time>2016-10-22T05:50:41Z</time>
      </trkpt>
      <trkpt lat="42.515225000" lon="-2.506968000">
        <ele>378.80</ele>
        <time>2016-10-22T05:50:42Z</time>
      </trkpt>
      <trkpt lat="42.515250000" lon="-2.506984000">
        <ele>378.90</ele>
        <time>2016-10-22T05:50:43Z</time>
      </trkpt>
      <trkpt lat="42.515277000" lon="-2.507005000">
        <ele>379.00</ele>
        <time>2016-10-22T05:50:44Z</time>
      </trkpt>
      <trkpt lat="42.515303000" lon="-2.507030000">
        <ele>379.20</ele>
        <time>2016-10-22T05:50:45Z</time>
      </trkpt>
      <trkpt lat="42.515331000" lon="-2.507054000">
        <ele>379.40</ele>
        <time>2016-10-22T05:50:46Z</time>
      </trkpt>
      <trkpt lat="42.515352000" lon="-2.507078000">
        <ele>379.60</ele>
        <time>2016-10-22T05:50:47Z</time>
      </trkpt>
      <trkpt lat="42.515375000" lon="-2.507101000">
        <ele>379.70</ele>
        <time>2016-10-22T05:50:48Z</time>
      </trkpt>
      <trkpt lat="42.515397000" lon="-2.507123000">
        <ele>379.90</ele>
        <time>2016-10-22T05:50:49Z</time>
      </trkpt>
      <trkpt lat="42.515422000" lon="-2.507142000">
        <ele>380.00</ele>
        <time>2016-10-22T05:50:50Z</time>
      </trkpt>
      <trkpt lat="42.515448000" lon="-2.507165000">
        <ele>380.10</ele>
        <time>2016-10-22T05:50:51Z</time>
      </trkpt>
      <trkpt lat="42.515476000" lon="-2.507186000">
        <ele>380.10</ele>
        <time>2016-10-22T05:50:52Z</time>
      </trkpt>
      <trkpt lat="42.515500000" lon="-2.507209000">
        <ele>380.20</ele>
        <time>2016-10-22T05:50:53Z</time>
      </trkpt>
      <trkpt lat="42.515526000" lon="-2.507232000">
        <ele>380.20</ele>
        <time>2016-10-22T05:50:54Z</time>
      </trkpt>
      <trkpt lat="42.515548000" lon="-2.507255000">
        <ele>380.20</ele>
        <time>2016-10-22T05:50:55Z</time>
      </trkpt>
      <trkpt lat="42.515574000" lon="-2.507278000">
        <ele>380.20</ele>
        <time>2016-10-22T05:50:56Z</time>
      </trkpt>
      <trkpt lat="42.515598000" lon="-2.507301000">
        <ele>380.30</ele>
        <time>2016-10-22T05:50:57Z</time>
      </trkpt>
      <trkpt lat="42.515622000" lon="-2.507327000">
        <ele>380.40</ele>
        <time>2016-10-22T05:50:58Z</time>
      </trkpt>
      <trkpt lat="42.515646000" lon="-2.507352000">
        <ele>380.60</ele>
        <time>2016-10-22T05:50:59Z</time>
      </trkpt>
      <trkpt lat="42.515670000" lon="-2.507385000">
        <ele>380.70</ele>
        <time>2016-10-22T05:51:00Z</time>
      </trkpt>
      <trkpt lat="42.515695000" lon="-2.507416000">
        <ele>380.80</ele>
        <time>2016-10-22T05:51:01Z</time>
      </trkpt>
      <trkpt lat="42.515724000" lon="-2.507448000">
        <ele>380.90</ele>
        <time>2016-10-22T05:51:02Z</time>
      </trkpt>
      <trkpt lat="42.515779000" lon="-2.507513000">
        <ele>381.10</ele>
        <time>2016-10-22T05:51:04Z</time>
      </trkpt>
      <trkpt lat="42.515806000" lon="-2.507544000">
        <ele>381.10</ele>
        <time>2016-10-22T05:51:05Z</time>
      </trkpt>
      <trkpt lat="42.515832000" lon="-2.507575000">
        <ele>381.10</ele>
        <time>2016-10-22T05:51:06Z</time>
      </trkpt>
      <trkpt lat="42.515859000" lon="-2.507606000">
        <ele>381.20</ele>
        <time>2016-10-22T05:51:07Z</time>
      </trkpt>
      <trkpt lat="42.515881000" lon="-2.507637000">
        <ele>381.20</ele>
        <time>2016-10-22T05:51:08Z</time>
      </trkpt>
      <trkpt lat="42.515905000" lon="-2.507667000">
        <ele>381.20</ele>
        <time>2016-10-22T05:51:09Z</time>
      </trkpt>
      <trkpt lat="42.515927000" lon="-2.507697000">
        <ele>381.40</ele>
        <time>2016-10-22T05:51:10Z</time>
      </trkpt>
      <trkpt lat="42.515950000" lon="-2.507730000">
        <ele>381.60</ele>
        <time>2016-10-22T05:51:11Z</time>
      </trkpt>
      <trkpt lat="42.515974000" lon="-2.507759000">
        <ele>381.70</ele>
        <time>2016-10-22T05:51:12Z</time>
      </trkpt>
      <trkpt lat="42.515998000" lon="-2.507791000">
        <ele>381.80</ele>
        <time>2016-10-22T05:51:13Z</time>
      </trkpt>
      <trkpt lat="42.516027000" lon="-2.507823000">
        <ele>381.60</ele>
        <time>2016-10-22T05:51:14Z</time>
      </trkpt>
      <trkpt lat="42.516057000" lon="-2.507859000">
        <ele>381.40</ele>
        <time>2016-10-22T05:51:15Z</time>
      </trkpt>
      <trkpt lat="42.516085000" lon="-2.507896000">
        <ele>381.30</ele>
        <time>2016-10-22T05:51:16Z</time>
      </trkpt>
      <trkpt lat="42.516114000" lon="-2.507933000">
        <ele>381.20</ele>
        <time>2016-10-22T05:51:17Z</time>
      </trkpt>
      <trkpt lat="42.516140000" lon="-2.507967000">
        <ele>381.40</ele>
        <time>2016-10-22T05:51:18Z</time>
      </trkpt>
      <trkpt lat="42.516167000" lon="-2.507997000">
        <ele>381.60</ele>
        <time>2016-10-22T05:51:19Z</time>
      </trkpt>
      <trkpt lat="42.516189000" lon="-2.508031000">
        <ele>381.80</ele>
        <time>2016-10-22T05:51:20Z</time>
      </trkpt>
      <trkpt lat="42.516213000" lon="-2.508064000">
        <ele>381.90</ele>
        <time>2016-10-22T05:51:21Z</time>
      </trkpt>
      <trkpt lat="42.516237000" lon="-2.508099000">
        <ele>381.90</ele>
        <time>2016-10-22T05:51:22Z</time>
      </trkpt>
      <trkpt lat="42.516262000" lon="-2.508133000">
        <ele>382.00</ele>
        <time>2016-10-22T05:51:23Z</time>
      </trkpt>
      <trkpt lat="42.516286000" lon="-2.508168000">
        <ele>382.00</ele>
        <time>2016-10-22T05:51:24Z</time>
      </trkpt>
      <trkpt lat="42.516316000" lon="-2.508209000">
        <ele>382.00</ele>
        <time>2016-10-22T05:51:25Z</time>
      </trkpt>
      <trkpt lat="42.516350000" lon="-2.508257000">
        <ele>381.80</ele>
        <time>2016-10-22T05:51:26Z</time>
      </trkpt>
      <trkpt lat="42.516384000" lon="-2.508304000">
        <ele>381.70</ele>
        <time>2016-10-22T05:51:27Z</time>
      </trkpt>
      <trkpt lat="42.516416000" lon="-2.508352000">
        <ele>381.60</ele>
        <time>2016-10-22T05:51:28Z</time>
      </trkpt>
      <trkpt lat="42.516447000" lon="-2.508402000">
        <ele>381.50</ele>
        <time>2016-10-22T05:51:29Z</time>
      </trkpt>
      <trkpt lat="42.516475000" lon="-2.508452000">
        <ele>381.40</ele>
        <time>2016-10-22T05:51:30Z</time>
      </trkpt>
      <trkpt lat="42.516502000" lon="-2.508501000">
        <ele>381.40</ele>
        <time>2016-10-22T05:51:31Z</time>
      </trkpt>
      <trkpt lat="42.516531000" lon="-2.508550000">
        <ele>381.30</ele>
        <time>2016-10-22T05:51:32Z</time>
      </trkpt>
      <trkpt lat="42.516560000" lon="-2.508597000">
        <ele>381.20</ele>
        <time>2016-10-22T05:51:33Z</time>
      </trkpt>
      <trkpt lat="42.516589000" lon="-2.508641000">
        <ele>381.10</ele>
        <time>2016-10-22T05:51:34Z</time>
      </trkpt>
      <trkpt lat="42.516621000" lon="-2.508681000">
        <ele>380.90</ele>
        <time>2016-10-22T05:51:35Z</time>
      </trkpt>
      <trkpt lat="42.516655000" lon="-2.508720000">
        <ele>380.60</ele>
        <time>2016-10-22T05:51:36Z</time>
      </trkpt>
      <trkpt lat="42.516689000" lon="-2.508753000">
        <ele>380.40</ele>
        <time>2016-10-22T05:51:37Z</time>
      </trkpt>
      <trkpt lat="42.516728000" lon="-2.508785000">
        <ele>380.20</ele>
        <time>2016-10-22T05:51:38Z</time>
      </trkpt>
      <trkpt lat="42.516764000" lon="-2.508816000">
        <ele>380.00</ele>
        <time>2016-10-22T05:51:39Z</time>
      </trkpt>
      <trkpt lat="42.516796000" lon="-2.508856000">
        <ele>379.80</ele>
        <time>2016-10-22T05:51:40Z</time>
      </trkpt>
      <trkpt lat="42.516825000" lon="-2.508893000">
        <ele>379.70</ele>
        <time>2016-10-22T05:51:41Z</time>
      </trkpt>
      <trkpt lat="42.516854000" lon="-2.508926000">
        <ele>379.60</ele>
        <time>2016-10-22T05:51:42Z</time>
      </trkpt>
      <trkpt lat="42.516888000" lon="-2.508958000">
        <ele>379.50</ele>
        <time>2016-10-22T05:51:43Z</time>
      </trkpt>
      <trkpt lat="42.516918000" lon="-2.508995000">
        <ele>379.30</ele>
        <time>2016-10-22T05:51:44Z</time>
      </trkpt>
      <trkpt lat="42.516951000" lon="-2.509031000">
        <ele>379.20</ele>
        <time>2016-10-22T05:51:45Z</time>
      </trkpt>
      <trkpt lat="42.516986000" lon="-2.509065000">
        <ele>379.10</ele>
        <time>2016-10-22T05:51:46Z</time>
      </trkpt>
      <trkpt lat="42.517021000" lon="-2.509098000">
        <ele>379.00</ele>
        <time>2016-10-22T05:51:47Z</time>
      </trkpt>
      <trkpt lat="42.517052000" lon="-2.509132000">
        <ele>379.00</ele>
        <time>2016-10-22T05:51:48Z</time>
      </trkpt>
      <trkpt lat="42.517081000" lon="-2.509163000">
        <ele>379.00</ele>
        <time>2016-10-22T05:51:49Z</time>
      </trkpt>
      <trkpt lat="42.517109000" lon="-2.509191000">
        <ele>378.90</ele>
        <time>2016-10-22T05:51:50Z</time>
      </trkpt>
      <trkpt lat="42.517138000" lon="-2.509218000">
        <ele>378.90</ele>
        <time>2016-10-22T05:51:51Z</time>
      </trkpt>
      <trkpt lat="42.517170000" lon="-2.509242000">
        <ele>378.90</ele>
        <time>2016-10-22T05:51:52Z</time>
      </trkpt>
      <trkpt lat="42.517202000" lon="-2.509266000">
        <ele>378.90</ele>
        <time>2016-10-22T05:51:53Z</time>
      </trkpt>
      <trkpt lat="42.517233000" lon="-2.509292000">
        <ele>379.00</ele>
        <time>2016-10-22T05:51:54Z</time>
      </trkpt>
      <trkpt lat="42.517264000" lon="-2.509310000">
        <ele>379.00</ele>
        <time>2016-10-22T05:51:55Z</time>
      </trkpt>
      <trkpt lat="42.517294000" lon="-2.509329000">
        <ele>379.10</ele>
        <time>2016-10-22T05:51:56Z</time>
      </trkpt>
      <trkpt lat="42.517325000" lon="-2.509348000">
        <ele>379.10</ele>
        <time>2016-10-22T05:51:57Z</time>
      </trkpt>
      <trkpt lat="42.517353000" lon="-2.509369000">
        <ele>379.30</ele>
        <time>2016-10-22T05:51:58Z</time>
      </trkpt>
      <trkpt lat="42.517380000" lon="-2.509389000">
        <ele>379.40</ele>
        <time>2016-10-22T05:51:59Z</time>
      </trkpt>
      <trkpt lat="42.517407000" lon="-2.509406000">
        <ele>379.50</ele>
        <time>2016-10-22T05:52:00Z</time>
      </trkpt>
      <trkpt lat="42.517434000" lon="-2.509417000">
        <ele>379.60</ele>
        <time>2016-10-22T05:52:01Z</time>
      </trkpt>
      <trkpt lat="42.517461000" lon="-2.509430000">
        <ele>379.60</ele>
        <time>2016-10-22T05:52:02Z</time>
      </trkpt>
      <trkpt lat="42.517485000" lon="-2.509442000">
        <ele>379.70</ele>
        <time>2016-10-22T05:52:03Z</time>
      </trkpt>
      <trkpt lat="42.517514000" lon="-2.509452000">
        <ele>379.70</ele>
        <time>2016-10-22T05:52:04Z</time>
      </trkpt>
      <trkpt lat="42.517576000" lon="-2.509476000">
        <ele>379.70</ele>
        <time>2016-10-22T05:52:06Z</time>
      </trkpt>
      <trkpt lat="42.517607000" lon="-2.509488000">
        <ele>379.70</ele>
        <time>2016-10-22T05:52:07Z</time>
      </trkpt>
      <trkpt lat="42.517639000" lon="-2.509498000">
        <ele>379.90</ele>
        <time>2016-10-22T05:52:08Z</time>
      </trkpt>
      <trkpt lat="42.517669000" lon="-2.509512000">
        <ele>380.00</ele>
        <time>2016-10-22T05:52:09Z</time>
      </trkpt>
      <trkpt lat="42.517699000" lon="-2.509526000">
        <ele>380.10</ele>
        <time>2016-10-22T05:52:10Z</time>
      </trkpt>
      <trkpt lat="42.517728000" lon="-2.509543000">
        <ele>380.10</ele>
        <time>2016-10-22T05:52:11Z</time>
      </trkpt>
      <trkpt lat="42.517758000" lon="-2.509558000">
        <ele>380.20</ele>
        <time>2016-10-22T05:52:12Z</time>
      </trkpt>
      <trkpt lat="42.517787000" lon="-2.509574000">
        <ele>380.30</ele>
        <time>2016-10-22T05:52:13Z</time>
      </trkpt>
      <trkpt lat="42.517817000" lon="-2.509594000">
        <ele>380.40</ele>
        <time>2016-10-22T05:52:14Z</time>
      </trkpt>
      <trkpt lat="42.517842000" lon="-2.509615000">
        <ele>380.40</ele>
        <time>2016-10-22T05:52:15Z</time>
      </trkpt>
      <trkpt lat="42.517872000" lon="-2.509637000">
        <ele>380.50</ele>
        <time>2016-10-22T05:52:16Z</time>
      </trkpt>
      <trkpt lat="42.517904000" lon="-2.509669000">
        <ele>380.50</ele>
        <time>2016-10-22T05:52:17Z</time>
      </trkpt>
      <trkpt lat="42.517935000" lon="-2.509702000">
        <ele>380.30</ele>
        <time>2016-10-22T05:52:18Z</time>
      </trkpt>
      <trkpt lat="42.517963000" lon="-2.509739000">
        <ele>380.20</ele>
        <time>2016-10-22T05:52:19Z</time>
      </trkpt>
      <trkpt lat="42.517983000" lon="-2.509779000">
        <ele>380.00</ele>
        <time>2016-10-22T05:52:20Z</time>
      </trkpt>
      <trkpt lat="42.518006000" lon="-2.509816000">
        <ele>379.80</ele>
        <time>2016-10-22T05:52:21Z</time>
      </trkpt>
      <trkpt lat="42.518027000" lon="-2.509858000">
        <ele>379.80</ele>
        <time>2016-10-22T05:52:22Z</time>
      </trkpt>
      <trkpt lat="42.518048000" lon="-2.509893000">
        <ele>379.80</ele>
        <time>2016-10-22T05:52:23Z</time>
      </trkpt>
      <trkpt lat="42.518066000" lon="-2.509925000">
        <ele>379.80</ele>
        <time>2016-10-22T05:52:24Z</time>
      </trkpt>
      <trkpt lat="42.518075000" lon="-2.509959000">
        <ele>379.90</ele>
        <time>2016-10-22T05:52:25Z</time>
      </trkpt>
      <trkpt lat="42.518088000" lon="-2.509996000">
        <ele>379.90</ele>
        <time>2016-10-22T05:52:26Z</time>
      </trkpt>
      <trkpt lat="42.518099000" lon="-2.510033000">
        <ele>380.00</ele>
        <time>2016-10-22T05:52:27Z</time>
      </trkpt>
      <trkpt lat="42.518112000" lon="-2.510067000">
        <ele>379.90</ele>
        <time>2016-10-22T05:52:28Z</time>
      </trkpt>
      <trkpt lat="42.518127000" lon="-2.510104000">
        <ele>379.80</ele>
        <time>2016-10-22T05:52:29Z</time>
      </trkpt>
      <trkpt lat="42.518136000" lon="-2.510146000">
        <ele>379.70</ele>
        <time>2016-10-22T05:52:30Z</time>
      </trkpt>
      <trkpt lat="42.518145000" lon="-2.510184000">
        <ele>379.70</ele>
        <time>2016-10-22T05:52:31Z</time>
      </trkpt>
      <trkpt lat="42.518154000" lon="-2.510223000">
        <ele>379.60</ele>
        <time>2016-10-22T05:52:32Z</time>
      </trkpt>
      <trkpt lat="42.518164000" lon="-2.510261000">
        <ele>379.60</ele>
        <time>2016-10-22T05:52:33Z</time>
      </trkpt>
      <trkpt lat="42.518170000" lon="-2.510300000">
        <ele>379.60</ele>
        <time>2016-10-22T05:52:34Z</time>
      </trkpt>
      <trkpt lat="42.518178000" lon="-2.510337000">
        <ele>379.60</ele>
        <time>2016-10-22T05:52:35Z</time>
      </trkpt>
      <trkpt lat="42.518191000" lon="-2.510378000">
        <ele>379.60</ele>
        <time>2016-10-22T05:52:36Z</time>
      </trkpt>
      <trkpt lat="42.518205000" lon="-2.510420000">
        <ele>379.50</ele>
        <time>2016-10-22T05:52:37Z</time>
      </trkpt>
      <trkpt lat="42.518225000" lon="-2.510469000">
        <ele>379.50</ele>
        <time>2016-10-22T05:52:38Z</time>
      </trkpt>
      <trkpt lat="42.518253000" lon="-2.510519000">
        <ele>379.50</ele>
        <time>2016-10-22T05:52:39Z</time>
      </trkpt>
      <trkpt lat="42.518274000" lon="-2.510572000">
        <ele>379.50</ele>
        <time>2016-10-22T05:52:40Z</time>
      </trkpt>
      <trkpt lat="42.518287000" lon="-2.510623000">
        <ele>379.50</ele>
        <time>2016-10-22T05:52:41Z</time>
      </trkpt>
      <trkpt lat="42.518294000" lon="-2.510674000">
        <ele>379.50</ele>
        <time>2016-10-22T05:52:42Z</time>
      </trkpt>
      <trkpt lat="42.518301000" lon="-2.510723000">
        <ele>379.40</ele>
        <time>2016-10-22T05:52:43Z</time>
      </trkpt>
      <trkpt lat="42.518308000" lon="-2.510764000">
        <ele>379.30</ele>
        <time>2016-10-22T05:52:44Z</time>
      </trkpt>
      <trkpt lat="42.518319000" lon="-2.510801000">
        <ele>379.30</ele>
        <time>2016-10-22T05:52:45Z</time>
      </trkpt>
      <trkpt lat="42.518331000" lon="-2.510834000">
        <ele>379.20</ele>
        <time>2016-10-22T05:52:46Z</time>
      </trkpt>
      <trkpt lat="42.518348000" lon="-2.510860000">
        <ele>379.10</ele>
        <time>2016-10-22T05:52:47Z</time>
      </trkpt>
      <trkpt lat="42.518368000" lon="-2.510889000">
        <ele>378.80</ele>
        <time>2016-10-22T05:52:48Z</time>
      </trkpt>
      <trkpt lat="42.518382000" lon="-2.510922000">
        <ele>378.60</ele>
        <time>2016-10-22T05:52:49Z</time>
      </trkpt>
      <trkpt lat="42.518394000" lon="-2.510956000">
        <ele>378.50</ele>
        <time>2016-10-22T05:52:50Z</time>
      </trkpt>
      <trkpt lat="42.518411000" lon="-2.510988000">
        <ele>378.40</ele>
        <time>2016-10-22T05:52:51Z</time>
      </trkpt>
      <trkpt lat="42.518429000" lon="-2.511020000">
        <ele>378.30</ele>
        <time>2016-10-22T05:52:52Z</time>
      </trkpt>
      <trkpt lat="42.518449000" lon="-2.511052000">
        <ele>378.20</ele>
        <time>2016-10-22T05:52:53Z</time>
      </trkpt>
      <trkpt lat="42.518463000" lon="-2.511094000">
        <ele>378.30</ele>
        <time>2016-10-22T05:52:54Z</time>
      </trkpt>
      <trkpt lat="42.518480000" lon="-2.511137000">
        <ele>378.30</ele>
        <time>2016-10-22T05:52:55Z</time>
      </trkpt>
      <trkpt lat="42.518491000" lon="-2.511187000">
        <ele>378.10</ele>
        <time>2016-10-22T05:52:56Z</time>
      </trkpt>
      <trkpt lat="42.518505000" lon="-2.511239000">
        <ele>378.10</ele>
        <time>2016-10-22T05:52:57Z</time>
      </trkpt>
      <trkpt lat="42.518515000" lon="-2.511289000">
        <ele>377.90</ele>
        <time>2016-10-22T05:52:58Z</time>
      </trkpt>
      <trkpt lat="42.518520000" lon="-2.511336000">
        <ele>377.80</ele>
        <time>2016-10-22T05:52:59Z</time>
      </trkpt>
      <trkpt lat="42.518524000" lon="-2.511375000">
        <ele>377.60</ele>
        <time>2016-10-22T05:53:00Z</time>
      </trkpt>
      <trkpt lat="42.518527000" lon="-2.511414000">
        <ele>377.50</ele>
        <time>2016-10-22T05:53:01Z</time>
      </trkpt>
      <trkpt lat="42.518526000" lon="-2.511453000">
        <ele>377.30</ele>
        <time>2016-10-22T05:53:02Z</time>
      </trkpt>
      <trkpt lat="42.518519000" lon="-2.511493000">
        <ele>377.20</ele>
        <time>2016-10-22T05:53:03Z</time>
      </trkpt>
      <trkpt lat="42.518506000" lon="-2.511538000">
        <ele>377.10</ele>
        <time>2016-10-22T05:53:04Z</time>
      </trkpt>
      <trkpt lat="42.518502000" lon="-2.511585000">
        <ele>377.00</ele>
        <time>2016-10-22T05:53:05Z</time>
      </trkpt>
      <trkpt lat="42.518504000" lon="-2.511627000">
        <ele>376.90</ele>
        <time>2016-10-22T05:53:06Z</time>
      </trkpt>
      <trkpt lat="42.518496000" lon="-2.511709000">
        <ele>376.70</ele>
        <time>2016-10-22T05:53:08Z</time>
      </trkpt>
      <trkpt lat="42.518485000" lon="-2.511743000">
        <ele>376.60</ele>
        <time>2016-10-22T05:53:09Z</time>
      </trkpt>
      <trkpt lat="42.518482000" lon="-2.511784000">
        <ele>376.60</ele>
        <time>2016-10-22T05:53:10Z</time>
      </trkpt>
      <trkpt lat="42.518489000" lon="-2.511823000">
        <ele>376.60</ele>
        <time>2016-10-22T05:53:11Z</time>
      </trkpt>
      <trkpt lat="42.518499000" lon="-2.511864000">
        <ele>376.60</ele>
        <time>2016-10-22T05:53:12Z</time>
      </trkpt>
      <trkpt lat="42.518513000" lon="-2.511906000">
        <ele>376.50</ele>
        <time>2016-10-22T05:53:13Z</time>
      </trkpt>
      <trkpt lat="42.518519000" lon="-2.511953000">
        <ele>376.60</ele>
        <time>2016-10-22T05:53:14Z</time>
      </trkpt>
      <trkpt lat="42.518523000" lon="-2.512001000">
        <ele>376.60</ele>
        <time>2016-10-22T05:53:15Z</time>
      </trkpt>
      <trkpt lat="42.518524000" lon="-2.512051000">
        <ele>376.80</ele>
        <time>2016-10-22T05:53:16Z</time>
      </trkpt>
      <trkpt lat="42.518522000" lon="-2.512101000">
        <ele>376.90</ele>
        <time>2016-10-22T05:53:17Z</time>
      </trkpt>
      <trkpt lat="42.518516000" lon="-2.512152000">
        <ele>377.10</ele>
        <time>2016-10-22T05:53:18Z</time>
      </trkpt>
      <trkpt lat="42.518506000" lon="-2.512198000">
        <ele>377.20</ele>
        <time>2016-10-22T05:53:19Z</time>
      </trkpt>
      <trkpt lat="42.518495000" lon="-2.512237000">
        <ele>377.20</ele>
        <time>2016-10-22T05:53:20Z</time>
      </trkpt>
      <trkpt lat="42.518485000" lon="-2.512278000">
        <ele>377.20</ele>
        <time>2016-10-22T05:53:21Z</time>
      </trkpt>
      <trkpt lat="42.518484000" lon="-2.512323000">
        <ele>377.20</ele>
        <time>2016-10-22T05:53:22Z</time>
      </trkpt>
      <trkpt lat="42.518486000" lon="-2.512369000">
        <ele>377.10</ele>
        <time>2016-10-22T05:53:23Z</time>
      </trkpt>
      <trkpt lat="42.518492000" lon="-2.512418000">
        <ele>377.10</ele>
        <time>2016-10-22T05:53:24Z</time>
      </trkpt>
      <trkpt lat="42.518493000" lon="-2.512465000">
        <ele>377.10</ele>
        <time>2016-10-22T05:53:25Z</time>
      </trkpt>
      <trkpt lat="42.518498000" lon="-2.512516000">
        <ele>377.20</ele>
        <time>2016-10-22T05:53:26Z</time>
      </trkpt>
      <trkpt lat="42.518502000" lon="-2.512570000">
        <ele>377.30</ele>
        <time>2016-10-22T05:53:27Z</time>
      </trkpt>
      <trkpt lat="42.518504000" lon="-2.512628000">
        <ele>377.30</ele>
        <time>2016-10-22T05:53:28Z</time>
      </trkpt>
      <trkpt lat="42.518493000" lon="-2.512682000">
        <ele>377.40</ele>
        <time>2016-10-22T05:53:29Z</time>
      </trkpt>
      <trkpt lat="42.518473000" lon="-2.512731000">
        <ele>377.20</ele>
        <time>2016-10-22T05:53:30Z</time>
      </trkpt>
      <trkpt lat="42.518445000" lon="-2.512777000">
        <ele>377.10</ele>
        <time>2016-10-22T05:53:31Z</time>
      </trkpt>
      <trkpt lat="42.518414000" lon="-2.512819000">
        <ele>376.80</ele>
        <time>2016-10-22T05:53:32Z</time>
      </trkpt>
      <trkpt lat="42.518381000" lon="-2.512855000">
        <ele>376.60</ele>
        <time>2016-10-22T05:53:33Z</time>
      </trkpt>
      <trkpt lat="42.518344000" lon="-2.512889000">
        <ele>376.40</ele>
        <time>2016-10-22T05:53:34Z</time>
      </trkpt>
      <trkpt lat="42.518304000" lon="-2.512922000">
        <ele>376.30</ele>
        <time>2016-10-22T05:53:35Z</time>
      </trkpt>
      <trkpt lat="42.518264000" lon="-2.512954000">
        <ele>376.20</ele>
        <time>2016-10-22T05:53:36Z</time>
      </trkpt>
      <trkpt lat="42.518226000" lon="-2.512985000">
        <ele>376.10</ele>
        <time>2016-10-22T05:53:37Z</time>
      </trkpt>
      <trkpt lat="42.518191000" lon="-2.513011000">
        <ele>376.10</ele>
        <time>2016-10-22T05:53:38Z</time>
      </trkpt>
      <trkpt lat="42.518160000" lon="-2.513039000">
        <ele>376.10</ele>
        <time>2016-10-22T05:53:39Z</time>
      </trkpt>
      <trkpt lat="42.518127000" lon="-2.513063000">
        <ele>376.20</ele>
        <time>2016-10-22T05:53:40Z</time>
      </trkpt>
      <trkpt lat="42.518095000" lon="-2.513086000">
        <ele>376.20</ele>
        <time>2016-10-22T05:53:41Z</time>
      </trkpt>
      <trkpt lat="42.518063000" lon="-2.513108000">
        <ele>376.20</ele>
        <time>2016-10-22T05:53:42Z</time>
      </trkpt>
      <trkpt lat="42.518028000" lon="-2.513127000">
        <ele>376.10</ele>
        <time>2016-10-22T05:53:43Z</time>
      </trkpt>
      <trkpt lat="42.517993000" lon="-2.513152000">
        <ele>376.20</ele>
        <time>2016-10-22T05:53:44Z</time>
      </trkpt>
      <trkpt lat="42.517959000" lon="-2.513179000">
        <ele>376.30</ele>
        <time>2016-10-22T05:53:45Z</time>
      </trkpt>
      <trkpt lat="42.517927000" lon="-2.513202000">
        <ele>376.40</ele>
        <time>2016-10-22T05:53:46Z</time>
      </trkpt>
      <trkpt lat="42.517893000" lon="-2.513222000">
        <ele>376.40</ele>
        <time>2016-10-22T05:53:47Z</time>
      </trkpt>
      <trkpt lat="42.517857000" lon="-2.513245000">
        <ele>376.50</ele>
        <time>2016-10-22T05:53:48Z</time>
      </trkpt>
      <trkpt lat="42.517815000" lon="-2.513265000">
        <ele>376.50</ele>
        <time>2016-10-22T05:53:49Z</time>
      </trkpt>
      <trkpt lat="42.517772000" lon="-2.513282000">
        <ele>376.50</ele>
        <time>2016-10-22T05:53:50Z</time>
      </trkpt>
      <trkpt lat="42.517735000" lon="-2.513299000">
        <ele>376.40</ele>
        <time>2016-10-22T05:53:51Z</time>
      </trkpt>
      <trkpt lat="42.517698000" lon="-2.513319000">
        <ele>376.40</ele>
        <time>2016-10-22T05:53:52Z</time>
      </trkpt>
      <trkpt lat="42.517663000" lon="-2.513339000">
        <ele>376.40</ele>
        <time>2016-10-22T05:53:53Z</time>
      </trkpt>
      <trkpt lat="42.517628000" lon="-2.513357000">
        <ele>376.60</ele>
        <time>2016-10-22T05:53:54Z</time>
      </trkpt>
      <trkpt lat="42.517592000" lon="-2.513374000">
        <ele>376.80</ele>
        <time>2016-10-22T05:53:55Z</time>
      </trkpt>
      <trkpt lat="42.517560000" lon="-2.513390000">
        <ele>376.90</ele>
        <time>2016-10-22T05:53:56Z</time>
      </trkpt>
      <trkpt lat="42.517526000" lon="-2.513409000">
        <ele>377.00</ele>
        <time>2016-10-22T05:53:57Z</time>
      </trkpt>
      <trkpt lat="42.517491000" lon="-2.513424000">
        <ele>376.70</ele>
        <time>2016-10-22T05:53:58Z</time>
      </trkpt>
      <trkpt lat="42.517456000" lon="-2.513442000">
        <ele>376.50</ele>
        <time>2016-10-22T05:53:59Z</time>
      </trkpt>
      <trkpt lat="42.517419000" lon="-2.513459000">
        <ele>376.30</ele>
        <time>2016-10-22T05:54:00Z</time>
      </trkpt>
      <trkpt lat="42.517384000" lon="-2.513478000">
        <ele>376.20</ele>
        <time>2016-10-22T05:54:01Z</time>
      </trkpt>
      <trkpt lat="42.517348000" lon="-2.513497000">
        <ele>376.00</ele>
        <time>2016-10-22T05:54:02Z</time>
      </trkpt>
      <trkpt lat="42.517312000" lon="-2.513515000">
        <ele>375.90</ele>
        <time>2016-10-22T05:54:03Z</time>
      </trkpt>
      <trkpt lat="42.517272000" lon="-2.513529000">
        <ele>375.90</ele>
        <time>2016-10-22T05:54:04Z</time>
      </trkpt>
      <trkpt lat="42.517234000" lon="-2.513545000">
        <ele>375.90</ele>
        <time>2016-10-22T05:54:05Z</time>
      </trkpt>
      <trkpt lat="42.517195000" lon="-2.513557000">
        <ele>375.60</ele>
        <time>2016-10-22T05:54:06Z</time>
      </trkpt>
      <trkpt lat="42.517154000" lon="-2.513576000">
        <ele>375.50</ele>
        <time>2016-10-22T05:54:07Z</time>
      </trkpt>
      <trkpt lat="42.517110000" lon="-2.513597000">
        <ele>375.40</ele>
        <time>2016-10-22T05:54:08Z</time>
      </trkpt>
      <trkpt lat="42.517028000" lon="-2.513637000">
        <ele>375.30</ele>
        <time>2016-10-22T05:54:10Z</time>
      </trkpt>
      <trkpt lat="42.516986000" lon="-2.513654000">
        <ele>375.20</ele>
        <time>2016-10-22T05:54:11Z</time>
      </trkpt>
      <trkpt lat="42.516948000" lon="-2.513671000">
        <ele>375.20</ele>
        <time>2016-10-22T05:54:12Z</time>
      </trkpt>
      <trkpt lat="42.516909000" lon="-2.513684000">
        <ele>375.10</ele>
        <time>2016-10-22T05:54:13Z</time>
      </trkpt>
      <trkpt lat="42.516869000" lon="-2.513698000">
        <ele>375.00</ele>
        <time>2016-10-22T05:54:14Z</time>
      </trkpt>
      <trkpt lat="42.516827000" lon="-2.513709000">
        <ele>375.00</ele>
        <time>2016-10-22T05:54:15Z</time>
      </trkpt>
      <trkpt lat="42.516787000" lon="-2.513721000">
        <ele>374.90</ele>
        <time>2016-10-22T05:54:16Z</time>
      </trkpt>
      <trkpt lat="42.516746000" lon="-2.513732000">
        <ele>374.90</ele>
        <time>2016-10-22T05:54:17Z</time>
      </trkpt>
      <trkpt lat="42.516707000" lon="-2.513738000">
        <ele>374.80</ele>
        <time>2016-10-22T05:54:18Z</time>
      </trkpt>
      <trkpt lat="42.516671000" lon="-2.513748000">
        <ele>374.80</ele>
        <time>2016-10-22T05:54:19Z</time>
      </trkpt>
      <trkpt lat="42.516636000" lon="-2.513754000">
        <ele>374.80</ele>
        <time>2016-10-22T05:54:20Z</time>
      </trkpt>
      <trkpt lat="42.516604000" lon="-2.513764000">
        <ele>374.80</ele>
        <time>2016-10-22T05:54:21Z</time>
      </trkpt>
      <trkpt lat="42.516572000" lon="-2.513772000">
        <ele>374.80</ele>
        <time>2016-10-22T05:54:22Z</time>
      </trkpt>
      <trkpt lat="42.516538000" lon="-2.513784000">
        <ele>374.80</ele>
        <time>2016-10-22T05:54:23Z</time>
      </trkpt>
      <trkpt lat="42.516503000" lon="-2.513790000">
        <ele>374.90</ele>
        <time>2016-10-22T05:54:24Z</time>
      </trkpt>
      <trkpt lat="42.516467000" lon="-2.513793000">
        <ele>375.00</ele>
        <time>2016-10-22T05:54:25Z</time>
      </trkpt>
      <trkpt lat="42.516431000" lon="-2.513793000">
        <ele>375.10</ele>
        <time>2016-10-22T05:54:26Z</time>
      </trkpt>
      <trkpt lat="42.516397000" lon="-2.513794000">
        <ele>375.10</ele>
        <time>2016-10-22T05:54:27Z</time>
      </trkpt>
      <trkpt lat="42.516362000" lon="-2.513798000">
        <ele>375.20</ele>
        <time>2016-10-22T05:54:28Z</time>
      </trkpt>
      <trkpt lat="42.516329000" lon="-2.513803000">
        <ele>375.30</ele>
        <time>2016-10-22T05:54:29Z</time>
      </trkpt>
      <trkpt lat="42.516292000" lon="-2.513808000">
        <ele>375.40</ele>
        <time>2016-10-22T05:54:30Z</time>
      </trkpt>
      <trkpt lat="42.516253000" lon="-2.513820000">
        <ele>375.40</ele>
        <time>2016-10-22T05:54:31Z</time>
      </trkpt>
      <trkpt lat="42.516209000" lon="-2.513832000">
        <ele>375.10</ele>
        <time>2016-10-22T05:54:32Z</time>
      </trkpt>
      <trkpt lat="42.516163000" lon="-2.513845000">
        <ele>374.90</ele>
        <time>2016-10-22T05:54:33Z</time>
      </trkpt>
      <trkpt lat="42.516119000" lon="-2.513858000">
        <ele>374.70</ele>
        <time>2016-10-22T05:54:34Z</time>
      </trkpt>
      <trkpt lat="42.516079000" lon="-2.513870000">
        <ele>374.50</ele>
        <time>2016-10-22T05:54:35Z</time>
      </trkpt>
      <trkpt lat="42.516040000" lon="-2.513878000">
        <ele>374.40</ele>
        <time>2016-10-22T05:54:36Z</time>
      </trkpt>
      <trkpt lat="42.516000000" lon="-2.513890000">
        <ele>374.30</ele>
        <time>2016-10-22T05:54:37Z</time>
      </trkpt>
      <trkpt lat="42.515962000" lon="-2.513901000">
        <ele>374.20</ele>
        <time>2016-10-22T05:54:38Z</time>
      </trkpt>
      <trkpt lat="42.515928000" lon="-2.513907000">
        <ele>374.10</ele>
        <time>2016-10-22T05:54:39Z</time>
      </trkpt>
      <trkpt lat="42.515899000" lon="-2.513915000">
        <ele>374.20</ele>
        <time>2016-10-22T05:54:40Z</time>
      </trkpt>
      <trkpt lat="42.515861000" lon="-2.513928000">
        <ele>374.20</ele>
        <time>2016-10-22T05:54:41Z</time>
      </trkpt>
      <trkpt lat="42.515820000" lon="-2.513935000">
        <ele>374.30</ele>
        <time>2016-10-22T05:54:42Z</time>
      </trkpt>
      <trkpt lat="42.515783000" lon="-2.513941000">
        <ele>374.40</ele>
        <time>2016-10-22T05:54:43Z</time>
      </trkpt>
      <trkpt lat="42.515744000" lon="-2.513950000">
        <ele>374.50</ele>
        <time>2016-10-22T05:54:44Z</time>
      </trkpt>
      <trkpt lat="42.515709000" lon="-2.513965000">
        <ele>374.60</ele>
        <time>2016-10-22T05:54:45Z</time>
      </trkpt>
      <trkpt lat="42.515673000" lon="-2.513980000">
        <ele>374.80</ele>
        <time>2016-10-22T05:54:46Z</time>
      </trkpt>
      <trkpt lat="42.515634000" lon="-2.513990000">
        <ele>374.90</ele>
        <time>2016-10-22T05:54:47Z</time>
      </trkpt>
      <trkpt lat="42.515600000" lon="-2.513996000">
        <ele>375.10</ele>
        <time>2016-10-22T05:54:48Z</time>
      </trkpt>
      <trkpt lat="42.515565000" lon="-2.514003000">
        <ele>375.30</ele>
        <time>2016-10-22T05:54:49Z</time>
      </trkpt>
      <trkpt lat="42.515527000" lon="-2.514014000">
        <ele>375.40</ele>
        <time>2016-10-22T05:54:50Z</time>
      </trkpt>
      <trkpt lat="42.515489000" lon="-2.514024000">
        <ele>375.50</ele>
        <time>2016-10-22T05:54:51Z</time>
      </trkpt>
      <trkpt lat="42.515450000" lon="-2.514036000">
        <ele>375.60</ele>
        <time>2016-10-22T05:54:52Z</time>
      </trkpt>
      <trkpt lat="42.515409000" lon="-2.514050000">
        <ele>375.60</ele>
        <time>2016-10-22T05:54:53Z</time>
      </trkpt>
      <trkpt lat="42.515372000" lon="-2.514064000">
        <ele>375.70</ele>
        <time>2016-10-22T05:54:54Z</time>
      </trkpt>
      <trkpt lat="42.515330000" lon="-2.514077000">
        <ele>375.80</ele>
        <time>2016-10-22T05:54:55Z</time>
      </trkpt>
      <trkpt lat="42.515292000" lon="-2.514091000">
        <ele>376.00</ele>
        <time>2016-10-22T05:54:56Z</time>
      </trkpt>
      <trkpt lat="42.515253000" lon="-2.514105000">
        <ele>376.20</ele>
        <time>2016-10-22T05:54:57Z</time>
      </trkpt>
      <trkpt lat="42.515213000" lon="-2.514119000">
        <ele>376.30</ele>
        <time>2016-10-22T05:54:58Z</time>
      </trkpt>
      <trkpt lat="42.515171000" lon="-2.514136000">
        <ele>376.30</ele>
        <time>2016-10-22T05:54:59Z</time>
      </trkpt>
      <trkpt lat="42.515130000" lon="-2.514160000">
        <ele>376.40</ele>
        <time>2016-10-22T05:55:00Z</time>
      </trkpt>
      <trkpt lat="42.515088000" lon="-2.514183000">
        <ele>376.40</ele>
        <time>2016-10-22T05:55:01Z</time>
      </trkpt>
      <trkpt lat="42.515046000" lon="-2.514207000">
        <ele>376.30</ele>
        <time>2016-10-22T05:55:02Z</time>
      </trkpt>
      <trkpt lat="42.515003000" lon="-2.514229000">
        <ele>376.20</ele>
        <time>2016-10-22T05:55:03Z</time>
      </trkpt>
      <trkpt lat="42.514961000" lon="-2.514246000">
        <ele>376.10</ele>
        <time>2016-10-22T05:55:04Z</time>
      </trkpt>
      <trkpt lat="42.514917000" lon="-2.514265000">
        <ele>376.00</ele>
        <time>2016-10-22T05:55:05Z</time>
      </trkpt>
      <trkpt lat="42.514876000" lon="-2.514283000">
        <ele>376.00</ele>
        <time>2016-10-22T05:55:06Z</time>
      </trkpt>
      <trkpt lat="42.514839000" lon="-2.514295000">
        <ele>375.90</ele>
        <time>2016-10-22T05:55:07Z</time>
      </trkpt>
      <trkpt lat="42.514800000" lon="-2.514311000">
        <ele>375.90</ele>
        <time>2016-10-22T05:55:08Z</time>
      </trkpt>
      <trkpt lat="42.514759000" lon="-2.514329000">
        <ele>375.90</ele>
        <time>2016-10-22T05:55:09Z</time>
      </trkpt>
      <trkpt lat="42.514717000" lon="-2.514351000">
        <ele>375.80</ele>
        <time>2016-10-22T05:55:10Z</time>
      </trkpt>
      <trkpt lat="42.514631000" lon="-2.514407000">
        <ele>375.80</ele>
        <time>2016-10-22T05:55:12Z</time>
      </trkpt>
      <trkpt lat="42.514586000" lon="-2.514431000">
        <ele>375.70</ele>
        <time>2016-10-22T05:55:13Z</time>
      </trkpt>
      <trkpt lat="42.514537000" lon="-2.514448000">
        <ele>375.50</ele>
        <time>2016-10-22T05:55:14Z</time>
      </trkpt>
      <trkpt lat="42.514491000" lon="-2.514457000">
        <ele>375.30</ele>
        <time>2016-10-22T05:55:15Z</time>
      </trkpt>
      <trkpt lat="42.514445000" lon="-2.514465000">
        <ele>375.20</ele>
        <time>2016-10-22T05:55:16Z</time>
      </trkpt>
      <trkpt lat="42.514401000" lon="-2.514475000">
        <ele>375.10</ele>
        <time>2016-10-22T05:55:17Z</time>
      </trkpt>
      <trkpt lat="42.514357000" lon="-2.514486000">
        <ele>375.00</ele>
        <time>2016-10-22T05:55:18Z</time>
      </trkpt>
      <trkpt lat="42.514314000" lon="-2.514499000">
        <ele>374.90</ele>
        <time>2016-10-22T05:55:19Z</time>
      </trkpt>
      <trkpt lat="42.514267000" lon="-2.514514000">
        <ele>374.90</ele>
        <time>2016-10-22T05:55:20Z</time>
      </trkpt>
      <trkpt lat="42.514224000" lon="-2.514522000">
        <ele>374.90</ele>
        <time>2016-10-22T05:55:21Z</time>
      </trkpt>
      <trkpt lat="42.514182000" lon="-2.514527000">
        <ele>374.80</ele>
        <time>2016-10-22T05:55:22Z</time>
      </trkpt>
      <trkpt lat="42.514134000" lon="-2.514533000">
        <ele>374.70</ele>
        <time>2016-10-22T05:55:23Z</time>
      </trkpt>
      <trkpt lat="42.514087000" lon="-2.514539000">
        <ele>374.60</ele>
        <time>2016-10-22T05:55:24Z</time>
      </trkpt>
      <trkpt lat="42.514035000" lon="-2.514550000">
        <ele>374.60</ele>
        <time>2016-10-22T05:55:25Z</time>
      </trkpt>
      <trkpt lat="42.513989000" lon="-2.514563000">
        <ele>374.70</ele>
        <time>2016-10-22T05:55:26Z</time>
      </trkpt>
      <trkpt lat="42.513945000" lon="-2.514576000">
        <ele>374.80</ele>
        <time>2016-10-22T05:55:27Z</time>
      </trkpt>
      <trkpt lat="42.513899000" lon="-2.514587000">
        <ele>375.00</ele>
        <time>2016-10-22T05:55:28Z</time>
      </trkpt>
      <trkpt lat="42.513853000" lon="-2.514599000">
        <ele>375.10</ele>
        <time>2016-10-22T05:55:29Z</time>
      </trkpt>
      <trkpt lat="42.513812000" lon="-2.514609000">
        <ele>375.20</ele>
        <time>2016-10-22T05:55:30Z</time>
      </trkpt>
      <trkpt lat="42.513768000" lon="-2.514623000">
        <ele>375.30</ele>
        <time>2016-10-22T05:55:31Z</time>
      </trkpt>
      <trkpt lat="42.513728000" lon="-2.514637000">
        <ele>375.40</ele>
        <time>2016-10-22T05:55:32Z</time>
      </trkpt>
      <trkpt lat="42.513685000" lon="-2.514652000">
        <ele>375.50</ele>
        <time>2016-10-22T05:55:33Z</time>
      </trkpt>
      <trkpt lat="42.513642000" lon="-2.514666000">
        <ele>375.60</ele>
        <time>2016-10-22T05:55:34Z</time>
      </trkpt>
      <trkpt lat="42.513600000" lon="-2.514684000">
        <ele>375.60</ele>
        <time>2016-10-22T05:55:35Z</time>
      </trkpt>
      <trkpt lat="42.513555000" lon="-2.514701000">
        <ele>375.60</ele>
        <time>2016-10-22T05:55:36Z</time>
      </trkpt>
      <trkpt lat="42.513508000" lon="-2.514717000">
        <ele>375.60</ele>
        <time>2016-10-22T05:55:37Z</time>
      </trkpt>
      <trkpt lat="42.513463000" lon="-2.514738000">
        <ele>375.60</ele>
        <time>2016-10-22T05:55:38Z</time>
      </trkpt>
      <trkpt lat="42.513417000" lon="-2.514755000">
        <ele>375.60</ele>
        <time>2016-10-22T05:55:39Z</time>
      </trkpt>
      <trkpt lat="42.513372000" lon="-2.514775000">
        <ele>375.60</ele>
        <time>2016-10-22T05:55:40Z</time>
      </trkpt>
      <trkpt lat="42.513329000" lon="-2.514798000">
        <ele>375.60</ele>
        <time>2016-10-22T05:55:41Z</time>
      </trkpt>
      <trkpt lat="42.513287000" lon="-2.514823000">
        <ele>375.80</ele>
        <time>2016-10-22T05:55:42Z</time>
      </trkpt>
      <trkpt lat="42.513247000" lon="-2.514842000">
        <ele>376.00</ele>
        <time>2016-10-22T05:55:43Z</time>
      </trkpt>
      <trkpt lat="42.513205000" lon="-2.514861000">
        <ele>376.10</ele>
        <time>2016-10-22T05:55:44Z</time>
      </trkpt>
      <trkpt lat="42.513165000" lon="-2.514874000">
        <ele>376.20</ele>
        <time>2016-10-22T05:55:45Z</time>
      </trkpt>
      <trkpt lat="42.513128000" lon="-2.514889000">
        <ele>376.30</ele>
        <time>2016-10-22T05:55:46Z</time>
      </trkpt>
      <trkpt lat="42.513091000" lon="-2.514905000">
        <ele>376.30</ele>
        <time>2016-10-22T05:55:47Z</time>
      </trkpt>
      <trkpt lat="42.513055000" lon="-2.514928000">
        <ele>376.40</ele>
        <time>2016-10-22T05:55:48Z</time>
      </trkpt>
      <trkpt lat="42.513017000" lon="-2.514946000">
        <ele>376.40</ele>
        <time>2016-10-22T05:55:49Z</time>
      </trkpt>
      <trkpt lat="42.512984000" lon="-2.514965000">
        <ele>376.60</ele>
        <time>2016-10-22T05:55:50Z</time>
      </trkpt>
      <trkpt lat="42.512950000" lon="-2.514989000">
        <ele>376.80</ele>
        <time>2016-10-22T05:55:51Z</time>
      </trkpt>
      <trkpt lat="42.512913000" lon="-2.515012000">
        <ele>376.80</ele>
        <time>2016-10-22T05:55:52Z</time>
      </trkpt>
      <trkpt lat="42.512878000" lon="-2.515036000">
        <ele>376.80</ele>
        <time>2016-10-22T05:55:53Z</time>
      </trkpt>
      <trkpt lat="42.512844000" lon="-2.515059000">
        <ele>376.80</ele>
        <time>2016-10-22T05:55:54Z</time>
      </trkpt>
      <trkpt lat="42.512807000" lon="-2.515087000">
        <ele>376.80</ele>
        <time>2016-10-22T05:55:55Z</time>
      </trkpt>
      <trkpt lat="42.512768000" lon="-2.515121000">
        <ele>376.80</ele>
        <time>2016-10-22T05:55:56Z</time>
      </trkpt>
      <trkpt lat="42.512728000" lon="-2.515157000">
        <ele>376.80</ele>
        <time>2016-10-22T05:55:57Z</time>
      </trkpt>
      <trkpt lat="42.512682000" lon="-2.515199000">
        <ele>376.70</ele>
        <time>2016-10-22T05:55:58Z</time>
      </trkpt>
      <trkpt lat="42.512638000" lon="-2.515234000">
        <ele>376.60</ele>
        <time>2016-10-22T05:55:59Z</time>
      </trkpt>
      <trkpt lat="42.512592000" lon="-2.515261000">
        <ele>376.50</ele>
        <time>2016-10-22T05:56:00Z</time>
      </trkpt>
      <trkpt lat="42.512548000" lon="-2.515283000">
        <ele>376.50</ele>
        <time>2016-10-22T05:56:01Z</time>
      </trkpt>
      <trkpt lat="42.512503000" lon="-2.515304000">
        <ele>376.20</ele>
        <time>2016-10-22T05:56:02Z</time>
      </trkpt>
      <trkpt lat="42.512459000" lon="-2.515329000">
        <ele>376.10</ele>
        <time>2016-10-22T05:56:03Z</time>
      </trkpt>
      <trkpt lat="42.512415000" lon="-2.515358000">
        <ele>375.80</ele>
        <time>2016-10-22T05:56:04Z</time>
      </trkpt>
      <trkpt lat="42.512375000" lon="-2.515387000">
        <ele>375.60</ele>
        <time>2016-10-22T05:56:05Z</time>
      </trkpt>
      <trkpt lat="42.512338000" lon="-2.515416000">
        <ele>375.50</ele>
        <time>2016-10-22T05:56:06Z</time>
      </trkpt>
      <trkpt lat="42.512304000" lon="-2.515441000">
        <ele>375.30</ele>
        <time>2016-10-22T05:56:07Z</time>
      </trkpt>
      <trkpt lat="42.512271000" lon="-2.515462000">
        <ele>375.30</ele>
        <time>2016-10-22T05:56:08Z</time>
      </trkpt>
      <trkpt lat="42.512237000" lon="-2.515485000">
        <ele>375.30</ele>
        <time>2016-10-22T05:56:09Z</time>
      </trkpt>
      <trkpt lat="42.512201000" lon="-2.515506000">
        <ele>375.30</ele>
        <time>2016-10-22T05:56:10Z</time>
      </trkpt>
      <trkpt lat="42.512160000" lon="-2.515529000">
        <ele>375.30</ele>
        <time>2016-10-22T05:56:11Z</time>
      </trkpt>
      <trkpt lat="42.512082000" lon="-2.515580000">
        <ele>375.30</ele>
        <time>2016-10-22T05:56:13Z</time>
      </trkpt>
      <trkpt lat="42.512048000" lon="-2.515607000">
        <ele>375.30</ele>
        <time>2016-10-22T05:56:14Z</time>
      </trkpt>
      <trkpt lat="42.512013000" lon="-2.515628000">
        <ele>375.30</ele>
        <time>2016-10-22T05:56:15Z</time>
      </trkpt>
      <trkpt lat="42.511977000" lon="-2.515646000">
        <ele>375.20</ele>
        <time>2016-10-22T05:56:16Z</time>
      </trkpt>
      <trkpt lat="42.511942000" lon="-2.515666000">
        <ele>375.20</ele>
        <time>2016-10-22T05:56:17Z</time>
      </trkpt>
      <trkpt lat="42.511908000" lon="-2.515686000">
        <ele>375.20</ele>
        <time>2016-10-22T05:56:18Z</time>
      </trkpt>
      <trkpt lat="42.511871000" lon="-2.515707000">
        <ele>375.20</ele>
        <time>2016-10-22T05:56:19Z</time>
      </trkpt>
      <trkpt lat="42.511831000" lon="-2.515730000">
        <ele>375.20</ele>
        <time>2016-10-22T05:56:20Z</time>
      </trkpt>
      <trkpt lat="42.511796000" lon="-2.515754000">
        <ele>375.10</ele>
        <time>2016-10-22T05:56:21Z</time>
      </trkpt>
      <trkpt lat="42.511759000" lon="-2.515777000">
        <ele>375.20</ele>
        <time>2016-10-22T05:56:22Z</time>
      </trkpt>
      <trkpt lat="42.511723000" lon="-2.515802000">
        <ele>375.20</ele>
        <time>2016-10-22T05:56:23Z</time>
      </trkpt>
      <trkpt lat="42.511686000" lon="-2.515829000">
        <ele>375.20</ele>
        <time>2016-10-22T05:56:24Z</time>
      </trkpt>
      <trkpt lat="42.511650000" lon="-2.515855000">
        <ele>375.10</ele>
        <time>2016-10-22T05:56:25Z</time>
      </trkpt>
      <trkpt lat="42.511615000" lon="-2.515881000">
        <ele>375.20</ele>
        <time>2016-10-22T05:56:26Z</time>
      </trkpt>
      <trkpt lat="42.511581000" lon="-2.515906000">
        <ele>375.30</ele>
        <time>2016-10-22T05:56:27Z</time>
      </trkpt>
      <trkpt lat="42.511547000" lon="-2.515931000">
        <ele>375.30</ele>
        <time>2016-10-22T05:56:28Z</time>
      </trkpt>
      <trkpt lat="42.511513000" lon="-2.515956000">
        <ele>375.30</ele>
        <time>2016-10-22T05:56:29Z</time>
      </trkpt>
      <trkpt lat="42.511480000" lon="-2.515982000">
        <ele>375.40</ele>
        <time>2016-10-22T05:56:30Z</time>
      </trkpt>
      <trkpt lat="42.511448000" lon="-2.516005000">
        <ele>375.40</ele>
        <time>2016-10-22T05:56:31Z</time>
      </trkpt>
      <trkpt lat="42.511414000" lon="-2.516030000">
        <ele>375.40</ele>
        <time>2016-10-22T05:56:32Z</time>
      </trkpt>
      <trkpt lat="42.511378000" lon="-2.516052000">
        <ele>375.30</ele>
        <time>2016-10-22T05:56:33Z</time>
      </trkpt>
      <trkpt lat="42.511348000" lon="-2.516075000">
        <ele>375.30</ele>
        <time>2016-10-22T05:56:34Z</time>
      </trkpt>
      <trkpt lat="42.511316000" lon="-2.516096000">
        <ele>375.20</ele>
        <time>2016-10-22T05:56:35Z</time>
      </trkpt>
      <trkpt lat="42.511286000" lon="-2.516125000">
        <ele>375.20</ele>
        <time>2016-10-22T05:56:36Z</time>
      </trkpt>
      <trkpt lat="42.511254000" lon="-2.516154000">
        <ele>375.10</ele>
        <time>2016-10-22T05:56:37Z</time>
      </trkpt>
      <trkpt lat="42.511220000" lon="-2.516181000">
        <ele>375.00</ele>
        <time>2016-10-22T05:56:38Z</time>
      </trkpt>
      <trkpt lat="42.511187000" lon="-2.516210000">
        <ele>374.80</ele>
        <time>2016-10-22T05:56:39Z</time>
      </trkpt>
      <trkpt lat="42.511153000" lon="-2.516238000">
        <ele>374.80</ele>
        <time>2016-10-22T05:56:40Z</time>
      </trkpt>
      <trkpt lat="42.511119000" lon="-2.516269000">
        <ele>374.70</ele>
        <time>2016-10-22T05:56:41Z</time>
      </trkpt>
      <trkpt lat="42.511084000" lon="-2.516305000">
        <ele>374.60</ele>
        <time>2016-10-22T05:56:42Z</time>
      </trkpt>
      <trkpt lat="42.511051000" lon="-2.516338000">
        <ele>374.60</ele>
        <time>2016-10-22T05:56:43Z</time>
      </trkpt>
      <trkpt lat="42.511019000" lon="-2.516362000">
        <ele>374.60</ele>
        <time>2016-10-22T05:56:44Z</time>
      </trkpt>
      <trkpt lat="42.510990000" lon="-2.516383000">
        <ele>374.70</ele>
        <time>2016-10-22T05:56:45Z</time>
      </trkpt>
      <trkpt lat="42.510961000" lon="-2.516399000">
        <ele>374.70</ele>
        <time>2016-10-22T05:56:46Z</time>
      </trkpt>
      <trkpt lat="42.510931000" lon="-2.516414000">
        <ele>374.70</ele>
        <time>2016-10-22T05:56:47Z</time>
      </trkpt>
      <trkpt lat="42.510902000" lon="-2.516425000">
        <ele>374.70</ele>
        <time>2016-10-22T05:56:48Z</time>
      </trkpt>
      <trkpt lat="42.510873000" lon="-2.516441000">
        <ele>374.70</ele>
        <time>2016-10-22T05:56:49Z</time>
      </trkpt>
      <trkpt lat="42.510840000" lon="-2.516456000">
        <ele>374.70</ele>
        <time>2016-10-22T05:56:50Z</time>
      </trkpt>
      <trkpt lat="42.510807000" lon="-2.516473000">
        <ele>374.60</ele>
        <time>2016-10-22T05:56:51Z</time>
      </trkpt>
      <trkpt lat="42.510774000" lon="-2.516490000">
        <ele>374.70</ele>
        <time>2016-10-22T05:56:52Z</time>
      </trkpt>
      <trkpt lat="42.510741000" lon="-2.516509000">
        <ele>374.70</ele>
        <time>2016-10-22T05:56:53Z</time>
      </trkpt>
      <trkpt lat="42.510709000" lon="-2.516532000">
        <ele>374.80</ele>
        <time>2016-10-22T05:56:54Z</time>
      </trkpt>
      <trkpt lat="42.510677000" lon="-2.516554000">
        <ele>374.80</ele>
        <time>2016-10-22T05:56:55Z</time>
      </trkpt>
      <trkpt lat="42.510643000" lon="-2.516577000">
        <ele>374.90</ele>
        <time>2016-10-22T05:56:56Z</time>
      </trkpt>
      <trkpt lat="42.510608000" lon="-2.516602000">
        <ele>374.90</ele>
        <time>2016-10-22T05:56:57Z</time>
      </trkpt>
      <trkpt lat="42.510577000" lon="-2.516623000">
        <ele>374.90</ele>
        <time>2016-10-22T05:56:58Z</time>
      </trkpt>
      <trkpt lat="42.510544000" lon="-2.516647000">
        <ele>375.00</ele>
        <time>2016-10-22T05:56:59Z</time>
      </trkpt>
      <trkpt lat="42.510515000" lon="-2.516677000">
        <ele>374.90</ele>
        <time>2016-10-22T05:57:00Z</time>
      </trkpt>
      <trkpt lat="42.510484000" lon="-2.516709000">
        <ele>374.90</ele>
        <time>2016-10-22T05:57:01Z</time>
      </trkpt>
      <trkpt lat="42.510453000" lon="-2.516736000">
        <ele>374.80</ele>
        <time>2016-10-22T05:57:02Z</time>
      </trkpt>
      <trkpt lat="42.510420000" lon="-2.516762000">
        <ele>374.80</ele>
        <time>2016-10-22T05:57:03Z</time>
      </trkpt>
      <trkpt lat="42.510390000" lon="-2.516786000">
        <ele>374.80</ele>
        <time>2016-10-22T05:57:04Z</time>
      </trkpt>
      <trkpt lat="42.510358000" lon="-2.516808000">
        <ele>374.80</ele>
        <time>2016-10-22T05:57:05Z</time>
      </trkpt>
      <trkpt lat="42.510327000" lon="-2.516832000">
        <ele>374.90</ele>
        <time>2016-10-22T05:57:06Z</time>
      </trkpt>
      <trkpt lat="42.510297000" lon="-2.516860000">
        <ele>375.00</ele>
        <time>2016-10-22T05:57:07Z</time>
      </trkpt>
      <trkpt lat="42.510264000" lon="-2.516878000">
        <ele>375.10</ele>
        <time>2016-10-22T05:57:08Z</time>
      </trkpt>
      <trkpt lat="42.510229000" lon="-2.516897000">
        <ele>375.10</ele>
        <time>2016-10-22T05:57:09Z</time>
      </trkpt>
      <trkpt lat="42.510197000" lon="-2.516919000">
        <ele>375.20</ele>
        <time>2016-10-22T05:57:10Z</time>
      </trkpt>
      <trkpt lat="42.510167000" lon="-2.516940000">
        <ele>375.20</ele>
        <time>2016-10-22T05:57:11Z</time>
      </trkpt>
      <trkpt lat="42.510133000" lon="-2.516961000">
        <ele>375.20</ele>
        <time>2016-10-22T05:57:12Z</time>
      </trkpt>
      <trkpt lat="42.510075000" lon="-2.516998000">
        <ele>375.30</ele>
        <time>2016-10-22T05:57:14Z</time>
      </trkpt>
      <trkpt lat="42.510048000" lon="-2.517017000">
        <ele>375.40</ele>
        <time>2016-10-22T05:57:15Z</time>
      </trkpt>
      <trkpt lat="42.510019000" lon="-2.517041000">
        <ele>375.40</ele>
        <time>2016-10-22T05:57:16Z</time>
      </trkpt>
      <trkpt lat="42.509984000" lon="-2.517066000">
        <ele>375.40</ele>
        <time>2016-10-22T05:57:17Z</time>
      </trkpt>
      <trkpt lat="42.509952000" lon="-2.517093000">
        <ele>375.30</ele>
        <time>2016-10-22T05:57:18Z</time>
      </trkpt>
      <trkpt lat="42.509919000" lon="-2.517119000">
        <ele>375.30</ele>
        <time>2016-10-22T05:57:19Z</time>
      </trkpt>
      <trkpt lat="42.509890000" lon="-2.517139000">
        <ele>375.10</ele>
        <time>2016-10-22T05:57:20Z</time>
      </trkpt>
      <trkpt lat="42.509861000" lon="-2.517162000">
        <ele>375.00</ele>
        <time>2016-10-22T05:57:21Z</time>
      </trkpt>
      <trkpt lat="42.509829000" lon="-2.517184000">
        <ele>375.00</ele>
        <time>2016-10-22T05:57:22Z</time>
      </trkpt>
      <trkpt lat="42.509801000" lon="-2.517209000">
        <ele>374.90</ele>
        <time>2016-10-22T05:57:23Z</time>
      </trkpt>
      <trkpt lat="42.509770000" lon="-2.517234000">
        <ele>374.90</ele>
        <time>2016-10-22T05:57:24Z</time>
      </trkpt>
      <trkpt lat="42.509741000" lon="-2.517259000">
        <ele>374.80</ele>
        <time>2016-10-22T05:57:25Z</time>
      </trkpt>
      <trkpt lat="42.509710000" lon="-2.517282000">
        <ele>374.80</ele>
        <time>2016-10-22T05:57:26Z</time>
      </trkpt>
      <trkpt lat="42.509682000" lon="-2.517307000">
        <ele>374.80</ele>
        <time>2016-10-22T05:57:27Z</time>
      </trkpt>
      <trkpt lat="42.509650000" lon="-2.517327000">
        <ele>374.90</ele>
        <time>2016-10-22T05:57:28Z</time>
      </trkpt>
      <trkpt lat="42.509621000" lon="-2.517356000">
        <ele>374.90</ele>
        <time>2016-10-22T05:57:29Z</time>
      </trkpt>
      <trkpt lat="42.509591000" lon="-2.517379000">
        <ele>374.90</ele>
        <time>2016-10-22T05:57:30Z</time>
      </trkpt>
      <trkpt lat="42.509562000" lon="-2.517408000">
        <ele>375.00</ele>
        <time>2016-10-22T05:57:31Z</time>
      </trkpt>
      <trkpt lat="42.509529000" lon="-2.517433000">
        <ele>375.00</ele>
        <time>2016-10-22T05:57:32Z</time>
      </trkpt>
      <trkpt lat="42.509495000" lon="-2.517456000">
        <ele>375.10</ele>
        <time>2016-10-22T05:57:33Z</time>
      </trkpt>
      <trkpt lat="42.509463000" lon="-2.517475000">
        <ele>374.80</ele>
        <time>2016-10-22T05:57:34Z</time>
      </trkpt>
      <trkpt lat="42.509428000" lon="-2.517490000">
        <ele>374.60</ele>
        <time>2016-10-22T05:57:35Z</time>
      </trkpt>
      <trkpt lat="42.509397000" lon="-2.517512000">
        <ele>374.60</ele>
        <time>2016-10-22T05:57:36Z</time>
      </trkpt>
      <trkpt lat="42.509365000" lon="-2.517527000">
        <ele>374.60</ele>
        <time>2016-10-22T05:57:37Z</time>
      </trkpt>
      <trkpt lat="42.509331000" lon="-2.517536000">
        <ele>374.50</ele>
        <time>2016-10-22T05:57:38Z</time>
      </trkpt>
      <trkpt lat="42.509295000" lon="-2.517540000">
        <ele>374.50</ele>
        <time>2016-10-22T05:57:39Z</time>
      </trkpt>
      <trkpt lat="42.509258000" lon="-2.517542000">
        <ele>374.70</ele>
        <time>2016-10-22T05:57:40Z</time>
      </trkpt>
      <trkpt lat="42.509223000" lon="-2.517544000">
        <ele>374.70</ele>
        <time>2016-10-22T05:57:41Z</time>
      </trkpt>
      <trkpt lat="42.509188000" lon="-2.517541000">
        <ele>374.90</ele>
        <time>2016-10-22T05:57:42Z</time>
      </trkpt>
      <trkpt lat="42.509153000" lon="-2.517538000">
        <ele>375.00</ele>
        <time>2016-10-22T05:57:43Z</time>
      </trkpt>
      <trkpt lat="42.509118000" lon="-2.517544000">
        <ele>375.20</ele>
        <time>2016-10-22T05:57:44Z</time>
      </trkpt>
      <trkpt lat="42.509081000" lon="-2.517551000">
        <ele>375.40</ele>
        <time>2016-10-22T05:57:45Z</time>
      </trkpt>
      <trkpt lat="42.509048000" lon="-2.517562000">
        <ele>375.60</ele>
        <time>2016-10-22T05:57:46Z</time>
      </trkpt>
      <trkpt lat="42.509014000" lon="-2.517574000">
        <ele>375.70</ele>
        <time>2016-10-22T05:57:47Z</time>
      </trkpt>
      <trkpt lat="42.508980000" lon="-2.517587000">
        <ele>375.60</ele>
        <time>2016-10-22T05:57:48Z</time>
      </trkpt>
      <trkpt lat="42.508949000" lon="-2.517600000">
        <ele>375.60</ele>
        <time>2016-10-22T05:57:49Z</time>
      </trkpt>
      <trkpt lat="42.508918000" lon="-2.517619000">
        <ele>375.60</ele>
        <time>2016-10-22T05:57:50Z</time>
      </trkpt>
      <trkpt lat="42.508885000" lon="-2.517637000">
        <ele>375.60</ele>
        <time>2016-10-22T05:57:51Z</time>
      </trkpt>
      <trkpt lat="42.508853000" lon="-2.517659000">
        <ele>375.60</ele>
        <time>2016-10-22T05:57:52Z</time>
      </trkpt>
      <trkpt lat="42.508821000" lon="-2.517683000">
        <ele>375.60</ele>
        <time>2016-10-22T05:57:53Z</time>
      </trkpt>
      <trkpt lat="42.508789000" lon="-2.517702000">
        <ele>375.60</ele>
        <time>2016-10-22T05:57:54Z</time>
      </trkpt>
      <trkpt lat="42.508758000" lon="-2.517719000">
        <ele>375.60</ele>
        <time>2016-10-22T05:57:55Z</time>
      </trkpt>
      <trkpt lat="42.508727000" lon="-2.517742000">
        <ele>375.40</ele>
        <time>2016-10-22T05:57:56Z</time>
      </trkpt>
      <trkpt lat="42.508698000" lon="-2.517766000">
        <ele>375.20</ele>
        <time>2016-10-22T05:57:57Z</time>
      </trkpt>
      <trkpt lat="42.508667000" lon="-2.517789000">
        <ele>375.10</ele>
        <time>2016-10-22T05:57:58Z</time>
      </trkpt>
      <trkpt lat="42.508636000" lon="-2.517808000">
        <ele>375.00</ele>
        <time>2016-10-22T05:57:59Z</time>
      </trkpt>
      <trkpt lat="42.508603000" lon="-2.517828000">
        <ele>374.90</ele>
        <time>2016-10-22T05:58:00Z</time>
      </trkpt>
      <trkpt lat="42.508569000" lon="-2.517849000">
        <ele>374.80</ele>
        <time>2016-10-22T05:58:01Z</time>
      </trkpt>
      <trkpt lat="42.508536000" lon="-2.517869000">
        <ele>374.90</ele>
        <time>2016-10-22T05:58:02Z</time>
      </trkpt>
      <trkpt lat="42.508501000" lon="-2.517887000">
        <ele>375.00</ele>
        <time>2016-10-22T05:58:03Z</time>
      </trkpt>
      <trkpt lat="42.508472000" lon="-2.517907000">
        <ele>374.90</ele>
        <time>2016-10-22T05:58:04Z</time>
      </trkpt>
      <trkpt lat="42.508441000" lon="-2.517933000">
        <ele>374.80</ele>
        <time>2016-10-22T05:58:05Z</time>
      </trkpt>
      <trkpt lat="42.508410000" lon="-2.517963000">
        <ele>374.70</ele>
        <time>2016-10-22T05:58:06Z</time>
      </trkpt>
      <trkpt lat="42.508378000" lon="-2.517995000">
        <ele>374.70</ele>
        <time>2016-10-22T05:58:07Z</time>
      </trkpt>
      <trkpt lat="42.508346000" lon="-2.518034000">
        <ele>374.70</ele>
        <time>2016-10-22T05:58:08Z</time>
      </trkpt>
      <trkpt lat="42.508315000" lon="-2.518071000">
        <ele>374.60</ele>
        <time>2016-10-22T05:58:09Z</time>
      </trkpt>
      <trkpt lat="42.508280000" lon="-2.518111000">
        <ele>374.60</ele>
        <time>2016-10-22T05:58:10Z</time>
      </trkpt>
      <trkpt lat="42.508243000" lon="-2.518148000">
        <ele>374.60</ele>
        <time>2016-10-22T05:58:11Z</time>
      </trkpt>
      <trkpt lat="42.508204000" lon="-2.518190000">
        <ele>374.30</ele>
        <time>2016-10-22T05:58:12Z</time>
      </trkpt>
      <trkpt lat="42.508163000" lon="-2.518230000">
        <ele>374.10</ele>
        <time>2016-10-22T05:58:13Z</time>
      </trkpt>
      <trkpt lat="42.508126000" lon="-2.518277000">
        <ele>373.80</ele>
        <time>2016-10-22T05:58:14Z</time>
      </trkpt>
      <trkpt lat="42.508056000" lon="-2.518357000">
        <ele>373.50</ele>
        <time>2016-10-22T05:58:16Z</time>
      </trkpt>
      <trkpt lat="42.508023000" lon="-2.518398000">
        <ele>373.40</ele>
        <time>2016-10-22T05:58:17Z</time>
      </trkpt>
      <trkpt lat="42.507992000" lon="-2.518439000">
        <ele>373.30</ele>
        <time>2016-10-22T05:58:18Z</time>
      </trkpt>
      <trkpt lat="42.507962000" lon="-2.518478000">
        <ele>373.30</ele>
        <time>2016-10-22T05:58:19Z</time>
      </trkpt>
      <trkpt lat="42.507929000" lon="-2.518512000">
        <ele>373.20</ele>
        <time>2016-10-22T05:58:20Z</time>
      </trkpt>
      <trkpt lat="42.507901000" lon="-2.518551000">
        <ele>373.20</ele>
        <time>2016-10-22T05:58:21Z</time>
      </trkpt>
      <trkpt lat="42.507870000" lon="-2.518593000">
        <ele>373.20</ele>
        <time>2016-10-22T05:58:22Z</time>
      </trkpt>
      <trkpt lat="42.507837000" lon="-2.518626000">
        <ele>373.20</ele>
        <time>2016-10-22T05:58:23Z</time>
      </trkpt>
      <trkpt lat="42.507805000" lon="-2.518662000">
        <ele>373.20</ele>
        <time>2016-10-22T05:58:24Z</time>
      </trkpt>
      <trkpt lat="42.507772000" lon="-2.518699000">
        <ele>373.30</ele>
        <time>2016-10-22T05:58:25Z</time>
      </trkpt>
      <trkpt lat="42.507738000" lon="-2.518730000">
        <ele>373.30</ele>
        <time>2016-10-22T05:58:26Z</time>
      </trkpt>
      <trkpt lat="42.507702000" lon="-2.518758000">
        <ele>373.30</ele>
        <time>2016-10-22T05:58:27Z</time>
      </trkpt>
      <trkpt lat="42.507669000" lon="-2.518788000">
        <ele>373.30</ele>
        <time>2016-10-22T05:58:28Z</time>
      </trkpt>
      <trkpt lat="42.507634000" lon="-2.518822000">
        <ele>373.30</ele>
        <time>2016-10-22T05:58:29Z</time>
      </trkpt>
      <trkpt lat="42.507596000" lon="-2.518849000">
        <ele>373.40</ele>
        <time>2016-10-22T05:58:30Z</time>
      </trkpt>
      <trkpt lat="42.507562000" lon="-2.518877000">
        <ele>373.50</ele>
        <time>2016-10-22T05:58:31Z</time>
      </trkpt>
      <trkpt lat="42.507527000" lon="-2.518898000">
        <ele>373.50</ele>
        <time>2016-10-22T05:58:32Z</time>
      </trkpt>
      <trkpt lat="42.507495000" lon="-2.518919000">
        <ele>373.50</ele>
        <time>2016-10-22T05:58:33Z</time>
      </trkpt>
      <trkpt lat="42.507460000" lon="-2.518942000">
        <ele>373.70</ele>
        <time>2016-10-22T05:58:34Z</time>
      </trkpt>
      <trkpt lat="42.507427000" lon="-2.518965000">
        <ele>373.80</ele>
        <time>2016-10-22T05:58:35Z</time>
      </trkpt>
      <trkpt lat="42.507394000" lon="-2.518991000">
        <ele>373.80</ele>
        <time>2016-10-22T05:58:36Z</time>
      </trkpt>
      <trkpt lat="42.507360000" lon="-2.519019000">
        <ele>373.90</ele>
        <time>2016-10-22T05:58:37Z</time>
      </trkpt>
      <trkpt lat="42.507331000" lon="-2.519047000">
        <ele>374.10</ele>
        <time>2016-10-22T05:58:38Z</time>
      </trkpt>
      <trkpt lat="42.507298000" lon="-2.519073000">
        <ele>374.20</ele>
        <time>2016-10-22T05:58:39Z</time>
      </trkpt>
      <trkpt lat="42.507268000" lon="-2.519101000">
        <ele>374.30</ele>
        <time>2016-10-22T05:58:40Z</time>
      </trkpt>
      <trkpt lat="42.507239000" lon="-2.519132000">
        <ele>374.40</ele>
        <time>2016-10-22T05:58:41Z</time>
      </trkpt>
      <trkpt lat="42.507208000" lon="-2.519164000">
        <ele>374.40</ele>
        <time>2016-10-22T05:58:42Z</time>
      </trkpt>
      <trkpt lat="42.507176000" lon="-2.519202000">
        <ele>374.40</ele>
        <time>2016-10-22T05:58:43Z</time>
      </trkpt>
      <trkpt lat="42.507144000" lon="-2.519244000">
        <ele>374.20</ele>
        <time>2016-10-22T05:58:44Z</time>
      </trkpt>
      <trkpt lat="42.507114000" lon="-2.519284000">
        <ele>374.20</ele>
        <time>2016-10-22T05:58:45Z</time>
      </trkpt>
      <trkpt lat="42.507080000" lon="-2.519324000">
        <ele>374.10</ele>
        <time>2016-10-22T05:58:46Z</time>
      </trkpt>
      <trkpt lat="42.507046000" lon="-2.519361000">
        <ele>374.00</ele>
        <time>2016-10-22T05:58:47Z</time>
      </trkpt>
      <trkpt lat="42.507009000" lon="-2.519399000">
        <ele>373.90</ele>
        <time>2016-10-22T05:58:48Z</time>
      </trkpt>
      <trkpt lat="42.506975000" lon="-2.519431000">
        <ele>373.90</ele>
        <time>2016-10-22T05:58:49Z</time>
      </trkpt>
      <trkpt lat="42.506942000" lon="-2.519468000">
        <ele>373.80</ele>
        <time>2016-10-22T05:58:50Z</time>
      </trkpt>
      <trkpt lat="42.506909000" lon="-2.519501000">
        <ele>373.80</ele>
        <time>2016-10-22T05:58:51Z</time>
      </trkpt>
      <trkpt lat="42.506877000" lon="-2.519531000">
        <ele>373.70</ele>
        <time>2016-10-22T05:58:52Z</time>
      </trkpt>
      <trkpt lat="42.506843000" lon="-2.519559000">
        <ele>373.70</ele>
        <time>2016-10-22T05:58:53Z</time>
      </trkpt>
      <trkpt lat="42.506810000" lon="-2.519588000">
        <ele>373.80</ele>
        <time>2016-10-22T05:58:54Z</time>
      </trkpt>
      <trkpt lat="42.506777000" lon="-2.519617000">
        <ele>373.80</ele>
        <time>2016-10-22T05:58:55Z</time>
      </trkpt>
      <trkpt lat="42.506743000" lon="-2.519649000">
        <ele>373.80</ele>
        <time>2016-10-22T05:58:56Z</time>
      </trkpt>
      <trkpt lat="42.506712000" lon="-2.519682000">
        <ele>373.80</ele>
        <time>2016-10-22T05:58:57Z</time>
      </trkpt>
      <trkpt lat="42.506680000" lon="-2.519714000">
        <ele>373.90</ele>
        <time>2016-10-22T05:58:58Z</time>
      </trkpt>
      <trkpt lat="42.506648000" lon="-2.519743000">
        <ele>373.90</ele>
        <time>2016-10-22T05:58:59Z</time>
      </trkpt>
      <trkpt lat="42.506617000" lon="-2.519773000">
        <ele>374.00</ele>
        <time>2016-10-22T05:59:00Z</time>
      </trkpt>
      <trkpt lat="42.506583000" lon="-2.519802000">
        <ele>374.00</ele>
        <time>2016-10-22T05:59:01Z</time>
      </trkpt>
      <trkpt lat="42.506552000" lon="-2.519832000">
        <ele>374.10</ele>
        <time>2016-10-22T05:59:02Z</time>
      </trkpt>
      <trkpt lat="42.506522000" lon="-2.519862000">
        <ele>374.20</ele>
        <time>2016-10-22T05:59:03Z</time>
      </trkpt>
      <trkpt lat="42.506497000" lon="-2.519884000">
        <ele>374.30</ele>
        <time>2016-10-22T05:59:04Z</time>
      </trkpt>
      <trkpt lat="42.506468000" lon="-2.519907000">
        <ele>374.40</ele>
        <time>2016-10-22T05:59:05Z</time>
      </trkpt>
      <trkpt lat="42.506440000" lon="-2.519930000">
        <ele>374.60</ele>
        <time>2016-10-22T05:59:06Z</time>
      </trkpt>
      <trkpt lat="42.506414000" lon="-2.519953000">
        <ele>374.70</ele>
        <time>2016-10-22T05:59:07Z</time>
      </trkpt>
      <trkpt lat="42.506390000" lon="-2.519982000">
        <ele>375.00</ele>
        <time>2016-10-22T05:59:08Z</time>
      </trkpt>
      <trkpt lat="42.506365000" lon="-2.520011000">
        <ele>375.20</ele>
        <time>2016-10-22T05:59:09Z</time>
      </trkpt>
      <trkpt lat="42.506345000" lon="-2.520043000">
        <ele>375.30</ele>
        <time>2016-10-22T05:59:10Z</time>
      </trkpt>
      <trkpt lat="42.506325000" lon="-2.520076000">
        <ele>375.40</ele>
        <time>2016-10-22T05:59:11Z</time>
      </trkpt>
      <trkpt lat="42.506307000" lon="-2.520111000">
        <ele>375.50</ele>
        <time>2016-10-22T05:59:12Z</time>
      </trkpt>
      <trkpt lat="42.506284000" lon="-2.520141000">
        <ele>375.70</ele>
        <time>2016-10-22T05:59:13Z</time>
      </trkpt>
      <trkpt lat="42.506262000" lon="-2.520169000">
        <ele>375.70</ele>
        <time>2016-10-22T05:59:14Z</time>
      </trkpt>
      <trkpt lat="42.506239000" lon="-2.520203000">
        <ele>375.80</ele>
        <time>2016-10-22T05:59:15Z</time>
      </trkpt>
      <trkpt lat="42.506219000" lon="-2.520232000">
        <ele>375.80</ele>
        <time>2016-10-22T05:59:16Z</time>
      </trkpt>
      <trkpt lat="42.506170000" lon="-2.520283000">
        <ele>376.20</ele>
        <time>2016-10-22T05:59:18Z</time>
      </trkpt>
      <trkpt lat="42.506144000" lon="-2.520303000">
        <ele>376.40</ele>
        <time>2016-10-22T05:59:19Z</time>
      </trkpt>
      <trkpt lat="42.506116000" lon="-2.520326000">
        <ele>376.60</ele>
        <time>2016-10-22T05:59:20Z</time>
      </trkpt>
      <trkpt lat="42.506091000" lon="-2.520344000">
        <ele>376.80</ele>
        <time>2016-10-22T05:59:21Z</time>
      </trkpt>
      <trkpt lat="42.506063000" lon="-2.520362000">
        <ele>376.90</ele>
        <time>2016-10-22T05:59:22Z</time>
      </trkpt>
      <trkpt lat="42.506037000" lon="-2.520388000">
        <ele>377.10</ele>
        <time>2016-10-22T05:59:23Z</time>
      </trkpt>
      <trkpt lat="42.506011000" lon="-2.520410000">
        <ele>377.40</ele>
        <time>2016-10-22T05:59:24Z</time>
      </trkpt>
      <trkpt lat="42.505984000" lon="-2.520433000">
        <ele>377.60</ele>
        <time>2016-10-22T05:59:25Z</time>
      </trkpt>
      <trkpt lat="42.505959000" lon="-2.520451000">
        <ele>377.70</ele>
        <time>2016-10-22T05:59:26Z</time>
      </trkpt>
      <trkpt lat="42.505935000" lon="-2.520470000">
        <ele>377.90</ele>
        <time>2016-10-22T05:59:27Z</time>
      </trkpt>
      <trkpt lat="42.505908000" lon="-2.520488000">
        <ele>377.90</ele>
        <time>2016-10-22T05:59:28Z</time>
      </trkpt>
      <trkpt lat="42.505880000" lon="-2.520502000">
        <ele>378.00</ele>
        <time>2016-10-22T05:59:29Z</time>
      </trkpt>
      <trkpt lat="42.505849000" lon="-2.520515000">
        <ele>378.20</ele>
        <time>2016-10-22T05:59:30Z</time>
      </trkpt>
      <trkpt lat="42.505822000" lon="-2.520526000">
        <ele>378.30</ele>
        <time>2016-10-22T05:59:31Z</time>
      </trkpt>
      <trkpt lat="42.505792000" lon="-2.520537000">
        <ele>378.70</ele>
        <time>2016-10-22T05:59:32Z</time>
      </trkpt>
      <trkpt lat="42.505757000" lon="-2.520545000">
        <ele>378.90</ele>
        <time>2016-10-22T05:59:33Z</time>
      </trkpt>
      <trkpt lat="42.505724000" lon="-2.520553000">
        <ele>379.10</ele>
        <time>2016-10-22T05:59:34Z</time>
      </trkpt>
      <trkpt lat="42.505690000" lon="-2.520561000">
        <ele>379.30</ele>
        <time>2016-10-22T05:59:35Z</time>
      </trkpt>
      <trkpt lat="42.505656000" lon="-2.520572000">
        <ele>379.60</ele>
        <time>2016-10-22T05:59:36Z</time>
      </trkpt>
      <trkpt lat="42.505623000" lon="-2.520585000">
        <ele>379.80</ele>
        <time>2016-10-22T05:59:37Z</time>
      </trkpt>
      <trkpt lat="42.505589000" lon="-2.520600000">
        <ele>380.00</ele>
        <time>2016-10-22T05:59:38Z</time>
      </trkpt>
      <trkpt lat="42.505557000" lon="-2.520618000">
        <ele>380.10</ele>
        <time>2016-10-22T05:59:39Z</time>
      </trkpt>
      <trkpt lat="42.505524000" lon="-2.520639000">
        <ele>380.20</ele>
        <time>2016-10-22T05:59:40Z</time>
      </trkpt>
      <trkpt lat="42.505489000" lon="-2.520656000">
        <ele>380.30</ele>
        <time>2016-10-22T05:59:41Z</time>
      </trkpt>
      <trkpt lat="42.505457000" lon="-2.520673000">
        <ele>380.30</ele>
        <time>2016-10-22T05:59:42Z</time>
      </trkpt>
      <trkpt lat="42.505426000" lon="-2.520686000">
        <ele>380.40</ele>
        <time>2016-10-22T05:59:43Z</time>
      </trkpt>
      <trkpt lat="42.505394000" lon="-2.520697000">
        <ele>380.50</ele>
        <time>2016-10-22T05:59:44Z</time>
      </trkpt>
      <trkpt lat="42.505360000" lon="-2.520710000">
        <ele>380.60</ele>
        <time>2016-10-22T05:59:45Z</time>
      </trkpt>
      <trkpt lat="42.505331000" lon="-2.520722000">
        <ele>380.70</ele>
        <time>2016-10-22T05:59:46Z</time>
      </trkpt>
      <trkpt lat="42.505300000" lon="-2.520735000">
        <ele>380.70</ele>
        <time>2016-10-22T05:59:47Z</time>
      </trkpt>
      <trkpt lat="42.505267000" lon="-2.520750000">
        <ele>380.80</ele>
        <time>2016-10-22T05:59:48Z</time>
      </trkpt>
      <trkpt lat="42.505237000" lon="-2.520767000">
        <ele>380.90</ele>
        <time>2016-10-22T05:59:49Z</time>
      </trkpt>
      <trkpt lat="42.505205000" lon="-2.520782000">
        <ele>381.00</ele>
        <time>2016-10-22T05:59:50Z</time>
      </trkpt>
      <trkpt lat="42.505176000" lon="-2.520797000">
        <ele>381.00</ele>
        <time>2016-10-22T05:59:51Z</time>
      </trkpt>
      <trkpt lat="42.505143000" lon="-2.520810000">
        <ele>381.10</ele>
        <time>2016-10-22T05:59:52Z</time>
      </trkpt>
      <trkpt lat="42.505109000" lon="-2.520822000">
        <ele>381.20</ele>
        <time>2016-10-22T05:59:53Z</time>
      </trkpt>
      <trkpt lat="42.505074000" lon="-2.520836000">
        <ele>381.30</ele>
        <time>2016-10-22T05:59:54Z</time>
      </trkpt>
      <trkpt lat="42.505042000" lon="-2.520853000">
        <ele>381.30</ele>
        <time>2016-10-22T05:59:55Z</time>
      </trkpt>
      <trkpt lat="42.505008000" lon="-2.520871000">
        <ele>381.60</ele>
        <time>2016-10-22T05:59:56Z</time>
      </trkpt>
      <trkpt lat="42.504973000" lon="-2.520887000">
        <ele>381.80</ele>
        <time>2016-10-22T05:59:57Z</time>
      </trkpt>
      <trkpt lat="42.504940000" lon="-2.520904000">
        <ele>382.00</ele>
        <time>2016-10-22T05:59:58Z</time>
      </trkpt>
      <trkpt lat="42.504907000" lon="-2.520921000">
        <ele>382.10</ele>
        <time>2016-10-22T05:59:59Z</time>
      </trkpt>
      <trkpt lat="42.504877000" lon="-2.520939000">
        <ele>382.20</ele>
        <time>2016-10-22T06:00:00Z</time>
      </trkpt>
      <trkpt lat="42.504846000" lon="-2.520955000">
        <ele>382.30</ele>
        <time>2016-10-22T06:00:01Z</time>
      </trkpt>
      <trkpt lat="42.504814000" lon="-2.520972000">
        <ele>382.20</ele>
        <time>2016-10-22T06:00:02Z</time>
      </trkpt>
      <trkpt lat="42.504780000" lon="-2.520989000">
        <ele>382.10</ele>
        <time>2016-10-22T06:00:03Z</time>
      </trkpt>
      <trkpt lat="42.504745000" lon="-2.520999000">
        <ele>382.20</ele>
        <time>2016-10-22T06:00:04Z</time>
      </trkpt>
      <trkpt lat="42.504708000" lon="-2.521010000">
        <ele>382.30</ele>
        <time>2016-10-22T06:00:05Z</time>
      </trkpt>
      <trkpt lat="42.504668000" lon="-2.521023000">
        <ele>382.30</ele>
        <time>2016-10-22T06:00:06Z</time>
      </trkpt>
      <trkpt lat="42.504631000" lon="-2.521029000">
        <ele>382.30</ele>
        <time>2016-10-22T06:00:07Z</time>
      </trkpt>
      <trkpt lat="42.504591000" lon="-2.521032000">
        <ele>382.30</ele>
        <time>2016-10-22T06:00:08Z</time>
      </trkpt>
      <trkpt lat="42.504552000" lon="-2.521034000">
        <ele>382.30</ele>
        <time>2016-10-22T06:00:09Z</time>
      </trkpt>
      <trkpt lat="42.504514000" lon="-2.521037000">
        <ele>382.30</ele>
        <time>2016-10-22T06:00:10Z</time>
      </trkpt>
      <trkpt lat="42.504478000" lon="-2.521045000">
        <ele>382.30</ele>
        <time>2016-10-22T06:00:11Z</time>
      </trkpt>
      <trkpt lat="42.504442000" lon="-2.521047000">
        <ele>382.50</ele>
        <time>2016-10-22T06:00:12Z</time>
      </trkpt>
      <trkpt lat="42.504406000" lon="-2.521050000">
        <ele>382.60</ele>
        <time>2016-10-22T06:00:13Z</time>
      </trkpt>
      <trkpt lat="42.504371000" lon="-2.521049000">
        <ele>382.90</ele>
        <time>2016-10-22T06:00:14Z</time>
      </trkpt>
      <trkpt lat="42.504339000" lon="-2.521051000">
        <ele>383.00</ele>
        <time>2016-10-22T06:00:15Z</time>
      </trkpt>
      <trkpt lat="42.504308000" lon="-2.521059000">
        <ele>383.30</ele>
        <time>2016-10-22T06:00:16Z</time>
      </trkpt>
      <trkpt lat="42.504272000" lon="-2.521067000">
        <ele>383.50</ele>
        <time>2016-10-22T06:00:17Z</time>
      </trkpt>
      <trkpt lat="42.504236000" lon="-2.521080000">
        <ele>383.60</ele>
        <time>2016-10-22T06:00:18Z</time>
      </trkpt>
      <trkpt lat="42.504161000" lon="-2.521096000">
        <ele>383.80</ele>
        <time>2016-10-22T06:00:20Z</time>
      </trkpt>
      <trkpt lat="42.504122000" lon="-2.521105000">
        <ele>383.90</ele>
        <time>2016-10-22T06:00:21Z</time>
      </trkpt>
      <trkpt lat="42.504083000" lon="-2.521112000">
        <ele>383.90</ele>
        <time>2016-10-22T06:00:22Z</time>
      </trkpt>
      <trkpt lat="42.504045000" lon="-2.521121000">
        <ele>383.90</ele>
        <time>2016-10-22T06:00:23Z</time>
      </trkpt>
      <trkpt lat="42.504008000" lon="-2.521132000">
        <ele>384.00</ele>
        <time>2016-10-22T06:00:24Z</time>
      </trkpt>
      <trkpt lat="42.503971000" lon="-2.521140000">
        <ele>384.10</ele>
        <time>2016-10-22T06:00:25Z</time>
      </trkpt>
      <trkpt lat="42.503935000" lon="-2.521146000">
        <ele>384.10</ele>
        <time>2016-10-22T06:00:26Z</time>
      </trkpt>
      <trkpt lat="42.503903000" lon="-2.521151000">
        <ele>384.20</ele>
        <time>2016-10-22T06:00:27Z</time>
      </trkpt>
      <trkpt lat="42.503869000" lon="-2.521155000">
        <ele>384.20</ele>
        <time>2016-10-22T06:00:28Z</time>
      </trkpt>
      <trkpt lat="42.503834000" lon="-2.521160000">
        <ele>384.20</ele>
        <time>2016-10-22T06:00:29Z</time>
      </trkpt>
      <trkpt lat="42.503797000" lon="-2.521164000">
        <ele>384.30</ele>
        <time>2016-10-22T06:00:30Z</time>
      </trkpt>
      <trkpt lat="42.503760000" lon="-2.521167000">
        <ele>384.40</ele>
        <time>2016-10-22T06:00:31Z</time>
      </trkpt>
      <trkpt lat="42.503727000" lon="-2.521177000">
        <ele>384.40</ele>
        <time>2016-10-22T06:00:32Z</time>
      </trkpt>
      <trkpt lat="42.503690000" lon="-2.521191000">
        <ele>384.50</ele>
        <time>2016-10-22T06:00:33Z</time>
      </trkpt>
      <trkpt lat="42.503655000" lon="-2.521207000">
        <ele>384.50</ele>
        <time>2016-10-22T06:00:34Z</time>
      </trkpt>
      <trkpt lat="42.503618000" lon="-2.521222000">
        <ele>384.50</ele>
        <time>2016-10-22T06:00:35Z</time>
      </trkpt>
      <trkpt lat="42.503578000" lon="-2.521232000">
        <ele>384.50</ele>
        <time>2016-10-22T06:00:36Z</time>
      </trkpt>
      <trkpt lat="42.503540000" lon="-2.521243000">
        <ele>384.50</ele>
        <time>2016-10-22T06:00:37Z</time>
      </trkpt>
      <trkpt lat="42.503500000" lon="-2.521253000">
        <ele>384.50</ele>
        <time>2016-10-22T06:00:38Z</time>
      </trkpt>
      <trkpt lat="42.503462000" lon="-2.521264000">
        <ele>384.50</ele>
        <time>2016-10-22T06:00:39Z</time>
      </trkpt>
      <trkpt lat="42.503425000" lon="-2.521272000">
        <ele>384.50</ele>
        <time>2016-10-22T06:00:40Z</time>
      </trkpt>
      <trkpt lat="42.503389000" lon="-2.521284000">
        <ele>384.50</ele>
        <time>2016-10-22T06:00:41Z</time>
      </trkpt>
      <trkpt lat="42.503353000" lon="-2.521301000">
        <ele>384.50</ele>
        <time>2016-10-22T06:00:42Z</time>
      </trkpt>
      <trkpt lat="42.503318000" lon="-2.521314000">
        <ele>384.40</ele>
        <time>2016-10-22T06:00:43Z</time>
      </trkpt>
      <trkpt lat="42.503281000" lon="-2.521326000">
        <ele>384.40</ele>
        <time>2016-10-22T06:00:44Z</time>
      </trkpt>
      <trkpt lat="42.503245000" lon="-2.521338000">
        <ele>384.40</ele>
        <time>2016-10-22T06:00:45Z</time>
      </trkpt>
      <trkpt lat="42.503207000" lon="-2.521347000">
        <ele>384.40</ele>
        <time>2016-10-22T06:00:46Z</time>
      </trkpt>
      <trkpt lat="42.503170000" lon="-2.521357000">
        <ele>384.30</ele>
        <time>2016-10-22T06:00:47Z</time>
      </trkpt>
      <trkpt lat="42.503135000" lon="-2.521366000">
        <ele>384.50</ele>
        <time>2016-10-22T06:00:48Z</time>
      </trkpt>
      <trkpt lat="42.503098000" lon="-2.521374000">
        <ele>384.50</ele>
        <time>2016-10-22T06:00:49Z</time>
      </trkpt>
      <trkpt lat="42.503063000" lon="-2.521382000">
        <ele>384.60</ele>
        <time>2016-10-22T06:00:50Z</time>
      </trkpt>
      <trkpt lat="42.503033000" lon="-2.521388000">
        <ele>384.70</ele>
        <time>2016-10-22T06:00:51Z</time>
      </trkpt>
      <trkpt lat="42.503006000" lon="-2.521385000">
        <ele>384.60</ele>
        <time>2016-10-22T06:00:52Z</time>
      </trkpt>
      <trkpt lat="42.502982000" lon="-2.521386000">
        <ele>384.50</ele>
        <time>2016-10-22T06:00:53Z</time>
      </trkpt>
      <trkpt lat="42.502961000" lon="-2.521392000">
        <ele>384.40</ele>
        <time>2016-10-22T06:00:54Z</time>
      </trkpt>
      <trkpt lat="42.502947000" lon="-2.521409000">
        <ele>384.40</ele>
        <time>2016-10-22T06:00:55Z</time>
      </trkpt>
      <trkpt lat="42.502939000" lon="-2.521432000">
        <ele>384.40</ele>
        <time>2016-10-22T06:00:56Z</time>
      </trkpt>
      <trkpt lat="42.502940000" lon="-2.521465000">
        <ele>384.40</ele>
        <time>2016-10-22T06:00:57Z</time>
      </trkpt>
      <trkpt lat="42.502941000" lon="-2.521493000">
        <ele>384.40</ele>
        <time>2016-10-22T06:00:58Z</time>
      </trkpt>
      <trkpt lat="42.502949000" lon="-2.521526000">
        <ele>384.40</ele>
        <time>2016-10-22T06:00:59Z</time>
      </trkpt>
      <trkpt lat="42.502952000" lon="-2.521568000">
        <ele>384.50</ele>
        <time>2016-10-22T06:01:00Z</time>
      </trkpt>
      <trkpt lat="42.502955000" lon="-2.521614000">
        <ele>384.50</ele>
        <time>2016-10-22T06:01:01Z</time>
      </trkpt>
      <trkpt lat="42.502961000" lon="-2.521653000">
        <ele>384.10</ele>
        <time>2016-10-22T06:01:02Z</time>
      </trkpt>
      <trkpt lat="42.502961000" lon="-2.521689000">
        <ele>383.70</ele>
        <time>2016-10-22T06:01:03Z</time>
      </trkpt>
      <trkpt lat="42.502964000" lon="-2.521714000">
        <ele>383.40</ele>
        <time>2016-10-22T06:01:04Z</time>
      </trkpt>
      <trkpt lat="42.502972000" lon="-2.521744000">
        <ele>383.20</ele>
        <time>2016-10-22T06:01:05Z</time>
      </trkpt>
      <trkpt lat="42.502979000" lon="-2.521780000">
        <ele>382.90</ele>
        <time>2016-10-22T06:01:06Z</time>
      </trkpt>
      <trkpt lat="42.502985000" lon="-2.521816000">
        <ele>382.70</ele>
        <time>2016-10-22T06:01:07Z</time>
      </trkpt>
      <trkpt lat="42.502993000" lon="-2.521860000">
        <ele>382.50</ele>
        <time>2016-10-22T06:01:08Z</time>
      </trkpt>
      <trkpt lat="42.503002000" lon="-2.521910000">
        <ele>382.30</ele>
        <time>2016-10-22T06:01:09Z</time>
      </trkpt>
      <trkpt lat="42.503015000" lon="-2.521962000">
        <ele>382.20</ele>
        <time>2016-10-22T06:01:10Z</time>
      </trkpt>
      <trkpt lat="42.503033000" lon="-2.522013000">
        <ele>382.10</ele>
        <time>2016-10-22T06:01:11Z</time>
      </trkpt>
      <trkpt lat="42.503044000" lon="-2.522050000">
        <ele>382.00</ele>
        <time>2016-10-22T06:01:12Z</time>
      </trkpt>
      <trkpt lat="42.503059000" lon="-2.522085000">
        <ele>381.90</ele>
        <time>2016-10-22T06:01:13Z</time>
      </trkpt>
      <trkpt lat="42.503059000" lon="-2.522119000">
        <ele>381.70</ele>
        <time>2016-10-22T06:01:14Z</time>
      </trkpt>
      <trkpt lat="42.503050000" lon="-2.522149000">
        <ele>381.50</ele>
        <time>2016-10-22T06:01:15Z</time>
      </trkpt>
      <trkpt lat="42.503048000" lon="-2.522190000">
        <ele>381.40</ele>
        <time>2016-10-22T06:01:16Z</time>
      </trkpt>
      <trkpt lat="42.503053000" lon="-2.522233000">
        <ele>381.30</ele>
        <time>2016-10-22T06:01:17Z</time>
      </trkpt>
      <trkpt lat="42.503064000" lon="-2.522276000">
        <ele>381.20</ele>
        <time>2016-10-22T06:01:18Z</time>
      </trkpt>
      <trkpt lat="42.503073000" lon="-2.522316000">
        <ele>381.20</ele>
        <time>2016-10-22T06:01:19Z</time>
      </trkpt>
      <trkpt lat="42.503092000" lon="-2.522397000">
        <ele>381.20</ele>
        <time>2016-10-22T06:01:21Z</time>
      </trkpt>
      <trkpt lat="42.503089000" lon="-2.522433000">
        <ele>381.20</ele>
        <time>2016-10-22T06:01:22Z</time>
      </trkpt>
      <trkpt lat="42.503075000" lon="-2.522463000">
        <ele>381.10</ele>
        <time>2016-10-22T06:01:23Z</time>
      </trkpt>
      <trkpt lat="42.503060000" lon="-2.522496000">
        <ele>381.00</ele>
        <time>2016-10-22T06:01:24Z</time>
      </trkpt>
      <trkpt lat="42.503062000" lon="-2.522539000">
        <ele>380.90</ele>
        <time>2016-10-22T06:01:25Z</time>
      </trkpt>
      <trkpt lat="42.503072000" lon="-2.522585000">
        <ele>380.70</ele>
        <time>2016-10-22T06:01:26Z</time>
      </trkpt>
      <trkpt lat="42.503089000" lon="-2.522633000">
        <ele>380.50</ele>
        <time>2016-10-22T06:01:27Z</time>
      </trkpt>
      <trkpt lat="42.503099000" lon="-2.522684000">
        <ele>380.40</ele>
        <time>2016-10-22T06:01:28Z</time>
      </trkpt>
      <trkpt lat="42.503112000" lon="-2.522736000">
        <ele>380.30</ele>
        <time>2016-10-22T06:01:29Z</time>
      </trkpt>
      <trkpt lat="42.503125000" lon="-2.522793000">
        <ele>380.20</ele>
        <time>2016-10-22T06:01:30Z</time>
      </trkpt>
      <trkpt lat="42.503136000" lon="-2.522853000">
        <ele>380.20</ele>
        <time>2016-10-22T06:01:31Z</time>
      </trkpt>
      <trkpt lat="42.503153000" lon="-2.522912000">
        <ele>380.30</ele>
        <time>2016-10-22T06:01:32Z</time>
      </trkpt>
      <trkpt lat="42.503167000" lon="-2.522970000">
        <ele>380.40</ele>
        <time>2016-10-22T06:01:33Z</time>
      </trkpt>
      <trkpt lat="42.503175000" lon="-2.523028000">
        <ele>380.40</ele>
        <time>2016-10-22T06:01:34Z</time>
      </trkpt>
      <trkpt lat="42.503185000" lon="-2.523083000">
        <ele>380.40</ele>
        <time>2016-10-22T06:01:35Z</time>
      </trkpt>
      <trkpt lat="42.503189000" lon="-2.523135000">
        <ele>380.40</ele>
        <time>2016-10-22T06:01:36Z</time>
      </trkpt>
      <trkpt lat="42.503194000" lon="-2.523185000">
        <ele>380.30</ele>
        <time>2016-10-22T06:01:37Z</time>
      </trkpt>
      <trkpt lat="42.503191000" lon="-2.523234000">
        <ele>380.20</ele>
        <time>2016-10-22T06:01:38Z</time>
      </trkpt>
      <trkpt lat="42.503192000" lon="-2.523279000">
        <ele>380.10</ele>
        <time>2016-10-22T06:01:39Z</time>
      </trkpt>
      <trkpt lat="42.503190000" lon="-2.523318000">
        <ele>380.10</ele>
        <time>2016-10-22T06:01:40Z</time>
      </trkpt>
      <trkpt lat="42.503194000" lon="-2.523356000">
        <ele>380.10</ele>
        <time>2016-10-22T06:01:41Z</time>
      </trkpt>
      <trkpt lat="42.503197000" lon="-2.523398000">
        <ele>380.40</ele>
        <time>2016-10-22T06:01:42Z</time>
      </trkpt>
      <trkpt lat="42.503198000" lon="-2.523436000">
        <ele>380.50</ele>
        <time>2016-10-22T06:01:43Z</time>
      </trkpt>
      <trkpt lat="42.503189000" lon="-2.523470000">
        <ele>380.70</ele>
        <time>2016-10-22T06:01:44Z</time>
      </trkpt>
      <trkpt lat="42.503178000" lon="-2.523505000">
        <ele>380.80</ele>
        <time>2016-10-22T06:01:45Z</time>
      </trkpt>
      <trkpt lat="42.503163000" lon="-2.523539000">
        <ele>380.70</ele>
        <time>2016-10-22T06:01:46Z</time>
      </trkpt>
      <trkpt lat="42.503150000" lon="-2.523576000">
        <ele>380.60</ele>
        <time>2016-10-22T06:01:47Z</time>
      </trkpt>
      <trkpt lat="42.503137000" lon="-2.523612000">
        <ele>380.60</ele>
        <time>2016-10-22T06:01:48Z</time>
      </trkpt>
      <trkpt lat="42.503120000" lon="-2.523642000">
        <ele>380.50</ele>
        <time>2016-10-22T06:01:49Z</time>
      </trkpt>
      <trkpt lat="42.503107000" lon="-2.523666000">
        <ele>380.40</ele>
        <time>2016-10-22T06:01:50Z</time>
      </trkpt>
      <trkpt lat="42.503090000" lon="-2.523690000">
        <ele>380.20</ele>
        <time>2016-10-22T06:01:51Z</time>
      </trkpt>
      <trkpt lat="42.503072000" lon="-2.523712000">
        <ele>380.30</ele>
        <time>2016-10-22T06:01:52Z</time>
      </trkpt>
      <trkpt lat="42.503059000" lon="-2.523733000">
        <ele>380.30</ele>
        <time>2016-10-22T06:01:53Z</time>
      </trkpt>
      <trkpt lat="42.503049000" lon="-2.523762000">
        <ele>380.50</ele>
        <time>2016-10-22T06:01:54Z</time>
      </trkpt>
      <trkpt lat="42.503040000" lon="-2.523794000">
        <ele>380.60</ele>
        <time>2016-10-22T06:01:55Z</time>
      </trkpt>
      <trkpt lat="42.503023000" lon="-2.523825000">
        <ele>380.80</ele>
        <time>2016-10-22T06:01:56Z</time>
      </trkpt>
      <trkpt lat="42.503007000" lon="-2.523855000">
        <ele>380.80</ele>
        <time>2016-10-22T06:01:57Z</time>
      </trkpt>
      <trkpt lat="42.502988000" lon="-2.523881000">
        <ele>380.80</ele>
        <time>2016-10-22T06:01:58Z</time>
      </trkpt>
      <trkpt lat="42.502972000" lon="-2.523908000">
        <ele>380.80</ele>
        <time>2016-10-22T06:01:59Z</time>
      </trkpt>
      <trkpt lat="42.502957000" lon="-2.523940000">
        <ele>380.60</ele>
        <time>2016-10-22T06:02:00Z</time>
      </trkpt>
      <trkpt lat="42.502941000" lon="-2.523976000">
        <ele>380.50</ele>
        <time>2016-10-22T06:02:01Z</time>
      </trkpt>
      <trkpt lat="42.502922000" lon="-2.524002000">
        <ele>380.40</ele>
        <time>2016-10-22T06:02:02Z</time>
      </trkpt>
      <trkpt lat="42.502905000" lon="-2.524031000">
        <ele>380.30</ele>
        <time>2016-10-22T06:02:03Z</time>
      </trkpt>
      <trkpt lat="42.502888000" lon="-2.524063000">
        <ele>380.30</ele>
        <time>2016-10-22T06:02:04Z</time>
      </trkpt>
      <trkpt lat="42.502873000" lon="-2.524092000">
        <ele>380.20</ele>
        <time>2016-10-22T06:02:05Z</time>
      </trkpt>
      <trkpt lat="42.502858000" lon="-2.524112000">
        <ele>380.10</ele>
        <time>2016-10-22T06:02:06Z</time>
      </trkpt>
      <trkpt lat="42.502845000" lon="-2.524141000">
        <ele>380.00</ele>
        <time>2016-10-22T06:02:07Z</time>
      </trkpt>
      <trkpt lat="42.502838000" lon="-2.524175000">
        <ele>379.90</ele>
        <time>2016-10-22T06:02:08Z</time>
      </trkpt>
      <trkpt lat="42.502833000" lon="-2.524212000">
        <ele>379.90</ele>
        <time>2016-10-22T06:02:09Z</time>
      </trkpt>
      <trkpt lat="42.502828000" lon="-2.524241000">
        <ele>379.80</ele>
        <time>2016-10-22T06:02:10Z</time>
      </trkpt>
      <trkpt lat="42.502811000" lon="-2.524269000">
        <ele>379.80</ele>
        <time>2016-10-22T06:02:11Z</time>
      </trkpt>
      <trkpt lat="42.502791000" lon="-2.524298000">
        <ele>379.90</ele>
        <time>2016-10-22T06:02:12Z</time>
      </trkpt>
      <trkpt lat="42.502764000" lon="-2.524327000">
        <ele>380.10</ele>
        <time>2016-10-22T06:02:13Z</time>
      </trkpt>
      <trkpt lat="42.502743000" lon="-2.524369000">
        <ele>380.10</ele>
        <time>2016-10-22T06:02:14Z</time>
      </trkpt>
      <trkpt lat="42.502724000" lon="-2.524414000">
        <ele>380.20</ele>
        <time>2016-10-22T06:02:15Z</time>
      </trkpt>
      <trkpt lat="42.502701000" lon="-2.524461000">
        <ele>380.30</ele>
        <time>2016-10-22T06:02:16Z</time>
      </trkpt>
      <trkpt lat="42.502675000" lon="-2.524504000">
        <ele>380.30</ele>
        <time>2016-10-22T06:02:17Z</time>
      </trkpt>
      <trkpt lat="42.502643000" lon="-2.524542000">
        <ele>380.10</ele>
        <time>2016-10-22T06:02:18Z</time>
      </trkpt>
      <trkpt lat="42.502609000" lon="-2.524572000">
        <ele>380.00</ele>
        <time>2016-10-22T06:02:19Z</time>
      </trkpt>
      <trkpt lat="42.502576000" lon="-2.524601000">
        <ele>380.00</ele>
        <time>2016-10-22T06:02:20Z</time>
      </trkpt>
      <trkpt lat="42.502528000" lon="-2.524675000">
        <ele>380.10</ele>
        <time>2016-10-22T06:02:22Z</time>
      </trkpt>
      <trkpt lat="42.502506000" lon="-2.524717000">
        <ele>380.10</ele>
        <time>2016-10-22T06:02:23Z</time>
      </trkpt>
      <trkpt lat="42.502480000" lon="-2.524763000">
        <ele>380.10</ele>
        <time>2016-10-22T06:02:24Z</time>
      </trkpt>
      <trkpt lat="42.502461000" lon="-2.524806000">
        <ele>380.10</ele>
        <time>2016-10-22T06:02:25Z</time>
      </trkpt>
      <trkpt lat="42.502438000" lon="-2.524845000">
        <ele>380.10</ele>
        <time>2016-10-22T06:02:26Z</time>
      </trkpt>
      <trkpt lat="42.502417000" lon="-2.524883000">
        <ele>380.10</ele>
        <time>2016-10-22T06:02:27Z</time>
      </trkpt>
      <trkpt lat="42.502402000" lon="-2.524923000">
        <ele>380.10</ele>
        <time>2016-10-22T06:02:28Z</time>
      </trkpt>
      <trkpt lat="42.502393000" lon="-2.524951000">
        <ele>380.10</ele>
        <time>2016-10-22T06:02:29Z</time>
      </trkpt>
      <trkpt lat="42.502366000" lon="-2.524984000">
        <ele>380.10</ele>
        <time>2016-10-22T06:02:30Z</time>
      </trkpt>
      <trkpt lat="42.502332000" lon="-2.525020000">
        <ele>380.00</ele>
        <time>2016-10-22T06:02:31Z</time>
      </trkpt>
      <trkpt lat="42.502297000" lon="-2.525055000">
        <ele>380.00</ele>
        <time>2016-10-22T06:02:32Z</time>
      </trkpt>
      <trkpt lat="42.502265000" lon="-2.525091000">
        <ele>380.00</ele>
        <time>2016-10-22T06:02:33Z</time>
      </trkpt>
      <trkpt lat="42.502233000" lon="-2.525134000">
        <ele>380.00</ele>
        <time>2016-10-22T06:02:34Z</time>
      </trkpt>
      <trkpt lat="42.502196000" lon="-2.525175000">
        <ele>380.00</ele>
        <time>2016-10-22T06:02:35Z</time>
      </trkpt>
      <trkpt lat="42.502159000" lon="-2.525218000">
        <ele>380.10</ele>
        <time>2016-10-22T06:02:36Z</time>
      </trkpt>
      <trkpt lat="42.502131000" lon="-2.525267000">
        <ele>380.10</ele>
        <time>2016-10-22T06:02:37Z</time>
      </trkpt>
      <trkpt lat="42.502103000" lon="-2.525318000">
        <ele>380.20</ele>
        <time>2016-10-22T06:02:38Z</time>
      </trkpt>
      <trkpt lat="42.502080000" lon="-2.525353000">
        <ele>380.20</ele>
        <time>2016-10-22T06:02:39Z</time>
      </trkpt>
      <trkpt lat="42.502053000" lon="-2.525388000">
        <ele>380.30</ele>
        <time>2016-10-22T06:02:40Z</time>
      </trkpt>
      <trkpt lat="42.502029000" lon="-2.525420000">
        <ele>380.30</ele>
        <time>2016-10-22T06:02:41Z</time>
      </trkpt>
      <trkpt lat="42.502005000" lon="-2.525451000">
        <ele>380.30</ele>
        <time>2016-10-22T06:02:42Z</time>
      </trkpt>
      <trkpt lat="42.501989000" lon="-2.525480000">
        <ele>380.30</ele>
        <time>2016-10-22T06:02:43Z</time>
      </trkpt>
      <trkpt lat="42.501973000" lon="-2.525507000">
        <ele>380.30</ele>
        <time>2016-10-22T06:02:44Z</time>
      </trkpt>
      <trkpt lat="42.501960000" lon="-2.525530000">
        <ele>380.40</ele>
        <time>2016-10-22T06:02:45Z</time>
      </trkpt>
      <trkpt lat="42.501944000" lon="-2.525552000">
        <ele>380.40</ele>
        <time>2016-10-22T06:02:46Z</time>
      </trkpt>
      <trkpt lat="42.501931000" lon="-2.525572000">
        <ele>380.40</ele>
        <time>2016-10-22T06:02:47Z</time>
      </trkpt>
      <trkpt lat="42.501918000" lon="-2.525581000">
        <ele>380.40</ele>
        <time>2016-10-22T06:02:48Z</time>
      </trkpt>
      <trkpt lat="42.501908000" lon="-2.525586000">
        <ele>380.40</ele>
        <time>2016-10-22T06:02:49Z</time>
      </trkpt>
      <trkpt lat="42.501901000" lon="-2.525592000">
        <ele>380.40</ele>
        <time>2016-10-22T06:02:50Z</time>
      </trkpt>
      <trkpt lat="42.501895000" lon="-2.525600000">
        <ele>380.40</ele>
        <time>2016-10-22T06:02:51Z</time>
      </trkpt>
      <trkpt lat="42.501891000" lon="-2.525606000">
        <ele>380.40</ele>
        <time>2016-10-22T06:02:52Z</time>
      </trkpt>
      <trkpt lat="42.501891000" lon="-2.525606000">
        <ele>380.40</ele>
        <time>2016-10-22T06:02:53Z</time>
      </trkpt>
      <trkpt lat="42.501891000" lon="-2.525606000">
        <ele>380.50</ele>
        <time>2016-10-22T06:02:54Z</time>
      </trkpt>
      <trkpt lat="42.501891000" lon="-2.525606000">
        <ele>380.50</ele>
        <time>2016-10-22T06:02:55Z</time>
      </trkpt>
      <trkpt lat="42.501891000" lon="-2.525606000">
        <ele>380.50</ele>
        <time>2016-10-22T06:02:56Z</time>
      </trkpt>
      <trkpt lat="42.501891000" lon="-2.525606000">
        <ele>380.50</ele>
        <time>2016-10-22T06:02:57Z</time>
      </trkpt>
      <trkpt lat="42.501891000" lon="-2.525606000">
        <ele>380.50</ele>
        <time>2016-10-22T06:02:58Z</time>
      </trkpt>
      <trkpt lat="42.501891000" lon="-2.525606000">
        <ele>380.50</ele>
        <time>2016-10-22T06:02:59Z</time>
      </trkpt>
      <trkpt lat="42.501891000" lon="-2.525606000">
        <ele>380.50</ele>
        <time>2016-10-22T06:03:00Z</time>
      </trkpt>
      <trkpt lat="42.501891000" lon="-2.525606000">
        <ele>380.50</ele>
        <time>2016-10-22T06:03:01Z</time>
      </trkpt>
      <trkpt lat="42.501891000" lon="-2.525606000">
        <ele>380.50</ele>
        <time>2016-10-22T06:03:02Z</time>
      </trkpt>
      <trkpt lat="42.501891000" lon="-2.525606000">
        <ele>380.50</ele>
        <time>2016-10-22T06:03:03Z</time>
      </trkpt>
      <trkpt lat="42.501891000" lon="-2.525606000">
        <ele>380.40</ele>
        <time>2016-10-22T06:03:04Z</time>
      </trkpt>
      <trkpt lat="42.501891000" lon="-2.525606000">
        <ele>380.40</ele>
        <time>2016-10-22T06:03:05Z</time>
      </trkpt>
      <trkpt lat="42.501891000" lon="-2.525606000">
        <ele>380.30</ele>
        <time>2016-10-22T06:03:06Z</time>
      </trkpt>
      <trkpt lat="42.501891000" lon="-2.525606000">
        <ele>380.20</ele>
        <time>2016-10-22T06:03:07Z</time>
      </trkpt>
      <trkpt lat="42.501891000" lon="-2.525606000">
        <ele>380.10</ele>
        <time>2016-10-22T06:03:08Z</time>
      </trkpt>
      <trkpt lat="42.501891000" lon="-2.525606000">
        <ele>380.10</ele>
        <time>2016-10-22T06:03:09Z</time>
      </trkpt>
      <trkpt lat="42.501891000" lon="-2.525606000">
        <ele>380.10</ele>
        <time>2016-10-22T06:03:10Z</time>
      </trkpt>
      <trkpt lat="42.501891000" lon="-2.525606000">
        <ele>380.00</ele>
        <time>2016-10-22T06:03:11Z</time>
      </trkpt>
      <trkpt lat="42.501891000" lon="-2.525606000">
        <ele>380.10</ele>
        <time>2016-10-22T06:03:12Z</time>
      </trkpt>
      <trkpt lat="42.501891000" lon="-2.525606000">
        <ele>380.10</ele>
        <time>2016-10-22T06:03:13Z</time>
      </trkpt>
      <trkpt lat="42.501891000" lon="-2.525606000">
        <ele>380.10</ele>
        <time>2016-10-22T06:03:14Z</time>
      </trkpt>
      <trkpt lat="42.501891000" lon="-2.525606000">
        <ele>380.20</ele>
        <time>2016-10-22T06:03:15Z</time>
      </trkpt>
      <trkpt lat="42.501891000" lon="-2.525606000">
        <ele>380.20</ele>
        <time>2016-10-22T06:03:16Z</time>
      </trkpt>
      <trkpt lat="42.501891000" lon="-2.525606000">
        <ele>380.20</ele>
        <time>2016-10-22T06:03:17Z</time>
      </trkpt>
      <trkpt lat="42.501891000" lon="-2.525606000">
        <ele>380.20</ele>
        <time>2016-10-22T06:03:18Z</time>
      </trkpt>
      <trkpt lat="42.501891000" lon="-2.525606000">
        <ele>380.20</ele>
        <time>2016-10-22T06:03:19Z</time>
      </trkpt>
      <trkpt lat="42.501891000" lon="-2.525606000">
        <ele>380.20</ele>
        <time>2016-10-22T06:03:20Z</time>
      </trkpt>
      <trkpt lat="42.501891000" lon="-2.525606000">
        <ele>380.20</ele>
        <time>2016-10-22T06:03:21Z</time>
      </trkpt>
      <trkpt lat="42.501891000" lon="-2.525606000">
        <ele>380.20</ele>
        <time>2016-10-22T06:03:22Z</time>
      </trkpt>
      <trkpt lat="42.501891000" lon="-2.525606000">
        <ele>380.20</ele>
        <time>2016-10-22T06:03:24Z</time>
      </trkpt>
      <trkpt lat="42.501881000" lon="-2.525626000">
        <ele>380.20</ele>
        <time>2016-10-22T06:03:25Z</time>
      </trkpt>
      <trkpt lat="42.501866000" lon="-2.525652000">
        <ele>380.20</ele>
        <time>2016-10-22T06:03:26Z</time>
      </trkpt>
      <trkpt lat="42.501848000" lon="-2.525676000">
        <ele>380.20</ele>
        <time>2016-10-22T06:03:27Z</time>
      </trkpt>
      <trkpt lat="42.501829000" lon="-2.525705000">
        <ele>380.40</ele>
        <time>2016-10-22T06:03:28Z</time>
      </trkpt>
      <trkpt lat="42.501810000" lon="-2.525735000">
        <ele>380.50</ele>
        <time>2016-10-22T06:03:29Z</time>
      </trkpt>
      <trkpt lat="42.501788000" lon="-2.525768000">
        <ele>380.60</ele>
        <time>2016-10-22T06:03:30Z</time>
      </trkpt>
      <trkpt lat="42.501763000" lon="-2.525803000">
        <ele>380.70</ele>
        <time>2016-10-22T06:03:31Z</time>
      </trkpt>
      <trkpt lat="42.501740000" lon="-2.525835000">
        <ele>380.60</ele>
        <time>2016-10-22T06:03:32Z</time>
      </trkpt>
      <trkpt lat="42.501712000" lon="-2.525864000">
        <ele>380.50</ele>
        <time>2016-10-22T06:03:33Z</time>
      </trkpt>
      <trkpt lat="42.501684000" lon="-2.525895000">
        <ele>380.40</ele>
        <time>2016-10-22T06:03:34Z</time>
      </trkpt>
      <trkpt lat="42.501660000" lon="-2.525925000">
        <ele>380.40</ele>
        <time>2016-10-22T06:03:35Z</time>
      </trkpt>
      <trkpt lat="42.501633000" lon="-2.525956000">
        <ele>380.50</ele>
        <time>2016-10-22T06:03:36Z</time>
      </trkpt>
      <trkpt lat="42.501609000" lon="-2.525984000">
        <ele>380.60</ele>
        <time>2016-10-22T06:03:37Z</time>
      </trkpt>
      <trkpt lat="42.501584000" lon="-2.526014000">
        <ele>380.70</ele>
        <time>2016-10-22T06:03:38Z</time>
      </trkpt>
      <trkpt lat="42.501564000" lon="-2.526046000">
        <ele>380.70</ele>
        <time>2016-10-22T06:03:39Z</time>
      </trkpt>
      <trkpt lat="42.501541000" lon="-2.526075000">
        <ele>380.80</ele>
        <time>2016-10-22T06:03:40Z</time>
      </trkpt>
      <trkpt lat="42.501516000" lon="-2.526103000">
        <ele>380.80</ele>
        <time>2016-10-22T06:03:41Z</time>
      </trkpt>
      <trkpt lat="42.501491000" lon="-2.526130000">
        <ele>380.70</ele>
        <time>2016-10-22T06:03:42Z</time>
      </trkpt>
      <trkpt lat="42.501466000" lon="-2.526159000">
        <ele>380.60</ele>
        <time>2016-10-22T06:03:43Z</time>
      </trkpt>
      <trkpt lat="42.501447000" lon="-2.526188000">
        <ele>380.50</ele>
        <time>2016-10-22T06:03:44Z</time>
      </trkpt>
      <trkpt lat="42.501430000" lon="-2.526210000">
        <ele>380.40</ele>
        <time>2016-10-22T06:03:45Z</time>
      </trkpt>
      <trkpt lat="42.501417000" lon="-2.526236000">
        <ele>380.40</ele>
        <time>2016-10-22T06:03:46Z</time>
      </trkpt>
      <trkpt lat="42.501401000" lon="-2.526255000">
        <ele>380.30</ele>
        <time>2016-10-22T06:03:47Z</time>
      </trkpt>
      <trkpt lat="42.501378000" lon="-2.526275000">
        <ele>380.20</ele>
        <time>2016-10-22T06:03:48Z</time>
      </trkpt>
      <trkpt lat="42.501355000" lon="-2.526293000">
        <ele>380.20</ele>
        <time>2016-10-22T06:03:49Z</time>
      </trkpt>
      <trkpt lat="42.501332000" lon="-2.526317000">
        <ele>380.10</ele>
        <time>2016-10-22T06:03:50Z</time>
      </trkpt>
      <trkpt lat="42.501309000" lon="-2.526346000">
        <ele>380.10</ele>
        <time>2016-10-22T06:03:51Z</time>
      </trkpt>
      <trkpt lat="42.501281000" lon="-2.526380000">
        <ele>380.00</ele>
        <time>2016-10-22T06:03:52Z</time>
      </trkpt>
      <trkpt lat="42.501258000" lon="-2.526420000">
        <ele>380.00</ele>
        <time>2016-10-22T06:03:53Z</time>
      </trkpt>
      <trkpt lat="42.501237000" lon="-2.526458000">
        <ele>380.10</ele>
        <time>2016-10-22T06:03:54Z</time>
      </trkpt>
      <trkpt lat="42.501216000" lon="-2.526489000">
        <ele>380.10</ele>
        <time>2016-10-22T06:03:55Z</time>
      </trkpt>
      <trkpt lat="42.501197000" lon="-2.526517000">
        <ele>380.10</ele>
        <time>2016-10-22T06:03:56Z</time>
      </trkpt>
      <trkpt lat="42.501176000" lon="-2.526542000">
        <ele>380.20</ele>
        <time>2016-10-22T06:03:57Z</time>
      </trkpt>
      <trkpt lat="42.501156000" lon="-2.526572000">
        <ele>380.20</ele>
        <time>2016-10-22T06:03:58Z</time>
      </trkpt>
      <trkpt lat="42.501136000" lon="-2.526603000">
        <ele>380.20</ele>
        <time>2016-10-22T06:03:59Z</time>
      </trkpt>
      <trkpt lat="42.501117000" lon="-2.526633000">
        <ele>380.30</ele>
        <time>2016-10-22T06:04:00Z</time>
      </trkpt>
      <trkpt lat="42.501094000" lon="-2.526668000">
        <ele>380.30</ele>
        <time>2016-10-22T06:04:01Z</time>
      </trkpt>
      <trkpt lat="42.501072000" lon="-2.526705000">
        <ele>380.30</ele>
        <time>2016-10-22T06:04:02Z</time>
      </trkpt>
      <trkpt lat="42.501048000" lon="-2.526744000">
        <ele>380.30</ele>
        <time>2016-10-22T06:04:03Z</time>
      </trkpt>
      <trkpt lat="42.501025000" lon="-2.526781000">
        <ele>380.40</ele>
        <time>2016-10-22T06:04:04Z</time>
      </trkpt>
      <trkpt lat="42.501002000" lon="-2.526817000">
        <ele>380.30</ele>
        <time>2016-10-22T06:04:05Z</time>
      </trkpt>
      <trkpt lat="42.500979000" lon="-2.526852000">
        <ele>380.30</ele>
        <time>2016-10-22T06:04:06Z</time>
      </trkpt>
      <trkpt lat="42.500953000" lon="-2.526889000">
        <ele>380.30</ele>
        <time>2016-10-22T06:04:07Z</time>
      </trkpt>
      <trkpt lat="42.500928000" lon="-2.526922000">
        <ele>380.40</ele>
        <time>2016-10-22T06:04:08Z</time>
      </trkpt>
      <trkpt lat="42.500903000" lon="-2.526960000">
        <ele>380.40</ele>
        <time>2016-10-22T06:04:09Z</time>
      </trkpt>
      <trkpt lat="42.500880000" lon="-2.526993000">
        <ele>380.40</ele>
        <time>2016-10-22T06:04:10Z</time>
      </trkpt>
      <trkpt lat="42.500854000" lon="-2.527027000">
        <ele>380.40</ele>
        <time>2016-10-22T06:04:11Z</time>
      </trkpt>
      <trkpt lat="42.500833000" lon="-2.527062000">
        <ele>380.40</ele>
        <time>2016-10-22T06:04:12Z</time>
      </trkpt>
      <trkpt lat="42.500808000" lon="-2.527096000">
        <ele>380.50</ele>
        <time>2016-10-22T06:04:13Z</time>
      </trkpt>
      <trkpt lat="42.500784000" lon="-2.527137000">
        <ele>380.50</ele>
        <time>2016-10-22T06:04:14Z</time>
      </trkpt>
      <trkpt lat="42.500758000" lon="-2.527177000">
        <ele>380.50</ele>
        <time>2016-10-22T06:04:15Z</time>
      </trkpt>
      <trkpt lat="42.500736000" lon="-2.527218000">
        <ele>380.50</ele>
        <time>2016-10-22T06:04:16Z</time>
      </trkpt>
      <trkpt lat="42.500715000" lon="-2.527255000">
        <ele>380.50</ele>
        <time>2016-10-22T06:04:17Z</time>
      </trkpt>
      <trkpt lat="42.500691000" lon="-2.527294000">
        <ele>380.50</ele>
        <time>2016-10-22T06:04:18Z</time>
      </trkpt>
      <trkpt lat="42.500668000" lon="-2.527331000">
        <ele>380.60</ele>
        <time>2016-10-22T06:04:19Z</time>
      </trkpt>
      <trkpt lat="42.500642000" lon="-2.527368000">
        <ele>380.80</ele>
        <time>2016-10-22T06:04:20Z</time>
      </trkpt>
      <trkpt lat="42.500619000" lon="-2.527401000">
        <ele>380.90</ele>
        <time>2016-10-22T06:04:21Z</time>
      </trkpt>
      <trkpt lat="42.500596000" lon="-2.527437000">
        <ele>381.00</ele>
        <time>2016-10-22T06:04:22Z</time>
      </trkpt>
      <trkpt lat="42.500570000" lon="-2.527473000">
        <ele>380.90</ele>
        <time>2016-10-22T06:04:23Z</time>
      </trkpt>
      <trkpt lat="42.500518000" lon="-2.527542000">
        <ele>380.90</ele>
        <time>2016-10-22T06:04:25Z</time>
      </trkpt>
      <trkpt lat="42.500490000" lon="-2.527579000">
        <ele>380.90</ele>
        <time>2016-10-22T06:04:26Z</time>
      </trkpt>
      <trkpt lat="42.500468000" lon="-2.527616000">
        <ele>380.90</ele>
        <time>2016-10-22T06:04:27Z</time>
      </trkpt>
      <trkpt lat="42.500445000" lon="-2.527657000">
        <ele>380.90</ele>
        <time>2016-10-22T06:04:28Z</time>
      </trkpt>
      <trkpt lat="42.500425000" lon="-2.527696000">
        <ele>381.00</ele>
        <time>2016-10-22T06:04:29Z</time>
      </trkpt>
      <trkpt lat="42.500407000" lon="-2.527736000">
        <ele>381.00</ele>
        <time>2016-10-22T06:04:30Z</time>
      </trkpt>
      <trkpt lat="42.500386000" lon="-2.527778000">
        <ele>381.00</ele>
        <time>2016-10-22T06:04:31Z</time>
      </trkpt>
      <trkpt lat="42.500366000" lon="-2.527820000">
        <ele>381.00</ele>
        <time>2016-10-22T06:04:32Z</time>
      </trkpt>
      <trkpt lat="42.500346000" lon="-2.527863000">
        <ele>381.00</ele>
        <time>2016-10-22T06:04:33Z</time>
      </trkpt>
      <trkpt lat="42.500325000" lon="-2.527905000">
        <ele>381.10</ele>
        <time>2016-10-22T06:04:34Z</time>
      </trkpt>
      <trkpt lat="42.500305000" lon="-2.527948000">
        <ele>381.10</ele>
        <time>2016-10-22T06:04:35Z</time>
      </trkpt>
      <trkpt lat="42.500286000" lon="-2.527989000">
        <ele>381.10</ele>
        <time>2016-10-22T06:04:36Z</time>
      </trkpt>
      <trkpt lat="42.500262000" lon="-2.528033000">
        <ele>381.10</ele>
        <time>2016-10-22T06:04:37Z</time>
      </trkpt>
      <trkpt lat="42.500240000" lon="-2.528080000">
        <ele>381.10</ele>
        <time>2016-10-22T06:04:38Z</time>
      </trkpt>
      <trkpt lat="42.500217000" lon="-2.528124000">
        <ele>381.20</ele>
        <time>2016-10-22T06:04:39Z</time>
      </trkpt>
      <trkpt lat="42.500197000" lon="-2.528162000">
        <ele>381.30</ele>
        <time>2016-10-22T06:04:40Z</time>
      </trkpt>
      <trkpt lat="42.500174000" lon="-2.528202000">
        <ele>381.20</ele>
        <time>2016-10-22T06:04:41Z</time>
      </trkpt>
      <trkpt lat="42.500149000" lon="-2.528245000">
        <ele>381.10</ele>
        <time>2016-10-22T06:04:42Z</time>
      </trkpt>
      <trkpt lat="42.500125000" lon="-2.528288000">
        <ele>381.00</ele>
        <time>2016-10-22T06:04:43Z</time>
      </trkpt>
      <trkpt lat="42.500105000" lon="-2.528332000">
        <ele>380.80</ele>
        <time>2016-10-22T06:04:44Z</time>
      </trkpt>
      <trkpt lat="42.500088000" lon="-2.528379000">
        <ele>380.70</ele>
        <time>2016-10-22T06:04:45Z</time>
      </trkpt>
      <trkpt lat="42.500068000" lon="-2.528423000">
        <ele>380.70</ele>
        <time>2016-10-22T06:04:46Z</time>
      </trkpt>
      <trkpt lat="42.500047000" lon="-2.528466000">
        <ele>380.60</ele>
        <time>2016-10-22T06:04:47Z</time>
      </trkpt>
      <trkpt lat="42.500026000" lon="-2.528511000">
        <ele>380.60</ele>
        <time>2016-10-22T06:04:48Z</time>
      </trkpt>
      <trkpt lat="42.500001000" lon="-2.528556000">
        <ele>380.60</ele>
        <time>2016-10-22T06:04:49Z</time>
      </trkpt>
      <trkpt lat="42.499978000" lon="-2.528601000">
        <ele>380.50</ele>
        <time>2016-10-22T06:04:50Z</time>
      </trkpt>
      <trkpt lat="42.499955000" lon="-2.528643000">
        <ele>380.80</ele>
        <time>2016-10-22T06:04:51Z</time>
      </trkpt>
      <trkpt lat="42.499934000" lon="-2.528688000">
        <ele>380.90</ele>
        <time>2016-10-22T06:04:52Z</time>
      </trkpt>
      <trkpt lat="42.499915000" lon="-2.528734000">
        <ele>381.10</ele>
        <time>2016-10-22T06:04:53Z</time>
      </trkpt>
      <trkpt lat="42.499896000" lon="-2.528778000">
        <ele>381.20</ele>
        <time>2016-10-22T06:04:54Z</time>
      </trkpt>
      <trkpt lat="42.499874000" lon="-2.528820000">
        <ele>381.20</ele>
        <time>2016-10-22T06:04:55Z</time>
      </trkpt>
      <trkpt lat="42.499851000" lon="-2.528859000">
        <ele>381.30</ele>
        <time>2016-10-22T06:04:56Z</time>
      </trkpt>
      <trkpt lat="42.499822000" lon="-2.528887000">
        <ele>381.30</ele>
        <time>2016-10-22T06:04:57Z</time>
      </trkpt>
      <trkpt lat="42.499798000" lon="-2.528918000">
        <ele>381.30</ele>
        <time>2016-10-22T06:04:58Z</time>
      </trkpt>
      <trkpt lat="42.499779000" lon="-2.528950000">
        <ele>381.40</ele>
        <time>2016-10-22T06:04:59Z</time>
      </trkpt>
      <trkpt lat="42.499764000" lon="-2.528989000">
        <ele>381.40</ele>
        <time>2016-10-22T06:05:00Z</time>
      </trkpt>
      <trkpt lat="42.499750000" lon="-2.529038000">
        <ele>381.30</ele>
        <time>2016-10-22T06:05:01Z</time>
      </trkpt>
      <trkpt lat="42.499735000" lon="-2.529089000">
        <ele>381.30</ele>
        <time>2016-10-22T06:05:02Z</time>
      </trkpt>
      <trkpt lat="42.499718000" lon="-2.529139000">
        <ele>381.30</ele>
        <time>2016-10-22T06:05:03Z</time>
      </trkpt>
      <trkpt lat="42.499703000" lon="-2.529190000">
        <ele>381.20</ele>
        <time>2016-10-22T06:05:04Z</time>
      </trkpt>
      <trkpt lat="42.499684000" lon="-2.529242000">
        <ele>381.20</ele>
        <time>2016-10-22T06:05:05Z</time>
      </trkpt>
      <trkpt lat="42.499666000" lon="-2.529295000">
        <ele>381.20</ele>
        <time>2016-10-22T06:05:06Z</time>
      </trkpt>
      <trkpt lat="42.499647000" lon="-2.529346000">
        <ele>381.30</ele>
        <time>2016-10-22T06:05:07Z</time>
      </trkpt>
      <trkpt lat="42.499626000" lon="-2.529396000">
        <ele>381.30</ele>
        <time>2016-10-22T06:05:08Z</time>
      </trkpt>
      <trkpt lat="42.499610000" lon="-2.529448000">
        <ele>381.50</ele>
        <time>2016-10-22T06:05:09Z</time>
      </trkpt>
      <trkpt lat="42.499592000" lon="-2.529495000">
        <ele>381.50</ele>
        <time>2016-10-22T06:05:10Z</time>
      </trkpt>
      <trkpt lat="42.499575000" lon="-2.529538000">
        <ele>381.60</ele>
        <time>2016-10-22T06:05:11Z</time>
      </trkpt>
      <trkpt lat="42.499560000" lon="-2.529580000">
        <ele>381.60</ele>
        <time>2016-10-22T06:05:12Z</time>
      </trkpt>
      <trkpt lat="42.499546000" lon="-2.529623000">
        <ele>381.70</ele>
        <time>2016-10-22T06:05:13Z</time>
      </trkpt>
      <trkpt lat="42.499525000" lon="-2.529663000">
        <ele>381.70</ele>
        <time>2016-10-22T06:05:14Z</time>
      </trkpt>
      <trkpt lat="42.499502000" lon="-2.529712000">
        <ele>381.60</ele>
        <time>2016-10-22T06:05:15Z</time>
      </trkpt>
      <trkpt lat="42.499477000" lon="-2.529754000">
        <ele>381.50</ele>
        <time>2016-10-22T06:05:16Z</time>
      </trkpt>
      <trkpt lat="42.499455000" lon="-2.529796000">
        <ele>381.40</ele>
        <time>2016-10-22T06:05:17Z</time>
      </trkpt>
      <trkpt lat="42.499432000" lon="-2.529836000">
        <ele>381.40</ele>
        <time>2016-10-22T06:05:18Z</time>
      </trkpt>
      <trkpt lat="42.499409000" lon="-2.529876000">
        <ele>381.40</ele>
        <time>2016-10-22T06:05:19Z</time>
      </trkpt>
      <trkpt lat="42.499386000" lon="-2.529914000">
        <ele>381.30</ele>
        <time>2016-10-22T06:05:20Z</time>
      </trkpt>
      <trkpt lat="42.499363000" lon="-2.529954000">
        <ele>381.40</ele>
        <time>2016-10-22T06:05:21Z</time>
      </trkpt>
      <trkpt lat="42.499342000" lon="-2.530001000">
        <ele>381.40</ele>
        <time>2016-10-22T06:05:22Z</time>
      </trkpt>
      <trkpt lat="42.499325000" lon="-2.530049000">
        <ele>381.60</ele>
        <time>2016-10-22T06:05:23Z</time>
      </trkpt>
      <trkpt lat="42.499307000" lon="-2.530095000">
        <ele>381.70</ele>
        <time>2016-10-22T06:05:24Z</time>
      </trkpt>
      <trkpt lat="42.499265000" lon="-2.530188000">
        <ele>381.80</ele>
        <time>2016-10-22T06:05:26Z</time>
      </trkpt>
      <trkpt lat="42.499239000" lon="-2.530235000">
        <ele>381.90</ele>
        <time>2016-10-22T06:05:27Z</time>
      </trkpt>
      <trkpt lat="42.499214000" lon="-2.530286000">
        <ele>381.90</ele>
        <time>2016-10-22T06:05:28Z</time>
      </trkpt>
      <trkpt lat="42.499189000" lon="-2.530330000">
        <ele>382.00</ele>
        <time>2016-10-22T06:05:29Z</time>
      </trkpt>
      <trkpt lat="42.499166000" lon="-2.530371000">
        <ele>382.00</ele>
        <time>2016-10-22T06:05:30Z</time>
      </trkpt>
      <trkpt lat="42.499143000" lon="-2.530413000">
        <ele>382.10</ele>
        <time>2016-10-22T06:05:31Z</time>
      </trkpt>
      <trkpt lat="42.499118000" lon="-2.530453000">
        <ele>382.10</ele>
        <time>2016-10-22T06:05:32Z</time>
      </trkpt>
      <trkpt lat="42.499093000" lon="-2.530492000">
        <ele>382.20</ele>
        <time>2016-10-22T06:05:33Z</time>
      </trkpt>
      <trkpt lat="42.499070000" lon="-2.530533000">
        <ele>382.20</ele>
        <time>2016-10-22T06:05:34Z</time>
      </trkpt>
      <trkpt lat="42.499045000" lon="-2.530570000">
        <ele>382.20</ele>
        <time>2016-10-22T06:05:35Z</time>
      </trkpt>
      <trkpt lat="42.499022000" lon="-2.530609000">
        <ele>382.20</ele>
        <time>2016-10-22T06:05:36Z</time>
      </trkpt>
      <trkpt lat="42.498999000" lon="-2.530645000">
        <ele>382.30</ele>
        <time>2016-10-22T06:05:37Z</time>
      </trkpt>
      <trkpt lat="42.498975000" lon="-2.530689000">
        <ele>382.30</ele>
        <time>2016-10-22T06:05:38Z</time>
      </trkpt>
      <trkpt lat="42.498953000" lon="-2.530735000">
        <ele>382.30</ele>
        <time>2016-10-22T06:05:39Z</time>
      </trkpt>
      <trkpt lat="42.498928000" lon="-2.530781000">
        <ele>382.40</ele>
        <time>2016-10-22T06:05:40Z</time>
      </trkpt>
      <trkpt lat="42.498901000" lon="-2.530830000">
        <ele>382.40</ele>
        <time>2016-10-22T06:05:41Z</time>
      </trkpt>
      <trkpt lat="42.498873000" lon="-2.530878000">
        <ele>382.50</ele>
        <time>2016-10-22T06:05:42Z</time>
      </trkpt>
      <trkpt lat="42.498842000" lon="-2.530926000">
        <ele>382.60</ele>
        <time>2016-10-22T06:05:43Z</time>
      </trkpt>
      <trkpt lat="42.498814000" lon="-2.530974000">
        <ele>382.60</ele>
        <time>2016-10-22T06:05:44Z</time>
      </trkpt>
      <trkpt lat="42.498784000" lon="-2.531024000">
        <ele>382.70</ele>
        <time>2016-10-22T06:05:45Z</time>
      </trkpt>
      <trkpt lat="42.498758000" lon="-2.531070000">
        <ele>382.70</ele>
        <time>2016-10-22T06:05:46Z</time>
      </trkpt>
      <trkpt lat="42.498734000" lon="-2.531113000">
        <ele>382.70</ele>
        <time>2016-10-22T06:05:47Z</time>
      </trkpt>
      <trkpt lat="42.498711000" lon="-2.531162000">
        <ele>382.80</ele>
        <time>2016-10-22T06:05:48Z</time>
      </trkpt>
      <trkpt lat="42.498683000" lon="-2.531212000">
        <ele>382.80</ele>
        <time>2016-10-22T06:05:49Z</time>
      </trkpt>
      <trkpt lat="42.498651000" lon="-2.531257000">
        <ele>382.80</ele>
        <time>2016-10-22T06:05:50Z</time>
      </trkpt>
      <trkpt lat="42.498615000" lon="-2.531306000">
        <ele>382.60</ele>
        <time>2016-10-22T06:05:51Z</time>
      </trkpt>
      <trkpt lat="42.498580000" lon="-2.531357000">
        <ele>382.50</ele>
        <time>2016-10-22T06:05:52Z</time>
      </trkpt>
      <trkpt lat="42.498547000" lon="-2.531403000">
        <ele>382.50</ele>
        <time>2016-10-22T06:05:53Z</time>
      </trkpt>
      <trkpt lat="42.498513000" lon="-2.531453000">
        <ele>382.50</ele>
        <time>2016-10-22T06:05:54Z</time>
      </trkpt>
      <trkpt lat="42.498479000" lon="-2.531502000">
        <ele>382.50</ele>
        <time>2016-10-22T06:05:55Z</time>
      </trkpt>
      <trkpt lat="42.498452000" lon="-2.531556000">
        <ele>382.50</ele>
        <time>2016-10-22T06:05:56Z</time>
      </trkpt>
      <trkpt lat="42.498428000" lon="-2.531612000">
        <ele>382.50</ele>
        <time>2016-10-22T06:05:57Z</time>
      </trkpt>
      <trkpt lat="42.498402000" lon="-2.531672000">
        <ele>382.50</ele>
        <time>2016-10-22T06:05:58Z</time>
      </trkpt>
      <trkpt lat="42.498374000" lon="-2.531736000">
        <ele>382.50</ele>
        <time>2016-10-22T06:05:59Z</time>
      </trkpt>
      <trkpt lat="42.498342000" lon="-2.531791000">
        <ele>382.40</ele>
        <time>2016-10-22T06:06:00Z</time>
      </trkpt>
      <trkpt lat="42.498304000" lon="-2.531841000">
        <ele>382.30</ele>
        <time>2016-10-22T06:06:01Z</time>
      </trkpt>
      <trkpt lat="42.498264000" lon="-2.531891000">
        <ele>382.30</ele>
        <time>2016-10-22T06:06:02Z</time>
      </trkpt>
      <trkpt lat="42.498228000" lon="-2.531943000">
        <ele>382.20</ele>
        <time>2016-10-22T06:06:03Z</time>
      </trkpt>
      <trkpt lat="42.498189000" lon="-2.531996000">
        <ele>382.20</ele>
        <time>2016-10-22T06:06:04Z</time>
      </trkpt>
      <trkpt lat="42.498155000" lon="-2.532051000">
        <ele>382.10</ele>
        <time>2016-10-22T06:06:05Z</time>
      </trkpt>
      <trkpt lat="42.498122000" lon="-2.532107000">
        <ele>382.00</ele>
        <time>2016-10-22T06:06:06Z</time>
      </trkpt>
      <trkpt lat="42.498092000" lon="-2.532168000">
        <ele>382.00</ele>
        <time>2016-10-22T06:06:07Z</time>
      </trkpt>
      <trkpt lat="42.498064000" lon="-2.532226000">
        <ele>382.00</ele>
        <time>2016-10-22T06:06:08Z</time>
      </trkpt>
      <trkpt lat="42.498038000" lon="-2.532283000">
        <ele>382.10</ele>
        <time>2016-10-22T06:06:09Z</time>
      </trkpt>
      <trkpt lat="42.498014000" lon="-2.532338000">
        <ele>382.10</ele>
        <time>2016-10-22T06:06:10Z</time>
      </trkpt>
      <trkpt lat="42.497990000" lon="-2.532392000">
        <ele>382.20</ele>
        <time>2016-10-22T06:06:11Z</time>
      </trkpt>
      <trkpt lat="42.497965000" lon="-2.532447000">
        <ele>382.30</ele>
        <time>2016-10-22T06:06:12Z</time>
      </trkpt>
      <trkpt lat="42.497939000" lon="-2.532502000">
        <ele>382.40</ele>
        <time>2016-10-22T06:06:13Z</time>
      </trkpt>
      <trkpt lat="42.497907000" lon="-2.532551000">
        <ele>382.40</ele>
        <time>2016-10-22T06:06:14Z</time>
      </trkpt>
      <trkpt lat="42.497879000" lon="-2.532601000">
        <ele>382.50</ele>
        <time>2016-10-22T06:06:15Z</time>
      </trkpt>
      <trkpt lat="42.497847000" lon="-2.532650000">
        <ele>382.50</ele>
        <time>2016-10-22T06:06:16Z</time>
      </trkpt>
      <trkpt lat="42.497822000" lon="-2.532700000">
        <ele>382.50</ele>
        <time>2016-10-22T06:06:17Z</time>
      </trkpt>
      <trkpt lat="42.497797000" lon="-2.532743000">
        <ele>382.40</ele>
        <time>2016-10-22T06:06:18Z</time>
      </trkpt>
      <trkpt lat="42.497770000" lon="-2.532785000">
        <ele>382.40</ele>
        <time>2016-10-22T06:06:19Z</time>
      </trkpt>
      <trkpt lat="42.497740000" lon="-2.532826000">
        <ele>382.30</ele>
        <time>2016-10-22T06:06:20Z</time>
      </trkpt>
      <trkpt lat="42.497707000" lon="-2.532866000">
        <ele>382.30</ele>
        <time>2016-10-22T06:06:21Z</time>
      </trkpt>
      <trkpt lat="42.497675000" lon="-2.532908000">
        <ele>382.20</ele>
        <time>2016-10-22T06:06:22Z</time>
      </trkpt>
      <trkpt lat="42.497644000" lon="-2.532949000">
        <ele>382.20</ele>
        <time>2016-10-22T06:06:23Z</time>
      </trkpt>
      <trkpt lat="42.497613000" lon="-2.532997000">
        <ele>382.20</ele>
        <time>2016-10-22T06:06:24Z</time>
      </trkpt>
      <trkpt lat="42.497583000" lon="-2.533047000">
        <ele>382.20</ele>
        <time>2016-10-22T06:06:25Z</time>
      </trkpt>
      <trkpt lat="42.497537000" lon="-2.533159000">
        <ele>382.20</ele>
        <time>2016-10-22T06:06:27Z</time>
      </trkpt>
      <trkpt lat="42.497513000" lon="-2.533218000">
        <ele>382.30</ele>
        <time>2016-10-22T06:06:28Z</time>
      </trkpt>
      <trkpt lat="42.497489000" lon="-2.533277000">
        <ele>382.20</ele>
        <time>2016-10-22T06:06:29Z</time>
      </trkpt>
      <trkpt lat="42.497463000" lon="-2.533338000">
        <ele>382.20</ele>
        <time>2016-10-22T06:06:30Z</time>
      </trkpt>
      <trkpt lat="42.497442000" lon="-2.533402000">
        <ele>382.10</ele>
        <time>2016-10-22T06:06:31Z</time>
      </trkpt>
      <trkpt lat="42.497422000" lon="-2.533468000">
        <ele>381.90</ele>
        <time>2016-10-22T06:06:32Z</time>
      </trkpt>
      <trkpt lat="42.497401000" lon="-2.533528000">
        <ele>381.70</ele>
        <time>2016-10-22T06:06:33Z</time>
      </trkpt>
      <trkpt lat="42.497375000" lon="-2.533586000">
        <ele>381.60</ele>
        <time>2016-10-22T06:06:34Z</time>
      </trkpt>
      <trkpt lat="42.497345000" lon="-2.533639000">
        <ele>381.60</ele>
        <time>2016-10-22T06:06:35Z</time>
      </trkpt>
      <trkpt lat="42.497315000" lon="-2.533688000">
        <ele>381.60</ele>
        <time>2016-10-22T06:06:36Z</time>
      </trkpt>
      <trkpt lat="42.497287000" lon="-2.533737000">
        <ele>381.60</ele>
        <time>2016-10-22T06:06:37Z</time>
      </trkpt>
      <trkpt lat="42.497254000" lon="-2.533786000">
        <ele>381.60</ele>
        <time>2016-10-22T06:06:38Z</time>
      </trkpt>
      <trkpt lat="42.497223000" lon="-2.533836000">
        <ele>381.60</ele>
        <time>2016-10-22T06:06:39Z</time>
      </trkpt>
      <trkpt lat="42.497191000" lon="-2.533886000">
        <ele>381.60</ele>
        <time>2016-10-22T06:06:40Z</time>
      </trkpt>
      <trkpt lat="42.497159000" lon="-2.533936000">
        <ele>381.60</ele>
        <time>2016-10-22T06:06:41Z</time>
      </trkpt>
      <trkpt lat="42.497126000" lon="-2.533986000">
        <ele>381.60</ele>
        <time>2016-10-22T06:06:42Z</time>
      </trkpt>
      <trkpt lat="42.497098000" lon="-2.534037000">
        <ele>381.60</ele>
        <time>2016-10-22T06:06:43Z</time>
      </trkpt>
      <trkpt lat="42.497074000" lon="-2.534090000">
        <ele>381.60</ele>
        <time>2016-10-22T06:06:44Z</time>
      </trkpt>
      <trkpt lat="42.497049000" lon="-2.534143000">
        <ele>381.50</ele>
        <time>2016-10-22T06:06:45Z</time>
      </trkpt>
      <trkpt lat="42.497024000" lon="-2.534193000">
        <ele>381.50</ele>
        <time>2016-10-22T06:06:46Z</time>
      </trkpt>
      <trkpt lat="42.497001000" lon="-2.534233000">
        <ele>381.50</ele>
        <time>2016-10-22T06:06:47Z</time>
      </trkpt>
      <trkpt lat="42.496976000" lon="-2.534273000">
        <ele>381.40</ele>
        <time>2016-10-22T06:06:48Z</time>
      </trkpt>
      <trkpt lat="42.496947000" lon="-2.534310000">
        <ele>381.40</ele>
        <time>2016-10-22T06:06:49Z</time>
      </trkpt>
      <trkpt lat="42.496916000" lon="-2.534347000">
        <ele>381.40</ele>
        <time>2016-10-22T06:06:50Z</time>
      </trkpt>
      <trkpt lat="42.496883000" lon="-2.534386000">
        <ele>381.40</ele>
        <time>2016-10-22T06:06:51Z</time>
      </trkpt>
      <trkpt lat="42.496851000" lon="-2.534425000">
        <ele>381.40</ele>
        <time>2016-10-22T06:06:52Z</time>
      </trkpt>
      <trkpt lat="42.496818000" lon="-2.534468000">
        <ele>381.40</ele>
        <time>2016-10-22T06:06:53Z</time>
      </trkpt>
      <trkpt lat="42.496787000" lon="-2.534512000">
        <ele>381.40</ele>
        <time>2016-10-22T06:06:54Z</time>
      </trkpt>
      <trkpt lat="42.496757000" lon="-2.534560000">
        <ele>381.60</ele>
        <time>2016-10-22T06:06:55Z</time>
      </trkpt>
      <trkpt lat="42.496731000" lon="-2.534605000">
        <ele>381.80</ele>
        <time>2016-10-22T06:06:56Z</time>
      </trkpt>
      <trkpt lat="42.496704000" lon="-2.534654000">
        <ele>381.90</ele>
        <time>2016-10-22T06:06:57Z</time>
      </trkpt>
      <trkpt lat="42.496678000" lon="-2.534704000">
        <ele>382.00</ele>
        <time>2016-10-22T06:06:58Z</time>
      </trkpt>
      <trkpt lat="42.496649000" lon="-2.534752000">
        <ele>381.90</ele>
        <time>2016-10-22T06:06:59Z</time>
      </trkpt>
      <trkpt lat="42.496621000" lon="-2.534802000">
        <ele>381.90</ele>
        <time>2016-10-22T06:07:00Z</time>
      </trkpt>
      <trkpt lat="42.496592000" lon="-2.534850000">
        <ele>381.90</ele>
        <time>2016-10-22T06:07:01Z</time>
      </trkpt>
      <trkpt lat="42.496566000" lon="-2.534891000">
        <ele>381.80</ele>
        <time>2016-10-22T06:07:02Z</time>
      </trkpt>
      <trkpt lat="42.496535000" lon="-2.534936000">
        <ele>381.90</ele>
        <time>2016-10-22T06:07:03Z</time>
      </trkpt>
      <trkpt lat="42.496502000" lon="-2.534980000">
        <ele>381.90</ele>
        <time>2016-10-22T06:07:04Z</time>
      </trkpt>
      <trkpt lat="42.496471000" lon="-2.535020000">
        <ele>382.00</ele>
        <time>2016-10-22T06:07:05Z</time>
      </trkpt>
      <trkpt lat="42.496437000" lon="-2.535058000">
        <ele>382.00</ele>
        <time>2016-10-22T06:07:06Z</time>
      </trkpt>
      <trkpt lat="42.496405000" lon="-2.535095000">
        <ele>382.00</ele>
        <time>2016-10-22T06:07:07Z</time>
      </trkpt>
      <trkpt lat="42.496376000" lon="-2.535133000">
        <ele>382.00</ele>
        <time>2016-10-22T06:07:08Z</time>
      </trkpt>
      <trkpt lat="42.496347000" lon="-2.535171000">
        <ele>381.90</ele>
        <time>2016-10-22T06:07:09Z</time>
      </trkpt>
      <trkpt lat="42.496320000" lon="-2.535213000">
        <ele>381.80</ele>
        <time>2016-10-22T06:07:10Z</time>
      </trkpt>
      <trkpt lat="42.496292000" lon="-2.535259000">
        <ele>381.90</ele>
        <time>2016-10-22T06:07:11Z</time>
      </trkpt>
      <trkpt lat="42.496263000" lon="-2.535312000">
        <ele>382.00</ele>
        <time>2016-10-22T06:07:12Z</time>
      </trkpt>
      <trkpt lat="42.496236000" lon="-2.535362000">
        <ele>382.00</ele>
        <time>2016-10-22T06:07:13Z</time>
      </trkpt>
      <trkpt lat="42.496208000" lon="-2.535413000">
        <ele>382.00</ele>
        <time>2016-10-22T06:07:14Z</time>
      </trkpt>
      <trkpt lat="42.496178000" lon="-2.535456000">
        <ele>382.00</ele>
        <time>2016-10-22T06:07:15Z</time>
      </trkpt>
      <trkpt lat="42.496150000" lon="-2.535497000">
        <ele>382.00</ele>
        <time>2016-10-22T06:07:16Z</time>
      </trkpt>
      <trkpt lat="42.496120000" lon="-2.535533000">
        <ele>381.90</ele>
        <time>2016-10-22T06:07:17Z</time>
      </trkpt>
      <trkpt lat="42.496090000" lon="-2.535566000">
        <ele>381.80</ele>
        <time>2016-10-22T06:07:18Z</time>
      </trkpt>
      <trkpt lat="42.496061000" lon="-2.535598000">
        <ele>381.80</ele>
        <time>2016-10-22T06:07:19Z</time>
      </trkpt>
      <trkpt lat="42.496036000" lon="-2.535628000">
        <ele>381.70</ele>
        <time>2016-10-22T06:07:20Z</time>
      </trkpt>
      <trkpt lat="42.496010000" lon="-2.535661000">
        <ele>381.70</ele>
        <time>2016-10-22T06:07:21Z</time>
      </trkpt>
      <trkpt lat="42.495990000" lon="-2.535699000">
        <ele>381.70</ele>
        <time>2016-10-22T06:07:22Z</time>
      </trkpt>
      <trkpt lat="42.495970000" lon="-2.535744000">
        <ele>381.70</ele>
        <time>2016-10-22T06:07:23Z</time>
      </trkpt>
      <trkpt lat="42.495953000" lon="-2.535792000">
        <ele>381.60</ele>
        <time>2016-10-22T06:07:24Z</time>
      </trkpt>
      <trkpt lat="42.495937000" lon="-2.535836000">
        <ele>381.60</ele>
        <time>2016-10-22T06:07:25Z</time>
      </trkpt>
      <trkpt lat="42.495920000" lon="-2.535872000">
        <ele>381.60</ele>
        <time>2016-10-22T06:07:26Z</time>
      </trkpt>
      <trkpt lat="42.495889000" lon="-2.535940000">
        <ele>381.60</ele>
        <time>2016-10-22T06:07:28Z</time>
      </trkpt>
      <trkpt lat="42.495872000" lon="-2.535973000">
        <ele>381.90</ele>
        <time>2016-10-22T06:07:29Z</time>
      </trkpt>
      <trkpt lat="42.495851000" lon="-2.536011000">
        <ele>382.10</ele>
        <time>2016-10-22T06:07:30Z</time>
      </trkpt>
      <trkpt lat="42.495829000" lon="-2.536051000">
        <ele>382.20</ele>
        <time>2016-10-22T06:07:31Z</time>
      </trkpt>
      <trkpt lat="42.495808000" lon="-2.536089000">
        <ele>382.30</ele>
        <time>2016-10-22T06:07:32Z</time>
      </trkpt>
      <trkpt lat="42.495782000" lon="-2.536126000">
        <ele>382.40</ele>
        <time>2016-10-22T06:07:33Z</time>
      </trkpt>
      <trkpt lat="42.495756000" lon="-2.536164000">
        <ele>382.50</ele>
        <time>2016-10-22T06:07:34Z</time>
      </trkpt>
      <trkpt lat="42.495728000" lon="-2.536201000">
        <ele>382.40</ele>
        <time>2016-10-22T06:07:35Z</time>
      </trkpt>
      <trkpt lat="42.495702000" lon="-2.536234000">
        <ele>382.30</ele>
        <time>2016-10-22T06:07:36Z</time>
      </trkpt>
      <trkpt lat="42.495670000" lon="-2.536268000">
        <ele>382.40</ele>
        <time>2016-10-22T06:07:37Z</time>
      </trkpt>
      <trkpt lat="42.495637000" lon="-2.536298000">
        <ele>382.50</ele>
        <time>2016-10-22T06:07:38Z</time>
      </trkpt>
      <trkpt lat="42.495611000" lon="-2.536336000">
        <ele>382.40</ele>
        <time>2016-10-22T06:07:39Z</time>
      </trkpt>
      <trkpt lat="42.495582000" lon="-2.536374000">
        <ele>382.30</ele>
        <time>2016-10-22T06:07:40Z</time>
      </trkpt>
      <trkpt lat="42.495552000" lon="-2.536411000">
        <ele>382.30</ele>
        <time>2016-10-22T06:07:41Z</time>
      </trkpt>
      <trkpt lat="42.495519000" lon="-2.536450000">
        <ele>382.30</ele>
        <time>2016-10-22T06:07:42Z</time>
      </trkpt>
      <trkpt lat="42.495487000" lon="-2.536486000">
        <ele>382.30</ele>
        <time>2016-10-22T06:07:43Z</time>
      </trkpt>
      <trkpt lat="42.495459000" lon="-2.536525000">
        <ele>382.20</ele>
        <time>2016-10-22T06:07:44Z</time>
      </trkpt>
      <trkpt lat="42.495428000" lon="-2.536560000">
        <ele>382.20</ele>
        <time>2016-10-22T06:07:45Z</time>
      </trkpt>
      <trkpt lat="42.495398000" lon="-2.536594000">
        <ele>382.20</ele>
        <time>2016-10-22T06:07:46Z</time>
      </trkpt>
      <trkpt lat="42.495370000" lon="-2.536630000">
        <ele>382.20</ele>
        <time>2016-10-22T06:07:47Z</time>
      </trkpt>
      <trkpt lat="42.495345000" lon="-2.536670000">
        <ele>382.20</ele>
        <time>2016-10-22T06:07:48Z</time>
      </trkpt>
      <trkpt lat="42.495323000" lon="-2.536708000">
        <ele>382.10</ele>
        <time>2016-10-22T06:07:49Z</time>
      </trkpt>
      <trkpt lat="42.495299000" lon="-2.536749000">
        <ele>382.00</ele>
        <time>2016-10-22T06:07:50Z</time>
      </trkpt>
      <trkpt lat="42.495272000" lon="-2.536790000">
        <ele>381.90</ele>
        <time>2016-10-22T06:07:51Z</time>
      </trkpt>
      <trkpt lat="42.495246000" lon="-2.536829000">
        <ele>381.90</ele>
        <time>2016-10-22T06:07:52Z</time>
      </trkpt>
      <trkpt lat="42.495220000" lon="-2.536864000">
        <ele>381.80</ele>
        <time>2016-10-22T06:07:53Z</time>
      </trkpt>
      <trkpt lat="42.495197000" lon="-2.536900000">
        <ele>381.80</ele>
        <time>2016-10-22T06:07:54Z</time>
      </trkpt>
      <trkpt lat="42.495173000" lon="-2.536933000">
        <ele>381.90</ele>
        <time>2016-10-22T06:07:55Z</time>
      </trkpt>
      <trkpt lat="42.495145000" lon="-2.536960000">
        <ele>382.00</ele>
        <time>2016-10-22T06:07:56Z</time>
      </trkpt>
      <trkpt lat="42.495117000" lon="-2.536985000">
        <ele>382.10</ele>
        <time>2016-10-22T06:07:57Z</time>
      </trkpt>
      <trkpt lat="42.495093000" lon="-2.537006000">
        <ele>382.30</ele>
        <time>2016-10-22T06:07:58Z</time>
      </trkpt>
      <trkpt lat="42.495063000" lon="-2.537021000">
        <ele>382.40</ele>
        <time>2016-10-22T06:07:59Z</time>
      </trkpt>
      <trkpt lat="42.495031000" lon="-2.537038000">
        <ele>382.40</ele>
        <time>2016-10-22T06:08:00Z</time>
      </trkpt>
      <trkpt lat="42.494998000" lon="-2.537053000">
        <ele>382.40</ele>
        <time>2016-10-22T06:08:01Z</time>
      </trkpt>
      <trkpt lat="42.494963000" lon="-2.537066000">
        <ele>382.50</ele>
        <time>2016-10-22T06:08:02Z</time>
      </trkpt>
      <trkpt lat="42.494934000" lon="-2.537081000">
        <ele>382.40</ele>
        <time>2016-10-22T06:08:03Z</time>
      </trkpt>
      <trkpt lat="42.494902000" lon="-2.537097000">
        <ele>382.30</ele>
        <time>2016-10-22T06:08:04Z</time>
      </trkpt>
      <trkpt lat="42.494870000" lon="-2.537121000">
        <ele>382.40</ele>
        <time>2016-10-22T06:08:05Z</time>
      </trkpt>
      <trkpt lat="42.494835000" lon="-2.537143000">
        <ele>382.40</ele>
        <time>2016-10-22T06:08:06Z</time>
      </trkpt>
      <trkpt lat="42.494799000" lon="-2.537163000">
        <ele>382.50</ele>
        <time>2016-10-22T06:08:07Z</time>
      </trkpt>
      <trkpt lat="42.494765000" lon="-2.537179000">
        <ele>382.50</ele>
        <time>2016-10-22T06:08:08Z</time>
      </trkpt>
      <trkpt lat="42.494726000" lon="-2.537197000">
        <ele>382.70</ele>
        <time>2016-10-22T06:08:09Z</time>
      </trkpt>
      <trkpt lat="42.494690000" lon="-2.537214000">
        <ele>382.70</ele>
        <time>2016-10-22T06:08:10Z</time>
      </trkpt>
      <trkpt lat="42.494656000" lon="-2.537228000">
        <ele>382.70</ele>
        <time>2016-10-22T06:08:11Z</time>
      </trkpt>
      <trkpt lat="42.494621000" lon="-2.537247000">
        <ele>382.70</ele>
        <time>2016-10-22T06:08:12Z</time>
      </trkpt>
      <trkpt lat="42.494584000" lon="-2.537264000">
        <ele>382.60</ele>
        <time>2016-10-22T06:08:13Z</time>
      </trkpt>
      <trkpt lat="42.494550000" lon="-2.537281000">
        <ele>382.50</ele>
        <time>2016-10-22T06:08:14Z</time>
      </trkpt>
      <trkpt lat="42.494515000" lon="-2.537296000">
        <ele>382.40</ele>
        <time>2016-10-22T06:08:15Z</time>
      </trkpt>
      <trkpt lat="42.494480000" lon="-2.537309000">
        <ele>382.40</ele>
        <time>2016-10-22T06:08:16Z</time>
      </trkpt>
      <trkpt lat="42.494446000" lon="-2.537329000">
        <ele>382.40</ele>
        <time>2016-10-22T06:08:17Z</time>
      </trkpt>
      <trkpt lat="42.494410000" lon="-2.537345000">
        <ele>382.40</ele>
        <time>2016-10-22T06:08:18Z</time>
      </trkpt>
      <trkpt lat="42.494376000" lon="-2.537367000">
        <ele>382.50</ele>
        <time>2016-10-22T06:08:19Z</time>
      </trkpt>
      <trkpt lat="42.494339000" lon="-2.537380000">
        <ele>382.60</ele>
        <time>2016-10-22T06:08:20Z</time>
      </trkpt>
      <trkpt lat="42.494301000" lon="-2.537395000">
        <ele>382.60</ele>
        <time>2016-10-22T06:08:21Z</time>
      </trkpt>
      <trkpt lat="42.494265000" lon="-2.537401000">
        <ele>382.60</ele>
        <time>2016-10-22T06:08:22Z</time>
      </trkpt>
      <trkpt lat="42.494227000" lon="-2.537406000">
        <ele>382.70</ele>
        <time>2016-10-22T06:08:23Z</time>
      </trkpt>
      <trkpt lat="42.494192000" lon="-2.537417000">
        <ele>382.70</ele>
        <time>2016-10-22T06:08:24Z</time>
      </trkpt>
      <trkpt lat="42.494150000" lon="-2.537427000">
        <ele>382.70</ele>
        <time>2016-10-22T06:08:25Z</time>
      </trkpt>
      <trkpt lat="42.494110000" lon="-2.537431000">
        <ele>382.70</ele>
        <time>2016-10-22T06:08:26Z</time>
      </trkpt>
      <trkpt lat="42.494070000" lon="-2.537436000">
        <ele>382.70</ele>
        <time>2016-10-22T06:08:27Z</time>
      </trkpt>
      <trkpt lat="42.493991000" lon="-2.537447000">
        <ele>382.70</ele>
        <time>2016-10-22T06:08:29Z</time>
      </trkpt>
      <trkpt lat="42.493952000" lon="-2.537447000">
        <ele>382.60</ele>
        <time>2016-10-22T06:08:30Z</time>
      </trkpt>
      <trkpt lat="42.493913000" lon="-2.537450000">
        <ele>382.70</ele>
        <time>2016-10-22T06:08:31Z</time>
      </trkpt>
      <trkpt lat="42.493873000" lon="-2.537452000">
        <ele>382.80</ele>
        <time>2016-10-22T06:08:32Z</time>
      </trkpt>
      <trkpt lat="42.493834000" lon="-2.537454000">
        <ele>382.80</ele>
        <time>2016-10-22T06:08:33Z</time>
      </trkpt>
      <trkpt lat="42.493795000" lon="-2.537454000">
        <ele>382.80</ele>
        <time>2016-10-22T06:08:34Z</time>
      </trkpt>
      <trkpt lat="42.493756000" lon="-2.537452000">
        <ele>382.80</ele>
        <time>2016-10-22T06:08:35Z</time>
      </trkpt>
      <trkpt lat="42.493720000" lon="-2.537447000">
        <ele>382.70</ele>
        <time>2016-10-22T06:08:36Z</time>
      </trkpt>
      <trkpt lat="42.493684000" lon="-2.537442000">
        <ele>382.70</ele>
        <time>2016-10-22T06:08:37Z</time>
      </trkpt>
      <trkpt lat="42.493648000" lon="-2.537440000">
        <ele>382.70</ele>
        <time>2016-10-22T06:08:38Z</time>
      </trkpt>
      <trkpt lat="42.493614000" lon="-2.537438000">
        <ele>382.90</ele>
        <time>2016-10-22T06:08:39Z</time>
      </trkpt>
      <trkpt lat="42.493580000" lon="-2.537433000">
        <ele>383.00</ele>
        <time>2016-10-22T06:08:40Z</time>
      </trkpt>
      <trkpt lat="42.493548000" lon="-2.537425000">
        <ele>383.00</ele>
        <time>2016-10-22T06:08:41Z</time>
      </trkpt>
      <trkpt lat="42.493517000" lon="-2.537412000">
        <ele>383.10</ele>
        <time>2016-10-22T06:08:42Z</time>
      </trkpt>
      <trkpt lat="42.493482000" lon="-2.537406000">
        <ele>383.10</ele>
        <time>2016-10-22T06:08:43Z</time>
      </trkpt>
      <trkpt lat="42.493450000" lon="-2.537401000">
        <ele>383.10</ele>
        <time>2016-10-22T06:08:44Z</time>
      </trkpt>
      <trkpt lat="42.493418000" lon="-2.537391000">
        <ele>383.10</ele>
        <time>2016-10-22T06:08:45Z</time>
      </trkpt>
      <trkpt lat="42.493389000" lon="-2.537381000">
        <ele>383.10</ele>
        <time>2016-10-22T06:08:46Z</time>
      </trkpt>
      <trkpt lat="42.493361000" lon="-2.537373000">
        <ele>383.10</ele>
        <time>2016-10-22T06:08:47Z</time>
      </trkpt>
      <trkpt lat="42.493331000" lon="-2.537368000">
        <ele>383.10</ele>
        <time>2016-10-22T06:08:48Z</time>
      </trkpt>
      <trkpt lat="42.493302000" lon="-2.537357000">
        <ele>383.10</ele>
        <time>2016-10-22T06:08:49Z</time>
      </trkpt>
      <trkpt lat="42.493269000" lon="-2.537352000">
        <ele>383.20</ele>
        <time>2016-10-22T06:08:50Z</time>
      </trkpt>
      <trkpt lat="42.493241000" lon="-2.537335000">
        <ele>383.20</ele>
        <time>2016-10-22T06:08:51Z</time>
      </trkpt>
      <trkpt lat="42.493212000" lon="-2.537312000">
        <ele>383.10</ele>
        <time>2016-10-22T06:08:52Z</time>
      </trkpt>
      <trkpt lat="42.493180000" lon="-2.537293000">
        <ele>383.20</ele>
        <time>2016-10-22T06:08:53Z</time>
      </trkpt>
      <trkpt lat="42.493146000" lon="-2.537279000">
        <ele>383.20</ele>
        <time>2016-10-22T06:08:54Z</time>
      </trkpt>
      <trkpt lat="42.493112000" lon="-2.537267000">
        <ele>383.40</ele>
        <time>2016-10-22T06:08:55Z</time>
      </trkpt>
      <trkpt lat="42.493082000" lon="-2.537255000">
        <ele>383.50</ele>
        <time>2016-10-22T06:08:56Z</time>
      </trkpt>
      <trkpt lat="42.493064000" lon="-2.537230000">
        <ele>383.60</ele>
        <time>2016-10-22T06:08:57Z</time>
      </trkpt>
      <trkpt lat="42.493046000" lon="-2.537210000">
        <ele>383.70</ele>
        <time>2016-10-22T06:08:58Z</time>
      </trkpt>
      <trkpt lat="42.493028000" lon="-2.537200000">
        <ele>383.70</ele>
        <time>2016-10-22T06:08:59Z</time>
      </trkpt>
      <trkpt lat="42.493010000" lon="-2.537196000">
        <ele>383.70</ele>
        <time>2016-10-22T06:09:00Z</time>
      </trkpt>
      <trkpt lat="42.492993000" lon="-2.537200000">
        <ele>383.70</ele>
        <time>2016-10-22T06:09:01Z</time>
      </trkpt>
      <trkpt lat="42.492980000" lon="-2.537204000">
        <ele>383.70</ele>
        <time>2016-10-22T06:09:02Z</time>
      </trkpt>
      <trkpt lat="42.492967000" lon="-2.537209000">
        <ele>383.70</ele>
        <time>2016-10-22T06:09:03Z</time>
      </trkpt>
      <trkpt lat="42.492952000" lon="-2.537211000">
        <ele>383.60</ele>
        <time>2016-10-22T06:09:04Z</time>
      </trkpt>
      <trkpt lat="42.492931000" lon="-2.537209000">
        <ele>383.60</ele>
        <time>2016-10-22T06:09:05Z</time>
      </trkpt>
      <trkpt lat="42.492911000" lon="-2.537201000">
        <ele>383.60</ele>
        <time>2016-10-22T06:09:06Z</time>
      </trkpt>
      <trkpt lat="42.492887000" lon="-2.537187000">
        <ele>383.60</ele>
        <time>2016-10-22T06:09:07Z</time>
      </trkpt>
      <trkpt lat="42.492862000" lon="-2.537177000">
        <ele>383.60</ele>
        <time>2016-10-22T06:09:08Z</time>
      </trkpt>
      <trkpt lat="42.492836000" lon="-2.537165000">
        <ele>383.60</ele>
        <time>2016-10-22T06:09:09Z</time>
      </trkpt>
      <trkpt lat="42.492805000" lon="-2.537154000">
        <ele>383.60</ele>
        <time>2016-10-22T06:09:10Z</time>
      </trkpt>
      <trkpt lat="42.492775000" lon="-2.537142000">
        <ele>383.50</ele>
        <time>2016-10-22T06:09:11Z</time>
      </trkpt>
      <trkpt lat="42.492745000" lon="-2.537133000">
        <ele>383.40</ele>
        <time>2016-10-22T06:09:12Z</time>
      </trkpt>
      <trkpt lat="42.492713000" lon="-2.537123000">
        <ele>383.40</ele>
        <time>2016-10-22T06:09:13Z</time>
      </trkpt>
      <trkpt lat="42.492680000" lon="-2.537118000">
        <ele>383.50</ele>
        <time>2016-10-22T06:09:14Z</time>
      </trkpt>
      <trkpt lat="42.492648000" lon="-2.537116000">
        <ele>383.40</ele>
        <time>2016-10-22T06:09:15Z</time>
      </trkpt>
      <trkpt lat="42.492614000" lon="-2.537114000">
        <ele>383.30</ele>
        <time>2016-10-22T06:09:16Z</time>
      </trkpt>
      <trkpt lat="42.492577000" lon="-2.537112000">
        <ele>383.30</ele>
        <time>2016-10-22T06:09:17Z</time>
      </trkpt>
      <trkpt lat="42.492543000" lon="-2.537112000">
        <ele>383.30</ele>
        <time>2016-10-22T06:09:18Z</time>
      </trkpt>
      <trkpt lat="42.492507000" lon="-2.537111000">
        <ele>383.30</ele>
        <time>2016-10-22T06:09:19Z</time>
      </trkpt>
      <trkpt lat="42.492469000" lon="-2.537115000">
        <ele>383.20</ele>
        <time>2016-10-22T06:09:20Z</time>
      </trkpt>
      <trkpt lat="42.492430000" lon="-2.537125000">
        <ele>383.20</ele>
        <time>2016-10-22T06:09:21Z</time>
      </trkpt>
      <trkpt lat="42.492390000" lon="-2.537139000">
        <ele>383.20</ele>
        <time>2016-10-22T06:09:22Z</time>
      </trkpt>
      <trkpt lat="42.492353000" lon="-2.537153000">
        <ele>382.90</ele>
        <time>2016-10-22T06:09:23Z</time>
      </trkpt>
      <trkpt lat="42.492315000" lon="-2.537165000">
        <ele>382.80</ele>
        <time>2016-10-22T06:09:24Z</time>
      </trkpt>
      <trkpt lat="42.492279000" lon="-2.537177000">
        <ele>382.70</ele>
        <time>2016-10-22T06:09:25Z</time>
      </trkpt>
      <trkpt lat="42.492246000" lon="-2.537181000">
        <ele>382.60</ele>
        <time>2016-10-22T06:09:26Z</time>
      </trkpt>
      <trkpt lat="42.492212000" lon="-2.537177000">
        <ele>382.40</ele>
        <time>2016-10-22T06:09:27Z</time>
      </trkpt>
      <trkpt lat="42.492178000" lon="-2.537175000">
        <ele>382.20</ele>
        <time>2016-10-22T06:09:28Z</time>
      </trkpt>
      <trkpt lat="42.492142000" lon="-2.537180000">
        <ele>382.20</ele>
        <time>2016-10-22T06:09:29Z</time>
      </trkpt>
      <trkpt lat="42.492073000" lon="-2.537189000">
        <ele>382.30</ele>
        <time>2016-10-22T06:09:31Z</time>
      </trkpt>
      <trkpt lat="42.492037000" lon="-2.537194000">
        <ele>382.40</ele>
        <time>2016-10-22T06:09:32Z</time>
      </trkpt>
      <trkpt lat="42.492000000" lon="-2.537195000">
        <ele>382.40</ele>
        <time>2016-10-22T06:09:33Z</time>
      </trkpt>
      <trkpt lat="42.491957000" lon="-2.537197000">
        <ele>382.50</ele>
        <time>2016-10-22T06:09:34Z</time>
      </trkpt>
      <trkpt lat="42.491918000" lon="-2.537197000">
        <ele>382.20</ele>
        <time>2016-10-22T06:09:35Z</time>
      </trkpt>
      <trkpt lat="42.491879000" lon="-2.537193000">
        <ele>382.10</ele>
        <time>2016-10-22T06:09:36Z</time>
      </trkpt>
      <trkpt lat="42.491840000" lon="-2.537192000">
        <ele>381.90</ele>
        <time>2016-10-22T06:09:37Z</time>
      </trkpt>
      <trkpt lat="42.491805000" lon="-2.537191000">
        <ele>381.80</ele>
        <time>2016-10-22T06:09:38Z</time>
      </trkpt>
      <trkpt lat="42.491768000" lon="-2.537191000">
        <ele>381.80</ele>
        <time>2016-10-22T06:09:39Z</time>
      </trkpt>
      <trkpt lat="42.491734000" lon="-2.537191000">
        <ele>381.80</ele>
        <time>2016-10-22T06:09:40Z</time>
      </trkpt>
      <trkpt lat="42.491699000" lon="-2.537188000">
        <ele>381.90</ele>
        <time>2016-10-22T06:09:41Z</time>
      </trkpt>
      <trkpt lat="42.491661000" lon="-2.537189000">
        <ele>381.90</ele>
        <time>2016-10-22T06:09:42Z</time>
      </trkpt>
      <trkpt lat="42.491621000" lon="-2.537191000">
        <ele>381.90</ele>
        <time>2016-10-22T06:09:43Z</time>
      </trkpt>
      <trkpt lat="42.491583000" lon="-2.537195000">
        <ele>382.00</ele>
        <time>2016-10-22T06:09:44Z</time>
      </trkpt>
      <trkpt lat="42.491546000" lon="-2.537204000">
        <ele>382.00</ele>
        <time>2016-10-22T06:09:45Z</time>
      </trkpt>
      <trkpt lat="42.491508000" lon="-2.537219000">
        <ele>382.00</ele>
        <time>2016-10-22T06:09:46Z</time>
      </trkpt>
      <trkpt lat="42.491475000" lon="-2.537233000">
        <ele>381.90</ele>
        <time>2016-10-22T06:09:47Z</time>
      </trkpt>
      <trkpt lat="42.491444000" lon="-2.537245000">
        <ele>381.90</ele>
        <time>2016-10-22T06:09:48Z</time>
      </trkpt>
      <trkpt lat="42.491408000" lon="-2.537259000">
        <ele>381.90</ele>
        <time>2016-10-22T06:09:49Z</time>
      </trkpt>
      <trkpt lat="42.491370000" lon="-2.537268000">
        <ele>381.80</ele>
        <time>2016-10-22T06:09:50Z</time>
      </trkpt>
      <trkpt lat="42.491331000" lon="-2.537278000">
        <ele>381.80</ele>
        <time>2016-10-22T06:09:51Z</time>
      </trkpt>
      <trkpt lat="42.491294000" lon="-2.537284000">
        <ele>381.80</ele>
        <time>2016-10-22T06:09:52Z</time>
      </trkpt>
      <trkpt lat="42.491258000" lon="-2.537294000">
        <ele>381.70</ele>
        <time>2016-10-22T06:09:53Z</time>
      </trkpt>
      <trkpt lat="42.491224000" lon="-2.537298000">
        <ele>381.70</ele>
        <time>2016-10-22T06:09:54Z</time>
      </trkpt>
      <trkpt lat="42.491188000" lon="-2.537302000">
        <ele>381.60</ele>
        <time>2016-10-22T06:09:55Z</time>
      </trkpt>
      <trkpt lat="42.491154000" lon="-2.537308000">
        <ele>381.60</ele>
        <time>2016-10-22T06:09:56Z</time>
      </trkpt>
      <trkpt lat="42.491117000" lon="-2.537313000">
        <ele>381.60</ele>
        <time>2016-10-22T06:09:57Z</time>
      </trkpt>
      <trkpt lat="42.491079000" lon="-2.537319000">
        <ele>381.60</ele>
        <time>2016-10-22T06:09:58Z</time>
      </trkpt>
      <trkpt lat="42.491044000" lon="-2.537322000">
        <ele>381.60</ele>
        <time>2016-10-22T06:09:59Z</time>
      </trkpt>
      <trkpt lat="42.491005000" lon="-2.537324000">
        <ele>381.50</ele>
        <time>2016-10-22T06:10:00Z</time>
      </trkpt>
      <trkpt lat="42.490968000" lon="-2.537329000">
        <ele>381.60</ele>
        <time>2016-10-22T06:10:01Z</time>
      </trkpt>
      <trkpt lat="42.490923000" lon="-2.537323000">
        <ele>381.60</ele>
        <time>2016-10-22T06:10:02Z</time>
      </trkpt>
      <trkpt lat="42.490876000" lon="-2.537326000">
        <ele>381.60</ele>
        <time>2016-10-22T06:10:03Z</time>
      </trkpt>
      <trkpt lat="42.490837000" lon="-2.537324000">
        <ele>381.60</ele>
        <time>2016-10-22T06:10:04Z</time>
      </trkpt>
      <trkpt lat="42.490796000" lon="-2.537327000">
        <ele>381.40</ele>
        <time>2016-10-22T06:10:05Z</time>
      </trkpt>
      <trkpt lat="42.490766000" lon="-2.537328000">
        <ele>381.30</ele>
        <time>2016-10-22T06:10:06Z</time>
      </trkpt>
      <trkpt lat="42.490740000" lon="-2.537332000">
        <ele>381.10</ele>
        <time>2016-10-22T06:10:07Z</time>
      </trkpt>
      <trkpt lat="42.490715000" lon="-2.537333000">
        <ele>381.00</ele>
        <time>2016-10-22T06:10:08Z</time>
      </trkpt>
      <trkpt lat="42.490686000" lon="-2.537337000">
        <ele>380.70</ele>
        <time>2016-10-22T06:10:09Z</time>
      </trkpt>
      <trkpt lat="42.490655000" lon="-2.537342000">
        <ele>380.50</ele>
        <time>2016-10-22T06:10:10Z</time>
      </trkpt>
      <trkpt lat="42.490620000" lon="-2.537349000">
        <ele>380.30</ele>
        <time>2016-10-22T06:10:11Z</time>
      </trkpt>
      <trkpt lat="42.490586000" lon="-2.537354000">
        <ele>380.20</ele>
        <time>2016-10-22T06:10:12Z</time>
      </trkpt>
      <trkpt lat="42.490548000" lon="-2.537354000">
        <ele>380.10</ele>
        <time>2016-10-22T06:10:13Z</time>
      </trkpt>
      <trkpt lat="42.490517000" lon="-2.537349000">
        <ele>380.00</ele>
        <time>2016-10-22T06:10:14Z</time>
      </trkpt>
      <trkpt lat="42.490492000" lon="-2.537339000">
        <ele>379.90</ele>
        <time>2016-10-22T06:10:15Z</time>
      </trkpt>
      <trkpt lat="42.490464000" lon="-2.537325000">
        <ele>379.80</ele>
        <time>2016-10-22T06:10:16Z</time>
      </trkpt>
      <trkpt lat="42.490436000" lon="-2.537315000">
        <ele>379.70</ele>
        <time>2016-10-22T06:10:17Z</time>
      </trkpt>
      <trkpt lat="42.490406000" lon="-2.537300000">
        <ele>379.70</ele>
        <time>2016-10-22T06:10:18Z</time>
      </trkpt>
      <trkpt lat="42.490376000" lon="-2.537281000">
        <ele>379.60</ele>
        <time>2016-10-22T06:10:19Z</time>
      </trkpt>
      <trkpt lat="42.490347000" lon="-2.537256000">
        <ele>379.60</ele>
        <time>2016-10-22T06:10:20Z</time>
      </trkpt>
      <trkpt lat="42.490313000" lon="-2.537238000">
        <ele>379.60</ele>
        <time>2016-10-22T06:10:21Z</time>
      </trkpt>
      <trkpt lat="42.490281000" lon="-2.537211000">
        <ele>379.60</ele>
        <time>2016-10-22T06:10:22Z</time>
      </trkpt>
      <trkpt lat="42.490247000" lon="-2.537186000">
        <ele>379.70</ele>
        <time>2016-10-22T06:10:23Z</time>
      </trkpt>
      <trkpt lat="42.490212000" lon="-2.537157000">
        <ele>379.80</ele>
        <time>2016-10-22T06:10:24Z</time>
      </trkpt>
      <trkpt lat="42.490178000" lon="-2.537125000">
        <ele>379.80</ele>
        <time>2016-10-22T06:10:25Z</time>
      </trkpt>
      <trkpt lat="42.490145000" lon="-2.537087000">
        <ele>379.90</ele>
        <time>2016-10-22T06:10:26Z</time>
      </trkpt>
      <trkpt lat="42.490114000" lon="-2.537048000">
        <ele>379.90</ele>
        <time>2016-10-22T06:10:27Z</time>
      </trkpt>
      <trkpt lat="42.490082000" lon="-2.537014000">
        <ele>379.80</ele>
        <time>2016-10-22T06:10:28Z</time>
      </trkpt>
      <trkpt lat="42.490047000" lon="-2.536986000">
        <ele>379.80</ele>
        <time>2016-10-22T06:10:29Z</time>
      </trkpt>
      <trkpt lat="42.490016000" lon="-2.536959000">
        <ele>379.80</ele>
        <time>2016-10-22T06:10:30Z</time>
      </trkpt>
      <trkpt lat="42.489983000" lon="-2.536929000">
        <ele>379.80</ele>
        <time>2016-10-22T06:10:31Z</time>
      </trkpt>
      <trkpt lat="42.489917000" lon="-2.536870000">
        <ele>379.90</ele>
        <time>2016-10-22T06:10:33Z</time>
      </trkpt>
      <trkpt lat="42.489886000" lon="-2.536840000">
        <ele>379.90</ele>
        <time>2016-10-22T06:10:34Z</time>
      </trkpt>
      <trkpt lat="42.489857000" lon="-2.536806000">
        <ele>379.90</ele>
        <time>2016-10-22T06:10:35Z</time>
      </trkpt>
      <trkpt lat="42.489826000" lon="-2.536769000">
        <ele>379.90</ele>
        <time>2016-10-22T06:10:36Z</time>
      </trkpt>
      <trkpt lat="42.489799000" lon="-2.536730000">
        <ele>379.80</ele>
        <time>2016-10-22T06:10:37Z</time>
      </trkpt>
      <trkpt lat="42.489767000" lon="-2.536694000">
        <ele>379.80</ele>
        <time>2016-10-22T06:10:38Z</time>
      </trkpt>
      <trkpt lat="42.489737000" lon="-2.536655000">
        <ele>379.80</ele>
        <time>2016-10-22T06:10:39Z</time>
      </trkpt>
      <trkpt lat="42.489705000" lon="-2.536619000">
        <ele>379.80</ele>
        <time>2016-10-22T06:10:40Z</time>
      </trkpt>
      <trkpt lat="42.489670000" lon="-2.536582000">
        <ele>379.80</ele>
        <time>2016-10-22T06:10:41Z</time>
      </trkpt>
      <trkpt lat="42.489638000" lon="-2.536537000">
        <ele>379.80</ele>
        <time>2016-10-22T06:10:42Z</time>
      </trkpt>
      <trkpt lat="42.489611000" lon="-2.536498000">
        <ele>379.60</ele>
        <time>2016-10-22T06:10:43Z</time>
      </trkpt>
      <trkpt lat="42.489583000" lon="-2.536459000">
        <ele>379.50</ele>
        <time>2016-10-22T06:10:44Z</time>
      </trkpt>
      <trkpt lat="42.489553000" lon="-2.536428000">
        <ele>379.30</ele>
        <time>2016-10-22T06:10:45Z</time>
      </trkpt>
      <trkpt lat="42.489527000" lon="-2.536402000">
        <ele>379.30</ele>
        <time>2016-10-22T06:10:46Z</time>
      </trkpt>
      <trkpt lat="42.489506000" lon="-2.536376000">
        <ele>379.50</ele>
        <time>2016-10-22T06:10:47Z</time>
      </trkpt>
      <trkpt lat="42.489483000" lon="-2.536344000">
        <ele>379.60</ele>
        <time>2016-10-22T06:10:48Z</time>
      </trkpt>
      <trkpt lat="42.489460000" lon="-2.536308000">
        <ele>379.70</ele>
        <time>2016-10-22T06:10:49Z</time>
      </trkpt>
      <trkpt lat="42.489435000" lon="-2.536274000">
        <ele>379.80</ele>
        <time>2016-10-22T06:10:50Z</time>
      </trkpt>
      <trkpt lat="42.489409000" lon="-2.536242000">
        <ele>379.90</ele>
        <time>2016-10-22T06:10:51Z</time>
      </trkpt>
      <trkpt lat="42.489384000" lon="-2.536213000">
        <ele>379.90</ele>
        <time>2016-10-22T06:10:52Z</time>
      </trkpt>
      <trkpt lat="42.489360000" lon="-2.536179000">
        <ele>379.90</ele>
        <time>2016-10-22T06:10:53Z</time>
      </trkpt>
      <trkpt lat="42.489334000" lon="-2.536145000">
        <ele>379.90</ele>
        <time>2016-10-22T06:10:54Z</time>
      </trkpt>
      <trkpt lat="42.489313000" lon="-2.536109000">
        <ele>379.90</ele>
        <time>2016-10-22T06:10:55Z</time>
      </trkpt>
      <trkpt lat="42.489288000" lon="-2.536076000">
        <ele>379.90</ele>
        <time>2016-10-22T06:10:56Z</time>
      </trkpt>
      <trkpt lat="42.489264000" lon="-2.536039000">
        <ele>380.00</ele>
        <time>2016-10-22T06:10:57Z</time>
      </trkpt>
      <trkpt lat="42.489236000" lon="-2.536002000">
        <ele>380.00</ele>
        <time>2016-10-22T06:10:58Z</time>
      </trkpt>
      <trkpt lat="42.489206000" lon="-2.535967000">
        <ele>380.10</ele>
        <time>2016-10-22T06:10:59Z</time>
      </trkpt>
      <trkpt lat="42.489176000" lon="-2.535930000">
        <ele>380.20</ele>
        <time>2016-10-22T06:11:00Z</time>
      </trkpt>
      <trkpt lat="42.489149000" lon="-2.535894000">
        <ele>380.30</ele>
        <time>2016-10-22T06:11:01Z</time>
      </trkpt>
      <trkpt lat="42.489122000" lon="-2.535856000">
        <ele>380.40</ele>
        <time>2016-10-22T06:11:02Z</time>
      </trkpt>
      <trkpt lat="42.489095000" lon="-2.535817000">
        <ele>380.40</ele>
        <time>2016-10-22T06:11:03Z</time>
      </trkpt>
      <trkpt lat="42.489067000" lon="-2.535782000">
        <ele>380.30</ele>
        <time>2016-10-22T06:11:04Z</time>
      </trkpt>
      <trkpt lat="42.489039000" lon="-2.535745000">
        <ele>380.30</ele>
        <time>2016-10-22T06:11:05Z</time>
      </trkpt>
      <trkpt lat="42.489011000" lon="-2.535707000">
        <ele>380.30</ele>
        <time>2016-10-22T06:11:06Z</time>
      </trkpt>
      <trkpt lat="42.488983000" lon="-2.535667000">
        <ele>380.30</ele>
        <time>2016-10-22T06:11:07Z</time>
      </trkpt>
      <trkpt lat="42.488955000" lon="-2.535630000">
        <ele>380.30</ele>
        <time>2016-10-22T06:11:08Z</time>
      </trkpt>
      <trkpt lat="42.488926000" lon="-2.535590000">
        <ele>380.40</ele>
        <time>2016-10-22T06:11:09Z</time>
      </trkpt>
      <trkpt lat="42.488902000" lon="-2.535552000">
        <ele>380.40</ele>
        <time>2016-10-22T06:11:10Z</time>
      </trkpt>
      <trkpt lat="42.488874000" lon="-2.535508000">
        <ele>380.50</ele>
        <time>2016-10-22T06:11:11Z</time>
      </trkpt>
      <trkpt lat="42.488846000" lon="-2.535464000">
        <ele>380.50</ele>
        <time>2016-10-22T06:11:12Z</time>
      </trkpt>
      <trkpt lat="42.488815000" lon="-2.535420000">
        <ele>380.40</ele>
        <time>2016-10-22T06:11:13Z</time>
      </trkpt>
      <trkpt lat="42.488780000" lon="-2.535379000">
        <ele>380.40</ele>
        <time>2016-10-22T06:11:14Z</time>
      </trkpt>
      <trkpt lat="42.488747000" lon="-2.535339000">
        <ele>380.40</ele>
        <time>2016-10-22T06:11:15Z</time>
      </trkpt>
      <trkpt lat="42.488716000" lon="-2.535297000">
        <ele>380.40</ele>
        <time>2016-10-22T06:11:16Z</time>
      </trkpt>
      <trkpt lat="42.488684000" lon="-2.535258000">
        <ele>380.30</ele>
        <time>2016-10-22T06:11:17Z</time>
      </trkpt>
      <trkpt lat="42.488654000" lon="-2.535215000">
        <ele>380.30</ele>
        <time>2016-10-22T06:11:18Z</time>
      </trkpt>
      <trkpt lat="42.488627000" lon="-2.535172000">
        <ele>380.30</ele>
        <time>2016-10-22T06:11:19Z</time>
      </trkpt>
      <trkpt lat="42.488600000" lon="-2.535131000">
        <ele>380.30</ele>
        <time>2016-10-22T06:11:20Z</time>
      </trkpt>
      <trkpt lat="42.488573000" lon="-2.535087000">
        <ele>380.20</ele>
        <time>2016-10-22T06:11:21Z</time>
      </trkpt>
      <trkpt lat="42.488547000" lon="-2.535042000">
        <ele>380.10</ele>
        <time>2016-10-22T06:11:22Z</time>
      </trkpt>
      <trkpt lat="42.488525000" lon="-2.534992000">
        <ele>380.10</ele>
        <time>2016-10-22T06:11:23Z</time>
      </trkpt>
      <trkpt lat="42.488505000" lon="-2.534942000">
        <ele>380.20</ele>
        <time>2016-10-22T06:11:24Z</time>
      </trkpt>
      <trkpt lat="42.488485000" lon="-2.534895000">
        <ele>380.20</ele>
        <time>2016-10-22T06:11:25Z</time>
      </trkpt>
      <trkpt lat="42.488462000" lon="-2.534844000">
        <ele>380.20</ele>
        <time>2016-10-22T06:11:26Z</time>
      </trkpt>
      <trkpt lat="42.488441000" lon="-2.534795000">
        <ele>380.40</ele>
        <time>2016-10-22T06:11:27Z</time>
      </trkpt>
      <trkpt lat="42.488424000" lon="-2.534742000">
        <ele>380.60</ele>
        <time>2016-10-22T06:11:28Z</time>
      </trkpt>
      <trkpt lat="42.488409000" lon="-2.534691000">
        <ele>380.70</ele>
        <time>2016-10-22T06:11:29Z</time>
      </trkpt>
      <trkpt lat="42.488392000" lon="-2.534643000">
        <ele>380.80</ele>
        <time>2016-10-22T06:11:30Z</time>
      </trkpt>
      <trkpt lat="42.488367000" lon="-2.534596000">
        <ele>380.80</ele>
        <time>2016-10-22T06:11:31Z</time>
      </trkpt>
      <trkpt lat="42.488341000" lon="-2.534547000">
        <ele>380.90</ele>
        <time>2016-10-22T06:11:32Z</time>
      </trkpt>
      <trkpt lat="42.488297000" lon="-2.534451000">
        <ele>380.70</ele>
        <time>2016-10-22T06:11:34Z</time>
      </trkpt>
      <trkpt lat="42.488274000" lon="-2.534401000">
        <ele>380.60</ele>
        <time>2016-10-22T06:11:35Z</time>
      </trkpt>
      <trkpt lat="42.488255000" lon="-2.534349000">
        <ele>380.40</ele>
        <time>2016-10-22T06:11:36Z</time>
      </trkpt>
      <trkpt lat="42.488235000" lon="-2.534296000">
        <ele>380.30</ele>
        <time>2016-10-22T06:11:37Z</time>
      </trkpt>
      <trkpt lat="42.488214000" lon="-2.534245000">
        <ele>380.30</ele>
        <time>2016-10-22T06:11:38Z</time>
      </trkpt>
      <trkpt lat="42.488195000" lon="-2.534189000">
        <ele>380.20</ele>
        <time>2016-10-22T06:11:39Z</time>
      </trkpt>
      <trkpt lat="42.488177000" lon="-2.534136000">
        <ele>380.20</ele>
        <time>2016-10-22T06:11:40Z</time>
      </trkpt>
      <trkpt lat="42.488166000" lon="-2.534078000">
        <ele>380.20</ele>
        <time>2016-10-22T06:11:41Z</time>
      </trkpt>
      <trkpt lat="42.488150000" lon="-2.534025000">
        <ele>380.20</ele>
        <time>2016-10-22T06:11:42Z</time>
      </trkpt>
      <trkpt lat="42.488136000" lon="-2.533971000">
        <ele>380.20</ele>
        <time>2016-10-22T06:11:43Z</time>
      </trkpt>
      <trkpt lat="42.488122000" lon="-2.533917000">
        <ele>380.10</ele>
        <time>2016-10-22T06:11:44Z</time>
      </trkpt>
      <trkpt lat="42.488109000" lon="-2.533868000">
        <ele>380.10</ele>
        <time>2016-10-22T06:11:45Z</time>
      </trkpt>
      <trkpt lat="42.488096000" lon="-2.533821000">
        <ele>380.10</ele>
        <time>2016-10-22T06:11:46Z</time>
      </trkpt>
      <trkpt lat="42.488080000" lon="-2.533778000">
        <ele>380.00</ele>
        <time>2016-10-22T06:11:47Z</time>
      </trkpt>
      <trkpt lat="42.488066000" lon="-2.533731000">
        <ele>379.90</ele>
        <time>2016-10-22T06:11:48Z</time>
      </trkpt>
      <trkpt lat="42.488056000" lon="-2.533685000">
        <ele>379.90</ele>
        <time>2016-10-22T06:11:49Z</time>
      </trkpt>
      <trkpt lat="42.488047000" lon="-2.533640000">
        <ele>380.00</ele>
        <time>2016-10-22T06:11:50Z</time>
      </trkpt>
      <trkpt lat="42.488036000" lon="-2.533598000">
        <ele>379.90</ele>
        <time>2016-10-22T06:11:51Z</time>
      </trkpt>
      <trkpt lat="42.488023000" lon="-2.533557000">
        <ele>379.90</ele>
        <time>2016-10-22T06:11:52Z</time>
      </trkpt>
      <trkpt lat="42.488010000" lon="-2.533515000">
        <ele>380.00</ele>
        <time>2016-10-22T06:11:53Z</time>
      </trkpt>
      <trkpt lat="42.487998000" lon="-2.533470000">
        <ele>380.10</ele>
        <time>2016-10-22T06:11:54Z</time>
      </trkpt>
      <trkpt lat="42.487986000" lon="-2.533423000">
        <ele>380.00</ele>
        <time>2016-10-22T06:11:55Z</time>
      </trkpt>
      <trkpt lat="42.487977000" lon="-2.533374000">
        <ele>380.00</ele>
        <time>2016-10-22T06:11:56Z</time>
      </trkpt>
      <trkpt lat="42.487970000" lon="-2.533328000">
        <ele>379.90</ele>
        <time>2016-10-22T06:11:57Z</time>
      </trkpt>
      <trkpt lat="42.487959000" lon="-2.533283000">
        <ele>379.80</ele>
        <time>2016-10-22T06:11:58Z</time>
      </trkpt>
      <trkpt lat="42.487948000" lon="-2.533241000">
        <ele>379.80</ele>
        <time>2016-10-22T06:11:59Z</time>
      </trkpt>
      <trkpt lat="42.487935000" lon="-2.533200000">
        <ele>379.70</ele>
        <time>2016-10-22T06:12:00Z</time>
      </trkpt>
      <trkpt lat="42.487918000" lon="-2.533162000">
        <ele>379.70</ele>
        <time>2016-10-22T06:12:01Z</time>
      </trkpt>
      <trkpt lat="42.487904000" lon="-2.533124000">
        <ele>379.70</ele>
        <time>2016-10-22T06:12:02Z</time>
      </trkpt>
      <trkpt lat="42.487891000" lon="-2.533086000">
        <ele>379.70</ele>
        <time>2016-10-22T06:12:03Z</time>
      </trkpt>
      <trkpt lat="42.487878000" lon="-2.533044000">
        <ele>379.70</ele>
        <time>2016-10-22T06:12:04Z</time>
      </trkpt>
      <trkpt lat="42.487865000" lon="-2.533002000">
        <ele>379.60</ele>
        <time>2016-10-22T06:12:05Z</time>
      </trkpt>
      <trkpt lat="42.487854000" lon="-2.532960000">
        <ele>379.60</ele>
        <time>2016-10-22T06:12:06Z</time>
      </trkpt>
      <trkpt lat="42.487842000" lon="-2.532919000">
        <ele>379.50</ele>
        <time>2016-10-22T06:12:07Z</time>
      </trkpt>
      <trkpt lat="42.487830000" lon="-2.532880000">
        <ele>379.50</ele>
        <time>2016-10-22T06:12:08Z</time>
      </trkpt>
      <trkpt lat="42.487818000" lon="-2.532841000">
        <ele>379.50</ele>
        <time>2016-10-22T06:12:09Z</time>
      </trkpt>
      <trkpt lat="42.487808000" lon="-2.532801000">
        <ele>379.50</ele>
        <time>2016-10-22T06:12:10Z</time>
      </trkpt>
      <trkpt lat="42.487799000" lon="-2.532761000">
        <ele>379.70</ele>
        <time>2016-10-22T06:12:11Z</time>
      </trkpt>
      <trkpt lat="42.487787000" lon="-2.532724000">
        <ele>379.80</ele>
        <time>2016-10-22T06:12:12Z</time>
      </trkpt>
      <trkpt lat="42.487771000" lon="-2.532690000">
        <ele>379.80</ele>
        <time>2016-10-22T06:12:13Z</time>
      </trkpt>
      <trkpt lat="42.487757000" lon="-2.532653000">
        <ele>379.90</ele>
        <time>2016-10-22T06:12:14Z</time>
      </trkpt>
      <trkpt lat="42.487744000" lon="-2.532619000">
        <ele>379.90</ele>
        <time>2016-10-22T06:12:15Z</time>
      </trkpt>
      <trkpt lat="42.487733000" lon="-2.532581000">
        <ele>379.90</ele>
        <time>2016-10-22T06:12:16Z</time>
      </trkpt>
      <trkpt lat="42.487722000" lon="-2.532541000">
        <ele>379.90</ele>
        <time>2016-10-22T06:12:17Z</time>
      </trkpt>
      <trkpt lat="42.487711000" lon="-2.532503000">
        <ele>379.90</ele>
        <time>2016-10-22T06:12:18Z</time>
      </trkpt>
      <trkpt lat="42.487700000" lon="-2.532463000">
        <ele>379.90</ele>
        <time>2016-10-22T06:12:19Z</time>
      </trkpt>
      <trkpt lat="42.487688000" lon="-2.532425000">
        <ele>379.90</ele>
        <time>2016-10-22T06:12:20Z</time>
      </trkpt>
      <trkpt lat="42.487672000" lon="-2.532388000">
        <ele>380.00</ele>
        <time>2016-10-22T06:12:21Z</time>
      </trkpt>
      <trkpt lat="42.487658000" lon="-2.532355000">
        <ele>380.10</ele>
        <time>2016-10-22T06:12:22Z</time>
      </trkpt>
      <trkpt lat="42.487646000" lon="-2.532318000">
        <ele>380.10</ele>
        <time>2016-10-22T06:12:23Z</time>
      </trkpt>
      <trkpt lat="42.487636000" lon="-2.532282000">
        <ele>380.10</ele>
        <time>2016-10-22T06:12:24Z</time>
      </trkpt>
      <trkpt lat="42.487621000" lon="-2.532243000">
        <ele>380.20</ele>
        <time>2016-10-22T06:12:25Z</time>
      </trkpt>
      <trkpt lat="42.487608000" lon="-2.532205000">
        <ele>380.20</ele>
        <time>2016-10-22T06:12:26Z</time>
      </trkpt>
      <trkpt lat="42.487594000" lon="-2.532169000">
        <ele>380.20</ele>
        <time>2016-10-22T06:12:27Z</time>
      </trkpt>
      <trkpt lat="42.487583000" lon="-2.532131000">
        <ele>380.30</ele>
        <time>2016-10-22T06:12:28Z</time>
      </trkpt>
      <trkpt lat="42.487578000" lon="-2.532091000">
        <ele>380.30</ele>
        <time>2016-10-22T06:12:29Z</time>
      </trkpt>
      <trkpt lat="42.487585000" lon="-2.532053000">
        <ele>380.30</ele>
        <time>2016-10-22T06:12:30Z</time>
      </trkpt>
      <trkpt lat="42.487601000" lon="-2.532018000">
        <ele>380.30</ele>
        <time>2016-10-22T06:12:31Z</time>
      </trkpt>
      <trkpt lat="42.487621000" lon="-2.531994000">
        <ele>380.20</ele>
        <time>2016-10-22T06:12:32Z</time>
      </trkpt>
      <trkpt lat="42.487641000" lon="-2.531965000">
        <ele>380.10</ele>
        <time>2016-10-22T06:12:33Z</time>
      </trkpt>
      <trkpt lat="42.487695000" lon="-2.531929000">
        <ele>379.90</ele>
        <time>2016-10-22T06:12:35Z</time>
      </trkpt>
      <trkpt lat="42.487721000" lon="-2.531914000">
        <ele>379.90</ele>
        <time>2016-10-22T06:12:36Z</time>
      </trkpt>
      <trkpt lat="42.487740000" lon="-2.531900000">
        <ele>380.00</ele>
        <time>2016-10-22T06:12:37Z</time>
      </trkpt>
      <trkpt lat="42.487762000" lon="-2.531884000">
        <ele>380.00</ele>
        <time>2016-10-22T06:12:38Z</time>
      </trkpt>
      <trkpt lat="42.487779000" lon="-2.531856000">
        <ele>380.10</ele>
        <time>2016-10-22T06:12:39Z</time>
      </trkpt>
      <trkpt lat="42.487783000" lon="-2.531828000">
        <ele>380.10</ele>
        <time>2016-10-22T06:12:40Z</time>
      </trkpt>
      <trkpt lat="42.487772000" lon="-2.531805000">
        <ele>380.10</ele>
        <time>2016-10-22T06:12:41Z</time>
      </trkpt>
      <trkpt lat="42.487756000" lon="-2.531781000">
        <ele>380.20</ele>
        <time>2016-10-22T06:12:42Z</time>
      </trkpt>
      <trkpt lat="42.487741000" lon="-2.531757000">
        <ele>380.20</ele>
        <time>2016-10-22T06:12:43Z</time>
      </trkpt>
      <trkpt lat="42.487730000" lon="-2.531727000">
        <ele>380.30</ele>
        <time>2016-10-22T06:12:44Z</time>
      </trkpt>
      <trkpt lat="42.487719000" lon="-2.531698000">
        <ele>380.40</ele>
        <time>2016-10-22T06:12:45Z</time>
      </trkpt>
      <trkpt lat="42.487709000" lon="-2.531669000">
        <ele>380.40</ele>
        <time>2016-10-22T06:12:46Z</time>
      </trkpt>
      <trkpt lat="42.487697000" lon="-2.531639000">
        <ele>380.60</ele>
        <time>2016-10-22T06:12:47Z</time>
      </trkpt>
      <trkpt lat="42.487685000" lon="-2.531606000">
        <ele>380.70</ele>
        <time>2016-10-22T06:12:48Z</time>
      </trkpt>
      <trkpt lat="42.487675000" lon="-2.531571000">
        <ele>380.80</ele>
        <time>2016-10-22T06:12:49Z</time>
      </trkpt>
      <trkpt lat="42.487662000" lon="-2.531538000">
        <ele>380.90</ele>
        <time>2016-10-22T06:12:50Z</time>
      </trkpt>
      <trkpt lat="42.487647000" lon="-2.531504000">
        <ele>380.90</ele>
        <time>2016-10-22T06:12:51Z</time>
      </trkpt>
      <trkpt lat="42.487630000" lon="-2.531473000">
        <ele>381.00</ele>
        <time>2016-10-22T06:12:52Z</time>
      </trkpt>
      <trkpt lat="42.487614000" lon="-2.531439000">
        <ele>381.00</ele>
        <time>2016-10-22T06:12:53Z</time>
      </trkpt>
      <trkpt lat="42.487599000" lon="-2.531405000">
        <ele>381.00</ele>
        <time>2016-10-22T06:12:54Z</time>
      </trkpt>
      <trkpt lat="42.487583000" lon="-2.531366000">
        <ele>381.00</ele>
        <time>2016-10-22T06:12:55Z</time>
      </trkpt>
      <trkpt lat="42.487568000" lon="-2.531326000">
        <ele>381.00</ele>
        <time>2016-10-22T06:12:56Z</time>
      </trkpt>
      <trkpt lat="42.487551000" lon="-2.531287000">
        <ele>381.00</ele>
        <time>2016-10-22T06:12:57Z</time>
      </trkpt>
      <trkpt lat="42.487533000" lon="-2.531247000">
        <ele>381.00</ele>
        <time>2016-10-22T06:12:58Z</time>
      </trkpt>
      <trkpt lat="42.487513000" lon="-2.531204000">
        <ele>381.10</ele>
        <time>2016-10-22T06:12:59Z</time>
      </trkpt>
      <trkpt lat="42.487492000" lon="-2.531163000">
        <ele>381.10</ele>
        <time>2016-10-22T06:13:00Z</time>
      </trkpt>
      <trkpt lat="42.487475000" lon="-2.531118000">
        <ele>381.10</ele>
        <time>2016-10-22T06:13:01Z</time>
      </trkpt>
      <trkpt lat="42.487456000" lon="-2.531070000">
        <ele>381.20</ele>
        <time>2016-10-22T06:13:02Z</time>
      </trkpt>
      <trkpt lat="42.487435000" lon="-2.531019000">
        <ele>381.20</ele>
        <time>2016-10-22T06:13:03Z</time>
      </trkpt>
      <trkpt lat="42.487413000" lon="-2.530969000">
        <ele>381.20</ele>
        <time>2016-10-22T06:13:04Z</time>
      </trkpt>
      <trkpt lat="42.487388000" lon="-2.530926000">
        <ele>381.00</ele>
        <time>2016-10-22T06:13:05Z</time>
      </trkpt>
      <trkpt lat="42.487366000" lon="-2.530880000">
        <ele>380.90</ele>
        <time>2016-10-22T06:13:06Z</time>
      </trkpt>
      <trkpt lat="42.487345000" lon="-2.530830000">
        <ele>380.70</ele>
        <time>2016-10-22T06:13:07Z</time>
      </trkpt>
      <trkpt lat="42.487325000" lon="-2.530780000">
        <ele>380.60</ele>
        <time>2016-10-22T06:13:08Z</time>
      </trkpt>
      <trkpt lat="42.487301000" lon="-2.530729000">
        <ele>380.60</ele>
        <time>2016-10-22T06:13:09Z</time>
      </trkpt>
      <trkpt lat="42.487278000" lon="-2.530683000">
        <ele>380.60</ele>
        <time>2016-10-22T06:13:10Z</time>
      </trkpt>
      <trkpt lat="42.487256000" lon="-2.530636000">
        <ele>380.50</ele>
        <time>2016-10-22T06:13:11Z</time>
      </trkpt>
      <trkpt lat="42.487235000" lon="-2.530588000">
        <ele>380.40</ele>
        <time>2016-10-22T06:13:12Z</time>
      </trkpt>
      <trkpt lat="42.487211000" lon="-2.530542000">
        <ele>380.40</ele>
        <time>2016-10-22T06:13:13Z</time>
      </trkpt>
      <trkpt lat="42.487187000" lon="-2.530495000">
        <ele>380.30</ele>
        <time>2016-10-22T06:13:14Z</time>
      </trkpt>
      <trkpt lat="42.487162000" lon="-2.530447000">
        <ele>380.30</ele>
        <time>2016-10-22T06:13:15Z</time>
      </trkpt>
      <trkpt lat="42.487145000" lon="-2.530400000">
        <ele>380.30</ele>
        <time>2016-10-22T06:13:16Z</time>
      </trkpt>
      <trkpt lat="42.487123000" lon="-2.530353000">
        <ele>380.30</ele>
        <time>2016-10-22T06:13:17Z</time>
      </trkpt>
      <trkpt lat="42.487105000" lon="-2.530308000">
        <ele>380.30</ele>
        <time>2016-10-22T06:13:18Z</time>
      </trkpt>
      <trkpt lat="42.487083000" lon="-2.530257000">
        <ele>380.30</ele>
        <time>2016-10-22T06:13:19Z</time>
      </trkpt>
      <trkpt lat="42.487057000" lon="-2.530214000">
        <ele>380.30</ele>
        <time>2016-10-22T06:13:20Z</time>
      </trkpt>
      <trkpt lat="42.487035000" lon="-2.530168000">
        <ele>380.40</ele>
        <time>2016-10-22T06:13:21Z</time>
      </trkpt>
      <trkpt lat="42.487016000" lon="-2.530121000">
        <ele>380.40</ele>
        <time>2016-10-22T06:13:22Z</time>
      </trkpt>
      <trkpt lat="42.486993000" lon="-2.530073000">
        <ele>380.50</ele>
        <time>2016-10-22T06:13:23Z</time>
      </trkpt>
      <trkpt lat="42.486969000" lon="-2.530025000">
        <ele>380.50</ele>
        <time>2016-10-22T06:13:24Z</time>
      </trkpt>
      <trkpt lat="42.486946000" lon="-2.529977000">
        <ele>380.50</ele>
        <time>2016-10-22T06:13:25Z</time>
      </trkpt>
      <trkpt lat="42.486922000" lon="-2.529936000">
        <ele>380.50</ele>
        <time>2016-10-22T06:13:26Z</time>
      </trkpt>
      <trkpt lat="42.486897000" lon="-2.529895000">
        <ele>380.60</ele>
        <time>2016-10-22T06:13:27Z</time>
      </trkpt>
      <trkpt lat="42.486871000" lon="-2.529854000">
        <ele>380.70</ele>
        <time>2016-10-22T06:13:28Z</time>
      </trkpt>
      <trkpt lat="42.486847000" lon="-2.529816000">
        <ele>380.80</ele>
        <time>2016-10-22T06:13:29Z</time>
      </trkpt>
      <trkpt lat="42.486821000" lon="-2.529780000">
        <ele>380.80</ele>
        <time>2016-10-22T06:13:30Z</time>
      </trkpt>
      <trkpt lat="42.486795000" lon="-2.529745000">
        <ele>380.90</ele>
        <time>2016-10-22T06:13:31Z</time>
      </trkpt>
      <trkpt lat="42.486768000" lon="-2.529712000">
        <ele>380.90</ele>
        <time>2016-10-22T06:13:32Z</time>
      </trkpt>
      <trkpt lat="42.486738000" lon="-2.529684000">
        <ele>381.00</ele>
        <time>2016-10-22T06:13:33Z</time>
      </trkpt>
      <trkpt lat="42.486703000" lon="-2.529651000">
        <ele>381.10</ele>
        <time>2016-10-22T06:13:34Z</time>
      </trkpt>
      <trkpt lat="42.486668000" lon="-2.529618000">
        <ele>381.20</ele>
        <time>2016-10-22T06:13:35Z</time>
      </trkpt>
      <trkpt lat="42.486605000" lon="-2.529550000">
        <ele>381.50</ele>
        <time>2016-10-22T06:13:37Z</time>
      </trkpt>
      <trkpt lat="42.486574000" lon="-2.529513000">
        <ele>381.70</ele>
        <time>2016-10-22T06:13:38Z</time>
      </trkpt>
      <trkpt lat="42.486543000" lon="-2.529478000">
        <ele>381.80</ele>
        <time>2016-10-22T06:13:39Z</time>
      </trkpt>
      <trkpt lat="42.486519000" lon="-2.529433000">
        <ele>381.90</ele>
        <time>2016-10-22T06:13:40Z</time>
      </trkpt>
      <trkpt lat="42.486489000" lon="-2.529398000">
        <ele>382.00</ele>
        <time>2016-10-22T06:13:41Z</time>
      </trkpt>
      <trkpt lat="42.486458000" lon="-2.529366000">
        <ele>382.10</ele>
        <time>2016-10-22T06:13:42Z</time>
      </trkpt>
      <trkpt lat="42.486428000" lon="-2.529333000">
        <ele>382.10</ele>
        <time>2016-10-22T06:13:43Z</time>
      </trkpt>
      <trkpt lat="42.486399000" lon="-2.529300000">
        <ele>382.20</ele>
        <time>2016-10-22T06:13:44Z</time>
      </trkpt>
      <trkpt lat="42.486370000" lon="-2.529268000">
        <ele>382.20</ele>
        <time>2016-10-22T06:13:45Z</time>
      </trkpt>
      <trkpt lat="42.486346000" lon="-2.529239000">
        <ele>382.20</ele>
        <time>2016-10-22T06:13:46Z</time>
      </trkpt>
      <trkpt lat="42.486321000" lon="-2.529216000">
        <ele>382.40</ele>
        <time>2016-10-22T06:13:47Z</time>
      </trkpt>
      <trkpt lat="42.486298000" lon="-2.529193000">
        <ele>382.50</ele>
        <time>2016-10-22T06:13:48Z</time>
      </trkpt>
      <trkpt lat="42.486274000" lon="-2.529172000">
        <ele>382.80</ele>
        <time>2016-10-22T06:13:49Z</time>
      </trkpt>
      <trkpt lat="42.486254000" lon="-2.529150000">
        <ele>383.00</ele>
        <time>2016-10-22T06:13:50Z</time>
      </trkpt>
      <trkpt lat="42.486236000" lon="-2.529130000">
        <ele>383.10</ele>
        <time>2016-10-22T06:13:51Z</time>
      </trkpt>
      <trkpt lat="42.486213000" lon="-2.529113000">
        <ele>383.20</ele>
        <time>2016-10-22T06:13:52Z</time>
      </trkpt>
      <trkpt lat="42.486191000" lon="-2.529091000">
        <ele>383.40</ele>
        <time>2016-10-22T06:13:53Z</time>
      </trkpt>
      <trkpt lat="42.486165000" lon="-2.529069000">
        <ele>383.50</ele>
        <time>2016-10-22T06:13:54Z</time>
      </trkpt>
      <trkpt lat="42.486141000" lon="-2.529045000">
        <ele>383.60</ele>
        <time>2016-10-22T06:13:55Z</time>
      </trkpt>
      <trkpt lat="42.486113000" lon="-2.529021000">
        <ele>383.70</ele>
        <time>2016-10-22T06:13:56Z</time>
      </trkpt>
      <trkpt lat="42.486084000" lon="-2.528996000">
        <ele>383.80</ele>
        <time>2016-10-22T06:13:57Z</time>
      </trkpt>
      <trkpt lat="42.486058000" lon="-2.528970000">
        <ele>383.90</ele>
        <time>2016-10-22T06:13:58Z</time>
      </trkpt>
      <trkpt lat="42.486029000" lon="-2.528947000">
        <ele>383.90</ele>
        <time>2016-10-22T06:13:59Z</time>
      </trkpt>
      <trkpt lat="42.485997000" lon="-2.528923000">
        <ele>384.00</ele>
        <time>2016-10-22T06:14:00Z</time>
      </trkpt>
      <trkpt lat="42.485966000" lon="-2.528901000">
        <ele>384.00</ele>
        <time>2016-10-22T06:14:01Z</time>
      </trkpt>
      <trkpt lat="42.485936000" lon="-2.528877000">
        <ele>384.00</ele>
        <time>2016-10-22T06:14:02Z</time>
      </trkpt>
      <trkpt lat="42.485907000" lon="-2.528853000">
        <ele>384.00</ele>
        <time>2016-10-22T06:14:03Z</time>
      </trkpt>
      <trkpt lat="42.485878000" lon="-2.528827000">
        <ele>384.00</ele>
        <time>2016-10-22T06:14:04Z</time>
      </trkpt>
      <trkpt lat="42.485851000" lon="-2.528799000">
        <ele>383.90</ele>
        <time>2016-10-22T06:14:05Z</time>
      </trkpt>
      <trkpt lat="42.485824000" lon="-2.528771000">
        <ele>383.90</ele>
        <time>2016-10-22T06:14:06Z</time>
      </trkpt>
      <trkpt lat="42.485799000" lon="-2.528744000">
        <ele>383.80</ele>
        <time>2016-10-22T06:14:07Z</time>
      </trkpt>
      <trkpt lat="42.485768000" lon="-2.528721000">
        <ele>383.80</ele>
        <time>2016-10-22T06:14:08Z</time>
      </trkpt>
      <trkpt lat="42.485737000" lon="-2.528699000">
        <ele>383.80</ele>
        <time>2016-10-22T06:14:09Z</time>
      </trkpt>
      <trkpt lat="42.485707000" lon="-2.528675000">
        <ele>383.90</ele>
        <time>2016-10-22T06:14:10Z</time>
      </trkpt>
      <trkpt lat="42.485677000" lon="-2.528650000">
        <ele>383.90</ele>
        <time>2016-10-22T06:14:11Z</time>
      </trkpt>
      <trkpt lat="42.485647000" lon="-2.528624000">
        <ele>384.00</ele>
        <time>2016-10-22T06:14:12Z</time>
      </trkpt>
      <trkpt lat="42.485616000" lon="-2.528596000">
        <ele>384.00</ele>
        <time>2016-10-22T06:14:13Z</time>
      </trkpt>
      <trkpt lat="42.485580000" lon="-2.528576000">
        <ele>384.00</ele>
        <time>2016-10-22T06:14:14Z</time>
      </trkpt>
      <trkpt lat="42.485538000" lon="-2.528557000">
        <ele>384.30</ele>
        <time>2016-10-22T06:14:15Z</time>
      </trkpt>
      <trkpt lat="42.485496000" lon="-2.528541000">
        <ele>384.50</ele>
        <time>2016-10-22T06:14:16Z</time>
      </trkpt>
      <trkpt lat="42.485453000" lon="-2.528526000">
        <ele>384.50</ele>
        <time>2016-10-22T06:14:17Z</time>
      </trkpt>
      <trkpt lat="42.485415000" lon="-2.528506000">
        <ele>384.50</ele>
        <time>2016-10-22T06:14:18Z</time>
      </trkpt>
      <trkpt lat="42.485373000" lon="-2.528482000">
        <ele>384.50</ele>
        <time>2016-10-22T06:14:19Z</time>
      </trkpt>
      <trkpt lat="42.485331000" lon="-2.528463000">
        <ele>384.50</ele>
        <time>2016-10-22T06:14:20Z</time>
      </trkpt>
      <trkpt lat="42.485298000" lon="-2.528435000">
        <ele>384.50</ele>
        <time>2016-10-22T06:14:21Z</time>
      </trkpt>
      <trkpt lat="42.485260000" lon="-2.528417000">
        <ele>384.40</ele>
        <time>2016-10-22T06:14:22Z</time>
      </trkpt>
      <trkpt lat="42.485224000" lon="-2.528403000">
        <ele>384.30</ele>
        <time>2016-10-22T06:14:23Z</time>
      </trkpt>
      <trkpt lat="42.485184000" lon="-2.528379000">
        <ele>384.30</ele>
        <time>2016-10-22T06:14:24Z</time>
      </trkpt>
      <trkpt lat="42.485137000" lon="-2.528355000">
        <ele>384.10</ele>
        <time>2016-10-22T06:14:25Z</time>
      </trkpt>
      <trkpt lat="42.485089000" lon="-2.528328000">
        <ele>383.90</ele>
        <time>2016-10-22T06:14:26Z</time>
      </trkpt>
      <trkpt lat="42.485037000" lon="-2.528304000">
        <ele>383.80</ele>
        <time>2016-10-22T06:14:27Z</time>
      </trkpt>
      <trkpt lat="42.484988000" lon="-2.528285000">
        <ele>383.70</ele>
        <time>2016-10-22T06:14:28Z</time>
      </trkpt>
      <trkpt lat="42.484940000" lon="-2.528268000">
        <ele>383.70</ele>
        <time>2016-10-22T06:14:29Z</time>
      </trkpt>
      <trkpt lat="42.484889000" lon="-2.528249000">
        <ele>383.60</ele>
        <time>2016-10-22T06:14:30Z</time>
      </trkpt>
      <trkpt lat="42.484838000" lon="-2.528235000">
        <ele>383.60</ele>
        <time>2016-10-22T06:14:31Z</time>
      </trkpt>
      <trkpt lat="42.484788000" lon="-2.528215000">
        <ele>383.60</ele>
        <time>2016-10-22T06:14:32Z</time>
      </trkpt>
      <trkpt lat="42.484739000" lon="-2.528199000">
        <ele>383.50</ele>
        <time>2016-10-22T06:14:33Z</time>
      </trkpt>
      <trkpt lat="42.484690000" lon="-2.528184000">
        <ele>383.40</ele>
        <time>2016-10-22T06:14:34Z</time>
      </trkpt>
      <trkpt lat="42.484642000" lon="-2.528166000">
        <ele>383.40</ele>
        <time>2016-10-22T06:14:35Z</time>
      </trkpt>
      <trkpt lat="42.484596000" lon="-2.528146000">
        <ele>383.40</ele>
        <time>2016-10-22T06:14:36Z</time>
      </trkpt>
      <trkpt lat="42.484517000" lon="-2.528082000">
        <ele>383.30</ele>
        <time>2016-10-22T06:14:38Z</time>
      </trkpt>
      <trkpt lat="42.484487000" lon="-2.528037000">
        <ele>383.30</ele>
        <time>2016-10-22T06:14:39Z</time>
      </trkpt>
      <trkpt lat="42.484464000" lon="-2.527987000">
        <ele>383.30</ele>
        <time>2016-10-22T06:14:40Z</time>
      </trkpt>
      <trkpt lat="42.484444000" lon="-2.527934000">
        <ele>383.30</ele>
        <time>2016-10-22T06:14:41Z</time>
      </trkpt>
      <trkpt lat="42.484426000" lon="-2.527881000">
        <ele>383.20</ele>
        <time>2016-10-22T06:14:42Z</time>
      </trkpt>
      <trkpt lat="42.484408000" lon="-2.527823000">
        <ele>383.20</ele>
        <time>2016-10-22T06:14:43Z</time>
      </trkpt>
      <trkpt lat="42.484390000" lon="-2.527765000">
        <ele>383.20</ele>
        <time>2016-10-22T06:14:44Z</time>
      </trkpt>
      <trkpt lat="42.484370000" lon="-2.527714000">
        <ele>383.30</ele>
        <time>2016-10-22T06:14:45Z</time>
      </trkpt>
      <trkpt lat="42.484353000" lon="-2.527667000">
        <ele>383.50</ele>
        <time>2016-10-22T06:14:46Z</time>
      </trkpt>
      <trkpt lat="42.484331000" lon="-2.527621000">
        <ele>383.60</ele>
        <time>2016-10-22T06:14:47Z</time>
      </trkpt>
      <trkpt lat="42.484308000" lon="-2.527572000">
        <ele>383.80</ele>
        <time>2016-10-22T06:14:48Z</time>
      </trkpt>
      <trkpt lat="42.484287000" lon="-2.527521000">
        <ele>383.80</ele>
        <time>2016-10-22T06:14:49Z</time>
      </trkpt>
      <trkpt lat="42.484265000" lon="-2.527475000">
        <ele>383.90</ele>
        <time>2016-10-22T06:14:50Z</time>
      </trkpt>
      <trkpt lat="42.484240000" lon="-2.527430000">
        <ele>384.20</ele>
        <time>2016-10-22T06:14:51Z</time>
      </trkpt>
      <trkpt lat="42.484215000" lon="-2.527386000">
        <ele>384.30</ele>
        <time>2016-10-22T06:14:52Z</time>
      </trkpt>
      <trkpt lat="42.484188000" lon="-2.527345000">
        <ele>384.50</ele>
        <time>2016-10-22T06:14:53Z</time>
      </trkpt>
      <trkpt lat="42.484157000" lon="-2.527311000">
        <ele>384.70</ele>
        <time>2016-10-22T06:14:54Z</time>
      </trkpt>
      <trkpt lat="42.484128000" lon="-2.527278000">
        <ele>384.90</ele>
        <time>2016-10-22T06:14:55Z</time>
      </trkpt>
      <trkpt lat="42.484097000" lon="-2.527245000">
        <ele>385.10</ele>
        <time>2016-10-22T06:14:56Z</time>
      </trkpt>
      <trkpt lat="42.484067000" lon="-2.527215000">
        <ele>385.70</ele>
        <time>2016-10-22T06:14:57Z</time>
      </trkpt>
      <trkpt lat="42.484037000" lon="-2.527185000">
        <ele>386.20</ele>
        <time>2016-10-22T06:14:58Z</time>
      </trkpt>
      <trkpt lat="42.484010000" lon="-2.527156000">
        <ele>386.60</ele>
        <time>2016-10-22T06:14:59Z</time>
      </trkpt>
      <trkpt lat="42.483985000" lon="-2.527129000">
        <ele>387.00</ele>
        <time>2016-10-22T06:15:00Z</time>
      </trkpt>
      <trkpt lat="42.483962000" lon="-2.527104000">
        <ele>387.70</ele>
        <time>2016-10-22T06:15:01Z</time>
      </trkpt>
      <trkpt lat="42.483942000" lon="-2.527086000">
        <ele>388.30</ele>
        <time>2016-10-22T06:15:02Z</time>
      </trkpt>
      <trkpt lat="42.483927000" lon="-2.527067000">
        <ele>388.80</ele>
        <time>2016-10-22T06:15:03Z</time>
      </trkpt>
      <trkpt lat="42.483909000" lon="-2.527054000">
        <ele>389.20</ele>
        <time>2016-10-22T06:15:04Z</time>
      </trkpt>
      <trkpt lat="42.483893000" lon="-2.527044000">
        <ele>389.50</ele>
        <time>2016-10-22T06:15:05Z</time>
      </trkpt>
      <trkpt lat="42.483878000" lon="-2.527038000">
        <ele>389.80</ele>
        <time>2016-10-22T06:15:06Z</time>
      </trkpt>
      <trkpt lat="42.483862000" lon="-2.527039000">
        <ele>390.00</ele>
        <time>2016-10-22T06:15:07Z</time>
      </trkpt>
      <trkpt lat="42.483848000" lon="-2.527039000">
        <ele>390.20</ele>
        <time>2016-10-22T06:15:08Z</time>
      </trkpt>
      <trkpt lat="42.483835000" lon="-2.527038000">
        <ele>390.20</ele>
        <time>2016-10-22T06:15:09Z</time>
      </trkpt>
      <trkpt lat="42.483834000" lon="-2.527036000">
        <ele>390.30</ele>
        <time>2016-10-22T06:15:10Z</time>
      </trkpt>
      <trkpt lat="42.483834000" lon="-2.527036000">
        <ele>390.30</ele>
        <time>2016-10-22T06:15:11Z</time>
      </trkpt>
      <trkpt lat="42.483834000" lon="-2.527036000">
        <ele>390.40</ele>
        <time>2016-10-22T06:15:12Z</time>
      </trkpt>
      <trkpt lat="42.483834000" lon="-2.527036000">
        <ele>390.40</ele>
        <time>2016-10-22T06:15:13Z</time>
      </trkpt>
      <trkpt lat="42.483826000" lon="-2.527039000">
        <ele>390.40</ele>
        <time>2016-10-22T06:15:14Z</time>
      </trkpt>
      <trkpt lat="42.483826000" lon="-2.527039000">
        <ele>390.50</ele>
        <time>2016-10-22T06:15:15Z</time>
      </trkpt>
      <trkpt lat="42.483826000" lon="-2.527039000">
        <ele>390.50</ele>
        <time>2016-10-22T06:15:16Z</time>
      </trkpt>
      <trkpt lat="42.483826000" lon="-2.527039000">
        <ele>390.60</ele>
        <time>2016-10-22T06:15:17Z</time>
      </trkpt>
      <trkpt lat="42.483826000" lon="-2.527039000">
        <ele>390.60</ele>
        <time>2016-10-22T06:15:18Z</time>
      </trkpt>
      <trkpt lat="42.483826000" lon="-2.527039000">
        <ele>390.60</ele>
        <time>2016-10-22T06:15:19Z</time>
      </trkpt>
      <trkpt lat="42.483826000" lon="-2.527039000">
        <ele>390.70</ele>
        <time>2016-10-22T06:15:20Z</time>
      </trkpt>
      <trkpt lat="42.483826000" lon="-2.527039000">
        <ele>390.60</ele>
        <time>2016-10-22T06:15:21Z</time>
      </trkpt>
      <trkpt lat="42.483826000" lon="-2.527039000">
        <ele>390.60</ele>
        <time>2016-10-22T06:15:22Z</time>
      </trkpt>
      <trkpt lat="42.483826000" lon="-2.527039000">
        <ele>390.50</ele>
        <time>2016-10-22T06:15:23Z</time>
      </trkpt>
      <trkpt lat="42.483826000" lon="-2.527039000">
        <ele>390.50</ele>
        <time>2016-10-22T06:15:24Z</time>
      </trkpt>
      <trkpt lat="42.483826000" lon="-2.527039000">
        <ele>390.60</ele>
        <time>2016-10-22T06:15:25Z</time>
      </trkpt>
      <trkpt lat="42.483826000" lon="-2.527039000">
        <ele>390.70</ele>
        <time>2016-10-22T06:15:26Z</time>
      </trkpt>
      <trkpt lat="42.483826000" lon="-2.527039000">
        <ele>390.80</ele>
        <time>2016-10-22T06:15:27Z</time>
      </trkpt>
      <trkpt lat="42.483826000" lon="-2.527039000">
        <ele>390.80</ele>
        <time>2016-10-22T06:15:28Z</time>
      </trkpt>
      <trkpt lat="42.483826000" lon="-2.527039000">
        <ele>390.80</ele>
        <time>2016-10-22T06:15:29Z</time>
      </trkpt>
      <trkpt lat="42.483826000" lon="-2.527039000">
        <ele>390.90</ele>
        <time>2016-10-22T06:15:30Z</time>
      </trkpt>
      <trkpt lat="42.483826000" lon="-2.527039000">
        <ele>390.70</ele>
        <time>2016-10-22T06:15:31Z</time>
      </trkpt>
      <trkpt lat="42.483826000" lon="-2.527039000">
        <ele>390.60</ele>
        <time>2016-10-22T06:15:32Z</time>
      </trkpt>
      <trkpt lat="42.483826000" lon="-2.527039000">
        <ele>390.50</ele>
        <time>2016-10-22T06:15:33Z</time>
      </trkpt>
      <trkpt lat="42.483826000" lon="-2.527039000">
        <ele>390.40</ele>
        <time>2016-10-22T06:15:34Z</time>
      </trkpt>
      <trkpt lat="42.483826000" lon="-2.527039000">
        <ele>390.50</ele>
        <time>2016-10-22T06:15:35Z</time>
      </trkpt>
      <trkpt lat="42.483826000" lon="-2.527039000">
        <ele>390.50</ele>
        <time>2016-10-22T06:15:36Z</time>
      </trkpt>
      <trkpt lat="42.483826000" lon="-2.527039000">
        <ele>390.50</ele>
        <time>2016-10-22T06:15:37Z</time>
      </trkpt>
      <trkpt lat="42.483826000" lon="-2.527039000">
        <ele>390.50</ele>
        <time>2016-10-22T06:15:39Z</time>
      </trkpt>
      <trkpt lat="42.483826000" lon="-2.527039000">
        <ele>390.50</ele>
        <time>2016-10-22T06:15:40Z</time>
      </trkpt>
      <trkpt lat="42.483826000" lon="-2.527039000">
        <ele>390.40</ele>
        <time>2016-10-22T06:15:41Z</time>
      </trkpt>
      <trkpt lat="42.483826000" lon="-2.527039000">
        <ele>390.30</ele>
        <time>2016-10-22T06:15:42Z</time>
      </trkpt>
      <trkpt lat="42.483826000" lon="-2.527039000">
        <ele>390.30</ele>
        <time>2016-10-22T06:15:43Z</time>
      </trkpt>
      <trkpt lat="42.483826000" lon="-2.527039000">
        <ele>390.30</ele>
        <time>2016-10-22T06:15:44Z</time>
      </trkpt>
      <trkpt lat="42.483826000" lon="-2.527039000">
        <ele>390.30</ele>
        <time>2016-10-22T06:15:45Z</time>
      </trkpt>
      <trkpt lat="42.483826000" lon="-2.527039000">
        <ele>390.20</ele>
        <time>2016-10-22T06:15:46Z</time>
      </trkpt>
      <trkpt lat="42.483826000" lon="-2.527039000">
        <ele>390.30</ele>
        <time>2016-10-22T06:15:47Z</time>
      </trkpt>
      <trkpt lat="42.483826000" lon="-2.527039000">
        <ele>390.30</ele>
        <time>2016-10-22T06:15:48Z</time>
      </trkpt>
      <trkpt lat="42.483826000" lon="-2.527039000">
        <ele>390.30</ele>
        <time>2016-10-22T06:15:49Z</time>
      </trkpt>
      <trkpt lat="42.483826000" lon="-2.527039000">
        <ele>390.30</ele>
        <time>2016-10-22T06:15:50Z</time>
      </trkpt>
      <trkpt lat="42.483826000" lon="-2.527039000">
        <ele>390.30</ele>
        <time>2016-10-22T06:15:51Z</time>
      </trkpt>
      <trkpt lat="42.483826000" lon="-2.527039000">
        <ele>390.30</ele>
        <time>2016-10-22T06:15:52Z</time>
      </trkpt>
      <trkpt lat="42.483826000" lon="-2.527039000">
        <ele>390.40</ele>
        <time>2016-10-22T06:15:53Z</time>
      </trkpt>
      <trkpt lat="42.483824000" lon="-2.527036000">
        <ele>390.50</ele>
        <time>2016-10-22T06:15:54Z</time>
      </trkpt>
      <trkpt lat="42.483824000" lon="-2.527036000">
        <ele>390.50</ele>
        <time>2016-10-22T06:15:55Z</time>
      </trkpt>
      <trkpt lat="42.483824000" lon="-2.527036000">
        <ele>390.50</ele>
        <time>2016-10-22T06:15:56Z</time>
      </trkpt>
      <trkpt lat="42.483824000" lon="-2.527036000">
        <ele>390.60</ele>
        <time>2016-10-22T06:15:57Z</time>
      </trkpt>
      <trkpt lat="42.483824000" lon="-2.527036000">
        <ele>390.60</ele>
        <time>2016-10-22T06:15:58Z</time>
      </trkpt>
      <trkpt lat="42.483824000" lon="-2.527036000">
        <ele>390.60</ele>
        <time>2016-10-22T06:15:59Z</time>
      </trkpt>
      <trkpt lat="42.483824000" lon="-2.527036000">
        <ele>390.60</ele>
        <time>2016-10-22T06:16:00Z</time>
      </trkpt>
      <trkpt lat="42.483824000" lon="-2.527036000">
        <ele>390.60</ele>
        <time>2016-10-22T06:16:01Z</time>
      </trkpt>
      <trkpt lat="42.483824000" lon="-2.527036000">
        <ele>390.60</ele>
        <time>2016-10-22T06:16:02Z</time>
      </trkpt>
      <trkpt lat="42.483824000" lon="-2.527036000">
        <ele>390.60</ele>
        <time>2016-10-22T06:16:03Z</time>
      </trkpt>
      <trkpt lat="42.483824000" lon="-2.527036000">
        <ele>390.60</ele>
        <time>2016-10-22T06:16:04Z</time>
      </trkpt>
      <trkpt lat="42.483824000" lon="-2.527036000">
        <ele>390.60</ele>
        <time>2016-10-22T06:16:05Z</time>
      </trkpt>
      <trkpt lat="42.483824000" lon="-2.527036000">
        <ele>390.60</ele>
        <time>2016-10-22T06:16:06Z</time>
      </trkpt>
      <trkpt lat="42.483824000" lon="-2.527036000">
        <ele>390.60</ele>
        <time>2016-10-22T06:16:07Z</time>
      </trkpt>
      <trkpt lat="42.483824000" lon="-2.527036000">
        <ele>390.60</ele>
        <time>2016-10-22T06:16:08Z</time>
      </trkpt>
      <trkpt lat="42.483824000" lon="-2.527036000">
        <ele>390.80</ele>
        <time>2016-10-22T06:16:09Z</time>
      </trkpt>
      <trkpt lat="42.483824000" lon="-2.527036000">
        <ele>390.90</ele>
        <time>2016-10-22T06:16:10Z</time>
      </trkpt>
      <trkpt lat="42.483824000" lon="-2.527036000">
        <ele>391.00</ele>
        <time>2016-10-22T06:16:11Z</time>
      </trkpt>
      <trkpt lat="42.483824000" lon="-2.527036000">
        <ele>391.10</ele>
        <time>2016-10-22T06:16:12Z</time>
      </trkpt>
      <trkpt lat="42.483824000" lon="-2.527036000">
        <ele>391.20</ele>
        <time>2016-10-22T06:16:13Z</time>
      </trkpt>
      <trkpt lat="42.483824000" lon="-2.527036000">
        <ele>391.20</ele>
        <time>2016-10-22T06:16:14Z</time>
      </trkpt>
      <trkpt lat="42.483824000" lon="-2.527036000">
        <ele>391.20</ele>
        <time>2016-10-22T06:16:15Z</time>
      </trkpt>
      <trkpt lat="42.483824000" lon="-2.527036000">
        <ele>391.20</ele>
        <time>2016-10-22T06:16:16Z</time>
      </trkpt>
      <trkpt lat="42.483824000" lon="-2.527036000">
        <ele>391.20</ele>
        <time>2016-10-22T06:16:17Z</time>
      </trkpt>
      <trkpt lat="42.483824000" lon="-2.527036000">
        <ele>391.20</ele>
        <time>2016-10-22T06:16:18Z</time>
      </trkpt>
      <trkpt lat="42.483824000" lon="-2.527036000">
        <ele>391.10</ele>
        <time>2016-10-22T06:16:19Z</time>
      </trkpt>
      <trkpt lat="42.483824000" lon="-2.527036000">
        <ele>391.00</ele>
        <time>2016-10-22T06:16:20Z</time>
      </trkpt>
      <trkpt lat="42.483824000" lon="-2.527036000">
        <ele>391.10</ele>
        <time>2016-10-22T06:16:21Z</time>
      </trkpt>
      <trkpt lat="42.483824000" lon="-2.527036000">
        <ele>391.10</ele>
        <time>2016-10-22T06:16:22Z</time>
      </trkpt>
      <trkpt lat="42.483824000" lon="-2.527036000">
        <ele>391.10</ele>
        <time>2016-10-22T06:16:23Z</time>
      </trkpt>
      <trkpt lat="42.483824000" lon="-2.527036000">
        <ele>391.10</ele>
        <time>2016-10-22T06:16:24Z</time>
      </trkpt>
      <trkpt lat="42.483824000" lon="-2.527036000">
        <ele>391.10</ele>
        <time>2016-10-22T06:16:25Z</time>
      </trkpt>
      <trkpt lat="42.483824000" lon="-2.527036000">
        <ele>391.10</ele>
        <time>2016-10-22T06:16:26Z</time>
      </trkpt>
      <trkpt lat="42.483824000" lon="-2.527036000">
        <ele>391.00</ele>
        <time>2016-10-22T06:16:27Z</time>
      </trkpt>
      <trkpt lat="42.483824000" lon="-2.527036000">
        <ele>390.90</ele>
        <time>2016-10-22T06:16:28Z</time>
      </trkpt>
      <trkpt lat="42.483824000" lon="-2.527036000">
        <ele>390.80</ele>
        <time>2016-10-22T06:16:29Z</time>
      </trkpt>
      <trkpt lat="42.483824000" lon="-2.527036000">
        <ele>390.80</ele>
        <time>2016-10-22T06:16:30Z</time>
      </trkpt>
      <trkpt lat="42.483813000" lon="-2.527059000">
        <ele>390.70</ele>
        <time>2016-10-22T06:16:31Z</time>
      </trkpt>
      <trkpt lat="42.483804000" lon="-2.527086000">
        <ele>390.70</ele>
        <time>2016-10-22T06:16:32Z</time>
      </trkpt>
      <trkpt lat="42.483794000" lon="-2.527112000">
        <ele>390.70</ele>
        <time>2016-10-22T06:16:33Z</time>
      </trkpt>
      <trkpt lat="42.483776000" lon="-2.527138000">
        <ele>390.70</ele>
        <time>2016-10-22T06:16:34Z</time>
      </trkpt>
      <trkpt lat="42.483759000" lon="-2.527164000">
        <ele>390.60</ele>
        <time>2016-10-22T06:16:35Z</time>
      </trkpt>
      <trkpt lat="42.483744000" lon="-2.527191000">
        <ele>390.50</ele>
        <time>2016-10-22T06:16:36Z</time>
      </trkpt>
      <trkpt lat="42.483731000" lon="-2.527225000">
        <ele>390.40</ele>
        <time>2016-10-22T06:16:37Z</time>
      </trkpt>
      <trkpt lat="42.483721000" lon="-2.527259000">
        <ele>390.30</ele>
        <time>2016-10-22T06:16:38Z</time>
      </trkpt>
      <trkpt lat="42.483712000" lon="-2.527296000">
        <ele>390.30</ele>
        <time>2016-10-22T06:16:39Z</time>
      </trkpt>
      <trkpt lat="42.483690000" lon="-2.527375000">
        <ele>390.10</ele>
        <time>2016-10-22T06:16:41Z</time>
      </trkpt>
      <trkpt lat="42.483676000" lon="-2.527416000">
        <ele>390.00</ele>
        <time>2016-10-22T06:16:42Z</time>
      </trkpt>
      <trkpt lat="42.483664000" lon="-2.527460000">
        <ele>389.90</ele>
        <time>2016-10-22T06:16:43Z</time>
      </trkpt>
      <trkpt lat="42.483647000" lon="-2.527506000">
        <ele>389.90</ele>
        <time>2016-10-22T06:16:44Z</time>
      </trkpt>
      <trkpt lat="42.483631000" lon="-2.527557000">
        <ele>389.60</ele>
        <time>2016-10-22T06:16:45Z</time>
      </trkpt>
      <trkpt lat="42.483610000" lon="-2.527606000">
        <ele>389.40</ele>
        <time>2016-10-22T06:16:46Z</time>
      </trkpt>
      <trkpt lat="42.483590000" lon="-2.527661000">
        <ele>389.30</ele>
        <time>2016-10-22T06:16:47Z</time>
      </trkpt>
      <trkpt lat="42.483568000" lon="-2.527717000">
        <ele>389.20</ele>
        <time>2016-10-22T06:16:48Z</time>
      </trkpt>
      <trkpt lat="42.483549000" lon="-2.527776000">
        <ele>389.10</ele>
        <time>2016-10-22T06:16:49Z</time>
      </trkpt>
      <trkpt lat="42.483528000" lon="-2.527838000">
        <ele>389.00</ele>
        <time>2016-10-22T06:16:50Z</time>
      </trkpt>
      <trkpt lat="42.483506000" lon="-2.527899000">
        <ele>388.90</ele>
        <time>2016-10-22T06:16:51Z</time>
      </trkpt>
      <trkpt lat="42.483482000" lon="-2.527963000">
        <ele>388.80</ele>
        <time>2016-10-22T06:16:52Z</time>
      </trkpt>
      <trkpt lat="42.483460000" lon="-2.528027000">
        <ele>388.50</ele>
        <time>2016-10-22T06:16:53Z</time>
      </trkpt>
      <trkpt lat="42.483437000" lon="-2.528090000">
        <ele>388.30</ele>
        <time>2016-10-22T06:16:54Z</time>
      </trkpt>
      <trkpt lat="42.483414000" lon="-2.528152000">
        <ele>388.10</ele>
        <time>2016-10-22T06:16:55Z</time>
      </trkpt>
      <trkpt lat="42.483391000" lon="-2.528213000">
        <ele>388.00</ele>
        <time>2016-10-22T06:16:56Z</time>
      </trkpt>
      <trkpt lat="42.483367000" lon="-2.528279000">
        <ele>387.90</ele>
        <time>2016-10-22T06:16:57Z</time>
      </trkpt>
      <trkpt lat="42.483344000" lon="-2.528343000">
        <ele>387.80</ele>
        <time>2016-10-22T06:16:58Z</time>
      </trkpt>
      <trkpt lat="42.483318000" lon="-2.528407000">
        <ele>387.60</ele>
        <time>2016-10-22T06:16:59Z</time>
      </trkpt>
      <trkpt lat="42.483295000" lon="-2.528469000">
        <ele>387.50</ele>
        <time>2016-10-22T06:17:00Z</time>
      </trkpt>
      <trkpt lat="42.483272000" lon="-2.528533000">
        <ele>387.40</ele>
        <time>2016-10-22T06:17:01Z</time>
      </trkpt>
      <trkpt lat="42.483247000" lon="-2.528594000">
        <ele>387.30</ele>
        <time>2016-10-22T06:17:02Z</time>
      </trkpt>
      <trkpt lat="42.483221000" lon="-2.528648000">
        <ele>387.40</ele>
        <time>2016-10-22T06:17:03Z</time>
      </trkpt>
      <trkpt lat="42.483199000" lon="-2.528703000">
        <ele>387.40</ele>
        <time>2016-10-22T06:17:04Z</time>
      </trkpt>
      <trkpt lat="42.483176000" lon="-2.528752000">
        <ele>387.40</ele>
        <time>2016-10-22T06:17:05Z</time>
      </trkpt>
      <trkpt lat="42.483156000" lon="-2.528803000">
        <ele>387.50</ele>
        <time>2016-10-22T06:17:06Z</time>
      </trkpt>
      <trkpt lat="42.483135000" lon="-2.528852000">
        <ele>387.50</ele>
        <time>2016-10-22T06:17:07Z</time>
      </trkpt>
      <trkpt lat="42.483116000" lon="-2.528903000">
        <ele>387.60</ele>
        <time>2016-10-22T06:17:08Z</time>
      </trkpt>
      <trkpt lat="42.483096000" lon="-2.528955000">
        <ele>387.60</ele>
        <time>2016-10-22T06:17:09Z</time>
      </trkpt>
      <trkpt lat="42.483073000" lon="-2.529009000">
        <ele>387.70</ele>
        <time>2016-10-22T06:17:10Z</time>
      </trkpt>
      <trkpt lat="42.483054000" lon="-2.529058000">
        <ele>387.70</ele>
        <time>2016-10-22T06:17:11Z</time>
      </trkpt>
      <trkpt lat="42.483035000" lon="-2.529106000">
        <ele>387.70</ele>
        <time>2016-10-22T06:17:12Z</time>
      </trkpt>
      <trkpt lat="42.483016000" lon="-2.529155000">
        <ele>387.70</ele>
        <time>2016-10-22T06:17:13Z</time>
      </trkpt>
      <trkpt lat="42.482995000" lon="-2.529204000">
        <ele>387.60</ele>
        <time>2016-10-22T06:17:14Z</time>
      </trkpt>
      <trkpt lat="42.482973000" lon="-2.529252000">
        <ele>387.50</ele>
        <time>2016-10-22T06:17:15Z</time>
      </trkpt>
      <trkpt lat="42.482950000" lon="-2.529304000">
        <ele>387.50</ele>
        <time>2016-10-22T06:17:16Z</time>
      </trkpt>
      <trkpt lat="42.482928000" lon="-2.529355000">
        <ele>387.50</ele>
        <time>2016-10-22T06:17:17Z</time>
      </trkpt>
      <trkpt lat="42.482908000" lon="-2.529410000">
        <ele>387.50</ele>
        <time>2016-10-22T06:17:18Z</time>
      </trkpt>
      <trkpt lat="42.482888000" lon="-2.529465000">
        <ele>387.40</ele>
        <time>2016-10-22T06:17:19Z</time>
      </trkpt>
      <trkpt lat="42.482869000" lon="-2.529520000">
        <ele>387.40</ele>
        <time>2016-10-22T06:17:20Z</time>
      </trkpt>
      <trkpt lat="42.482848000" lon="-2.529571000">
        <ele>387.40</ele>
        <time>2016-10-22T06:17:21Z</time>
      </trkpt>
      <trkpt lat="42.482827000" lon="-2.529622000">
        <ele>387.40</ele>
        <time>2016-10-22T06:17:22Z</time>
      </trkpt>
      <trkpt lat="42.482808000" lon="-2.529674000">
        <ele>387.40</ele>
        <time>2016-10-22T06:17:23Z</time>
      </trkpt>
      <trkpt lat="42.482786000" lon="-2.529726000">
        <ele>387.40</ele>
        <time>2016-10-22T06:17:24Z</time>
      </trkpt>
      <trkpt lat="42.482763000" lon="-2.529781000">
        <ele>387.40</ele>
        <time>2016-10-22T06:17:25Z</time>
      </trkpt>
      <trkpt lat="42.482742000" lon="-2.529835000">
        <ele>387.50</ele>
        <time>2016-10-22T06:17:26Z</time>
      </trkpt>
      <trkpt lat="42.482720000" lon="-2.529888000">
        <ele>387.50</ele>
        <time>2016-10-22T06:17:27Z</time>
      </trkpt>
      <trkpt lat="42.482697000" lon="-2.529943000">
        <ele>387.50</ele>
        <time>2016-10-22T06:17:28Z</time>
      </trkpt>
      <trkpt lat="42.482673000" lon="-2.529997000">
        <ele>387.70</ele>
        <time>2016-10-22T06:17:29Z</time>
      </trkpt>
      <trkpt lat="42.482650000" lon="-2.530051000">
        <ele>387.80</ele>
        <time>2016-10-22T06:17:30Z</time>
      </trkpt>
      <trkpt lat="42.482626000" lon="-2.530106000">
        <ele>387.90</ele>
        <time>2016-10-22T06:17:31Z</time>
      </trkpt>
      <trkpt lat="42.482603000" lon="-2.530159000">
        <ele>388.00</ele>
        <time>2016-10-22T06:17:32Z</time>
      </trkpt>
      <trkpt lat="42.482581000" lon="-2.530212000">
        <ele>388.10</ele>
        <time>2016-10-22T06:17:33Z</time>
      </trkpt>
      <trkpt lat="42.482557000" lon="-2.530268000">
        <ele>388.20</ele>
        <time>2016-10-22T06:17:34Z</time>
      </trkpt>
      <trkpt lat="42.482533000" lon="-2.530325000">
        <ele>388.30</ele>
        <time>2016-10-22T06:17:35Z</time>
      </trkpt>
      <trkpt lat="42.482507000" lon="-2.530381000">
        <ele>388.50</ele>
        <time>2016-10-22T06:17:36Z</time>
      </trkpt>
      <trkpt lat="42.482479000" lon="-2.530444000">
        <ele>388.50</ele>
        <time>2016-10-22T06:17:37Z</time>
      </trkpt>
      <trkpt lat="42.482445000" lon="-2.530500000">
        <ele>388.60</ele>
        <time>2016-10-22T06:17:38Z</time>
      </trkpt>
      <trkpt lat="42.482414000" lon="-2.530547000">
        <ele>388.50</ele>
        <time>2016-10-22T06:17:39Z</time>
      </trkpt>
      <trkpt lat="42.482378000" lon="-2.530597000">
        <ele>388.50</ele>
        <time>2016-10-22T06:17:40Z</time>
      </trkpt>
      <trkpt lat="42.482303000" lon="-2.530695000">
        <ele>388.40</ele>
        <time>2016-10-22T06:17:42Z</time>
      </trkpt>
      <trkpt lat="42.482268000" lon="-2.530743000">
        <ele>388.40</ele>
        <time>2016-10-22T06:17:43Z</time>
      </trkpt>
      <trkpt lat="42.482235000" lon="-2.530793000">
        <ele>388.40</ele>
        <time>2016-10-22T06:17:44Z</time>
      </trkpt>
      <trkpt lat="42.482205000" lon="-2.530849000">
        <ele>388.30</ele>
        <time>2016-10-22T06:17:45Z</time>
      </trkpt>
      <trkpt lat="42.482177000" lon="-2.530906000">
        <ele>388.20</ele>
        <time>2016-10-22T06:17:46Z</time>
      </trkpt>
      <trkpt lat="42.482150000" lon="-2.530965000">
        <ele>388.10</ele>
        <time>2016-10-22T06:17:47Z</time>
      </trkpt>
      <trkpt lat="42.482124000" lon="-2.531028000">
        <ele>388.00</ele>
        <time>2016-10-22T06:17:48Z</time>
      </trkpt>
      <trkpt lat="42.482099000" lon="-2.531092000">
        <ele>388.00</ele>
        <time>2016-10-22T06:17:49Z</time>
      </trkpt>
      <trkpt lat="42.482077000" lon="-2.531158000">
        <ele>387.90</ele>
        <time>2016-10-22T06:17:50Z</time>
      </trkpt>
      <trkpt lat="42.482058000" lon="-2.531222000">
        <ele>387.90</ele>
        <time>2016-10-22T06:17:51Z</time>
      </trkpt>
      <trkpt lat="42.482038000" lon="-2.531283000">
        <ele>387.90</ele>
        <time>2016-10-22T06:17:52Z</time>
      </trkpt>
      <trkpt lat="42.482019000" lon="-2.531343000">
        <ele>387.90</ele>
        <time>2016-10-22T06:17:53Z</time>
      </trkpt>
      <trkpt lat="42.481993000" lon="-2.531400000">
        <ele>387.90</ele>
        <time>2016-10-22T06:17:54Z</time>
      </trkpt>
      <trkpt lat="42.481972000" lon="-2.531457000">
        <ele>387.80</ele>
        <time>2016-10-22T06:17:55Z</time>
      </trkpt>
      <trkpt lat="42.481952000" lon="-2.531512000">
        <ele>387.80</ele>
        <time>2016-10-22T06:17:56Z</time>
      </trkpt>
      <trkpt lat="42.481933000" lon="-2.531574000">
        <ele>387.80</ele>
        <time>2016-10-22T06:17:57Z</time>
      </trkpt>
      <trkpt lat="42.481915000" lon="-2.531634000">
        <ele>387.80</ele>
        <time>2016-10-22T06:17:58Z</time>
      </trkpt>
      <trkpt lat="42.481898000" lon="-2.531692000">
        <ele>387.80</ele>
        <time>2016-10-22T06:17:59Z</time>
      </trkpt>
      <trkpt lat="42.481881000" lon="-2.531749000">
        <ele>387.80</ele>
        <time>2016-10-22T06:18:00Z</time>
      </trkpt>
      <trkpt lat="42.481865000" lon="-2.531807000">
        <ele>388.00</ele>
        <time>2016-10-22T06:18:01Z</time>
      </trkpt>
      <trkpt lat="42.481848000" lon="-2.531867000">
        <ele>388.10</ele>
        <time>2016-10-22T06:18:02Z</time>
      </trkpt>
      <trkpt lat="42.481832000" lon="-2.531926000">
        <ele>388.10</ele>
        <time>2016-10-22T06:18:03Z</time>
      </trkpt>
      <trkpt lat="42.481818000" lon="-2.531986000">
        <ele>388.20</ele>
        <time>2016-10-22T06:18:04Z</time>
      </trkpt>
      <trkpt lat="42.481805000" lon="-2.532043000">
        <ele>388.20</ele>
        <time>2016-10-22T06:18:05Z</time>
      </trkpt>
      <trkpt lat="42.481794000" lon="-2.532104000">
        <ele>388.30</ele>
        <time>2016-10-22T06:18:06Z</time>
      </trkpt>
      <trkpt lat="42.481785000" lon="-2.532162000">
        <ele>388.40</ele>
        <time>2016-10-22T06:18:07Z</time>
      </trkpt>
      <trkpt lat="42.481776000" lon="-2.532223000">
        <ele>388.50</ele>
        <time>2016-10-22T06:18:08Z</time>
      </trkpt>
      <trkpt lat="42.481769000" lon="-2.532282000">
        <ele>388.70</ele>
        <time>2016-10-22T06:18:09Z</time>
      </trkpt>
      <trkpt lat="42.481761000" lon="-2.532341000">
        <ele>388.90</ele>
        <time>2016-10-22T06:18:10Z</time>
      </trkpt>
      <trkpt lat="42.481753000" lon="-2.532399000">
        <ele>389.00</ele>
        <time>2016-10-22T06:18:11Z</time>
      </trkpt>
      <trkpt lat="42.481746000" lon="-2.532463000">
        <ele>389.10</ele>
        <time>2016-10-22T06:18:12Z</time>
      </trkpt>
      <trkpt lat="42.481739000" lon="-2.532528000">
        <ele>389.10</ele>
        <time>2016-10-22T06:18:13Z</time>
      </trkpt>
      <trkpt lat="42.481733000" lon="-2.532591000">
        <ele>389.10</ele>
        <time>2016-10-22T06:18:14Z</time>
      </trkpt>
      <trkpt lat="42.481728000" lon="-2.532655000">
        <ele>389.10</ele>
        <time>2016-10-22T06:18:15Z</time>
      </trkpt>
      <trkpt lat="42.481722000" lon="-2.532716000">
        <ele>389.10</ele>
        <time>2016-10-22T06:18:16Z</time>
      </trkpt>
      <trkpt lat="42.481715000" lon="-2.532779000">
        <ele>389.00</ele>
        <time>2016-10-22T06:18:17Z</time>
      </trkpt>
      <trkpt lat="42.481709000" lon="-2.532842000">
        <ele>388.90</ele>
        <time>2016-10-22T06:18:18Z</time>
      </trkpt>
      <trkpt lat="42.481702000" lon="-2.532908000">
        <ele>388.70</ele>
        <time>2016-10-22T06:18:19Z</time>
      </trkpt>
      <trkpt lat="42.481694000" lon="-2.532977000">
        <ele>388.50</ele>
        <time>2016-10-22T06:18:20Z</time>
      </trkpt>
      <trkpt lat="42.481689000" lon="-2.533043000">
        <ele>388.30</ele>
        <time>2016-10-22T06:18:21Z</time>
      </trkpt>
      <trkpt lat="42.481683000" lon="-2.533109000">
        <ele>388.20</ele>
        <time>2016-10-22T06:18:22Z</time>
      </trkpt>
      <trkpt lat="42.481679000" lon="-2.533173000">
        <ele>388.30</ele>
        <time>2016-10-22T06:18:23Z</time>
      </trkpt>
      <trkpt lat="42.481672000" lon="-2.533236000">
        <ele>388.40</ele>
        <time>2016-10-22T06:18:24Z</time>
      </trkpt>
      <trkpt lat="42.481665000" lon="-2.533297000">
        <ele>388.50</ele>
        <time>2016-10-22T06:18:25Z</time>
      </trkpt>
      <trkpt lat="42.481659000" lon="-2.533364000">
        <ele>388.60</ele>
        <time>2016-10-22T06:18:26Z</time>
      </trkpt>
      <trkpt lat="42.481654000" lon="-2.533429000">
        <ele>388.60</ele>
        <time>2016-10-22T06:18:27Z</time>
      </trkpt>
      <trkpt lat="42.481648000" lon="-2.533494000">
        <ele>388.60</ele>
        <time>2016-10-22T06:18:28Z</time>
      </trkpt>
      <trkpt lat="42.481640000" lon="-2.533561000">
        <ele>388.70</ele>
        <time>2016-10-22T06:18:29Z</time>
      </trkpt>
      <trkpt lat="42.481635000" lon="-2.533627000">
        <ele>388.80</ele>
        <time>2016-10-22T06:18:30Z</time>
      </trkpt>
      <trkpt lat="42.481630000" lon="-2.533691000">
        <ele>388.90</ele>
        <time>2016-10-22T06:18:31Z</time>
      </trkpt>
      <trkpt lat="42.481625000" lon="-2.533758000">
        <ele>388.90</ele>
        <time>2016-10-22T06:18:32Z</time>
      </trkpt>
      <trkpt lat="42.481620000" lon="-2.533827000">
        <ele>389.00</ele>
        <time>2016-10-22T06:18:33Z</time>
      </trkpt>
      <trkpt lat="42.481616000" lon="-2.533892000">
        <ele>389.10</ele>
        <time>2016-10-22T06:18:34Z</time>
      </trkpt>
      <trkpt lat="42.481610000" lon="-2.533958000">
        <ele>389.20</ele>
        <time>2016-10-22T06:18:35Z</time>
      </trkpt>
      <trkpt lat="42.481606000" lon="-2.534023000">
        <ele>389.20</ele>
        <time>2016-10-22T06:18:36Z</time>
      </trkpt>
      <trkpt lat="42.481601000" lon="-2.534089000">
        <ele>389.20</ele>
        <time>2016-10-22T06:18:37Z</time>
      </trkpt>
      <trkpt lat="42.481597000" lon="-2.534155000">
        <ele>389.30</ele>
        <time>2016-10-22T06:18:38Z</time>
      </trkpt>
      <trkpt lat="42.481594000" lon="-2.534220000">
        <ele>389.30</ele>
        <time>2016-10-22T06:18:39Z</time>
      </trkpt>
      <trkpt lat="42.481591000" lon="-2.534287000">
        <ele>389.30</ele>
        <time>2016-10-22T06:18:40Z</time>
      </trkpt>
      <trkpt lat="42.481587000" lon="-2.534353000">
        <ele>389.30</ele>
        <time>2016-10-22T06:18:41Z</time>
      </trkpt>
      <trkpt lat="42.481576000" lon="-2.534482000">
        <ele>389.30</ele>
        <time>2016-10-22T06:18:43Z</time>
      </trkpt>
      <trkpt lat="42.481570000" lon="-2.534540000">
        <ele>389.30</ele>
        <time>2016-10-22T06:18:44Z</time>
      </trkpt>
      <trkpt lat="42.481561000" lon="-2.534603000">
        <ele>389.30</ele>
        <time>2016-10-22T06:18:45Z</time>
      </trkpt>
      <trkpt lat="42.481552000" lon="-2.534666000">
        <ele>389.30</ele>
        <time>2016-10-22T06:18:46Z</time>
      </trkpt>
      <trkpt lat="42.481543000" lon="-2.534730000">
        <ele>389.30</ele>
        <time>2016-10-22T06:18:47Z</time>
      </trkpt>
      <trkpt lat="42.481537000" lon="-2.534793000">
        <ele>389.20</ele>
        <time>2016-10-22T06:18:48Z</time>
      </trkpt>
      <trkpt lat="42.481530000" lon="-2.534849000">
        <ele>389.10</ele>
        <time>2016-10-22T06:18:49Z</time>
      </trkpt>
      <trkpt lat="42.481521000" lon="-2.534905000">
        <ele>389.00</ele>
        <time>2016-10-22T06:18:50Z</time>
      </trkpt>
      <trkpt lat="42.481512000" lon="-2.534964000">
        <ele>388.90</ele>
        <time>2016-10-22T06:18:51Z</time>
      </trkpt>
      <trkpt lat="42.481499000" lon="-2.535024000">
        <ele>388.90</ele>
        <time>2016-10-22T06:18:52Z</time>
      </trkpt>
      <trkpt lat="42.481488000" lon="-2.535082000">
        <ele>388.80</ele>
        <time>2016-10-22T06:18:53Z</time>
      </trkpt>
      <trkpt lat="42.481478000" lon="-2.535140000">
        <ele>388.80</ele>
        <time>2016-10-22T06:18:54Z</time>
      </trkpt>
      <trkpt lat="42.481470000" lon="-2.535196000">
        <ele>388.70</ele>
        <time>2016-10-22T06:18:55Z</time>
      </trkpt>
      <trkpt lat="42.481466000" lon="-2.535246000">
        <ele>388.70</ele>
        <time>2016-10-22T06:18:56Z</time>
      </trkpt>
      <trkpt lat="42.481461000" lon="-2.535294000">
        <ele>388.70</ele>
        <time>2016-10-22T06:18:57Z</time>
      </trkpt>
      <trkpt lat="42.481460000" lon="-2.535336000">
        <ele>388.70</ele>
        <time>2016-10-22T06:18:58Z</time>
      </trkpt>
      <trkpt lat="42.481459000" lon="-2.535367000">
        <ele>388.60</ele>
        <time>2016-10-22T06:18:59Z</time>
      </trkpt>
      <trkpt lat="42.481458000" lon="-2.535394000">
        <ele>388.60</ele>
        <time>2016-10-22T06:19:00Z</time>
      </trkpt>
      <trkpt lat="42.481458000" lon="-2.535416000">
        <ele>388.50</ele>
        <time>2016-10-22T06:19:01Z</time>
      </trkpt>
      <trkpt lat="42.481457000" lon="-2.535436000">
        <ele>388.40</ele>
        <time>2016-10-22T06:19:02Z</time>
      </trkpt>
      <trkpt lat="42.481456000" lon="-2.535455000">
        <ele>388.40</ele>
        <time>2016-10-22T06:19:03Z</time>
      </trkpt>
      <trkpt lat="42.481457000" lon="-2.535476000">
        <ele>388.40</ele>
        <time>2016-10-22T06:19:04Z</time>
      </trkpt>
      <trkpt lat="42.481456000" lon="-2.535503000">
        <ele>388.40</ele>
        <time>2016-10-22T06:19:05Z</time>
      </trkpt>
      <trkpt lat="42.481455000" lon="-2.535528000">
        <ele>388.30</ele>
        <time>2016-10-22T06:19:06Z</time>
      </trkpt>
      <trkpt lat="42.481450000" lon="-2.535558000">
        <ele>388.40</ele>
        <time>2016-10-22T06:19:07Z</time>
      </trkpt>
      <trkpt lat="42.481448000" lon="-2.535592000">
        <ele>388.40</ele>
        <time>2016-10-22T06:19:08Z</time>
      </trkpt>
      <trkpt lat="42.481446000" lon="-2.535628000">
        <ele>388.40</ele>
        <time>2016-10-22T06:19:09Z</time>
      </trkpt>
      <trkpt lat="42.481441000" lon="-2.535665000">
        <ele>388.40</ele>
        <time>2016-10-22T06:19:10Z</time>
      </trkpt>
      <trkpt lat="42.481437000" lon="-2.535701000">
        <ele>388.40</ele>
        <time>2016-10-22T06:19:11Z</time>
      </trkpt>
      <trkpt lat="42.481435000" lon="-2.535739000">
        <ele>388.40</ele>
        <time>2016-10-22T06:19:12Z</time>
      </trkpt>
      <trkpt lat="42.481434000" lon="-2.535779000">
        <ele>388.40</ele>
        <time>2016-10-22T06:19:13Z</time>
      </trkpt>
      <trkpt lat="42.481432000" lon="-2.535822000">
        <ele>388.40</ele>
        <time>2016-10-22T06:19:14Z</time>
      </trkpt>
      <trkpt lat="42.481430000" lon="-2.535865000">
        <ele>388.40</ele>
        <time>2016-10-22T06:19:15Z</time>
      </trkpt>
      <trkpt lat="42.481426000" lon="-2.535910000">
        <ele>388.30</ele>
        <time>2016-10-22T06:19:16Z</time>
      </trkpt>
      <trkpt lat="42.481427000" lon="-2.535953000">
        <ele>388.30</ele>
        <time>2016-10-22T06:19:17Z</time>
      </trkpt>
      <trkpt lat="42.481424000" lon="-2.535997000">
        <ele>388.30</ele>
        <time>2016-10-22T06:19:18Z</time>
      </trkpt>
      <trkpt lat="42.481425000" lon="-2.536042000">
        <ele>388.30</ele>
        <time>2016-10-22T06:19:19Z</time>
      </trkpt>
      <trkpt lat="42.481421000" lon="-2.536089000">
        <ele>388.20</ele>
        <time>2016-10-22T06:19:20Z</time>
      </trkpt>
      <trkpt lat="42.481418000" lon="-2.536134000">
        <ele>388.20</ele>
        <time>2016-10-22T06:19:21Z</time>
      </trkpt>
      <trkpt lat="42.481411000" lon="-2.536179000">
        <ele>388.10</ele>
        <time>2016-10-22T06:19:22Z</time>
      </trkpt>
      <trkpt lat="42.481405000" lon="-2.536228000">
        <ele>388.00</ele>
        <time>2016-10-22T06:19:23Z</time>
      </trkpt>
      <trkpt lat="42.481401000" lon="-2.536277000">
        <ele>387.80</ele>
        <time>2016-10-22T06:19:24Z</time>
      </trkpt>
      <trkpt lat="42.481398000" lon="-2.536328000">
        <ele>387.80</ele>
        <time>2016-10-22T06:19:25Z</time>
      </trkpt>
      <trkpt lat="42.481395000" lon="-2.536382000">
        <ele>387.70</ele>
        <time>2016-10-22T06:19:26Z</time>
      </trkpt>
      <trkpt lat="42.481393000" lon="-2.536433000">
        <ele>387.60</ele>
        <time>2016-10-22T06:19:27Z</time>
      </trkpt>
      <trkpt lat="42.481388000" lon="-2.536486000">
        <ele>387.60</ele>
        <time>2016-10-22T06:19:28Z</time>
      </trkpt>
      <trkpt lat="42.481383000" lon="-2.536538000">
        <ele>387.60</ele>
        <time>2016-10-22T06:19:29Z</time>
      </trkpt>
      <trkpt lat="42.481377000" lon="-2.536591000">
        <ele>387.60</ele>
        <time>2016-10-22T06:19:30Z</time>
      </trkpt>
      <trkpt lat="42.481373000" lon="-2.536645000">
        <ele>387.50</ele>
        <time>2016-10-22T06:19:31Z</time>
      </trkpt>
      <trkpt lat="42.481369000" lon="-2.536699000">
        <ele>387.50</ele>
        <time>2016-10-22T06:19:32Z</time>
      </trkpt>
      <trkpt lat="42.481366000" lon="-2.536755000">
        <ele>387.60</ele>
        <time>2016-10-22T06:19:33Z</time>
      </trkpt>
      <trkpt lat="42.481362000" lon="-2.536806000">
        <ele>387.70</ele>
        <time>2016-10-22T06:19:34Z</time>
      </trkpt>
      <trkpt lat="42.481358000" lon="-2.536861000">
        <ele>387.90</ele>
        <time>2016-10-22T06:19:35Z</time>
      </trkpt>
      <trkpt lat="42.481353000" lon="-2.536919000">
        <ele>388.10</ele>
        <time>2016-10-22T06:19:36Z</time>
      </trkpt>
      <trkpt lat="42.481347000" lon="-2.536974000">
        <ele>388.20</ele>
        <time>2016-10-22T06:19:37Z</time>
      </trkpt>
      <trkpt lat="42.481341000" lon="-2.537032000">
        <ele>388.30</ele>
        <time>2016-10-22T06:19:38Z</time>
      </trkpt>
      <trkpt lat="42.481332000" lon="-2.537090000">
        <ele>388.30</ele>
        <time>2016-10-22T06:19:39Z</time>
      </trkpt>
      <trkpt lat="42.481324000" lon="-2.537147000">
        <ele>388.30</ele>
        <time>2016-10-22T06:19:40Z</time>
      </trkpt>
      <trkpt lat="42.481318000" lon="-2.537203000">
        <ele>388.30</ele>
        <time>2016-10-22T06:19:41Z</time>
      </trkpt>
      <trkpt lat="42.481314000" lon="-2.537260000">
        <ele>388.20</ele>
        <time>2016-10-22T06:19:42Z</time>
      </trkpt>
      <trkpt lat="42.481307000" lon="-2.537370000">
        <ele>388.30</ele>
        <time>2016-10-22T06:19:44Z</time>
      </trkpt>
      <trkpt lat="42.481303000" lon="-2.537425000">
        <ele>388.40</ele>
        <time>2016-10-22T06:19:45Z</time>
      </trkpt>
      <trkpt lat="42.481299000" lon="-2.537479000">
        <ele>388.40</ele>
        <time>2016-10-22T06:19:46Z</time>
      </trkpt>
      <trkpt lat="42.481297000" lon="-2.537534000">
        <ele>388.30</ele>
        <time>2016-10-22T06:19:47Z</time>
      </trkpt>
      <trkpt lat="42.481295000" lon="-2.537586000">
        <ele>388.30</ele>
        <time>2016-10-22T06:19:48Z</time>
      </trkpt>
      <trkpt lat="42.481291000" lon="-2.537639000">
        <ele>388.10</ele>
        <time>2016-10-22T06:19:49Z</time>
      </trkpt>
      <trkpt lat="42.481285000" lon="-2.537692000">
        <ele>388.00</ele>
        <time>2016-10-22T06:19:50Z</time>
      </trkpt>
      <trkpt lat="42.481286000" lon="-2.537743000">
        <ele>387.90</ele>
        <time>2016-10-22T06:19:51Z</time>
      </trkpt>
      <trkpt lat="42.481285000" lon="-2.537798000">
        <ele>387.90</ele>
        <time>2016-10-22T06:19:52Z</time>
      </trkpt>
      <trkpt lat="42.481288000" lon="-2.537854000">
        <ele>387.80</ele>
        <time>2016-10-22T06:19:53Z</time>
      </trkpt>
      <trkpt lat="42.481287000" lon="-2.537910000">
        <ele>387.80</ele>
        <time>2016-10-22T06:19:54Z</time>
      </trkpt>
      <trkpt lat="42.481283000" lon="-2.537971000">
        <ele>387.70</ele>
        <time>2016-10-22T06:19:55Z</time>
      </trkpt>
      <trkpt lat="42.481281000" lon="-2.538026000">
        <ele>387.70</ele>
        <time>2016-10-22T06:19:56Z</time>
      </trkpt>
      <trkpt lat="42.481283000" lon="-2.538079000">
        <ele>387.60</ele>
        <time>2016-10-22T06:19:57Z</time>
      </trkpt>
      <trkpt lat="42.481287000" lon="-2.538133000">
        <ele>387.60</ele>
        <time>2016-10-22T06:19:58Z</time>
      </trkpt>
      <trkpt lat="42.481289000" lon="-2.538187000">
        <ele>387.60</ele>
        <time>2016-10-22T06:19:59Z</time>
      </trkpt>
      <trkpt lat="42.481294000" lon="-2.538243000">
        <ele>387.60</ele>
        <time>2016-10-22T06:20:00Z</time>
      </trkpt>
      <trkpt lat="42.481299000" lon="-2.538297000">
        <ele>387.70</ele>
        <time>2016-10-22T06:20:01Z</time>
      </trkpt>
      <trkpt lat="42.481307000" lon="-2.538354000">
        <ele>387.80</ele>
        <time>2016-10-22T06:20:02Z</time>
      </trkpt>
      <trkpt lat="42.481314000" lon="-2.538410000">
        <ele>387.90</ele>
        <time>2016-10-22T06:20:03Z</time>
      </trkpt>
      <trkpt lat="42.481323000" lon="-2.538464000">
        <ele>388.00</ele>
        <time>2016-10-22T06:20:04Z</time>
      </trkpt>
      <trkpt lat="42.481331000" lon="-2.538519000">
        <ele>388.10</ele>
        <time>2016-10-22T06:20:05Z</time>
      </trkpt>
      <trkpt lat="42.481344000" lon="-2.538574000">
        <ele>388.20</ele>
        <time>2016-10-22T06:20:06Z</time>
      </trkpt>
      <trkpt lat="42.481356000" lon="-2.538634000">
        <ele>388.20</ele>
        <time>2016-10-22T06:20:07Z</time>
      </trkpt>
      <trkpt lat="42.481368000" lon="-2.538689000">
        <ele>388.30</ele>
        <time>2016-10-22T06:20:08Z</time>
      </trkpt>
      <trkpt lat="42.481380000" lon="-2.538746000">
        <ele>388.20</ele>
        <time>2016-10-22T06:20:09Z</time>
      </trkpt>
      <trkpt lat="42.481390000" lon="-2.538810000">
        <ele>388.20</ele>
        <time>2016-10-22T06:20:10Z</time>
      </trkpt>
      <trkpt lat="42.481400000" lon="-2.538867000">
        <ele>388.10</ele>
        <time>2016-10-22T06:20:11Z</time>
      </trkpt>
      <trkpt lat="42.481408000" lon="-2.538925000">
        <ele>388.00</ele>
        <time>2016-10-22T06:20:12Z</time>
      </trkpt>
      <trkpt lat="42.481420000" lon="-2.538988000">
        <ele>388.00</ele>
        <time>2016-10-22T06:20:13Z</time>
      </trkpt>
      <trkpt lat="42.481431000" lon="-2.539051000">
        <ele>388.00</ele>
        <time>2016-10-22T06:20:14Z</time>
      </trkpt>
      <trkpt lat="42.481435000" lon="-2.539115000">
        <ele>388.00</ele>
        <time>2016-10-22T06:20:15Z</time>
      </trkpt>
      <trkpt lat="42.481439000" lon="-2.539173000">
        <ele>388.00</ele>
        <time>2016-10-22T06:20:16Z</time>
      </trkpt>
      <trkpt lat="42.481439000" lon="-2.539230000">
        <ele>388.20</ele>
        <time>2016-10-22T06:20:17Z</time>
      </trkpt>
      <trkpt lat="42.481442000" lon="-2.539287000">
        <ele>388.30</ele>
        <time>2016-10-22T06:20:18Z</time>
      </trkpt>
      <trkpt lat="42.481439000" lon="-2.539346000">
        <ele>388.30</ele>
        <time>2016-10-22T06:20:19Z</time>
      </trkpt>
      <trkpt lat="42.481440000" lon="-2.539401000">
        <ele>388.20</ele>
        <time>2016-10-22T06:20:20Z</time>
      </trkpt>
      <trkpt lat="42.481443000" lon="-2.539457000">
        <ele>388.30</ele>
        <time>2016-10-22T06:20:21Z</time>
      </trkpt>
      <trkpt lat="42.481444000" lon="-2.539514000">
        <ele>388.40</ele>
        <time>2016-10-22T06:20:22Z</time>
      </trkpt>
      <trkpt lat="42.481445000" lon="-2.539572000">
        <ele>388.50</ele>
        <time>2016-10-22T06:20:23Z</time>
      </trkpt>
      <trkpt lat="42.481447000" lon="-2.539628000">
        <ele>388.50</ele>
        <time>2016-10-22T06:20:24Z</time>
      </trkpt>
      <trkpt lat="42.481446000" lon="-2.539685000">
        <ele>388.60</ele>
        <time>2016-10-22T06:20:25Z</time>
      </trkpt>
      <trkpt lat="42.481446000" lon="-2.539739000">
        <ele>388.60</ele>
        <time>2016-10-22T06:20:26Z</time>
      </trkpt>
      <trkpt lat="42.481449000" lon="-2.539791000">
        <ele>388.70</ele>
        <time>2016-10-22T06:20:27Z</time>
      </trkpt>
      <trkpt lat="42.481448000" lon="-2.539840000">
        <ele>388.70</ele>
        <time>2016-10-22T06:20:28Z</time>
      </trkpt>
      <trkpt lat="42.481450000" lon="-2.539883000">
        <ele>388.70</ele>
        <time>2016-10-22T06:20:29Z</time>
      </trkpt>
      <trkpt lat="42.481449000" lon="-2.539929000">
        <ele>388.70</ele>
        <time>2016-10-22T06:20:30Z</time>
      </trkpt>
      <trkpt lat="42.481452000" lon="-2.539969000">
        <ele>388.70</ele>
        <time>2016-10-22T06:20:31Z</time>
      </trkpt>
      <trkpt lat="42.481459000" lon="-2.540012000">
        <ele>388.70</ele>
        <time>2016-10-22T06:20:32Z</time>
      </trkpt>
      <trkpt lat="42.481464000" lon="-2.540055000">
        <ele>388.70</ele>
        <time>2016-10-22T06:20:33Z</time>
      </trkpt>
      <trkpt lat="42.481470000" lon="-2.540097000">
        <ele>388.70</ele>
        <time>2016-10-22T06:20:34Z</time>
      </trkpt>
      <trkpt lat="42.481483000" lon="-2.540137000">
        <ele>388.80</ele>
        <time>2016-10-22T06:20:35Z</time>
      </trkpt>
      <trkpt lat="42.481502000" lon="-2.540170000">
        <ele>388.90</ele>
        <time>2016-10-22T06:20:36Z</time>
      </trkpt>
      <trkpt lat="42.481529000" lon="-2.540195000">
        <ele>388.90</ele>
        <time>2016-10-22T06:20:37Z</time>
      </trkpt>
      <trkpt lat="42.481569000" lon="-2.540203000">
        <ele>388.90</ele>
        <time>2016-10-22T06:20:38Z</time>
      </trkpt>
      <trkpt lat="42.481610000" lon="-2.540202000">
        <ele>388.90</ele>
        <time>2016-10-22T06:20:39Z</time>
      </trkpt>
      <trkpt lat="42.481650000" lon="-2.540197000">
        <ele>388.90</ele>
        <time>2016-10-22T06:20:40Z</time>
      </trkpt>
      <trkpt lat="42.481690000" lon="-2.540194000">
        <ele>388.80</ele>
        <time>2016-10-22T06:20:41Z</time>
      </trkpt>
      <trkpt lat="42.481732000" lon="-2.540196000">
        <ele>388.70</ele>
        <time>2016-10-22T06:20:42Z</time>
      </trkpt>
      <trkpt lat="42.481772000" lon="-2.540197000">
        <ele>388.60</ele>
        <time>2016-10-22T06:20:43Z</time>
      </trkpt>
      <trkpt lat="42.481854000" lon="-2.540197000">
        <ele>388.60</ele>
        <time>2016-10-22T06:20:45Z</time>
      </trkpt>
      <trkpt lat="42.481896000" lon="-2.540195000">
        <ele>388.50</ele>
        <time>2016-10-22T06:20:46Z</time>
      </trkpt>
      <trkpt lat="42.481934000" lon="-2.540197000">
        <ele>388.50</ele>
        <time>2016-10-22T06:20:47Z</time>
      </trkpt>
      <trkpt lat="42.481975000" lon="-2.540194000">
        <ele>388.40</ele>
        <time>2016-10-22T06:20:48Z</time>
      </trkpt>
      <trkpt lat="42.482016000" lon="-2.540194000">
        <ele>388.40</ele>
        <time>2016-10-22T06:20:49Z</time>
      </trkpt>
      <trkpt lat="42.482062000" lon="-2.540189000">
        <ele>388.40</ele>
        <time>2016-10-22T06:20:50Z</time>
      </trkpt>
      <trkpt lat="42.482107000" lon="-2.540185000">
        <ele>388.50</ele>
        <time>2016-10-22T06:20:51Z</time>
      </trkpt>
      <trkpt lat="42.482150000" lon="-2.540180000">
        <ele>388.60</ele>
        <time>2016-10-22T06:20:52Z</time>
      </trkpt>
      <trkpt lat="42.482195000" lon="-2.540178000">
        <ele>388.60</ele>
        <time>2016-10-22T06:20:53Z</time>
      </trkpt>
      <trkpt lat="42.482238000" lon="-2.540171000">
        <ele>388.70</ele>
        <time>2016-10-22T06:20:54Z</time>
      </trkpt>
      <trkpt lat="42.482282000" lon="-2.540169000">
        <ele>388.40</ele>
        <time>2016-10-22T06:20:55Z</time>
      </trkpt>
      <trkpt lat="42.482325000" lon="-2.540164000">
        <ele>388.30</ele>
        <time>2016-10-22T06:20:56Z</time>
      </trkpt>
      <trkpt lat="42.482367000" lon="-2.540164000">
        <ele>388.10</ele>
        <time>2016-10-22T06:20:57Z</time>
      </trkpt>
      <trkpt lat="42.482407000" lon="-2.540165000">
        <ele>388.00</ele>
        <time>2016-10-22T06:20:58Z</time>
      </trkpt>
      <trkpt lat="42.482443000" lon="-2.540176000">
        <ele>388.00</ele>
        <time>2016-10-22T06:20:59Z</time>
      </trkpt>
      <trkpt lat="42.482475000" lon="-2.540197000">
        <ele>387.90</ele>
        <time>2016-10-22T06:21:00Z</time>
      </trkpt>
      <trkpt lat="42.482511000" lon="-2.540223000">
        <ele>387.90</ele>
        <time>2016-10-22T06:21:01Z</time>
      </trkpt>
      <trkpt lat="42.482558000" lon="-2.540247000">
        <ele>387.90</ele>
        <time>2016-10-22T06:21:02Z</time>
      </trkpt>
      <trkpt lat="42.482607000" lon="-2.540260000">
        <ele>387.70</ele>
        <time>2016-10-22T06:21:03Z</time>
      </trkpt>
      <trkpt lat="42.482654000" lon="-2.540268000">
        <ele>387.60</ele>
        <time>2016-10-22T06:21:04Z</time>
      </trkpt>
      <trkpt lat="42.482702000" lon="-2.540273000">
        <ele>387.50</ele>
        <time>2016-10-22T06:21:05Z</time>
      </trkpt>
      <trkpt lat="42.482749000" lon="-2.540283000">
        <ele>387.40</ele>
        <time>2016-10-22T06:21:06Z</time>
      </trkpt>
      <trkpt lat="42.482793000" lon="-2.540299000">
        <ele>387.30</ele>
        <time>2016-10-22T06:21:07Z</time>
      </trkpt>
      <trkpt lat="42.482831000" lon="-2.540327000">
        <ele>387.20</ele>
        <time>2016-10-22T06:21:08Z</time>
      </trkpt>
      <trkpt lat="42.482866000" lon="-2.540368000">
        <ele>387.20</ele>
        <time>2016-10-22T06:21:09Z</time>
      </trkpt>
      <trkpt lat="42.482889000" lon="-2.540420000">
        <ele>387.20</ele>
        <time>2016-10-22T06:21:10Z</time>
      </trkpt>
      <trkpt lat="42.482906000" lon="-2.540478000">
        <ele>387.10</ele>
        <time>2016-10-22T06:21:11Z</time>
      </trkpt>
      <trkpt lat="42.482919000" lon="-2.540535000">
        <ele>387.10</ele>
        <time>2016-10-22T06:21:12Z</time>
      </trkpt>
      <trkpt lat="42.482920000" lon="-2.540598000">
        <ele>387.10</ele>
        <time>2016-10-22T06:21:13Z</time>
      </trkpt>
      <trkpt lat="42.482925000" lon="-2.540665000">
        <ele>387.10</ele>
        <time>2016-10-22T06:21:14Z</time>
      </trkpt>
      <trkpt lat="42.482931000" lon="-2.540732000">
        <ele>387.10</ele>
        <time>2016-10-22T06:21:15Z</time>
      </trkpt>
      <trkpt lat="42.482936000" lon="-2.540795000">
        <ele>387.10</ele>
        <time>2016-10-22T06:21:16Z</time>
      </trkpt>
      <trkpt lat="42.482940000" lon="-2.540860000">
        <ele>387.10</ele>
        <time>2016-10-22T06:21:17Z</time>
      </trkpt>
      <trkpt lat="42.482941000" lon="-2.540922000">
        <ele>387.10</ele>
        <time>2016-10-22T06:21:18Z</time>
      </trkpt>
      <trkpt lat="42.482944000" lon="-2.540987000">
        <ele>387.10</ele>
        <time>2016-10-22T06:21:19Z</time>
      </trkpt>
      <trkpt lat="42.482951000" lon="-2.541053000">
        <ele>387.10</ele>
        <time>2016-10-22T06:21:20Z</time>
      </trkpt>
      <trkpt lat="42.482954000" lon="-2.541117000">
        <ele>387.10</ele>
        <time>2016-10-22T06:21:21Z</time>
      </trkpt>
      <trkpt lat="42.482958000" lon="-2.541180000">
        <ele>387.00</ele>
        <time>2016-10-22T06:21:22Z</time>
      </trkpt>
      <trkpt lat="42.482964000" lon="-2.541237000">
        <ele>387.00</ele>
        <time>2016-10-22T06:21:23Z</time>
      </trkpt>
      <trkpt lat="42.482965000" lon="-2.541299000">
        <ele>387.00</ele>
        <time>2016-10-22T06:21:24Z</time>
      </trkpt>
      <trkpt lat="42.482964000" lon="-2.541365000">
        <ele>387.10</ele>
        <time>2016-10-22T06:21:25Z</time>
      </trkpt>
      <trkpt lat="42.482966000" lon="-2.541427000">
        <ele>387.30</ele>
        <time>2016-10-22T06:21:26Z</time>
      </trkpt>
      <trkpt lat="42.482966000" lon="-2.541489000">
        <ele>387.40</ele>
        <time>2016-10-22T06:21:27Z</time>
      </trkpt>
      <trkpt lat="42.482964000" lon="-2.541551000">
        <ele>387.50</ele>
        <time>2016-10-22T06:21:28Z</time>
      </trkpt>
      <trkpt lat="42.482961000" lon="-2.541613000">
        <ele>387.30</ele>
        <time>2016-10-22T06:21:29Z</time>
      </trkpt>
      <trkpt lat="42.482966000" lon="-2.541678000">
        <ele>387.20</ele>
        <time>2016-10-22T06:21:30Z</time>
      </trkpt>
      <trkpt lat="42.482979000" lon="-2.541740000">
        <ele>387.10</ele>
        <time>2016-10-22T06:21:31Z</time>
      </trkpt>
      <trkpt lat="42.482994000" lon="-2.541796000">
        <ele>387.00</ele>
        <time>2016-10-22T06:21:32Z</time>
      </trkpt>
      <trkpt lat="42.483008000" lon="-2.541853000">
        <ele>386.90</ele>
        <time>2016-10-22T06:21:33Z</time>
      </trkpt>
      <trkpt lat="42.483022000" lon="-2.541906000">
        <ele>386.90</ele>
        <time>2016-10-22T06:21:34Z</time>
      </trkpt>
      <trkpt lat="42.483036000" lon="-2.541961000">
        <ele>386.90</ele>
        <time>2016-10-22T06:21:35Z</time>
      </trkpt>
      <trkpt lat="42.483048000" lon="-2.542018000">
        <ele>386.90</ele>
        <time>2016-10-22T06:21:36Z</time>
      </trkpt>
      <trkpt lat="42.483060000" lon="-2.542074000">
        <ele>386.90</ele>
        <time>2016-10-22T06:21:37Z</time>
      </trkpt>
      <trkpt lat="42.483070000" lon="-2.542129000">
        <ele>386.90</ele>
        <time>2016-10-22T06:21:38Z</time>
      </trkpt>
      <trkpt lat="42.483070000" lon="-2.542191000">
        <ele>386.90</ele>
        <time>2016-10-22T06:21:39Z</time>
      </trkpt>
      <trkpt lat="42.483073000" lon="-2.542249000">
        <ele>386.90</ele>
        <time>2016-10-22T06:21:40Z</time>
      </trkpt>
      <trkpt lat="42.483073000" lon="-2.542307000">
        <ele>387.00</ele>
        <time>2016-10-22T06:21:41Z</time>
      </trkpt>
      <trkpt lat="42.483076000" lon="-2.542364000">
        <ele>387.10</ele>
        <time>2016-10-22T06:21:42Z</time>
      </trkpt>
      <trkpt lat="42.483081000" lon="-2.542417000">
        <ele>387.00</ele>
        <time>2016-10-22T06:21:43Z</time>
      </trkpt>
      <trkpt lat="42.483087000" lon="-2.542474000">
        <ele>387.00</ele>
        <time>2016-10-22T06:21:44Z</time>
      </trkpt>
      <trkpt lat="42.483100000" lon="-2.542577000">
        <ele>386.90</ele>
        <time>2016-10-22T06:21:46Z</time>
      </trkpt>
      <trkpt lat="42.483111000" lon="-2.542632000">
        <ele>386.90</ele>
        <time>2016-10-22T06:21:47Z</time>
      </trkpt>
      <trkpt lat="42.483121000" lon="-2.542688000">
        <ele>386.80</ele>
        <time>2016-10-22T06:21:48Z</time>
      </trkpt>
      <trkpt lat="42.483129000" lon="-2.542746000">
        <ele>386.90</ele>
        <time>2016-10-22T06:21:49Z</time>
      </trkpt>
      <trkpt lat="42.483136000" lon="-2.542805000">
        <ele>387.00</ele>
        <time>2016-10-22T06:21:50Z</time>
      </trkpt>
      <trkpt lat="42.483147000" lon="-2.542859000">
        <ele>387.20</ele>
        <time>2016-10-22T06:21:51Z</time>
      </trkpt>
      <trkpt lat="42.483155000" lon="-2.542918000">
        <ele>387.30</ele>
        <time>2016-10-22T06:21:52Z</time>
      </trkpt>
      <trkpt lat="42.483164000" lon="-2.542975000">
        <ele>387.30</ele>
        <time>2016-10-22T06:21:53Z</time>
      </trkpt>
      <trkpt lat="42.483173000" lon="-2.543036000">
        <ele>387.30</ele>
        <time>2016-10-22T06:21:54Z</time>
      </trkpt>
      <trkpt lat="42.483184000" lon="-2.543098000">
        <ele>387.30</ele>
        <time>2016-10-22T06:21:55Z</time>
      </trkpt>
      <trkpt lat="42.483195000" lon="-2.543157000">
        <ele>387.30</ele>
        <time>2016-10-22T06:21:56Z</time>
      </trkpt>
      <trkpt lat="42.483204000" lon="-2.543216000">
        <ele>387.30</ele>
        <time>2016-10-22T06:21:57Z</time>
      </trkpt>
      <trkpt lat="42.483210000" lon="-2.543273000">
        <ele>387.30</ele>
        <time>2016-10-22T06:21:58Z</time>
      </trkpt>
      <trkpt lat="42.483217000" lon="-2.543334000">
        <ele>387.10</ele>
        <time>2016-10-22T06:21:59Z</time>
      </trkpt>
      <trkpt lat="42.483224000" lon="-2.543394000">
        <ele>387.00</ele>
        <time>2016-10-22T06:22:00Z</time>
      </trkpt>
      <trkpt lat="42.483235000" lon="-2.543452000">
        <ele>386.90</ele>
        <time>2016-10-22T06:22:01Z</time>
      </trkpt>
      <trkpt lat="42.483244000" lon="-2.543512000">
        <ele>386.90</ele>
        <time>2016-10-22T06:22:02Z</time>
      </trkpt>
      <trkpt lat="42.483249000" lon="-2.543578000">
        <ele>386.70</ele>
        <time>2016-10-22T06:22:03Z</time>
      </trkpt>
      <trkpt lat="42.483260000" lon="-2.543642000">
        <ele>386.50</ele>
        <time>2016-10-22T06:22:04Z</time>
      </trkpt>
      <trkpt lat="42.483267000" lon="-2.543700000">
        <ele>386.50</ele>
        <time>2016-10-22T06:22:05Z</time>
      </trkpt>
      <trkpt lat="42.483278000" lon="-2.543762000">
        <ele>386.60</ele>
        <time>2016-10-22T06:22:06Z</time>
      </trkpt>
      <trkpt lat="42.483283000" lon="-2.543819000">
        <ele>386.50</ele>
        <time>2016-10-22T06:22:07Z</time>
      </trkpt>
      <trkpt lat="42.483286000" lon="-2.543881000">
        <ele>386.50</ele>
        <time>2016-10-22T06:22:08Z</time>
      </trkpt>
      <trkpt lat="42.483289000" lon="-2.543945000">
        <ele>386.70</ele>
        <time>2016-10-22T06:22:09Z</time>
      </trkpt>
      <trkpt lat="42.483293000" lon="-2.544009000">
        <ele>386.80</ele>
        <time>2016-10-22T06:22:10Z</time>
      </trkpt>
      <trkpt lat="42.483299000" lon="-2.544072000">
        <ele>386.70</ele>
        <time>2016-10-22T06:22:11Z</time>
      </trkpt>
      <trkpt lat="42.483306000" lon="-2.544130000">
        <ele>386.60</ele>
        <time>2016-10-22T06:22:12Z</time>
      </trkpt>
      <trkpt lat="42.483310000" lon="-2.544191000">
        <ele>386.70</ele>
        <time>2016-10-22T06:22:13Z</time>
      </trkpt>
      <trkpt lat="42.483314000" lon="-2.544250000">
        <ele>386.80</ele>
        <time>2016-10-22T06:22:14Z</time>
      </trkpt>
      <trkpt lat="42.483319000" lon="-2.544310000">
        <ele>386.70</ele>
        <time>2016-10-22T06:22:15Z</time>
      </trkpt>
      <trkpt lat="42.483322000" lon="-2.544370000">
        <ele>386.60</ele>
        <time>2016-10-22T06:22:16Z</time>
      </trkpt>
      <trkpt lat="42.483329000" lon="-2.544431000">
        <ele>386.50</ele>
        <time>2016-10-22T06:22:17Z</time>
      </trkpt>
      <trkpt lat="42.483335000" lon="-2.544491000">
        <ele>386.40</ele>
        <time>2016-10-22T06:22:18Z</time>
      </trkpt>
      <trkpt lat="42.483342000" lon="-2.544548000">
        <ele>386.30</ele>
        <time>2016-10-22T06:22:19Z</time>
      </trkpt>
      <trkpt lat="42.483345000" lon="-2.544610000">
        <ele>386.30</ele>
        <time>2016-10-22T06:22:20Z</time>
      </trkpt>
      <trkpt lat="42.483349000" lon="-2.544673000">
        <ele>386.30</ele>
        <time>2016-10-22T06:22:21Z</time>
      </trkpt>
      <trkpt lat="42.483357000" lon="-2.544740000">
        <ele>386.30</ele>
        <time>2016-10-22T06:22:22Z</time>
      </trkpt>
      <trkpt lat="42.483366000" lon="-2.544800000">
        <ele>386.30</ele>
        <time>2016-10-22T06:22:23Z</time>
      </trkpt>
      <trkpt lat="42.483375000" lon="-2.544862000">
        <ele>386.30</ele>
        <time>2016-10-22T06:22:24Z</time>
      </trkpt>
      <trkpt lat="42.483380000" lon="-2.544921000">
        <ele>386.20</ele>
        <time>2016-10-22T06:22:25Z</time>
      </trkpt>
      <trkpt lat="42.483386000" lon="-2.544982000">
        <ele>386.10</ele>
        <time>2016-10-22T06:22:26Z</time>
      </trkpt>
      <trkpt lat="42.483389000" lon="-2.545046000">
        <ele>386.10</ele>
        <time>2016-10-22T06:22:27Z</time>
      </trkpt>
      <trkpt lat="42.483390000" lon="-2.545107000">
        <ele>386.00</ele>
        <time>2016-10-22T06:22:28Z</time>
      </trkpt>
      <trkpt lat="42.483389000" lon="-2.545172000">
        <ele>386.00</ele>
        <time>2016-10-22T06:22:29Z</time>
      </trkpt>
      <trkpt lat="42.483383000" lon="-2.545237000">
        <ele>385.90</ele>
        <time>2016-10-22T06:22:30Z</time>
      </trkpt>
      <trkpt lat="42.483376000" lon="-2.545304000">
        <ele>385.90</ele>
        <time>2016-10-22T06:22:31Z</time>
      </trkpt>
      <trkpt lat="42.483368000" lon="-2.545371000">
        <ele>385.90</ele>
        <time>2016-10-22T06:22:32Z</time>
      </trkpt>
      <trkpt lat="42.483363000" lon="-2.545435000">
        <ele>385.80</ele>
        <time>2016-10-22T06:22:33Z</time>
      </trkpt>
      <trkpt lat="42.483356000" lon="-2.545499000">
        <ele>385.80</ele>
        <time>2016-10-22T06:22:34Z</time>
      </trkpt>
      <trkpt lat="42.483346000" lon="-2.545561000">
        <ele>385.80</ele>
        <time>2016-10-22T06:22:35Z</time>
      </trkpt>
      <trkpt lat="42.483337000" lon="-2.545620000">
        <ele>385.80</ele>
        <time>2016-10-22T06:22:36Z</time>
      </trkpt>
      <trkpt lat="42.483329000" lon="-2.545680000">
        <ele>385.80</ele>
        <time>2016-10-22T06:22:37Z</time>
      </trkpt>
      <trkpt lat="42.483322000" lon="-2.545740000">
        <ele>385.80</ele>
        <time>2016-10-22T06:22:38Z</time>
      </trkpt>
      <trkpt lat="42.483316000" lon="-2.545800000">
        <ele>385.80</ele>
        <time>2016-10-22T06:22:39Z</time>
      </trkpt>
      <trkpt lat="42.483308000" lon="-2.545861000">
        <ele>385.80</ele>
        <time>2016-10-22T06:22:40Z</time>
      </trkpt>
      <trkpt lat="42.483301000" lon="-2.545922000">
        <ele>385.90</ele>
        <time>2016-10-22T06:22:41Z</time>
      </trkpt>
      <trkpt lat="42.483295000" lon="-2.545983000">
        <ele>385.90</ele>
        <time>2016-10-22T06:22:42Z</time>
      </trkpt>
      <trkpt lat="42.483289000" lon="-2.546041000">
        <ele>386.00</ele>
        <time>2016-10-22T06:22:43Z</time>
      </trkpt>
      <trkpt lat="42.483283000" lon="-2.546098000">
        <ele>386.00</ele>
        <time>2016-10-22T06:22:44Z</time>
      </trkpt>
      <trkpt lat="42.483276000" lon="-2.546157000">
        <ele>386.10</ele>
        <time>2016-10-22T06:22:45Z</time>
      </trkpt>
      <trkpt lat="42.483263000" lon="-2.546277000">
        <ele>386.10</ele>
        <time>2016-10-22T06:22:47Z</time>
      </trkpt>
      <trkpt lat="42.483256000" lon="-2.546337000">
        <ele>386.00</ele>
        <time>2016-10-22T06:22:48Z</time>
      </trkpt>
      <trkpt lat="42.483252000" lon="-2.546399000">
        <ele>386.10</ele>
        <time>2016-10-22T06:22:49Z</time>
      </trkpt>
      <trkpt lat="42.483246000" lon="-2.546456000">
        <ele>386.10</ele>
        <time>2016-10-22T06:22:50Z</time>
      </trkpt>
      <trkpt lat="42.483243000" lon="-2.546513000">
        <ele>386.10</ele>
        <time>2016-10-22T06:22:51Z</time>
      </trkpt>
      <trkpt lat="42.483239000" lon="-2.546575000">
        <ele>386.00</ele>
        <time>2016-10-22T06:22:52Z</time>
      </trkpt>
      <trkpt lat="42.483235000" lon="-2.546636000">
        <ele>386.10</ele>
        <time>2016-10-22T06:22:53Z</time>
      </trkpt>
      <trkpt lat="42.483231000" lon="-2.546696000">
        <ele>386.20</ele>
        <time>2016-10-22T06:22:54Z</time>
      </trkpt>
      <trkpt lat="42.483228000" lon="-2.546757000">
        <ele>386.30</ele>
        <time>2016-10-22T06:22:55Z</time>
      </trkpt>
      <trkpt lat="42.483224000" lon="-2.546817000">
        <ele>386.30</ele>
        <time>2016-10-22T06:22:56Z</time>
      </trkpt>
      <trkpt lat="42.483219000" lon="-2.546878000">
        <ele>386.50</ele>
        <time>2016-10-22T06:22:57Z</time>
      </trkpt>
      <trkpt lat="42.483214000" lon="-2.546941000">
        <ele>386.60</ele>
        <time>2016-10-22T06:22:58Z</time>
      </trkpt>
      <trkpt lat="42.483209000" lon="-2.547002000">
        <ele>386.80</ele>
        <time>2016-10-22T06:22:59Z</time>
      </trkpt>
      <trkpt lat="42.483204000" lon="-2.547063000">
        <ele>387.00</ele>
        <time>2016-10-22T06:23:00Z</time>
      </trkpt>
      <trkpt lat="42.483198000" lon="-2.547122000">
        <ele>387.10</ele>
        <time>2016-10-22T06:23:01Z</time>
      </trkpt>
      <trkpt lat="42.483197000" lon="-2.547184000">
        <ele>387.20</ele>
        <time>2016-10-22T06:23:02Z</time>
      </trkpt>
      <trkpt lat="42.483195000" lon="-2.547246000">
        <ele>387.20</ele>
        <time>2016-10-22T06:23:03Z</time>
      </trkpt>
      <trkpt lat="42.483195000" lon="-2.547304000">
        <ele>387.30</ele>
        <time>2016-10-22T06:23:04Z</time>
      </trkpt>
      <trkpt lat="42.483191000" lon="-2.547366000">
        <ele>387.30</ele>
        <time>2016-10-22T06:23:05Z</time>
      </trkpt>
      <trkpt lat="42.483185000" lon="-2.547429000">
        <ele>387.30</ele>
        <time>2016-10-22T06:23:06Z</time>
      </trkpt>
      <trkpt lat="42.483179000" lon="-2.547491000">
        <ele>387.30</ele>
        <time>2016-10-22T06:23:07Z</time>
      </trkpt>
      <trkpt lat="42.483172000" lon="-2.547556000">
        <ele>387.30</ele>
        <time>2016-10-22T06:23:08Z</time>
      </trkpt>
      <trkpt lat="42.483166000" lon="-2.547620000">
        <ele>387.20</ele>
        <time>2016-10-22T06:23:09Z</time>
      </trkpt>
      <trkpt lat="42.483161000" lon="-2.547683000">
        <ele>387.20</ele>
        <time>2016-10-22T06:23:10Z</time>
      </trkpt>
      <trkpt lat="42.483155000" lon="-2.547748000">
        <ele>386.90</ele>
        <time>2016-10-22T06:23:11Z</time>
      </trkpt>
      <trkpt lat="42.483148000" lon="-2.547811000">
        <ele>386.70</ele>
        <time>2016-10-22T06:23:12Z</time>
      </trkpt>
      <trkpt lat="42.483141000" lon="-2.547875000">
        <ele>386.60</ele>
        <time>2016-10-22T06:23:13Z</time>
      </trkpt>
      <trkpt lat="42.483132000" lon="-2.547938000">
        <ele>386.50</ele>
        <time>2016-10-22T06:23:14Z</time>
      </trkpt>
      <trkpt lat="42.483122000" lon="-2.548002000">
        <ele>386.50</ele>
        <time>2016-10-22T06:23:15Z</time>
      </trkpt>
      <trkpt lat="42.483113000" lon="-2.548065000">
        <ele>386.40</ele>
        <time>2016-10-22T06:23:16Z</time>
      </trkpt>
      <trkpt lat="42.483103000" lon="-2.548130000">
        <ele>386.40</ele>
        <time>2016-10-22T06:23:17Z</time>
      </trkpt>
      <trkpt lat="42.483093000" lon="-2.548194000">
        <ele>386.50</ele>
        <time>2016-10-22T06:23:18Z</time>
      </trkpt>
      <trkpt lat="42.483083000" lon="-2.548259000">
        <ele>386.50</ele>
        <time>2016-10-22T06:23:19Z</time>
      </trkpt>
      <trkpt lat="42.483078000" lon="-2.548325000">
        <ele>386.50</ele>
        <time>2016-10-22T06:23:20Z</time>
      </trkpt>
      <trkpt lat="42.483072000" lon="-2.548390000">
        <ele>386.50</ele>
        <time>2016-10-22T06:23:21Z</time>
      </trkpt>
      <trkpt lat="42.483068000" lon="-2.548456000">
        <ele>386.50</ele>
        <time>2016-10-22T06:23:22Z</time>
      </trkpt>
      <trkpt lat="42.483066000" lon="-2.548523000">
        <ele>386.50</ele>
        <time>2016-10-22T06:23:23Z</time>
      </trkpt>
      <trkpt lat="42.483064000" lon="-2.548591000">
        <ele>386.50</ele>
        <time>2016-10-22T06:23:24Z</time>
      </trkpt>
      <trkpt lat="42.483058000" lon="-2.548663000">
        <ele>386.40</ele>
        <time>2016-10-22T06:23:25Z</time>
      </trkpt>
      <trkpt lat="42.483053000" lon="-2.548735000">
        <ele>386.30</ele>
        <time>2016-10-22T06:23:26Z</time>
      </trkpt>
      <trkpt lat="42.483048000" lon="-2.548807000">
        <ele>386.20</ele>
        <time>2016-10-22T06:23:27Z</time>
      </trkpt>
      <trkpt lat="42.483043000" lon="-2.548885000">
        <ele>386.20</ele>
        <time>2016-10-22T06:23:28Z</time>
      </trkpt>
      <trkpt lat="42.483035000" lon="-2.548961000">
        <ele>386.10</ele>
        <time>2016-10-22T06:23:29Z</time>
      </trkpt>
      <trkpt lat="42.483027000" lon="-2.549042000">
        <ele>386.10</ele>
        <time>2016-10-22T06:23:30Z</time>
      </trkpt>
      <trkpt lat="42.483018000" lon="-2.549120000">
        <ele>386.10</ele>
        <time>2016-10-22T06:23:31Z</time>
      </trkpt>
      <trkpt lat="42.483007000" lon="-2.549196000">
        <ele>386.10</ele>
        <time>2016-10-22T06:23:32Z</time>
      </trkpt>
      <trkpt lat="42.482993000" lon="-2.549270000">
        <ele>385.90</ele>
        <time>2016-10-22T06:23:33Z</time>
      </trkpt>
      <trkpt lat="42.482983000" lon="-2.549341000">
        <ele>385.70</ele>
        <time>2016-10-22T06:23:34Z</time>
      </trkpt>
      <trkpt lat="42.482970000" lon="-2.549410000">
        <ele>385.60</ele>
        <time>2016-10-22T06:23:35Z</time>
      </trkpt>
      <trkpt lat="42.482956000" lon="-2.549482000">
        <ele>385.50</ele>
        <time>2016-10-22T06:23:36Z</time>
      </trkpt>
      <trkpt lat="42.482939000" lon="-2.549551000">
        <ele>385.40</ele>
        <time>2016-10-22T06:23:37Z</time>
      </trkpt>
      <trkpt lat="42.482923000" lon="-2.549623000">
        <ele>385.40</ele>
        <time>2016-10-22T06:23:38Z</time>
      </trkpt>
      <trkpt lat="42.482908000" lon="-2.549692000">
        <ele>385.40</ele>
        <time>2016-10-22T06:23:39Z</time>
      </trkpt>
      <trkpt lat="42.482892000" lon="-2.549760000">
        <ele>385.30</ele>
        <time>2016-10-22T06:23:40Z</time>
      </trkpt>
      <trkpt lat="42.482878000" lon="-2.549825000">
        <ele>385.30</ele>
        <time>2016-10-22T06:23:41Z</time>
      </trkpt>
      <trkpt lat="42.482861000" lon="-2.549887000">
        <ele>385.30</ele>
        <time>2016-10-22T06:23:42Z</time>
      </trkpt>
      <trkpt lat="42.482844000" lon="-2.549948000">
        <ele>385.40</ele>
        <time>2016-10-22T06:23:43Z</time>
      </trkpt>
      <trkpt lat="42.482829000" lon="-2.550008000">
        <ele>385.40</ele>
        <time>2016-10-22T06:23:44Z</time>
      </trkpt>
      <trkpt lat="42.482818000" lon="-2.550068000">
        <ele>385.50</ele>
        <time>2016-10-22T06:23:45Z</time>
      </trkpt>
      <trkpt lat="42.482804000" lon="-2.550125000">
        <ele>385.50</ele>
        <time>2016-10-22T06:23:46Z</time>
      </trkpt>
      <trkpt lat="42.482776000" lon="-2.550241000">
        <ele>385.40</ele>
        <time>2016-10-22T06:23:48Z</time>
      </trkpt>
      <trkpt lat="42.482766000" lon="-2.550298000">
        <ele>385.40</ele>
        <time>2016-10-22T06:23:49Z</time>
      </trkpt>
      <trkpt lat="42.482755000" lon="-2.550356000">
        <ele>385.40</ele>
        <time>2016-10-22T06:23:50Z</time>
      </trkpt>
      <trkpt lat="42.482746000" lon="-2.550415000">
        <ele>385.60</ele>
        <time>2016-10-22T06:23:51Z</time>
      </trkpt>
      <trkpt lat="42.482736000" lon="-2.550478000">
        <ele>385.80</ele>
        <time>2016-10-22T06:23:52Z</time>
      </trkpt>
      <trkpt lat="42.482731000" lon="-2.550539000">
        <ele>385.90</ele>
        <time>2016-10-22T06:23:53Z</time>
      </trkpt>
      <trkpt lat="42.482725000" lon="-2.550598000">
        <ele>386.00</ele>
        <time>2016-10-22T06:23:54Z</time>
      </trkpt>
      <trkpt lat="42.482721000" lon="-2.550660000">
        <ele>386.10</ele>
        <time>2016-10-22T06:23:55Z</time>
      </trkpt>
      <trkpt lat="42.482718000" lon="-2.550718000">
        <ele>386.10</ele>
        <time>2016-10-22T06:23:56Z</time>
      </trkpt>
      <trkpt lat="42.482715000" lon="-2.550783000">
        <ele>386.20</ele>
        <time>2016-10-22T06:23:57Z</time>
      </trkpt>
      <trkpt lat="42.482712000" lon="-2.550844000">
        <ele>386.20</ele>
        <time>2016-10-22T06:23:58Z</time>
      </trkpt>
      <trkpt lat="42.482711000" lon="-2.550908000">
        <ele>386.10</ele>
        <time>2016-10-22T06:23:59Z</time>
      </trkpt>
      <trkpt lat="42.482710000" lon="-2.550973000">
        <ele>386.00</ele>
        <time>2016-10-22T06:24:00Z</time>
      </trkpt>
      <trkpt lat="42.482709000" lon="-2.551038000">
        <ele>386.10</ele>
        <time>2016-10-22T06:24:01Z</time>
      </trkpt>
      <trkpt lat="42.482705000" lon="-2.551104000">
        <ele>386.10</ele>
        <time>2016-10-22T06:24:02Z</time>
      </trkpt>
      <trkpt lat="42.482703000" lon="-2.551170000">
        <ele>386.00</ele>
        <time>2016-10-22T06:24:03Z</time>
      </trkpt>
      <trkpt lat="42.482703000" lon="-2.551236000">
        <ele>386.00</ele>
        <time>2016-10-22T06:24:04Z</time>
      </trkpt>
      <trkpt lat="42.482702000" lon="-2.551300000">
        <ele>386.10</ele>
        <time>2016-10-22T06:24:05Z</time>
      </trkpt>
      <trkpt lat="42.482701000" lon="-2.551365000">
        <ele>386.10</ele>
        <time>2016-10-22T06:24:06Z</time>
      </trkpt>
      <trkpt lat="42.482705000" lon="-2.551427000">
        <ele>386.20</ele>
        <time>2016-10-22T06:24:07Z</time>
      </trkpt>
      <trkpt lat="42.482707000" lon="-2.551490000">
        <ele>386.20</ele>
        <time>2016-10-22T06:24:08Z</time>
      </trkpt>
      <trkpt lat="42.482712000" lon="-2.551555000">
        <ele>386.30</ele>
        <time>2016-10-22T06:24:09Z</time>
      </trkpt>
      <trkpt lat="42.482717000" lon="-2.551618000">
        <ele>386.30</ele>
        <time>2016-10-22T06:24:10Z</time>
      </trkpt>
      <trkpt lat="42.482719000" lon="-2.551679000">
        <ele>386.40</ele>
        <time>2016-10-22T06:24:11Z</time>
      </trkpt>
      <trkpt lat="42.482722000" lon="-2.551741000">
        <ele>386.40</ele>
        <time>2016-10-22T06:24:12Z</time>
      </trkpt>
      <trkpt lat="42.482722000" lon="-2.551803000">
        <ele>386.50</ele>
        <time>2016-10-22T06:24:13Z</time>
      </trkpt>
      <trkpt lat="42.482720000" lon="-2.551867000">
        <ele>386.50</ele>
        <time>2016-10-22T06:24:14Z</time>
      </trkpt>
      <trkpt lat="42.482712000" lon="-2.551933000">
        <ele>386.40</ele>
        <time>2016-10-22T06:24:15Z</time>
      </trkpt>
      <trkpt lat="42.482703000" lon="-2.551996000">
        <ele>386.40</ele>
        <time>2016-10-22T06:24:16Z</time>
      </trkpt>
      <trkpt lat="42.482694000" lon="-2.552063000">
        <ele>386.40</ele>
        <time>2016-10-22T06:24:17Z</time>
      </trkpt>
      <trkpt lat="42.482687000" lon="-2.552132000">
        <ele>386.30</ele>
        <time>2016-10-22T06:24:18Z</time>
      </trkpt>
      <trkpt lat="42.482685000" lon="-2.552200000">
        <ele>386.20</ele>
        <time>2016-10-22T06:24:19Z</time>
      </trkpt>
      <trkpt lat="42.482687000" lon="-2.552264000">
        <ele>386.10</ele>
        <time>2016-10-22T06:24:20Z</time>
      </trkpt>
      <trkpt lat="42.482690000" lon="-2.552334000">
        <ele>386.00</ele>
        <time>2016-10-22T06:24:21Z</time>
      </trkpt>
      <trkpt lat="42.482692000" lon="-2.552405000">
        <ele>386.00</ele>
        <time>2016-10-22T06:24:22Z</time>
      </trkpt>
      <trkpt lat="42.482698000" lon="-2.552478000">
        <ele>385.90</ele>
        <time>2016-10-22T06:24:23Z</time>
      </trkpt>
      <trkpt lat="42.482710000" lon="-2.552551000">
        <ele>385.90</ele>
        <time>2016-10-22T06:24:24Z</time>
      </trkpt>
      <trkpt lat="42.482724000" lon="-2.552616000">
        <ele>385.80</ele>
        <time>2016-10-22T06:24:25Z</time>
      </trkpt>
      <trkpt lat="42.482739000" lon="-2.552678000">
        <ele>385.80</ele>
        <time>2016-10-22T06:24:26Z</time>
      </trkpt>
      <trkpt lat="42.482757000" lon="-2.552743000">
        <ele>385.80</ele>
        <time>2016-10-22T06:24:27Z</time>
      </trkpt>
      <trkpt lat="42.482777000" lon="-2.552803000">
        <ele>385.80</ele>
        <time>2016-10-22T06:24:28Z</time>
      </trkpt>
      <trkpt lat="42.482792000" lon="-2.552864000">
        <ele>385.80</ele>
        <time>2016-10-22T06:24:29Z</time>
      </trkpt>
      <trkpt lat="42.482810000" lon="-2.552924000">
        <ele>385.80</ele>
        <time>2016-10-22T06:24:30Z</time>
      </trkpt>
      <trkpt lat="42.482827000" lon="-2.552985000">
        <ele>385.80</ele>
        <time>2016-10-22T06:24:31Z</time>
      </trkpt>
      <trkpt lat="42.482844000" lon="-2.553051000">
        <ele>385.80</ele>
        <time>2016-10-22T06:24:32Z</time>
      </trkpt>
      <trkpt lat="42.482863000" lon="-2.553116000">
        <ele>385.80</ele>
        <time>2016-10-22T06:24:33Z</time>
      </trkpt>
      <trkpt lat="42.482886000" lon="-2.553175000">
        <ele>385.80</ele>
        <time>2016-10-22T06:24:34Z</time>
      </trkpt>
      <trkpt lat="42.482912000" lon="-2.553232000">
        <ele>385.60</ele>
        <time>2016-10-22T06:24:35Z</time>
      </trkpt>
      <trkpt lat="42.482938000" lon="-2.553285000">
        <ele>385.50</ele>
        <time>2016-10-22T06:24:36Z</time>
      </trkpt>
      <trkpt lat="42.482963000" lon="-2.553337000">
        <ele>385.50</ele>
        <time>2016-10-22T06:24:37Z</time>
      </trkpt>
      <trkpt lat="42.482988000" lon="-2.553387000">
        <ele>385.40</ele>
        <time>2016-10-22T06:24:38Z</time>
      </trkpt>
      <trkpt lat="42.483015000" lon="-2.553444000">
        <ele>385.50</ele>
        <time>2016-10-22T06:24:39Z</time>
      </trkpt>
      <trkpt lat="42.483042000" lon="-2.553502000">
        <ele>385.60</ele>
        <time>2016-10-22T06:24:40Z</time>
      </trkpt>
      <trkpt lat="42.483068000" lon="-2.553559000">
        <ele>385.70</ele>
        <time>2016-10-22T06:24:41Z</time>
      </trkpt>
      <trkpt lat="42.483091000" lon="-2.553624000">
        <ele>385.80</ele>
        <time>2016-10-22T06:24:42Z</time>
      </trkpt>
      <trkpt lat="42.483113000" lon="-2.553688000">
        <ele>385.80</ele>
        <time>2016-10-22T06:24:43Z</time>
      </trkpt>
      <trkpt lat="42.483134000" lon="-2.553751000">
        <ele>385.80</ele>
        <time>2016-10-22T06:24:44Z</time>
      </trkpt>
      <trkpt lat="42.483156000" lon="-2.553821000">
        <ele>385.90</ele>
        <time>2016-10-22T06:24:45Z</time>
      </trkpt>
      <trkpt lat="42.483176000" lon="-2.553888000">
        <ele>385.90</ele>
        <time>2016-10-22T06:24:46Z</time>
      </trkpt>
      <trkpt lat="42.483197000" lon="-2.553955000">
        <ele>385.90</ele>
        <time>2016-10-22T06:24:47Z</time>
      </trkpt>
      <trkpt lat="42.483238000" lon="-2.554093000">
        <ele>385.90</ele>
        <time>2016-10-22T06:24:49Z</time>
      </trkpt>
      <trkpt lat="42.483262000" lon="-2.554162000">
        <ele>385.80</ele>
        <time>2016-10-22T06:24:50Z</time>
      </trkpt>
      <trkpt lat="42.483287000" lon="-2.554234000">
        <ele>385.70</ele>
        <time>2016-10-22T06:24:51Z</time>
      </trkpt>
      <trkpt lat="42.483311000" lon="-2.554307000">
        <ele>385.60</ele>
        <time>2016-10-22T06:24:52Z</time>
      </trkpt>
      <trkpt lat="42.483334000" lon="-2.554377000">
        <ele>385.40</ele>
        <time>2016-10-22T06:24:53Z</time>
      </trkpt>
      <trkpt lat="42.483355000" lon="-2.554449000">
        <ele>385.20</ele>
        <time>2016-10-22T06:24:54Z</time>
      </trkpt>
      <trkpt lat="42.483374000" lon="-2.554522000">
        <ele>385.10</ele>
        <time>2016-10-22T06:24:55Z</time>
      </trkpt>
      <trkpt lat="42.483394000" lon="-2.554594000">
        <ele>385.00</ele>
        <time>2016-10-22T06:24:56Z</time>
      </trkpt>
      <trkpt lat="42.483409000" lon="-2.554664000">
        <ele>384.90</ele>
        <time>2016-10-22T06:24:57Z</time>
      </trkpt>
      <trkpt lat="42.483426000" lon="-2.554735000">
        <ele>384.80</ele>
        <time>2016-10-22T06:24:58Z</time>
      </trkpt>
      <trkpt lat="42.483445000" lon="-2.554805000">
        <ele>384.60</ele>
        <time>2016-10-22T06:24:59Z</time>
      </trkpt>
      <trkpt lat="42.483467000" lon="-2.554870000">
        <ele>384.50</ele>
        <time>2016-10-22T06:25:00Z</time>
      </trkpt>
      <trkpt lat="42.483491000" lon="-2.554936000">
        <ele>384.40</ele>
        <time>2016-10-22T06:25:01Z</time>
      </trkpt>
      <trkpt lat="42.483517000" lon="-2.555001000">
        <ele>384.30</ele>
        <time>2016-10-22T06:25:02Z</time>
      </trkpt>
      <trkpt lat="42.483548000" lon="-2.555066000">
        <ele>384.30</ele>
        <time>2016-10-22T06:25:03Z</time>
      </trkpt>
      <trkpt lat="42.483581000" lon="-2.555131000">
        <ele>384.20</ele>
        <time>2016-10-22T06:25:04Z</time>
      </trkpt>
      <trkpt lat="42.483616000" lon="-2.555195000">
        <ele>384.20</ele>
        <time>2016-10-22T06:25:05Z</time>
      </trkpt>
      <trkpt lat="42.483650000" lon="-2.555258000">
        <ele>384.20</ele>
        <time>2016-10-22T06:25:06Z</time>
      </trkpt>
      <trkpt lat="42.483686000" lon="-2.555321000">
        <ele>384.00</ele>
        <time>2016-10-22T06:25:07Z</time>
      </trkpt>
      <trkpt lat="42.483717000" lon="-2.555387000">
        <ele>383.90</ele>
        <time>2016-10-22T06:25:08Z</time>
      </trkpt>
      <trkpt lat="42.483748000" lon="-2.555452000">
        <ele>383.80</ele>
        <time>2016-10-22T06:25:09Z</time>
      </trkpt>
      <trkpt lat="42.483778000" lon="-2.555511000">
        <ele>383.80</ele>
        <time>2016-10-22T06:25:10Z</time>
      </trkpt>
      <trkpt lat="42.483808000" lon="-2.555565000">
        <ele>384.10</ele>
        <time>2016-10-22T06:25:11Z</time>
      </trkpt>
      <trkpt lat="42.483835000" lon="-2.555617000">
        <ele>384.30</ele>
        <time>2016-10-22T06:25:12Z</time>
      </trkpt>
      <trkpt lat="42.483864000" lon="-2.555666000">
        <ele>384.60</ele>
        <time>2016-10-22T06:25:13Z</time>
      </trkpt>
      <trkpt lat="42.483892000" lon="-2.555715000">
        <ele>384.80</ele>
        <time>2016-10-22T06:25:14Z</time>
      </trkpt>
      <trkpt lat="42.483923000" lon="-2.555769000">
        <ele>385.00</ele>
        <time>2016-10-22T06:25:15Z</time>
      </trkpt>
      <trkpt lat="42.483958000" lon="-2.555824000">
        <ele>385.20</ele>
        <time>2016-10-22T06:25:16Z</time>
      </trkpt>
      <trkpt lat="42.483991000" lon="-2.555885000">
        <ele>385.40</ele>
        <time>2016-10-22T06:25:17Z</time>
      </trkpt>
      <trkpt lat="42.484027000" lon="-2.555940000">
        <ele>385.50</ele>
        <time>2016-10-22T06:25:18Z</time>
      </trkpt>
      <trkpt lat="42.484054000" lon="-2.556001000">
        <ele>385.20</ele>
        <time>2016-10-22T06:25:19Z</time>
      </trkpt>
      <trkpt lat="42.484083000" lon="-2.556063000">
        <ele>385.00</ele>
        <time>2016-10-22T06:25:20Z</time>
      </trkpt>
      <trkpt lat="42.484116000" lon="-2.556117000">
        <ele>384.80</ele>
        <time>2016-10-22T06:25:21Z</time>
      </trkpt>
      <trkpt lat="42.484146000" lon="-2.556171000">
        <ele>384.70</ele>
        <time>2016-10-22T06:25:22Z</time>
      </trkpt>
      <trkpt lat="42.484174000" lon="-2.556224000">
        <ele>384.60</ele>
        <time>2016-10-22T06:25:23Z</time>
      </trkpt>
      <trkpt lat="42.484202000" lon="-2.556279000">
        <ele>384.60</ele>
        <time>2016-10-22T06:25:24Z</time>
      </trkpt>
      <trkpt lat="42.484229000" lon="-2.556332000">
        <ele>384.60</ele>
        <time>2016-10-22T06:25:25Z</time>
      </trkpt>
      <trkpt lat="42.484255000" lon="-2.556385000">
        <ele>384.60</ele>
        <time>2016-10-22T06:25:26Z</time>
      </trkpt>
      <trkpt lat="42.484281000" lon="-2.556436000">
        <ele>384.30</ele>
        <time>2016-10-22T06:25:27Z</time>
      </trkpt>
      <trkpt lat="42.484303000" lon="-2.556489000">
        <ele>384.00</ele>
        <time>2016-10-22T06:25:28Z</time>
      </trkpt>
      <trkpt lat="42.484323000" lon="-2.556542000">
        <ele>383.80</ele>
        <time>2016-10-22T06:25:29Z</time>
      </trkpt>
      <trkpt lat="42.484341000" lon="-2.556592000">
        <ele>383.70</ele>
        <time>2016-10-22T06:25:30Z</time>
      </trkpt>
      <trkpt lat="42.484352000" lon="-2.556635000">
        <ele>383.80</ele>
        <time>2016-10-22T06:25:31Z</time>
      </trkpt>
      <trkpt lat="42.484362000" lon="-2.556677000">
        <ele>384.00</ele>
        <time>2016-10-22T06:25:32Z</time>
      </trkpt>
      <trkpt lat="42.484365000" lon="-2.556716000">
        <ele>384.20</ele>
        <time>2016-10-22T06:25:33Z</time>
      </trkpt>
      <trkpt lat="42.484370000" lon="-2.556753000">
        <ele>384.20</ele>
        <time>2016-10-22T06:25:34Z</time>
      </trkpt>
      <trkpt lat="42.484369000" lon="-2.556794000">
        <ele>384.30</ele>
        <time>2016-10-22T06:25:35Z</time>
      </trkpt>
      <trkpt lat="42.484367000" lon="-2.556836000">
        <ele>384.30</ele>
        <time>2016-10-22T06:25:36Z</time>
      </trkpt>
      <trkpt lat="42.484364000" lon="-2.556881000">
        <ele>384.40</ele>
        <time>2016-10-22T06:25:37Z</time>
      </trkpt>
      <trkpt lat="42.484362000" lon="-2.556925000">
        <ele>384.40</ele>
        <time>2016-10-22T06:25:38Z</time>
      </trkpt>
      <trkpt lat="42.484354000" lon="-2.556973000">
        <ele>384.30</ele>
        <time>2016-10-22T06:25:39Z</time>
      </trkpt>
      <trkpt lat="42.484343000" lon="-2.557020000">
        <ele>384.30</ele>
        <time>2016-10-22T06:25:40Z</time>
      </trkpt>
      <trkpt lat="42.484330000" lon="-2.557068000">
        <ele>384.30</ele>
        <time>2016-10-22T06:25:41Z</time>
      </trkpt>
      <trkpt lat="42.484309000" lon="-2.557119000">
        <ele>384.20</ele>
        <time>2016-10-22T06:25:42Z</time>
      </trkpt>
      <trkpt lat="42.484283000" lon="-2.557161000">
        <ele>384.20</ele>
        <time>2016-10-22T06:25:43Z</time>
      </trkpt>
      <trkpt lat="42.484251000" lon="-2.557199000">
        <ele>384.00</ele>
        <time>2016-10-22T06:25:44Z</time>
      </trkpt>
      <trkpt lat="42.484221000" lon="-2.557235000">
        <ele>383.90</ele>
        <time>2016-10-22T06:25:45Z</time>
      </trkpt>
      <trkpt lat="42.484190000" lon="-2.557266000">
        <ele>383.80</ele>
        <time>2016-10-22T06:25:46Z</time>
      </trkpt>
      <trkpt lat="42.484160000" lon="-2.557298000">
        <ele>383.70</ele>
        <time>2016-10-22T06:25:47Z</time>
      </trkpt>
      <trkpt lat="42.484127000" lon="-2.557324000">
        <ele>383.70</ele>
        <time>2016-10-22T06:25:48Z</time>
      </trkpt>
      <trkpt lat="42.483734000" lon="-2.557524000">
        <ele>384.80</ele>
        <time>2016-10-22T06:26:00Z</time>
      </trkpt>
      <trkpt lat="42.483712000" lon="-2.557518000">
        <ele>385.10</ele>
        <time>2016-10-22T06:26:01Z</time>
      </trkpt>
      <trkpt lat="42.483686000" lon="-2.557515000">
        <ele>385.40</ele>
        <time>2016-10-22T06:26:02Z</time>
      </trkpt>
      <trkpt lat="42.483665000" lon="-2.557507000">
        <ele>385.60</ele>
        <time>2016-10-22T06:26:03Z</time>
      </trkpt>
      <trkpt lat="42.483645000" lon="-2.557500000">
        <ele>385.90</ele>
        <time>2016-10-22T06:26:04Z</time>
      </trkpt>
      <trkpt lat="42.483621000" lon="-2.557489000">
        <ele>386.10</ele>
        <time>2016-10-22T06:26:05Z</time>
      </trkpt>
      <trkpt lat="42.483601000" lon="-2.557470000">
        <ele>386.50</ele>
        <time>2016-10-22T06:26:06Z</time>
      </trkpt>
      <trkpt lat="42.483584000" lon="-2.557445000">
        <ele>386.70</ele>
        <time>2016-10-22T06:26:07Z</time>
      </trkpt>
      <trkpt lat="42.483569000" lon="-2.557416000">
        <ele>387.10</ele>
        <time>2016-10-22T06:26:08Z</time>
      </trkpt>
      <trkpt lat="42.483555000" lon="-2.557388000">
        <ele>387.30</ele>
        <time>2016-10-22T06:26:09Z</time>
      </trkpt>
      <trkpt lat="42.483540000" lon="-2.557359000">
        <ele>387.60</ele>
        <time>2016-10-22T06:26:10Z</time>
      </trkpt>
      <trkpt lat="42.483526000" lon="-2.557328000">
        <ele>387.80</ele>
        <time>2016-10-22T06:26:11Z</time>
      </trkpt>
      <trkpt lat="42.483513000" lon="-2.557298000">
        <ele>388.00</ele>
        <time>2016-10-22T06:26:12Z</time>
      </trkpt>
      <trkpt lat="42.483503000" lon="-2.557269000">
        <ele>388.20</ele>
        <time>2016-10-22T06:26:13Z</time>
      </trkpt>
      <trkpt lat="42.483490000" lon="-2.557240000">
        <ele>388.50</ele>
        <time>2016-10-22T06:26:14Z</time>
      </trkpt>
      <trkpt lat="42.483478000" lon="-2.557210000">
        <ele>388.80</ele>
        <time>2016-10-22T06:26:15Z</time>
      </trkpt>
      <trkpt lat="42.483471000" lon="-2.557176000">
        <ele>389.00</ele>
        <time>2016-10-22T06:26:16Z</time>
      </trkpt>
      <trkpt lat="42.483470000" lon="-2.557139000">
        <ele>389.10</ele>
        <time>2016-10-22T06:26:17Z</time>
      </trkpt>
      <trkpt lat="42.483476000" lon="-2.557102000">
        <ele>389.30</ele>
        <time>2016-10-22T06:26:18Z</time>
      </trkpt>
      <trkpt lat="42.483489000" lon="-2.557070000">
        <ele>389.40</ele>
        <time>2016-10-22T06:26:19Z</time>
      </trkpt>
      <trkpt lat="42.483505000" lon="-2.557041000">
        <ele>389.70</ele>
        <time>2016-10-22T06:26:20Z</time>
      </trkpt>
      <trkpt lat="42.483528000" lon="-2.557014000">
        <ele>389.80</ele>
        <time>2016-10-22T06:26:21Z</time>
      </trkpt>
      <trkpt lat="42.483557000" lon="-2.556998000">
        <ele>389.80</ele>
        <time>2016-10-22T06:26:22Z</time>
      </trkpt>
      <trkpt lat="42.483587000" lon="-2.556982000">
        <ele>389.80</ele>
        <time>2016-10-22T06:26:23Z</time>
      </trkpt>
      <trkpt lat="42.483617000" lon="-2.556974000">
        <ele>389.90</ele>
        <time>2016-10-22T06:26:24Z</time>
      </trkpt>
      <trkpt lat="42.483649000" lon="-2.556979000">
        <ele>390.00</ele>
        <time>2016-10-22T06:26:25Z</time>
      </trkpt>
      <trkpt lat="42.483680000" lon="-2.556998000">
        <ele>390.10</ele>
        <time>2016-10-22T06:26:26Z</time>
      </trkpt>
      <trkpt lat="42.483709000" lon="-2.557020000">
        <ele>390.10</ele>
        <time>2016-10-22T06:26:27Z</time>
      </trkpt>
      <trkpt lat="42.483735000" lon="-2.557049000">
        <ele>390.20</ele>
        <time>2016-10-22T06:26:28Z</time>
      </trkpt>
      <trkpt lat="42.483759000" lon="-2.557079000">
        <ele>390.20</ele>
        <time>2016-10-22T06:26:29Z</time>
      </trkpt>
      <trkpt lat="42.483780000" lon="-2.557113000">
        <ele>390.20</ele>
        <time>2016-10-22T06:26:30Z</time>
      </trkpt>
      <trkpt lat="42.483801000" lon="-2.557142000">
        <ele>390.20</ele>
        <time>2016-10-22T06:26:31Z</time>
      </trkpt>
      <trkpt lat="42.483820000" lon="-2.557171000">
        <ele>390.10</ele>
        <time>2016-10-22T06:26:32Z</time>
      </trkpt>
      <trkpt lat="42.483838000" lon="-2.557202000">
        <ele>390.00</ele>
        <time>2016-10-22T06:26:33Z</time>
      </trkpt>
      <trkpt lat="42.483856000" lon="-2.557232000">
        <ele>389.90</ele>
        <time>2016-10-22T06:26:34Z</time>
      </trkpt>
      <trkpt lat="42.483875000" lon="-2.557260000">
        <ele>389.80</ele>
        <time>2016-10-22T06:26:35Z</time>
      </trkpt>
      <trkpt lat="42.483894000" lon="-2.557285000">
        <ele>389.70</ele>
        <time>2016-10-22T06:26:36Z</time>
      </trkpt>
      <trkpt lat="42.483913000" lon="-2.557311000">
        <ele>389.70</ele>
        <time>2016-10-22T06:26:37Z</time>
      </trkpt>
      <trkpt lat="42.483932000" lon="-2.557337000">
        <ele>389.80</ele>
        <time>2016-10-22T06:26:38Z</time>
      </trkpt>
      <trkpt lat="42.483950000" lon="-2.557361000">
        <ele>389.80</ele>
        <time>2016-10-22T06:26:39Z</time>
      </trkpt>
      <trkpt lat="42.483968000" lon="-2.557385000">
        <ele>390.10</ele>
        <time>2016-10-22T06:26:40Z</time>
      </trkpt>
      <trkpt lat="42.483985000" lon="-2.557414000">
        <ele>390.40</ele>
        <time>2016-10-22T06:26:41Z</time>
      </trkpt>
      <trkpt lat="42.484002000" lon="-2.557444000">
        <ele>390.50</ele>
        <time>2016-10-22T06:26:42Z</time>
      </trkpt>
      <trkpt lat="42.484020000" lon="-2.557470000">
        <ele>390.70</ele>
        <time>2016-10-22T06:26:43Z</time>
      </trkpt>
      <trkpt lat="42.484040000" lon="-2.557491000">
        <ele>390.90</ele>
        <time>2016-10-22T06:26:44Z</time>
      </trkpt>
      <trkpt lat="42.484059000" lon="-2.557514000">
        <ele>391.10</ele>
        <time>2016-10-22T06:26:45Z</time>
      </trkpt>
      <trkpt lat="42.484077000" lon="-2.557543000">
        <ele>391.30</ele>
        <time>2016-10-22T06:26:46Z</time>
      </trkpt>
      <trkpt lat="42.484097000" lon="-2.557575000">
        <ele>391.40</ele>
        <time>2016-10-22T06:26:47Z</time>
      </trkpt>
      <trkpt lat="42.484119000" lon="-2.557611000">
        <ele>391.50</ele>
        <time>2016-10-22T06:26:48Z</time>
      </trkpt>
      <trkpt lat="42.484145000" lon="-2.557646000">
        <ele>391.60</ele>
        <time>2016-10-22T06:26:49Z</time>
      </trkpt>
      <trkpt lat="42.484194000" lon="-2.557747000">
        <ele>391.60</ele>
        <time>2016-10-22T06:26:51Z</time>
      </trkpt>
      <trkpt lat="42.484206000" lon="-2.557803000">
        <ele>391.60</ele>
        <time>2016-10-22T06:26:52Z</time>
      </trkpt>
      <trkpt lat="42.484211000" lon="-2.557855000">
        <ele>391.70</ele>
        <time>2016-10-22T06:26:53Z</time>
      </trkpt>
      <trkpt lat="42.484205000" lon="-2.557906000">
        <ele>391.80</ele>
        <time>2016-10-22T06:26:54Z</time>
      </trkpt>
      <trkpt lat="42.484185000" lon="-2.557957000">
        <ele>391.80</ele>
        <time>2016-10-22T06:26:55Z</time>
      </trkpt>
      <trkpt lat="42.484165000" lon="-2.558002000">
        <ele>391.80</ele>
        <time>2016-10-22T06:26:56Z</time>
      </trkpt>
      <trkpt lat="42.484144000" lon="-2.558044000">
        <ele>391.90</ele>
        <time>2016-10-22T06:26:57Z</time>
      </trkpt>
      <trkpt lat="42.484123000" lon="-2.558083000">
        <ele>392.00</ele>
        <time>2016-10-22T06:26:58Z</time>
      </trkpt>
      <trkpt lat="42.484104000" lon="-2.558123000">
        <ele>392.10</ele>
        <time>2016-10-22T06:26:59Z</time>
      </trkpt>
      <trkpt lat="42.484085000" lon="-2.558163000">
        <ele>392.20</ele>
        <time>2016-10-22T06:27:00Z</time>
      </trkpt>
      <trkpt lat="42.484069000" lon="-2.558206000">
        <ele>392.40</ele>
        <time>2016-10-22T06:27:01Z</time>
      </trkpt>
      <trkpt lat="42.484053000" lon="-2.558247000">
        <ele>392.50</ele>
        <time>2016-10-22T06:27:02Z</time>
      </trkpt>
      <trkpt lat="42.484039000" lon="-2.558291000">
        <ele>392.70</ele>
        <time>2016-10-22T06:27:03Z</time>
      </trkpt>
      <trkpt lat="42.484026000" lon="-2.558333000">
        <ele>392.90</ele>
        <time>2016-10-22T06:27:04Z</time>
      </trkpt>
      <trkpt lat="42.484017000" lon="-2.558371000">
        <ele>393.10</ele>
        <time>2016-10-22T06:27:05Z</time>
      </trkpt>
      <trkpt lat="42.484005000" lon="-2.558412000">
        <ele>393.20</ele>
        <time>2016-10-22T06:27:06Z</time>
      </trkpt>
      <trkpt lat="42.483995000" lon="-2.558455000">
        <ele>393.60</ele>
        <time>2016-10-22T06:27:07Z</time>
      </trkpt>
      <trkpt lat="42.483985000" lon="-2.558498000">
        <ele>393.80</ele>
        <time>2016-10-22T06:27:08Z</time>
      </trkpt>
      <trkpt lat="42.483975000" lon="-2.558537000">
        <ele>394.20</ele>
        <time>2016-10-22T06:27:09Z</time>
      </trkpt>
      <trkpt lat="42.483964000" lon="-2.558579000">
        <ele>394.50</ele>
        <time>2016-10-22T06:27:10Z</time>
      </trkpt>
      <trkpt lat="42.483954000" lon="-2.558620000">
        <ele>394.90</ele>
        <time>2016-10-22T06:27:11Z</time>
      </trkpt>
      <trkpt lat="42.483943000" lon="-2.558661000">
        <ele>395.10</ele>
        <time>2016-10-22T06:27:12Z</time>
      </trkpt>
      <trkpt lat="42.483931000" lon="-2.558706000">
        <ele>395.40</ele>
        <time>2016-10-22T06:27:13Z</time>
      </trkpt>
      <trkpt lat="42.483918000" lon="-2.558747000">
        <ele>395.60</ele>
        <time>2016-10-22T06:27:14Z</time>
      </trkpt>
      <trkpt lat="42.483907000" lon="-2.558788000">
        <ele>395.90</ele>
        <time>2016-10-22T06:27:15Z</time>
      </trkpt>
      <trkpt lat="42.483895000" lon="-2.558827000">
        <ele>396.10</ele>
        <time>2016-10-22T06:27:16Z</time>
      </trkpt>
      <trkpt lat="42.483883000" lon="-2.558868000">
        <ele>396.50</ele>
        <time>2016-10-22T06:27:17Z</time>
      </trkpt>
      <trkpt lat="42.483871000" lon="-2.558911000">
        <ele>396.80</ele>
        <time>2016-10-22T06:27:18Z</time>
      </trkpt>
      <trkpt lat="42.483858000" lon="-2.558953000">
        <ele>397.10</ele>
        <time>2016-10-22T06:27:19Z</time>
      </trkpt>
      <trkpt lat="42.483847000" lon="-2.558997000">
        <ele>397.30</ele>
        <time>2016-10-22T06:27:20Z</time>
      </trkpt>
      <trkpt lat="42.483838000" lon="-2.559037000">
        <ele>397.40</ele>
        <time>2016-10-22T06:27:21Z</time>
      </trkpt>
      <trkpt lat="42.483829000" lon="-2.559076000">
        <ele>397.60</ele>
        <time>2016-10-22T06:27:22Z</time>
      </trkpt>
      <trkpt lat="42.483816000" lon="-2.559118000">
        <ele>397.60</ele>
        <time>2016-10-22T06:27:23Z</time>
      </trkpt>
      <trkpt lat="42.483805000" lon="-2.559155000">
        <ele>397.70</ele>
        <time>2016-10-22T06:27:24Z</time>
      </trkpt>
      <trkpt lat="42.483796000" lon="-2.559187000">
        <ele>397.80</ele>
        <time>2016-10-22T06:27:25Z</time>
      </trkpt>
      <trkpt lat="42.483783000" lon="-2.559214000">
        <ele>397.90</ele>
        <time>2016-10-22T06:27:26Z</time>
      </trkpt>
      <trkpt lat="42.483774000" lon="-2.559245000">
        <ele>398.00</ele>
        <time>2016-10-22T06:27:27Z</time>
      </trkpt>
      <trkpt lat="42.483765000" lon="-2.559273000">
        <ele>398.00</ele>
        <time>2016-10-22T06:27:28Z</time>
      </trkpt>
      <trkpt lat="42.483755000" lon="-2.559300000">
        <ele>398.30</ele>
        <time>2016-10-22T06:27:29Z</time>
      </trkpt>
      <trkpt lat="42.483745000" lon="-2.559329000">
        <ele>398.40</ele>
        <time>2016-10-22T06:27:30Z</time>
      </trkpt>
      <trkpt lat="42.483736000" lon="-2.559355000">
        <ele>398.80</ele>
        <time>2016-10-22T06:27:31Z</time>
      </trkpt>
      <trkpt lat="42.483727000" lon="-2.559379000">
        <ele>399.00</ele>
        <time>2016-10-22T06:27:32Z</time>
      </trkpt>
      <trkpt lat="42.483717000" lon="-2.559405000">
        <ele>399.20</ele>
        <time>2016-10-22T06:27:33Z</time>
      </trkpt>
      <trkpt lat="42.483706000" lon="-2.559430000">
        <ele>399.40</ele>
        <time>2016-10-22T06:27:34Z</time>
      </trkpt>
      <trkpt lat="42.483696000" lon="-2.559460000">
        <ele>399.80</ele>
        <time>2016-10-22T06:27:35Z</time>
      </trkpt>
      <trkpt lat="42.483683000" lon="-2.559491000">
        <ele>400.10</ele>
        <time>2016-10-22T06:27:36Z</time>
      </trkpt>
      <trkpt lat="42.483669000" lon="-2.559524000">
        <ele>400.50</ele>
        <time>2016-10-22T06:27:37Z</time>
      </trkpt>
      <trkpt lat="42.483652000" lon="-2.559553000">
        <ele>400.90</ele>
        <time>2016-10-22T06:27:38Z</time>
      </trkpt>
      <trkpt lat="42.483636000" lon="-2.559581000">
        <ele>401.10</ele>
        <time>2016-10-22T06:27:39Z</time>
      </trkpt>
      <trkpt lat="42.483619000" lon="-2.559606000">
        <ele>401.30</ele>
        <time>2016-10-22T06:27:40Z</time>
      </trkpt>
      <trkpt lat="42.483601000" lon="-2.559635000">
        <ele>401.60</ele>
        <time>2016-10-22T06:27:41Z</time>
      </trkpt>
      <trkpt lat="42.483584000" lon="-2.559662000">
        <ele>401.80</ele>
        <time>2016-10-22T06:27:42Z</time>
      </trkpt>
      <trkpt lat="42.483560000" lon="-2.559688000">
        <ele>402.00</ele>
        <time>2016-10-22T06:27:43Z</time>
      </trkpt>
      <trkpt lat="42.483537000" lon="-2.559712000">
        <ele>402.20</ele>
        <time>2016-10-22T06:27:44Z</time>
      </trkpt>
      <trkpt lat="42.483518000" lon="-2.559743000">
        <ele>402.60</ele>
        <time>2016-10-22T06:27:45Z</time>
      </trkpt>
      <trkpt lat="42.483501000" lon="-2.559776000">
        <ele>402.80</ele>
        <time>2016-10-22T06:27:46Z</time>
      </trkpt>
      <trkpt lat="42.483492000" lon="-2.559816000">
        <ele>403.10</ele>
        <time>2016-10-22T06:27:47Z</time>
      </trkpt>
      <trkpt lat="42.483483000" lon="-2.559852000">
        <ele>403.40</ele>
        <time>2016-10-22T06:27:48Z</time>
      </trkpt>
      <trkpt lat="42.483480000" lon="-2.559889000">
        <ele>403.70</ele>
        <time>2016-10-22T06:27:49Z</time>
      </trkpt>
      <trkpt lat="42.483482000" lon="-2.559922000">
        <ele>403.90</ele>
        <time>2016-10-22T06:27:50Z</time>
      </trkpt>
      <trkpt lat="42.483501000" lon="-2.559986000">
        <ele>404.30</ele>
        <time>2016-10-22T06:27:52Z</time>
      </trkpt>
      <trkpt lat="42.483512000" lon="-2.560013000">
        <ele>404.60</ele>
        <time>2016-10-22T06:27:53Z</time>
      </trkpt>
      <trkpt lat="42.483523000" lon="-2.560042000">
        <ele>404.80</ele>
        <time>2016-10-22T06:27:54Z</time>
      </trkpt>
      <trkpt lat="42.483535000" lon="-2.560073000">
        <ele>405.10</ele>
        <time>2016-10-22T06:27:55Z</time>
      </trkpt>
      <trkpt lat="42.483548000" lon="-2.560102000">
        <ele>405.30</ele>
        <time>2016-10-22T06:27:56Z</time>
      </trkpt>
      <trkpt lat="42.483558000" lon="-2.560134000">
        <ele>405.60</ele>
        <time>2016-10-22T06:27:57Z</time>
      </trkpt>
      <trkpt lat="42.483568000" lon="-2.560170000">
        <ele>405.90</ele>
        <time>2016-10-22T06:27:58Z</time>
      </trkpt>
      <trkpt lat="42.483579000" lon="-2.560198000">
        <ele>406.20</ele>
        <time>2016-10-22T06:27:59Z</time>
      </trkpt>
      <trkpt lat="42.483586000" lon="-2.560225000">
        <ele>406.50</ele>
        <time>2016-10-22T06:28:00Z</time>
      </trkpt>
      <trkpt lat="42.483593000" lon="-2.560252000">
        <ele>406.70</ele>
        <time>2016-10-22T06:28:01Z</time>
      </trkpt>
      <trkpt lat="42.483598000" lon="-2.560287000">
        <ele>406.80</ele>
        <time>2016-10-22T06:28:02Z</time>
      </trkpt>
      <trkpt lat="42.483607000" lon="-2.560321000">
        <ele>407.00</ele>
        <time>2016-10-22T06:28:03Z</time>
      </trkpt>
      <trkpt lat="42.483617000" lon="-2.560361000">
        <ele>407.10</ele>
        <time>2016-10-22T06:28:04Z</time>
      </trkpt>
      <trkpt lat="42.483624000" lon="-2.560399000">
        <ele>407.20</ele>
        <time>2016-10-22T06:28:05Z</time>
      </trkpt>
      <trkpt lat="42.483630000" lon="-2.560439000">
        <ele>407.30</ele>
        <time>2016-10-22T06:28:06Z</time>
      </trkpt>
      <trkpt lat="42.483636000" lon="-2.560480000">
        <ele>407.40</ele>
        <time>2016-10-22T06:28:07Z</time>
      </trkpt>
      <trkpt lat="42.483642000" lon="-2.560515000">
        <ele>407.50</ele>
        <time>2016-10-22T06:28:08Z</time>
      </trkpt>
      <trkpt lat="42.483647000" lon="-2.560552000">
        <ele>407.50</ele>
        <time>2016-10-22T06:28:09Z</time>
      </trkpt>
      <trkpt lat="42.483649000" lon="-2.560592000">
        <ele>407.50</ele>
        <time>2016-10-22T06:28:10Z</time>
      </trkpt>
      <trkpt lat="42.483655000" lon="-2.560634000">
        <ele>407.60</ele>
        <time>2016-10-22T06:28:11Z</time>
      </trkpt>
      <trkpt lat="42.483661000" lon="-2.560677000">
        <ele>407.70</ele>
        <time>2016-10-22T06:28:12Z</time>
      </trkpt>
      <trkpt lat="42.483668000" lon="-2.560717000">
        <ele>407.80</ele>
        <time>2016-10-22T06:28:13Z</time>
      </trkpt>
      <trkpt lat="42.483681000" lon="-2.560758000">
        <ele>407.80</ele>
        <time>2016-10-22T06:28:14Z</time>
      </trkpt>
      <trkpt lat="42.483694000" lon="-2.560801000">
        <ele>407.80</ele>
        <time>2016-10-22T06:28:15Z</time>
      </trkpt>
      <trkpt lat="42.483702000" lon="-2.560843000">
        <ele>407.80</ele>
        <time>2016-10-22T06:28:16Z</time>
      </trkpt>
      <trkpt lat="42.483707000" lon="-2.560890000">
        <ele>407.90</ele>
        <time>2016-10-22T06:28:17Z</time>
      </trkpt>
      <trkpt lat="42.483713000" lon="-2.560932000">
        <ele>407.90</ele>
        <time>2016-10-22T06:28:18Z</time>
      </trkpt>
      <trkpt lat="42.483718000" lon="-2.560979000">
        <ele>408.00</ele>
        <time>2016-10-22T06:28:19Z</time>
      </trkpt>
      <trkpt lat="42.483721000" lon="-2.561026000">
        <ele>408.10</ele>
        <time>2016-10-22T06:28:20Z</time>
      </trkpt>
      <trkpt lat="42.483724000" lon="-2.561077000">
        <ele>408.20</ele>
        <time>2016-10-22T06:28:21Z</time>
      </trkpt>
      <trkpt lat="42.483722000" lon="-2.561131000">
        <ele>408.30</ele>
        <time>2016-10-22T06:28:22Z</time>
      </trkpt>
      <trkpt lat="42.483721000" lon="-2.561185000">
        <ele>408.20</ele>
        <time>2016-10-22T06:28:23Z</time>
      </trkpt>
      <trkpt lat="42.483713000" lon="-2.561239000">
        <ele>408.20</ele>
        <time>2016-10-22T06:28:24Z</time>
      </trkpt>
      <trkpt lat="42.483707000" lon="-2.561290000">
        <ele>408.20</ele>
        <time>2016-10-22T06:28:25Z</time>
      </trkpt>
      <trkpt lat="42.483698000" lon="-2.561338000">
        <ele>408.20</ele>
        <time>2016-10-22T06:28:26Z</time>
      </trkpt>
      <trkpt lat="42.483684000" lon="-2.561381000">
        <ele>408.40</ele>
        <time>2016-10-22T06:28:27Z</time>
      </trkpt>
      <trkpt lat="42.483669000" lon="-2.561428000">
        <ele>408.60</ele>
        <time>2016-10-22T06:28:28Z</time>
      </trkpt>
      <trkpt lat="42.483651000" lon="-2.561473000">
        <ele>408.80</ele>
        <time>2016-10-22T06:28:29Z</time>
      </trkpt>
      <trkpt lat="42.483630000" lon="-2.561516000">
        <ele>408.90</ele>
        <time>2016-10-22T06:28:30Z</time>
      </trkpt>
      <trkpt lat="42.483608000" lon="-2.561558000">
        <ele>409.00</ele>
        <time>2016-10-22T06:28:31Z</time>
      </trkpt>
      <trkpt lat="42.483586000" lon="-2.561600000">
        <ele>409.10</ele>
        <time>2016-10-22T06:28:32Z</time>
      </trkpt>
      <trkpt lat="42.483565000" lon="-2.561641000">
        <ele>409.20</ele>
        <time>2016-10-22T06:28:33Z</time>
      </trkpt>
      <trkpt lat="42.483546000" lon="-2.561681000">
        <ele>409.30</ele>
        <time>2016-10-22T06:28:34Z</time>
      </trkpt>
      <trkpt lat="42.483526000" lon="-2.561719000">
        <ele>409.30</ele>
        <time>2016-10-22T06:28:35Z</time>
      </trkpt>
      <trkpt lat="42.483505000" lon="-2.561760000">
        <ele>409.40</ele>
        <time>2016-10-22T06:28:36Z</time>
      </trkpt>
      <trkpt lat="42.483482000" lon="-2.561802000">
        <ele>409.40</ele>
        <time>2016-10-22T06:28:37Z</time>
      </trkpt>
      <trkpt lat="42.483458000" lon="-2.561839000">
        <ele>409.50</ele>
        <time>2016-10-22T06:28:38Z</time>
      </trkpt>
      <trkpt lat="42.483434000" lon="-2.561877000">
        <ele>409.50</ele>
        <time>2016-10-22T06:28:39Z</time>
      </trkpt>
      <trkpt lat="42.483406000" lon="-2.561913000">
        <ele>409.60</ele>
        <time>2016-10-22T06:28:40Z</time>
      </trkpt>
      <trkpt lat="42.483381000" lon="-2.561946000">
        <ele>409.70</ele>
        <time>2016-10-22T06:28:41Z</time>
      </trkpt>
      <trkpt lat="42.483355000" lon="-2.561986000">
        <ele>409.80</ele>
        <time>2016-10-22T06:28:42Z</time>
      </trkpt>
      <trkpt lat="42.483326000" lon="-2.562019000">
        <ele>409.90</ele>
        <time>2016-10-22T06:28:43Z</time>
      </trkpt>
      <trkpt lat="42.483301000" lon="-2.562057000">
        <ele>410.00</ele>
        <time>2016-10-22T06:28:44Z</time>
      </trkpt>
      <trkpt lat="42.483274000" lon="-2.562091000">
        <ele>410.00</ele>
        <time>2016-10-22T06:28:45Z</time>
      </trkpt>
      <trkpt lat="42.483248000" lon="-2.562122000">
        <ele>410.10</ele>
        <time>2016-10-22T06:28:46Z</time>
      </trkpt>
      <trkpt lat="42.483220000" lon="-2.562154000">
        <ele>410.00</ele>
        <time>2016-10-22T06:28:47Z</time>
      </trkpt>
      <trkpt lat="42.483192000" lon="-2.562182000">
        <ele>409.90</ele>
        <time>2016-10-22T06:28:48Z</time>
      </trkpt>
      <trkpt lat="42.483162000" lon="-2.562213000">
        <ele>409.80</ele>
        <time>2016-10-22T06:28:49Z</time>
      </trkpt>
      <trkpt lat="42.483130000" lon="-2.562243000">
        <ele>409.80</ele>
        <time>2016-10-22T06:28:50Z</time>
      </trkpt>
      <trkpt lat="42.483098000" lon="-2.562271000">
        <ele>409.70</ele>
        <time>2016-10-22T06:28:51Z</time>
      </trkpt>
      <trkpt lat="42.483036000" lon="-2.562335000">
        <ele>409.80</ele>
        <time>2016-10-22T06:28:53Z</time>
      </trkpt>
      <trkpt lat="42.483003000" lon="-2.562362000">
        <ele>409.90</ele>
        <time>2016-10-22T06:28:54Z</time>
      </trkpt>
      <trkpt lat="42.482972000" lon="-2.562393000">
        <ele>410.00</ele>
        <time>2016-10-22T06:28:55Z</time>
      </trkpt>
      <trkpt lat="42.482941000" lon="-2.562418000">
        <ele>410.00</ele>
        <time>2016-10-22T06:28:56Z</time>
      </trkpt>
      <trkpt lat="42.482910000" lon="-2.562443000">
        <ele>410.10</ele>
        <time>2016-10-22T06:28:57Z</time>
      </trkpt>
      <trkpt lat="42.482877000" lon="-2.562468000">
        <ele>410.10</ele>
        <time>2016-10-22T06:28:58Z</time>
      </trkpt>
      <trkpt lat="42.482846000" lon="-2.562493000">
        <ele>410.20</ele>
        <time>2016-10-22T06:28:59Z</time>
      </trkpt>
      <trkpt lat="42.482812000" lon="-2.562519000">
        <ele>410.30</ele>
        <time>2016-10-22T06:29:00Z</time>
      </trkpt>
      <trkpt lat="42.482780000" lon="-2.562544000">
        <ele>410.40</ele>
        <time>2016-10-22T06:29:01Z</time>
      </trkpt>
      <trkpt lat="42.482748000" lon="-2.562569000">
        <ele>410.50</ele>
        <time>2016-10-22T06:29:02Z</time>
      </trkpt>
      <trkpt lat="42.482718000" lon="-2.562599000">
        <ele>410.50</ele>
        <time>2016-10-22T06:29:03Z</time>
      </trkpt>
      <trkpt lat="42.482685000" lon="-2.562624000">
        <ele>410.60</ele>
        <time>2016-10-22T06:29:04Z</time>
      </trkpt>
      <trkpt lat="42.482652000" lon="-2.562652000">
        <ele>410.50</ele>
        <time>2016-10-22T06:29:05Z</time>
      </trkpt>
      <trkpt lat="42.482622000" lon="-2.562678000">
        <ele>410.40</ele>
        <time>2016-10-22T06:29:06Z</time>
      </trkpt>
      <trkpt lat="42.482591000" lon="-2.562704000">
        <ele>410.30</ele>
        <time>2016-10-22T06:29:07Z</time>
      </trkpt>
      <trkpt lat="42.482558000" lon="-2.562731000">
        <ele>410.30</ele>
        <time>2016-10-22T06:29:08Z</time>
      </trkpt>
      <trkpt lat="42.482522000" lon="-2.562753000">
        <ele>410.30</ele>
        <time>2016-10-22T06:29:09Z</time>
      </trkpt>
      <trkpt lat="42.482486000" lon="-2.562773000">
        <ele>410.40</ele>
        <time>2016-10-22T06:29:10Z</time>
      </trkpt>
      <trkpt lat="42.482449000" lon="-2.562794000">
        <ele>410.40</ele>
        <time>2016-10-22T06:29:11Z</time>
      </trkpt>
      <trkpt lat="42.482413000" lon="-2.562813000">
        <ele>410.40</ele>
        <time>2016-10-22T06:29:12Z</time>
      </trkpt>
      <trkpt lat="42.482375000" lon="-2.562829000">
        <ele>410.40</ele>
        <time>2016-10-22T06:29:13Z</time>
      </trkpt>
      <trkpt lat="42.482338000" lon="-2.562845000">
        <ele>410.40</ele>
        <time>2016-10-22T06:29:14Z</time>
      </trkpt>
      <trkpt lat="42.482300000" lon="-2.562863000">
        <ele>410.50</ele>
        <time>2016-10-22T06:29:15Z</time>
      </trkpt>
      <trkpt lat="42.482261000" lon="-2.562878000">
        <ele>410.50</ele>
        <time>2016-10-22T06:29:16Z</time>
      </trkpt>
      <trkpt lat="42.482225000" lon="-2.562896000">
        <ele>410.60</ele>
        <time>2016-10-22T06:29:17Z</time>
      </trkpt>
      <trkpt lat="42.482187000" lon="-2.562919000">
        <ele>410.60</ele>
        <time>2016-10-22T06:29:18Z</time>
      </trkpt>
      <trkpt lat="42.482148000" lon="-2.562939000">
        <ele>410.70</ele>
        <time>2016-10-22T06:29:19Z</time>
      </trkpt>
      <trkpt lat="42.482109000" lon="-2.562957000">
        <ele>410.80</ele>
        <time>2016-10-22T06:29:20Z</time>
      </trkpt>
      <trkpt lat="42.482071000" lon="-2.562977000">
        <ele>410.80</ele>
        <time>2016-10-22T06:29:21Z</time>
      </trkpt>
      <trkpt lat="42.482033000" lon="-2.562996000">
        <ele>410.80</ele>
        <time>2016-10-22T06:29:22Z</time>
      </trkpt>
      <trkpt lat="42.481994000" lon="-2.563015000">
        <ele>410.90</ele>
        <time>2016-10-22T06:29:23Z</time>
      </trkpt>
      <trkpt lat="42.481955000" lon="-2.563033000">
        <ele>410.90</ele>
        <time>2016-10-22T06:29:24Z</time>
      </trkpt>
      <trkpt lat="42.481918000" lon="-2.563055000">
        <ele>410.90</ele>
        <time>2016-10-22T06:29:25Z</time>
      </trkpt>
      <trkpt lat="42.481885000" lon="-2.563075000">
        <ele>410.90</ele>
        <time>2016-10-22T06:29:26Z</time>
      </trkpt>
      <trkpt lat="42.481850000" lon="-2.563093000">
        <ele>410.90</ele>
        <time>2016-10-22T06:29:27Z</time>
      </trkpt>
      <trkpt lat="42.481813000" lon="-2.563115000">
        <ele>410.90</ele>
        <time>2016-10-22T06:29:28Z</time>
      </trkpt>
      <trkpt lat="42.481778000" lon="-2.563136000">
        <ele>411.10</ele>
        <time>2016-10-22T06:29:29Z</time>
      </trkpt>
      <trkpt lat="42.481740000" lon="-2.563158000">
        <ele>411.30</ele>
        <time>2016-10-22T06:29:30Z</time>
      </trkpt>
      <trkpt lat="42.481706000" lon="-2.563180000">
        <ele>411.40</ele>
        <time>2016-10-22T06:29:31Z</time>
      </trkpt>
      <trkpt lat="42.481669000" lon="-2.563201000">
        <ele>411.50</ele>
        <time>2016-10-22T06:29:32Z</time>
      </trkpt>
      <trkpt lat="42.481633000" lon="-2.563222000">
        <ele>411.50</ele>
        <time>2016-10-22T06:29:33Z</time>
      </trkpt>
      <trkpt lat="42.481595000" lon="-2.563241000">
        <ele>411.60</ele>
        <time>2016-10-22T06:29:34Z</time>
      </trkpt>
      <trkpt lat="42.481559000" lon="-2.563261000">
        <ele>411.70</ele>
        <time>2016-10-22T06:29:35Z</time>
      </trkpt>
      <trkpt lat="42.481521000" lon="-2.563281000">
        <ele>411.80</ele>
        <time>2016-10-22T06:29:36Z</time>
      </trkpt>
      <trkpt lat="42.481483000" lon="-2.563299000">
        <ele>411.90</ele>
        <time>2016-10-22T06:29:37Z</time>
      </trkpt>
      <trkpt lat="42.481444000" lon="-2.563323000">
        <ele>412.00</ele>
        <time>2016-10-22T06:29:38Z</time>
      </trkpt>
      <trkpt lat="42.481405000" lon="-2.563346000">
        <ele>412.00</ele>
        <time>2016-10-22T06:29:39Z</time>
      </trkpt>
      <trkpt lat="42.481363000" lon="-2.563369000">
        <ele>412.10</ele>
        <time>2016-10-22T06:29:40Z</time>
      </trkpt>
      <trkpt lat="42.481322000" lon="-2.563389000">
        <ele>412.10</ele>
        <time>2016-10-22T06:29:41Z</time>
      </trkpt>
      <trkpt lat="42.481284000" lon="-2.563408000">
        <ele>412.10</ele>
        <time>2016-10-22T06:29:42Z</time>
      </trkpt>
      <trkpt lat="42.481245000" lon="-2.563430000">
        <ele>412.10</ele>
        <time>2016-10-22T06:29:43Z</time>
      </trkpt>
      <trkpt lat="42.481208000" lon="-2.563452000">
        <ele>412.10</ele>
        <time>2016-10-22T06:29:44Z</time>
      </trkpt>
      <trkpt lat="42.481172000" lon="-2.563478000">
        <ele>412.20</ele>
        <time>2016-10-22T06:29:45Z</time>
      </trkpt>
      <trkpt lat="42.481139000" lon="-2.563508000">
        <ele>412.30</ele>
        <time>2016-10-22T06:29:46Z</time>
      </trkpt>
      <trkpt lat="42.481105000" lon="-2.563543000">
        <ele>412.30</ele>
        <time>2016-10-22T06:29:47Z</time>
      </trkpt>
      <trkpt lat="42.481075000" lon="-2.563579000">
        <ele>412.30</ele>
        <time>2016-10-22T06:29:48Z</time>
      </trkpt>
      <trkpt lat="42.481041000" lon="-2.563617000">
        <ele>412.40</ele>
        <time>2016-10-22T06:29:49Z</time>
      </trkpt>
      <trkpt lat="42.481006000" lon="-2.563652000">
        <ele>412.40</ele>
        <time>2016-10-22T06:29:50Z</time>
      </trkpt>
      <trkpt lat="42.480970000" lon="-2.563691000">
        <ele>412.30</ele>
        <time>2016-10-22T06:29:51Z</time>
      </trkpt>
      <trkpt lat="42.480935000" lon="-2.563727000">
        <ele>412.20</ele>
        <time>2016-10-22T06:29:52Z</time>
      </trkpt>
      <trkpt lat="42.480865000" lon="-2.563797000">
        <ele>412.10</ele>
        <time>2016-10-22T06:29:54Z</time>
      </trkpt>
      <trkpt lat="42.480830000" lon="-2.563828000">
        <ele>412.10</ele>
        <time>2016-10-22T06:29:55Z</time>
      </trkpt>
      <trkpt lat="42.480794000" lon="-2.563861000">
        <ele>412.10</ele>
        <time>2016-10-22T06:29:56Z</time>
      </trkpt>
      <trkpt lat="42.480758000" lon="-2.563892000">
        <ele>412.20</ele>
        <time>2016-10-22T06:29:57Z</time>
      </trkpt>
      <trkpt lat="42.480720000" lon="-2.563925000">
        <ele>412.20</ele>
        <time>2016-10-22T06:29:58Z</time>
      </trkpt>
      <trkpt lat="42.480678000" lon="-2.563959000">
        <ele>412.20</ele>
        <time>2016-10-22T06:29:59Z</time>
      </trkpt>
      <trkpt lat="42.480637000" lon="-2.563994000">
        <ele>412.20</ele>
        <time>2016-10-22T06:30:00Z</time>
      </trkpt>
      <trkpt lat="42.480592000" lon="-2.564025000">
        <ele>412.40</ele>
        <time>2016-10-22T06:30:01Z</time>
      </trkpt>
      <trkpt lat="42.480544000" lon="-2.564039000">
        <ele>412.50</ele>
        <time>2016-10-22T06:30:02Z</time>
      </trkpt>
      <trkpt lat="42.480496000" lon="-2.564048000">
        <ele>412.40</ele>
        <time>2016-10-22T06:30:03Z</time>
      </trkpt>
      <trkpt lat="42.480449000" lon="-2.564054000">
        <ele>412.40</ele>
        <time>2016-10-22T06:30:04Z</time>
      </trkpt>
      <trkpt lat="42.480403000" lon="-2.564058000">
        <ele>412.40</ele>
        <time>2016-10-22T06:30:05Z</time>
      </trkpt>
      <trkpt lat="42.480364000" lon="-2.564063000">
        <ele>412.40</ele>
        <time>2016-10-22T06:30:06Z</time>
      </trkpt>
      <trkpt lat="42.480325000" lon="-2.564066000">
        <ele>412.40</ele>
        <time>2016-10-22T06:30:07Z</time>
      </trkpt>
      <trkpt lat="42.480284000" lon="-2.564072000">
        <ele>412.40</ele>
        <time>2016-10-22T06:30:08Z</time>
      </trkpt>
      <trkpt lat="42.480240000" lon="-2.564079000">
        <ele>412.70</ele>
        <time>2016-10-22T06:30:09Z</time>
      </trkpt>
      <trkpt lat="42.480193000" lon="-2.564081000">
        <ele>412.90</ele>
        <time>2016-10-22T06:30:10Z</time>
      </trkpt>
      <trkpt lat="42.480151000" lon="-2.564086000">
        <ele>413.00</ele>
        <time>2016-10-22T06:30:11Z</time>
      </trkpt>
      <trkpt lat="42.480106000" lon="-2.564084000">
        <ele>413.10</ele>
        <time>2016-10-22T06:30:12Z</time>
      </trkpt>
      <trkpt lat="42.480064000" lon="-2.564087000">
        <ele>413.20</ele>
        <time>2016-10-22T06:30:13Z</time>
      </trkpt>
      <trkpt lat="42.480023000" lon="-2.564086000">
        <ele>413.30</ele>
        <time>2016-10-22T06:30:14Z</time>
      </trkpt>
      <trkpt lat="42.479982000" lon="-2.564082000">
        <ele>413.30</ele>
        <time>2016-10-22T06:30:15Z</time>
      </trkpt>
      <trkpt lat="42.479941000" lon="-2.564080000">
        <ele>413.20</ele>
        <time>2016-10-22T06:30:16Z</time>
      </trkpt>
      <trkpt lat="42.479899000" lon="-2.564076000">
        <ele>413.30</ele>
        <time>2016-10-22T06:30:17Z</time>
      </trkpt>
      <trkpt lat="42.479855000" lon="-2.564070000">
        <ele>413.30</ele>
        <time>2016-10-22T06:30:18Z</time>
      </trkpt>
      <trkpt lat="42.479814000" lon="-2.564064000">
        <ele>413.50</ele>
        <time>2016-10-22T06:30:19Z</time>
      </trkpt>
      <trkpt lat="42.479774000" lon="-2.564061000">
        <ele>413.60</ele>
        <time>2016-10-22T06:30:20Z</time>
      </trkpt>
      <trkpt lat="42.479731000" lon="-2.564054000">
        <ele>413.70</ele>
        <time>2016-10-22T06:30:21Z</time>
      </trkpt>
      <trkpt lat="42.479688000" lon="-2.564055000">
        <ele>413.80</ele>
        <time>2016-10-22T06:30:22Z</time>
      </trkpt>
      <trkpt lat="42.479646000" lon="-2.564055000">
        <ele>413.80</ele>
        <time>2016-10-22T06:30:23Z</time>
      </trkpt>
      <trkpt lat="42.479602000" lon="-2.564056000">
        <ele>413.90</ele>
        <time>2016-10-22T06:30:24Z</time>
      </trkpt>
      <trkpt lat="42.479563000" lon="-2.564063000">
        <ele>414.00</ele>
        <time>2016-10-22T06:30:25Z</time>
      </trkpt>
      <trkpt lat="42.479522000" lon="-2.564070000">
        <ele>414.20</ele>
        <time>2016-10-22T06:30:26Z</time>
      </trkpt>
      <trkpt lat="42.479481000" lon="-2.564079000">
        <ele>414.40</ele>
        <time>2016-10-22T06:30:27Z</time>
      </trkpt>
      <trkpt lat="42.479439000" lon="-2.564083000">
        <ele>414.50</ele>
        <time>2016-10-22T06:30:28Z</time>
      </trkpt>
      <trkpt lat="42.479402000" lon="-2.564091000">
        <ele>414.70</ele>
        <time>2016-10-22T06:30:29Z</time>
      </trkpt>
      <trkpt lat="42.479365000" lon="-2.564099000">
        <ele>414.80</ele>
        <time>2016-10-22T06:30:30Z</time>
      </trkpt>
      <trkpt lat="42.479329000" lon="-2.564106000">
        <ele>414.80</ele>
        <time>2016-10-22T06:30:31Z</time>
      </trkpt>
      <trkpt lat="42.479299000" lon="-2.564112000">
        <ele>414.90</ele>
        <time>2016-10-22T06:30:32Z</time>
      </trkpt>
      <trkpt lat="42.479274000" lon="-2.564123000">
        <ele>414.90</ele>
        <time>2016-10-22T06:30:33Z</time>
      </trkpt>
      <trkpt lat="42.479250000" lon="-2.564137000">
        <ele>414.90</ele>
        <time>2016-10-22T06:30:34Z</time>
      </trkpt>
      <trkpt lat="42.479233000" lon="-2.564153000">
        <ele>415.00</ele>
        <time>2016-10-22T06:30:35Z</time>
      </trkpt>
      <trkpt lat="42.479213000" lon="-2.564164000">
        <ele>415.00</ele>
        <time>2016-10-22T06:30:36Z</time>
      </trkpt>
      <trkpt lat="42.479191000" lon="-2.564167000">
        <ele>415.10</ele>
        <time>2016-10-22T06:30:37Z</time>
      </trkpt>
      <trkpt lat="42.479171000" lon="-2.564166000">
        <ele>415.20</ele>
        <time>2016-10-22T06:30:38Z</time>
      </trkpt>
      <trkpt lat="42.479150000" lon="-2.564157000">
        <ele>415.30</ele>
        <time>2016-10-22T06:30:39Z</time>
      </trkpt>
      <trkpt lat="42.479130000" lon="-2.564131000">
        <ele>415.40</ele>
        <time>2016-10-22T06:30:40Z</time>
      </trkpt>
      <trkpt lat="42.479110000" lon="-2.564100000">
        <ele>415.40</ele>
        <time>2016-10-22T06:30:41Z</time>
      </trkpt>
      <trkpt lat="42.479086000" lon="-2.564068000">
        <ele>415.30</ele>
        <time>2016-10-22T06:30:42Z</time>
      </trkpt>
      <trkpt lat="42.479063000" lon="-2.564037000">
        <ele>415.30</ele>
        <time>2016-10-22T06:30:43Z</time>
      </trkpt>
      <trkpt lat="42.479034000" lon="-2.564006000">
        <ele>415.30</ele>
        <time>2016-10-22T06:30:44Z</time>
      </trkpt>
      <trkpt lat="42.479013000" lon="-2.563975000">
        <ele>415.20</ele>
        <time>2016-10-22T06:30:45Z</time>
      </trkpt>
      <trkpt lat="42.478991000" lon="-2.563938000">
        <ele>415.10</ele>
        <time>2016-10-22T06:30:46Z</time>
      </trkpt>
      <trkpt lat="42.478971000" lon="-2.563902000">
        <ele>414.90</ele>
        <time>2016-10-22T06:30:47Z</time>
      </trkpt>
      <trkpt lat="42.478948000" lon="-2.563862000">
        <ele>414.80</ele>
        <time>2016-10-22T06:30:48Z</time>
      </trkpt>
      <trkpt lat="42.478925000" lon="-2.563819000">
        <ele>414.80</ele>
        <time>2016-10-22T06:30:49Z</time>
      </trkpt>
      <trkpt lat="42.478903000" lon="-2.563777000">
        <ele>414.70</ele>
        <time>2016-10-22T06:30:50Z</time>
      </trkpt>
      <trkpt lat="42.478883000" lon="-2.563735000">
        <ele>414.80</ele>
        <time>2016-10-22T06:30:51Z</time>
      </trkpt>
      <trkpt lat="42.478863000" lon="-2.563697000">
        <ele>414.80</ele>
        <time>2016-10-22T06:30:52Z</time>
      </trkpt>
      <trkpt lat="42.478844000" lon="-2.563654000">
        <ele>415.10</ele>
        <time>2016-10-22T06:30:53Z</time>
      </trkpt>
      <trkpt lat="42.478806000" lon="-2.563578000">
        <ele>415.40</ele>
        <time>2016-10-22T06:30:55Z</time>
      </trkpt>
      <trkpt lat="42.478786000" lon="-2.563540000">
        <ele>415.50</ele>
        <time>2016-10-22T06:30:56Z</time>
      </trkpt>
      <trkpt lat="42.478765000" lon="-2.563505000">
        <ele>415.60</ele>
        <time>2016-10-22T06:30:57Z</time>
      </trkpt>
      <trkpt lat="42.478745000" lon="-2.563465000">
        <ele>415.70</ele>
        <time>2016-10-22T06:30:58Z</time>
      </trkpt>
      <trkpt lat="42.478721000" lon="-2.563427000">
        <ele>415.80</ele>
        <time>2016-10-22T06:30:59Z</time>
      </trkpt>
      <trkpt lat="42.478699000" lon="-2.563388000">
        <ele>415.80</ele>
        <time>2016-10-22T06:31:00Z</time>
      </trkpt>
      <trkpt lat="42.478678000" lon="-2.563353000">
        <ele>415.80</ele>
        <time>2016-10-22T06:31:01Z</time>
      </trkpt>
      <trkpt lat="42.478656000" lon="-2.563321000">
        <ele>415.80</ele>
        <time>2016-10-22T06:31:02Z</time>
      </trkpt>
      <trkpt lat="42.478629000" lon="-2.563290000">
        <ele>415.80</ele>
        <time>2016-10-22T06:31:03Z</time>
      </trkpt>
      <trkpt lat="42.478603000" lon="-2.563262000">
        <ele>415.70</ele>
        <time>2016-10-22T06:31:04Z</time>
      </trkpt>
      <trkpt lat="42.478576000" lon="-2.563231000">
        <ele>415.80</ele>
        <time>2016-10-22T06:31:05Z</time>
      </trkpt>
      <trkpt lat="42.478547000" lon="-2.563205000">
        <ele>415.80</ele>
        <time>2016-10-22T06:31:06Z</time>
      </trkpt>
      <trkpt lat="42.478518000" lon="-2.563177000">
        <ele>415.70</ele>
        <time>2016-10-22T06:31:07Z</time>
      </trkpt>
      <trkpt lat="42.478488000" lon="-2.563150000">
        <ele>415.70</ele>
        <time>2016-10-22T06:31:08Z</time>
      </trkpt>
      <trkpt lat="42.478456000" lon="-2.563122000">
        <ele>415.90</ele>
        <time>2016-10-22T06:31:09Z</time>
      </trkpt>
      <trkpt lat="42.478427000" lon="-2.563092000">
        <ele>416.00</ele>
        <time>2016-10-22T06:31:10Z</time>
      </trkpt>
      <trkpt lat="42.478396000" lon="-2.563061000">
        <ele>416.20</ele>
        <time>2016-10-22T06:31:11Z</time>
      </trkpt>
      <trkpt lat="42.478367000" lon="-2.563031000">
        <ele>416.30</ele>
        <time>2016-10-22T06:31:12Z</time>
      </trkpt>
      <trkpt lat="42.478336000" lon="-2.563002000">
        <ele>416.40</ele>
        <time>2016-10-22T06:31:13Z</time>
      </trkpt>
      <trkpt lat="42.478301000" lon="-2.562977000">
        <ele>416.50</ele>
        <time>2016-10-22T06:31:14Z</time>
      </trkpt>
      <trkpt lat="42.478271000" lon="-2.562945000">
        <ele>416.50</ele>
        <time>2016-10-22T06:31:15Z</time>
      </trkpt>
      <trkpt lat="42.478240000" lon="-2.562915000">
        <ele>416.50</ele>
        <time>2016-10-22T06:31:16Z</time>
      </trkpt>
      <trkpt lat="42.478208000" lon="-2.562884000">
        <ele>416.50</ele>
        <time>2016-10-22T06:31:17Z</time>
      </trkpt>
      <trkpt lat="42.478175000" lon="-2.562855000">
        <ele>416.50</ele>
        <time>2016-10-22T06:31:18Z</time>
      </trkpt>
      <trkpt lat="42.478142000" lon="-2.562831000">
        <ele>416.50</ele>
        <time>2016-10-22T06:31:19Z</time>
      </trkpt>
      <trkpt lat="42.478105000" lon="-2.562808000">
        <ele>416.50</ele>
        <time>2016-10-22T06:31:20Z</time>
      </trkpt>
      <trkpt lat="42.478067000" lon="-2.562790000">
        <ele>416.70</ele>
        <time>2016-10-22T06:31:21Z</time>
      </trkpt>
      <trkpt lat="42.478026000" lon="-2.562773000">
        <ele>416.90</ele>
        <time>2016-10-22T06:31:22Z</time>
      </trkpt>
      <trkpt lat="42.477988000" lon="-2.562756000">
        <ele>416.80</ele>
        <time>2016-10-22T06:31:23Z</time>
      </trkpt>
      <trkpt lat="42.477951000" lon="-2.562737000">
        <ele>416.80</ele>
        <time>2016-10-22T06:31:24Z</time>
      </trkpt>
      <trkpt lat="42.477911000" lon="-2.562721000">
        <ele>416.90</ele>
        <time>2016-10-22T06:31:25Z</time>
      </trkpt>
      <trkpt lat="42.477872000" lon="-2.562704000">
        <ele>416.90</ele>
        <time>2016-10-22T06:31:26Z</time>
      </trkpt>
      <trkpt lat="42.477832000" lon="-2.562686000">
        <ele>416.90</ele>
        <time>2016-10-22T06:31:27Z</time>
      </trkpt>
      <trkpt lat="42.477786000" lon="-2.562672000">
        <ele>417.00</ele>
        <time>2016-10-22T06:31:28Z</time>
      </trkpt>
      <trkpt lat="42.477745000" lon="-2.562658000">
        <ele>417.00</ele>
        <time>2016-10-22T06:31:29Z</time>
      </trkpt>
      <trkpt lat="42.477705000" lon="-2.562647000">
        <ele>417.00</ele>
        <time>2016-10-22T06:31:30Z</time>
      </trkpt>
      <trkpt lat="42.477661000" lon="-2.562631000">
        <ele>417.10</ele>
        <time>2016-10-22T06:31:31Z</time>
      </trkpt>
      <trkpt lat="42.477619000" lon="-2.562613000">
        <ele>417.10</ele>
        <time>2016-10-22T06:31:32Z</time>
      </trkpt>
      <trkpt lat="42.477579000" lon="-2.562590000">
        <ele>417.20</ele>
        <time>2016-10-22T06:31:33Z</time>
      </trkpt>
      <trkpt lat="42.477543000" lon="-2.562566000">
        <ele>417.20</ele>
        <time>2016-10-22T06:31:34Z</time>
      </trkpt>
      <trkpt lat="42.477506000" lon="-2.562537000">
        <ele>417.30</ele>
        <time>2016-10-22T06:31:35Z</time>
      </trkpt>
      <trkpt lat="42.477469000" lon="-2.562509000">
        <ele>417.40</ele>
        <time>2016-10-22T06:31:36Z</time>
      </trkpt>
      <trkpt lat="42.477434000" lon="-2.562480000">
        <ele>417.40</ele>
        <time>2016-10-22T06:31:37Z</time>
      </trkpt>
      <trkpt lat="42.477400000" lon="-2.562451000">
        <ele>417.40</ele>
        <time>2016-10-22T06:31:38Z</time>
      </trkpt>
      <trkpt lat="42.477365000" lon="-2.562423000">
        <ele>417.50</ele>
        <time>2016-10-22T06:31:39Z</time>
      </trkpt>
      <trkpt lat="42.477327000" lon="-2.562394000">
        <ele>417.50</ele>
        <time>2016-10-22T06:31:40Z</time>
      </trkpt>
      <trkpt lat="42.477292000" lon="-2.562366000">
        <ele>417.50</ele>
        <time>2016-10-22T06:31:41Z</time>
      </trkpt>
      <trkpt lat="42.477255000" lon="-2.562339000">
        <ele>417.50</ele>
        <time>2016-10-22T06:31:42Z</time>
      </trkpt>
      <trkpt lat="42.477220000" lon="-2.562307000">
        <ele>417.60</ele>
        <time>2016-10-22T06:31:43Z</time>
      </trkpt>
      <trkpt lat="42.477184000" lon="-2.562279000">
        <ele>417.70</ele>
        <time>2016-10-22T06:31:44Z</time>
      </trkpt>
      <trkpt lat="42.477146000" lon="-2.562250000">
        <ele>417.60</ele>
        <time>2016-10-22T06:31:45Z</time>
      </trkpt>
      <trkpt lat="42.477105000" lon="-2.562223000">
        <ele>417.60</ele>
        <time>2016-10-22T06:31:46Z</time>
      </trkpt>
      <trkpt lat="42.477065000" lon="-2.562196000">
        <ele>417.60</ele>
        <time>2016-10-22T06:31:47Z</time>
      </trkpt>
      <trkpt lat="42.477023000" lon="-2.562171000">
        <ele>417.60</ele>
        <time>2016-10-22T06:31:48Z</time>
      </trkpt>
      <trkpt lat="42.476982000" lon="-2.562148000">
        <ele>417.60</ele>
        <time>2016-10-22T06:31:49Z</time>
      </trkpt>
      <trkpt lat="42.476944000" lon="-2.562121000">
        <ele>417.60</ele>
        <time>2016-10-22T06:31:50Z</time>
      </trkpt>
      <trkpt lat="42.476906000" lon="-2.562093000">
        <ele>417.60</ele>
        <time>2016-10-22T06:31:51Z</time>
      </trkpt>
      <trkpt lat="42.476865000" lon="-2.562068000">
        <ele>417.60</ele>
        <time>2016-10-22T06:31:52Z</time>
      </trkpt>
      <trkpt lat="42.476822000" lon="-2.562043000">
        <ele>417.60</ele>
        <time>2016-10-22T06:31:53Z</time>
      </trkpt>
      <trkpt lat="42.476779000" lon="-2.562019000">
        <ele>417.60</ele>
        <time>2016-10-22T06:31:54Z</time>
      </trkpt>
      <trkpt lat="42.476703000" lon="-2.561961000">
        <ele>417.80</ele>
        <time>2016-10-22T06:31:56Z</time>
      </trkpt>
      <trkpt lat="42.476663000" lon="-2.561936000">
        <ele>417.90</ele>
        <time>2016-10-22T06:31:57Z</time>
      </trkpt>
      <trkpt lat="42.476624000" lon="-2.561907000">
        <ele>418.00</ele>
        <time>2016-10-22T06:31:58Z</time>
      </trkpt>
      <trkpt lat="42.476584000" lon="-2.561876000">
        <ele>418.00</ele>
        <time>2016-10-22T06:31:59Z</time>
      </trkpt>
      <trkpt lat="42.476544000" lon="-2.561839000">
        <ele>418.10</ele>
        <time>2016-10-22T06:32:00Z</time>
      </trkpt>
      <trkpt lat="42.476507000" lon="-2.561802000">
        <ele>418.10</ele>
        <time>2016-10-22T06:32:01Z</time>
      </trkpt>
      <trkpt lat="42.476475000" lon="-2.561764000">
        <ele>418.10</ele>
        <time>2016-10-22T06:32:02Z</time>
      </trkpt>
      <trkpt lat="42.476441000" lon="-2.561729000">
        <ele>418.10</ele>
        <time>2016-10-22T06:32:03Z</time>
      </trkpt>
      <trkpt lat="42.476409000" lon="-2.561697000">
        <ele>418.10</ele>
        <time>2016-10-22T06:32:04Z</time>
      </trkpt>
      <trkpt lat="42.476376000" lon="-2.561664000">
        <ele>418.10</ele>
        <time>2016-10-22T06:32:05Z</time>
      </trkpt>
      <trkpt lat="42.476342000" lon="-2.561628000">
        <ele>418.10</ele>
        <time>2016-10-22T06:32:06Z</time>
      </trkpt>
      <trkpt lat="42.476310000" lon="-2.561594000">
        <ele>418.00</ele>
        <time>2016-10-22T06:32:07Z</time>
      </trkpt>
      <trkpt lat="42.476275000" lon="-2.561556000">
        <ele>417.90</ele>
        <time>2016-10-22T06:32:08Z</time>
      </trkpt>
      <trkpt lat="42.476242000" lon="-2.561517000">
        <ele>417.90</ele>
        <time>2016-10-22T06:32:09Z</time>
      </trkpt>
      <trkpt lat="42.476210000" lon="-2.561476000">
        <ele>417.80</ele>
        <time>2016-10-22T06:32:10Z</time>
      </trkpt>
      <trkpt lat="42.476177000" lon="-2.561438000">
        <ele>417.70</ele>
        <time>2016-10-22T06:32:11Z</time>
      </trkpt>
      <trkpt lat="42.476148000" lon="-2.561394000">
        <ele>417.60</ele>
        <time>2016-10-22T06:32:12Z</time>
      </trkpt>
      <trkpt lat="42.476116000" lon="-2.561353000">
        <ele>417.60</ele>
        <time>2016-10-22T06:32:13Z</time>
      </trkpt>
      <trkpt lat="42.476087000" lon="-2.561314000">
        <ele>417.50</ele>
        <time>2016-10-22T06:32:14Z</time>
      </trkpt>
      <trkpt lat="42.476060000" lon="-2.561269000">
        <ele>417.60</ele>
        <time>2016-10-22T06:32:15Z</time>
      </trkpt>
      <trkpt lat="42.476030000" lon="-2.561229000">
        <ele>417.70</ele>
        <time>2016-10-22T06:32:16Z</time>
      </trkpt>
      <trkpt lat="42.475996000" lon="-2.561192000">
        <ele>417.70</ele>
        <time>2016-10-22T06:32:17Z</time>
      </trkpt>
      <trkpt lat="42.475964000" lon="-2.561156000">
        <ele>417.80</ele>
        <time>2016-10-22T06:32:18Z</time>
      </trkpt>
      <trkpt lat="42.475935000" lon="-2.561121000">
        <ele>417.80</ele>
        <time>2016-10-22T06:32:19Z</time>
      </trkpt>
      <trkpt lat="42.475898000" lon="-2.561096000">
        <ele>417.80</ele>
        <time>2016-10-22T06:32:20Z</time>
      </trkpt>
      <trkpt lat="42.475864000" lon="-2.561070000">
        <ele>417.90</ele>
        <time>2016-10-22T06:32:21Z</time>
      </trkpt>
      <trkpt lat="42.475826000" lon="-2.561053000">
        <ele>417.90</ele>
        <time>2016-10-22T06:32:22Z</time>
      </trkpt>
      <trkpt lat="42.475791000" lon="-2.561038000">
        <ele>417.90</ele>
        <time>2016-10-22T06:32:23Z</time>
      </trkpt>
      <trkpt lat="42.475752000" lon="-2.561023000">
        <ele>417.90</ele>
        <time>2016-10-22T06:32:24Z</time>
      </trkpt>
      <trkpt lat="42.475712000" lon="-2.561011000">
        <ele>418.20</ele>
        <time>2016-10-22T06:32:25Z</time>
      </trkpt>
      <trkpt lat="42.475670000" lon="-2.561001000">
        <ele>418.30</ele>
        <time>2016-10-22T06:32:26Z</time>
      </trkpt>
      <trkpt lat="42.475628000" lon="-2.560991000">
        <ele>418.50</ele>
        <time>2016-10-22T06:32:27Z</time>
      </trkpt>
      <trkpt lat="42.475584000" lon="-2.560985000">
        <ele>418.60</ele>
        <time>2016-10-22T06:32:28Z</time>
      </trkpt>
      <trkpt lat="42.475539000" lon="-2.560982000">
        <ele>418.70</ele>
        <time>2016-10-22T06:32:29Z</time>
      </trkpt>
      <trkpt lat="42.475494000" lon="-2.560984000">
        <ele>418.80</ele>
        <time>2016-10-22T06:32:30Z</time>
      </trkpt>
      <trkpt lat="42.475448000" lon="-2.560984000">
        <ele>418.70</ele>
        <time>2016-10-22T06:32:31Z</time>
      </trkpt>
      <trkpt lat="42.475403000" lon="-2.560988000">
        <ele>418.70</ele>
        <time>2016-10-22T06:32:32Z</time>
      </trkpt>
      <trkpt lat="42.475358000" lon="-2.560989000">
        <ele>418.70</ele>
        <time>2016-10-22T06:32:33Z</time>
      </trkpt>
      <trkpt lat="42.475315000" lon="-2.560987000">
        <ele>418.70</ele>
        <time>2016-10-22T06:32:34Z</time>
      </trkpt>
      <trkpt lat="42.475274000" lon="-2.560980000">
        <ele>418.70</ele>
        <time>2016-10-22T06:32:35Z</time>
      </trkpt>
      <trkpt lat="42.475229000" lon="-2.560977000">
        <ele>418.70</ele>
        <time>2016-10-22T06:32:36Z</time>
      </trkpt>
      <trkpt lat="42.475188000" lon="-2.560968000">
        <ele>418.80</ele>
        <time>2016-10-22T06:32:37Z</time>
      </trkpt>
      <trkpt lat="42.475147000" lon="-2.560964000">
        <ele>418.90</ele>
        <time>2016-10-22T06:32:38Z</time>
      </trkpt>
      <trkpt lat="42.475107000" lon="-2.560954000">
        <ele>419.10</ele>
        <time>2016-10-22T06:32:39Z</time>
      </trkpt>
      <trkpt lat="42.475067000" lon="-2.560941000">
        <ele>419.30</ele>
        <time>2016-10-22T06:32:40Z</time>
      </trkpt>
      <trkpt lat="42.475025000" lon="-2.560933000">
        <ele>419.40</ele>
        <time>2016-10-22T06:32:41Z</time>
      </trkpt>
      <trkpt lat="42.474985000" lon="-2.560925000">
        <ele>419.50</ele>
        <time>2016-10-22T06:32:42Z</time>
      </trkpt>
      <trkpt lat="42.474944000" lon="-2.560920000">
        <ele>419.60</ele>
        <time>2016-10-22T06:32:43Z</time>
      </trkpt>
      <trkpt lat="42.474901000" lon="-2.560917000">
        <ele>419.70</ele>
        <time>2016-10-22T06:32:44Z</time>
      </trkpt>
      <trkpt lat="42.474858000" lon="-2.560915000">
        <ele>419.70</ele>
        <time>2016-10-22T06:32:45Z</time>
      </trkpt>
      <trkpt lat="42.474815000" lon="-2.560909000">
        <ele>419.70</ele>
        <time>2016-10-22T06:32:46Z</time>
      </trkpt>
      <trkpt lat="42.474773000" lon="-2.560909000">
        <ele>419.70</ele>
        <time>2016-10-22T06:32:47Z</time>
      </trkpt>
      <trkpt lat="42.474733000" lon="-2.560910000">
        <ele>419.80</ele>
        <time>2016-10-22T06:32:48Z</time>
      </trkpt>
      <trkpt lat="42.474692000" lon="-2.560916000">
        <ele>419.80</ele>
        <time>2016-10-22T06:32:49Z</time>
      </trkpt>
      <trkpt lat="42.474652000" lon="-2.560921000">
        <ele>419.90</ele>
        <time>2016-10-22T06:32:50Z</time>
      </trkpt>
      <trkpt lat="42.474613000" lon="-2.560928000">
        <ele>419.90</ele>
        <time>2016-10-22T06:32:51Z</time>
      </trkpt>
      <trkpt lat="42.474574000" lon="-2.560933000">
        <ele>420.00</ele>
        <time>2016-10-22T06:32:52Z</time>
      </trkpt>
      <trkpt lat="42.474535000" lon="-2.560941000">
        <ele>420.10</ele>
        <time>2016-10-22T06:32:53Z</time>
      </trkpt>
      <trkpt lat="42.474495000" lon="-2.560951000">
        <ele>420.10</ele>
        <time>2016-10-22T06:32:54Z</time>
      </trkpt>
      <trkpt lat="42.474454000" lon="-2.560962000">
        <ele>420.20</ele>
        <time>2016-10-22T06:32:55Z</time>
      </trkpt>
      <trkpt lat="42.474371000" lon="-2.560972000">
        <ele>420.30</ele>
        <time>2016-10-22T06:32:57Z</time>
      </trkpt>
      <trkpt lat="42.474327000" lon="-2.560979000">
        <ele>420.30</ele>
        <time>2016-10-22T06:32:58Z</time>
      </trkpt>
      <trkpt lat="42.474283000" lon="-2.560983000">
        <ele>420.60</ele>
        <time>2016-10-22T06:32:59Z</time>
      </trkpt>
      <trkpt lat="42.474241000" lon="-2.560992000">
        <ele>420.80</ele>
        <time>2016-10-22T06:33:00Z</time>
      </trkpt>
      <trkpt lat="42.474203000" lon="-2.560998000">
        <ele>421.00</ele>
        <time>2016-10-22T06:33:01Z</time>
      </trkpt>
      <trkpt lat="42.474168000" lon="-2.561006000">
        <ele>421.20</ele>
        <time>2016-10-22T06:33:02Z</time>
      </trkpt>
      <trkpt lat="42.474132000" lon="-2.561010000">
        <ele>421.30</ele>
        <time>2016-10-22T06:33:03Z</time>
      </trkpt>
      <trkpt lat="42.474096000" lon="-2.561017000">
        <ele>421.40</ele>
        <time>2016-10-22T06:33:04Z</time>
      </trkpt>
      <trkpt lat="42.474062000" lon="-2.561029000">
        <ele>421.50</ele>
        <time>2016-10-22T06:33:05Z</time>
      </trkpt>
      <trkpt lat="42.474028000" lon="-2.561038000">
        <ele>421.60</ele>
        <time>2016-10-22T06:33:06Z</time>
      </trkpt>
      <trkpt lat="42.473993000" lon="-2.561049000">
        <ele>421.70</ele>
        <time>2016-10-22T06:33:07Z</time>
      </trkpt>
      <trkpt lat="42.473955000" lon="-2.561060000">
        <ele>421.80</ele>
        <time>2016-10-22T06:33:08Z</time>
      </trkpt>
      <trkpt lat="42.473920000" lon="-2.561072000">
        <ele>421.90</ele>
        <time>2016-10-22T06:33:09Z</time>
      </trkpt>
      <trkpt lat="42.473884000" lon="-2.561084000">
        <ele>421.90</ele>
        <time>2016-10-22T06:33:10Z</time>
      </trkpt>
      <trkpt lat="42.473844000" lon="-2.561101000">
        <ele>422.10</ele>
        <time>2016-10-22T06:33:11Z</time>
      </trkpt>
      <trkpt lat="42.473805000" lon="-2.561114000">
        <ele>422.20</ele>
        <time>2016-10-22T06:33:12Z</time>
      </trkpt>
      <trkpt lat="42.473761000" lon="-2.561130000">
        <ele>422.10</ele>
        <time>2016-10-22T06:33:13Z</time>
      </trkpt>
      <trkpt lat="42.473720000" lon="-2.561144000">
        <ele>422.00</ele>
        <time>2016-10-22T06:33:14Z</time>
      </trkpt>
      <trkpt lat="42.473681000" lon="-2.561162000">
        <ele>422.10</ele>
        <time>2016-10-22T06:33:15Z</time>
      </trkpt>
      <trkpt lat="42.473641000" lon="-2.561177000">
        <ele>422.10</ele>
        <time>2016-10-22T06:33:16Z</time>
      </trkpt>
      <trkpt lat="42.473599000" lon="-2.561191000">
        <ele>422.10</ele>
        <time>2016-10-22T06:33:17Z</time>
      </trkpt>
      <trkpt lat="42.473561000" lon="-2.561206000">
        <ele>422.10</ele>
        <time>2016-10-22T06:33:18Z</time>
      </trkpt>
      <trkpt lat="42.473521000" lon="-2.561221000">
        <ele>422.30</ele>
        <time>2016-10-22T06:33:19Z</time>
      </trkpt>
      <trkpt lat="42.473480000" lon="-2.561234000">
        <ele>422.40</ele>
        <time>2016-10-22T06:33:20Z</time>
      </trkpt>
      <trkpt lat="42.473437000" lon="-2.561247000">
        <ele>422.50</ele>
        <time>2016-10-22T06:33:21Z</time>
      </trkpt>
      <trkpt lat="42.473394000" lon="-2.561258000">
        <ele>422.60</ele>
        <time>2016-10-22T06:33:22Z</time>
      </trkpt>
      <trkpt lat="42.473355000" lon="-2.561271000">
        <ele>422.60</ele>
        <time>2016-10-22T06:33:23Z</time>
      </trkpt>
      <trkpt lat="42.473313000" lon="-2.561280000">
        <ele>422.60</ele>
        <time>2016-10-22T06:33:24Z</time>
      </trkpt>
      <trkpt lat="42.473270000" lon="-2.561293000">
        <ele>422.60</ele>
        <time>2016-10-22T06:33:25Z</time>
      </trkpt>
      <trkpt lat="42.473229000" lon="-2.561302000">
        <ele>422.60</ele>
        <time>2016-10-22T06:33:26Z</time>
      </trkpt>
      <trkpt lat="42.473187000" lon="-2.561309000">
        <ele>422.70</ele>
        <time>2016-10-22T06:33:27Z</time>
      </trkpt>
      <trkpt lat="42.473147000" lon="-2.561312000">
        <ele>422.80</ele>
        <time>2016-10-22T06:33:28Z</time>
      </trkpt>
      <trkpt lat="42.473110000" lon="-2.561315000">
        <ele>422.90</ele>
        <time>2016-10-22T06:33:29Z</time>
      </trkpt>
      <trkpt lat="42.473072000" lon="-2.561321000">
        <ele>423.00</ele>
        <time>2016-10-22T06:33:30Z</time>
      </trkpt>
      <trkpt lat="42.473036000" lon="-2.561332000">
        <ele>422.90</ele>
        <time>2016-10-22T06:33:31Z</time>
      </trkpt>
      <trkpt lat="42.472997000" lon="-2.561340000">
        <ele>422.90</ele>
        <time>2016-10-22T06:33:32Z</time>
      </trkpt>
      <trkpt lat="42.472959000" lon="-2.561348000">
        <ele>422.90</ele>
        <time>2016-10-22T06:33:33Z</time>
      </trkpt>
      <trkpt lat="42.472923000" lon="-2.561367000">
        <ele>422.90</ele>
        <time>2016-10-22T06:33:34Z</time>
      </trkpt>
      <trkpt lat="42.472889000" lon="-2.561391000">
        <ele>423.00</ele>
        <time>2016-10-22T06:33:35Z</time>
      </trkpt>
      <trkpt lat="42.472855000" lon="-2.561404000">
        <ele>423.10</ele>
        <time>2016-10-22T06:33:36Z</time>
      </trkpt>
      <trkpt lat="42.472821000" lon="-2.561417000">
        <ele>423.20</ele>
        <time>2016-10-22T06:33:37Z</time>
      </trkpt>
      <trkpt lat="42.472787000" lon="-2.561429000">
        <ele>423.30</ele>
        <time>2016-10-22T06:33:38Z</time>
      </trkpt>
      <trkpt lat="42.472748000" lon="-2.561439000">
        <ele>423.40</ele>
        <time>2016-10-22T06:33:39Z</time>
      </trkpt>
      <trkpt lat="42.472707000" lon="-2.561446000">
        <ele>423.50</ele>
        <time>2016-10-22T06:33:40Z</time>
      </trkpt>
      <trkpt lat="42.472667000" lon="-2.561453000">
        <ele>423.50</ele>
        <time>2016-10-22T06:33:41Z</time>
      </trkpt>
      <trkpt lat="42.472631000" lon="-2.561455000">
        <ele>423.60</ele>
        <time>2016-10-22T06:33:42Z</time>
      </trkpt>
      <trkpt lat="42.472598000" lon="-2.561453000">
        <ele>423.80</ele>
        <time>2016-10-22T06:33:43Z</time>
      </trkpt>
      <trkpt lat="42.472562000" lon="-2.561449000">
        <ele>423.90</ele>
        <time>2016-10-22T06:33:44Z</time>
      </trkpt>
      <trkpt lat="42.472525000" lon="-2.561446000">
        <ele>424.00</ele>
        <time>2016-10-22T06:33:45Z</time>
      </trkpt>
      <trkpt lat="42.472490000" lon="-2.561443000">
        <ele>424.10</ele>
        <time>2016-10-22T06:33:46Z</time>
      </trkpt>
      <trkpt lat="42.472456000" lon="-2.561445000">
        <ele>424.30</ele>
        <time>2016-10-22T06:33:47Z</time>
      </trkpt>
      <trkpt lat="42.472423000" lon="-2.561447000">
        <ele>424.30</ele>
        <time>2016-10-22T06:33:48Z</time>
      </trkpt>
      <trkpt lat="42.472385000" lon="-2.561450000">
        <ele>424.40</ele>
        <time>2016-10-22T06:33:49Z</time>
      </trkpt>
      <trkpt lat="42.472349000" lon="-2.561451000">
        <ele>424.50</ele>
        <time>2016-10-22T06:33:50Z</time>
      </trkpt>
      <trkpt lat="42.472312000" lon="-2.561464000">
        <ele>424.80</ele>
        <time>2016-10-22T06:33:51Z</time>
      </trkpt>
      <trkpt lat="42.472272000" lon="-2.561474000">
        <ele>425.10</ele>
        <time>2016-10-22T06:33:52Z</time>
      </trkpt>
      <trkpt lat="42.472232000" lon="-2.561479000">
        <ele>425.30</ele>
        <time>2016-10-22T06:33:53Z</time>
      </trkpt>
      <trkpt lat="42.472197000" lon="-2.561490000">
        <ele>425.40</ele>
        <time>2016-10-22T06:33:54Z</time>
      </trkpt>
      <trkpt lat="42.472162000" lon="-2.561500000">
        <ele>425.50</ele>
        <time>2016-10-22T06:33:55Z</time>
      </trkpt>
      <trkpt lat="42.472124000" lon="-2.561513000">
        <ele>425.60</ele>
        <time>2016-10-22T06:33:56Z</time>
      </trkpt>
      <trkpt lat="42.472045000" lon="-2.561525000">
        <ele>425.40</ele>
        <time>2016-10-22T06:33:58Z</time>
      </trkpt>
      <trkpt lat="42.472007000" lon="-2.561529000">
        <ele>425.50</ele>
        <time>2016-10-22T06:33:59Z</time>
      </trkpt>
      <trkpt lat="42.471967000" lon="-2.561535000">
        <ele>425.60</ele>
        <time>2016-10-22T06:34:00Z</time>
      </trkpt>
      <trkpt lat="42.471930000" lon="-2.561539000">
        <ele>425.60</ele>
        <time>2016-10-22T06:34:01Z</time>
      </trkpt>
      <trkpt lat="42.471896000" lon="-2.561540000">
        <ele>425.70</ele>
        <time>2016-10-22T06:34:02Z</time>
      </trkpt>
      <trkpt lat="42.471862000" lon="-2.561542000">
        <ele>425.70</ele>
        <time>2016-10-22T06:34:03Z</time>
      </trkpt>
      <trkpt lat="42.471826000" lon="-2.561542000">
        <ele>425.70</ele>
        <time>2016-10-22T06:34:04Z</time>
      </trkpt>
      <trkpt lat="42.471791000" lon="-2.561543000">
        <ele>425.50</ele>
        <time>2016-10-22T06:34:05Z</time>
      </trkpt>
      <trkpt lat="42.471758000" lon="-2.561540000">
        <ele>425.40</ele>
        <time>2016-10-22T06:34:06Z</time>
      </trkpt>
      <trkpt lat="42.471725000" lon="-2.561534000">
        <ele>425.20</ele>
        <time>2016-10-22T06:34:07Z</time>
      </trkpt>
      <trkpt lat="42.471688000" lon="-2.561531000">
        <ele>425.10</ele>
        <time>2016-10-22T06:34:08Z</time>
      </trkpt>
      <trkpt lat="42.471651000" lon="-2.561533000">
        <ele>425.30</ele>
        <time>2016-10-22T06:34:09Z</time>
      </trkpt>
      <trkpt lat="42.471617000" lon="-2.561528000">
        <ele>425.30</ele>
        <time>2016-10-22T06:34:10Z</time>
      </trkpt>
      <trkpt lat="42.471582000" lon="-2.561529000">
        <ele>425.50</ele>
        <time>2016-10-22T06:34:11Z</time>
      </trkpt>
      <trkpt lat="42.471545000" lon="-2.561529000">
        <ele>425.70</ele>
        <time>2016-10-22T06:34:12Z</time>
      </trkpt>
      <trkpt lat="42.471508000" lon="-2.561529000">
        <ele>425.80</ele>
        <time>2016-10-22T06:34:13Z</time>
      </trkpt>
      <trkpt lat="42.471474000" lon="-2.561527000">
        <ele>426.00</ele>
        <time>2016-10-22T06:34:14Z</time>
      </trkpt>
      <trkpt lat="42.471441000" lon="-2.561525000">
        <ele>426.10</ele>
        <time>2016-10-22T06:34:15Z</time>
      </trkpt>
      <trkpt lat="42.471409000" lon="-2.561521000">
        <ele>426.10</ele>
        <time>2016-10-22T06:34:16Z</time>
      </trkpt>
      <trkpt lat="42.471375000" lon="-2.561513000">
        <ele>426.20</ele>
        <time>2016-10-22T06:34:17Z</time>
      </trkpt>
      <trkpt lat="42.471343000" lon="-2.561502000">
        <ele>426.20</ele>
        <time>2016-10-22T06:34:18Z</time>
      </trkpt>
      <trkpt lat="42.471310000" lon="-2.561493000">
        <ele>426.30</ele>
        <time>2016-10-22T06:34:19Z</time>
      </trkpt>
      <trkpt lat="42.471277000" lon="-2.561483000">
        <ele>426.30</ele>
        <time>2016-10-22T06:34:20Z</time>
      </trkpt>
      <trkpt lat="42.471244000" lon="-2.561476000">
        <ele>426.20</ele>
        <time>2016-10-22T06:34:21Z</time>
      </trkpt>
      <trkpt lat="42.471212000" lon="-2.561466000">
        <ele>426.20</ele>
        <time>2016-10-22T06:34:22Z</time>
      </trkpt>
      <trkpt lat="42.471180000" lon="-2.561458000">
        <ele>426.40</ele>
        <time>2016-10-22T06:34:23Z</time>
      </trkpt>
      <trkpt lat="42.471148000" lon="-2.561451000">
        <ele>426.50</ele>
        <time>2016-10-22T06:34:24Z</time>
      </trkpt>
      <trkpt lat="42.471120000" lon="-2.561447000">
        <ele>426.50</ele>
        <time>2016-10-22T06:34:25Z</time>
      </trkpt>
      <trkpt lat="42.471092000" lon="-2.561439000">
        <ele>426.40</ele>
        <time>2016-10-22T06:34:26Z</time>
      </trkpt>
      <trkpt lat="42.471063000" lon="-2.561427000">
        <ele>426.50</ele>
        <time>2016-10-22T06:34:27Z</time>
      </trkpt>
      <trkpt lat="42.471032000" lon="-2.561417000">
        <ele>426.60</ele>
        <time>2016-10-22T06:34:28Z</time>
      </trkpt>
      <trkpt lat="42.471003000" lon="-2.561405000">
        <ele>426.80</ele>
        <time>2016-10-22T06:34:29Z</time>
      </trkpt>
      <trkpt lat="42.470974000" lon="-2.561388000">
        <ele>427.00</ele>
        <time>2016-10-22T06:34:30Z</time>
      </trkpt>
      <trkpt lat="42.470948000" lon="-2.561370000">
        <ele>427.10</ele>
        <time>2016-10-22T06:34:31Z</time>
      </trkpt>
      <trkpt lat="42.470921000" lon="-2.561353000">
        <ele>427.10</ele>
        <time>2016-10-22T06:34:32Z</time>
      </trkpt>
      <trkpt lat="42.470891000" lon="-2.561339000">
        <ele>427.20</ele>
        <time>2016-10-22T06:34:33Z</time>
      </trkpt>
      <trkpt lat="42.470863000" lon="-2.561321000">
        <ele>427.30</ele>
        <time>2016-10-22T06:34:34Z</time>
      </trkpt>
      <trkpt lat="42.470833000" lon="-2.561309000">
        <ele>427.30</ele>
        <time>2016-10-22T06:34:35Z</time>
      </trkpt>
      <trkpt lat="42.470805000" lon="-2.561294000">
        <ele>427.30</ele>
        <time>2016-10-22T06:34:36Z</time>
      </trkpt>
      <trkpt lat="42.470777000" lon="-2.561279000">
        <ele>427.30</ele>
        <time>2016-10-22T06:34:37Z</time>
      </trkpt>
      <trkpt lat="42.470745000" lon="-2.561267000">
        <ele>427.20</ele>
        <time>2016-10-22T06:34:38Z</time>
      </trkpt>
      <trkpt lat="42.470716000" lon="-2.561253000">
        <ele>427.30</ele>
        <time>2016-10-22T06:34:39Z</time>
      </trkpt>
      <trkpt lat="42.470684000" lon="-2.561243000">
        <ele>427.40</ele>
        <time>2016-10-22T06:34:40Z</time>
      </trkpt>
      <trkpt lat="42.470657000" lon="-2.561231000">
        <ele>427.40</ele>
        <time>2016-10-22T06:34:41Z</time>
      </trkpt>
      <trkpt lat="42.470628000" lon="-2.561216000">
        <ele>427.40</ele>
        <time>2016-10-22T06:34:42Z</time>
      </trkpt>
      <trkpt lat="42.470601000" lon="-2.561194000">
        <ele>427.40</ele>
        <time>2016-10-22T06:34:43Z</time>
      </trkpt>
      <trkpt lat="42.470575000" lon="-2.561178000">
        <ele>427.40</ele>
        <time>2016-10-22T06:34:44Z</time>
      </trkpt>
      <trkpt lat="42.470545000" lon="-2.561164000">
        <ele>427.40</ele>
        <time>2016-10-22T06:34:45Z</time>
      </trkpt>
      <trkpt lat="42.470515000" lon="-2.561147000">
        <ele>427.40</ele>
        <time>2016-10-22T06:34:46Z</time>
      </trkpt>
      <trkpt lat="42.470483000" lon="-2.561133000">
        <ele>427.50</ele>
        <time>2016-10-22T06:34:47Z</time>
      </trkpt>
      <trkpt lat="42.470452000" lon="-2.561114000">
        <ele>427.50</ele>
        <time>2016-10-22T06:34:48Z</time>
      </trkpt>
      <trkpt lat="42.470421000" lon="-2.561096000">
        <ele>427.50</ele>
        <time>2016-10-22T06:34:49Z</time>
      </trkpt>
      <trkpt lat="42.470390000" lon="-2.561078000">
        <ele>427.60</ele>
        <time>2016-10-22T06:34:50Z</time>
      </trkpt>
      <trkpt lat="42.470361000" lon="-2.561063000">
        <ele>427.60</ele>
        <time>2016-10-22T06:34:51Z</time>
      </trkpt>
      <trkpt lat="42.470332000" lon="-2.561045000">
        <ele>427.60</ele>
        <time>2016-10-22T06:34:52Z</time>
      </trkpt>
      <trkpt lat="42.470306000" lon="-2.561034000">
        <ele>427.70</ele>
        <time>2016-10-22T06:34:53Z</time>
      </trkpt>
      <trkpt lat="42.470278000" lon="-2.561012000">
        <ele>427.80</ele>
        <time>2016-10-22T06:34:54Z</time>
      </trkpt>
      <trkpt lat="42.470250000" lon="-2.561003000">
        <ele>427.80</ele>
        <time>2016-10-22T06:34:55Z</time>
      </trkpt>
      <trkpt lat="42.470220000" lon="-2.560990000">
        <ele>427.80</ele>
        <time>2016-10-22T06:34:56Z</time>
      </trkpt>
      <trkpt lat="42.470189000" lon="-2.560977000">
        <ele>427.90</ele>
        <time>2016-10-22T06:34:57Z</time>
      </trkpt>
      <trkpt lat="42.470131000" lon="-2.560949000">
        <ele>427.80</ele>
        <time>2016-10-22T06:34:59Z</time>
      </trkpt>
      <trkpt lat="42.470104000" lon="-2.560928000">
        <ele>427.80</ele>
        <time>2016-10-22T06:35:00Z</time>
      </trkpt>
      <trkpt lat="42.470082000" lon="-2.560916000">
        <ele>427.90</ele>
        <time>2016-10-22T06:35:01Z</time>
      </trkpt>
      <trkpt lat="42.470056000" lon="-2.560902000">
        <ele>427.90</ele>
        <time>2016-10-22T06:35:02Z</time>
      </trkpt>
      <trkpt lat="42.470025000" lon="-2.560882000">
        <ele>427.90</ele>
        <time>2016-10-22T06:35:03Z</time>
      </trkpt>
      <trkpt lat="42.469998000" lon="-2.560866000">
        <ele>427.90</ele>
        <time>2016-10-22T06:35:04Z</time>
      </trkpt>
      <trkpt lat="42.469967000" lon="-2.560850000">
        <ele>428.00</ele>
        <time>2016-10-22T06:35:05Z</time>
      </trkpt>
      <trkpt lat="42.469936000" lon="-2.560831000">
        <ele>428.00</ele>
        <time>2016-10-22T06:35:06Z</time>
      </trkpt>
      <trkpt lat="42.469910000" lon="-2.560810000">
        <ele>428.10</ele>
        <time>2016-10-22T06:35:07Z</time>
      </trkpt>
      <trkpt lat="42.469886000" lon="-2.560790000">
        <ele>428.20</ele>
        <time>2016-10-22T06:35:08Z</time>
      </trkpt>
      <trkpt lat="42.469860000" lon="-2.560771000">
        <ele>428.20</ele>
        <time>2016-10-22T06:35:09Z</time>
      </trkpt>
      <trkpt lat="42.469834000" lon="-2.560761000">
        <ele>428.20</ele>
        <time>2016-10-22T06:35:10Z</time>
      </trkpt>
      <trkpt lat="42.469811000" lon="-2.560746000">
        <ele>428.30</ele>
        <time>2016-10-22T06:35:11Z</time>
      </trkpt>
      <trkpt lat="42.469793000" lon="-2.560729000">
        <ele>428.30</ele>
        <time>2016-10-22T06:35:12Z</time>
      </trkpt>
      <trkpt lat="42.469771000" lon="-2.560716000">
        <ele>428.40</ele>
        <time>2016-10-22T06:35:13Z</time>
      </trkpt>
      <trkpt lat="42.469751000" lon="-2.560708000">
        <ele>428.40</ele>
        <time>2016-10-22T06:35:14Z</time>
      </trkpt>
      <trkpt lat="42.469733000" lon="-2.560694000">
        <ele>428.40</ele>
        <time>2016-10-22T06:35:15Z</time>
      </trkpt>
      <trkpt lat="42.469713000" lon="-2.560687000">
        <ele>428.40</ele>
        <time>2016-10-22T06:35:16Z</time>
      </trkpt>
      <trkpt lat="42.469696000" lon="-2.560681000">
        <ele>428.50</ele>
        <time>2016-10-22T06:35:17Z</time>
      </trkpt>
      <trkpt lat="42.469681000" lon="-2.560690000">
        <ele>428.50</ele>
        <time>2016-10-22T06:35:18Z</time>
      </trkpt>
      <trkpt lat="42.469673000" lon="-2.560707000">
        <ele>428.60</ele>
        <time>2016-10-22T06:35:19Z</time>
      </trkpt>
      <trkpt lat="42.469667000" lon="-2.560728000">
        <ele>428.60</ele>
        <time>2016-10-22T06:35:20Z</time>
      </trkpt>
      <trkpt lat="42.469662000" lon="-2.560752000">
        <ele>428.60</ele>
        <time>2016-10-22T06:35:21Z</time>
      </trkpt>
      <trkpt lat="42.469656000" lon="-2.560775000">
        <ele>428.60</ele>
        <time>2016-10-22T06:35:22Z</time>
      </trkpt>
      <trkpt lat="42.469650000" lon="-2.560799000">
        <ele>428.60</ele>
        <time>2016-10-22T06:35:23Z</time>
      </trkpt>
      <trkpt lat="42.469642000" lon="-2.560823000">
        <ele>428.60</ele>
        <time>2016-10-22T06:35:24Z</time>
      </trkpt>
      <trkpt lat="42.469634000" lon="-2.560848000">
        <ele>428.50</ele>
        <time>2016-10-22T06:35:25Z</time>
      </trkpt>
      <trkpt lat="42.469625000" lon="-2.560882000">
        <ele>428.40</ele>
        <time>2016-10-22T06:35:26Z</time>
      </trkpt>
      <trkpt lat="42.469614000" lon="-2.560915000">
        <ele>428.40</ele>
        <time>2016-10-22T06:35:27Z</time>
      </trkpt>
      <trkpt lat="42.469603000" lon="-2.560950000">
        <ele>428.40</ele>
        <time>2016-10-22T06:35:28Z</time>
      </trkpt>
      <trkpt lat="42.469595000" lon="-2.560989000">
        <ele>428.30</ele>
        <time>2016-10-22T06:35:29Z</time>
      </trkpt>
      <trkpt lat="42.469586000" lon="-2.561029000">
        <ele>428.30</ele>
        <time>2016-10-22T06:35:30Z</time>
      </trkpt>
      <trkpt lat="42.469579000" lon="-2.561062000">
        <ele>428.20</ele>
        <time>2016-10-22T06:35:31Z</time>
      </trkpt>
      <trkpt lat="42.469569000" lon="-2.561098000">
        <ele>428.20</ele>
        <time>2016-10-22T06:35:32Z</time>
      </trkpt>
      <trkpt lat="42.469559000" lon="-2.561133000">
        <ele>428.10</ele>
        <time>2016-10-22T06:35:33Z</time>
      </trkpt>
      <trkpt lat="42.469549000" lon="-2.561167000">
        <ele>428.10</ele>
        <time>2016-10-22T06:35:34Z</time>
      </trkpt>
      <trkpt lat="42.469541000" lon="-2.561203000">
        <ele>428.10</ele>
        <time>2016-10-22T06:35:35Z</time>
      </trkpt>
      <trkpt lat="42.469530000" lon="-2.561235000">
        <ele>428.10</ele>
        <time>2016-10-22T06:35:36Z</time>
      </trkpt>
      <trkpt lat="42.469523000" lon="-2.561268000">
        <ele>428.20</ele>
        <time>2016-10-22T06:35:37Z</time>
      </trkpt>
      <trkpt lat="42.469511000" lon="-2.561288000">
        <ele>428.30</ele>
        <time>2016-10-22T06:35:38Z</time>
      </trkpt>
      <trkpt lat="42.469496000" lon="-2.561305000">
        <ele>428.30</ele>
        <time>2016-10-22T06:35:39Z</time>
      </trkpt>
      <trkpt lat="42.469474000" lon="-2.561317000">
        <ele>428.30</ele>
        <time>2016-10-22T06:35:40Z</time>
      </trkpt>
      <trkpt lat="42.469448000" lon="-2.561327000">
        <ele>428.30</ele>
        <time>2016-10-22T06:35:41Z</time>
      </trkpt>
      <trkpt lat="42.469422000" lon="-2.561325000">
        <ele>428.40</ele>
        <time>2016-10-22T06:35:42Z</time>
      </trkpt>
      <trkpt lat="42.469390000" lon="-2.561318000">
        <ele>428.30</ele>
        <time>2016-10-22T06:35:43Z</time>
      </trkpt>
      <trkpt lat="42.469356000" lon="-2.561308000">
        <ele>428.30</ele>
        <time>2016-10-22T06:35:44Z</time>
      </trkpt>
      <trkpt lat="42.469323000" lon="-2.561295000">
        <ele>428.30</ele>
        <time>2016-10-22T06:35:45Z</time>
      </trkpt>
      <trkpt lat="42.469291000" lon="-2.561284000">
        <ele>428.30</ele>
        <time>2016-10-22T06:35:46Z</time>
      </trkpt>
      <trkpt lat="42.469258000" lon="-2.561274000">
        <ele>428.30</ele>
        <time>2016-10-22T06:35:47Z</time>
      </trkpt>
      <trkpt lat="42.469227000" lon="-2.561260000">
        <ele>428.30</ele>
        <time>2016-10-22T06:35:48Z</time>
      </trkpt>
      <trkpt lat="42.469199000" lon="-2.561244000">
        <ele>428.40</ele>
        <time>2016-10-22T06:35:49Z</time>
      </trkpt>
      <trkpt lat="42.469173000" lon="-2.561233000">
        <ele>428.50</ele>
        <time>2016-10-22T06:35:50Z</time>
      </trkpt>
      <trkpt lat="42.469143000" lon="-2.561220000">
        <ele>428.60</ele>
        <time>2016-10-22T06:35:51Z</time>
      </trkpt>
      <trkpt lat="42.469112000" lon="-2.561210000">
        <ele>428.70</ele>
        <time>2016-10-22T06:35:52Z</time>
      </trkpt>
      <trkpt lat="42.469080000" lon="-2.561198000">
        <ele>428.80</ele>
        <time>2016-10-22T06:35:53Z</time>
      </trkpt>
      <trkpt lat="42.469048000" lon="-2.561182000">
        <ele>428.90</ele>
        <time>2016-10-22T06:35:54Z</time>
      </trkpt>
      <trkpt lat="42.469016000" lon="-2.561166000">
        <ele>428.90</ele>
        <time>2016-10-22T06:35:55Z</time>
      </trkpt>
      <trkpt lat="42.468982000" lon="-2.561149000">
        <ele>429.00</ele>
        <time>2016-10-22T06:35:56Z</time>
      </trkpt>
      <trkpt lat="42.468948000" lon="-2.561132000">
        <ele>429.00</ele>
        <time>2016-10-22T06:35:57Z</time>
      </trkpt>
      <trkpt lat="42.468918000" lon="-2.561116000">
        <ele>429.10</ele>
        <time>2016-10-22T06:35:58Z</time>
      </trkpt>
      <trkpt lat="42.468861000" lon="-2.561079000">
        <ele>429.30</ele>
        <time>2016-10-22T06:36:00Z</time>
      </trkpt>
      <trkpt lat="42.468834000" lon="-2.561059000">
        <ele>429.40</ele>
        <time>2016-10-22T06:36:01Z</time>
      </trkpt>
      <trkpt lat="42.468809000" lon="-2.561041000">
        <ele>429.50</ele>
        <time>2016-10-22T06:36:02Z</time>
      </trkpt>
      <trkpt lat="42.468782000" lon="-2.561027000">
        <ele>429.50</ele>
        <time>2016-10-22T06:36:03Z</time>
      </trkpt>
      <trkpt lat="42.468750000" lon="-2.561012000">
        <ele>429.50</ele>
        <time>2016-10-22T06:36:04Z</time>
      </trkpt>
      <trkpt lat="42.468719000" lon="-2.560998000">
        <ele>429.50</ele>
        <time>2016-10-22T06:36:05Z</time>
      </trkpt>
      <trkpt lat="42.468687000" lon="-2.560981000">
        <ele>429.50</ele>
        <time>2016-10-22T06:36:06Z</time>
      </trkpt>
      <trkpt lat="42.468656000" lon="-2.560968000">
        <ele>429.50</ele>
        <time>2016-10-22T06:36:07Z</time>
      </trkpt>
      <trkpt lat="42.468624000" lon="-2.560957000">
        <ele>429.40</ele>
        <time>2016-10-22T06:36:08Z</time>
      </trkpt>
      <trkpt lat="42.468594000" lon="-2.560950000">
        <ele>429.40</ele>
        <time>2016-10-22T06:36:09Z</time>
      </trkpt>
      <trkpt lat="42.468561000" lon="-2.560944000">
        <ele>429.30</ele>
        <time>2016-10-22T06:36:10Z</time>
      </trkpt>
      <trkpt lat="42.468528000" lon="-2.560949000">
        <ele>429.30</ele>
        <time>2016-10-22T06:36:11Z</time>
      </trkpt>
      <trkpt lat="42.468495000" lon="-2.560962000">
        <ele>429.20</ele>
        <time>2016-10-22T06:36:12Z</time>
      </trkpt>
      <trkpt lat="42.468463000" lon="-2.560980000">
        <ele>429.20</ele>
        <time>2016-10-22T06:36:13Z</time>
      </trkpt>
      <trkpt lat="42.468431000" lon="-2.561004000">
        <ele>429.20</ele>
        <time>2016-10-22T06:36:14Z</time>
      </trkpt>
      <trkpt lat="42.468399000" lon="-2.561029000">
        <ele>429.20</ele>
        <time>2016-10-22T06:36:15Z</time>
      </trkpt>
      <trkpt lat="42.468369000" lon="-2.561056000">
        <ele>429.20</ele>
        <time>2016-10-22T06:36:16Z</time>
      </trkpt>
      <trkpt lat="42.468341000" lon="-2.561087000">
        <ele>429.20</ele>
        <time>2016-10-22T06:36:17Z</time>
      </trkpt>
      <trkpt lat="42.468312000" lon="-2.561118000">
        <ele>429.20</ele>
        <time>2016-10-22T06:36:18Z</time>
      </trkpt>
      <trkpt lat="42.468287000" lon="-2.561150000">
        <ele>429.10</ele>
        <time>2016-10-22T06:36:19Z</time>
      </trkpt>
      <trkpt lat="42.468261000" lon="-2.561179000">
        <ele>429.10</ele>
        <time>2016-10-22T06:36:20Z</time>
      </trkpt>
      <trkpt lat="42.468236000" lon="-2.561209000">
        <ele>429.10</ele>
        <time>2016-10-22T06:36:21Z</time>
      </trkpt>
      <trkpt lat="42.468209000" lon="-2.561238000">
        <ele>429.10</ele>
        <time>2016-10-22T06:36:22Z</time>
      </trkpt>
      <trkpt lat="42.468183000" lon="-2.561267000">
        <ele>429.10</ele>
        <time>2016-10-22T06:36:23Z</time>
      </trkpt>
      <trkpt lat="42.468154000" lon="-2.561285000">
        <ele>429.10</ele>
        <time>2016-10-22T06:36:24Z</time>
      </trkpt>
      <trkpt lat="42.468124000" lon="-2.561299000">
        <ele>429.10</ele>
        <time>2016-10-22T06:36:25Z</time>
      </trkpt>
      <trkpt lat="42.468094000" lon="-2.561309000">
        <ele>429.10</ele>
        <time>2016-10-22T06:36:26Z</time>
      </trkpt>
      <trkpt lat="42.468067000" lon="-2.561318000">
        <ele>429.10</ele>
        <time>2016-10-22T06:36:27Z</time>
      </trkpt>
      <trkpt lat="42.468038000" lon="-2.561328000">
        <ele>429.10</ele>
        <time>2016-10-22T06:36:28Z</time>
      </trkpt>
      <trkpt lat="42.468007000" lon="-2.561338000">
        <ele>429.20</ele>
        <time>2016-10-22T06:36:29Z</time>
      </trkpt>
      <trkpt lat="42.467974000" lon="-2.561347000">
        <ele>429.20</ele>
        <time>2016-10-22T06:36:30Z</time>
      </trkpt>
      <trkpt lat="42.467943000" lon="-2.561357000">
        <ele>429.40</ele>
        <time>2016-10-22T06:36:31Z</time>
      </trkpt>
      <trkpt lat="42.467909000" lon="-2.561368000">
        <ele>429.40</ele>
        <time>2016-10-22T06:36:32Z</time>
      </trkpt>
      <trkpt lat="42.467875000" lon="-2.561373000">
        <ele>429.50</ele>
        <time>2016-10-22T06:36:33Z</time>
      </trkpt>
      <trkpt lat="42.467840000" lon="-2.561377000">
        <ele>429.50</ele>
        <time>2016-10-22T06:36:34Z</time>
      </trkpt>
      <trkpt lat="42.467806000" lon="-2.561383000">
        <ele>429.60</ele>
        <time>2016-10-22T06:36:35Z</time>
      </trkpt>
      <trkpt lat="42.467777000" lon="-2.561386000">
        <ele>429.60</ele>
        <time>2016-10-22T06:36:36Z</time>
      </trkpt>
      <trkpt lat="42.467746000" lon="-2.561390000">
        <ele>429.60</ele>
        <time>2016-10-22T06:36:37Z</time>
      </trkpt>
      <trkpt lat="42.467712000" lon="-2.561392000">
        <ele>429.60</ele>
        <time>2016-10-22T06:36:38Z</time>
      </trkpt>
      <trkpt lat="42.467678000" lon="-2.561392000">
        <ele>429.60</ele>
        <time>2016-10-22T06:36:39Z</time>
      </trkpt>
      <trkpt lat="42.467646000" lon="-2.561394000">
        <ele>429.60</ele>
        <time>2016-10-22T06:36:40Z</time>
      </trkpt>
      <trkpt lat="42.467615000" lon="-2.561394000">
        <ele>429.60</ele>
        <time>2016-10-22T06:36:41Z</time>
      </trkpt>
      <trkpt lat="42.467583000" lon="-2.561389000">
        <ele>429.60</ele>
        <time>2016-10-22T06:36:42Z</time>
      </trkpt>
      <trkpt lat="42.467556000" lon="-2.561385000">
        <ele>429.60</ele>
        <time>2016-10-22T06:36:43Z</time>
      </trkpt>
      <trkpt lat="42.467525000" lon="-2.561379000">
        <ele>429.50</ele>
        <time>2016-10-22T06:36:44Z</time>
      </trkpt>
      <trkpt lat="42.467494000" lon="-2.561372000">
        <ele>429.50</ele>
        <time>2016-10-22T06:36:45Z</time>
      </trkpt>
      <trkpt lat="42.467463000" lon="-2.561374000">
        <ele>429.50</ele>
        <time>2016-10-22T06:36:46Z</time>
      </trkpt>
      <trkpt lat="42.467430000" lon="-2.561374000">
        <ele>429.50</ele>
        <time>2016-10-22T06:36:47Z</time>
      </trkpt>
      <trkpt lat="42.467398000" lon="-2.561378000">
        <ele>429.40</ele>
        <time>2016-10-22T06:36:48Z</time>
      </trkpt>
      <trkpt lat="42.467367000" lon="-2.561389000">
        <ele>429.40</ele>
        <time>2016-10-22T06:36:49Z</time>
      </trkpt>
      <trkpt lat="42.467334000" lon="-2.561387000">
        <ele>429.40</ele>
        <time>2016-10-22T06:36:50Z</time>
      </trkpt>
      <trkpt lat="42.467302000" lon="-2.561390000">
        <ele>429.50</ele>
        <time>2016-10-22T06:36:51Z</time>
      </trkpt>
      <trkpt lat="42.467272000" lon="-2.561392000">
        <ele>429.50</ele>
        <time>2016-10-22T06:36:52Z</time>
      </trkpt>
      <trkpt lat="42.467241000" lon="-2.561394000">
        <ele>429.60</ele>
        <time>2016-10-22T06:36:53Z</time>
      </trkpt>
      <trkpt lat="42.467215000" lon="-2.561392000">
        <ele>429.60</ele>
        <time>2016-10-22T06:36:54Z</time>
      </trkpt>
      <trkpt lat="42.467191000" lon="-2.561393000">
        <ele>429.70</ele>
        <time>2016-10-22T06:36:55Z</time>
      </trkpt>
      <trkpt lat="42.467167000" lon="-2.561399000">
        <ele>429.70</ele>
        <time>2016-10-22T06:36:56Z</time>
      </trkpt>
      <trkpt lat="42.467145000" lon="-2.561402000">
        <ele>429.80</ele>
        <time>2016-10-22T06:36:57Z</time>
      </trkpt>
      <trkpt lat="42.467124000" lon="-2.561406000">
        <ele>429.80</ele>
        <time>2016-10-22T06:36:58Z</time>
      </trkpt>
      <trkpt lat="42.467102000" lon="-2.561408000">
        <ele>429.90</ele>
        <time>2016-10-22T06:36:59Z</time>
      </trkpt>
      <trkpt lat="42.467057000" lon="-2.561432000">
        <ele>430.10</ele>
        <time>2016-10-22T06:37:01Z</time>
      </trkpt>
      <trkpt lat="42.467035000" lon="-2.561446000">
        <ele>430.20</ele>
        <time>2016-10-22T06:37:02Z</time>
      </trkpt>
      <trkpt lat="42.467017000" lon="-2.561466000">
        <ele>430.40</ele>
        <time>2016-10-22T06:37:03Z</time>
      </trkpt>
      <trkpt lat="42.467002000" lon="-2.561493000">
        <ele>430.50</ele>
        <time>2016-10-22T06:37:04Z</time>
      </trkpt>
      <trkpt lat="42.466990000" lon="-2.561520000">
        <ele>430.60</ele>
        <time>2016-10-22T06:37:05Z</time>
      </trkpt>
      <trkpt lat="42.466979000" lon="-2.561550000">
        <ele>430.60</ele>
        <time>2016-10-22T06:37:06Z</time>
      </trkpt>
      <trkpt lat="42.466971000" lon="-2.561583000">
        <ele>430.40</ele>
        <time>2016-10-22T06:37:07Z</time>
      </trkpt>
      <trkpt lat="42.466961000" lon="-2.561615000">
        <ele>430.30</ele>
        <time>2016-10-22T06:37:08Z</time>
      </trkpt>
      <trkpt lat="42.466955000" lon="-2.561649000">
        <ele>430.20</ele>
        <time>2016-10-22T06:37:09Z</time>
      </trkpt>
      <trkpt lat="42.466948000" lon="-2.561683000">
        <ele>430.10</ele>
        <time>2016-10-22T06:37:10Z</time>
      </trkpt>
      <trkpt lat="42.466941000" lon="-2.561722000">
        <ele>430.20</ele>
        <time>2016-10-22T06:37:11Z</time>
      </trkpt>
      <trkpt lat="42.466935000" lon="-2.561761000">
        <ele>430.20</ele>
        <time>2016-10-22T06:37:12Z</time>
      </trkpt>
      <trkpt lat="42.466928000" lon="-2.561796000">
        <ele>430.20</ele>
        <time>2016-10-22T06:37:13Z</time>
      </trkpt>
      <trkpt lat="42.466922000" lon="-2.561831000">
        <ele>430.30</ele>
        <time>2016-10-22T06:37:14Z</time>
      </trkpt>
      <trkpt lat="42.466914000" lon="-2.561863000">
        <ele>430.50</ele>
        <time>2016-10-22T06:37:15Z</time>
      </trkpt>
      <trkpt lat="42.466909000" lon="-2.561890000">
        <ele>430.60</ele>
        <time>2016-10-22T06:37:16Z</time>
      </trkpt>
      <trkpt lat="42.466902000" lon="-2.561917000">
        <ele>430.70</ele>
        <time>2016-10-22T06:37:17Z</time>
      </trkpt>
      <trkpt lat="42.466893000" lon="-2.561942000">
        <ele>430.80</ele>
        <time>2016-10-22T06:37:18Z</time>
      </trkpt>
      <trkpt lat="42.466884000" lon="-2.561963000">
        <ele>430.70</ele>
        <time>2016-10-22T06:37:19Z</time>
      </trkpt>
      <trkpt lat="42.466874000" lon="-2.561988000">
        <ele>430.70</ele>
        <time>2016-10-22T06:37:20Z</time>
      </trkpt>
      <trkpt lat="42.466871000" lon="-2.562016000">
        <ele>430.60</ele>
        <time>2016-10-22T06:37:21Z</time>
      </trkpt>
      <trkpt lat="42.466869000" lon="-2.562040000">
        <ele>430.50</ele>
        <time>2016-10-22T06:37:22Z</time>
      </trkpt>
      <trkpt lat="42.466867000" lon="-2.562065000">
        <ele>430.50</ele>
        <time>2016-10-22T06:37:23Z</time>
      </trkpt>
      <trkpt lat="42.466862000" lon="-2.562091000">
        <ele>430.50</ele>
        <time>2016-10-22T06:37:24Z</time>
      </trkpt>
      <trkpt lat="42.466854000" lon="-2.562124000">
        <ele>430.40</ele>
        <time>2016-10-22T06:37:25Z</time>
      </trkpt>
      <trkpt lat="42.466842000" lon="-2.562153000">
        <ele>430.40</ele>
        <time>2016-10-22T06:37:26Z</time>
      </trkpt>
      <trkpt lat="42.466822000" lon="-2.562171000">
        <ele>430.40</ele>
        <time>2016-10-22T06:37:27Z</time>
      </trkpt>
      <trkpt lat="42.466795000" lon="-2.562173000">
        <ele>430.50</ele>
        <time>2016-10-22T06:37:28Z</time>
      </trkpt>
      <trkpt lat="42.466761000" lon="-2.562169000">
        <ele>430.50</ele>
        <time>2016-10-22T06:37:29Z</time>
      </trkpt>
      <trkpt lat="42.466722000" lon="-2.562165000">
        <ele>430.60</ele>
        <time>2016-10-22T06:37:30Z</time>
      </trkpt>
      <trkpt lat="42.466682000" lon="-2.562154000">
        <ele>430.80</ele>
        <time>2016-10-22T06:37:31Z</time>
      </trkpt>
      <trkpt lat="42.466640000" lon="-2.562147000">
        <ele>430.90</ele>
        <time>2016-10-22T06:37:32Z</time>
      </trkpt>
      <trkpt lat="42.466605000" lon="-2.562130000">
        <ele>431.00</ele>
        <time>2016-10-22T06:37:33Z</time>
      </trkpt>
      <trkpt lat="42.466566000" lon="-2.562111000">
        <ele>431.10</ele>
        <time>2016-10-22T06:37:34Z</time>
      </trkpt>
      <trkpt lat="42.466530000" lon="-2.562099000">
        <ele>431.20</ele>
        <time>2016-10-22T06:37:35Z</time>
      </trkpt>
      <trkpt lat="42.466486000" lon="-2.562091000">
        <ele>431.30</ele>
        <time>2016-10-22T06:37:36Z</time>
      </trkpt>
      <trkpt lat="42.466445000" lon="-2.562089000">
        <ele>431.40</ele>
        <time>2016-10-22T06:37:37Z</time>
      </trkpt>
      <trkpt lat="42.466405000" lon="-2.562091000">
        <ele>431.40</ele>
        <time>2016-10-22T06:37:38Z</time>
      </trkpt>
      <trkpt lat="42.466363000" lon="-2.562093000">
        <ele>431.40</ele>
        <time>2016-10-22T06:37:39Z</time>
      </trkpt>
      <trkpt lat="42.466322000" lon="-2.562090000">
        <ele>431.40</ele>
        <time>2016-10-22T06:37:40Z</time>
      </trkpt>
      <trkpt lat="42.466278000" lon="-2.562083000">
        <ele>431.40</ele>
        <time>2016-10-22T06:37:41Z</time>
      </trkpt>
      <trkpt lat="42.466230000" lon="-2.562077000">
        <ele>431.30</ele>
        <time>2016-10-22T06:37:42Z</time>
      </trkpt>
      <trkpt lat="42.466181000" lon="-2.562064000">
        <ele>431.50</ele>
        <time>2016-10-22T06:37:43Z</time>
      </trkpt>
      <trkpt lat="42.466136000" lon="-2.562049000">
        <ele>431.70</ele>
        <time>2016-10-22T06:37:44Z</time>
      </trkpt>
      <trkpt lat="42.466092000" lon="-2.562038000">
        <ele>431.80</ele>
        <time>2016-10-22T06:37:45Z</time>
      </trkpt>
      <trkpt lat="42.466045000" lon="-2.562029000">
        <ele>431.90</ele>
        <time>2016-10-22T06:37:46Z</time>
      </trkpt>
      <trkpt lat="42.465999000" lon="-2.562022000">
        <ele>432.00</ele>
        <time>2016-10-22T06:37:47Z</time>
      </trkpt>
      <trkpt lat="42.465956000" lon="-2.562018000">
        <ele>432.20</ele>
        <time>2016-10-22T06:37:48Z</time>
      </trkpt>
      <trkpt lat="42.465913000" lon="-2.562022000">
        <ele>432.20</ele>
        <time>2016-10-22T06:37:49Z</time>
      </trkpt>
      <trkpt lat="42.465869000" lon="-2.562021000">
        <ele>432.10</ele>
        <time>2016-10-22T06:37:50Z</time>
      </trkpt>
      <trkpt lat="42.465826000" lon="-2.562014000">
        <ele>432.30</ele>
        <time>2016-10-22T06:37:51Z</time>
      </trkpt>
      <trkpt lat="42.465782000" lon="-2.562003000">
        <ele>432.40</ele>
        <time>2016-10-22T06:37:52Z</time>
      </trkpt>
      <trkpt lat="42.465738000" lon="-2.561998000">
        <ele>432.40</ele>
        <time>2016-10-22T06:37:53Z</time>
      </trkpt>
      <trkpt lat="42.465694000" lon="-2.561992000">
        <ele>432.50</ele>
        <time>2016-10-22T06:37:54Z</time>
      </trkpt>
      <trkpt lat="42.465654000" lon="-2.561987000">
        <ele>432.50</ele>
        <time>2016-10-22T06:37:55Z</time>
      </trkpt>
      <trkpt lat="42.465615000" lon="-2.561981000">
        <ele>432.50</ele>
        <time>2016-10-22T06:37:56Z</time>
      </trkpt>
      <trkpt lat="42.465575000" lon="-2.561977000">
        <ele>432.50</ele>
        <time>2016-10-22T06:37:57Z</time>
      </trkpt>
      <trkpt lat="42.465535000" lon="-2.561964000">
        <ele>432.50</ele>
        <time>2016-10-22T06:37:58Z</time>
      </trkpt>
      <trkpt lat="42.465495000" lon="-2.561954000">
        <ele>432.40</ele>
        <time>2016-10-22T06:37:59Z</time>
      </trkpt>
      <trkpt lat="42.465459000" lon="-2.561942000">
        <ele>432.30</ele>
        <time>2016-10-22T06:38:00Z</time>
      </trkpt>
      <trkpt lat="42.465395000" lon="-2.561918000">
        <ele>432.20</ele>
        <time>2016-10-22T06:38:02Z</time>
      </trkpt>
      <trkpt lat="42.465372000" lon="-2.561889000">
        <ele>432.30</ele>
        <time>2016-10-22T06:38:03Z</time>
      </trkpt>
      <trkpt lat="42.465363000" lon="-2.561853000">
        <ele>432.40</ele>
        <time>2016-10-22T06:38:04Z</time>
      </trkpt>
      <trkpt lat="42.465361000" lon="-2.561804000">
        <ele>432.40</ele>
        <time>2016-10-22T06:38:05Z</time>
      </trkpt>
      <trkpt lat="42.465365000" lon="-2.561754000">
        <ele>432.50</ele>
        <time>2016-10-22T06:38:06Z</time>
      </trkpt>
      <trkpt lat="42.465366000" lon="-2.561700000">
        <ele>432.50</ele>
        <time>2016-10-22T06:38:07Z</time>
      </trkpt>
      <trkpt lat="42.465363000" lon="-2.561650000">
        <ele>432.50</ele>
        <time>2016-10-22T06:38:08Z</time>
      </trkpt>
      <trkpt lat="42.465351000" lon="-2.561616000">
        <ele>432.40</ele>
        <time>2016-10-22T06:38:09Z</time>
      </trkpt>
      <trkpt lat="42.465328000" lon="-2.561594000">
        <ele>432.30</ele>
        <time>2016-10-22T06:38:10Z</time>
      </trkpt>
      <trkpt lat="42.465291000" lon="-2.561586000">
        <ele>432.30</ele>
        <time>2016-10-22T06:38:11Z</time>
      </trkpt>
      <trkpt lat="42.465252000" lon="-2.561583000">
        <ele>432.20</ele>
        <time>2016-10-22T06:38:12Z</time>
      </trkpt>
      <trkpt lat="42.465215000" lon="-2.561589000">
        <ele>432.40</ele>
        <time>2016-10-22T06:38:13Z</time>
      </trkpt>
      <trkpt lat="42.465178000" lon="-2.561601000">
        <ele>432.50</ele>
        <time>2016-10-22T06:38:14Z</time>
      </trkpt>
      <trkpt lat="42.465139000" lon="-2.561615000">
        <ele>432.90</ele>
        <time>2016-10-22T06:38:15Z</time>
      </trkpt>
      <trkpt lat="42.465100000" lon="-2.561626000">
        <ele>433.20</ele>
        <time>2016-10-22T06:38:16Z</time>
      </trkpt>
      <trkpt lat="42.465063000" lon="-2.561638000">
        <ele>433.50</ele>
        <time>2016-10-22T06:38:17Z</time>
      </trkpt>
      <trkpt lat="42.465028000" lon="-2.561651000">
        <ele>433.70</ele>
        <time>2016-10-22T06:38:18Z</time>
      </trkpt>
      <trkpt lat="42.464992000" lon="-2.561664000">
        <ele>433.30</ele>
        <time>2016-10-22T06:38:19Z</time>
      </trkpt>
      <trkpt lat="42.464956000" lon="-2.561680000">
        <ele>433.00</ele>
        <time>2016-10-22T06:38:20Z</time>
      </trkpt>
      <trkpt lat="42.464914000" lon="-2.561682000">
        <ele>432.80</ele>
        <time>2016-10-22T06:38:21Z</time>
      </trkpt>
      <trkpt lat="42.464876000" lon="-2.561685000">
        <ele>432.60</ele>
        <time>2016-10-22T06:38:22Z</time>
      </trkpt>
      <trkpt lat="42.464838000" lon="-2.561690000">
        <ele>432.60</ele>
        <time>2016-10-22T06:38:23Z</time>
      </trkpt>
      <trkpt lat="42.464801000" lon="-2.561695000">
        <ele>432.60</ele>
        <time>2016-10-22T06:38:24Z</time>
      </trkpt>
      <trkpt lat="42.464768000" lon="-2.561699000">
        <ele>432.60</ele>
        <time>2016-10-22T06:38:25Z</time>
      </trkpt>
      <trkpt lat="42.464732000" lon="-2.561707000">
        <ele>432.60</ele>
        <time>2016-10-22T06:38:26Z</time>
      </trkpt>
      <trkpt lat="42.464692000" lon="-2.561717000">
        <ele>432.80</ele>
        <time>2016-10-22T06:38:27Z</time>
      </trkpt>
      <trkpt lat="42.464653000" lon="-2.561724000">
        <ele>433.00</ele>
        <time>2016-10-22T06:38:28Z</time>
      </trkpt>
      <trkpt lat="42.464614000" lon="-2.561734000">
        <ele>433.00</ele>
        <time>2016-10-22T06:38:29Z</time>
      </trkpt>
      <trkpt lat="42.464576000" lon="-2.561744000">
        <ele>433.00</ele>
        <time>2016-10-22T06:38:30Z</time>
      </trkpt>
      <trkpt lat="42.464539000" lon="-2.561758000">
        <ele>433.10</ele>
        <time>2016-10-22T06:38:31Z</time>
      </trkpt>
      <trkpt lat="42.464499000" lon="-2.561767000">
        <ele>433.10</ele>
        <time>2016-10-22T06:38:32Z</time>
      </trkpt>
      <trkpt lat="42.464462000" lon="-2.561777000">
        <ele>433.00</ele>
        <time>2016-10-22T06:38:33Z</time>
      </trkpt>
      <trkpt lat="42.464427000" lon="-2.561786000">
        <ele>433.00</ele>
        <time>2016-10-22T06:38:34Z</time>
      </trkpt>
      <trkpt lat="42.464386000" lon="-2.561803000">
        <ele>433.00</ele>
        <time>2016-10-22T06:38:35Z</time>
      </trkpt>
      <trkpt lat="42.464346000" lon="-2.561820000">
        <ele>432.90</ele>
        <time>2016-10-22T06:38:36Z</time>
      </trkpt>
      <trkpt lat="42.464305000" lon="-2.561830000">
        <ele>433.10</ele>
        <time>2016-10-22T06:38:37Z</time>
      </trkpt>
      <trkpt lat="42.464263000" lon="-2.561839000">
        <ele>433.10</ele>
        <time>2016-10-22T06:38:38Z</time>
      </trkpt>
      <trkpt lat="42.464226000" lon="-2.561847000">
        <ele>433.30</ele>
        <time>2016-10-22T06:38:39Z</time>
      </trkpt>
      <trkpt lat="42.464192000" lon="-2.561855000">
        <ele>433.30</ele>
        <time>2016-10-22T06:38:40Z</time>
      </trkpt>
      <trkpt lat="42.464154000" lon="-2.561860000">
        <ele>433.40</ele>
        <time>2016-10-22T06:38:41Z</time>
      </trkpt>
      <trkpt lat="42.464120000" lon="-2.561868000">
        <ele>433.40</ele>
        <time>2016-10-22T06:38:42Z</time>
      </trkpt>
      <trkpt lat="42.464086000" lon="-2.561877000">
        <ele>433.40</ele>
        <time>2016-10-22T06:38:43Z</time>
      </trkpt>
      <trkpt lat="42.464048000" lon="-2.561884000">
        <ele>433.40</ele>
        <time>2016-10-22T06:38:44Z</time>
      </trkpt>
      <trkpt lat="42.464009000" lon="-2.561882000">
        <ele>433.20</ele>
        <time>2016-10-22T06:38:45Z</time>
      </trkpt>
      <trkpt lat="42.463976000" lon="-2.561860000">
        <ele>433.10</ele>
        <time>2016-10-22T06:38:46Z</time>
      </trkpt>
      <trkpt lat="42.463951000" lon="-2.561837000">
        <ele>433.20</ele>
        <time>2016-10-22T06:38:47Z</time>
      </trkpt>
      <trkpt lat="42.463929000" lon="-2.561802000">
        <ele>433.20</ele>
        <time>2016-10-22T06:38:48Z</time>
      </trkpt>
      <trkpt lat="42.463916000" lon="-2.561759000">
        <ele>433.40</ele>
        <time>2016-10-22T06:38:49Z</time>
      </trkpt>
      <trkpt lat="42.463904000" lon="-2.561717000">
        <ele>433.50</ele>
        <time>2016-10-22T06:38:50Z</time>
      </trkpt>
      <trkpt lat="42.463892000" lon="-2.561672000">
        <ele>433.60</ele>
        <time>2016-10-22T06:38:51Z</time>
      </trkpt>
      <trkpt lat="42.463883000" lon="-2.561631000">
        <ele>433.60</ele>
        <time>2016-10-22T06:38:52Z</time>
      </trkpt>
      <trkpt lat="42.463873000" lon="-2.561603000">
        <ele>433.80</ele>
        <time>2016-10-22T06:38:53Z</time>
      </trkpt>
      <trkpt lat="42.463858000" lon="-2.561591000">
        <ele>434.00</ele>
        <time>2016-10-22T06:38:54Z</time>
      </trkpt>
      <trkpt lat="42.463845000" lon="-2.561602000">
        <ele>434.10</ele>
        <time>2016-10-22T06:38:55Z</time>
      </trkpt>
      <trkpt lat="42.463831000" lon="-2.561612000">
        <ele>434.10</ele>
        <time>2016-10-22T06:38:56Z</time>
      </trkpt>
      <trkpt lat="42.463814000" lon="-2.561611000">
        <ele>434.10</ele>
        <time>2016-10-22T06:38:57Z</time>
      </trkpt>
      <trkpt lat="42.463798000" lon="-2.561601000">
        <ele>434.00</ele>
        <time>2016-10-22T06:38:58Z</time>
      </trkpt>
      <trkpt lat="42.463779000" lon="-2.561593000">
        <ele>433.80</ele>
        <time>2016-10-22T06:38:59Z</time>
      </trkpt>
      <trkpt lat="42.463763000" lon="-2.561583000">
        <ele>433.60</ele>
        <time>2016-10-22T06:39:00Z</time>
      </trkpt>
      <trkpt lat="42.463759000" lon="-2.561575000">
        <ele>433.50</ele>
        <time>2016-10-22T06:39:01Z</time>
      </trkpt>
      <trkpt lat="42.463748000" lon="-2.561574000">
        <ele>433.20</ele>
        <time>2016-10-22T06:39:03Z</time>
      </trkpt>
      <trkpt lat="42.463746000" lon="-2.561575000">
        <ele>433.10</ele>
        <time>2016-10-22T06:39:04Z</time>
      </trkpt>
      <trkpt lat="42.463746000" lon="-2.561575000">
        <ele>433.00</ele>
        <time>2016-10-22T06:39:05Z</time>
      </trkpt>
      <trkpt lat="42.463746000" lon="-2.561575000">
        <ele>432.90</ele>
        <time>2016-10-22T06:39:06Z</time>
      </trkpt>
      <trkpt lat="42.463746000" lon="-2.561575000">
        <ele>432.80</ele>
        <time>2016-10-22T06:39:07Z</time>
      </trkpt>
      <trkpt lat="42.463746000" lon="-2.561575000">
        <ele>432.80</ele>
        <time>2016-10-22T06:39:08Z</time>
      </trkpt>
      <trkpt lat="42.463746000" lon="-2.561575000">
        <ele>432.70</ele>
        <time>2016-10-22T06:39:09Z</time>
      </trkpt>
      <trkpt lat="42.463746000" lon="-2.561575000">
        <ele>432.70</ele>
        <time>2016-10-22T06:39:10Z</time>
      </trkpt>
      <trkpt lat="42.463746000" lon="-2.561575000">
        <ele>432.70</ele>
        <time>2016-10-22T06:39:11Z</time>
      </trkpt>
      <trkpt lat="42.463746000" lon="-2.561575000">
        <ele>432.70</ele>
        <time>2016-10-22T06:39:12Z</time>
      </trkpt>
      <trkpt lat="42.463746000" lon="-2.561575000">
        <ele>432.70</ele>
        <time>2016-10-22T06:39:13Z</time>
      </trkpt>
      <trkpt lat="42.463746000" lon="-2.561575000">
        <ele>432.60</ele>
        <time>2016-10-22T06:39:14Z</time>
      </trkpt>
      <trkpt lat="42.463746000" lon="-2.561575000">
        <ele>432.60</ele>
        <time>2016-10-22T06:39:15Z</time>
      </trkpt>
      <trkpt lat="42.463746000" lon="-2.561575000">
        <ele>432.60</ele>
        <time>2016-10-22T06:39:16Z</time>
      </trkpt>
      <trkpt lat="42.463746000" lon="-2.561575000">
        <ele>432.60</ele>
        <time>2016-10-22T06:39:17Z</time>
      </trkpt>
      <trkpt lat="42.463746000" lon="-2.561575000">
        <ele>432.60</ele>
        <time>2016-10-22T06:39:18Z</time>
      </trkpt>
      <trkpt lat="42.463746000" lon="-2.561575000">
        <ele>432.80</ele>
        <time>2016-10-22T06:39:19Z</time>
      </trkpt>
      <trkpt lat="42.463746000" lon="-2.561575000">
        <ele>433.00</ele>
        <time>2016-10-22T06:39:20Z</time>
      </trkpt>
      <trkpt lat="42.463746000" lon="-2.561575000">
        <ele>433.10</ele>
        <time>2016-10-22T06:39:21Z</time>
      </trkpt>
      <trkpt lat="42.463746000" lon="-2.561575000">
        <ele>433.20</ele>
        <time>2016-10-22T06:39:22Z</time>
      </trkpt>
      <trkpt lat="42.463746000" lon="-2.561575000">
        <ele>433.20</ele>
        <time>2016-10-22T06:39:23Z</time>
      </trkpt>
      <trkpt lat="42.463746000" lon="-2.561575000">
        <ele>433.20</ele>
        <time>2016-10-22T06:39:24Z</time>
      </trkpt>
      <trkpt lat="42.463746000" lon="-2.561575000">
        <ele>433.10</ele>
        <time>2016-10-22T06:39:25Z</time>
      </trkpt>
      <trkpt lat="42.463746000" lon="-2.561575000">
        <ele>433.00</ele>
        <time>2016-10-22T06:39:26Z</time>
      </trkpt>
      <trkpt lat="42.463746000" lon="-2.561575000">
        <ele>433.10</ele>
        <time>2016-10-22T06:39:27Z</time>
      </trkpt>
      <trkpt lat="42.463746000" lon="-2.561575000">
        <ele>433.10</ele>
        <time>2016-10-22T06:39:28Z</time>
      </trkpt>
      <trkpt lat="42.463746000" lon="-2.561575000">
        <ele>433.00</ele>
        <time>2016-10-22T06:39:29Z</time>
      </trkpt>
      <trkpt lat="42.463746000" lon="-2.561575000">
        <ele>433.00</ele>
        <time>2016-10-22T06:39:30Z</time>
      </trkpt>
      <trkpt lat="42.463746000" lon="-2.561575000">
        <ele>433.00</ele>
        <time>2016-10-22T06:39:31Z</time>
      </trkpt>
      <trkpt lat="42.463746000" lon="-2.561575000">
        <ele>433.00</ele>
        <time>2016-10-22T06:39:32Z</time>
      </trkpt>
      <trkpt lat="42.463746000" lon="-2.561575000">
        <ele>433.00</ele>
        <time>2016-10-22T06:39:33Z</time>
      </trkpt>
      <trkpt lat="42.463746000" lon="-2.561575000">
        <ele>433.00</ele>
        <time>2016-10-22T06:39:34Z</time>
      </trkpt>
      <trkpt lat="42.463746000" lon="-2.561575000">
        <ele>433.00</ele>
        <time>2016-10-22T06:39:35Z</time>
      </trkpt>
      <trkpt lat="42.463746000" lon="-2.561575000">
        <ele>433.10</ele>
        <time>2016-10-22T06:39:36Z</time>
      </trkpt>
      <trkpt lat="42.463746000" lon="-2.561575000">
        <ele>433.10</ele>
        <time>2016-10-22T06:39:37Z</time>
      </trkpt>
      <trkpt lat="42.463746000" lon="-2.561575000">
        <ele>433.10</ele>
        <time>2016-10-22T06:39:38Z</time>
      </trkpt>
      <trkpt lat="42.463746000" lon="-2.561575000">
        <ele>433.00</ele>
        <time>2016-10-22T06:39:39Z</time>
      </trkpt>
      <trkpt lat="42.463746000" lon="-2.561575000">
        <ele>433.00</ele>
        <time>2016-10-22T06:39:40Z</time>
      </trkpt>
      <trkpt lat="42.463746000" lon="-2.561575000">
        <ele>432.90</ele>
        <time>2016-10-22T06:39:41Z</time>
      </trkpt>
      <trkpt lat="42.463746000" lon="-2.561575000">
        <ele>432.80</ele>
        <time>2016-10-22T06:39:42Z</time>
      </trkpt>
      <trkpt lat="42.463722000" lon="-2.561583000">
        <ele>432.90</ele>
        <time>2016-10-22T06:39:43Z</time>
      </trkpt>
      <trkpt lat="42.463701000" lon="-2.561589000">
        <ele>433.00</ele>
        <time>2016-10-22T06:39:44Z</time>
      </trkpt>
      <trkpt lat="42.463686000" lon="-2.561596000">
        <ele>433.10</ele>
        <time>2016-10-22T06:39:45Z</time>
      </trkpt>
      <trkpt lat="42.463685000" lon="-2.561616000">
        <ele>433.10</ele>
        <time>2016-10-22T06:39:46Z</time>
      </trkpt>
      <trkpt lat="42.463688000" lon="-2.561636000">
        <ele>433.10</ele>
        <time>2016-10-22T06:39:47Z</time>
      </trkpt>
      <trkpt lat="42.463690000" lon="-2.561658000">
        <ele>433.20</ele>
        <time>2016-10-22T06:39:48Z</time>
      </trkpt>
      <trkpt lat="42.463694000" lon="-2.561683000">
        <ele>433.10</ele>
        <time>2016-10-22T06:39:49Z</time>
      </trkpt>
      <trkpt lat="42.463699000" lon="-2.561705000">
        <ele>433.10</ele>
        <time>2016-10-22T06:39:50Z</time>
      </trkpt>
      <trkpt lat="42.463703000" lon="-2.561728000">
        <ele>433.00</ele>
        <time>2016-10-22T06:39:51Z</time>
      </trkpt>
      <trkpt lat="42.463706000" lon="-2.561752000">
        <ele>433.00</ele>
        <time>2016-10-22T06:39:52Z</time>
      </trkpt>
      <trkpt lat="42.463710000" lon="-2.561774000">
        <ele>433.00</ele>
        <time>2016-10-22T06:39:53Z</time>
      </trkpt>
      <trkpt lat="42.463714000" lon="-2.561800000">
        <ele>433.00</ele>
        <time>2016-10-22T06:39:54Z</time>
      </trkpt>
      <trkpt lat="42.463718000" lon="-2.561825000">
        <ele>433.00</ele>
        <time>2016-10-22T06:39:55Z</time>
      </trkpt>
      <trkpt lat="42.463726000" lon="-2.561848000">
        <ele>433.00</ele>
        <time>2016-10-22T06:39:56Z</time>
      </trkpt>
      <trkpt lat="42.463729000" lon="-2.561870000">
        <ele>433.10</ele>
        <time>2016-10-22T06:39:57Z</time>
      </trkpt>
      <trkpt lat="42.463721000" lon="-2.561889000">
        <ele>433.20</ele>
        <time>2016-10-22T06:39:58Z</time>
      </trkpt>
      <trkpt lat="42.463702000" lon="-2.561902000">
        <ele>433.20</ele>
        <time>2016-10-22T06:39:59Z</time>
      </trkpt>
      <trkpt lat="42.463685000" lon="-2.561907000">
        <ele>433.20</ele>
        <time>2016-10-22T06:40:00Z</time>
      </trkpt>
      <trkpt lat="42.463670000" lon="-2.561907000">
        <ele>433.20</ele>
        <time>2016-10-22T06:40:01Z</time>
      </trkpt>
      <trkpt lat="42.463664000" lon="-2.561900000">
        <ele>433.30</ele>
        <time>2016-10-22T06:40:02Z</time>
      </trkpt>
      <trkpt lat="42.463664000" lon="-2.561900000">
        <ele>433.10</ele>
        <time>2016-10-22T06:40:04Z</time>
      </trkpt>
      <trkpt lat="42.463664000" lon="-2.561900000">
        <ele>433.00</ele>
        <time>2016-10-22T06:40:05Z</time>
      </trkpt>
      <trkpt lat="42.463664000" lon="-2.561900000">
        <ele>432.90</ele>
        <time>2016-10-22T06:40:06Z</time>
      </trkpt>
      <trkpt lat="42.463639000" lon="-2.561887000">
        <ele>433.00</ele>
        <time>2016-10-22T06:40:07Z</time>
      </trkpt>
      <trkpt lat="42.463614000" lon="-2.561879000">
        <ele>433.00</ele>
        <time>2016-10-22T06:40:08Z</time>
      </trkpt>
      <trkpt lat="42.463593000" lon="-2.561868000">
        <ele>433.00</ele>
        <time>2016-10-22T06:40:09Z</time>
      </trkpt>
      <trkpt lat="42.463570000" lon="-2.561857000">
        <ele>433.00</ele>
        <time>2016-10-22T06:40:10Z</time>
      </trkpt>
      <trkpt lat="42.463546000" lon="-2.561849000">
        <ele>433.00</ele>
        <time>2016-10-22T06:40:11Z</time>
      </trkpt>
      <trkpt lat="42.463516000" lon="-2.561838000">
        <ele>433.00</ele>
        <time>2016-10-22T06:40:12Z</time>
      </trkpt>
      <trkpt lat="42.463485000" lon="-2.561831000">
        <ele>433.00</ele>
        <time>2016-10-22T06:40:13Z</time>
      </trkpt>
      <trkpt lat="42.463455000" lon="-2.561824000">
        <ele>433.00</ele>
        <time>2016-10-22T06:40:14Z</time>
      </trkpt>
      <trkpt lat="42.463423000" lon="-2.561819000">
        <ele>432.90</ele>
        <time>2016-10-22T06:40:15Z</time>
      </trkpt>
      <trkpt lat="42.463391000" lon="-2.561813000">
        <ele>432.90</ele>
        <time>2016-10-22T06:40:16Z</time>
      </trkpt>
      <trkpt lat="42.463358000" lon="-2.561809000">
        <ele>433.00</ele>
        <time>2016-10-22T06:40:17Z</time>
      </trkpt>
      <trkpt lat="42.463326000" lon="-2.561807000">
        <ele>433.00</ele>
        <time>2016-10-22T06:40:18Z</time>
      </trkpt>
      <trkpt lat="42.463295000" lon="-2.561811000">
        <ele>433.20</ele>
        <time>2016-10-22T06:40:19Z</time>
      </trkpt>
      <trkpt lat="42.463263000" lon="-2.561815000">
        <ele>433.30</ele>
        <time>2016-10-22T06:40:20Z</time>
      </trkpt>
      <trkpt lat="42.463232000" lon="-2.561819000">
        <ele>433.50</ele>
        <time>2016-10-22T06:40:21Z</time>
      </trkpt>
      <trkpt lat="42.463198000" lon="-2.561825000">
        <ele>433.60</ele>
        <time>2016-10-22T06:40:22Z</time>
      </trkpt>
      <trkpt lat="42.463164000" lon="-2.561831000">
        <ele>433.70</ele>
        <time>2016-10-22T06:40:23Z</time>
      </trkpt>
      <trkpt lat="42.463131000" lon="-2.561841000">
        <ele>433.70</ele>
        <time>2016-10-22T06:40:24Z</time>
      </trkpt>
      <trkpt lat="42.463098000" lon="-2.561855000">
        <ele>433.80</ele>
        <time>2016-10-22T06:40:25Z</time>
      </trkpt>
      <trkpt lat="42.463066000" lon="-2.561866000">
        <ele>433.80</ele>
        <time>2016-10-22T06:40:26Z</time>
      </trkpt>
      <trkpt lat="42.463037000" lon="-2.561885000">
        <ele>433.60</ele>
        <time>2016-10-22T06:40:27Z</time>
      </trkpt>
      <trkpt lat="42.463008000" lon="-2.561901000">
        <ele>433.40</ele>
        <time>2016-10-22T06:40:28Z</time>
      </trkpt>
      <trkpt lat="42.462977000" lon="-2.561919000">
        <ele>433.30</ele>
        <time>2016-10-22T06:40:29Z</time>
      </trkpt>
      <trkpt lat="42.462945000" lon="-2.561939000">
        <ele>433.20</ele>
        <time>2016-10-22T06:40:30Z</time>
      </trkpt>
      <trkpt lat="42.462913000" lon="-2.561955000">
        <ele>433.10</ele>
        <time>2016-10-22T06:40:31Z</time>
      </trkpt>
      <trkpt lat="42.462880000" lon="-2.561963000">
        <ele>433.00</ele>
        <time>2016-10-22T06:40:32Z</time>
      </trkpt>
      <trkpt lat="42.462849000" lon="-2.561978000">
        <ele>433.10</ele>
        <time>2016-10-22T06:40:33Z</time>
      </trkpt>
      <trkpt lat="42.462823000" lon="-2.561992000">
        <ele>433.20</ele>
        <time>2016-10-22T06:40:34Z</time>
      </trkpt>
      <trkpt lat="42.462793000" lon="-2.562004000">
        <ele>433.40</ele>
        <time>2016-10-22T06:40:35Z</time>
      </trkpt>
      <trkpt lat="42.462764000" lon="-2.562018000">
        <ele>433.50</ele>
        <time>2016-10-22T06:40:36Z</time>
      </trkpt>
      <trkpt lat="42.462735000" lon="-2.562034000">
        <ele>433.60</ele>
        <time>2016-10-22T06:40:37Z</time>
      </trkpt>
      <trkpt lat="42.462700000" lon="-2.562047000">
        <ele>433.70</ele>
        <time>2016-10-22T06:40:38Z</time>
      </trkpt>
      <trkpt lat="42.462667000" lon="-2.562058000">
        <ele>433.80</ele>
        <time>2016-10-22T06:40:39Z</time>
      </trkpt>
      <trkpt lat="42.462634000" lon="-2.562067000">
        <ele>433.80</ele>
        <time>2016-10-22T06:40:40Z</time>
      </trkpt>
      <trkpt lat="42.462600000" lon="-2.562079000">
        <ele>433.80</ele>
        <time>2016-10-22T06:40:41Z</time>
      </trkpt>
      <trkpt lat="42.462571000" lon="-2.562089000">
        <ele>433.70</ele>
        <time>2016-10-22T06:40:42Z</time>
      </trkpt>
      <trkpt lat="42.462542000" lon="-2.562102000">
        <ele>433.70</ele>
        <time>2016-10-22T06:40:43Z</time>
      </trkpt>
      <trkpt lat="42.462511000" lon="-2.562111000">
        <ele>433.70</ele>
        <time>2016-10-22T06:40:44Z</time>
      </trkpt>
      <trkpt lat="42.462478000" lon="-2.562124000">
        <ele>433.70</ele>
        <time>2016-10-22T06:40:45Z</time>
      </trkpt>
      <trkpt lat="42.462445000" lon="-2.562136000">
        <ele>433.70</ele>
        <time>2016-10-22T06:40:46Z</time>
      </trkpt>
      <trkpt lat="42.462414000" lon="-2.562149000">
        <ele>433.70</ele>
        <time>2016-10-22T06:40:47Z</time>
      </trkpt>
      <trkpt lat="42.462384000" lon="-2.562168000">
        <ele>433.70</ele>
        <time>2016-10-22T06:40:48Z</time>
      </trkpt>
      <trkpt lat="42.462354000" lon="-2.562182000">
        <ele>433.70</ele>
        <time>2016-10-22T06:40:49Z</time>
      </trkpt>
      <trkpt lat="42.462321000" lon="-2.562192000">
        <ele>433.80</ele>
        <time>2016-10-22T06:40:50Z</time>
      </trkpt>
      <trkpt lat="42.462290000" lon="-2.562206000">
        <ele>433.80</ele>
        <time>2016-10-22T06:40:51Z</time>
      </trkpt>
      <trkpt lat="42.462258000" lon="-2.562213000">
        <ele>433.80</ele>
        <time>2016-10-22T06:40:52Z</time>
      </trkpt>
      <trkpt lat="42.462228000" lon="-2.562221000">
        <ele>433.90</ele>
        <time>2016-10-22T06:40:53Z</time>
      </trkpt>
      <trkpt lat="42.462195000" lon="-2.562229000">
        <ele>433.90</ele>
        <time>2016-10-22T06:40:54Z</time>
      </trkpt>
      <trkpt lat="42.462159000" lon="-2.562239000">
        <ele>433.90</ele>
        <time>2016-10-22T06:40:55Z</time>
      </trkpt>
      <trkpt lat="42.462125000" lon="-2.562249000">
        <ele>433.90</ele>
        <time>2016-10-22T06:40:56Z</time>
      </trkpt>
      <trkpt lat="42.462088000" lon="-2.562257000">
        <ele>433.90</ele>
        <time>2016-10-22T06:40:57Z</time>
      </trkpt>
      <trkpt lat="42.462054000" lon="-2.562264000">
        <ele>433.90</ele>
        <time>2016-10-22T06:40:58Z</time>
      </trkpt>
      <trkpt lat="42.462023000" lon="-2.562275000">
        <ele>434.00</ele>
        <time>2016-10-22T06:40:59Z</time>
      </trkpt>
      <trkpt lat="42.461988000" lon="-2.562284000">
        <ele>434.00</ele>
        <time>2016-10-22T06:41:00Z</time>
      </trkpt>
      <trkpt lat="42.461954000" lon="-2.562289000">
        <ele>434.10</ele>
        <time>2016-10-22T06:41:01Z</time>
      </trkpt>
      <trkpt lat="42.461920000" lon="-2.562289000">
        <ele>434.20</ele>
        <time>2016-10-22T06:41:02Z</time>
      </trkpt>
      <trkpt lat="42.461885000" lon="-2.562288000">
        <ele>434.30</ele>
        <time>2016-10-22T06:41:03Z</time>
      </trkpt>
      <trkpt lat="42.461821000" lon="-2.562297000">
        <ele>434.40</ele>
        <time>2016-10-22T06:41:05Z</time>
      </trkpt>
      <trkpt lat="42.461789000" lon="-2.562301000">
        <ele>434.50</ele>
        <time>2016-10-22T06:41:06Z</time>
      </trkpt>
      <trkpt lat="42.461752000" lon="-2.562300000">
        <ele>434.50</ele>
        <time>2016-10-22T06:41:07Z</time>
      </trkpt>
      <trkpt lat="42.461717000" lon="-2.562303000">
        <ele>434.60</ele>
        <time>2016-10-22T06:41:08Z</time>
      </trkpt>
      <trkpt lat="42.461682000" lon="-2.562305000">
        <ele>434.70</ele>
        <time>2016-10-22T06:41:09Z</time>
      </trkpt>
      <trkpt lat="42.461648000" lon="-2.562305000">
        <ele>434.80</ele>
        <time>2016-10-22T06:41:10Z</time>
      </trkpt>
      <trkpt lat="42.461616000" lon="-2.562305000">
        <ele>434.80</ele>
        <time>2016-10-22T06:41:11Z</time>
      </trkpt>
      <trkpt lat="42.461580000" lon="-2.562306000">
        <ele>434.80</ele>
        <time>2016-10-22T06:41:12Z</time>
      </trkpt>
      <trkpt lat="42.461545000" lon="-2.562304000">
        <ele>434.80</ele>
        <time>2016-10-22T06:41:13Z</time>
      </trkpt>
      <trkpt lat="42.461511000" lon="-2.562303000">
        <ele>434.80</ele>
        <time>2016-10-22T06:41:14Z</time>
      </trkpt>
      <trkpt lat="42.461475000" lon="-2.562304000">
        <ele>434.80</ele>
        <time>2016-10-22T06:41:15Z</time>
      </trkpt>
      <trkpt lat="42.461440000" lon="-2.562305000">
        <ele>434.80</ele>
        <time>2016-10-22T06:41:16Z</time>
      </trkpt>
      <trkpt lat="42.461405000" lon="-2.562309000">
        <ele>434.80</ele>
        <time>2016-10-22T06:41:17Z</time>
      </trkpt>
      <trkpt lat="42.461371000" lon="-2.562313000">
        <ele>434.70</ele>
        <time>2016-10-22T06:41:18Z</time>
      </trkpt>
      <trkpt lat="42.461334000" lon="-2.562317000">
        <ele>434.80</ele>
        <time>2016-10-22T06:41:19Z</time>
      </trkpt>
      <trkpt lat="42.461298000" lon="-2.562317000">
        <ele>434.80</ele>
        <time>2016-10-22T06:41:20Z</time>
      </trkpt>
      <trkpt lat="42.461264000" lon="-2.562321000">
        <ele>434.90</ele>
        <time>2016-10-22T06:41:21Z</time>
      </trkpt>
      <trkpt lat="42.461228000" lon="-2.562323000">
        <ele>435.10</ele>
        <time>2016-10-22T06:41:22Z</time>
      </trkpt>
      <trkpt lat="42.461192000" lon="-2.562331000">
        <ele>435.20</ele>
        <time>2016-10-22T06:41:23Z</time>
      </trkpt>
      <trkpt lat="42.461157000" lon="-2.562338000">
        <ele>435.30</ele>
        <time>2016-10-22T06:41:24Z</time>
      </trkpt>
      <trkpt lat="42.461123000" lon="-2.562342000">
        <ele>435.60</ele>
        <time>2016-10-22T06:41:25Z</time>
      </trkpt>
      <trkpt lat="42.461090000" lon="-2.562350000">
        <ele>435.80</ele>
        <time>2016-10-22T06:41:26Z</time>
      </trkpt>
      <trkpt lat="42.461054000" lon="-2.562357000">
        <ele>436.00</ele>
        <time>2016-10-22T06:41:27Z</time>
      </trkpt>
      <trkpt lat="42.461018000" lon="-2.562365000">
        <ele>436.10</ele>
        <time>2016-10-22T06:41:28Z</time>
      </trkpt>
      <trkpt lat="42.460983000" lon="-2.562375000">
        <ele>436.10</ele>
        <time>2016-10-22T06:41:29Z</time>
      </trkpt>
      <trkpt lat="42.460948000" lon="-2.562382000">
        <ele>436.10</ele>
        <time>2016-10-22T06:41:30Z</time>
      </trkpt>
      <trkpt lat="42.460913000" lon="-2.562388000">
        <ele>436.10</ele>
        <time>2016-10-22T06:41:31Z</time>
      </trkpt>
      <trkpt lat="42.460879000" lon="-2.562395000">
        <ele>436.10</ele>
        <time>2016-10-22T06:41:32Z</time>
      </trkpt>
      <trkpt lat="42.460842000" lon="-2.562399000">
        <ele>436.00</ele>
        <time>2016-10-22T06:41:33Z</time>
      </trkpt>
      <trkpt lat="42.460803000" lon="-2.562402000">
        <ele>436.00</ele>
        <time>2016-10-22T06:41:34Z</time>
      </trkpt>
      <trkpt lat="42.460765000" lon="-2.562406000">
        <ele>436.20</ele>
        <time>2016-10-22T06:41:35Z</time>
      </trkpt>
      <trkpt lat="42.460728000" lon="-2.562410000">
        <ele>436.30</ele>
        <time>2016-10-22T06:41:36Z</time>
      </trkpt>
      <trkpt lat="42.460692000" lon="-2.562415000">
        <ele>436.20</ele>
        <time>2016-10-22T06:41:37Z</time>
      </trkpt>
      <trkpt lat="42.460658000" lon="-2.562426000">
        <ele>436.20</ele>
        <time>2016-10-22T06:41:38Z</time>
      </trkpt>
      <trkpt lat="42.460622000" lon="-2.562438000">
        <ele>436.10</ele>
        <time>2016-10-22T06:41:39Z</time>
      </trkpt>
      <trkpt lat="42.460593000" lon="-2.562447000">
        <ele>436.10</ele>
        <time>2016-10-22T06:41:40Z</time>
      </trkpt>
      <trkpt lat="42.460558000" lon="-2.562456000">
        <ele>436.10</ele>
        <time>2016-10-22T06:41:41Z</time>
      </trkpt>
      <trkpt lat="42.460524000" lon="-2.562473000">
        <ele>436.10</ele>
        <time>2016-10-22T06:41:42Z</time>
      </trkpt>
      <trkpt lat="42.460490000" lon="-2.562487000">
        <ele>436.30</ele>
        <time>2016-10-22T06:41:43Z</time>
      </trkpt>
      <trkpt lat="42.460457000" lon="-2.562498000">
        <ele>436.50</ele>
        <time>2016-10-22T06:41:44Z</time>
      </trkpt>
      <trkpt lat="42.460423000" lon="-2.562502000">
        <ele>436.70</ele>
        <time>2016-10-22T06:41:45Z</time>
      </trkpt>
      <trkpt lat="42.460386000" lon="-2.562506000">
        <ele>436.80</ele>
        <time>2016-10-22T06:41:46Z</time>
      </trkpt>
      <trkpt lat="42.460348000" lon="-2.562508000">
        <ele>436.80</ele>
        <time>2016-10-22T06:41:47Z</time>
      </trkpt>
      <trkpt lat="42.460310000" lon="-2.562508000">
        <ele>436.70</ele>
        <time>2016-10-22T06:41:48Z</time>
      </trkpt>
      <trkpt lat="42.460273000" lon="-2.562515000">
        <ele>436.70</ele>
        <time>2016-10-22T06:41:49Z</time>
      </trkpt>
      <trkpt lat="42.460236000" lon="-2.562527000">
        <ele>436.70</ele>
        <time>2016-10-22T06:41:50Z</time>
      </trkpt>
      <trkpt lat="42.460199000" lon="-2.562542000">
        <ele>436.90</ele>
        <time>2016-10-22T06:41:51Z</time>
      </trkpt>
      <trkpt lat="42.460165000" lon="-2.562558000">
        <ele>437.00</ele>
        <time>2016-10-22T06:41:52Z</time>
      </trkpt>
      <trkpt lat="42.460131000" lon="-2.562572000">
        <ele>437.10</ele>
        <time>2016-10-22T06:41:53Z</time>
      </trkpt>
      <trkpt lat="42.460098000" lon="-2.562588000">
        <ele>437.20</ele>
        <time>2016-10-22T06:41:54Z</time>
      </trkpt>
      <trkpt lat="42.460065000" lon="-2.562600000">
        <ele>437.30</ele>
        <time>2016-10-22T06:41:55Z</time>
      </trkpt>
      <trkpt lat="42.460030000" lon="-2.562612000">
        <ele>437.40</ele>
        <time>2016-10-22T06:41:56Z</time>
      </trkpt>
      <trkpt lat="42.459996000" lon="-2.562629000">
        <ele>437.50</ele>
        <time>2016-10-22T06:41:57Z</time>
      </trkpt>
      <trkpt lat="42.459964000" lon="-2.562649000">
        <ele>437.50</ele>
        <time>2016-10-22T06:41:58Z</time>
      </trkpt>
      <trkpt lat="42.459928000" lon="-2.562663000">
        <ele>437.60</ele>
        <time>2016-10-22T06:41:59Z</time>
      </trkpt>
      <trkpt lat="42.459889000" lon="-2.562679000">
        <ele>437.60</ele>
        <time>2016-10-22T06:42:00Z</time>
      </trkpt>
      <trkpt lat="42.459852000" lon="-2.562697000">
        <ele>437.50</ele>
        <time>2016-10-22T06:42:01Z</time>
      </trkpt>
      <trkpt lat="42.459814000" lon="-2.562710000">
        <ele>437.50</ele>
        <time>2016-10-22T06:42:02Z</time>
      </trkpt>
      <trkpt lat="42.459774000" lon="-2.562721000">
        <ele>437.50</ele>
        <time>2016-10-22T06:42:03Z</time>
      </trkpt>
      <trkpt lat="42.459737000" lon="-2.562733000">
        <ele>437.50</ele>
        <time>2016-10-22T06:42:04Z</time>
      </trkpt>
      <trkpt lat="42.459666000" lon="-2.562753000">
        <ele>437.70</ele>
        <time>2016-10-22T06:42:06Z</time>
      </trkpt>
      <trkpt lat="42.459631000" lon="-2.562768000">
        <ele>437.70</ele>
        <time>2016-10-22T06:42:07Z</time>
      </trkpt>
      <trkpt lat="42.459598000" lon="-2.562787000">
        <ele>437.80</ele>
        <time>2016-10-22T06:42:08Z</time>
      </trkpt>
      <trkpt lat="42.459564000" lon="-2.562807000">
        <ele>437.80</ele>
        <time>2016-10-22T06:42:09Z</time>
      </trkpt>
      <trkpt lat="42.459528000" lon="-2.562820000">
        <ele>437.90</ele>
        <time>2016-10-22T06:42:10Z</time>
      </trkpt>
      <trkpt lat="42.459491000" lon="-2.562833000">
        <ele>438.10</ele>
        <time>2016-10-22T06:42:11Z</time>
      </trkpt>
      <trkpt lat="42.459451000" lon="-2.562846000">
        <ele>438.20</ele>
        <time>2016-10-22T06:42:12Z</time>
      </trkpt>
      <trkpt lat="42.459416000" lon="-2.562861000">
        <ele>438.40</ele>
        <time>2016-10-22T06:42:13Z</time>
      </trkpt>
      <trkpt lat="42.459377000" lon="-2.562879000">
        <ele>438.40</ele>
        <time>2016-10-22T06:42:14Z</time>
      </trkpt>
      <trkpt lat="42.459341000" lon="-2.562896000">
        <ele>438.50</ele>
        <time>2016-10-22T06:42:15Z</time>
      </trkpt>
      <trkpt lat="42.459306000" lon="-2.562911000">
        <ele>438.60</ele>
        <time>2016-10-22T06:42:16Z</time>
      </trkpt>
      <trkpt lat="42.459270000" lon="-2.562927000">
        <ele>438.70</ele>
        <time>2016-10-22T06:42:17Z</time>
      </trkpt>
      <trkpt lat="42.459235000" lon="-2.562940000">
        <ele>438.90</ele>
        <time>2016-10-22T06:42:18Z</time>
      </trkpt>
      <trkpt lat="42.459199000" lon="-2.562955000">
        <ele>439.00</ele>
        <time>2016-10-22T06:42:19Z</time>
      </trkpt>
      <trkpt lat="42.459164000" lon="-2.562968000">
        <ele>439.00</ele>
        <time>2016-10-22T06:42:20Z</time>
      </trkpt>
      <trkpt lat="42.459129000" lon="-2.562981000">
        <ele>439.10</ele>
        <time>2016-10-22T06:42:21Z</time>
      </trkpt>
      <trkpt lat="42.459094000" lon="-2.562992000">
        <ele>439.20</ele>
        <time>2016-10-22T06:42:22Z</time>
      </trkpt>
      <trkpt lat="42.459057000" lon="-2.562998000">
        <ele>439.20</ele>
        <time>2016-10-22T06:42:23Z</time>
      </trkpt>
      <trkpt lat="42.459019000" lon="-2.563000000">
        <ele>439.20</ele>
        <time>2016-10-22T06:42:24Z</time>
      </trkpt>
      <trkpt lat="42.458982000" lon="-2.562996000">
        <ele>439.20</ele>
        <time>2016-10-22T06:42:25Z</time>
      </trkpt>
      <trkpt lat="42.458943000" lon="-2.562993000">
        <ele>439.20</ele>
        <time>2016-10-22T06:42:26Z</time>
      </trkpt>
      <trkpt lat="42.458904000" lon="-2.562987000">
        <ele>439.20</ele>
        <time>2016-10-22T06:42:27Z</time>
      </trkpt>
      <trkpt lat="42.458865000" lon="-2.562978000">
        <ele>439.20</ele>
        <time>2016-10-22T06:42:28Z</time>
      </trkpt>
      <trkpt lat="42.458830000" lon="-2.562968000">
        <ele>439.20</ele>
        <time>2016-10-22T06:42:29Z</time>
      </trkpt>
      <trkpt lat="42.458789000" lon="-2.562962000">
        <ele>439.20</ele>
        <time>2016-10-22T06:42:30Z</time>
      </trkpt>
      <trkpt lat="42.458751000" lon="-2.562956000">
        <ele>439.20</ele>
        <time>2016-10-22T06:42:31Z</time>
      </trkpt>
      <trkpt lat="42.458713000" lon="-2.562951000">
        <ele>439.10</ele>
        <time>2016-10-22T06:42:32Z</time>
      </trkpt>
      <trkpt lat="42.458678000" lon="-2.562942000">
        <ele>439.10</ele>
        <time>2016-10-22T06:42:33Z</time>
      </trkpt>
      <trkpt lat="42.458643000" lon="-2.562936000">
        <ele>439.10</ele>
        <time>2016-10-22T06:42:34Z</time>
      </trkpt>
      <trkpt lat="42.458606000" lon="-2.562928000">
        <ele>439.00</ele>
        <time>2016-10-22T06:42:35Z</time>
      </trkpt>
      <trkpt lat="42.458570000" lon="-2.562926000">
        <ele>439.00</ele>
        <time>2016-10-22T06:42:36Z</time>
      </trkpt>
      <trkpt lat="42.458534000" lon="-2.562922000">
        <ele>439.20</ele>
        <time>2016-10-22T06:42:37Z</time>
      </trkpt>
      <trkpt lat="42.458498000" lon="-2.562919000">
        <ele>439.30</ele>
        <time>2016-10-22T06:42:38Z</time>
      </trkpt>
      <trkpt lat="42.458461000" lon="-2.562914000">
        <ele>439.50</ele>
        <time>2016-10-22T06:42:39Z</time>
      </trkpt>
      <trkpt lat="42.458421000" lon="-2.562909000">
        <ele>439.50</ele>
        <time>2016-10-22T06:42:40Z</time>
      </trkpt>
      <trkpt lat="42.458385000" lon="-2.562907000">
        <ele>439.70</ele>
        <time>2016-10-22T06:42:41Z</time>
      </trkpt>
      <trkpt lat="42.458348000" lon="-2.562904000">
        <ele>439.70</ele>
        <time>2016-10-22T06:42:42Z</time>
      </trkpt>
      <trkpt lat="42.458312000" lon="-2.562905000">
        <ele>439.80</ele>
        <time>2016-10-22T06:42:43Z</time>
      </trkpt>
      <trkpt lat="42.458275000" lon="-2.562902000">
        <ele>439.90</ele>
        <time>2016-10-22T06:42:44Z</time>
      </trkpt>
      <trkpt lat="42.458240000" lon="-2.562903000">
        <ele>439.90</ele>
        <time>2016-10-22T06:42:45Z</time>
      </trkpt>
      <trkpt lat="42.458205000" lon="-2.562902000">
        <ele>439.90</ele>
        <time>2016-10-22T06:42:46Z</time>
      </trkpt>
      <trkpt lat="42.458168000" lon="-2.562903000">
        <ele>440.00</ele>
        <time>2016-10-22T06:42:47Z</time>
      </trkpt>
      <trkpt lat="42.458133000" lon="-2.562906000">
        <ele>440.00</ele>
        <time>2016-10-22T06:42:48Z</time>
      </trkpt>
      <trkpt lat="42.458097000" lon="-2.562914000">
        <ele>440.00</ele>
        <time>2016-10-22T06:42:49Z</time>
      </trkpt>
      <trkpt lat="42.458060000" lon="-2.562917000">
        <ele>440.00</ele>
        <time>2016-10-22T06:42:50Z</time>
      </trkpt>
      <trkpt lat="42.458020000" lon="-2.562918000">
        <ele>440.10</ele>
        <time>2016-10-22T06:42:51Z</time>
      </trkpt>
      <trkpt lat="42.457982000" lon="-2.562918000">
        <ele>440.20</ele>
        <time>2016-10-22T06:42:52Z</time>
      </trkpt>
      <trkpt lat="42.457944000" lon="-2.562918000">
        <ele>440.30</ele>
        <time>2016-10-22T06:42:53Z</time>
      </trkpt>
      <trkpt lat="42.457906000" lon="-2.562920000">
        <ele>440.30</ele>
        <time>2016-10-22T06:42:54Z</time>
      </trkpt>
      <trkpt lat="42.457872000" lon="-2.562923000">
        <ele>440.40</ele>
        <time>2016-10-22T06:42:55Z</time>
      </trkpt>
      <trkpt lat="42.457835000" lon="-2.562926000">
        <ele>440.40</ele>
        <time>2016-10-22T06:42:56Z</time>
      </trkpt>
      <trkpt lat="42.457796000" lon="-2.562925000">
        <ele>440.50</ele>
        <time>2016-10-22T06:42:57Z</time>
      </trkpt>
      <trkpt lat="42.457758000" lon="-2.562928000">
        <ele>440.50</ele>
        <time>2016-10-22T06:42:58Z</time>
      </trkpt>
      <trkpt lat="42.457724000" lon="-2.562930000">
        <ele>440.60</ele>
        <time>2016-10-22T06:42:59Z</time>
      </trkpt>
      <trkpt lat="42.457689000" lon="-2.562934000">
        <ele>440.60</ele>
        <time>2016-10-22T06:43:00Z</time>
      </trkpt>
      <trkpt lat="42.457651000" lon="-2.562942000">
        <ele>440.60</ele>
        <time>2016-10-22T06:43:01Z</time>
      </trkpt>
      <trkpt lat="42.457616000" lon="-2.562948000">
        <ele>440.70</ele>
        <time>2016-10-22T06:43:02Z</time>
      </trkpt>
      <trkpt lat="42.457579000" lon="-2.562957000">
        <ele>440.70</ele>
        <time>2016-10-22T06:43:03Z</time>
      </trkpt>
      <trkpt lat="42.457542000" lon="-2.562962000">
        <ele>440.70</ele>
        <time>2016-10-22T06:43:04Z</time>
      </trkpt>
      <trkpt lat="42.457502000" lon="-2.562964000">
        <ele>441.00</ele>
        <time>2016-10-22T06:43:05Z</time>
      </trkpt>
      <trkpt lat="42.457427000" lon="-2.562954000">
        <ele>441.50</ele>
        <time>2016-10-22T06:43:07Z</time>
      </trkpt>
      <trkpt lat="42.457387000" lon="-2.562947000">
        <ele>441.60</ele>
        <time>2016-10-22T06:43:08Z</time>
      </trkpt>
      <trkpt lat="42.457349000" lon="-2.562945000">
        <ele>441.60</ele>
        <time>2016-10-22T06:43:09Z</time>
      </trkpt>
      <trkpt lat="42.457309000" lon="-2.562941000">
        <ele>441.70</ele>
        <time>2016-10-22T06:43:10Z</time>
      </trkpt>
      <trkpt lat="42.457272000" lon="-2.562939000">
        <ele>441.60</ele>
        <time>2016-10-22T06:43:11Z</time>
      </trkpt>
      <trkpt lat="42.457233000" lon="-2.562940000">
        <ele>441.60</ele>
        <time>2016-10-22T06:43:12Z</time>
      </trkpt>
      <trkpt lat="42.457195000" lon="-2.562940000">
        <ele>441.60</ele>
        <time>2016-10-22T06:43:13Z</time>
      </trkpt>
      <trkpt lat="42.457156000" lon="-2.562942000">
        <ele>441.60</ele>
        <time>2016-10-22T06:43:14Z</time>
      </trkpt>
      <trkpt lat="42.457118000" lon="-2.562952000">
        <ele>441.50</ele>
        <time>2016-10-22T06:43:15Z</time>
      </trkpt>
      <trkpt lat="42.457080000" lon="-2.562958000">
        <ele>441.50</ele>
        <time>2016-10-22T06:43:16Z</time>
      </trkpt>
      <trkpt lat="42.457041000" lon="-2.562962000">
        <ele>441.50</ele>
        <time>2016-10-22T06:43:17Z</time>
      </trkpt>
      <trkpt lat="42.457000000" lon="-2.562963000">
        <ele>441.50</ele>
        <time>2016-10-22T06:43:18Z</time>
      </trkpt>
      <trkpt lat="42.456962000" lon="-2.562968000">
        <ele>441.60</ele>
        <time>2016-10-22T06:43:19Z</time>
      </trkpt>
      <trkpt lat="42.456922000" lon="-2.562972000">
        <ele>441.60</ele>
        <time>2016-10-22T06:43:20Z</time>
      </trkpt>
      <trkpt lat="42.456885000" lon="-2.562977000">
        <ele>441.70</ele>
        <time>2016-10-22T06:43:21Z</time>
      </trkpt>
      <trkpt lat="42.456846000" lon="-2.562981000">
        <ele>441.80</ele>
        <time>2016-10-22T06:43:22Z</time>
      </trkpt>
      <trkpt lat="42.456808000" lon="-2.562981000">
        <ele>441.90</ele>
        <time>2016-10-22T06:43:23Z</time>
      </trkpt>
      <trkpt lat="42.456769000" lon="-2.562985000">
        <ele>441.90</ele>
        <time>2016-10-22T06:43:24Z</time>
      </trkpt>
      <trkpt lat="42.456733000" lon="-2.562990000">
        <ele>441.90</ele>
        <time>2016-10-22T06:43:25Z</time>
      </trkpt>
      <trkpt lat="42.456695000" lon="-2.562995000">
        <ele>441.80</ele>
        <time>2016-10-22T06:43:26Z</time>
      </trkpt>
      <trkpt lat="42.456659000" lon="-2.562999000">
        <ele>441.80</ele>
        <time>2016-10-22T06:43:27Z</time>
      </trkpt>
      <trkpt lat="42.456624000" lon="-2.563004000">
        <ele>441.80</ele>
        <time>2016-10-22T06:43:28Z</time>
      </trkpt>
      <trkpt lat="42.456587000" lon="-2.563015000">
        <ele>441.90</ele>
        <time>2016-10-22T06:43:29Z</time>
      </trkpt>
      <trkpt lat="42.456550000" lon="-2.563027000">
        <ele>441.90</ele>
        <time>2016-10-22T06:43:30Z</time>
      </trkpt>
      <trkpt lat="42.456513000" lon="-2.563037000">
        <ele>442.00</ele>
        <time>2016-10-22T06:43:31Z</time>
      </trkpt>
      <trkpt lat="42.456475000" lon="-2.563046000">
        <ele>442.00</ele>
        <time>2016-10-22T06:43:32Z</time>
      </trkpt>
      <trkpt lat="42.456437000" lon="-2.563051000">
        <ele>442.10</ele>
        <time>2016-10-22T06:43:33Z</time>
      </trkpt>
      <trkpt lat="42.456399000" lon="-2.563062000">
        <ele>442.10</ele>
        <time>2016-10-22T06:43:34Z</time>
      </trkpt>
      <trkpt lat="42.456359000" lon="-2.563068000">
        <ele>442.10</ele>
        <time>2016-10-22T06:43:35Z</time>
      </trkpt>
      <trkpt lat="42.456319000" lon="-2.563075000">
        <ele>442.20</ele>
        <time>2016-10-22T06:43:36Z</time>
      </trkpt>
      <trkpt lat="42.456277000" lon="-2.563080000">
        <ele>442.30</ele>
        <time>2016-10-22T06:43:37Z</time>
      </trkpt>
      <trkpt lat="42.456234000" lon="-2.563085000">
        <ele>442.40</ele>
        <time>2016-10-22T06:43:38Z</time>
      </trkpt>
      <trkpt lat="42.456194000" lon="-2.563089000">
        <ele>442.60</ele>
        <time>2016-10-22T06:43:39Z</time>
      </trkpt>
      <trkpt lat="42.456152000" lon="-2.563089000">
        <ele>442.70</ele>
        <time>2016-10-22T06:43:40Z</time>
      </trkpt>
      <trkpt lat="42.456114000" lon="-2.563089000">
        <ele>442.80</ele>
        <time>2016-10-22T06:43:41Z</time>
      </trkpt>
      <trkpt lat="42.456074000" lon="-2.563088000">
        <ele>442.80</ele>
        <time>2016-10-22T06:43:42Z</time>
      </trkpt>
      <trkpt lat="42.456034000" lon="-2.563086000">
        <ele>442.90</ele>
        <time>2016-10-22T06:43:43Z</time>
      </trkpt>
      <trkpt lat="42.455993000" lon="-2.563083000">
        <ele>443.00</ele>
        <time>2016-10-22T06:43:44Z</time>
      </trkpt>
      <trkpt lat="42.455953000" lon="-2.563085000">
        <ele>443.00</ele>
        <time>2016-10-22T06:43:45Z</time>
      </trkpt>
      <trkpt lat="42.455915000" lon="-2.563086000">
        <ele>442.90</ele>
        <time>2016-10-22T06:43:46Z</time>
      </trkpt>
      <trkpt lat="42.455876000" lon="-2.563090000">
        <ele>442.90</ele>
        <time>2016-10-22T06:43:47Z</time>
      </trkpt>
      <trkpt lat="42.455839000" lon="-2.563088000">
        <ele>442.80</ele>
        <time>2016-10-22T06:43:48Z</time>
      </trkpt>
      <trkpt lat="42.455801000" lon="-2.563087000">
        <ele>442.80</ele>
        <time>2016-10-22T06:43:49Z</time>
      </trkpt>
      <trkpt lat="42.455763000" lon="-2.563090000">
        <ele>442.70</ele>
        <time>2016-10-22T06:43:50Z</time>
      </trkpt>
      <trkpt lat="42.455724000" lon="-2.563092000">
        <ele>442.80</ele>
        <time>2016-10-22T06:43:51Z</time>
      </trkpt>
      <trkpt lat="42.455686000" lon="-2.563092000">
        <ele>442.90</ele>
        <time>2016-10-22T06:43:52Z</time>
      </trkpt>
      <trkpt lat="42.455648000" lon="-2.563097000">
        <ele>443.00</ele>
        <time>2016-10-22T06:43:53Z</time>
      </trkpt>
      <trkpt lat="42.455608000" lon="-2.563104000">
        <ele>443.00</ele>
        <time>2016-10-22T06:43:54Z</time>
      </trkpt>
      <trkpt lat="42.455570000" lon="-2.563108000">
        <ele>443.10</ele>
        <time>2016-10-22T06:43:55Z</time>
      </trkpt>
      <trkpt lat="42.455533000" lon="-2.563116000">
        <ele>443.10</ele>
        <time>2016-10-22T06:43:56Z</time>
      </trkpt>
      <trkpt lat="42.455496000" lon="-2.563122000">
        <ele>443.10</ele>
        <time>2016-10-22T06:43:57Z</time>
      </trkpt>
      <trkpt lat="42.455460000" lon="-2.563131000">
        <ele>443.10</ele>
        <time>2016-10-22T06:43:58Z</time>
      </trkpt>
      <trkpt lat="42.455421000" lon="-2.563140000">
        <ele>443.10</ele>
        <time>2016-10-22T06:43:59Z</time>
      </trkpt>
      <trkpt lat="42.455384000" lon="-2.563150000">
        <ele>443.10</ele>
        <time>2016-10-22T06:44:00Z</time>
      </trkpt>
      <trkpt lat="42.455346000" lon="-2.563164000">
        <ele>443.10</ele>
        <time>2016-10-22T06:44:01Z</time>
      </trkpt>
      <trkpt lat="42.455307000" lon="-2.563173000">
        <ele>443.00</ele>
        <time>2016-10-22T06:44:02Z</time>
      </trkpt>
      <trkpt lat="42.455266000" lon="-2.563182000">
        <ele>443.00</ele>
        <time>2016-10-22T06:44:03Z</time>
      </trkpt>
      <trkpt lat="42.455228000" lon="-2.563195000">
        <ele>443.00</ele>
        <time>2016-10-22T06:44:04Z</time>
      </trkpt>
      <trkpt lat="42.455190000" lon="-2.563208000">
        <ele>443.20</ele>
        <time>2016-10-22T06:44:05Z</time>
      </trkpt>
      <trkpt lat="42.455155000" lon="-2.563222000">
        <ele>443.30</ele>
        <time>2016-10-22T06:44:06Z</time>
      </trkpt>
      <trkpt lat="42.455088000" lon="-2.563262000">
        <ele>443.60</ele>
        <time>2016-10-22T06:44:08Z</time>
      </trkpt>
      <trkpt lat="42.455055000" lon="-2.563287000">
        <ele>443.60</ele>
        <time>2016-10-22T06:44:09Z</time>
      </trkpt>
      <trkpt lat="42.455025000" lon="-2.563314000">
        <ele>443.60</ele>
        <time>2016-10-22T06:44:10Z</time>
      </trkpt>
      <trkpt lat="42.454996000" lon="-2.563344000">
        <ele>443.90</ele>
        <time>2016-10-22T06:44:11Z</time>
      </trkpt>
      <trkpt lat="42.454969000" lon="-2.563374000">
        <ele>444.10</ele>
        <time>2016-10-22T06:44:12Z</time>
      </trkpt>
      <trkpt lat="42.454943000" lon="-2.563399000">
        <ele>444.20</ele>
        <time>2016-10-22T06:44:13Z</time>
      </trkpt>
      <trkpt lat="42.454914000" lon="-2.563423000">
        <ele>444.30</ele>
        <time>2016-10-22T06:44:14Z</time>
      </trkpt>
      <trkpt lat="42.454885000" lon="-2.563447000">
        <ele>444.30</ele>
        <time>2016-10-22T06:44:15Z</time>
      </trkpt>
      <trkpt lat="42.454852000" lon="-2.563468000">
        <ele>444.40</ele>
        <time>2016-10-22T06:44:16Z</time>
      </trkpt>
      <trkpt lat="42.454817000" lon="-2.563486000">
        <ele>444.40</ele>
        <time>2016-10-22T06:44:17Z</time>
      </trkpt>
      <trkpt lat="42.454786000" lon="-2.563506000">
        <ele>444.40</ele>
        <time>2016-10-22T06:44:18Z</time>
      </trkpt>
      <trkpt lat="42.454748000" lon="-2.563516000">
        <ele>444.50</ele>
        <time>2016-10-22T06:44:19Z</time>
      </trkpt>
      <trkpt lat="42.454712000" lon="-2.563531000">
        <ele>444.60</ele>
        <time>2016-10-22T06:44:20Z</time>
      </trkpt>
      <trkpt lat="42.454676000" lon="-2.563545000">
        <ele>444.70</ele>
        <time>2016-10-22T06:44:21Z</time>
      </trkpt>
      <trkpt lat="42.454640000" lon="-2.563557000">
        <ele>444.70</ele>
        <time>2016-10-22T06:44:22Z</time>
      </trkpt>
      <trkpt lat="42.454607000" lon="-2.563570000">
        <ele>445.10</ele>
        <time>2016-10-22T06:44:23Z</time>
      </trkpt>
      <trkpt lat="42.454577000" lon="-2.563583000">
        <ele>445.30</ele>
        <time>2016-10-22T06:44:24Z</time>
      </trkpt>
      <trkpt lat="42.454542000" lon="-2.563600000">
        <ele>445.50</ele>
        <time>2016-10-22T06:44:25Z</time>
      </trkpt>
      <trkpt lat="42.454506000" lon="-2.563610000">
        <ele>445.60</ele>
        <time>2016-10-22T06:44:26Z</time>
      </trkpt>
      <trkpt lat="42.454470000" lon="-2.563619000">
        <ele>445.70</ele>
        <time>2016-10-22T06:44:27Z</time>
      </trkpt>
      <trkpt lat="42.454435000" lon="-2.563626000">
        <ele>445.80</ele>
        <time>2016-10-22T06:44:28Z</time>
      </trkpt>
      <trkpt lat="42.454400000" lon="-2.563634000">
        <ele>445.90</ele>
        <time>2016-10-22T06:44:29Z</time>
      </trkpt>
      <trkpt lat="42.454361000" lon="-2.563637000">
        <ele>445.90</ele>
        <time>2016-10-22T06:44:30Z</time>
      </trkpt>
      <trkpt lat="42.454326000" lon="-2.563640000">
        <ele>445.90</ele>
        <time>2016-10-22T06:44:31Z</time>
      </trkpt>
      <trkpt lat="42.454290000" lon="-2.563649000">
        <ele>446.00</ele>
        <time>2016-10-22T06:44:32Z</time>
      </trkpt>
      <trkpt lat="42.454253000" lon="-2.563653000">
        <ele>446.10</ele>
        <time>2016-10-22T06:44:33Z</time>
      </trkpt>
      <trkpt lat="42.454216000" lon="-2.563657000">
        <ele>446.10</ele>
        <time>2016-10-22T06:44:34Z</time>
      </trkpt>
      <trkpt lat="42.454176000" lon="-2.563663000">
        <ele>446.00</ele>
        <time>2016-10-22T06:44:35Z</time>
      </trkpt>
      <trkpt lat="42.454141000" lon="-2.563674000">
        <ele>445.90</ele>
        <time>2016-10-22T06:44:36Z</time>
      </trkpt>
      <trkpt lat="42.454105000" lon="-2.563677000">
        <ele>446.00</ele>
        <time>2016-10-22T06:44:37Z</time>
      </trkpt>
      <trkpt lat="42.454069000" lon="-2.563682000">
        <ele>446.10</ele>
        <time>2016-10-22T06:44:38Z</time>
      </trkpt>
      <trkpt lat="42.454031000" lon="-2.563687000">
        <ele>446.10</ele>
        <time>2016-10-22T06:44:39Z</time>
      </trkpt>
      <trkpt lat="42.453998000" lon="-2.563695000">
        <ele>446.20</ele>
        <time>2016-10-22T06:44:40Z</time>
      </trkpt>
      <trkpt lat="42.453963000" lon="-2.563701000">
        <ele>446.20</ele>
        <time>2016-10-22T06:44:41Z</time>
      </trkpt>
      <trkpt lat="42.453925000" lon="-2.563709000">
        <ele>446.20</ele>
        <time>2016-10-22T06:44:42Z</time>
      </trkpt>
      <trkpt lat="42.453888000" lon="-2.563719000">
        <ele>446.20</ele>
        <time>2016-10-22T06:44:43Z</time>
      </trkpt>
      <trkpt lat="42.453852000" lon="-2.563724000">
        <ele>446.30</ele>
        <time>2016-10-22T06:44:44Z</time>
      </trkpt>
      <trkpt lat="42.453818000" lon="-2.563731000">
        <ele>446.10</ele>
        <time>2016-10-22T06:44:45Z</time>
      </trkpt>
      <trkpt lat="42.453781000" lon="-2.563740000">
        <ele>446.10</ele>
        <time>2016-10-22T06:44:46Z</time>
      </trkpt>
      <trkpt lat="42.453741000" lon="-2.563748000">
        <ele>445.90</ele>
        <time>2016-10-22T06:44:47Z</time>
      </trkpt>
      <trkpt lat="42.453704000" lon="-2.563749000">
        <ele>445.80</ele>
        <time>2016-10-22T06:44:48Z</time>
      </trkpt>
      <trkpt lat="42.453668000" lon="-2.563749000">
        <ele>445.70</ele>
        <time>2016-10-22T06:44:49Z</time>
      </trkpt>
      <trkpt lat="42.453631000" lon="-2.563750000">
        <ele>445.70</ele>
        <time>2016-10-22T06:44:50Z</time>
      </trkpt>
      <trkpt lat="42.453593000" lon="-2.563749000">
        <ele>445.90</ele>
        <time>2016-10-22T06:44:51Z</time>
      </trkpt>
      <trkpt lat="42.453555000" lon="-2.563743000">
        <ele>446.10</ele>
        <time>2016-10-22T06:44:52Z</time>
      </trkpt>
      <trkpt lat="42.453518000" lon="-2.563737000">
        <ele>446.30</ele>
        <time>2016-10-22T06:44:53Z</time>
      </trkpt>
      <trkpt lat="42.453479000" lon="-2.563732000">
        <ele>446.50</ele>
        <time>2016-10-22T06:44:54Z</time>
      </trkpt>
      <trkpt lat="42.453440000" lon="-2.563727000">
        <ele>446.50</ele>
        <time>2016-10-22T06:44:55Z</time>
      </trkpt>
      <trkpt lat="42.453403000" lon="-2.563722000">
        <ele>446.50</ele>
        <time>2016-10-22T06:44:56Z</time>
      </trkpt>
      <trkpt lat="42.453367000" lon="-2.563714000">
        <ele>446.70</ele>
        <time>2016-10-22T06:44:57Z</time>
      </trkpt>
      <trkpt lat="42.453329000" lon="-2.563702000">
        <ele>446.80</ele>
        <time>2016-10-22T06:44:58Z</time>
      </trkpt>
      <trkpt lat="42.453292000" lon="-2.563696000">
        <ele>446.80</ele>
        <time>2016-10-22T06:44:59Z</time>
      </trkpt>
      <trkpt lat="42.453254000" lon="-2.563688000">
        <ele>446.80</ele>
        <time>2016-10-22T06:45:00Z</time>
      </trkpt>
      <trkpt lat="42.453218000" lon="-2.563682000">
        <ele>446.90</ele>
        <time>2016-10-22T06:45:01Z</time>
      </trkpt>
      <trkpt lat="42.453176000" lon="-2.563681000">
        <ele>447.00</ele>
        <time>2016-10-22T06:45:02Z</time>
      </trkpt>
      <trkpt lat="42.453139000" lon="-2.563684000">
        <ele>447.20</ele>
        <time>2016-10-22T06:45:03Z</time>
      </trkpt>
      <trkpt lat="42.453103000" lon="-2.563689000">
        <ele>447.40</ele>
        <time>2016-10-22T06:45:04Z</time>
      </trkpt>
      <trkpt lat="42.453069000" lon="-2.563693000">
        <ele>447.50</ele>
        <time>2016-10-22T06:45:05Z</time>
      </trkpt>
      <trkpt lat="42.453037000" lon="-2.563703000">
        <ele>447.60</ele>
        <time>2016-10-22T06:45:06Z</time>
      </trkpt>
      <trkpt lat="42.453002000" lon="-2.563715000">
        <ele>447.70</ele>
        <time>2016-10-22T06:45:07Z</time>
      </trkpt>
      <trkpt lat="42.452926000" lon="-2.563735000">
        <ele>447.80</ele>
        <time>2016-10-22T06:45:09Z</time>
      </trkpt>
      <trkpt lat="42.452887000" lon="-2.563745000">
        <ele>447.90</ele>
        <time>2016-10-22T06:45:10Z</time>
      </trkpt>
      <trkpt lat="42.452851000" lon="-2.563754000">
        <ele>447.90</ele>
        <time>2016-10-22T06:45:11Z</time>
      </trkpt>
      <trkpt lat="42.452812000" lon="-2.563764000">
        <ele>448.00</ele>
        <time>2016-10-22T06:45:12Z</time>
      </trkpt>
      <trkpt lat="42.452773000" lon="-2.563775000">
        <ele>448.00</ele>
        <time>2016-10-22T06:45:13Z</time>
      </trkpt>
      <trkpt lat="42.452736000" lon="-2.563787000">
        <ele>448.00</ele>
        <time>2016-10-22T06:45:14Z</time>
      </trkpt>
      <trkpt lat="42.452699000" lon="-2.563796000">
        <ele>448.00</ele>
        <time>2016-10-22T06:45:15Z</time>
      </trkpt>
      <trkpt lat="42.452660000" lon="-2.563803000">
        <ele>448.00</ele>
        <time>2016-10-22T06:45:16Z</time>
      </trkpt>
      <trkpt lat="42.452622000" lon="-2.563806000">
        <ele>447.90</ele>
        <time>2016-10-22T06:45:17Z</time>
      </trkpt>
      <trkpt lat="42.452584000" lon="-2.563810000">
        <ele>447.70</ele>
        <time>2016-10-22T06:45:18Z</time>
      </trkpt>
      <trkpt lat="42.452545000" lon="-2.563813000">
        <ele>447.80</ele>
        <time>2016-10-22T06:45:19Z</time>
      </trkpt>
      <trkpt lat="42.452506000" lon="-2.563817000">
        <ele>447.90</ele>
        <time>2016-10-22T06:45:20Z</time>
      </trkpt>
      <trkpt lat="42.452467000" lon="-2.563819000">
        <ele>448.20</ele>
        <time>2016-10-22T06:45:21Z</time>
      </trkpt>
      <trkpt lat="42.452431000" lon="-2.563824000">
        <ele>448.40</ele>
        <time>2016-10-22T06:45:22Z</time>
      </trkpt>
      <trkpt lat="42.452396000" lon="-2.563827000">
        <ele>448.60</ele>
        <time>2016-10-22T06:45:23Z</time>
      </trkpt>
      <trkpt lat="42.452359000" lon="-2.563833000">
        <ele>448.80</ele>
        <time>2016-10-22T06:45:24Z</time>
      </trkpt>
      <trkpt lat="42.452323000" lon="-2.563842000">
        <ele>449.00</ele>
        <time>2016-10-22T06:45:25Z</time>
      </trkpt>
      <trkpt lat="42.452284000" lon="-2.563851000">
        <ele>449.10</ele>
        <time>2016-10-22T06:45:26Z</time>
      </trkpt>
      <trkpt lat="42.452248000" lon="-2.563865000">
        <ele>449.10</ele>
        <time>2016-10-22T06:45:27Z</time>
      </trkpt>
      <trkpt lat="42.452212000" lon="-2.563879000">
        <ele>449.10</ele>
        <time>2016-10-22T06:45:28Z</time>
      </trkpt>
      <trkpt lat="42.452176000" lon="-2.563892000">
        <ele>448.90</ele>
        <time>2016-10-22T06:45:29Z</time>
      </trkpt>
      <trkpt lat="42.452137000" lon="-2.563909000">
        <ele>448.90</ele>
        <time>2016-10-22T06:45:30Z</time>
      </trkpt>
      <trkpt lat="42.452100000" lon="-2.563926000">
        <ele>448.80</ele>
        <time>2016-10-22T06:45:31Z</time>
      </trkpt>
      <trkpt lat="42.452063000" lon="-2.563941000">
        <ele>448.70</ele>
        <time>2016-10-22T06:45:32Z</time>
      </trkpt>
      <trkpt lat="42.452025000" lon="-2.563957000">
        <ele>448.70</ele>
        <time>2016-10-22T06:45:33Z</time>
      </trkpt>
      <trkpt lat="42.451985000" lon="-2.563970000">
        <ele>448.70</ele>
        <time>2016-10-22T06:45:34Z</time>
      </trkpt>
      <trkpt lat="42.451948000" lon="-2.563984000">
        <ele>448.60</ele>
        <time>2016-10-22T06:45:35Z</time>
      </trkpt>
      <trkpt lat="42.451909000" lon="-2.563995000">
        <ele>448.60</ele>
        <time>2016-10-22T06:45:36Z</time>
      </trkpt>
      <trkpt lat="42.451869000" lon="-2.564005000">
        <ele>448.80</ele>
        <time>2016-10-22T06:45:37Z</time>
      </trkpt>
      <trkpt lat="42.451830000" lon="-2.564017000">
        <ele>448.90</ele>
        <time>2016-10-22T06:45:38Z</time>
      </trkpt>
      <trkpt lat="42.451794000" lon="-2.564028000">
        <ele>449.00</ele>
        <time>2016-10-22T06:45:39Z</time>
      </trkpt>
      <trkpt lat="42.451756000" lon="-2.564045000">
        <ele>449.10</ele>
        <time>2016-10-22T06:45:40Z</time>
      </trkpt>
      <trkpt lat="42.451719000" lon="-2.564057000">
        <ele>449.20</ele>
        <time>2016-10-22T06:45:41Z</time>
      </trkpt>
      <trkpt lat="42.451683000" lon="-2.564072000">
        <ele>449.30</ele>
        <time>2016-10-22T06:45:42Z</time>
      </trkpt>
      <trkpt lat="42.451644000" lon="-2.564087000">
        <ele>449.30</ele>
        <time>2016-10-22T06:45:43Z</time>
      </trkpt>
      <trkpt lat="42.451611000" lon="-2.564094000">
        <ele>449.30</ele>
        <time>2016-10-22T06:45:44Z</time>
      </trkpt>
      <trkpt lat="42.451575000" lon="-2.564107000">
        <ele>449.30</ele>
        <time>2016-10-22T06:45:45Z</time>
      </trkpt>
      <trkpt lat="42.451538000" lon="-2.564119000">
        <ele>449.20</ele>
        <time>2016-10-22T06:45:46Z</time>
      </trkpt>
      <trkpt lat="42.451500000" lon="-2.564127000">
        <ele>449.20</ele>
        <time>2016-10-22T06:45:47Z</time>
      </trkpt>
      <trkpt lat="42.451462000" lon="-2.564139000">
        <ele>449.20</ele>
        <time>2016-10-22T06:45:48Z</time>
      </trkpt>
      <trkpt lat="42.451427000" lon="-2.564152000">
        <ele>449.20</ele>
        <time>2016-10-22T06:45:49Z</time>
      </trkpt>
      <trkpt lat="42.451393000" lon="-2.564165000">
        <ele>449.20</ele>
        <time>2016-10-22T06:45:50Z</time>
      </trkpt>
      <trkpt lat="42.451358000" lon="-2.564177000">
        <ele>449.20</ele>
        <time>2016-10-22T06:45:51Z</time>
      </trkpt>
      <trkpt lat="42.451324000" lon="-2.564188000">
        <ele>449.20</ele>
        <time>2016-10-22T06:45:52Z</time>
      </trkpt>
      <trkpt lat="42.451285000" lon="-2.564198000">
        <ele>449.20</ele>
        <time>2016-10-22T06:45:53Z</time>
      </trkpt>
      <trkpt lat="42.451245000" lon="-2.564211000">
        <ele>449.20</ele>
        <time>2016-10-22T06:45:54Z</time>
      </trkpt>
      <trkpt lat="42.451209000" lon="-2.564220000">
        <ele>449.40</ele>
        <time>2016-10-22T06:45:55Z</time>
      </trkpt>
      <trkpt lat="42.451171000" lon="-2.564231000">
        <ele>449.50</ele>
        <time>2016-10-22T06:45:56Z</time>
      </trkpt>
      <trkpt lat="42.451132000" lon="-2.564245000">
        <ele>449.60</ele>
        <time>2016-10-22T06:45:57Z</time>
      </trkpt>
      <trkpt lat="42.451096000" lon="-2.564256000">
        <ele>449.70</ele>
        <time>2016-10-22T06:45:58Z</time>
      </trkpt>
      <trkpt lat="42.451061000" lon="-2.564270000">
        <ele>449.70</ele>
        <time>2016-10-22T06:45:59Z</time>
      </trkpt>
      <trkpt lat="42.451026000" lon="-2.564283000">
        <ele>449.70</ele>
        <time>2016-10-22T06:46:00Z</time>
      </trkpt>
      <trkpt lat="42.450990000" lon="-2.564295000">
        <ele>449.70</ele>
        <time>2016-10-22T06:46:01Z</time>
      </trkpt>
      <trkpt lat="42.450954000" lon="-2.564305000">
        <ele>449.70</ele>
        <time>2016-10-22T06:46:02Z</time>
      </trkpt>
      <trkpt lat="42.450918000" lon="-2.564320000">
        <ele>449.90</ele>
        <time>2016-10-22T06:46:03Z</time>
      </trkpt>
      <trkpt lat="42.450885000" lon="-2.564332000">
        <ele>450.10</ele>
        <time>2016-10-22T06:46:04Z</time>
      </trkpt>
      <trkpt lat="42.450851000" lon="-2.564349000">
        <ele>450.20</ele>
        <time>2016-10-22T06:46:05Z</time>
      </trkpt>
      <trkpt lat="42.450816000" lon="-2.564366000">
        <ele>450.40</ele>
        <time>2016-10-22T06:46:06Z</time>
      </trkpt>
      <trkpt lat="42.450781000" lon="-2.564384000">
        <ele>450.40</ele>
        <time>2016-10-22T06:46:07Z</time>
      </trkpt>
      <trkpt lat="42.450744000" lon="-2.564405000">
        <ele>450.40</ele>
        <time>2016-10-22T06:46:08Z</time>
      </trkpt>
      <trkpt lat="42.450670000" lon="-2.564441000">
        <ele>450.50</ele>
        <time>2016-10-22T06:46:10Z</time>
      </trkpt>
      <trkpt lat="42.450635000" lon="-2.564455000">
        <ele>450.40</ele>
        <time>2016-10-22T06:46:11Z</time>
      </trkpt>
      <trkpt lat="42.450599000" lon="-2.564469000">
        <ele>450.40</ele>
        <time>2016-10-22T06:46:12Z</time>
      </trkpt>
      <trkpt lat="42.450563000" lon="-2.564479000">
        <ele>450.40</ele>
        <time>2016-10-22T06:46:13Z</time>
      </trkpt>
      <trkpt lat="42.450530000" lon="-2.564489000">
        <ele>450.40</ele>
        <time>2016-10-22T06:46:14Z</time>
      </trkpt>
      <trkpt lat="42.450496000" lon="-2.564499000">
        <ele>450.40</ele>
        <time>2016-10-22T06:46:15Z</time>
      </trkpt>
      <trkpt lat="42.450459000" lon="-2.564502000">
        <ele>450.40</ele>
        <time>2016-10-22T06:46:16Z</time>
      </trkpt>
      <trkpt lat="42.450420000" lon="-2.564503000">
        <ele>450.60</ele>
        <time>2016-10-22T06:46:17Z</time>
      </trkpt>
      <trkpt lat="42.450382000" lon="-2.564500000">
        <ele>450.70</ele>
        <time>2016-10-22T06:46:18Z</time>
      </trkpt>
      <trkpt lat="42.450346000" lon="-2.564495000">
        <ele>450.80</ele>
        <time>2016-10-22T06:46:19Z</time>
      </trkpt>
      <trkpt lat="42.450304000" lon="-2.564495000">
        <ele>450.80</ele>
        <time>2016-10-22T06:46:20Z</time>
      </trkpt>
      <trkpt lat="42.450268000" lon="-2.564499000">
        <ele>450.80</ele>
        <time>2016-10-22T06:46:21Z</time>
      </trkpt>
      <trkpt lat="42.450233000" lon="-2.564499000">
        <ele>450.80</ele>
        <time>2016-10-22T06:46:22Z</time>
      </trkpt>
      <trkpt lat="42.450197000" lon="-2.564502000">
        <ele>450.80</ele>
        <time>2016-10-22T06:46:23Z</time>
      </trkpt>
      <trkpt lat="42.450162000" lon="-2.564505000">
        <ele>450.80</ele>
        <time>2016-10-22T06:46:24Z</time>
      </trkpt>
      <trkpt lat="42.450127000" lon="-2.564506000">
        <ele>451.00</ele>
        <time>2016-10-22T06:46:25Z</time>
      </trkpt>
      <trkpt lat="42.450092000" lon="-2.564508000">
        <ele>451.20</ele>
        <time>2016-10-22T06:46:26Z</time>
      </trkpt>
      <trkpt lat="42.450057000" lon="-2.564512000">
        <ele>451.30</ele>
        <time>2016-10-22T06:46:27Z</time>
      </trkpt>
      <trkpt lat="42.450022000" lon="-2.564516000">
        <ele>451.40</ele>
        <time>2016-10-22T06:46:28Z</time>
      </trkpt>
      <trkpt lat="42.449988000" lon="-2.564519000">
        <ele>451.40</ele>
        <time>2016-10-22T06:46:29Z</time>
      </trkpt>
      <trkpt lat="42.449954000" lon="-2.564524000">
        <ele>451.50</ele>
        <time>2016-10-22T06:46:30Z</time>
      </trkpt>
      <trkpt lat="42.449918000" lon="-2.564530000">
        <ele>451.50</ele>
        <time>2016-10-22T06:46:31Z</time>
      </trkpt>
      <trkpt lat="42.449884000" lon="-2.564535000">
        <ele>451.50</ele>
        <time>2016-10-22T06:46:32Z</time>
      </trkpt>
      <trkpt lat="42.449850000" lon="-2.564539000">
        <ele>451.70</ele>
        <time>2016-10-22T06:46:33Z</time>
      </trkpt>
      <trkpt lat="42.449812000" lon="-2.564545000">
        <ele>451.80</ele>
        <time>2016-10-22T06:46:34Z</time>
      </trkpt>
      <trkpt lat="42.449771000" lon="-2.564549000">
        <ele>452.00</ele>
        <time>2016-10-22T06:46:35Z</time>
      </trkpt>
      <trkpt lat="42.449736000" lon="-2.564556000">
        <ele>452.10</ele>
        <time>2016-10-22T06:46:36Z</time>
      </trkpt>
      <trkpt lat="42.449700000" lon="-2.564564000">
        <ele>452.20</ele>
        <time>2016-10-22T06:46:37Z</time>
      </trkpt>
      <trkpt lat="42.449665000" lon="-2.564575000">
        <ele>452.30</ele>
        <time>2016-10-22T06:46:38Z</time>
      </trkpt>
      <trkpt lat="42.449628000" lon="-2.564583000">
        <ele>452.40</ele>
        <time>2016-10-22T06:46:39Z</time>
      </trkpt>
      <trkpt lat="42.449589000" lon="-2.564588000">
        <ele>452.40</ele>
        <time>2016-10-22T06:46:40Z</time>
      </trkpt>
      <trkpt lat="42.449553000" lon="-2.564591000">
        <ele>452.40</ele>
        <time>2016-10-22T06:46:41Z</time>
      </trkpt>
      <trkpt lat="42.449514000" lon="-2.564597000">
        <ele>452.50</ele>
        <time>2016-10-22T06:46:42Z</time>
      </trkpt>
      <trkpt lat="42.449475000" lon="-2.564605000">
        <ele>452.40</ele>
        <time>2016-10-22T06:46:43Z</time>
      </trkpt>
      <trkpt lat="42.449433000" lon="-2.564610000">
        <ele>452.20</ele>
        <time>2016-10-22T06:46:44Z</time>
      </trkpt>
      <trkpt lat="42.449395000" lon="-2.564612000">
        <ele>452.10</ele>
        <time>2016-10-22T06:46:45Z</time>
      </trkpt>
      <trkpt lat="42.449359000" lon="-2.564614000">
        <ele>452.10</ele>
        <time>2016-10-22T06:46:46Z</time>
      </trkpt>
      <trkpt lat="42.449322000" lon="-2.564620000">
        <ele>452.00</ele>
        <time>2016-10-22T06:46:47Z</time>
      </trkpt>
      <trkpt lat="42.449288000" lon="-2.564624000">
        <ele>452.00</ele>
        <time>2016-10-22T06:46:48Z</time>
      </trkpt>
      <trkpt lat="42.449253000" lon="-2.564635000">
        <ele>452.10</ele>
        <time>2016-10-22T06:46:49Z</time>
      </trkpt>
      <trkpt lat="42.449217000" lon="-2.564648000">
        <ele>452.20</ele>
        <time>2016-10-22T06:46:50Z</time>
      </trkpt>
      <trkpt lat="42.449181000" lon="-2.564658000">
        <ele>452.30</ele>
        <time>2016-10-22T06:46:51Z</time>
      </trkpt>
      <trkpt lat="42.449144000" lon="-2.564664000">
        <ele>452.40</ele>
        <time>2016-10-22T06:46:52Z</time>
      </trkpt>
      <trkpt lat="42.449108000" lon="-2.564667000">
        <ele>452.50</ele>
        <time>2016-10-22T06:46:53Z</time>
      </trkpt>
      <trkpt lat="42.449074000" lon="-2.564673000">
        <ele>452.50</ele>
        <time>2016-10-22T06:46:54Z</time>
      </trkpt>
      <trkpt lat="42.449035000" lon="-2.564672000">
        <ele>452.80</ele>
        <time>2016-10-22T06:46:55Z</time>
      </trkpt>
      <trkpt lat="42.448998000" lon="-2.564668000">
        <ele>452.90</ele>
        <time>2016-10-22T06:46:56Z</time>
      </trkpt>
      <trkpt lat="42.448962000" lon="-2.564659000">
        <ele>453.10</ele>
        <time>2016-10-22T06:46:57Z</time>
      </trkpt>
      <trkpt lat="42.448926000" lon="-2.564646000">
        <ele>453.20</ele>
        <time>2016-10-22T06:46:58Z</time>
      </trkpt>
      <trkpt lat="42.448889000" lon="-2.564641000">
        <ele>453.20</ele>
        <time>2016-10-22T06:46:59Z</time>
      </trkpt>
      <trkpt lat="42.448853000" lon="-2.564633000">
        <ele>453.30</ele>
        <time>2016-10-22T06:47:00Z</time>
      </trkpt>
      <trkpt lat="42.448819000" lon="-2.564629000">
        <ele>453.40</ele>
        <time>2016-10-22T06:47:01Z</time>
      </trkpt>
      <trkpt lat="42.448786000" lon="-2.564625000">
        <ele>453.40</ele>
        <time>2016-10-22T06:47:02Z</time>
      </trkpt>
      <trkpt lat="42.448751000" lon="-2.564622000">
        <ele>453.40</ele>
        <time>2016-10-22T06:47:03Z</time>
      </trkpt>
      <trkpt lat="42.448714000" lon="-2.564620000">
        <ele>453.50</ele>
        <time>2016-10-22T06:47:04Z</time>
      </trkpt>
      <trkpt lat="42.448676000" lon="-2.564619000">
        <ele>453.50</ele>
        <time>2016-10-22T06:47:05Z</time>
      </trkpt>
      <trkpt lat="42.448639000" lon="-2.564617000">
        <ele>453.60</ele>
        <time>2016-10-22T06:47:06Z</time>
      </trkpt>
      <trkpt lat="42.448601000" lon="-2.564616000">
        <ele>453.70</ele>
        <time>2016-10-22T06:47:07Z</time>
      </trkpt>
      <trkpt lat="42.448565000" lon="-2.564608000">
        <ele>453.90</ele>
        <time>2016-10-22T06:47:08Z</time>
      </trkpt>
      <trkpt lat="42.448529000" lon="-2.564598000">
        <ele>454.00</ele>
        <time>2016-10-22T06:47:09Z</time>
      </trkpt>
      <trkpt lat="42.448455000" lon="-2.564586000">
        <ele>454.30</ele>
        <time>2016-10-22T06:47:11Z</time>
      </trkpt>
      <trkpt lat="42.448419000" lon="-2.564579000">
        <ele>454.40</ele>
        <time>2016-10-22T06:47:12Z</time>
      </trkpt>
      <trkpt lat="42.448382000" lon="-2.564571000">
        <ele>454.40</ele>
        <time>2016-10-22T06:47:13Z</time>
      </trkpt>
      <trkpt lat="42.448345000" lon="-2.564564000">
        <ele>454.50</ele>
        <time>2016-10-22T06:47:14Z</time>
      </trkpt>
      <trkpt lat="42.448311000" lon="-2.564561000">
        <ele>454.50</ele>
        <time>2016-10-22T06:47:15Z</time>
      </trkpt>
      <trkpt lat="42.448274000" lon="-2.564560000">
        <ele>454.50</ele>
        <time>2016-10-22T06:47:16Z</time>
      </trkpt>
      <trkpt lat="42.448238000" lon="-2.564564000">
        <ele>454.50</ele>
        <time>2016-10-22T06:47:17Z</time>
      </trkpt>
      <trkpt lat="42.448201000" lon="-2.564566000">
        <ele>454.60</ele>
        <time>2016-10-22T06:47:18Z</time>
      </trkpt>
      <trkpt lat="42.448165000" lon="-2.564569000">
        <ele>454.60</ele>
        <time>2016-10-22T06:47:19Z</time>
      </trkpt>
      <trkpt lat="42.448128000" lon="-2.564567000">
        <ele>454.60</ele>
        <time>2016-10-22T06:47:20Z</time>
      </trkpt>
      <trkpt lat="42.448092000" lon="-2.564561000">
        <ele>454.60</ele>
        <time>2016-10-22T06:47:21Z</time>
      </trkpt>
      <trkpt lat="42.448055000" lon="-2.564551000">
        <ele>454.60</ele>
        <time>2016-10-22T06:47:22Z</time>
      </trkpt>
      <trkpt lat="42.448019000" lon="-2.564538000">
        <ele>454.50</ele>
        <time>2016-10-22T06:47:23Z</time>
      </trkpt>
      <trkpt lat="42.447983000" lon="-2.564524000">
        <ele>454.50</ele>
        <time>2016-10-22T06:47:24Z</time>
      </trkpt>
      <trkpt lat="42.447948000" lon="-2.564513000">
        <ele>454.50</ele>
        <time>2016-10-22T06:47:25Z</time>
      </trkpt>
      <trkpt lat="42.447913000" lon="-2.564506000">
        <ele>454.50</ele>
        <time>2016-10-22T06:47:26Z</time>
      </trkpt>
      <trkpt lat="42.447881000" lon="-2.564500000">
        <ele>454.60</ele>
        <time>2016-10-22T06:47:27Z</time>
      </trkpt>
      <trkpt lat="42.447847000" lon="-2.564491000">
        <ele>454.70</ele>
        <time>2016-10-22T06:47:28Z</time>
      </trkpt>
      <trkpt lat="42.447812000" lon="-2.564486000">
        <ele>454.80</ele>
        <time>2016-10-22T06:47:29Z</time>
      </trkpt>
      <trkpt lat="42.447780000" lon="-2.564489000">
        <ele>454.90</ele>
        <time>2016-10-22T06:47:30Z</time>
      </trkpt>
      <trkpt lat="42.447747000" lon="-2.564489000">
        <ele>455.00</ele>
        <time>2016-10-22T06:47:31Z</time>
      </trkpt>
      <trkpt lat="42.447717000" lon="-2.564493000">
        <ele>455.00</ele>
        <time>2016-10-22T06:47:32Z</time>
      </trkpt>
      <trkpt lat="42.447687000" lon="-2.564506000">
        <ele>455.30</ele>
        <time>2016-10-22T06:47:33Z</time>
      </trkpt>
      <trkpt lat="42.447664000" lon="-2.564527000">
        <ele>455.50</ele>
        <time>2016-10-22T06:47:34Z</time>
      </trkpt>
      <trkpt lat="42.447652000" lon="-2.564560000">
        <ele>455.60</ele>
        <time>2016-10-22T06:47:35Z</time>
      </trkpt>
      <trkpt lat="42.447651000" lon="-2.564603000">
        <ele>455.70</ele>
        <time>2016-10-22T06:47:36Z</time>
      </trkpt>
      <trkpt lat="42.447668000" lon="-2.564651000">
        <ele>455.80</ele>
        <time>2016-10-22T06:47:37Z</time>
      </trkpt>
      <trkpt lat="42.447679000" lon="-2.564699000">
        <ele>455.90</ele>
        <time>2016-10-22T06:47:38Z</time>
      </trkpt>
      <trkpt lat="42.447692000" lon="-2.564739000">
        <ele>456.10</ele>
        <time>2016-10-22T06:47:39Z</time>
      </trkpt>
      <trkpt lat="42.447704000" lon="-2.564782000">
        <ele>456.20</ele>
        <time>2016-10-22T06:47:40Z</time>
      </trkpt>
      <trkpt lat="42.447719000" lon="-2.564825000">
        <ele>456.30</ele>
        <time>2016-10-22T06:47:41Z</time>
      </trkpt>
      <trkpt lat="42.447733000" lon="-2.564866000">
        <ele>456.40</ele>
        <time>2016-10-22T06:47:42Z</time>
      </trkpt>
      <trkpt lat="42.447747000" lon="-2.564909000">
        <ele>456.50</ele>
        <time>2016-10-22T06:47:43Z</time>
      </trkpt>
      <trkpt lat="42.447763000" lon="-2.564953000">
        <ele>456.60</ele>
        <time>2016-10-22T06:47:44Z</time>
      </trkpt>
      <trkpt lat="42.447779000" lon="-2.565003000">
        <ele>456.50</ele>
        <time>2016-10-22T06:47:45Z</time>
      </trkpt>
      <trkpt lat="42.447796000" lon="-2.565052000">
        <ele>456.50</ele>
        <time>2016-10-22T06:47:46Z</time>
      </trkpt>
      <trkpt lat="42.447814000" lon="-2.565096000">
        <ele>456.40</ele>
        <time>2016-10-22T06:47:47Z</time>
      </trkpt>
      <trkpt lat="42.447832000" lon="-2.565141000">
        <ele>456.40</ele>
        <time>2016-10-22T06:47:48Z</time>
      </trkpt>
      <trkpt lat="42.447850000" lon="-2.565185000">
        <ele>456.40</ele>
        <time>2016-10-22T06:47:49Z</time>
      </trkpt>
      <trkpt lat="42.447866000" lon="-2.565227000">
        <ele>456.50</ele>
        <time>2016-10-22T06:47:50Z</time>
      </trkpt>
      <trkpt lat="42.447885000" lon="-2.565268000">
        <ele>456.70</ele>
        <time>2016-10-22T06:47:51Z</time>
      </trkpt>
      <trkpt lat="42.447902000" lon="-2.565312000">
        <ele>456.80</ele>
        <time>2016-10-22T06:47:52Z</time>
      </trkpt>
      <trkpt lat="42.447920000" lon="-2.565356000">
        <ele>456.90</ele>
        <time>2016-10-22T06:47:53Z</time>
      </trkpt>
      <trkpt lat="42.447935000" lon="-2.565401000">
        <ele>457.00</ele>
        <time>2016-10-22T06:47:54Z</time>
      </trkpt>
      <trkpt lat="42.447948000" lon="-2.565443000">
        <ele>457.00</ele>
        <time>2016-10-22T06:47:55Z</time>
      </trkpt>
      <trkpt lat="42.447959000" lon="-2.565489000">
        <ele>457.10</ele>
        <time>2016-10-22T06:47:56Z</time>
      </trkpt>
      <trkpt lat="42.447970000" lon="-2.565537000">
        <ele>457.10</ele>
        <time>2016-10-22T06:47:57Z</time>
      </trkpt>
      <trkpt lat="42.447980000" lon="-2.565583000">
        <ele>457.10</ele>
        <time>2016-10-22T06:47:58Z</time>
      </trkpt>
      <trkpt lat="42.447990000" lon="-2.565623000">
        <ele>457.20</ele>
        <time>2016-10-22T06:47:59Z</time>
      </trkpt>
      <trkpt lat="42.447996000" lon="-2.565656000">
        <ele>457.20</ele>
        <time>2016-10-22T06:48:00Z</time>
      </trkpt>
      <trkpt lat="42.448002000" lon="-2.565691000">
        <ele>457.40</ele>
        <time>2016-10-22T06:48:01Z</time>
      </trkpt>
      <trkpt lat="42.448006000" lon="-2.565717000">
        <ele>457.60</ele>
        <time>2016-10-22T06:48:02Z</time>
      </trkpt>
      <trkpt lat="42.448010000" lon="-2.565738000">
        <ele>457.70</ele>
        <time>2016-10-22T06:48:03Z</time>
      </trkpt>
      <trkpt lat="42.448009000" lon="-2.565763000">
        <ele>457.80</ele>
        <time>2016-10-22T06:48:04Z</time>
      </trkpt>
      <trkpt lat="42.448003000" lon="-2.565795000">
        <ele>457.80</ele>
        <time>2016-10-22T06:48:05Z</time>
      </trkpt>
      <trkpt lat="42.447989000" lon="-2.565830000">
        <ele>457.90</ele>
        <time>2016-10-22T06:48:06Z</time>
      </trkpt>
      <trkpt lat="42.447969000" lon="-2.565866000">
        <ele>458.00</ele>
        <time>2016-10-22T06:48:07Z</time>
      </trkpt>
      <trkpt lat="42.447943000" lon="-2.565898000">
        <ele>458.00</ele>
        <time>2016-10-22T06:48:08Z</time>
      </trkpt>
      <trkpt lat="42.447916000" lon="-2.565931000">
        <ele>458.10</ele>
        <time>2016-10-22T06:48:09Z</time>
      </trkpt>
      <trkpt lat="42.447887000" lon="-2.565957000">
        <ele>458.10</ele>
        <time>2016-10-22T06:48:10Z</time>
      </trkpt>
      <trkpt lat="42.447829000" lon="-2.566001000">
        <ele>458.30</ele>
        <time>2016-10-22T06:48:12Z</time>
      </trkpt>
      <trkpt lat="42.447798000" lon="-2.566030000">
        <ele>458.40</ele>
        <time>2016-10-22T06:48:13Z</time>
      </trkpt>
      <trkpt lat="42.447771000" lon="-2.566058000">
        <ele>458.40</ele>
        <time>2016-10-22T06:48:14Z</time>
      </trkpt>
      <trkpt lat="42.447743000" lon="-2.566084000">
        <ele>458.50</ele>
        <time>2016-10-22T06:48:15Z</time>
      </trkpt>
      <trkpt lat="42.447715000" lon="-2.566112000">
        <ele>458.60</ele>
        <time>2016-10-22T06:48:16Z</time>
      </trkpt>
      <trkpt lat="42.447685000" lon="-2.566141000">
        <ele>458.70</ele>
        <time>2016-10-22T06:48:17Z</time>
      </trkpt>
      <trkpt lat="42.447656000" lon="-2.566167000">
        <ele>458.80</ele>
        <time>2016-10-22T06:48:18Z</time>
      </trkpt>
      <trkpt lat="42.447626000" lon="-2.566191000">
        <ele>458.90</ele>
        <time>2016-10-22T06:48:19Z</time>
      </trkpt>
      <trkpt lat="42.447596000" lon="-2.566217000">
        <ele>459.10</ele>
        <time>2016-10-22T06:48:20Z</time>
      </trkpt>
      <trkpt lat="42.447566000" lon="-2.566247000">
        <ele>459.10</ele>
        <time>2016-10-22T06:48:21Z</time>
      </trkpt>
      <trkpt lat="42.447536000" lon="-2.566276000">
        <ele>459.20</ele>
        <time>2016-10-22T06:48:22Z</time>
      </trkpt>
      <trkpt lat="42.447506000" lon="-2.566306000">
        <ele>459.20</ele>
        <time>2016-10-22T06:48:23Z</time>
      </trkpt>
      <trkpt lat="42.447477000" lon="-2.566332000">
        <ele>459.20</ele>
        <time>2016-10-22T06:48:24Z</time>
      </trkpt>
      <trkpt lat="42.447449000" lon="-2.566362000">
        <ele>459.20</ele>
        <time>2016-10-22T06:48:25Z</time>
      </trkpt>
      <trkpt lat="42.447420000" lon="-2.566393000">
        <ele>459.20</ele>
        <time>2016-10-22T06:48:26Z</time>
      </trkpt>
      <trkpt lat="42.447392000" lon="-2.566421000">
        <ele>459.30</ele>
        <time>2016-10-22T06:48:27Z</time>
      </trkpt>
      <trkpt lat="42.447366000" lon="-2.566452000">
        <ele>459.40</ele>
        <time>2016-10-22T06:48:28Z</time>
      </trkpt>
      <trkpt lat="42.447340000" lon="-2.566482000">
        <ele>459.70</ele>
        <time>2016-10-22T06:48:29Z</time>
      </trkpt>
      <trkpt lat="42.447312000" lon="-2.566513000">
        <ele>459.90</ele>
        <time>2016-10-22T06:48:30Z</time>
      </trkpt>
      <trkpt lat="42.447285000" lon="-2.566546000">
        <ele>460.00</ele>
        <time>2016-10-22T06:48:31Z</time>
      </trkpt>
      <trkpt lat="42.447260000" lon="-2.566579000">
        <ele>460.10</ele>
        <time>2016-10-22T06:48:32Z</time>
      </trkpt>
      <trkpt lat="42.447234000" lon="-2.566614000">
        <ele>460.10</ele>
        <time>2016-10-22T06:48:33Z</time>
      </trkpt>
      <trkpt lat="42.447206000" lon="-2.566648000">
        <ele>460.10</ele>
        <time>2016-10-22T06:48:34Z</time>
      </trkpt>
      <trkpt lat="42.447180000" lon="-2.566685000">
        <ele>459.90</ele>
        <time>2016-10-22T06:48:35Z</time>
      </trkpt>
      <trkpt lat="42.447154000" lon="-2.566716000">
        <ele>459.80</ele>
        <time>2016-10-22T06:48:36Z</time>
      </trkpt>
      <trkpt lat="42.447127000" lon="-2.566752000">
        <ele>459.70</ele>
        <time>2016-10-22T06:48:37Z</time>
      </trkpt>
      <trkpt lat="42.447101000" lon="-2.566788000">
        <ele>459.70</ele>
        <time>2016-10-22T06:48:38Z</time>
      </trkpt>
      <trkpt lat="42.447078000" lon="-2.566822000">
        <ele>459.80</ele>
        <time>2016-10-22T06:48:39Z</time>
      </trkpt>
      <trkpt lat="42.447053000" lon="-2.566859000">
        <ele>459.90</ele>
        <time>2016-10-22T06:48:40Z</time>
      </trkpt>
      <trkpt lat="42.447028000" lon="-2.566895000">
        <ele>460.10</ele>
        <time>2016-10-22T06:48:41Z</time>
      </trkpt>
      <trkpt lat="42.447002000" lon="-2.566931000">
        <ele>460.30</ele>
        <time>2016-10-22T06:48:42Z</time>
      </trkpt>
      <trkpt lat="42.446977000" lon="-2.566967000">
        <ele>460.40</ele>
        <time>2016-10-22T06:48:43Z</time>
      </trkpt>
      <trkpt lat="42.446951000" lon="-2.567003000">
        <ele>460.50</ele>
        <time>2016-10-22T06:48:44Z</time>
      </trkpt>
      <trkpt lat="42.446927000" lon="-2.567039000">
        <ele>460.70</ele>
        <time>2016-10-22T06:48:45Z</time>
      </trkpt>
      <trkpt lat="42.446904000" lon="-2.567073000">
        <ele>460.80</ele>
        <time>2016-10-22T06:48:46Z</time>
      </trkpt>
      <trkpt lat="42.446883000" lon="-2.567108000">
        <ele>460.90</ele>
        <time>2016-10-22T06:48:47Z</time>
      </trkpt>
      <trkpt lat="42.446860000" lon="-2.567138000">
        <ele>461.00</ele>
        <time>2016-10-22T06:48:48Z</time>
      </trkpt>
      <trkpt lat="42.446834000" lon="-2.567169000">
        <ele>461.10</ele>
        <time>2016-10-22T06:48:49Z</time>
      </trkpt>
      <trkpt lat="42.446812000" lon="-2.567201000">
        <ele>461.10</ele>
        <time>2016-10-22T06:48:50Z</time>
      </trkpt>
      <trkpt lat="42.446788000" lon="-2.567238000">
        <ele>461.30</ele>
        <time>2016-10-22T06:48:51Z</time>
      </trkpt>
      <trkpt lat="42.446767000" lon="-2.567274000">
        <ele>461.30</ele>
        <time>2016-10-22T06:48:52Z</time>
      </trkpt>
      <trkpt lat="42.446746000" lon="-2.567310000">
        <ele>461.30</ele>
        <time>2016-10-22T06:48:53Z</time>
      </trkpt>
      <trkpt lat="42.446728000" lon="-2.567344000">
        <ele>461.20</ele>
        <time>2016-10-22T06:48:54Z</time>
      </trkpt>
      <trkpt lat="42.446708000" lon="-2.567381000">
        <ele>461.20</ele>
        <time>2016-10-22T06:48:55Z</time>
      </trkpt>
      <trkpt lat="42.446681000" lon="-2.567419000">
        <ele>461.30</ele>
        <time>2016-10-22T06:48:56Z</time>
      </trkpt>
      <trkpt lat="42.446655000" lon="-2.567450000">
        <ele>461.30</ele>
        <time>2016-10-22T06:48:57Z</time>
      </trkpt>
      <trkpt lat="42.446631000" lon="-2.567480000">
        <ele>461.30</ele>
        <time>2016-10-22T06:48:58Z</time>
      </trkpt>
      <trkpt lat="42.446600000" lon="-2.567513000">
        <ele>461.40</ele>
        <time>2016-10-22T06:48:59Z</time>
      </trkpt>
      <trkpt lat="42.446570000" lon="-2.567537000">
        <ele>461.40</ele>
        <time>2016-10-22T06:49:00Z</time>
      </trkpt>
      <trkpt lat="42.446544000" lon="-2.567559000">
        <ele>461.50</ele>
        <time>2016-10-22T06:49:01Z</time>
      </trkpt>
      <trkpt lat="42.446525000" lon="-2.567588000">
        <ele>461.50</ele>
        <time>2016-10-22T06:49:02Z</time>
      </trkpt>
      <trkpt lat="42.446509000" lon="-2.567620000">
        <ele>461.50</ele>
        <time>2016-10-22T06:49:03Z</time>
      </trkpt>
      <trkpt lat="42.446493000" lon="-2.567648000">
        <ele>461.50</ele>
        <time>2016-10-22T06:49:04Z</time>
      </trkpt>
      <trkpt lat="42.446482000" lon="-2.567678000">
        <ele>461.60</ele>
        <time>2016-10-22T06:49:05Z</time>
      </trkpt>
      <trkpt lat="42.446472000" lon="-2.567705000">
        <ele>461.70</ele>
        <time>2016-10-22T06:49:06Z</time>
      </trkpt>
      <trkpt lat="42.446462000" lon="-2.567730000">
        <ele>461.80</ele>
        <time>2016-10-22T06:49:07Z</time>
      </trkpt>
      <trkpt lat="42.446454000" lon="-2.567753000">
        <ele>461.90</ele>
        <time>2016-10-22T06:49:08Z</time>
      </trkpt>
      <trkpt lat="42.446445000" lon="-2.567779000">
        <ele>461.90</ele>
        <time>2016-10-22T06:49:09Z</time>
      </trkpt>
      <trkpt lat="42.446437000" lon="-2.567802000">
        <ele>462.00</ele>
        <time>2016-10-22T06:49:10Z</time>
      </trkpt>
      <trkpt lat="42.446428000" lon="-2.567815000">
        <ele>461.90</ele>
        <time>2016-10-22T06:49:11Z</time>
      </trkpt>
      <trkpt lat="42.446414000" lon="-2.567838000">
        <ele>461.70</ele>
        <time>2016-10-22T06:49:13Z</time>
      </trkpt>
      <trkpt lat="42.446408000" lon="-2.567849000">
        <ele>461.70</ele>
        <time>2016-10-22T06:49:14Z</time>
      </trkpt>
      <trkpt lat="42.446403000" lon="-2.567863000">
        <ele>461.70</ele>
        <time>2016-10-22T06:49:15Z</time>
      </trkpt>
      <trkpt lat="42.446397000" lon="-2.567874000">
        <ele>461.80</ele>
        <time>2016-10-22T06:49:16Z</time>
      </trkpt>
      <trkpt lat="42.446389000" lon="-2.567889000">
        <ele>461.80</ele>
        <time>2016-10-22T06:49:17Z</time>
      </trkpt>
      <trkpt lat="42.446381000" lon="-2.567902000">
        <ele>461.80</ele>
        <time>2016-10-22T06:49:18Z</time>
      </trkpt>
      <trkpt lat="42.446365000" lon="-2.567910000">
        <ele>461.80</ele>
        <time>2016-10-22T06:49:19Z</time>
      </trkpt>
      <trkpt lat="42.446340000" lon="-2.567898000">
        <ele>461.80</ele>
        <time>2016-10-22T06:49:20Z</time>
      </trkpt>
      <trkpt lat="42.446323000" lon="-2.567875000">
        <ele>461.80</ele>
        <time>2016-10-22T06:49:21Z</time>
      </trkpt>
      <trkpt lat="42.446304000" lon="-2.567854000">
        <ele>461.80</ele>
        <time>2016-10-22T06:49:22Z</time>
      </trkpt>
      <trkpt lat="42.446288000" lon="-2.567824000">
        <ele>462.00</ele>
        <time>2016-10-22T06:49:23Z</time>
      </trkpt>
      <trkpt lat="42.446281000" lon="-2.567776000">
        <ele>462.20</ele>
        <time>2016-10-22T06:49:24Z</time>
      </trkpt>
      <trkpt lat="42.446292000" lon="-2.567727000">
        <ele>462.10</ele>
        <time>2016-10-22T06:49:25Z</time>
      </trkpt>
      <trkpt lat="42.446306000" lon="-2.567674000">
        <ele>462.00</ele>
        <time>2016-10-22T06:49:26Z</time>
      </trkpt>
      <trkpt lat="42.446321000" lon="-2.567622000">
        <ele>462.20</ele>
        <time>2016-10-22T06:49:27Z</time>
      </trkpt>
      <trkpt lat="42.446333000" lon="-2.567569000">
        <ele>462.30</ele>
        <time>2016-10-22T06:49:28Z</time>
      </trkpt>
      <trkpt lat="42.446345000" lon="-2.567514000">
        <ele>462.10</ele>
        <time>2016-10-22T06:49:29Z</time>
      </trkpt>
      <trkpt lat="42.446351000" lon="-2.567458000">
        <ele>462.00</ele>
        <time>2016-10-22T06:49:30Z</time>
      </trkpt>
      <trkpt lat="42.446354000" lon="-2.567401000">
        <ele>461.70</ele>
        <time>2016-10-22T06:49:31Z</time>
      </trkpt>
      <trkpt lat="42.446349000" lon="-2.567349000">
        <ele>461.50</ele>
        <time>2016-10-22T06:49:32Z</time>
      </trkpt>
      <trkpt lat="42.446340000" lon="-2.567295000">
        <ele>461.40</ele>
        <time>2016-10-22T06:49:33Z</time>
      </trkpt>
      <trkpt lat="42.446328000" lon="-2.567241000">
        <ele>461.20</ele>
        <time>2016-10-22T06:49:34Z</time>
      </trkpt>
      <trkpt lat="42.446313000" lon="-2.567191000">
        <ele>461.20</ele>
        <time>2016-10-22T06:49:35Z</time>
      </trkpt>
      <trkpt lat="42.446294000" lon="-2.567143000">
        <ele>461.10</ele>
        <time>2016-10-22T06:49:36Z</time>
      </trkpt>
      <trkpt lat="42.446275000" lon="-2.567098000">
        <ele>461.10</ele>
        <time>2016-10-22T06:49:37Z</time>
      </trkpt>
      <trkpt lat="42.446258000" lon="-2.567050000">
        <ele>461.20</ele>
        <time>2016-10-22T06:49:38Z</time>
      </trkpt>
      <trkpt lat="42.446239000" lon="-2.567004000">
        <ele>461.40</ele>
        <time>2016-10-22T06:49:39Z</time>
      </trkpt>
      <trkpt lat="42.446216000" lon="-2.566963000">
        <ele>461.60</ele>
        <time>2016-10-22T06:49:40Z</time>
      </trkpt>
      <trkpt lat="42.446192000" lon="-2.566928000">
        <ele>461.60</ele>
        <time>2016-10-22T06:49:41Z</time>
      </trkpt>
      <trkpt lat="42.446163000" lon="-2.566892000">
        <ele>461.70</ele>
        <time>2016-10-22T06:49:42Z</time>
      </trkpt>
      <trkpt lat="42.446132000" lon="-2.566856000">
        <ele>461.70</ele>
        <time>2016-10-22T06:49:43Z</time>
      </trkpt>
      <trkpt lat="42.446101000" lon="-2.566816000">
        <ele>461.70</ele>
        <time>2016-10-22T06:49:44Z</time>
      </trkpt>
      <trkpt lat="42.446067000" lon="-2.566777000">
        <ele>461.70</ele>
        <time>2016-10-22T06:49:45Z</time>
      </trkpt>
      <trkpt lat="42.446032000" lon="-2.566737000">
        <ele>461.70</ele>
        <time>2016-10-22T06:49:46Z</time>
      </trkpt>
      <trkpt lat="42.445999000" lon="-2.566696000">
        <ele>461.50</ele>
        <time>2016-10-22T06:49:47Z</time>
      </trkpt>
      <trkpt lat="42.445968000" lon="-2.566656000">
        <ele>461.40</ele>
        <time>2016-10-22T06:49:48Z</time>
      </trkpt>
      <trkpt lat="42.445935000" lon="-2.566610000">
        <ele>461.30</ele>
        <time>2016-10-22T06:49:49Z</time>
      </trkpt>
      <trkpt lat="42.445903000" lon="-2.566563000">
        <ele>461.20</ele>
        <time>2016-10-22T06:49:50Z</time>
      </trkpt>
      <trkpt lat="42.445873000" lon="-2.566514000">
        <ele>461.10</ele>
        <time>2016-10-22T06:49:51Z</time>
      </trkpt>
      <trkpt lat="42.445839000" lon="-2.566466000">
        <ele>461.00</ele>
        <time>2016-10-22T06:49:52Z</time>
      </trkpt>
      <trkpt lat="42.445806000" lon="-2.566421000">
        <ele>460.90</ele>
        <time>2016-10-22T06:49:53Z</time>
      </trkpt>
      <trkpt lat="42.445770000" lon="-2.566379000">
        <ele>460.90</ele>
        <time>2016-10-22T06:49:54Z</time>
      </trkpt>
      <trkpt lat="42.445730000" lon="-2.566337000">
        <ele>460.80</ele>
        <time>2016-10-22T06:49:55Z</time>
      </trkpt>
      <trkpt lat="42.445693000" lon="-2.566301000">
        <ele>460.80</ele>
        <time>2016-10-22T06:49:56Z</time>
      </trkpt>
      <trkpt lat="42.445659000" lon="-2.566268000">
        <ele>460.70</ele>
        <time>2016-10-22T06:49:57Z</time>
      </trkpt>
      <trkpt lat="42.445625000" lon="-2.566231000">
        <ele>460.60</ele>
        <time>2016-10-22T06:49:58Z</time>
      </trkpt>
      <trkpt lat="42.445591000" lon="-2.566194000">
        <ele>460.60</ele>
        <time>2016-10-22T06:49:59Z</time>
      </trkpt>
      <trkpt lat="42.445558000" lon="-2.566154000">
        <ele>460.60</ele>
        <time>2016-10-22T06:50:00Z</time>
      </trkpt>
      <trkpt lat="42.445525000" lon="-2.566110000">
        <ele>460.50</ele>
        <time>2016-10-22T06:50:01Z</time>
      </trkpt>
      <trkpt lat="42.445494000" lon="-2.566071000">
        <ele>460.40</ele>
        <time>2016-10-22T06:50:02Z</time>
      </trkpt>
      <trkpt lat="42.445464000" lon="-2.566031000">
        <ele>460.30</ele>
        <time>2016-10-22T06:50:03Z</time>
      </trkpt>
      <trkpt lat="42.445441000" lon="-2.565985000">
        <ele>460.30</ele>
        <time>2016-10-22T06:50:04Z</time>
      </trkpt>
      <trkpt lat="42.445416000" lon="-2.565939000">
        <ele>460.40</ele>
        <time>2016-10-22T06:50:05Z</time>
      </trkpt>
      <trkpt lat="42.445391000" lon="-2.565890000">
        <ele>460.50</ele>
        <time>2016-10-22T06:50:06Z</time>
      </trkpt>
      <trkpt lat="42.445367000" lon="-2.565840000">
        <ele>460.50</ele>
        <time>2016-10-22T06:50:07Z</time>
      </trkpt>
      <trkpt lat="42.445344000" lon="-2.565788000">
        <ele>460.60</ele>
        <time>2016-10-22T06:50:08Z</time>
      </trkpt>
      <trkpt lat="42.445320000" lon="-2.565731000">
        <ele>460.60</ele>
        <time>2016-10-22T06:50:09Z</time>
      </trkpt>
      <trkpt lat="42.445297000" lon="-2.565684000">
        <ele>460.60</ele>
        <time>2016-10-22T06:50:10Z</time>
      </trkpt>
      <trkpt lat="42.445273000" lon="-2.565632000">
        <ele>460.70</ele>
        <time>2016-10-22T06:50:11Z</time>
      </trkpt>
      <trkpt lat="42.445248000" lon="-2.565579000">
        <ele>460.70</ele>
        <time>2016-10-22T06:50:12Z</time>
      </trkpt>
      <trkpt lat="42.445203000" lon="-2.565476000">
        <ele>460.80</ele>
        <time>2016-10-22T06:50:14Z</time>
      </trkpt>
      <trkpt lat="42.445178000" lon="-2.565421000">
        <ele>460.60</ele>
        <time>2016-10-22T06:50:15Z</time>
      </trkpt>
      <trkpt lat="42.445152000" lon="-2.565369000">
        <ele>460.50</ele>
        <time>2016-10-22T06:50:16Z</time>
      </trkpt>
      <trkpt lat="42.445127000" lon="-2.565316000">
        <ele>460.50</ele>
        <time>2016-10-22T06:50:17Z</time>
      </trkpt>
      <trkpt lat="42.445105000" lon="-2.565264000">
        <ele>460.50</ele>
        <time>2016-10-22T06:50:18Z</time>
      </trkpt>
      <trkpt lat="42.445078000" lon="-2.565207000">
        <ele>460.40</ele>
        <time>2016-10-22T06:50:19Z</time>
      </trkpt>
      <trkpt lat="42.445054000" lon="-2.565147000">
        <ele>460.20</ele>
        <time>2016-10-22T06:50:20Z</time>
      </trkpt>
      <trkpt lat="42.445030000" lon="-2.565096000">
        <ele>460.00</ele>
        <time>2016-10-22T06:50:21Z</time>
      </trkpt>
      <trkpt lat="42.445008000" lon="-2.565046000">
        <ele>459.80</ele>
        <time>2016-10-22T06:50:22Z</time>
      </trkpt>
      <trkpt lat="42.444990000" lon="-2.564993000">
        <ele>459.60</ele>
        <time>2016-10-22T06:50:23Z</time>
      </trkpt>
      <trkpt lat="42.444971000" lon="-2.564940000">
        <ele>459.50</ele>
        <time>2016-10-22T06:50:24Z</time>
      </trkpt>
      <trkpt lat="42.444952000" lon="-2.564887000">
        <ele>459.50</ele>
        <time>2016-10-22T06:50:25Z</time>
      </trkpt>
      <trkpt lat="42.444934000" lon="-2.564832000">
        <ele>459.60</ele>
        <time>2016-10-22T06:50:26Z</time>
      </trkpt>
      <trkpt lat="42.444921000" lon="-2.564781000">
        <ele>459.60</ele>
        <time>2016-10-22T06:50:27Z</time>
      </trkpt>
      <trkpt lat="42.444906000" lon="-2.564726000">
        <ele>459.60</ele>
        <time>2016-10-22T06:50:28Z</time>
      </trkpt>
      <trkpt lat="42.444891000" lon="-2.564677000">
        <ele>459.80</ele>
        <time>2016-10-22T06:50:29Z</time>
      </trkpt>
      <trkpt lat="42.444879000" lon="-2.564622000">
        <ele>459.90</ele>
        <time>2016-10-22T06:50:30Z</time>
      </trkpt>
      <trkpt lat="42.444867000" lon="-2.564570000">
        <ele>460.00</ele>
        <time>2016-10-22T06:50:31Z</time>
      </trkpt>
      <trkpt lat="42.444857000" lon="-2.564513000">
        <ele>460.10</ele>
        <time>2016-10-22T06:50:32Z</time>
      </trkpt>
      <trkpt lat="42.444845000" lon="-2.564457000">
        <ele>460.20</ele>
        <time>2016-10-22T06:50:33Z</time>
      </trkpt>
      <trkpt lat="42.444830000" lon="-2.564405000">
        <ele>460.30</ele>
        <time>2016-10-22T06:50:34Z</time>
      </trkpt>
      <trkpt lat="42.444822000" lon="-2.564349000">
        <ele>460.50</ele>
        <time>2016-10-22T06:50:35Z</time>
      </trkpt>
      <trkpt lat="42.444815000" lon="-2.564293000">
        <ele>460.60</ele>
        <time>2016-10-22T06:50:36Z</time>
      </trkpt>
      <trkpt lat="42.444810000" lon="-2.564237000">
        <ele>460.80</ele>
        <time>2016-10-22T06:50:37Z</time>
      </trkpt>
      <trkpt lat="42.444805000" lon="-2.564180000">
        <ele>460.90</ele>
        <time>2016-10-22T06:50:38Z</time>
      </trkpt>
      <trkpt lat="42.444800000" lon="-2.564124000">
        <ele>461.10</ele>
        <time>2016-10-22T06:50:39Z</time>
      </trkpt>
      <trkpt lat="42.444794000" lon="-2.564070000">
        <ele>461.10</ele>
        <time>2016-10-22T06:50:40Z</time>
      </trkpt>
      <trkpt lat="42.444791000" lon="-2.564016000">
        <ele>461.20</ele>
        <time>2016-10-22T06:50:41Z</time>
      </trkpt>
      <trkpt lat="42.444784000" lon="-2.563965000">
        <ele>461.30</ele>
        <time>2016-10-22T06:50:42Z</time>
      </trkpt>
      <trkpt lat="42.444781000" lon="-2.563911000">
        <ele>461.20</ele>
        <time>2016-10-22T06:50:43Z</time>
      </trkpt>
      <trkpt lat="42.444780000" lon="-2.563854000">
        <ele>461.10</ele>
        <time>2016-10-22T06:50:44Z</time>
      </trkpt>
      <trkpt lat="42.444780000" lon="-2.563793000">
        <ele>461.20</ele>
        <time>2016-10-22T06:50:45Z</time>
      </trkpt>
      <trkpt lat="42.444782000" lon="-2.563733000">
        <ele>461.30</ele>
        <time>2016-10-22T06:50:46Z</time>
      </trkpt>
      <trkpt lat="42.444783000" lon="-2.563674000">
        <ele>461.30</ele>
        <time>2016-10-22T06:50:47Z</time>
      </trkpt>
      <trkpt lat="42.444786000" lon="-2.563618000">
        <ele>461.30</ele>
        <time>2016-10-22T06:50:48Z</time>
      </trkpt>
      <trkpt lat="42.444788000" lon="-2.563565000">
        <ele>461.30</ele>
        <time>2016-10-22T06:50:49Z</time>
      </trkpt>
      <trkpt lat="42.444791000" lon="-2.563507000">
        <ele>461.30</ele>
        <time>2016-10-22T06:50:50Z</time>
      </trkpt>
      <trkpt lat="42.444796000" lon="-2.563453000">
        <ele>461.20</ele>
        <time>2016-10-22T06:50:51Z</time>
      </trkpt>
      <trkpt lat="42.444801000" lon="-2.563394000">
        <ele>461.10</ele>
        <time>2016-10-22T06:50:52Z</time>
      </trkpt>
      <trkpt lat="42.444806000" lon="-2.563337000">
        <ele>461.10</ele>
        <time>2016-10-22T06:50:53Z</time>
      </trkpt>
      <trkpt lat="42.444813000" lon="-2.563280000">
        <ele>461.10</ele>
        <time>2016-10-22T06:50:54Z</time>
      </trkpt>
      <trkpt lat="42.444820000" lon="-2.563225000">
        <ele>461.00</ele>
        <time>2016-10-22T06:50:55Z</time>
      </trkpt>
      <trkpt lat="42.444828000" lon="-2.563171000">
        <ele>461.00</ele>
        <time>2016-10-22T06:50:56Z</time>
      </trkpt>
      <trkpt lat="42.444838000" lon="-2.563116000">
        <ele>461.00</ele>
        <time>2016-10-22T06:50:57Z</time>
      </trkpt>
      <trkpt lat="42.444849000" lon="-2.563059000">
        <ele>461.00</ele>
        <time>2016-10-22T06:50:58Z</time>
      </trkpt>
      <trkpt lat="42.444859000" lon="-2.563004000">
        <ele>461.00</ele>
        <time>2016-10-22T06:50:59Z</time>
      </trkpt>
      <trkpt lat="42.444867000" lon="-2.562950000">
        <ele>461.00</ele>
        <time>2016-10-22T06:51:00Z</time>
      </trkpt>
      <trkpt lat="42.444877000" lon="-2.562897000">
        <ele>461.00</ele>
        <time>2016-10-22T06:51:01Z</time>
      </trkpt>
      <trkpt lat="42.444887000" lon="-2.562846000">
        <ele>461.00</ele>
        <time>2016-10-22T06:51:02Z</time>
      </trkpt>
      <trkpt lat="42.444896000" lon="-2.562793000">
        <ele>461.00</ele>
        <time>2016-10-22T06:51:03Z</time>
      </trkpt>
      <trkpt lat="42.444906000" lon="-2.562737000">
        <ele>461.10</ele>
        <time>2016-10-22T06:51:04Z</time>
      </trkpt>
      <trkpt lat="42.444920000" lon="-2.562683000">
        <ele>461.30</ele>
        <time>2016-10-22T06:51:05Z</time>
      </trkpt>
      <trkpt lat="42.444933000" lon="-2.562628000">
        <ele>461.50</ele>
        <time>2016-10-22T06:51:06Z</time>
      </trkpt>
      <trkpt lat="42.444947000" lon="-2.562572000">
        <ele>461.40</ele>
        <time>2016-10-22T06:51:07Z</time>
      </trkpt>
      <trkpt lat="42.444963000" lon="-2.562510000">
        <ele>461.40</ele>
        <time>2016-10-22T06:51:08Z</time>
      </trkpt>
      <trkpt lat="42.444980000" lon="-2.562448000">
        <ele>461.30</ele>
        <time>2016-10-22T06:51:09Z</time>
      </trkpt>
      <trkpt lat="42.444993000" lon="-2.562389000">
        <ele>461.30</ele>
        <time>2016-10-22T06:51:10Z</time>
      </trkpt>
      <trkpt lat="42.445004000" lon="-2.562328000">
        <ele>461.20</ele>
        <time>2016-10-22T06:51:11Z</time>
      </trkpt>
      <trkpt lat="42.445018000" lon="-2.562270000">
        <ele>461.10</ele>
        <time>2016-10-22T06:51:12Z</time>
      </trkpt>
      <trkpt lat="42.445031000" lon="-2.562211000">
        <ele>460.90</ele>
        <time>2016-10-22T06:51:13Z</time>
      </trkpt>
      <trkpt lat="42.445053000" lon="-2.562090000">
        <ele>460.70</ele>
        <time>2016-10-22T06:51:15Z</time>
      </trkpt>
      <trkpt lat="42.445064000" lon="-2.562029000">
        <ele>460.60</ele>
        <time>2016-10-22T06:51:16Z</time>
      </trkpt>
      <trkpt lat="42.445077000" lon="-2.561967000">
        <ele>460.50</ele>
        <time>2016-10-22T06:51:17Z</time>
      </trkpt>
      <trkpt lat="42.445087000" lon="-2.561907000">
        <ele>460.50</ele>
        <time>2016-10-22T06:51:18Z</time>
      </trkpt>
      <trkpt lat="42.445098000" lon="-2.561846000">
        <ele>460.50</ele>
        <time>2016-10-22T06:51:19Z</time>
      </trkpt>
      <trkpt lat="42.445108000" lon="-2.561784000">
        <ele>460.40</ele>
        <time>2016-10-22T06:51:20Z</time>
      </trkpt>
      <trkpt lat="42.445119000" lon="-2.561725000">
        <ele>460.40</ele>
        <time>2016-10-22T06:51:21Z</time>
      </trkpt>
      <trkpt lat="42.445126000" lon="-2.561668000">
        <ele>460.40</ele>
        <time>2016-10-22T06:51:22Z</time>
      </trkpt>
      <trkpt lat="42.445131000" lon="-2.561611000">
        <ele>460.30</ele>
        <time>2016-10-22T06:51:23Z</time>
      </trkpt>
      <trkpt lat="42.445132000" lon="-2.561553000">
        <ele>460.30</ele>
        <time>2016-10-22T06:51:24Z</time>
      </trkpt>
      <trkpt lat="42.445129000" lon="-2.561498000">
        <ele>460.20</ele>
        <time>2016-10-22T06:51:25Z</time>
      </trkpt>
      <trkpt lat="42.445125000" lon="-2.561441000">
        <ele>460.20</ele>
        <time>2016-10-22T06:51:26Z</time>
      </trkpt>
      <trkpt lat="42.445120000" lon="-2.561385000">
        <ele>460.10</ele>
        <time>2016-10-22T06:51:27Z</time>
      </trkpt>
      <trkpt lat="42.445116000" lon="-2.561332000">
        <ele>460.00</ele>
        <time>2016-10-22T06:51:28Z</time>
      </trkpt>
      <trkpt lat="42.445115000" lon="-2.561278000">
        <ele>460.10</ele>
        <time>2016-10-22T06:51:29Z</time>
      </trkpt>
      <trkpt lat="42.445110000" lon="-2.561228000">
        <ele>460.10</ele>
        <time>2016-10-22T06:51:30Z</time>
      </trkpt>
      <trkpt lat="42.445102000" lon="-2.561174000">
        <ele>460.10</ele>
        <time>2016-10-22T06:51:31Z</time>
      </trkpt>
      <trkpt lat="42.445093000" lon="-2.561122000">
        <ele>460.10</ele>
        <time>2016-10-22T06:51:32Z</time>
      </trkpt>
      <trkpt lat="42.445080000" lon="-2.561070000">
        <ele>460.10</ele>
        <time>2016-10-22T06:51:33Z</time>
      </trkpt>
      <trkpt lat="42.445064000" lon="-2.561023000">
        <ele>460.30</ele>
        <time>2016-10-22T06:51:34Z</time>
      </trkpt>
      <trkpt lat="42.445043000" lon="-2.560978000">
        <ele>460.40</ele>
        <time>2016-10-22T06:51:35Z</time>
      </trkpt>
      <trkpt lat="42.445020000" lon="-2.560932000">
        <ele>460.40</ele>
        <time>2016-10-22T06:51:36Z</time>
      </trkpt>
      <trkpt lat="42.444999000" lon="-2.560889000">
        <ele>460.50</ele>
        <time>2016-10-22T06:51:37Z</time>
      </trkpt>
      <trkpt lat="42.444974000" lon="-2.560849000">
        <ele>460.20</ele>
        <time>2016-10-22T06:51:38Z</time>
      </trkpt>
      <trkpt lat="42.444945000" lon="-2.560815000">
        <ele>460.10</ele>
        <time>2016-10-22T06:51:39Z</time>
      </trkpt>
      <trkpt lat="42.444918000" lon="-2.560776000">
        <ele>460.00</ele>
        <time>2016-10-22T06:51:40Z</time>
      </trkpt>
      <trkpt lat="42.444893000" lon="-2.560734000">
        <ele>459.90</ele>
        <time>2016-10-22T06:51:41Z</time>
      </trkpt>
      <trkpt lat="42.444866000" lon="-2.560692000">
        <ele>459.90</ele>
        <time>2016-10-22T06:51:42Z</time>
      </trkpt>
      <trkpt lat="42.444840000" lon="-2.560650000">
        <ele>459.80</ele>
        <time>2016-10-22T06:51:43Z</time>
      </trkpt>
      <trkpt lat="42.444815000" lon="-2.560607000">
        <ele>459.90</ele>
        <time>2016-10-22T06:51:44Z</time>
      </trkpt>
      <trkpt lat="42.444787000" lon="-2.560564000">
        <ele>460.00</ele>
        <time>2016-10-22T06:51:45Z</time>
      </trkpt>
      <trkpt lat="42.444760000" lon="-2.560517000">
        <ele>460.10</ele>
        <time>2016-10-22T06:51:46Z</time>
      </trkpt>
      <trkpt lat="42.444735000" lon="-2.560473000">
        <ele>460.30</ele>
        <time>2016-10-22T06:51:47Z</time>
      </trkpt>
      <trkpt lat="42.444710000" lon="-2.560427000">
        <ele>460.40</ele>
        <time>2016-10-22T06:51:48Z</time>
      </trkpt>
      <trkpt lat="42.444688000" lon="-2.560382000">
        <ele>460.50</ele>
        <time>2016-10-22T06:51:49Z</time>
      </trkpt>
      <trkpt lat="42.444666000" lon="-2.560343000">
        <ele>460.60</ele>
        <time>2016-10-22T06:51:50Z</time>
      </trkpt>
      <trkpt lat="42.444640000" lon="-2.560298000">
        <ele>460.70</ele>
        <time>2016-10-22T06:51:51Z</time>
      </trkpt>
      <trkpt lat="42.444617000" lon="-2.560255000">
        <ele>460.80</ele>
        <time>2016-10-22T06:51:52Z</time>
      </trkpt>
      <trkpt lat="42.444593000" lon="-2.560209000">
        <ele>460.80</ele>
        <time>2016-10-22T06:51:53Z</time>
      </trkpt>
      <trkpt lat="42.444568000" lon="-2.560166000">
        <ele>460.90</ele>
        <time>2016-10-22T06:51:54Z</time>
      </trkpt>
      <trkpt lat="42.444539000" lon="-2.560123000">
        <ele>460.90</ele>
        <time>2016-10-22T06:51:55Z</time>
      </trkpt>
      <trkpt lat="42.444513000" lon="-2.560077000">
        <ele>460.80</ele>
        <time>2016-10-22T06:51:56Z</time>
      </trkpt>
      <trkpt lat="42.444486000" lon="-2.560031000">
        <ele>460.70</ele>
        <time>2016-10-22T06:51:57Z</time>
      </trkpt>
      <trkpt lat="42.444463000" lon="-2.559985000">
        <ele>460.60</ele>
        <time>2016-10-22T06:51:58Z</time>
      </trkpt>
      <trkpt lat="42.444436000" lon="-2.559939000">
        <ele>460.60</ele>
        <time>2016-10-22T06:51:59Z</time>
      </trkpt>
      <trkpt lat="42.444410000" lon="-2.559894000">
        <ele>460.80</ele>
        <time>2016-10-22T06:52:00Z</time>
      </trkpt>
      <trkpt lat="42.444384000" lon="-2.559850000">
        <ele>461.00</ele>
        <time>2016-10-22T06:52:01Z</time>
      </trkpt>
      <trkpt lat="42.444355000" lon="-2.559807000">
        <ele>461.10</ele>
        <time>2016-10-22T06:52:02Z</time>
      </trkpt>
      <trkpt lat="42.444329000" lon="-2.559760000">
        <ele>461.30</ele>
        <time>2016-10-22T06:52:03Z</time>
      </trkpt>
      <trkpt lat="42.444301000" lon="-2.559718000">
        <ele>461.40</ele>
        <time>2016-10-22T06:52:04Z</time>
      </trkpt>
      <trkpt lat="42.444274000" lon="-2.559679000">
        <ele>461.50</ele>
        <time>2016-10-22T06:52:05Z</time>
      </trkpt>
      <trkpt lat="42.444247000" lon="-2.559642000">
        <ele>461.60</ele>
        <time>2016-10-22T06:52:06Z</time>
      </trkpt>
      <trkpt lat="42.444218000" lon="-2.559601000">
        <ele>461.60</ele>
        <time>2016-10-22T06:52:07Z</time>
      </trkpt>
      <trkpt lat="42.444187000" lon="-2.559562000">
        <ele>461.60</ele>
        <time>2016-10-22T06:52:08Z</time>
      </trkpt>
      <trkpt lat="42.444158000" lon="-2.559523000">
        <ele>461.70</ele>
        <time>2016-10-22T06:52:09Z</time>
      </trkpt>
      <trkpt lat="42.444130000" lon="-2.559485000">
        <ele>461.70</ele>
        <time>2016-10-22T06:52:10Z</time>
      </trkpt>
      <trkpt lat="42.444099000" lon="-2.559447000">
        <ele>461.80</ele>
        <time>2016-10-22T06:52:11Z</time>
      </trkpt>
      <trkpt lat="42.444067000" lon="-2.559406000">
        <ele>461.80</ele>
        <time>2016-10-22T06:52:12Z</time>
      </trkpt>
      <trkpt lat="42.444036000" lon="-2.559368000">
        <ele>462.00</ele>
        <time>2016-10-22T06:52:13Z</time>
      </trkpt>
      <trkpt lat="42.444002000" lon="-2.559332000">
        <ele>462.10</ele>
        <time>2016-10-22T06:52:14Z</time>
      </trkpt>
      <trkpt lat="42.443936000" lon="-2.559259000">
        <ele>462.10</ele>
        <time>2016-10-22T06:52:16Z</time>
      </trkpt>
      <trkpt lat="42.443902000" lon="-2.559222000">
        <ele>462.20</ele>
        <time>2016-10-22T06:52:17Z</time>
      </trkpt>
      <trkpt lat="42.443870000" lon="-2.559185000">
        <ele>462.40</ele>
        <time>2016-10-22T06:52:18Z</time>
      </trkpt>
      <trkpt lat="42.443834000" lon="-2.559149000">
        <ele>462.20</ele>
        <time>2016-10-22T06:52:19Z</time>
      </trkpt>
      <trkpt lat="42.443802000" lon="-2.559111000">
        <ele>462.10</ele>
        <time>2016-10-22T06:52:20Z</time>
      </trkpt>
      <trkpt lat="42.443768000" lon="-2.559076000">
        <ele>461.90</ele>
        <time>2016-10-22T06:52:21Z</time>
      </trkpt>
      <trkpt lat="42.443733000" lon="-2.559038000">
        <ele>461.80</ele>
        <time>2016-10-22T06:52:22Z</time>
      </trkpt>
      <trkpt lat="42.443698000" lon="-2.559001000">
        <ele>461.70</ele>
        <time>2016-10-22T06:52:23Z</time>
      </trkpt>
      <trkpt lat="42.443661000" lon="-2.558967000">
        <ele>461.60</ele>
        <time>2016-10-22T06:52:24Z</time>
      </trkpt>
      <trkpt lat="42.443629000" lon="-2.558932000">
        <ele>461.60</ele>
        <time>2016-10-22T06:52:25Z</time>
      </trkpt>
      <trkpt lat="42.443596000" lon="-2.558898000">
        <ele>461.50</ele>
        <time>2016-10-22T06:52:26Z</time>
      </trkpt>
      <trkpt lat="42.443564000" lon="-2.558861000">
        <ele>461.50</ele>
        <time>2016-10-22T06:52:27Z</time>
      </trkpt>
      <trkpt lat="42.443532000" lon="-2.558821000">
        <ele>461.50</ele>
        <time>2016-10-22T06:52:28Z</time>
      </trkpt>
      <trkpt lat="42.443505000" lon="-2.558779000">
        <ele>461.70</ele>
        <time>2016-10-22T06:52:29Z</time>
      </trkpt>
      <trkpt lat="42.443480000" lon="-2.558734000">
        <ele>461.90</ele>
        <time>2016-10-22T06:52:30Z</time>
      </trkpt>
      <trkpt lat="42.443454000" lon="-2.558686000">
        <ele>462.00</ele>
        <time>2016-10-22T06:52:31Z</time>
      </trkpt>
      <trkpt lat="42.443429000" lon="-2.558638000">
        <ele>462.10</ele>
        <time>2016-10-22T06:52:32Z</time>
      </trkpt>
      <trkpt lat="42.443403000" lon="-2.558591000">
        <ele>462.20</ele>
        <time>2016-10-22T06:52:33Z</time>
      </trkpt>
      <trkpt lat="42.443377000" lon="-2.558541000">
        <ele>462.30</ele>
        <time>2016-10-22T06:52:34Z</time>
      </trkpt>
      <trkpt lat="42.443349000" lon="-2.558496000">
        <ele>462.30</ele>
        <time>2016-10-22T06:52:35Z</time>
      </trkpt>
      <trkpt lat="42.443317000" lon="-2.558447000">
        <ele>462.40</ele>
        <time>2016-10-22T06:52:36Z</time>
      </trkpt>
      <trkpt lat="42.443285000" lon="-2.558400000">
        <ele>462.30</ele>
        <time>2016-10-22T06:52:37Z</time>
      </trkpt>
      <trkpt lat="42.443251000" lon="-2.558353000">
        <ele>462.20</ele>
        <time>2016-10-22T06:52:38Z</time>
      </trkpt>
      <trkpt lat="42.443218000" lon="-2.558312000">
        <ele>462.10</ele>
        <time>2016-10-22T06:52:39Z</time>
      </trkpt>
      <trkpt lat="42.443187000" lon="-2.558274000">
        <ele>462.10</ele>
        <time>2016-10-22T06:52:40Z</time>
      </trkpt>
      <trkpt lat="42.443153000" lon="-2.558232000">
        <ele>462.00</ele>
        <time>2016-10-22T06:52:41Z</time>
      </trkpt>
      <trkpt lat="42.443117000" lon="-2.558189000">
        <ele>461.90</ele>
        <time>2016-10-22T06:52:42Z</time>
      </trkpt>
      <trkpt lat="42.443083000" lon="-2.558145000">
        <ele>461.80</ele>
        <time>2016-10-22T06:52:43Z</time>
      </trkpt>
      <trkpt lat="42.443047000" lon="-2.558105000">
        <ele>461.80</ele>
        <time>2016-10-22T06:52:44Z</time>
      </trkpt>
      <trkpt lat="42.443012000" lon="-2.558065000">
        <ele>461.80</ele>
        <time>2016-10-22T06:52:45Z</time>
      </trkpt>
      <trkpt lat="42.442977000" lon="-2.558022000">
        <ele>461.70</ele>
        <time>2016-10-22T06:52:46Z</time>
      </trkpt>
      <trkpt lat="42.442943000" lon="-2.557981000">
        <ele>461.90</ele>
        <time>2016-10-22T06:52:47Z</time>
      </trkpt>
      <trkpt lat="42.442911000" lon="-2.557941000">
        <ele>461.90</ele>
        <time>2016-10-22T06:52:48Z</time>
      </trkpt>
      <trkpt lat="42.442873000" lon="-2.557903000">
        <ele>462.00</ele>
        <time>2016-10-22T06:52:49Z</time>
      </trkpt>
      <trkpt lat="42.442840000" lon="-2.557862000">
        <ele>462.10</ele>
        <time>2016-10-22T06:52:50Z</time>
      </trkpt>
      <trkpt lat="42.442804000" lon="-2.557821000">
        <ele>462.00</ele>
        <time>2016-10-22T06:52:51Z</time>
      </trkpt>
      <trkpt lat="42.442769000" lon="-2.557780000">
        <ele>462.00</ele>
        <time>2016-10-22T06:52:52Z</time>
      </trkpt>
      <trkpt lat="42.442736000" lon="-2.557739000">
        <ele>462.00</ele>
        <time>2016-10-22T06:52:53Z</time>
      </trkpt>
      <trkpt lat="42.442703000" lon="-2.557701000">
        <ele>462.00</ele>
        <time>2016-10-22T06:52:54Z</time>
      </trkpt>
      <trkpt lat="42.442670000" lon="-2.557662000">
        <ele>461.90</ele>
        <time>2016-10-22T06:52:55Z</time>
      </trkpt>
      <trkpt lat="42.442637000" lon="-2.557622000">
        <ele>461.80</ele>
        <time>2016-10-22T06:52:56Z</time>
      </trkpt>
      <trkpt lat="42.442600000" lon="-2.557584000">
        <ele>461.80</ele>
        <time>2016-10-22T06:52:57Z</time>
      </trkpt>
      <trkpt lat="42.442565000" lon="-2.557548000">
        <ele>461.80</ele>
        <time>2016-10-22T06:52:58Z</time>
      </trkpt>
      <trkpt lat="42.442531000" lon="-2.557513000">
        <ele>461.70</ele>
        <time>2016-10-22T06:52:59Z</time>
      </trkpt>
      <trkpt lat="42.442496000" lon="-2.557478000">
        <ele>461.70</ele>
        <time>2016-10-22T06:53:00Z</time>
      </trkpt>
      <trkpt lat="42.442460000" lon="-2.557445000">
        <ele>461.80</ele>
        <time>2016-10-22T06:53:01Z</time>
      </trkpt>
      <trkpt lat="42.442426000" lon="-2.557410000">
        <ele>461.90</ele>
        <time>2016-10-22T06:53:02Z</time>
      </trkpt>
      <trkpt lat="42.442390000" lon="-2.557373000">
        <ele>462.00</ele>
        <time>2016-10-22T06:53:03Z</time>
      </trkpt>
      <trkpt lat="42.442356000" lon="-2.557337000">
        <ele>462.00</ele>
        <time>2016-10-22T06:53:04Z</time>
      </trkpt>
      <trkpt lat="42.442320000" lon="-2.557304000">
        <ele>462.10</ele>
        <time>2016-10-22T06:53:05Z</time>
      </trkpt>
      <trkpt lat="42.442285000" lon="-2.557267000">
        <ele>462.10</ele>
        <time>2016-10-22T06:53:06Z</time>
      </trkpt>
      <trkpt lat="42.442249000" lon="-2.557234000">
        <ele>462.10</ele>
        <time>2016-10-22T06:53:07Z</time>
      </trkpt>
      <trkpt lat="42.442214000" lon="-2.557198000">
        <ele>462.00</ele>
        <time>2016-10-22T06:53:08Z</time>
      </trkpt>
      <trkpt lat="42.442182000" lon="-2.557167000">
        <ele>462.00</ele>
        <time>2016-10-22T06:53:09Z</time>
      </trkpt>
      <trkpt lat="42.442149000" lon="-2.557134000">
        <ele>462.00</ele>
        <time>2016-10-22T06:53:10Z</time>
      </trkpt>
      <trkpt lat="42.442116000" lon="-2.557100000">
        <ele>462.10</ele>
        <time>2016-10-22T06:53:11Z</time>
      </trkpt>
      <trkpt lat="42.442080000" lon="-2.557065000">
        <ele>462.20</ele>
        <time>2016-10-22T06:53:12Z</time>
      </trkpt>
      <trkpt lat="42.442045000" lon="-2.557029000">
        <ele>462.30</ele>
        <time>2016-10-22T06:53:13Z</time>
      </trkpt>
      <trkpt lat="42.442010000" lon="-2.556993000">
        <ele>462.40</ele>
        <time>2016-10-22T06:53:14Z</time>
      </trkpt>
      <trkpt lat="42.441975000" lon="-2.556958000">
        <ele>462.50</ele>
        <time>2016-10-22T06:53:15Z</time>
      </trkpt>
      <trkpt lat="42.441905000" lon="-2.556891000">
        <ele>462.60</ele>
        <time>2016-10-22T06:53:17Z</time>
      </trkpt>
      <trkpt lat="42.441868000" lon="-2.556858000">
        <ele>462.60</ele>
        <time>2016-10-22T06:53:18Z</time>
      </trkpt>
      <trkpt lat="42.441833000" lon="-2.556824000">
        <ele>462.60</ele>
        <time>2016-10-22T06:53:19Z</time>
      </trkpt>
      <trkpt lat="42.441796000" lon="-2.556791000">
        <ele>462.70</ele>
        <time>2016-10-22T06:53:20Z</time>
      </trkpt>
      <trkpt lat="42.441759000" lon="-2.556758000">
        <ele>462.70</ele>
        <time>2016-10-22T06:53:21Z</time>
      </trkpt>
      <trkpt lat="42.441724000" lon="-2.556726000">
        <ele>462.70</ele>
        <time>2016-10-22T06:53:22Z</time>
      </trkpt>
      <trkpt lat="42.441689000" lon="-2.556693000">
        <ele>462.70</ele>
        <time>2016-10-22T06:53:23Z</time>
      </trkpt>
      <trkpt lat="42.441652000" lon="-2.556663000">
        <ele>462.70</ele>
        <time>2016-10-22T06:53:24Z</time>
      </trkpt>
      <trkpt lat="42.441619000" lon="-2.556631000">
        <ele>462.80</ele>
        <time>2016-10-22T06:53:25Z</time>
      </trkpt>
      <trkpt lat="42.441584000" lon="-2.556598000">
        <ele>462.90</ele>
        <time>2016-10-22T06:53:26Z</time>
      </trkpt>
      <trkpt lat="42.441550000" lon="-2.556568000">
        <ele>463.00</ele>
        <time>2016-10-22T06:53:27Z</time>
      </trkpt>
      <trkpt lat="42.441515000" lon="-2.556536000">
        <ele>463.20</ele>
        <time>2016-10-22T06:53:28Z</time>
      </trkpt>
      <trkpt lat="42.441482000" lon="-2.556503000">
        <ele>463.30</ele>
        <time>2016-10-22T06:53:29Z</time>
      </trkpt>
      <trkpt lat="42.441448000" lon="-2.556470000">
        <ele>463.40</ele>
        <time>2016-10-22T06:53:30Z</time>
      </trkpt>
      <trkpt lat="42.441414000" lon="-2.556440000">
        <ele>463.40</ele>
        <time>2016-10-22T06:53:31Z</time>
      </trkpt>
      <trkpt lat="42.441379000" lon="-2.556407000">
        <ele>463.50</ele>
        <time>2016-10-22T06:53:32Z</time>
      </trkpt>
      <trkpt lat="42.441343000" lon="-2.556375000">
        <ele>463.60</ele>
        <time>2016-10-22T06:53:33Z</time>
      </trkpt>
      <trkpt lat="42.441309000" lon="-2.556342000">
        <ele>463.70</ele>
        <time>2016-10-22T06:53:34Z</time>
      </trkpt>
      <trkpt lat="42.441274000" lon="-2.556308000">
        <ele>463.80</ele>
        <time>2016-10-22T06:53:35Z</time>
      </trkpt>
      <trkpt lat="42.441241000" lon="-2.556277000">
        <ele>463.80</ele>
        <time>2016-10-22T06:53:36Z</time>
      </trkpt>
      <trkpt lat="42.441205000" lon="-2.556246000">
        <ele>463.90</ele>
        <time>2016-10-22T06:53:37Z</time>
      </trkpt>
      <trkpt lat="42.441171000" lon="-2.556215000">
        <ele>463.90</ele>
        <time>2016-10-22T06:53:38Z</time>
      </trkpt>
      <trkpt lat="42.441137000" lon="-2.556184000">
        <ele>463.90</ele>
        <time>2016-10-22T06:53:39Z</time>
      </trkpt>
      <trkpt lat="42.441103000" lon="-2.556152000">
        <ele>463.90</ele>
        <time>2016-10-22T06:53:40Z</time>
      </trkpt>
      <trkpt lat="42.441072000" lon="-2.556120000">
        <ele>463.80</ele>
        <time>2016-10-22T06:53:41Z</time>
      </trkpt>
      <trkpt lat="42.441037000" lon="-2.556086000">
        <ele>463.70</ele>
        <time>2016-10-22T06:53:42Z</time>
      </trkpt>
      <trkpt lat="42.441004000" lon="-2.556053000">
        <ele>463.60</ele>
        <time>2016-10-22T06:53:43Z</time>
      </trkpt>
      <trkpt lat="42.440967000" lon="-2.556022000">
        <ele>463.60</ele>
        <time>2016-10-22T06:53:44Z</time>
      </trkpt>
      <trkpt lat="42.440932000" lon="-2.555987000">
        <ele>463.50</ele>
        <time>2016-10-22T06:53:45Z</time>
      </trkpt>
      <trkpt lat="42.440897000" lon="-2.555954000">
        <ele>463.50</ele>
        <time>2016-10-22T06:53:46Z</time>
      </trkpt>
      <trkpt lat="42.440862000" lon="-2.555921000">
        <ele>463.70</ele>
        <time>2016-10-22T06:53:47Z</time>
      </trkpt>
      <trkpt lat="42.440828000" lon="-2.555892000">
        <ele>463.80</ele>
        <time>2016-10-22T06:53:48Z</time>
      </trkpt>
      <trkpt lat="42.440792000" lon="-2.555868000">
        <ele>464.00</ele>
        <time>2016-10-22T06:53:49Z</time>
      </trkpt>
      <trkpt lat="42.440757000" lon="-2.555849000">
        <ele>464.10</ele>
        <time>2016-10-22T06:53:50Z</time>
      </trkpt>
      <trkpt lat="42.440720000" lon="-2.555835000">
        <ele>464.30</ele>
        <time>2016-10-22T06:53:51Z</time>
      </trkpt>
      <trkpt lat="42.440683000" lon="-2.555822000">
        <ele>464.40</ele>
        <time>2016-10-22T06:53:52Z</time>
      </trkpt>
      <trkpt lat="42.440646000" lon="-2.555806000">
        <ele>464.40</ele>
        <time>2016-10-22T06:53:53Z</time>
      </trkpt>
      <trkpt lat="42.440606000" lon="-2.555797000">
        <ele>464.40</ele>
        <time>2016-10-22T06:53:54Z</time>
      </trkpt>
      <trkpt lat="42.440567000" lon="-2.555783000">
        <ele>464.60</ele>
        <time>2016-10-22T06:53:55Z</time>
      </trkpt>
      <trkpt lat="42.440533000" lon="-2.555778000">
        <ele>464.70</ele>
        <time>2016-10-22T06:53:56Z</time>
      </trkpt>
      <trkpt lat="42.440499000" lon="-2.555773000">
        <ele>464.70</ele>
        <time>2016-10-22T06:53:57Z</time>
      </trkpt>
      <trkpt lat="42.440465000" lon="-2.555774000">
        <ele>464.80</ele>
        <time>2016-10-22T06:53:58Z</time>
      </trkpt>
      <trkpt lat="42.440432000" lon="-2.555779000">
        <ele>464.90</ele>
        <time>2016-10-22T06:53:59Z</time>
      </trkpt>
      <trkpt lat="42.440398000" lon="-2.555798000">
        <ele>464.90</ele>
        <time>2016-10-22T06:54:00Z</time>
      </trkpt>
      <trkpt lat="42.440366000" lon="-2.555816000">
        <ele>464.80</ele>
        <time>2016-10-22T06:54:01Z</time>
      </trkpt>
      <trkpt lat="42.440334000" lon="-2.555823000">
        <ele>464.70</ele>
        <time>2016-10-22T06:54:02Z</time>
      </trkpt>
      <trkpt lat="42.440300000" lon="-2.555832000">
        <ele>464.40</ele>
        <time>2016-10-22T06:54:03Z</time>
      </trkpt>
      <trkpt lat="42.440267000" lon="-2.555839000">
        <ele>464.30</ele>
        <time>2016-10-22T06:54:04Z</time>
      </trkpt>
      <trkpt lat="42.440236000" lon="-2.555844000">
        <ele>464.10</ele>
        <time>2016-10-22T06:54:05Z</time>
      </trkpt>
      <trkpt lat="42.440204000" lon="-2.555849000">
        <ele>464.00</ele>
        <time>2016-10-22T06:54:06Z</time>
      </trkpt>
      <trkpt lat="42.440170000" lon="-2.555855000">
        <ele>464.00</ele>
        <time>2016-10-22T06:54:07Z</time>
      </trkpt>
      <trkpt lat="42.440137000" lon="-2.555865000">
        <ele>464.00</ele>
        <time>2016-10-22T06:54:08Z</time>
      </trkpt>
      <trkpt lat="42.440107000" lon="-2.555873000">
        <ele>464.10</ele>
        <time>2016-10-22T06:54:09Z</time>
      </trkpt>
      <trkpt lat="42.440081000" lon="-2.555885000">
        <ele>464.20</ele>
        <time>2016-10-22T06:54:10Z</time>
      </trkpt>
      <trkpt lat="42.440055000" lon="-2.555904000">
        <ele>464.30</ele>
        <time>2016-10-22T06:54:11Z</time>
      </trkpt>
      <trkpt lat="42.440030000" lon="-2.555916000">
        <ele>464.30</ele>
        <time>2016-10-22T06:54:12Z</time>
      </trkpt>
      <trkpt lat="42.440005000" lon="-2.555923000">
        <ele>464.30</ele>
        <time>2016-10-22T06:54:13Z</time>
      </trkpt>
      <trkpt lat="42.439980000" lon="-2.555930000">
        <ele>464.40</ele>
        <time>2016-10-22T06:54:14Z</time>
      </trkpt>
      <trkpt lat="42.439961000" lon="-2.555933000">
        <ele>464.50</ele>
        <time>2016-10-22T06:54:15Z</time>
      </trkpt>
      <trkpt lat="42.439943000" lon="-2.555930000">
        <ele>464.60</ele>
        <time>2016-10-22T06:54:16Z</time>
      </trkpt>
      <trkpt lat="42.439934000" lon="-2.555910000">
        <ele>464.70</ele>
        <time>2016-10-22T06:54:18Z</time>
      </trkpt>
      <trkpt lat="42.439939000" lon="-2.555903000">
        <ele>464.80</ele>
        <time>2016-10-22T06:54:19Z</time>
      </trkpt>
      <trkpt lat="42.439950000" lon="-2.555897000">
        <ele>464.80</ele>
        <time>2016-10-22T06:54:20Z</time>
      </trkpt>
      <trkpt lat="42.439961000" lon="-2.555897000">
        <ele>464.90</ele>
        <time>2016-10-22T06:54:21Z</time>
      </trkpt>
      <trkpt lat="42.439981000" lon="-2.555896000">
        <ele>465.00</ele>
        <time>2016-10-22T06:54:22Z</time>
      </trkpt>
      <trkpt lat="42.440002000" lon="-2.555895000">
        <ele>465.10</ele>
        <time>2016-10-22T06:54:23Z</time>
      </trkpt>
      <trkpt lat="42.440024000" lon="-2.555891000">
        <ele>465.10</ele>
        <time>2016-10-22T06:54:24Z</time>
      </trkpt>
      <trkpt lat="42.440046000" lon="-2.555884000">
        <ele>465.10</ele>
        <time>2016-10-22T06:54:25Z</time>
      </trkpt>
      <trkpt lat="42.440068000" lon="-2.555878000">
        <ele>465.10</ele>
        <time>2016-10-22T06:54:26Z</time>
      </trkpt>
      <trkpt lat="42.440089000" lon="-2.555872000">
        <ele>465.00</ele>
        <time>2016-10-22T06:54:27Z</time>
      </trkpt>
      <trkpt lat="42.440112000" lon="-2.555870000">
        <ele>465.00</ele>
        <time>2016-10-22T06:54:28Z</time>
      </trkpt>
      <trkpt lat="42.440135000" lon="-2.555869000">
        <ele>465.00</ele>
        <time>2016-10-22T06:54:29Z</time>
      </trkpt>
      <trkpt lat="42.440160000" lon="-2.555865000">
        <ele>465.00</ele>
        <time>2016-10-22T06:54:30Z</time>
      </trkpt>
      <trkpt lat="42.440183000" lon="-2.555863000">
        <ele>464.90</ele>
        <time>2016-10-22T06:54:31Z</time>
      </trkpt>
      <trkpt lat="42.440207000" lon="-2.555861000">
        <ele>464.90</ele>
        <time>2016-10-22T06:54:32Z</time>
      </trkpt>
      <trkpt lat="42.440232000" lon="-2.555864000">
        <ele>464.80</ele>
        <time>2016-10-22T06:54:33Z</time>
      </trkpt>
      <trkpt lat="42.440259000" lon="-2.555855000">
        <ele>464.80</ele>
        <time>2016-10-22T06:54:34Z</time>
      </trkpt>
      <trkpt lat="42.440284000" lon="-2.555845000">
        <ele>464.70</ele>
        <time>2016-10-22T06:54:35Z</time>
      </trkpt>
      <trkpt lat="42.440308000" lon="-2.555839000">
        <ele>464.50</ele>
        <time>2016-10-22T06:54:36Z</time>
      </trkpt>
      <trkpt lat="42.440330000" lon="-2.555831000">
        <ele>464.50</ele>
        <time>2016-10-22T06:54:37Z</time>
      </trkpt>
      <trkpt lat="42.440352000" lon="-2.555821000">
        <ele>464.40</ele>
        <time>2016-10-22T06:54:38Z</time>
      </trkpt>
      <trkpt lat="42.440375000" lon="-2.555811000">
        <ele>464.30</ele>
        <time>2016-10-22T06:54:39Z</time>
      </trkpt>
      <trkpt lat="42.440395000" lon="-2.555803000">
        <ele>464.20</ele>
        <time>2016-10-22T06:54:40Z</time>
      </trkpt>
      <trkpt lat="42.440415000" lon="-2.555807000">
        <ele>464.10</ele>
        <time>2016-10-22T06:54:41Z</time>
      </trkpt>
      <trkpt lat="42.440432000" lon="-2.555808000">
        <ele>464.10</ele>
        <time>2016-10-22T06:54:42Z</time>
      </trkpt>
      <trkpt lat="42.440444000" lon="-2.555810000">
        <ele>464.10</ele>
        <time>2016-10-22T06:54:43Z</time>
      </trkpt>
      <trkpt lat="42.440457000" lon="-2.555817000">
        <ele>464.10</ele>
        <time>2016-10-22T06:54:44Z</time>
      </trkpt>
      <trkpt lat="42.440475000" lon="-2.555820000">
        <ele>464.40</ele>
        <time>2016-10-22T06:54:45Z</time>
      </trkpt>
      <trkpt lat="42.440493000" lon="-2.555817000">
        <ele>464.50</ele>
        <time>2016-10-22T06:54:46Z</time>
      </trkpt>
      <trkpt lat="42.440506000" lon="-2.555811000">
        <ele>464.60</ele>
        <time>2016-10-22T06:54:47Z</time>
      </trkpt>
      <trkpt lat="42.440521000" lon="-2.555804000">
        <ele>464.70</ele>
        <time>2016-10-22T06:54:48Z</time>
      </trkpt>
      <trkpt lat="42.440537000" lon="-2.555803000">
        <ele>464.60</ele>
        <time>2016-10-22T06:54:49Z</time>
      </trkpt>
      <trkpt lat="42.440555000" lon="-2.555796000">
        <ele>464.50</ele>
        <time>2016-10-22T06:54:50Z</time>
      </trkpt>
      <trkpt lat="42.440569000" lon="-2.555792000">
        <ele>464.40</ele>
        <time>2016-10-22T06:54:51Z</time>
      </trkpt>
      <trkpt lat="42.440584000" lon="-2.555790000">
        <ele>464.30</ele>
        <time>2016-10-22T06:54:52Z</time>
      </trkpt>
      <trkpt lat="42.440600000" lon="-2.555790000">
        <ele>464.20</ele>
        <time>2016-10-22T06:54:53Z</time>
      </trkpt>
      <trkpt lat="42.440616000" lon="-2.555787000">
        <ele>464.10</ele>
        <time>2016-10-22T06:54:54Z</time>
      </trkpt>
      <trkpt lat="42.440619000" lon="-2.555792000">
        <ele>464.10</ele>
        <time>2016-10-22T06:54:55Z</time>
      </trkpt>
      <trkpt lat="42.440618000" lon="-2.555792000">
        <ele>464.00</ele>
        <time>2016-10-22T06:54:56Z</time>
      </trkpt>
      <trkpt lat="42.440618000" lon="-2.555792000">
        <ele>464.00</ele>
        <time>2016-10-22T06:54:57Z</time>
      </trkpt>
      <trkpt lat="42.440617000" lon="-2.555791000">
        <ele>464.00</ele>
        <time>2016-10-22T06:54:58Z</time>
      </trkpt>
      <trkpt lat="42.440617000" lon="-2.555791000">
        <ele>464.00</ele>
        <time>2016-10-22T06:54:59Z</time>
      </trkpt>
      <trkpt lat="42.440623000" lon="-2.555783000">
        <ele>464.00</ele>
        <time>2016-10-22T06:55:00Z</time>
      </trkpt>
      <trkpt lat="42.440626000" lon="-2.555782000">
        <ele>463.90</ele>
        <time>2016-10-22T06:55:01Z</time>
      </trkpt>
      <trkpt lat="42.440622000" lon="-2.555784000">
        <ele>463.90</ele>
        <time>2016-10-22T06:55:02Z</time>
      </trkpt>
      <trkpt lat="42.440622000" lon="-2.555784000">
        <ele>463.70</ele>
        <time>2016-10-22T06:55:03Z</time>
      </trkpt>
      <trkpt lat="42.440622000" lon="-2.555784000">
        <ele>463.60</ele>
        <time>2016-10-22T06:55:04Z</time>
      </trkpt>
      <trkpt lat="42.440622000" lon="-2.555784000">
        <ele>463.50</ele>
        <time>2016-10-22T06:55:05Z</time>
      </trkpt>
      <trkpt lat="42.440622000" lon="-2.555784000">
        <ele>463.40</ele>
        <time>2016-10-22T06:55:06Z</time>
      </trkpt>
      <trkpt lat="42.440622000" lon="-2.555784000">
        <ele>463.40</ele>
        <time>2016-10-22T06:55:07Z</time>
      </trkpt>
      <trkpt lat="42.440622000" lon="-2.555784000">
        <ele>463.40</ele>
        <time>2016-10-22T06:55:08Z</time>
      </trkpt>
      <trkpt lat="42.440622000" lon="-2.555784000">
        <ele>463.30</ele>
        <time>2016-10-22T06:55:09Z</time>
      </trkpt>
      <trkpt lat="42.440622000" lon="-2.555784000">
        <ele>463.30</ele>
        <time>2016-10-22T06:55:10Z</time>
      </trkpt>
      <trkpt lat="42.440622000" lon="-2.555784000">
        <ele>463.40</ele>
        <time>2016-10-22T06:55:11Z</time>
      </trkpt>
      <trkpt lat="42.440622000" lon="-2.555784000">
        <ele>463.40</ele>
        <time>2016-10-22T06:55:12Z</time>
      </trkpt>
      <trkpt lat="42.440622000" lon="-2.555784000">
        <ele>463.50</ele>
        <time>2016-10-22T06:55:13Z</time>
      </trkpt>
      <trkpt lat="42.440622000" lon="-2.555784000">
        <ele>463.50</ele>
        <time>2016-10-22T06:55:14Z</time>
      </trkpt>
      <trkpt lat="42.440622000" lon="-2.555784000">
        <ele>463.40</ele>
        <time>2016-10-22T06:55:15Z</time>
      </trkpt>
      <trkpt lat="42.440622000" lon="-2.555784000">
        <ele>463.30</ele>
        <time>2016-10-22T06:55:16Z</time>
      </trkpt>
      <trkpt lat="42.440622000" lon="-2.555784000">
        <ele>463.30</ele>
        <time>2016-10-22T06:55:17Z</time>
      </trkpt>
      <trkpt lat="42.440622000" lon="-2.555784000">
        <ele>463.20</ele>
        <time>2016-10-22T06:55:19Z</time>
      </trkpt>
      <trkpt lat="42.440622000" lon="-2.555784000">
        <ele>463.30</ele>
        <time>2016-10-22T06:55:20Z</time>
      </trkpt>
      <trkpt lat="42.440622000" lon="-2.555784000">
        <ele>463.30</ele>
        <time>2016-10-22T06:55:21Z</time>
      </trkpt>
      <trkpt lat="42.440622000" lon="-2.555784000">
        <ele>463.30</ele>
        <time>2016-10-22T06:55:22Z</time>
      </trkpt>
      <trkpt lat="42.440622000" lon="-2.555784000">
        <ele>463.40</ele>
        <time>2016-10-22T06:55:23Z</time>
      </trkpt>
      <trkpt lat="42.440622000" lon="-2.555784000">
        <ele>463.40</ele>
        <time>2016-10-22T06:55:24Z</time>
      </trkpt>
      <trkpt lat="42.440622000" lon="-2.555784000">
        <ele>463.40</ele>
        <time>2016-10-22T06:55:25Z</time>
      </trkpt>
      <trkpt lat="42.440622000" lon="-2.555784000">
        <ele>463.40</ele>
        <time>2016-10-22T06:55:26Z</time>
      </trkpt>
      <trkpt lat="42.440622000" lon="-2.555784000">
        <ele>463.40</ele>
        <time>2016-10-22T06:55:27Z</time>
      </trkpt>
      <trkpt lat="42.440622000" lon="-2.555784000">
        <ele>463.40</ele>
        <time>2016-10-22T06:55:28Z</time>
      </trkpt>
      <trkpt lat="42.440622000" lon="-2.555784000">
        <ele>463.30</ele>
        <time>2016-10-22T06:55:29Z</time>
      </trkpt>
      <trkpt lat="42.440622000" lon="-2.555784000">
        <ele>463.20</ele>
        <time>2016-10-22T06:55:30Z</time>
      </trkpt>
      <trkpt lat="42.440622000" lon="-2.555784000">
        <ele>463.20</ele>
        <time>2016-10-22T06:55:31Z</time>
      </trkpt>
      <trkpt lat="42.440622000" lon="-2.555784000">
        <ele>463.20</ele>
        <time>2016-10-22T06:55:32Z</time>
      </trkpt>
      <trkpt lat="42.440622000" lon="-2.555784000">
        <ele>463.20</ele>
        <time>2016-10-22T06:55:33Z</time>
      </trkpt>
      <trkpt lat="42.440622000" lon="-2.555784000">
        <ele>463.20</ele>
        <time>2016-10-22T06:55:34Z</time>
      </trkpt>
      <trkpt lat="42.440622000" lon="-2.555784000">
        <ele>463.30</ele>
        <time>2016-10-22T06:55:35Z</time>
      </trkpt>
      <trkpt lat="42.440622000" lon="-2.555784000">
        <ele>463.30</ele>
        <time>2016-10-22T06:55:36Z</time>
      </trkpt>
      <trkpt lat="42.440622000" lon="-2.555784000">
        <ele>463.20</ele>
        <time>2016-10-22T06:55:37Z</time>
      </trkpt>
      <trkpt lat="42.440622000" lon="-2.555784000">
        <ele>463.10</ele>
        <time>2016-10-22T06:55:38Z</time>
      </trkpt>
      <trkpt lat="42.440622000" lon="-2.555784000">
        <ele>463.00</ele>
        <time>2016-10-22T06:55:39Z</time>
      </trkpt>
      <trkpt lat="42.440622000" lon="-2.555784000">
        <ele>463.00</ele>
        <time>2016-10-22T06:55:40Z</time>
      </trkpt>
      <trkpt lat="42.440622000" lon="-2.555784000">
        <ele>463.00</ele>
        <time>2016-10-22T06:55:41Z</time>
      </trkpt>
      <trkpt lat="42.440625000" lon="-2.555784000">
        <ele>463.10</ele>
        <time>2016-10-22T06:55:42Z</time>
      </trkpt>
      <trkpt lat="42.440625000" lon="-2.555784000">
        <ele>463.20</ele>
        <time>2016-10-22T06:55:43Z</time>
      </trkpt>
      <trkpt lat="42.440625000" lon="-2.555784000">
        <ele>463.30</ele>
        <time>2016-10-22T06:55:44Z</time>
      </trkpt>
      <trkpt lat="42.440625000" lon="-2.555784000">
        <ele>463.30</ele>
        <time>2016-10-22T06:55:45Z</time>
      </trkpt>
      <trkpt lat="42.440625000" lon="-2.555784000">
        <ele>463.40</ele>
        <time>2016-10-22T06:55:46Z</time>
      </trkpt>
      <trkpt lat="42.440625000" lon="-2.555784000">
        <ele>463.30</ele>
        <time>2016-10-22T06:55:47Z</time>
      </trkpt>
      <trkpt lat="42.440625000" lon="-2.555784000">
        <ele>463.20</ele>
        <time>2016-10-22T06:55:48Z</time>
      </trkpt>
      <trkpt lat="42.440625000" lon="-2.555784000">
        <ele>463.10</ele>
        <time>2016-10-22T06:55:49Z</time>
      </trkpt>
      <trkpt lat="42.440625000" lon="-2.555784000">
        <ele>463.10</ele>
        <time>2016-10-22T06:55:50Z</time>
      </trkpt>
      <trkpt lat="42.440625000" lon="-2.555784000">
        <ele>463.10</ele>
        <time>2016-10-22T06:55:51Z</time>
      </trkpt>
      <trkpt lat="42.440625000" lon="-2.555784000">
        <ele>463.10</ele>
        <time>2016-10-22T06:55:52Z</time>
      </trkpt>
      <trkpt lat="42.440625000" lon="-2.555784000">
        <ele>463.00</ele>
        <time>2016-10-22T06:55:53Z</time>
      </trkpt>
      <trkpt lat="42.440625000" lon="-2.555784000">
        <ele>463.00</ele>
        <time>2016-10-22T06:55:54Z</time>
      </trkpt>
      <trkpt lat="42.440625000" lon="-2.555784000">
        <ele>463.10</ele>
        <time>2016-10-22T06:55:55Z</time>
      </trkpt>
      <trkpt lat="42.440625000" lon="-2.555784000">
        <ele>463.10</ele>
        <time>2016-10-22T06:55:56Z</time>
      </trkpt>
      <trkpt lat="42.440625000" lon="-2.555784000">
        <ele>463.30</ele>
        <time>2016-10-22T06:55:57Z</time>
      </trkpt>
      <trkpt lat="42.440625000" lon="-2.555784000">
        <ele>463.40</ele>
        <time>2016-10-22T06:55:58Z</time>
      </trkpt>
      <trkpt lat="42.440625000" lon="-2.555784000">
        <ele>463.50</ele>
        <time>2016-10-22T06:55:59Z</time>
      </trkpt>
      <trkpt lat="42.440625000" lon="-2.555784000">
        <ele>463.60</ele>
        <time>2016-10-22T06:56:00Z</time>
      </trkpt>
      <trkpt lat="42.440625000" lon="-2.555784000">
        <ele>463.60</ele>
        <time>2016-10-22T06:56:01Z</time>
      </trkpt>
      <trkpt lat="42.440625000" lon="-2.555784000">
        <ele>463.70</ele>
        <time>2016-10-22T06:56:02Z</time>
      </trkpt>
      <trkpt lat="42.440625000" lon="-2.555784000">
        <ele>463.50</ele>
        <time>2016-10-22T06:56:03Z</time>
      </trkpt>
      <trkpt lat="42.440625000" lon="-2.555784000">
        <ele>463.40</ele>
        <time>2016-10-22T06:56:04Z</time>
      </trkpt>
      <trkpt lat="42.440625000" lon="-2.555784000">
        <ele>463.30</ele>
        <time>2016-10-22T06:56:05Z</time>
      </trkpt>
      <trkpt lat="42.440625000" lon="-2.555784000">
        <ele>463.20</ele>
        <time>2016-10-22T06:56:06Z</time>
      </trkpt>
      <trkpt lat="42.440625000" lon="-2.555784000">
        <ele>463.20</ele>
        <time>2016-10-22T06:56:07Z</time>
      </trkpt>
      <trkpt lat="42.440625000" lon="-2.555784000">
        <ele>463.20</ele>
        <time>2016-10-22T06:56:08Z</time>
      </trkpt>
      <trkpt lat="42.440625000" lon="-2.555784000">
        <ele>463.20</ele>
        <time>2016-10-22T06:56:09Z</time>
      </trkpt>
      <trkpt lat="42.440625000" lon="-2.555784000">
        <ele>463.20</ele>
        <time>2016-10-22T06:56:10Z</time>
      </trkpt>
      <trkpt lat="42.440625000" lon="-2.555784000">
        <ele>463.40</ele>
        <time>2016-10-22T06:56:11Z</time>
      </trkpt>
      <trkpt lat="42.440625000" lon="-2.555784000">
        <ele>463.50</ele>
        <time>2016-10-22T06:56:12Z</time>
      </trkpt>
      <trkpt lat="42.440625000" lon="-2.555784000">
        <ele>463.50</ele>
        <time>2016-10-22T06:56:13Z</time>
      </trkpt>
      <trkpt lat="42.440625000" lon="-2.555784000">
        <ele>463.60</ele>
        <time>2016-10-22T06:56:14Z</time>
      </trkpt>
      <trkpt lat="42.440625000" lon="-2.555784000">
        <ele>463.60</ele>
        <time>2016-10-22T06:56:15Z</time>
      </trkpt>
      <trkpt lat="42.440625000" lon="-2.555784000">
        <ele>463.70</ele>
        <time>2016-10-22T06:56:16Z</time>
      </trkpt>
      <trkpt lat="42.440625000" lon="-2.555784000">
        <ele>463.70</ele>
        <time>2016-10-22T06:56:17Z</time>
      </trkpt>
      <trkpt lat="42.440625000" lon="-2.555784000">
        <ele>463.70</ele>
        <time>2016-10-22T06:56:18Z</time>
      </trkpt>
      <trkpt lat="42.440625000" lon="-2.555784000">
        <ele>463.50</ele>
        <time>2016-10-22T06:56:20Z</time>
      </trkpt>
      <trkpt lat="42.440625000" lon="-2.555784000">
        <ele>463.60</ele>
        <time>2016-10-22T06:56:21Z</time>
      </trkpt>
      <trkpt lat="42.440622000" lon="-2.555786000">
        <ele>463.60</ele>
        <time>2016-10-22T06:56:22Z</time>
      </trkpt>
      <trkpt lat="42.440622000" lon="-2.555786000">
        <ele>463.60</ele>
        <time>2016-10-22T06:56:23Z</time>
      </trkpt>
      <trkpt lat="42.440622000" lon="-2.555786000">
        <ele>463.60</ele>
        <time>2016-10-22T06:56:24Z</time>
      </trkpt>
      <trkpt lat="42.440622000" lon="-2.555786000">
        <ele>463.60</ele>
        <time>2016-10-22T06:56:25Z</time>
      </trkpt>
      <trkpt lat="42.440622000" lon="-2.555786000">
        <ele>463.70</ele>
        <time>2016-10-22T06:56:26Z</time>
      </trkpt>
      <trkpt lat="42.440622000" lon="-2.555786000">
        <ele>463.60</ele>
        <time>2016-10-22T06:56:27Z</time>
      </trkpt>
      <trkpt lat="42.440622000" lon="-2.555786000">
        <ele>463.60</ele>
        <time>2016-10-22T06:56:28Z</time>
      </trkpt>
      <trkpt lat="42.440622000" lon="-2.555786000">
        <ele>463.50</ele>
        <time>2016-10-22T06:56:29Z</time>
      </trkpt>
      <trkpt lat="42.440622000" lon="-2.555786000">
        <ele>463.40</ele>
        <time>2016-10-22T06:56:30Z</time>
      </trkpt>
      <trkpt lat="42.440622000" lon="-2.555786000">
        <ele>463.40</ele>
        <time>2016-10-22T06:56:31Z</time>
      </trkpt>
      <trkpt lat="42.440622000" lon="-2.555786000">
        <ele>463.40</ele>
        <time>2016-10-22T06:56:32Z</time>
      </trkpt>
      <trkpt lat="42.440622000" lon="-2.555786000">
        <ele>463.40</ele>
        <time>2016-10-22T06:56:33Z</time>
      </trkpt>
      <trkpt lat="42.440622000" lon="-2.555786000">
        <ele>463.40</ele>
        <time>2016-10-22T06:56:34Z</time>
      </trkpt>
      <trkpt lat="42.440622000" lon="-2.555786000">
        <ele>463.40</ele>
        <time>2016-10-22T06:56:35Z</time>
      </trkpt>
      <trkpt lat="42.440622000" lon="-2.555786000">
        <ele>463.50</ele>
        <time>2016-10-22T06:56:36Z</time>
      </trkpt>
      <trkpt lat="42.440622000" lon="-2.555786000">
        <ele>463.50</ele>
        <time>2016-10-22T06:56:37Z</time>
      </trkpt>
      <trkpt lat="42.440622000" lon="-2.555786000">
        <ele>463.50</ele>
        <time>2016-10-22T06:56:38Z</time>
      </trkpt>
      <trkpt lat="42.440622000" lon="-2.555786000">
        <ele>463.60</ele>
        <time>2016-10-22T06:56:39Z</time>
      </trkpt>
      <trkpt lat="42.440622000" lon="-2.555786000">
        <ele>463.60</ele>
        <time>2016-10-22T06:56:40Z</time>
      </trkpt>
      <trkpt lat="42.440622000" lon="-2.555786000">
        <ele>463.70</ele>
        <time>2016-10-22T06:56:41Z</time>
      </trkpt>
      <trkpt lat="42.440622000" lon="-2.555786000">
        <ele>463.80</ele>
        <time>2016-10-22T06:56:42Z</time>
      </trkpt>
      <trkpt lat="42.440622000" lon="-2.555786000">
        <ele>463.80</ele>
        <time>2016-10-22T06:56:43Z</time>
      </trkpt>
      <trkpt lat="42.440622000" lon="-2.555786000">
        <ele>463.90</ele>
        <time>2016-10-22T06:56:44Z</time>
      </trkpt>
      <trkpt lat="42.440622000" lon="-2.555786000">
        <ele>463.90</ele>
        <time>2016-10-22T06:56:45Z</time>
      </trkpt>
      <trkpt lat="42.440622000" lon="-2.555786000">
        <ele>464.00</ele>
        <time>2016-10-22T06:56:46Z</time>
      </trkpt>
      <trkpt lat="42.440622000" lon="-2.555786000">
        <ele>463.80</ele>
        <time>2016-10-22T06:56:47Z</time>
      </trkpt>
      <trkpt lat="42.440622000" lon="-2.555786000">
        <ele>463.80</ele>
        <time>2016-10-22T06:56:48Z</time>
      </trkpt>
      <trkpt lat="42.440622000" lon="-2.555786000">
        <ele>463.60</ele>
        <time>2016-10-22T06:56:49Z</time>
      </trkpt>
      <trkpt lat="42.440622000" lon="-2.555786000">
        <ele>463.50</ele>
        <time>2016-10-22T06:56:50Z</time>
      </trkpt>
      <trkpt lat="42.440622000" lon="-2.555786000">
        <ele>463.40</ele>
        <time>2016-10-22T06:56:51Z</time>
      </trkpt>
      <trkpt lat="42.440622000" lon="-2.555786000">
        <ele>463.30</ele>
        <time>2016-10-22T06:56:52Z</time>
      </trkpt>
      <trkpt lat="42.440622000" lon="-2.555786000">
        <ele>463.20</ele>
        <time>2016-10-22T06:56:53Z</time>
      </trkpt>
      <trkpt lat="42.440622000" lon="-2.555786000">
        <ele>463.20</ele>
        <time>2016-10-22T06:56:54Z</time>
      </trkpt>
      <trkpt lat="42.440622000" lon="-2.555786000">
        <ele>463.20</ele>
        <time>2016-10-22T06:56:55Z</time>
      </trkpt>
      <trkpt lat="42.440622000" lon="-2.555786000">
        <ele>463.30</ele>
        <time>2016-10-22T06:56:56Z</time>
      </trkpt>
      <trkpt lat="42.440622000" lon="-2.555786000">
        <ele>463.30</ele>
        <time>2016-10-22T06:56:57Z</time>
      </trkpt>
      <trkpt lat="42.440622000" lon="-2.555786000">
        <ele>463.40</ele>
        <time>2016-10-22T06:56:58Z</time>
      </trkpt>
      <trkpt lat="42.440622000" lon="-2.555786000">
        <ele>463.40</ele>
        <time>2016-10-22T06:56:59Z</time>
      </trkpt>
      <trkpt lat="42.440622000" lon="-2.555786000">
        <ele>463.50</ele>
        <time>2016-10-22T06:57:00Z</time>
      </trkpt>
      <trkpt lat="42.440622000" lon="-2.555786000">
        <ele>463.50</ele>
        <time>2016-10-22T06:57:01Z</time>
      </trkpt>
      <trkpt lat="42.440619000" lon="-2.555785000">
        <ele>463.50</ele>
        <time>2016-10-22T06:57:02Z</time>
      </trkpt>
      <trkpt lat="42.440619000" lon="-2.555785000">
        <ele>463.50</ele>
        <time>2016-10-22T06:57:03Z</time>
      </trkpt>
      <trkpt lat="42.440619000" lon="-2.555785000">
        <ele>463.60</ele>
        <time>2016-10-22T06:57:04Z</time>
      </trkpt>
      <trkpt lat="42.440619000" lon="-2.555785000">
        <ele>463.60</ele>
        <time>2016-10-22T06:57:05Z</time>
      </trkpt>
      <trkpt lat="42.440619000" lon="-2.555785000">
        <ele>463.70</ele>
        <time>2016-10-22T06:57:06Z</time>
      </trkpt>
      <trkpt lat="42.440619000" lon="-2.555785000">
        <ele>463.70</ele>
        <time>2016-10-22T06:57:07Z</time>
      </trkpt>
      <trkpt lat="42.440619000" lon="-2.555785000">
        <ele>463.80</ele>
        <time>2016-10-22T06:57:08Z</time>
      </trkpt>
      <trkpt lat="42.440619000" lon="-2.555785000">
        <ele>463.80</ele>
        <time>2016-10-22T06:57:09Z</time>
      </trkpt>
      <trkpt lat="42.440619000" lon="-2.555785000">
        <ele>463.80</ele>
        <time>2016-10-22T06:57:10Z</time>
      </trkpt>
      <trkpt lat="42.440619000" lon="-2.555785000">
        <ele>463.80</ele>
        <time>2016-10-22T06:57:11Z</time>
      </trkpt>
      <trkpt lat="42.440619000" lon="-2.555785000">
        <ele>463.80</ele>
        <time>2016-10-22T06:57:12Z</time>
      </trkpt>
      <trkpt lat="42.440619000" lon="-2.555785000">
        <ele>463.70</ele>
        <time>2016-10-22T06:57:13Z</time>
      </trkpt>
      <trkpt lat="42.440619000" lon="-2.555785000">
        <ele>463.60</ele>
        <time>2016-10-22T06:57:14Z</time>
      </trkpt>
      <trkpt lat="42.440619000" lon="-2.555785000">
        <ele>463.50</ele>
        <time>2016-10-22T06:57:15Z</time>
      </trkpt>
      <trkpt lat="42.440619000" lon="-2.555785000">
        <ele>463.40</ele>
        <time>2016-10-22T06:57:16Z</time>
      </trkpt>
      <trkpt lat="42.440619000" lon="-2.555785000">
        <ele>463.40</ele>
        <time>2016-10-22T06:57:17Z</time>
      </trkpt>
      <trkpt lat="42.440619000" lon="-2.555785000">
        <ele>463.40</ele>
        <time>2016-10-22T06:57:18Z</time>
      </trkpt>
      <trkpt lat="42.440619000" lon="-2.555785000">
        <ele>463.40</ele>
        <time>2016-10-22T06:57:19Z</time>
      </trkpt>
      <trkpt lat="42.440619000" lon="-2.555785000">
        <ele>463.30</ele>
        <time>2016-10-22T06:57:21Z</time>
      </trkpt>
      <trkpt lat="42.440619000" lon="-2.555785000">
        <ele>463.30</ele>
        <time>2016-10-22T06:57:22Z</time>
      </trkpt>
      <trkpt lat="42.440619000" lon="-2.555785000">
        <ele>463.30</ele>
        <time>2016-10-22T06:57:23Z</time>
      </trkpt>
      <trkpt lat="42.440619000" lon="-2.555785000">
        <ele>463.30</ele>
        <time>2016-10-22T06:57:24Z</time>
      </trkpt>
      <trkpt lat="42.440619000" lon="-2.555785000">
        <ele>463.20</ele>
        <time>2016-10-22T06:57:25Z</time>
      </trkpt>
      <trkpt lat="42.440619000" lon="-2.555785000">
        <ele>463.10</ele>
        <time>2016-10-22T06:57:26Z</time>
      </trkpt>
      <trkpt lat="42.440619000" lon="-2.555785000">
        <ele>463.20</ele>
        <time>2016-10-22T06:57:27Z</time>
      </trkpt>
      <trkpt lat="42.440619000" lon="-2.555785000">
        <ele>463.30</ele>
        <time>2016-10-22T06:57:28Z</time>
      </trkpt>
      <trkpt lat="42.440619000" lon="-2.555785000">
        <ele>463.30</ele>
        <time>2016-10-22T06:57:29Z</time>
      </trkpt>
      <trkpt lat="42.440619000" lon="-2.555785000">
        <ele>463.30</ele>
        <time>2016-10-22T06:57:30Z</time>
      </trkpt>
      <trkpt lat="42.440619000" lon="-2.555785000">
        <ele>463.40</ele>
        <time>2016-10-22T06:57:31Z</time>
      </trkpt>
      <trkpt lat="42.440619000" lon="-2.555785000">
        <ele>463.40</ele>
        <time>2016-10-22T06:57:32Z</time>
      </trkpt>
      <trkpt lat="42.440619000" lon="-2.555785000">
        <ele>463.40</ele>
        <time>2016-10-22T06:57:33Z</time>
      </trkpt>
      <trkpt lat="42.440619000" lon="-2.555785000">
        <ele>463.50</ele>
        <time>2016-10-22T06:57:34Z</time>
      </trkpt>
      <trkpt lat="42.440619000" lon="-2.555785000">
        <ele>463.50</ele>
        <time>2016-10-22T06:57:35Z</time>
      </trkpt>
      <trkpt lat="42.440619000" lon="-2.555785000">
        <ele>463.60</ele>
        <time>2016-10-22T06:57:36Z</time>
      </trkpt>
      <trkpt lat="42.440619000" lon="-2.555785000">
        <ele>463.50</ele>
        <time>2016-10-22T06:57:37Z</time>
      </trkpt>
      <trkpt lat="42.440619000" lon="-2.555785000">
        <ele>463.50</ele>
        <time>2016-10-22T06:57:38Z</time>
      </trkpt>
      <trkpt lat="42.440619000" lon="-2.555785000">
        <ele>463.50</ele>
        <time>2016-10-22T06:57:39Z</time>
      </trkpt>
      <trkpt lat="42.440619000" lon="-2.555785000">
        <ele>463.50</ele>
        <time>2016-10-22T06:57:40Z</time>
      </trkpt>
      <trkpt lat="42.440619000" lon="-2.555785000">
        <ele>463.50</ele>
        <time>2016-10-22T06:57:41Z</time>
      </trkpt>
      <trkpt lat="42.440617000" lon="-2.555787000">
        <ele>463.60</ele>
        <time>2016-10-22T06:57:42Z</time>
      </trkpt>
      <trkpt lat="42.440617000" lon="-2.555787000">
        <ele>463.60</ele>
        <time>2016-10-22T06:57:43Z</time>
      </trkpt>
      <trkpt lat="42.440617000" lon="-2.555787000">
        <ele>463.60</ele>
        <time>2016-10-22T06:57:44Z</time>
      </trkpt>
      <trkpt lat="42.440617000" lon="-2.555787000">
        <ele>463.60</ele>
        <time>2016-10-22T06:57:45Z</time>
      </trkpt>
      <trkpt lat="42.440617000" lon="-2.555787000">
        <ele>463.60</ele>
        <time>2016-10-22T06:57:46Z</time>
      </trkpt>
      <trkpt lat="42.440617000" lon="-2.555787000">
        <ele>463.70</ele>
        <time>2016-10-22T06:57:47Z</time>
      </trkpt>
      <trkpt lat="42.440617000" lon="-2.555787000">
        <ele>463.70</ele>
        <time>2016-10-22T06:57:48Z</time>
      </trkpt>
      <trkpt lat="42.440617000" lon="-2.555787000">
        <ele>463.60</ele>
        <time>2016-10-22T06:57:49Z</time>
      </trkpt>
      <trkpt lat="42.440617000" lon="-2.555787000">
        <ele>463.60</ele>
        <time>2016-10-22T06:57:50Z</time>
      </trkpt>
      <trkpt lat="42.440617000" lon="-2.555787000">
        <ele>463.60</ele>
        <time>2016-10-22T06:57:51Z</time>
      </trkpt>
      <trkpt lat="42.440617000" lon="-2.555787000">
        <ele>463.60</ele>
        <time>2016-10-22T06:57:52Z</time>
      </trkpt>
      <trkpt lat="42.440617000" lon="-2.555787000">
        <ele>463.50</ele>
        <time>2016-10-22T06:57:53Z</time>
      </trkpt>
      <trkpt lat="42.440617000" lon="-2.555787000">
        <ele>463.40</ele>
        <time>2016-10-22T06:57:54Z</time>
      </trkpt>
      <trkpt lat="42.440617000" lon="-2.555787000">
        <ele>463.40</ele>
        <time>2016-10-22T06:57:55Z</time>
      </trkpt>
      <trkpt lat="42.440617000" lon="-2.555787000">
        <ele>463.50</ele>
        <time>2016-10-22T06:57:56Z</time>
      </trkpt>
      <trkpt lat="42.440617000" lon="-2.555787000">
        <ele>463.50</ele>
        <time>2016-10-22T06:57:57Z</time>
      </trkpt>
      <trkpt lat="42.440617000" lon="-2.555787000">
        <ele>463.60</ele>
        <time>2016-10-22T06:57:58Z</time>
      </trkpt>
      <trkpt lat="42.440617000" lon="-2.555787000">
        <ele>463.60</ele>
        <time>2016-10-22T06:57:59Z</time>
      </trkpt>
      <trkpt lat="42.440617000" lon="-2.555787000">
        <ele>463.70</ele>
        <time>2016-10-22T06:58:00Z</time>
      </trkpt>
      <trkpt lat="42.440617000" lon="-2.555787000">
        <ele>463.70</ele>
        <time>2016-10-22T06:58:01Z</time>
      </trkpt>
      <trkpt lat="42.440617000" lon="-2.555787000">
        <ele>463.70</ele>
        <time>2016-10-22T06:58:02Z</time>
      </trkpt>
      <trkpt lat="42.440617000" lon="-2.555787000">
        <ele>463.80</ele>
        <time>2016-10-22T06:58:03Z</time>
      </trkpt>
      <trkpt lat="42.440617000" lon="-2.555787000">
        <ele>463.90</ele>
        <time>2016-10-22T06:58:04Z</time>
      </trkpt>
      <trkpt lat="42.440617000" lon="-2.555787000">
        <ele>463.70</ele>
        <time>2016-10-22T06:58:05Z</time>
      </trkpt>
      <trkpt lat="42.440617000" lon="-2.555787000">
        <ele>463.50</ele>
        <time>2016-10-22T06:58:06Z</time>
      </trkpt>
      <trkpt lat="42.440617000" lon="-2.555787000">
        <ele>463.50</ele>
        <time>2016-10-22T06:58:07Z</time>
      </trkpt>
      <trkpt lat="42.440617000" lon="-2.555787000">
        <ele>463.50</ele>
        <time>2016-10-22T06:58:08Z</time>
      </trkpt>
      <trkpt lat="42.440617000" lon="-2.555787000">
        <ele>463.60</ele>
        <time>2016-10-22T06:58:09Z</time>
      </trkpt>
      <trkpt lat="42.440617000" lon="-2.555787000">
        <ele>463.60</ele>
        <time>2016-10-22T06:58:10Z</time>
      </trkpt>
      <trkpt lat="42.440617000" lon="-2.555787000">
        <ele>463.60</ele>
        <time>2016-10-22T06:58:11Z</time>
      </trkpt>
      <trkpt lat="42.440617000" lon="-2.555787000">
        <ele>463.60</ele>
        <time>2016-10-22T06:58:12Z</time>
      </trkpt>
      <trkpt lat="42.440617000" lon="-2.555787000">
        <ele>463.70</ele>
        <time>2016-10-22T06:58:13Z</time>
      </trkpt>
      <trkpt lat="42.440617000" lon="-2.555787000">
        <ele>463.80</ele>
        <time>2016-10-22T06:58:14Z</time>
      </trkpt>
      <trkpt lat="42.440617000" lon="-2.555787000">
        <ele>463.90</ele>
        <time>2016-10-22T06:58:15Z</time>
      </trkpt>
      <trkpt lat="42.440617000" lon="-2.555787000">
        <ele>463.90</ele>
        <time>2016-10-22T06:58:16Z</time>
      </trkpt>
      <trkpt lat="42.440617000" lon="-2.555787000">
        <ele>464.00</ele>
        <time>2016-10-22T06:58:17Z</time>
      </trkpt>
      <trkpt lat="42.440617000" lon="-2.555787000">
        <ele>464.00</ele>
        <time>2016-10-22T06:58:18Z</time>
      </trkpt>
      <trkpt lat="42.440617000" lon="-2.555787000">
        <ele>463.90</ele>
        <time>2016-10-22T06:58:19Z</time>
      </trkpt>
      <trkpt lat="42.440617000" lon="-2.555787000">
        <ele>463.90</ele>
        <time>2016-10-22T06:58:20Z</time>
      </trkpt>
      <trkpt lat="42.440615000" lon="-2.555790000">
        <ele>463.70</ele>
        <time>2016-10-22T06:58:22Z</time>
      </trkpt>
      <trkpt lat="42.440615000" lon="-2.555790000">
        <ele>463.70</ele>
        <time>2016-10-22T06:58:23Z</time>
      </trkpt>
      <trkpt lat="42.440615000" lon="-2.555790000">
        <ele>463.70</ele>
        <time>2016-10-22T06:58:24Z</time>
      </trkpt>
      <trkpt lat="42.440615000" lon="-2.555790000">
        <ele>463.60</ele>
        <time>2016-10-22T06:58:25Z</time>
      </trkpt>
      <trkpt lat="42.440615000" lon="-2.555790000">
        <ele>463.60</ele>
        <time>2016-10-22T06:58:26Z</time>
      </trkpt>
      <trkpt lat="42.440615000" lon="-2.555790000">
        <ele>463.70</ele>
        <time>2016-10-22T06:58:27Z</time>
      </trkpt>
      <trkpt lat="42.440615000" lon="-2.555790000">
        <ele>463.70</ele>
        <time>2016-10-22T06:58:28Z</time>
      </trkpt>
      <trkpt lat="42.440615000" lon="-2.555790000">
        <ele>463.70</ele>
        <time>2016-10-22T06:58:29Z</time>
      </trkpt>
      <trkpt lat="42.440615000" lon="-2.555790000">
        <ele>463.60</ele>
        <time>2016-10-22T06:58:30Z</time>
      </trkpt>
      <trkpt lat="42.440615000" lon="-2.555790000">
        <ele>463.70</ele>
        <time>2016-10-22T06:58:31Z</time>
      </trkpt>
      <trkpt lat="42.440615000" lon="-2.555790000">
        <ele>463.70</ele>
        <time>2016-10-22T06:58:32Z</time>
      </trkpt>
      <trkpt lat="42.440615000" lon="-2.555790000">
        <ele>463.60</ele>
        <time>2016-10-22T06:58:33Z</time>
      </trkpt>
      <trkpt lat="42.440615000" lon="-2.555790000">
        <ele>463.50</ele>
        <time>2016-10-22T06:58:34Z</time>
      </trkpt>
      <trkpt lat="42.440615000" lon="-2.555790000">
        <ele>463.50</ele>
        <time>2016-10-22T06:58:35Z</time>
      </trkpt>
      <trkpt lat="42.440615000" lon="-2.555790000">
        <ele>463.60</ele>
        <time>2016-10-22T06:58:36Z</time>
      </trkpt>
      <trkpt lat="42.440615000" lon="-2.555790000">
        <ele>463.60</ele>
        <time>2016-10-22T06:58:37Z</time>
      </trkpt>
      <trkpt lat="42.440615000" lon="-2.555790000">
        <ele>463.50</ele>
        <time>2016-10-22T06:58:38Z</time>
      </trkpt>
      <trkpt lat="42.440615000" lon="-2.555790000">
        <ele>463.50</ele>
        <time>2016-10-22T06:58:39Z</time>
      </trkpt>
      <trkpt lat="42.440615000" lon="-2.555790000">
        <ele>463.50</ele>
        <time>2016-10-22T06:58:40Z</time>
      </trkpt>
      <trkpt lat="42.440615000" lon="-2.555790000">
        <ele>463.50</ele>
        <time>2016-10-22T06:58:41Z</time>
      </trkpt>
      <trkpt lat="42.440615000" lon="-2.555790000">
        <ele>463.50</ele>
        <time>2016-10-22T06:58:42Z</time>
      </trkpt>
      <trkpt lat="42.440615000" lon="-2.555790000">
        <ele>463.50</ele>
        <time>2016-10-22T06:58:43Z</time>
      </trkpt>
      <trkpt lat="42.440615000" lon="-2.555790000">
        <ele>463.50</ele>
        <time>2016-10-22T06:58:44Z</time>
      </trkpt>
      <trkpt lat="42.440615000" lon="-2.555790000">
        <ele>463.60</ele>
        <time>2016-10-22T06:58:45Z</time>
      </trkpt>
      <trkpt lat="42.440615000" lon="-2.555790000">
        <ele>463.70</ele>
        <time>2016-10-22T06:58:46Z</time>
      </trkpt>
      <trkpt lat="42.440615000" lon="-2.555790000">
        <ele>463.70</ele>
        <time>2016-10-22T06:58:47Z</time>
      </trkpt>
      <trkpt lat="42.440615000" lon="-2.555790000">
        <ele>463.80</ele>
        <time>2016-10-22T06:58:48Z</time>
      </trkpt>
      <trkpt lat="42.440615000" lon="-2.555790000">
        <ele>463.80</ele>
        <time>2016-10-22T06:58:49Z</time>
      </trkpt>
      <trkpt lat="42.440615000" lon="-2.555790000">
        <ele>463.80</ele>
        <time>2016-10-22T06:58:50Z</time>
      </trkpt>
      <trkpt lat="42.440615000" lon="-2.555790000">
        <ele>463.70</ele>
        <time>2016-10-22T06:58:51Z</time>
      </trkpt>
      <trkpt lat="42.440615000" lon="-2.555790000">
        <ele>463.60</ele>
        <time>2016-10-22T06:58:52Z</time>
      </trkpt>
      <trkpt lat="42.440615000" lon="-2.555790000">
        <ele>463.60</ele>
        <time>2016-10-22T06:58:53Z</time>
      </trkpt>
      <trkpt lat="42.440615000" lon="-2.555790000">
        <ele>463.50</ele>
        <time>2016-10-22T06:58:54Z</time>
      </trkpt>
      <trkpt lat="42.440615000" lon="-2.555790000">
        <ele>463.50</ele>
        <time>2016-10-22T06:58:55Z</time>
      </trkpt>
      <trkpt lat="42.440615000" lon="-2.555790000">
        <ele>463.40</ele>
        <time>2016-10-22T06:58:56Z</time>
      </trkpt>
      <trkpt lat="42.440615000" lon="-2.555790000">
        <ele>463.40</ele>
        <time>2016-10-22T06:58:57Z</time>
      </trkpt>
      <trkpt lat="42.440615000" lon="-2.555790000">
        <ele>463.40</ele>
        <time>2016-10-22T06:58:58Z</time>
      </trkpt>
      <trkpt lat="42.440615000" lon="-2.555790000">
        <ele>463.20</ele>
        <time>2016-10-22T06:58:59Z</time>
      </trkpt>
      <trkpt lat="42.440615000" lon="-2.555790000">
        <ele>463.10</ele>
        <time>2016-10-22T06:59:00Z</time>
      </trkpt>
      <trkpt lat="42.440615000" lon="-2.555790000">
        <ele>463.00</ele>
        <time>2016-10-22T06:59:01Z</time>
      </trkpt>
      <trkpt lat="42.440616000" lon="-2.555793000">
        <ele>462.90</ele>
        <time>2016-10-22T06:59:02Z</time>
      </trkpt>
      <trkpt lat="42.440616000" lon="-2.555793000">
        <ele>462.90</ele>
        <time>2016-10-22T06:59:03Z</time>
      </trkpt>
      <trkpt lat="42.440616000" lon="-2.555793000">
        <ele>462.80</ele>
        <time>2016-10-22T06:59:04Z</time>
      </trkpt>
      <trkpt lat="42.440616000" lon="-2.555793000">
        <ele>462.80</ele>
        <time>2016-10-22T06:59:05Z</time>
      </trkpt>
      <trkpt lat="42.440616000" lon="-2.555793000">
        <ele>462.80</ele>
        <time>2016-10-22T06:59:06Z</time>
      </trkpt>
      <trkpt lat="42.440616000" lon="-2.555793000">
        <ele>462.90</ele>
        <time>2016-10-22T06:59:07Z</time>
      </trkpt>
      <trkpt lat="42.440616000" lon="-2.555793000">
        <ele>462.90</ele>
        <time>2016-10-22T06:59:08Z</time>
      </trkpt>
      <trkpt lat="42.440616000" lon="-2.555793000">
        <ele>463.00</ele>
        <time>2016-10-22T06:59:09Z</time>
      </trkpt>
      <trkpt lat="42.440616000" lon="-2.555793000">
        <ele>463.00</ele>
        <time>2016-10-22T06:59:10Z</time>
      </trkpt>
      <trkpt lat="42.440616000" lon="-2.555793000">
        <ele>462.90</ele>
        <time>2016-10-22T06:59:11Z</time>
      </trkpt>
      <trkpt lat="42.440616000" lon="-2.555793000">
        <ele>462.80</ele>
        <time>2016-10-22T06:59:12Z</time>
      </trkpt>
      <trkpt lat="42.440616000" lon="-2.555793000">
        <ele>462.80</ele>
        <time>2016-10-22T06:59:13Z</time>
      </trkpt>
      <trkpt lat="42.440616000" lon="-2.555793000">
        <ele>462.70</ele>
        <time>2016-10-22T06:59:14Z</time>
      </trkpt>
      <trkpt lat="42.440616000" lon="-2.555793000">
        <ele>462.80</ele>
        <time>2016-10-22T06:59:15Z</time>
      </trkpt>
      <trkpt lat="42.440616000" lon="-2.555793000">
        <ele>462.80</ele>
        <time>2016-10-22T06:59:16Z</time>
      </trkpt>
      <trkpt lat="42.440616000" lon="-2.555793000">
        <ele>462.90</ele>
        <time>2016-10-22T06:59:17Z</time>
      </trkpt>
      <trkpt lat="42.440616000" lon="-2.555793000">
        <ele>463.00</ele>
        <time>2016-10-22T06:59:18Z</time>
      </trkpt>
      <trkpt lat="42.440616000" lon="-2.555793000">
        <ele>463.00</ele>
        <time>2016-10-22T06:59:19Z</time>
      </trkpt>
      <trkpt lat="42.440616000" lon="-2.555793000">
        <ele>463.00</ele>
        <time>2016-10-22T06:59:20Z</time>
      </trkpt>
      <trkpt lat="42.440616000" lon="-2.555793000">
        <ele>463.10</ele>
        <time>2016-10-22T06:59:21Z</time>
      </trkpt>
      <trkpt lat="42.440616000" lon="-2.555793000">
        <ele>463.30</ele>
        <time>2016-10-22T06:59:23Z</time>
      </trkpt>
      <trkpt lat="42.440616000" lon="-2.555793000">
        <ele>463.30</ele>
        <time>2016-10-22T06:59:24Z</time>
      </trkpt>
      <trkpt lat="42.440616000" lon="-2.555793000">
        <ele>463.30</ele>
        <time>2016-10-22T06:59:25Z</time>
      </trkpt>
      <trkpt lat="42.440616000" lon="-2.555793000">
        <ele>463.40</ele>
        <time>2016-10-22T06:59:26Z</time>
      </trkpt>
      <trkpt lat="42.440616000" lon="-2.555793000">
        <ele>463.30</ele>
        <time>2016-10-22T06:59:27Z</time>
      </trkpt>
      <trkpt lat="42.440616000" lon="-2.555793000">
        <ele>463.30</ele>
        <time>2016-10-22T06:59:28Z</time>
      </trkpt>
      <trkpt lat="42.440616000" lon="-2.555793000">
        <ele>463.30</ele>
        <time>2016-10-22T06:59:29Z</time>
      </trkpt>
      <trkpt lat="42.440616000" lon="-2.555793000">
        <ele>463.30</ele>
        <time>2016-10-22T06:59:30Z</time>
      </trkpt>
      <trkpt lat="42.440616000" lon="-2.555793000">
        <ele>463.20</ele>
        <time>2016-10-22T06:59:31Z</time>
      </trkpt>
      <trkpt lat="42.440616000" lon="-2.555793000">
        <ele>463.10</ele>
        <time>2016-10-22T06:59:32Z</time>
      </trkpt>
      <trkpt lat="42.440616000" lon="-2.555793000">
        <ele>463.20</ele>
        <time>2016-10-22T06:59:33Z</time>
      </trkpt>
      <trkpt lat="42.440616000" lon="-2.555793000">
        <ele>463.20</ele>
        <time>2016-10-22T06:59:34Z</time>
      </trkpt>
      <trkpt lat="42.440616000" lon="-2.555793000">
        <ele>463.20</ele>
        <time>2016-10-22T06:59:35Z</time>
      </trkpt>
      <trkpt lat="42.440616000" lon="-2.555793000">
        <ele>463.20</ele>
        <time>2016-10-22T06:59:36Z</time>
      </trkpt>
      <trkpt lat="42.440616000" lon="-2.555793000">
        <ele>463.20</ele>
        <time>2016-10-22T06:59:37Z</time>
      </trkpt>
      <trkpt lat="42.440616000" lon="-2.555793000">
        <ele>463.20</ele>
        <time>2016-10-22T06:59:38Z</time>
      </trkpt>
      <trkpt lat="42.440616000" lon="-2.555793000">
        <ele>463.20</ele>
        <time>2016-10-22T06:59:39Z</time>
      </trkpt>
      <trkpt lat="42.440616000" lon="-2.555793000">
        <ele>463.20</ele>
        <time>2016-10-22T06:59:40Z</time>
      </trkpt>
      <trkpt lat="42.440616000" lon="-2.555793000">
        <ele>463.20</ele>
        <time>2016-10-22T06:59:41Z</time>
      </trkpt>
      <trkpt lat="42.440613000" lon="-2.555792000">
        <ele>463.20</ele>
        <time>2016-10-22T06:59:42Z</time>
      </trkpt>
      <trkpt lat="42.440613000" lon="-2.555792000">
        <ele>463.40</ele>
        <time>2016-10-22T06:59:43Z</time>
      </trkpt>
      <trkpt lat="42.440613000" lon="-2.555792000">
        <ele>463.50</ele>
        <time>2016-10-22T06:59:44Z</time>
      </trkpt>
      <trkpt lat="42.440613000" lon="-2.555792000">
        <ele>463.50</ele>
        <time>2016-10-22T06:59:45Z</time>
      </trkpt>
      <trkpt lat="42.440613000" lon="-2.555792000">
        <ele>463.60</ele>
        <time>2016-10-22T06:59:46Z</time>
      </trkpt>
      <trkpt lat="42.440613000" lon="-2.555792000">
        <ele>463.50</ele>
        <time>2016-10-22T06:59:47Z</time>
      </trkpt>
      <trkpt lat="42.440613000" lon="-2.555792000">
        <ele>463.50</ele>
        <time>2016-10-22T06:59:48Z</time>
      </trkpt>
      <trkpt lat="42.440613000" lon="-2.555792000">
        <ele>463.40</ele>
        <time>2016-10-22T06:59:49Z</time>
      </trkpt>
      <trkpt lat="42.440613000" lon="-2.555792000">
        <ele>463.40</ele>
        <time>2016-10-22T06:59:50Z</time>
      </trkpt>
      <trkpt lat="42.440613000" lon="-2.555792000">
        <ele>463.50</ele>
        <time>2016-10-22T06:59:51Z</time>
      </trkpt>
      <trkpt lat="42.440613000" lon="-2.555792000">
        <ele>463.60</ele>
        <time>2016-10-22T06:59:52Z</time>
      </trkpt>
      <trkpt lat="42.440613000" lon="-2.555792000">
        <ele>463.70</ele>
        <time>2016-10-22T06:59:53Z</time>
      </trkpt>
      <trkpt lat="42.440613000" lon="-2.555792000">
        <ele>463.70</ele>
        <time>2016-10-22T06:59:54Z</time>
      </trkpt>
      <trkpt lat="42.440613000" lon="-2.555792000">
        <ele>463.60</ele>
        <time>2016-10-22T06:59:55Z</time>
      </trkpt>
      <trkpt lat="42.440613000" lon="-2.555792000">
        <ele>463.50</ele>
        <time>2016-10-22T06:59:56Z</time>
      </trkpt>
      <trkpt lat="42.440613000" lon="-2.555792000">
        <ele>463.40</ele>
        <time>2016-10-22T06:59:57Z</time>
      </trkpt>
      <trkpt lat="42.440613000" lon="-2.555792000">
        <ele>463.30</ele>
        <time>2016-10-22T06:59:58Z</time>
      </trkpt>
      <trkpt lat="42.440613000" lon="-2.555792000">
        <ele>463.20</ele>
        <time>2016-10-22T06:59:59Z</time>
      </trkpt>
      <trkpt lat="42.440613000" lon="-2.555792000">
        <ele>463.10</ele>
        <time>2016-10-22T07:00:00Z</time>
      </trkpt>
      <trkpt lat="42.440613000" lon="-2.555792000">
        <ele>463.30</ele>
        <time>2016-10-22T07:00:01Z</time>
      </trkpt>
      <trkpt lat="42.440613000" lon="-2.555792000">
        <ele>463.50</ele>
        <time>2016-10-22T07:00:02Z</time>
      </trkpt>
      <trkpt lat="42.440613000" lon="-2.555792000">
        <ele>463.60</ele>
        <time>2016-10-22T07:00:03Z</time>
      </trkpt>
      <trkpt lat="42.440613000" lon="-2.555792000">
        <ele>463.70</ele>
        <time>2016-10-22T07:00:04Z</time>
      </trkpt>
      <trkpt lat="42.440613000" lon="-2.555792000">
        <ele>463.70</ele>
        <time>2016-10-22T07:00:05Z</time>
      </trkpt>
      <trkpt lat="42.440613000" lon="-2.555792000">
        <ele>463.80</ele>
        <time>2016-10-22T07:00:06Z</time>
      </trkpt>
      <trkpt lat="42.440613000" lon="-2.555792000">
        <ele>463.80</ele>
        <time>2016-10-22T07:00:07Z</time>
      </trkpt>
      <trkpt lat="42.440613000" lon="-2.555792000">
        <ele>463.70</ele>
        <time>2016-10-22T07:00:08Z</time>
      </trkpt>
      <trkpt lat="42.440613000" lon="-2.555792000">
        <ele>463.70</ele>
        <time>2016-10-22T07:00:09Z</time>
      </trkpt>
      <trkpt lat="42.440613000" lon="-2.555792000">
        <ele>463.60</ele>
        <time>2016-10-22T07:00:10Z</time>
      </trkpt>
      <trkpt lat="42.440613000" lon="-2.555792000">
        <ele>463.60</ele>
        <time>2016-10-22T07:00:11Z</time>
      </trkpt>
      <trkpt lat="42.440613000" lon="-2.555792000">
        <ele>463.50</ele>
        <time>2016-10-22T07:00:12Z</time>
      </trkpt>
      <trkpt lat="42.440613000" lon="-2.555792000">
        <ele>463.50</ele>
        <time>2016-10-22T07:00:13Z</time>
      </trkpt>
      <trkpt lat="42.440613000" lon="-2.555792000">
        <ele>463.50</ele>
        <time>2016-10-22T07:00:14Z</time>
      </trkpt>
      <trkpt lat="42.440613000" lon="-2.555792000">
        <ele>463.40</ele>
        <time>2016-10-22T07:00:15Z</time>
      </trkpt>
      <trkpt lat="42.440613000" lon="-2.555792000">
        <ele>463.30</ele>
        <time>2016-10-22T07:00:16Z</time>
      </trkpt>
      <trkpt lat="42.440613000" lon="-2.555792000">
        <ele>463.30</ele>
        <time>2016-10-22T07:00:17Z</time>
      </trkpt>
      <trkpt lat="42.440613000" lon="-2.555792000">
        <ele>463.30</ele>
        <time>2016-10-22T07:00:18Z</time>
      </trkpt>
      <trkpt lat="42.440613000" lon="-2.555792000">
        <ele>463.20</ele>
        <time>2016-10-22T07:00:19Z</time>
      </trkpt>
      <trkpt lat="42.440613000" lon="-2.555792000">
        <ele>463.20</ele>
        <time>2016-10-22T07:00:20Z</time>
      </trkpt>
      <trkpt lat="42.440613000" lon="-2.555792000">
        <ele>463.30</ele>
        <time>2016-10-22T07:00:21Z</time>
      </trkpt>
      <trkpt lat="42.440611000" lon="-2.555793000">
        <ele>463.40</ele>
        <time>2016-10-22T07:00:22Z</time>
      </trkpt>
      <trkpt lat="42.440611000" lon="-2.555793000">
        <ele>463.50</ele>
        <time>2016-10-22T07:00:24Z</time>
      </trkpt>
      <trkpt lat="42.440611000" lon="-2.555793000">
        <ele>463.60</ele>
        <time>2016-10-22T07:00:25Z</time>
      </trkpt>
      <trkpt lat="42.440611000" lon="-2.555793000">
        <ele>463.60</ele>
        <time>2016-10-22T07:00:26Z</time>
      </trkpt>
      <trkpt lat="42.440611000" lon="-2.555793000">
        <ele>463.70</ele>
        <time>2016-10-22T07:00:27Z</time>
      </trkpt>
      <trkpt lat="42.440611000" lon="-2.555793000">
        <ele>463.70</ele>
        <time>2016-10-22T07:00:28Z</time>
      </trkpt>
      <trkpt lat="42.440611000" lon="-2.555793000">
        <ele>463.70</ele>
        <time>2016-10-22T07:00:29Z</time>
      </trkpt>
      <trkpt lat="42.440611000" lon="-2.555793000">
        <ele>463.70</ele>
        <time>2016-10-22T07:00:30Z</time>
      </trkpt>
      <trkpt lat="42.440611000" lon="-2.555793000">
        <ele>463.80</ele>
        <time>2016-10-22T07:00:31Z</time>
      </trkpt>
      <trkpt lat="42.440611000" lon="-2.555793000">
        <ele>463.80</ele>
        <time>2016-10-22T07:00:32Z</time>
      </trkpt>
      <trkpt lat="42.440611000" lon="-2.555793000">
        <ele>463.80</ele>
        <time>2016-10-22T07:00:33Z</time>
      </trkpt>
      <trkpt lat="42.440611000" lon="-2.555793000">
        <ele>463.80</ele>
        <time>2016-10-22T07:00:34Z</time>
      </trkpt>
      <trkpt lat="42.440611000" lon="-2.555793000">
        <ele>463.80</ele>
        <time>2016-10-22T07:00:35Z</time>
      </trkpt>
      <trkpt lat="42.440611000" lon="-2.555793000">
        <ele>463.80</ele>
        <time>2016-10-22T07:00:36Z</time>
      </trkpt>
      <trkpt lat="42.440611000" lon="-2.555793000">
        <ele>463.70</ele>
        <time>2016-10-22T07:00:37Z</time>
      </trkpt>
      <trkpt lat="42.440611000" lon="-2.555793000">
        <ele>463.60</ele>
        <time>2016-10-22T07:00:38Z</time>
      </trkpt>
      <trkpt lat="42.440611000" lon="-2.555793000">
        <ele>463.60</ele>
        <time>2016-10-22T07:00:39Z</time>
      </trkpt>
      <trkpt lat="42.440611000" lon="-2.555793000">
        <ele>463.60</ele>
        <time>2016-10-22T07:00:40Z</time>
      </trkpt>
      <trkpt lat="42.440611000" lon="-2.555793000">
        <ele>463.60</ele>
        <time>2016-10-22T07:00:41Z</time>
      </trkpt>
      <trkpt lat="42.440611000" lon="-2.555793000">
        <ele>463.60</ele>
        <time>2016-10-22T07:00:42Z</time>
      </trkpt>
      <trkpt lat="42.440611000" lon="-2.555793000">
        <ele>463.60</ele>
        <time>2016-10-22T07:00:43Z</time>
      </trkpt>
      <trkpt lat="42.440611000" lon="-2.555793000">
        <ele>463.60</ele>
        <time>2016-10-22T07:00:44Z</time>
      </trkpt>
      <trkpt lat="42.440611000" lon="-2.555793000">
        <ele>463.60</ele>
        <time>2016-10-22T07:00:45Z</time>
      </trkpt>
      <trkpt lat="42.440611000" lon="-2.555793000">
        <ele>463.60</ele>
        <time>2016-10-22T07:00:46Z</time>
      </trkpt>
      <trkpt lat="42.440611000" lon="-2.555793000">
        <ele>463.60</ele>
        <time>2016-10-22T07:00:47Z</time>
      </trkpt>
      <trkpt lat="42.440611000" lon="-2.555793000">
        <ele>463.70</ele>
        <time>2016-10-22T07:00:48Z</time>
      </trkpt>
      <trkpt lat="42.440611000" lon="-2.555793000">
        <ele>463.70</ele>
        <time>2016-10-22T07:00:49Z</time>
      </trkpt>
      <trkpt lat="42.440611000" lon="-2.555793000">
        <ele>463.70</ele>
        <time>2016-10-22T07:00:50Z</time>
      </trkpt>
      <trkpt lat="42.440611000" lon="-2.555793000">
        <ele>463.50</ele>
        <time>2016-10-22T07:00:51Z</time>
      </trkpt>
      <trkpt lat="42.440611000" lon="-2.555793000">
        <ele>463.40</ele>
        <time>2016-10-22T07:00:52Z</time>
      </trkpt>
      <trkpt lat="42.440611000" lon="-2.555793000">
        <ele>463.40</ele>
        <time>2016-10-22T07:00:53Z</time>
      </trkpt>
      <trkpt lat="42.440611000" lon="-2.555793000">
        <ele>463.30</ele>
        <time>2016-10-22T07:00:54Z</time>
      </trkpt>
      <trkpt lat="42.440611000" lon="-2.555793000">
        <ele>463.30</ele>
        <time>2016-10-22T07:00:55Z</time>
      </trkpt>
      <trkpt lat="42.440611000" lon="-2.555793000">
        <ele>463.40</ele>
        <time>2016-10-22T07:00:56Z</time>
      </trkpt>
      <trkpt lat="42.440611000" lon="-2.555793000">
        <ele>463.40</ele>
        <time>2016-10-22T07:00:57Z</time>
      </trkpt>
      <trkpt lat="42.440611000" lon="-2.555793000">
        <ele>463.40</ele>
        <time>2016-10-22T07:00:58Z</time>
      </trkpt>
      <trkpt lat="42.440611000" lon="-2.555793000">
        <ele>463.40</ele>
        <time>2016-10-22T07:00:59Z</time>
      </trkpt>
      <trkpt lat="42.440611000" lon="-2.555793000">
        <ele>463.50</ele>
        <time>2016-10-22T07:01:00Z</time>
      </trkpt>
      <trkpt lat="42.440611000" lon="-2.555793000">
        <ele>463.50</ele>
        <time>2016-10-22T07:01:01Z</time>
      </trkpt>
      <trkpt lat="42.440611000" lon="-2.555795000">
        <ele>463.60</ele>
        <time>2016-10-22T07:01:02Z</time>
      </trkpt>
      <trkpt lat="42.440611000" lon="-2.555795000">
        <ele>463.60</ele>
        <time>2016-10-22T07:01:03Z</time>
      </trkpt>
      <trkpt lat="42.440611000" lon="-2.555795000">
        <ele>463.70</ele>
        <time>2016-10-22T07:01:04Z</time>
      </trkpt>
      <trkpt lat="42.440611000" lon="-2.555795000">
        <ele>463.70</ele>
        <time>2016-10-22T07:01:05Z</time>
      </trkpt>
      <trkpt lat="42.440611000" lon="-2.555795000">
        <ele>463.70</ele>
        <time>2016-10-22T07:01:06Z</time>
      </trkpt>
      <trkpt lat="42.440611000" lon="-2.555795000">
        <ele>463.70</ele>
        <time>2016-10-22T07:01:07Z</time>
      </trkpt>
      <trkpt lat="42.440611000" lon="-2.555795000">
        <ele>463.70</ele>
        <time>2016-10-22T07:01:08Z</time>
      </trkpt>
      <trkpt lat="42.440611000" lon="-2.555795000">
        <ele>463.70</ele>
        <time>2016-10-22T07:01:09Z</time>
      </trkpt>
      <trkpt lat="42.440611000" lon="-2.555795000">
        <ele>463.70</ele>
        <time>2016-10-22T07:01:10Z</time>
      </trkpt>
      <trkpt lat="42.440611000" lon="-2.555795000">
        <ele>463.80</ele>
        <time>2016-10-22T07:01:11Z</time>
      </trkpt>
      <trkpt lat="42.440611000" lon="-2.555795000">
        <ele>463.80</ele>
        <time>2016-10-22T07:01:12Z</time>
      </trkpt>
      <trkpt lat="42.440611000" lon="-2.555795000">
        <ele>463.60</ele>
        <time>2016-10-22T07:01:13Z</time>
      </trkpt>
      <trkpt lat="42.440611000" lon="-2.555795000">
        <ele>463.50</ele>
        <time>2016-10-22T07:01:14Z</time>
      </trkpt>
      <trkpt lat="42.440611000" lon="-2.555795000">
        <ele>463.50</ele>
        <time>2016-10-22T07:01:15Z</time>
      </trkpt>
      <trkpt lat="42.440611000" lon="-2.555795000">
        <ele>463.40</ele>
        <time>2016-10-22T07:01:16Z</time>
      </trkpt>
      <trkpt lat="42.440611000" lon="-2.555795000">
        <ele>463.40</ele>
        <time>2016-10-22T07:01:17Z</time>
      </trkpt>
      <trkpt lat="42.440611000" lon="-2.555795000">
        <ele>463.30</ele>
        <time>2016-10-22T07:01:18Z</time>
      </trkpt>
      <trkpt lat="42.440611000" lon="-2.555795000">
        <ele>463.30</ele>
        <time>2016-10-22T07:01:19Z</time>
      </trkpt>
      <trkpt lat="42.440611000" lon="-2.555795000">
        <ele>463.30</ele>
        <time>2016-10-22T07:01:20Z</time>
      </trkpt>
      <trkpt lat="42.440611000" lon="-2.555795000">
        <ele>463.20</ele>
        <time>2016-10-22T07:01:21Z</time>
      </trkpt>
      <trkpt lat="42.440611000" lon="-2.555795000">
        <ele>463.20</ele>
        <time>2016-10-22T07:01:22Z</time>
      </trkpt>
      <trkpt lat="42.440611000" lon="-2.555795000">
        <ele>463.10</ele>
        <time>2016-10-22T07:01:23Z</time>
      </trkpt>
      <trkpt lat="42.440611000" lon="-2.555795000">
        <ele>463.30</ele>
        <time>2016-10-22T07:01:25Z</time>
      </trkpt>
      <trkpt lat="42.440611000" lon="-2.555795000">
        <ele>463.40</ele>
        <time>2016-10-22T07:01:26Z</time>
      </trkpt>
      <trkpt lat="42.440611000" lon="-2.555795000">
        <ele>463.50</ele>
        <time>2016-10-22T07:01:27Z</time>
      </trkpt>
      <trkpt lat="42.440611000" lon="-2.555795000">
        <ele>463.60</ele>
        <time>2016-10-22T07:01:28Z</time>
      </trkpt>
      <trkpt lat="42.440611000" lon="-2.555795000">
        <ele>463.70</ele>
        <time>2016-10-22T07:01:29Z</time>
      </trkpt>
      <trkpt lat="42.440611000" lon="-2.555795000">
        <ele>463.70</ele>
        <time>2016-10-22T07:01:30Z</time>
      </trkpt>
      <trkpt lat="42.440611000" lon="-2.555795000">
        <ele>463.80</ele>
        <time>2016-10-22T07:01:31Z</time>
      </trkpt>
      <trkpt lat="42.440611000" lon="-2.555795000">
        <ele>463.80</ele>
        <time>2016-10-22T07:01:32Z</time>
      </trkpt>
      <trkpt lat="42.440611000" lon="-2.555795000">
        <ele>463.70</ele>
        <time>2016-10-22T07:01:33Z</time>
      </trkpt>
      <trkpt lat="42.440611000" lon="-2.555795000">
        <ele>463.70</ele>
        <time>2016-10-22T07:01:34Z</time>
      </trkpt>
      <trkpt lat="42.440611000" lon="-2.555795000">
        <ele>463.70</ele>
        <time>2016-10-22T07:01:35Z</time>
      </trkpt>
      <trkpt lat="42.440611000" lon="-2.555795000">
        <ele>463.70</ele>
        <time>2016-10-22T07:01:36Z</time>
      </trkpt>
      <trkpt lat="42.440611000" lon="-2.555795000">
        <ele>463.50</ele>
        <time>2016-10-22T07:01:37Z</time>
      </trkpt>
      <trkpt lat="42.440611000" lon="-2.555795000">
        <ele>463.40</ele>
        <time>2016-10-22T07:01:38Z</time>
      </trkpt>
      <trkpt lat="42.440611000" lon="-2.555795000">
        <ele>463.40</ele>
        <time>2016-10-22T07:01:39Z</time>
      </trkpt>
      <trkpt lat="42.440611000" lon="-2.555795000">
        <ele>463.40</ele>
        <time>2016-10-22T07:01:40Z</time>
      </trkpt>
      <trkpt lat="42.440611000" lon="-2.555795000">
        <ele>463.20</ele>
        <time>2016-10-22T07:01:41Z</time>
      </trkpt>
      <trkpt lat="42.440608000" lon="-2.555793000">
        <ele>463.10</ele>
        <time>2016-10-22T07:01:42Z</time>
      </trkpt>
      <trkpt lat="42.440608000" lon="-2.555793000">
        <ele>463.20</ele>
        <time>2016-10-22T07:01:43Z</time>
      </trkpt>
      <trkpt lat="42.440608000" lon="-2.555793000">
        <ele>463.20</ele>
        <time>2016-10-22T07:01:44Z</time>
      </trkpt>
      <trkpt lat="42.440608000" lon="-2.555793000">
        <ele>463.30</ele>
        <time>2016-10-22T07:01:45Z</time>
      </trkpt>
      <trkpt lat="42.440608000" lon="-2.555793000">
        <ele>463.30</ele>
        <time>2016-10-22T07:01:46Z</time>
      </trkpt>
      <trkpt lat="42.440608000" lon="-2.555793000">
        <ele>463.30</ele>
        <time>2016-10-22T07:01:47Z</time>
      </trkpt>
      <trkpt lat="42.440608000" lon="-2.555793000">
        <ele>463.40</ele>
        <time>2016-10-22T07:01:48Z</time>
      </trkpt>
      <trkpt lat="42.440608000" lon="-2.555793000">
        <ele>463.20</ele>
        <time>2016-10-22T07:01:49Z</time>
      </trkpt>
      <trkpt lat="42.440608000" lon="-2.555793000">
        <ele>463.20</ele>
        <time>2016-10-22T07:01:50Z</time>
      </trkpt>
      <trkpt lat="42.440608000" lon="-2.555793000">
        <ele>463.00</ele>
        <time>2016-10-22T07:01:51Z</time>
      </trkpt>
      <trkpt lat="42.440608000" lon="-2.555793000">
        <ele>462.90</ele>
        <time>2016-10-22T07:01:52Z</time>
      </trkpt>
      <trkpt lat="42.440608000" lon="-2.555793000">
        <ele>462.90</ele>
        <time>2016-10-22T07:01:53Z</time>
      </trkpt>
      <trkpt lat="42.440608000" lon="-2.555793000">
        <ele>462.90</ele>
        <time>2016-10-22T07:01:54Z</time>
      </trkpt>
      <trkpt lat="42.440608000" lon="-2.555793000">
        <ele>463.00</ele>
        <time>2016-10-22T07:01:55Z</time>
      </trkpt>
      <trkpt lat="42.440608000" lon="-2.555793000">
        <ele>463.10</ele>
        <time>2016-10-22T07:01:56Z</time>
      </trkpt>
      <trkpt lat="42.440608000" lon="-2.555793000">
        <ele>463.20</ele>
        <time>2016-10-22T07:01:57Z</time>
      </trkpt>
      <trkpt lat="42.440608000" lon="-2.555793000">
        <ele>463.30</ele>
        <time>2016-10-22T07:01:58Z</time>
      </trkpt>
      <trkpt lat="42.440608000" lon="-2.555793000">
        <ele>463.30</ele>
        <time>2016-10-22T07:01:59Z</time>
      </trkpt>
      <trkpt lat="42.440608000" lon="-2.555793000">
        <ele>463.30</ele>
        <time>2016-10-22T07:02:00Z</time>
      </trkpt>
      <trkpt lat="42.440608000" lon="-2.555793000">
        <ele>463.30</ele>
        <time>2016-10-22T07:02:01Z</time>
      </trkpt>
      <trkpt lat="42.440608000" lon="-2.555793000">
        <ele>463.40</ele>
        <time>2016-10-22T07:02:02Z</time>
      </trkpt>
      <trkpt lat="42.440608000" lon="-2.555793000">
        <ele>463.40</ele>
        <time>2016-10-22T07:02:03Z</time>
      </trkpt>
      <trkpt lat="42.440608000" lon="-2.555793000">
        <ele>463.40</ele>
        <time>2016-10-22T07:02:04Z</time>
      </trkpt>
      <trkpt lat="42.440608000" lon="-2.555793000">
        <ele>463.50</ele>
        <time>2016-10-22T07:02:05Z</time>
      </trkpt>
      <trkpt lat="42.440608000" lon="-2.555793000">
        <ele>463.50</ele>
        <time>2016-10-22T07:02:06Z</time>
      </trkpt>
      <trkpt lat="42.440608000" lon="-2.555793000">
        <ele>463.60</ele>
        <time>2016-10-22T07:02:07Z</time>
      </trkpt>
      <trkpt lat="42.440608000" lon="-2.555793000">
        <ele>463.60</ele>
        <time>2016-10-22T07:02:08Z</time>
      </trkpt>
      <trkpt lat="42.440608000" lon="-2.555793000">
        <ele>463.50</ele>
        <time>2016-10-22T07:02:09Z</time>
      </trkpt>
      <trkpt lat="42.440608000" lon="-2.555793000">
        <ele>463.50</ele>
        <time>2016-10-22T07:02:10Z</time>
      </trkpt>
      <trkpt lat="42.440608000" lon="-2.555793000">
        <ele>463.50</ele>
        <time>2016-10-22T07:02:11Z</time>
      </trkpt>
      <trkpt lat="42.440608000" lon="-2.555793000">
        <ele>463.50</ele>
        <time>2016-10-22T07:02:12Z</time>
      </trkpt>
      <trkpt lat="42.440608000" lon="-2.555793000">
        <ele>463.50</ele>
        <time>2016-10-22T07:02:13Z</time>
      </trkpt>
      <trkpt lat="42.440608000" lon="-2.555793000">
        <ele>463.40</ele>
        <time>2016-10-22T07:02:14Z</time>
      </trkpt>
      <trkpt lat="42.440608000" lon="-2.555793000">
        <ele>463.60</ele>
        <time>2016-10-22T07:02:15Z</time>
      </trkpt>
      <trkpt lat="42.440608000" lon="-2.555793000">
        <ele>463.70</ele>
        <time>2016-10-22T07:02:16Z</time>
      </trkpt>
      <trkpt lat="42.440608000" lon="-2.555793000">
        <ele>463.60</ele>
        <time>2016-10-22T07:02:17Z</time>
      </trkpt>
      <trkpt lat="42.440608000" lon="-2.555793000">
        <ele>463.50</ele>
        <time>2016-10-22T07:02:18Z</time>
      </trkpt>
      <trkpt lat="42.440608000" lon="-2.555793000">
        <ele>463.40</ele>
        <time>2016-10-22T07:02:19Z</time>
      </trkpt>
      <trkpt lat="42.440608000" lon="-2.555793000">
        <ele>463.40</ele>
        <time>2016-10-22T07:02:20Z</time>
      </trkpt>
      <trkpt lat="42.440608000" lon="-2.555793000">
        <ele>463.30</ele>
        <time>2016-10-22T07:02:21Z</time>
      </trkpt>
      <trkpt lat="42.440610000" lon="-2.555795000">
        <ele>463.30</ele>
        <time>2016-10-22T07:02:22Z</time>
      </trkpt>
      <trkpt lat="42.440610000" lon="-2.555795000">
        <ele>463.30</ele>
        <time>2016-10-22T07:02:23Z</time>
      </trkpt>
      <trkpt lat="42.440610000" lon="-2.555795000">
        <ele>463.30</ele>
        <time>2016-10-22T07:02:24Z</time>
      </trkpt>
      <trkpt lat="42.440610000" lon="-2.555795000">
        <ele>463.30</ele>
        <time>2016-10-22T07:02:26Z</time>
      </trkpt>
      <trkpt lat="42.440610000" lon="-2.555795000">
        <ele>463.20</ele>
        <time>2016-10-22T07:02:27Z</time>
      </trkpt>
      <trkpt lat="42.440610000" lon="-2.555795000">
        <ele>463.10</ele>
        <time>2016-10-22T07:02:28Z</time>
      </trkpt>
      <trkpt lat="42.440610000" lon="-2.555795000">
        <ele>463.10</ele>
        <time>2016-10-22T07:02:29Z</time>
      </trkpt>
      <trkpt lat="42.440610000" lon="-2.555795000">
        <ele>463.10</ele>
        <time>2016-10-22T07:02:30Z</time>
      </trkpt>
      <trkpt lat="42.440610000" lon="-2.555795000">
        <ele>463.10</ele>
        <time>2016-10-22T07:02:31Z</time>
      </trkpt>
      <trkpt lat="42.440610000" lon="-2.555795000">
        <ele>463.10</ele>
        <time>2016-10-22T07:02:32Z</time>
      </trkpt>
      <trkpt lat="42.440610000" lon="-2.555795000">
        <ele>463.20</ele>
        <time>2016-10-22T07:02:33Z</time>
      </trkpt>
      <trkpt lat="42.440610000" lon="-2.555795000">
        <ele>463.20</ele>
        <time>2016-10-22T07:02:34Z</time>
      </trkpt>
      <trkpt lat="42.440610000" lon="-2.555795000">
        <ele>463.30</ele>
        <time>2016-10-22T07:02:35Z</time>
      </trkpt>
      <trkpt lat="42.440610000" lon="-2.555795000">
        <ele>463.40</ele>
        <time>2016-10-22T07:02:36Z</time>
      </trkpt>
      <trkpt lat="42.440610000" lon="-2.555795000">
        <ele>463.50</ele>
        <time>2016-10-22T07:02:37Z</time>
      </trkpt>
      <trkpt lat="42.440610000" lon="-2.555795000">
        <ele>463.60</ele>
        <time>2016-10-22T07:02:38Z</time>
      </trkpt>
      <trkpt lat="42.440610000" lon="-2.555795000">
        <ele>463.60</ele>
        <time>2016-10-22T07:02:39Z</time>
      </trkpt>
      <trkpt lat="42.440610000" lon="-2.555795000">
        <ele>463.70</ele>
        <time>2016-10-22T07:02:40Z</time>
      </trkpt>
      <trkpt lat="42.440610000" lon="-2.555795000">
        <ele>463.60</ele>
        <time>2016-10-22T07:02:41Z</time>
      </trkpt>
      <trkpt lat="42.440610000" lon="-2.555795000">
        <ele>463.50</ele>
        <time>2016-10-22T07:02:42Z</time>
      </trkpt>
      <trkpt lat="42.440610000" lon="-2.555795000">
        <ele>463.50</ele>
        <time>2016-10-22T07:02:43Z</time>
      </trkpt>
      <trkpt lat="42.440610000" lon="-2.555795000">
        <ele>463.40</ele>
        <time>2016-10-22T07:02:44Z</time>
      </trkpt>
      <trkpt lat="42.440610000" lon="-2.555795000">
        <ele>463.50</ele>
        <time>2016-10-22T07:02:45Z</time>
      </trkpt>
      <trkpt lat="42.440610000" lon="-2.555795000">
        <ele>463.50</ele>
        <time>2016-10-22T07:02:46Z</time>
      </trkpt>
      <trkpt lat="42.440610000" lon="-2.555795000">
        <ele>463.50</ele>
        <time>2016-10-22T07:02:47Z</time>
      </trkpt>
      <trkpt lat="42.440610000" lon="-2.555795000">
        <ele>463.50</ele>
        <time>2016-10-22T07:02:48Z</time>
      </trkpt>
      <trkpt lat="42.440610000" lon="-2.555795000">
        <ele>463.60</ele>
        <time>2016-10-22T07:02:49Z</time>
      </trkpt>
      <trkpt lat="42.440610000" lon="-2.555795000">
        <ele>463.70</ele>
        <time>2016-10-22T07:02:50Z</time>
      </trkpt>
      <trkpt lat="42.440610000" lon="-2.555795000">
        <ele>463.70</ele>
        <time>2016-10-22T07:02:51Z</time>
      </trkpt>
      <trkpt lat="42.440610000" lon="-2.555795000">
        <ele>463.60</ele>
        <time>2016-10-22T07:02:52Z</time>
      </trkpt>
      <trkpt lat="42.440610000" lon="-2.555795000">
        <ele>463.60</ele>
        <time>2016-10-22T07:02:53Z</time>
      </trkpt>
      <trkpt lat="42.440610000" lon="-2.555795000">
        <ele>463.50</ele>
        <time>2016-10-22T07:02:54Z</time>
      </trkpt>
      <trkpt lat="42.440610000" lon="-2.555795000">
        <ele>463.50</ele>
        <time>2016-10-22T07:02:55Z</time>
      </trkpt>
      <trkpt lat="42.440610000" lon="-2.555795000">
        <ele>463.40</ele>
        <time>2016-10-22T07:02:56Z</time>
      </trkpt>
      <trkpt lat="42.440610000" lon="-2.555795000">
        <ele>463.40</ele>
        <time>2016-10-22T07:02:57Z</time>
      </trkpt>
      <trkpt lat="42.440610000" lon="-2.555795000">
        <ele>463.40</ele>
        <time>2016-10-22T07:02:58Z</time>
      </trkpt>
      <trkpt lat="42.440610000" lon="-2.555795000">
        <ele>463.40</ele>
        <time>2016-10-22T07:02:59Z</time>
      </trkpt>
      <trkpt lat="42.440610000" lon="-2.555795000">
        <ele>463.40</ele>
        <time>2016-10-22T07:03:00Z</time>
      </trkpt>
      <trkpt lat="42.440610000" lon="-2.555795000">
        <ele>463.40</ele>
        <time>2016-10-22T07:03:01Z</time>
      </trkpt>
      <trkpt lat="42.440604000" lon="-2.555786000">
        <ele>463.30</ele>
        <time>2016-10-22T07:03:02Z</time>
      </trkpt>
      <trkpt lat="42.440604000" lon="-2.555786000">
        <ele>463.30</ele>
        <time>2016-10-22T07:03:03Z</time>
      </trkpt>
      <trkpt lat="42.440604000" lon="-2.555786000">
        <ele>463.30</ele>
        <time>2016-10-22T07:03:04Z</time>
      </trkpt>
      <trkpt lat="42.440604000" lon="-2.555786000">
        <ele>463.50</ele>
        <time>2016-10-22T07:03:05Z</time>
      </trkpt>
      <trkpt lat="42.440604000" lon="-2.555786000">
        <ele>463.60</ele>
        <time>2016-10-22T07:03:06Z</time>
      </trkpt>
      <trkpt lat="42.440604000" lon="-2.555786000">
        <ele>463.60</ele>
        <time>2016-10-22T07:03:07Z</time>
      </trkpt>
      <trkpt lat="42.440604000" lon="-2.555786000">
        <ele>463.70</ele>
        <time>2016-10-22T07:03:08Z</time>
      </trkpt>
      <trkpt lat="42.440604000" lon="-2.555786000">
        <ele>463.70</ele>
        <time>2016-10-22T07:03:09Z</time>
      </trkpt>
      <trkpt lat="42.440604000" lon="-2.555786000">
        <ele>463.60</ele>
        <time>2016-10-22T07:03:10Z</time>
      </trkpt>
      <trkpt lat="42.440604000" lon="-2.555786000">
        <ele>463.60</ele>
        <time>2016-10-22T07:03:11Z</time>
      </trkpt>
      <trkpt lat="42.440604000" lon="-2.555786000">
        <ele>463.60</ele>
        <time>2016-10-22T07:03:12Z</time>
      </trkpt>
      <trkpt lat="42.440604000" lon="-2.555786000">
        <ele>463.60</ele>
        <time>2016-10-22T07:03:13Z</time>
      </trkpt>
      <trkpt lat="42.440604000" lon="-2.555786000">
        <ele>463.60</ele>
        <time>2016-10-22T07:03:14Z</time>
      </trkpt>
      <trkpt lat="42.440604000" lon="-2.555786000">
        <ele>463.60</ele>
        <time>2016-10-22T07:03:15Z</time>
      </trkpt>
      <trkpt lat="42.440604000" lon="-2.555786000">
        <ele>463.60</ele>
        <time>2016-10-22T07:03:16Z</time>
      </trkpt>
      <trkpt lat="42.440604000" lon="-2.555786000">
        <ele>463.50</ele>
        <time>2016-10-22T07:03:17Z</time>
      </trkpt>
      <trkpt lat="42.440604000" lon="-2.555786000">
        <ele>463.40</ele>
        <time>2016-10-22T07:03:18Z</time>
      </trkpt>
      <trkpt lat="42.440604000" lon="-2.555786000">
        <ele>463.40</ele>
        <time>2016-10-22T07:03:19Z</time>
      </trkpt>
      <trkpt lat="42.440604000" lon="-2.555786000">
        <ele>463.50</ele>
        <time>2016-10-22T07:03:20Z</time>
      </trkpt>
      <trkpt lat="42.440604000" lon="-2.555786000">
        <ele>463.30</ele>
        <time>2016-10-22T07:03:21Z</time>
      </trkpt>
      <trkpt lat="42.440604000" lon="-2.555786000">
        <ele>463.20</ele>
        <time>2016-10-22T07:03:22Z</time>
      </trkpt>
      <trkpt lat="42.440604000" lon="-2.555786000">
        <ele>463.30</ele>
        <time>2016-10-22T07:03:23Z</time>
      </trkpt>
      <trkpt lat="42.440604000" lon="-2.555786000">
        <ele>463.40</ele>
        <time>2016-10-22T07:03:24Z</time>
      </trkpt>
      <trkpt lat="42.440604000" lon="-2.555786000">
        <ele>463.50</ele>
        <time>2016-10-22T07:03:25Z</time>
      </trkpt>
      <trkpt lat="42.440604000" lon="-2.555786000">
        <ele>463.60</ele>
        <time>2016-10-22T07:03:27Z</time>
      </trkpt>
      <trkpt lat="42.440604000" lon="-2.555786000">
        <ele>463.60</ele>
        <time>2016-10-22T07:03:28Z</time>
      </trkpt>
      <trkpt lat="42.440604000" lon="-2.555786000">
        <ele>463.60</ele>
        <time>2016-10-22T07:03:29Z</time>
      </trkpt>
      <trkpt lat="42.440604000" lon="-2.555786000">
        <ele>463.60</ele>
        <time>2016-10-22T07:03:30Z</time>
      </trkpt>
      <trkpt lat="42.440604000" lon="-2.555786000">
        <ele>463.40</ele>
        <time>2016-10-22T07:03:31Z</time>
      </trkpt>
      <trkpt lat="42.440604000" lon="-2.555786000">
        <ele>463.20</ele>
        <time>2016-10-22T07:03:32Z</time>
      </trkpt>
      <trkpt lat="42.440604000" lon="-2.555786000">
        <ele>463.10</ele>
        <time>2016-10-22T07:03:33Z</time>
      </trkpt>
      <trkpt lat="42.440604000" lon="-2.555786000">
        <ele>462.90</ele>
        <time>2016-10-22T07:03:34Z</time>
      </trkpt>
      <trkpt lat="42.440604000" lon="-2.555786000">
        <ele>463.00</ele>
        <time>2016-10-22T07:03:35Z</time>
      </trkpt>
      <trkpt lat="42.440604000" lon="-2.555786000">
        <ele>463.00</ele>
        <time>2016-10-22T07:03:36Z</time>
      </trkpt>
      <trkpt lat="42.440604000" lon="-2.555786000">
        <ele>463.10</ele>
        <time>2016-10-22T07:03:37Z</time>
      </trkpt>
      <trkpt lat="42.440604000" lon="-2.555786000">
        <ele>463.10</ele>
        <time>2016-10-22T07:03:38Z</time>
      </trkpt>
      <trkpt lat="42.440604000" lon="-2.555786000">
        <ele>463.20</ele>
        <time>2016-10-22T07:03:39Z</time>
      </trkpt>
      <trkpt lat="42.440604000" lon="-2.555786000">
        <ele>463.20</ele>
        <time>2016-10-22T07:03:40Z</time>
      </trkpt>
      <trkpt lat="42.440604000" lon="-2.555786000">
        <ele>463.30</ele>
        <time>2016-10-22T07:03:41Z</time>
      </trkpt>
      <trkpt lat="42.440606000" lon="-2.555787000">
        <ele>463.40</ele>
        <time>2016-10-22T07:03:42Z</time>
      </trkpt>
      <trkpt lat="42.440606000" lon="-2.555787000">
        <ele>463.50</ele>
        <time>2016-10-22T07:03:43Z</time>
      </trkpt>
      <trkpt lat="42.440606000" lon="-2.555787000">
        <ele>463.50</ele>
        <time>2016-10-22T07:03:44Z</time>
      </trkpt>
      <trkpt lat="42.440606000" lon="-2.555787000">
        <ele>463.60</ele>
        <time>2016-10-22T07:03:45Z</time>
      </trkpt>
      <trkpt lat="42.440606000" lon="-2.555787000">
        <ele>463.60</ele>
        <time>2016-10-22T07:03:46Z</time>
      </trkpt>
      <trkpt lat="42.440606000" lon="-2.555787000">
        <ele>463.60</ele>
        <time>2016-10-22T07:03:47Z</time>
      </trkpt>
      <trkpt lat="42.440606000" lon="-2.555787000">
        <ele>463.50</ele>
        <time>2016-10-22T07:03:48Z</time>
      </trkpt>
      <trkpt lat="42.440606000" lon="-2.555787000">
        <ele>463.50</ele>
        <time>2016-10-22T07:03:49Z</time>
      </trkpt>
      <trkpt lat="42.440606000" lon="-2.555787000">
        <ele>463.50</ele>
        <time>2016-10-22T07:03:50Z</time>
      </trkpt>
      <trkpt lat="42.440606000" lon="-2.555787000">
        <ele>463.40</ele>
        <time>2016-10-22T07:03:51Z</time>
      </trkpt>
      <trkpt lat="42.440606000" lon="-2.555787000">
        <ele>463.30</ele>
        <time>2016-10-22T07:03:52Z</time>
      </trkpt>
      <trkpt lat="42.440606000" lon="-2.555787000">
        <ele>463.20</ele>
        <time>2016-10-22T07:03:53Z</time>
      </trkpt>
      <trkpt lat="42.440606000" lon="-2.555787000">
        <ele>463.20</ele>
        <time>2016-10-22T07:03:54Z</time>
      </trkpt>
      <trkpt lat="42.440606000" lon="-2.555787000">
        <ele>463.10</ele>
        <time>2016-10-22T07:03:55Z</time>
      </trkpt>
      <trkpt lat="42.440606000" lon="-2.555787000">
        <ele>463.20</ele>
        <time>2016-10-22T07:03:56Z</time>
      </trkpt>
      <trkpt lat="42.440606000" lon="-2.555787000">
        <ele>463.20</ele>
        <time>2016-10-22T07:03:57Z</time>
      </trkpt>
      <trkpt lat="42.440606000" lon="-2.555787000">
        <ele>463.20</ele>
        <time>2016-10-22T07:03:58Z</time>
      </trkpt>
      <trkpt lat="42.440606000" lon="-2.555787000">
        <ele>463.20</ele>
        <time>2016-10-22T07:03:59Z</time>
      </trkpt>
      <trkpt lat="42.440606000" lon="-2.555787000">
        <ele>463.20</ele>
        <time>2016-10-22T07:04:00Z</time>
      </trkpt>
      <trkpt lat="42.440606000" lon="-2.555787000">
        <ele>463.20</ele>
        <time>2016-10-22T07:04:01Z</time>
      </trkpt>
      <trkpt lat="42.440606000" lon="-2.555787000">
        <ele>463.20</ele>
        <time>2016-10-22T07:04:02Z</time>
      </trkpt>
      <trkpt lat="42.440606000" lon="-2.555787000">
        <ele>463.10</ele>
        <time>2016-10-22T07:04:03Z</time>
      </trkpt>
      <trkpt lat="42.440606000" lon="-2.555787000">
        <ele>463.10</ele>
        <time>2016-10-22T07:04:04Z</time>
      </trkpt>
      <trkpt lat="42.440606000" lon="-2.555787000">
        <ele>463.10</ele>
        <time>2016-10-22T07:04:05Z</time>
      </trkpt>
      <trkpt lat="42.440606000" lon="-2.555787000">
        <ele>463.10</ele>
        <time>2016-10-22T07:04:06Z</time>
      </trkpt>
      <trkpt lat="42.440606000" lon="-2.555787000">
        <ele>463.10</ele>
        <time>2016-10-22T07:04:07Z</time>
      </trkpt>
      <trkpt lat="42.440606000" lon="-2.555787000">
        <ele>463.20</ele>
        <time>2016-10-22T07:04:08Z</time>
      </trkpt>
      <trkpt lat="42.440606000" lon="-2.555787000">
        <ele>463.30</ele>
        <time>2016-10-22T07:04:09Z</time>
      </trkpt>
      <trkpt lat="42.440606000" lon="-2.555787000">
        <ele>463.40</ele>
        <time>2016-10-22T07:04:10Z</time>
      </trkpt>
      <trkpt lat="42.440606000" lon="-2.555787000">
        <ele>463.50</ele>
        <time>2016-10-22T07:04:11Z</time>
      </trkpt>
      <trkpt lat="42.440606000" lon="-2.555787000">
        <ele>463.50</ele>
        <time>2016-10-22T07:04:12Z</time>
      </trkpt>
      <trkpt lat="42.440606000" lon="-2.555787000">
        <ele>463.50</ele>
        <time>2016-10-22T07:04:13Z</time>
      </trkpt>
      <trkpt lat="42.440606000" lon="-2.555787000">
        <ele>463.50</ele>
        <time>2016-10-22T07:04:14Z</time>
      </trkpt>
      <trkpt lat="42.440606000" lon="-2.555787000">
        <ele>463.50</ele>
        <time>2016-10-22T07:04:15Z</time>
      </trkpt>
      <trkpt lat="42.440606000" lon="-2.555787000">
        <ele>463.50</ele>
        <time>2016-10-22T07:04:16Z</time>
      </trkpt>
      <trkpt lat="42.440606000" lon="-2.555787000">
        <ele>463.50</ele>
        <time>2016-10-22T07:04:17Z</time>
      </trkpt>
      <trkpt lat="42.440606000" lon="-2.555787000">
        <ele>463.40</ele>
        <time>2016-10-22T07:04:18Z</time>
      </trkpt>
      <trkpt lat="42.440606000" lon="-2.555787000">
        <ele>463.40</ele>
        <time>2016-10-22T07:04:19Z</time>
      </trkpt>
      <trkpt lat="42.440606000" lon="-2.555787000">
        <ele>463.40</ele>
        <time>2016-10-22T07:04:20Z</time>
      </trkpt>
      <trkpt lat="42.440606000" lon="-2.555787000">
        <ele>463.40</ele>
        <time>2016-10-22T07:04:21Z</time>
      </trkpt>
      <trkpt lat="42.440606000" lon="-2.555790000">
        <ele>463.40</ele>
        <time>2016-10-22T07:04:22Z</time>
      </trkpt>
      <trkpt lat="42.440606000" lon="-2.555790000">
        <ele>463.40</ele>
        <time>2016-10-22T07:04:23Z</time>
      </trkpt>
      <trkpt lat="42.440606000" lon="-2.555790000">
        <ele>463.20</ele>
        <time>2016-10-22T07:04:24Z</time>
      </trkpt>
      <trkpt lat="42.440606000" lon="-2.555790000">
        <ele>463.10</ele>
        <time>2016-10-22T07:04:25Z</time>
      </trkpt>
      <trkpt lat="42.440606000" lon="-2.555790000">
        <ele>463.00</ele>
        <time>2016-10-22T07:04:26Z</time>
      </trkpt>
      <trkpt lat="42.440606000" lon="-2.555790000">
        <ele>463.10</ele>
        <time>2016-10-22T07:04:28Z</time>
      </trkpt>
      <trkpt lat="42.440606000" lon="-2.555790000">
        <ele>463.10</ele>
        <time>2016-10-22T07:04:29Z</time>
      </trkpt>
      <trkpt lat="42.440606000" lon="-2.555790000">
        <ele>463.20</ele>
        <time>2016-10-22T07:04:30Z</time>
      </trkpt>
      <trkpt lat="42.440606000" lon="-2.555790000">
        <ele>463.20</ele>
        <time>2016-10-22T07:04:31Z</time>
      </trkpt>
      <trkpt lat="42.440606000" lon="-2.555790000">
        <ele>463.10</ele>
        <time>2016-10-22T07:04:32Z</time>
      </trkpt>
      <trkpt lat="42.440606000" lon="-2.555790000">
        <ele>463.00</ele>
        <time>2016-10-22T07:04:33Z</time>
      </trkpt>
      <trkpt lat="42.440606000" lon="-2.555790000">
        <ele>463.00</ele>
        <time>2016-10-22T07:04:34Z</time>
      </trkpt>
      <trkpt lat="42.440606000" lon="-2.555790000">
        <ele>462.90</ele>
        <time>2016-10-22T07:04:35Z</time>
      </trkpt>
      <trkpt lat="42.440606000" lon="-2.555790000">
        <ele>463.00</ele>
        <time>2016-10-22T07:04:36Z</time>
      </trkpt>
      <trkpt lat="42.440606000" lon="-2.555790000">
        <ele>463.00</ele>
        <time>2016-10-22T07:04:37Z</time>
      </trkpt>
      <trkpt lat="42.440606000" lon="-2.555790000">
        <ele>463.00</ele>
        <time>2016-10-22T07:04:38Z</time>
      </trkpt>
      <trkpt lat="42.440606000" lon="-2.555790000">
        <ele>463.00</ele>
        <time>2016-10-22T07:04:39Z</time>
      </trkpt>
      <trkpt lat="42.440606000" lon="-2.555790000">
        <ele>463.00</ele>
        <time>2016-10-22T07:04:40Z</time>
      </trkpt>
      <trkpt lat="42.440606000" lon="-2.555790000">
        <ele>463.00</ele>
        <time>2016-10-22T07:04:41Z</time>
      </trkpt>
      <trkpt lat="42.440606000" lon="-2.555790000">
        <ele>463.10</ele>
        <time>2016-10-22T07:04:42Z</time>
      </trkpt>
      <trkpt lat="42.440606000" lon="-2.555790000">
        <ele>463.10</ele>
        <time>2016-10-22T07:04:43Z</time>
      </trkpt>
      <trkpt lat="42.440606000" lon="-2.555790000">
        <ele>463.10</ele>
        <time>2016-10-22T07:04:44Z</time>
      </trkpt>
      <trkpt lat="42.440606000" lon="-2.555790000">
        <ele>463.10</ele>
        <time>2016-10-22T07:04:45Z</time>
      </trkpt>
      <trkpt lat="42.440606000" lon="-2.555790000">
        <ele>463.00</ele>
        <time>2016-10-22T07:04:46Z</time>
      </trkpt>
      <trkpt lat="42.440606000" lon="-2.555790000">
        <ele>462.90</ele>
        <time>2016-10-22T07:04:47Z</time>
      </trkpt>
      <trkpt lat="42.440606000" lon="-2.555790000">
        <ele>462.80</ele>
        <time>2016-10-22T07:04:48Z</time>
      </trkpt>
      <trkpt lat="42.440606000" lon="-2.555790000">
        <ele>462.80</ele>
        <time>2016-10-22T07:04:49Z</time>
      </trkpt>
      <trkpt lat="42.440606000" lon="-2.555790000">
        <ele>462.80</ele>
        <time>2016-10-22T07:04:50Z</time>
      </trkpt>
      <trkpt lat="42.440606000" lon="-2.555790000">
        <ele>462.80</ele>
        <time>2016-10-22T07:04:51Z</time>
      </trkpt>
      <trkpt lat="42.440606000" lon="-2.555790000">
        <ele>462.90</ele>
        <time>2016-10-22T07:04:52Z</time>
      </trkpt>
      <trkpt lat="42.440606000" lon="-2.555790000">
        <ele>463.00</ele>
        <time>2016-10-22T07:04:53Z</time>
      </trkpt>
      <trkpt lat="42.440606000" lon="-2.555790000">
        <ele>463.00</ele>
        <time>2016-10-22T07:04:54Z</time>
      </trkpt>
      <trkpt lat="42.440606000" lon="-2.555790000">
        <ele>463.10</ele>
        <time>2016-10-22T07:04:55Z</time>
      </trkpt>
      <trkpt lat="42.440606000" lon="-2.555790000">
        <ele>463.10</ele>
        <time>2016-10-22T07:04:56Z</time>
      </trkpt>
      <trkpt lat="42.440606000" lon="-2.555790000">
        <ele>463.10</ele>
        <time>2016-10-22T07:04:57Z</time>
      </trkpt>
      <trkpt lat="42.440606000" lon="-2.555790000">
        <ele>463.10</ele>
        <time>2016-10-22T07:04:58Z</time>
      </trkpt>
      <trkpt lat="42.440606000" lon="-2.555790000">
        <ele>463.10</ele>
        <time>2016-10-22T07:04:59Z</time>
      </trkpt>
      <trkpt lat="42.440606000" lon="-2.555790000">
        <ele>463.20</ele>
        <time>2016-10-22T07:05:00Z</time>
      </trkpt>
      <trkpt lat="42.440606000" lon="-2.555790000">
        <ele>463.30</ele>
        <time>2016-10-22T07:05:01Z</time>
      </trkpt>
      <trkpt lat="42.440607000" lon="-2.555788000">
        <ele>463.10</ele>
        <time>2016-10-22T07:05:02Z</time>
      </trkpt>
      <trkpt lat="42.440607000" lon="-2.555788000">
        <ele>462.90</ele>
        <time>2016-10-22T07:05:03Z</time>
      </trkpt>
      <trkpt lat="42.440607000" lon="-2.555788000">
        <ele>462.90</ele>
        <time>2016-10-22T07:05:04Z</time>
      </trkpt>
      <trkpt lat="42.440607000" lon="-2.555788000">
        <ele>462.80</ele>
        <time>2016-10-22T07:05:05Z</time>
      </trkpt>
      <trkpt lat="42.440607000" lon="-2.555788000">
        <ele>462.80</ele>
        <time>2016-10-22T07:05:06Z</time>
      </trkpt>
      <trkpt lat="42.440607000" lon="-2.555788000">
        <ele>462.80</ele>
        <time>2016-10-22T07:05:07Z</time>
      </trkpt>
      <trkpt lat="42.440607000" lon="-2.555788000">
        <ele>462.80</ele>
        <time>2016-10-22T07:05:08Z</time>
      </trkpt>
      <trkpt lat="42.440607000" lon="-2.555788000">
        <ele>462.90</ele>
        <time>2016-10-22T07:05:09Z</time>
      </trkpt>
      <trkpt lat="42.440607000" lon="-2.555788000">
        <ele>462.90</ele>
        <time>2016-10-22T07:05:10Z</time>
      </trkpt>
      <trkpt lat="42.440607000" lon="-2.555788000">
        <ele>462.90</ele>
        <time>2016-10-22T07:05:11Z</time>
      </trkpt>
      <trkpt lat="42.440607000" lon="-2.555788000">
        <ele>462.90</ele>
        <time>2016-10-22T07:05:12Z</time>
      </trkpt>
      <trkpt lat="42.440607000" lon="-2.555788000">
        <ele>462.80</ele>
        <time>2016-10-22T07:05:13Z</time>
      </trkpt>
      <trkpt lat="42.440607000" lon="-2.555788000">
        <ele>462.70</ele>
        <time>2016-10-22T07:05:14Z</time>
      </trkpt>
      <trkpt lat="42.440607000" lon="-2.555788000">
        <ele>462.70</ele>
        <time>2016-10-22T07:05:15Z</time>
      </trkpt>
      <trkpt lat="42.440607000" lon="-2.555788000">
        <ele>462.60</ele>
        <time>2016-10-22T07:05:16Z</time>
      </trkpt>
      <trkpt lat="42.440607000" lon="-2.555788000">
        <ele>462.60</ele>
        <time>2016-10-22T07:05:17Z</time>
      </trkpt>
      <trkpt lat="42.440607000" lon="-2.555788000">
        <ele>462.50</ele>
        <time>2016-10-22T07:05:18Z</time>
      </trkpt>
      <trkpt lat="42.440607000" lon="-2.555788000">
        <ele>462.50</ele>
        <time>2016-10-22T07:05:19Z</time>
      </trkpt>
      <trkpt lat="42.440607000" lon="-2.555788000">
        <ele>462.40</ele>
        <time>2016-10-22T07:05:20Z</time>
      </trkpt>
      <trkpt lat="42.440607000" lon="-2.555788000">
        <ele>462.40</ele>
        <time>2016-10-22T07:05:21Z</time>
      </trkpt>
      <trkpt lat="42.440607000" lon="-2.555788000">
        <ele>462.30</ele>
        <time>2016-10-22T07:05:22Z</time>
      </trkpt>
      <trkpt lat="42.440607000" lon="-2.555788000">
        <ele>462.30</ele>
        <time>2016-10-22T07:05:23Z</time>
      </trkpt>
      <trkpt lat="42.440607000" lon="-2.555788000">
        <ele>462.30</ele>
        <time>2016-10-22T07:05:24Z</time>
      </trkpt>
      <trkpt lat="42.440607000" lon="-2.555788000">
        <ele>462.40</ele>
        <time>2016-10-22T07:05:25Z</time>
      </trkpt>
      <trkpt lat="42.440607000" lon="-2.555788000">
        <ele>462.40</ele>
        <time>2016-10-22T07:05:26Z</time>
      </trkpt>
      <trkpt lat="42.440607000" lon="-2.555788000">
        <ele>462.40</ele>
        <time>2016-10-22T07:05:27Z</time>
      </trkpt>
      <trkpt lat="42.440607000" lon="-2.555788000">
        <ele>462.40</ele>
        <time>2016-10-22T07:05:29Z</time>
      </trkpt>
      <trkpt lat="42.440607000" lon="-2.555788000">
        <ele>462.40</ele>
        <time>2016-10-22T07:05:30Z</time>
      </trkpt>
      <trkpt lat="42.440607000" lon="-2.555788000">
        <ele>462.40</ele>
        <time>2016-10-22T07:05:31Z</time>
      </trkpt>
      <trkpt lat="42.440607000" lon="-2.555788000">
        <ele>462.30</ele>
        <time>2016-10-22T07:05:32Z</time>
      </trkpt>
      <trkpt lat="42.440607000" lon="-2.555788000">
        <ele>462.30</ele>
        <time>2016-10-22T07:05:33Z</time>
      </trkpt>
      <trkpt lat="42.440607000" lon="-2.555788000">
        <ele>462.30</ele>
        <time>2016-10-22T07:05:34Z</time>
      </trkpt>
      <trkpt lat="42.440607000" lon="-2.555788000">
        <ele>462.30</ele>
        <time>2016-10-22T07:05:35Z</time>
      </trkpt>
      <trkpt lat="42.440607000" lon="-2.555788000">
        <ele>462.40</ele>
        <time>2016-10-22T07:05:36Z</time>
      </trkpt>
      <trkpt lat="42.440607000" lon="-2.555788000">
        <ele>462.40</ele>
        <time>2016-10-22T07:05:37Z</time>
      </trkpt>
      <trkpt lat="42.440607000" lon="-2.555788000">
        <ele>462.60</ele>
        <time>2016-10-22T07:05:38Z</time>
      </trkpt>
      <trkpt lat="42.440607000" lon="-2.555788000">
        <ele>462.80</ele>
        <time>2016-10-22T07:05:39Z</time>
      </trkpt>
      <trkpt lat="42.440607000" lon="-2.555788000">
        <ele>462.90</ele>
        <time>2016-10-22T07:05:40Z</time>
      </trkpt>
      <trkpt lat="42.440607000" lon="-2.555788000">
        <ele>463.00</ele>
        <time>2016-10-22T07:05:41Z</time>
      </trkpt>
      <trkpt lat="42.440606000" lon="-2.555787000">
        <ele>463.10</ele>
        <time>2016-10-22T07:05:42Z</time>
      </trkpt>
      <trkpt lat="42.440606000" lon="-2.555787000">
        <ele>463.20</ele>
        <time>2016-10-22T07:05:43Z</time>
      </trkpt>
      <trkpt lat="42.440606000" lon="-2.555787000">
        <ele>463.20</ele>
        <time>2016-10-22T07:05:44Z</time>
      </trkpt>
      <trkpt lat="42.440606000" lon="-2.555787000">
        <ele>463.20</ele>
        <time>2016-10-22T07:05:45Z</time>
      </trkpt>
      <trkpt lat="42.440606000" lon="-2.555787000">
        <ele>463.20</ele>
        <time>2016-10-22T07:05:46Z</time>
      </trkpt>
      <trkpt lat="42.440606000" lon="-2.555787000">
        <ele>463.20</ele>
        <time>2016-10-22T07:05:47Z</time>
      </trkpt>
      <trkpt lat="42.440606000" lon="-2.555787000">
        <ele>463.10</ele>
        <time>2016-10-22T07:05:48Z</time>
      </trkpt>
      <trkpt lat="42.440606000" lon="-2.555787000">
        <ele>463.10</ele>
        <time>2016-10-22T07:05:49Z</time>
      </trkpt>
      <trkpt lat="42.440606000" lon="-2.555787000">
        <ele>463.10</ele>
        <time>2016-10-22T07:05:50Z</time>
      </trkpt>
      <trkpt lat="42.440606000" lon="-2.555787000">
        <ele>463.10</ele>
        <time>2016-10-22T07:05:51Z</time>
      </trkpt>
      <trkpt lat="42.440606000" lon="-2.555787000">
        <ele>463.10</ele>
        <time>2016-10-22T07:05:52Z</time>
      </trkpt>
      <trkpt lat="42.440606000" lon="-2.555787000">
        <ele>463.10</ele>
        <time>2016-10-22T07:05:53Z</time>
      </trkpt>
      <trkpt lat="42.440606000" lon="-2.555787000">
        <ele>463.10</ele>
        <time>2016-10-22T07:05:54Z</time>
      </trkpt>
      <trkpt lat="42.440606000" lon="-2.555787000">
        <ele>463.10</ele>
        <time>2016-10-22T07:05:55Z</time>
      </trkpt>
      <trkpt lat="42.440606000" lon="-2.555787000">
        <ele>463.10</ele>
        <time>2016-10-22T07:05:56Z</time>
      </trkpt>
      <trkpt lat="42.440606000" lon="-2.555787000">
        <ele>463.10</ele>
        <time>2016-10-22T07:05:57Z</time>
      </trkpt>
      <trkpt lat="42.440606000" lon="-2.555787000">
        <ele>463.10</ele>
        <time>2016-10-22T07:05:58Z</time>
      </trkpt>
      <trkpt lat="42.440606000" lon="-2.555787000">
        <ele>463.10</ele>
        <time>2016-10-22T07:05:59Z</time>
      </trkpt>
      <trkpt lat="42.440606000" lon="-2.555787000">
        <ele>463.10</ele>
        <time>2016-10-22T07:06:00Z</time>
      </trkpt>
      <trkpt lat="42.440606000" lon="-2.555787000">
        <ele>463.10</ele>
        <time>2016-10-22T07:06:01Z</time>
      </trkpt>
      <trkpt lat="42.440606000" lon="-2.555787000">
        <ele>463.10</ele>
        <time>2016-10-22T07:06:02Z</time>
      </trkpt>
      <trkpt lat="42.440606000" lon="-2.555787000">
        <ele>463.10</ele>
        <time>2016-10-22T07:06:03Z</time>
      </trkpt>
      <trkpt lat="42.440606000" lon="-2.555787000">
        <ele>463.20</ele>
        <time>2016-10-22T07:06:04Z</time>
      </trkpt>
      <trkpt lat="42.440606000" lon="-2.555787000">
        <ele>463.30</ele>
        <time>2016-10-22T07:06:05Z</time>
      </trkpt>
      <trkpt lat="42.440606000" lon="-2.555787000">
        <ele>463.30</ele>
        <time>2016-10-22T07:06:06Z</time>
      </trkpt>
      <trkpt lat="42.440605000" lon="-2.555792000">
        <ele>463.30</ele>
        <time>2016-10-22T07:06:07Z</time>
      </trkpt>
      <trkpt lat="42.440605000" lon="-2.555796000">
        <ele>463.40</ele>
        <time>2016-10-22T07:06:08Z</time>
      </trkpt>
      <trkpt lat="42.440598000" lon="-2.555801000">
        <ele>463.40</ele>
        <time>2016-10-22T07:06:09Z</time>
      </trkpt>
      <trkpt lat="42.440582000" lon="-2.555801000">
        <ele>463.40</ele>
        <time>2016-10-22T07:06:10Z</time>
      </trkpt>
      <trkpt lat="42.440578000" lon="-2.555796000">
        <ele>463.40</ele>
        <time>2016-10-22T07:06:11Z</time>
      </trkpt>
      <trkpt lat="42.440573000" lon="-2.555796000">
        <ele>463.50</ele>
        <time>2016-10-22T07:06:12Z</time>
      </trkpt>
      <trkpt lat="42.440573000" lon="-2.555798000">
        <ele>463.60</ele>
        <time>2016-10-22T07:06:13Z</time>
      </trkpt>
      <trkpt lat="42.440573000" lon="-2.555798000">
        <ele>463.60</ele>
        <time>2016-10-22T07:06:14Z</time>
      </trkpt>
      <trkpt lat="42.440573000" lon="-2.555798000">
        <ele>463.70</ele>
        <time>2016-10-22T07:06:15Z</time>
      </trkpt>
      <trkpt lat="42.440574000" lon="-2.555793000">
        <ele>463.70</ele>
        <time>2016-10-22T07:06:16Z</time>
      </trkpt>
      <trkpt lat="42.440574000" lon="-2.555793000">
        <ele>463.70</ele>
        <time>2016-10-22T07:06:17Z</time>
      </trkpt>
      <trkpt lat="42.440574000" lon="-2.555793000">
        <ele>463.70</ele>
        <time>2016-10-22T07:06:18Z</time>
      </trkpt>
      <trkpt lat="42.440574000" lon="-2.555793000">
        <ele>463.70</ele>
        <time>2016-10-22T07:06:19Z</time>
      </trkpt>
      <trkpt lat="42.440574000" lon="-2.555793000">
        <ele>463.80</ele>
        <time>2016-10-22T07:06:20Z</time>
      </trkpt>
      <trkpt lat="42.440574000" lon="-2.555793000">
        <ele>463.90</ele>
        <time>2016-10-22T07:06:21Z</time>
      </trkpt>
      <trkpt lat="42.440574000" lon="-2.555793000">
        <ele>464.00</ele>
        <time>2016-10-22T07:06:22Z</time>
      </trkpt>
      <trkpt lat="42.440574000" lon="-2.555793000">
        <ele>464.00</ele>
        <time>2016-10-22T07:06:23Z</time>
      </trkpt>
      <trkpt lat="42.440574000" lon="-2.555793000">
        <ele>464.00</ele>
        <time>2016-10-22T07:06:24Z</time>
      </trkpt>
      <trkpt lat="42.440574000" lon="-2.555793000">
        <ele>463.90</ele>
        <time>2016-10-22T07:06:25Z</time>
      </trkpt>
      <trkpt lat="42.440574000" lon="-2.555793000">
        <ele>463.90</ele>
        <time>2016-10-22T07:06:26Z</time>
      </trkpt>
      <trkpt lat="42.440574000" lon="-2.555793000">
        <ele>463.90</ele>
        <time>2016-10-22T07:06:27Z</time>
      </trkpt>
      <trkpt lat="42.440574000" lon="-2.555793000">
        <ele>463.80</ele>
        <time>2016-10-22T07:06:28Z</time>
      </trkpt>
      <trkpt lat="42.440574000" lon="-2.555793000">
        <ele>463.70</ele>
        <time>2016-10-22T07:06:30Z</time>
      </trkpt>
      <trkpt lat="42.440574000" lon="-2.555793000">
        <ele>463.60</ele>
        <time>2016-10-22T07:06:31Z</time>
      </trkpt>
      <trkpt lat="42.440574000" lon="-2.555793000">
        <ele>463.60</ele>
        <time>2016-10-22T07:06:32Z</time>
      </trkpt>
      <trkpt lat="42.440574000" lon="-2.555793000">
        <ele>463.60</ele>
        <time>2016-10-22T07:06:33Z</time>
      </trkpt>
      <trkpt lat="42.440574000" lon="-2.555793000">
        <ele>463.60</ele>
        <time>2016-10-22T07:06:34Z</time>
      </trkpt>
      <trkpt lat="42.440574000" lon="-2.555793000">
        <ele>463.70</ele>
        <time>2016-10-22T07:06:35Z</time>
      </trkpt>
      <trkpt lat="42.440574000" lon="-2.555793000">
        <ele>463.80</ele>
        <time>2016-10-22T07:06:36Z</time>
      </trkpt>
      <trkpt lat="42.440562000" lon="-2.555789000">
        <ele>463.90</ele>
        <time>2016-10-22T07:06:37Z</time>
      </trkpt>
      <trkpt lat="42.440545000" lon="-2.555784000">
        <ele>463.90</ele>
        <time>2016-10-22T07:06:38Z</time>
      </trkpt>
      <trkpt lat="42.440531000" lon="-2.555782000">
        <ele>464.00</ele>
        <time>2016-10-22T07:06:39Z</time>
      </trkpt>
      <trkpt lat="42.440518000" lon="-2.555775000">
        <ele>464.00</ele>
        <time>2016-10-22T07:06:40Z</time>
      </trkpt>
      <trkpt lat="42.440504000" lon="-2.555774000">
        <ele>464.00</ele>
        <time>2016-10-22T07:06:41Z</time>
      </trkpt>
      <trkpt lat="42.440490000" lon="-2.555782000">
        <ele>464.10</ele>
        <time>2016-10-22T07:06:42Z</time>
      </trkpt>
      <trkpt lat="42.440483000" lon="-2.555798000">
        <ele>464.10</ele>
        <time>2016-10-22T07:06:43Z</time>
      </trkpt>
      <trkpt lat="42.440471000" lon="-2.555806000">
        <ele>464.00</ele>
        <time>2016-10-22T07:06:44Z</time>
      </trkpt>
      <trkpt lat="42.440458000" lon="-2.555811000">
        <ele>464.00</ele>
        <time>2016-10-22T07:06:45Z</time>
      </trkpt>
      <trkpt lat="42.440448000" lon="-2.555805000">
        <ele>463.90</ele>
        <time>2016-10-22T07:06:46Z</time>
      </trkpt>
      <trkpt lat="42.440436000" lon="-2.555792000">
        <ele>463.80</ele>
        <time>2016-10-22T07:06:47Z</time>
      </trkpt>
      <trkpt lat="42.440423000" lon="-2.555786000">
        <ele>463.80</ele>
        <time>2016-10-22T07:06:48Z</time>
      </trkpt>
      <trkpt lat="42.440410000" lon="-2.555781000">
        <ele>463.70</ele>
        <time>2016-10-22T07:06:49Z</time>
      </trkpt>
      <trkpt lat="42.440397000" lon="-2.555782000">
        <ele>463.70</ele>
        <time>2016-10-22T07:06:50Z</time>
      </trkpt>
      <trkpt lat="42.440379000" lon="-2.555789000">
        <ele>463.80</ele>
        <time>2016-10-22T07:06:51Z</time>
      </trkpt>
      <trkpt lat="42.440365000" lon="-2.555795000">
        <ele>463.90</ele>
        <time>2016-10-22T07:06:52Z</time>
      </trkpt>
      <trkpt lat="42.440349000" lon="-2.555799000">
        <ele>464.00</ele>
        <time>2016-10-22T07:06:53Z</time>
      </trkpt>
      <trkpt lat="42.440336000" lon="-2.555811000">
        <ele>464.00</ele>
        <time>2016-10-22T07:06:54Z</time>
      </trkpt>
      <trkpt lat="42.440322000" lon="-2.555826000">
        <ele>464.10</ele>
        <time>2016-10-22T07:06:55Z</time>
      </trkpt>
      <trkpt lat="42.440306000" lon="-2.555835000">
        <ele>464.00</ele>
        <time>2016-10-22T07:06:56Z</time>
      </trkpt>
      <trkpt lat="42.440290000" lon="-2.555841000">
        <ele>464.00</ele>
        <time>2016-10-22T07:06:57Z</time>
      </trkpt>
      <trkpt lat="42.440272000" lon="-2.555848000">
        <ele>464.00</ele>
        <time>2016-10-22T07:06:58Z</time>
      </trkpt>
      <trkpt lat="42.440253000" lon="-2.555858000">
        <ele>464.00</ele>
        <time>2016-10-22T07:06:59Z</time>
      </trkpt>
      <trkpt lat="42.440234000" lon="-2.555864000">
        <ele>464.00</ele>
        <time>2016-10-22T07:07:00Z</time>
      </trkpt>
      <trkpt lat="42.440214000" lon="-2.555871000">
        <ele>464.00</ele>
        <time>2016-10-22T07:07:01Z</time>
      </trkpt>
      <trkpt lat="42.440198000" lon="-2.555878000">
        <ele>463.80</ele>
        <time>2016-10-22T07:07:02Z</time>
      </trkpt>
      <trkpt lat="42.440182000" lon="-2.555878000">
        <ele>463.60</ele>
        <time>2016-10-22T07:07:03Z</time>
      </trkpt>
      <trkpt lat="42.440166000" lon="-2.555878000">
        <ele>463.50</ele>
        <time>2016-10-22T07:07:04Z</time>
      </trkpt>
      <trkpt lat="42.440148000" lon="-2.555877000">
        <ele>463.50</ele>
        <time>2016-10-22T07:07:05Z</time>
      </trkpt>
      <trkpt lat="42.440129000" lon="-2.555882000">
        <ele>463.60</ele>
        <time>2016-10-22T07:07:06Z</time>
      </trkpt>
      <trkpt lat="42.440112000" lon="-2.555889000">
        <ele>463.70</ele>
        <time>2016-10-22T07:07:07Z</time>
      </trkpt>
      <trkpt lat="42.440093000" lon="-2.555897000">
        <ele>463.80</ele>
        <time>2016-10-22T07:07:08Z</time>
      </trkpt>
      <trkpt lat="42.440074000" lon="-2.555907000">
        <ele>463.90</ele>
        <time>2016-10-22T07:07:09Z</time>
      </trkpt>
      <trkpt lat="42.440054000" lon="-2.555911000">
        <ele>463.90</ele>
        <time>2016-10-22T07:07:10Z</time>
      </trkpt>
      <trkpt lat="42.440036000" lon="-2.555914000">
        <ele>463.90</ele>
        <time>2016-10-22T07:07:11Z</time>
      </trkpt>
      <trkpt lat="42.440016000" lon="-2.555918000">
        <ele>464.00</ele>
        <time>2016-10-22T07:07:12Z</time>
      </trkpt>
      <trkpt lat="42.439997000" lon="-2.555922000">
        <ele>464.10</ele>
        <time>2016-10-22T07:07:13Z</time>
      </trkpt>
      <trkpt lat="42.439976000" lon="-2.555930000">
        <ele>464.10</ele>
        <time>2016-10-22T07:07:14Z</time>
      </trkpt>
      <trkpt lat="42.439959000" lon="-2.555930000">
        <ele>464.20</ele>
        <time>2016-10-22T07:07:15Z</time>
      </trkpt>
      <trkpt lat="42.439939000" lon="-2.555925000">
        <ele>464.20</ele>
        <time>2016-10-22T07:07:16Z</time>
      </trkpt>
      <trkpt lat="42.439922000" lon="-2.555920000">
        <ele>464.20</ele>
        <time>2016-10-22T07:07:17Z</time>
      </trkpt>
      <trkpt lat="42.439905000" lon="-2.555914000">
        <ele>464.30</ele>
        <time>2016-10-22T07:07:18Z</time>
      </trkpt>
      <trkpt lat="42.439889000" lon="-2.555901000">
        <ele>464.30</ele>
        <time>2016-10-22T07:07:19Z</time>
      </trkpt>
      <trkpt lat="42.439875000" lon="-2.555883000">
        <ele>464.40</ele>
        <time>2016-10-22T07:07:20Z</time>
      </trkpt>
      <trkpt lat="42.439867000" lon="-2.555860000">
        <ele>464.60</ele>
        <time>2016-10-22T07:07:21Z</time>
      </trkpt>
      <trkpt lat="42.439857000" lon="-2.555829000">
        <ele>464.80</ele>
        <time>2016-10-22T07:07:22Z</time>
      </trkpt>
      <trkpt lat="42.439856000" lon="-2.555806000">
        <ele>464.90</ele>
        <time>2016-10-22T07:07:23Z</time>
      </trkpt>
      <trkpt lat="42.439857000" lon="-2.555778000">
        <ele>465.20</ele>
        <time>2016-10-22T07:07:24Z</time>
      </trkpt>
      <trkpt lat="42.439858000" lon="-2.555755000">
        <ele>465.40</ele>
        <time>2016-10-22T07:07:25Z</time>
      </trkpt>
      <trkpt lat="42.439862000" lon="-2.555732000">
        <ele>465.50</ele>
        <time>2016-10-22T07:07:26Z</time>
      </trkpt>
      <trkpt lat="42.439868000" lon="-2.555710000">
        <ele>465.60</ele>
        <time>2016-10-22T07:07:27Z</time>
      </trkpt>
      <trkpt lat="42.439878000" lon="-2.555690000">
        <ele>466.00</ele>
        <time>2016-10-22T07:07:28Z</time>
      </trkpt>
      <trkpt lat="42.439887000" lon="-2.555671000">
        <ele>466.30</ele>
        <time>2016-10-22T07:07:29Z</time>
      </trkpt>
      <trkpt lat="42.439909000" lon="-2.555629000">
        <ele>466.60</ele>
        <time>2016-10-22T07:07:31Z</time>
      </trkpt>
      <trkpt lat="42.439917000" lon="-2.555609000">
        <ele>466.70</ele>
        <time>2016-10-22T07:07:32Z</time>
      </trkpt>
      <trkpt lat="42.439927000" lon="-2.555585000">
        <ele>466.80</ele>
        <time>2016-10-22T07:07:33Z</time>
      </trkpt>
      <trkpt lat="42.439936000" lon="-2.555559000">
        <ele>467.00</ele>
        <time>2016-10-22T07:07:34Z</time>
      </trkpt>
      <trkpt lat="42.439946000" lon="-2.555536000">
        <ele>467.20</ele>
        <time>2016-10-22T07:07:35Z</time>
      </trkpt>
      <trkpt lat="42.439952000" lon="-2.555509000">
        <ele>467.30</ele>
        <time>2016-10-22T07:07:36Z</time>
      </trkpt>
      <trkpt lat="42.439961000" lon="-2.555487000">
        <ele>467.40</ele>
        <time>2016-10-22T07:07:37Z</time>
      </trkpt>
      <trkpt lat="42.439973000" lon="-2.555464000">
        <ele>467.70</ele>
        <time>2016-10-22T07:07:38Z</time>
      </trkpt>
      <trkpt lat="42.439983000" lon="-2.555443000">
        <ele>467.90</ele>
        <time>2016-10-22T07:07:39Z</time>
      </trkpt>
      <trkpt lat="42.439994000" lon="-2.555422000">
        <ele>468.10</ele>
        <time>2016-10-22T07:07:40Z</time>
      </trkpt>
      <trkpt lat="42.440004000" lon="-2.555401000">
        <ele>468.20</ele>
        <time>2016-10-22T07:07:41Z</time>
      </trkpt>
      <trkpt lat="42.440012000" lon="-2.555377000">
        <ele>468.40</ele>
        <time>2016-10-22T07:07:42Z</time>
      </trkpt>
      <trkpt lat="42.440020000" lon="-2.555350000">
        <ele>468.50</ele>
        <time>2016-10-22T07:07:43Z</time>
      </trkpt>
      <trkpt lat="42.440031000" lon="-2.555330000">
        <ele>468.70</ele>
        <time>2016-10-22T07:07:44Z</time>
      </trkpt>
      <trkpt lat="42.440040000" lon="-2.555305000">
        <ele>468.70</ele>
        <time>2016-10-22T07:07:45Z</time>
      </trkpt>
      <trkpt lat="42.440052000" lon="-2.555284000">
        <ele>469.10</ele>
        <time>2016-10-22T07:07:46Z</time>
      </trkpt>
      <trkpt lat="42.440060000" lon="-2.555261000">
        <ele>469.40</ele>
        <time>2016-10-22T07:07:47Z</time>
      </trkpt>
      <trkpt lat="42.440069000" lon="-2.555239000">
        <ele>469.70</ele>
        <time>2016-10-22T07:07:48Z</time>
      </trkpt>
      <trkpt lat="42.440074000" lon="-2.555219000">
        <ele>470.00</ele>
        <time>2016-10-22T07:07:49Z</time>
      </trkpt>
      <trkpt lat="42.440080000" lon="-2.555191000">
        <ele>470.30</ele>
        <time>2016-10-22T07:07:50Z</time>
      </trkpt>
      <trkpt lat="42.440087000" lon="-2.555163000">
        <ele>470.40</ele>
        <time>2016-10-22T07:07:51Z</time>
      </trkpt>
      <trkpt lat="42.440097000" lon="-2.555139000">
        <ele>470.60</ele>
        <time>2016-10-22T07:07:52Z</time>
      </trkpt>
      <trkpt lat="42.440110000" lon="-2.555118000">
        <ele>470.70</ele>
        <time>2016-10-22T07:07:53Z</time>
      </trkpt>
      <trkpt lat="42.440123000" lon="-2.555095000">
        <ele>470.70</ele>
        <time>2016-10-22T07:07:54Z</time>
      </trkpt>
      <trkpt lat="42.440138000" lon="-2.555077000">
        <ele>470.70</ele>
        <time>2016-10-22T07:07:55Z</time>
      </trkpt>
      <trkpt lat="42.440151000" lon="-2.555054000">
        <ele>470.70</ele>
        <time>2016-10-22T07:07:56Z</time>
      </trkpt>
      <trkpt lat="42.440161000" lon="-2.555026000">
        <ele>470.70</ele>
        <time>2016-10-22T07:07:57Z</time>
      </trkpt>
      <trkpt lat="42.440171000" lon="-2.554999000">
        <ele>471.00</ele>
        <time>2016-10-22T07:07:58Z</time>
      </trkpt>
      <trkpt lat="42.440189000" lon="-2.554974000">
        <ele>471.20</ele>
        <time>2016-10-22T07:07:59Z</time>
      </trkpt>
      <trkpt lat="42.440208000" lon="-2.554945000">
        <ele>471.40</ele>
        <time>2016-10-22T07:08:00Z</time>
      </trkpt>
      <trkpt lat="42.440229000" lon="-2.554912000">
        <ele>471.50</ele>
        <time>2016-10-22T07:08:01Z</time>
      </trkpt>
      <trkpt lat="42.440246000" lon="-2.554876000">
        <ele>471.50</ele>
        <time>2016-10-22T07:08:02Z</time>
      </trkpt>
      <trkpt lat="42.440257000" lon="-2.554837000">
        <ele>471.50</ele>
        <time>2016-10-22T07:08:03Z</time>
      </trkpt>
      <trkpt lat="42.440268000" lon="-2.554795000">
        <ele>471.50</ele>
        <time>2016-10-22T07:08:04Z</time>
      </trkpt>
      <trkpt lat="42.440287000" lon="-2.554754000">
        <ele>471.50</ele>
        <time>2016-10-22T07:08:05Z</time>
      </trkpt>
      <trkpt lat="42.440311000" lon="-2.554711000">
        <ele>471.60</ele>
        <time>2016-10-22T07:08:06Z</time>
      </trkpt>
      <trkpt lat="42.440335000" lon="-2.554671000">
        <ele>471.60</ele>
        <time>2016-10-22T07:08:07Z</time>
      </trkpt>
      <trkpt lat="42.440361000" lon="-2.554630000">
        <ele>471.70</ele>
        <time>2016-10-22T07:08:08Z</time>
      </trkpt>
      <trkpt lat="42.440386000" lon="-2.554583000">
        <ele>471.70</ele>
        <time>2016-10-22T07:08:09Z</time>
      </trkpt>
      <trkpt lat="42.440410000" lon="-2.554533000">
        <ele>471.40</ele>
        <time>2016-10-22T07:08:10Z</time>
      </trkpt>
      <trkpt lat="42.440436000" lon="-2.554481000">
        <ele>471.20</ele>
        <time>2016-10-22T07:08:11Z</time>
      </trkpt>
      <trkpt lat="42.440459000" lon="-2.554420000">
        <ele>470.90</ele>
        <time>2016-10-22T07:08:12Z</time>
      </trkpt>
      <trkpt lat="42.440484000" lon="-2.554353000">
        <ele>470.80</ele>
        <time>2016-10-22T07:08:13Z</time>
      </trkpt>
      <trkpt lat="42.440513000" lon="-2.554281000">
        <ele>470.40</ele>
        <time>2016-10-22T07:08:14Z</time>
      </trkpt>
      <trkpt lat="42.440532000" lon="-2.554215000">
        <ele>470.10</ele>
        <time>2016-10-22T07:08:15Z</time>
      </trkpt>
      <trkpt lat="42.440549000" lon="-2.554151000">
        <ele>469.80</ele>
        <time>2016-10-22T07:08:16Z</time>
      </trkpt>
      <trkpt lat="42.440551000" lon="-2.554099000">
        <ele>469.60</ele>
        <time>2016-10-22T07:08:17Z</time>
      </trkpt>
      <trkpt lat="42.440542000" lon="-2.554064000">
        <ele>469.10</ele>
        <time>2016-10-22T07:08:18Z</time>
      </trkpt>
      <trkpt lat="42.440519000" lon="-2.554037000">
        <ele>468.80</ele>
        <time>2016-10-22T07:08:19Z</time>
      </trkpt>
      <trkpt lat="42.440484000" lon="-2.554030000">
        <ele>468.30</ele>
        <time>2016-10-22T07:08:20Z</time>
      </trkpt>
      <trkpt lat="42.440437000" lon="-2.554031000">
        <ele>468.00</ele>
        <time>2016-10-22T07:08:21Z</time>
      </trkpt>
      <trkpt lat="42.440388000" lon="-2.554061000">
        <ele>467.50</ele>
        <time>2016-10-22T07:08:22Z</time>
      </trkpt>
      <trkpt lat="42.440336000" lon="-2.554092000">
        <ele>467.10</ele>
        <time>2016-10-22T07:08:23Z</time>
      </trkpt>
      <trkpt lat="42.440279000" lon="-2.554128000">
        <ele>466.60</ele>
        <time>2016-10-22T07:08:24Z</time>
      </trkpt>
      <trkpt lat="42.440228000" lon="-2.554174000">
        <ele>466.30</ele>
        <time>2016-10-22T07:08:25Z</time>
      </trkpt>
      <trkpt lat="42.440167000" lon="-2.554206000">
        <ele>465.80</ele>
        <time>2016-10-22T07:08:26Z</time>
      </trkpt>
      <trkpt lat="42.440100000" lon="-2.554220000">
        <ele>465.40</ele>
        <time>2016-10-22T07:08:27Z</time>
      </trkpt>
      <trkpt lat="42.440032000" lon="-2.554222000">
        <ele>465.10</ele>
        <time>2016-10-22T07:08:28Z</time>
      </trkpt>
      <trkpt lat="42.439969000" lon="-2.554211000">
        <ele>464.90</ele>
        <time>2016-10-22T07:08:29Z</time>
      </trkpt>
      <trkpt lat="42.439909000" lon="-2.554187000">
        <ele>464.50</ele>
        <time>2016-10-22T07:08:30Z</time>
      </trkpt>
      <trkpt lat="42.439807000" lon="-2.554124000">
        <ele>464.00</ele>
        <time>2016-10-22T07:08:32Z</time>
      </trkpt>
      <trkpt lat="42.439760000" lon="-2.554094000">
        <ele>463.80</ele>
        <time>2016-10-22T07:08:33Z</time>
      </trkpt>
      <trkpt lat="42.439713000" lon="-2.554061000">
        <ele>463.60</ele>
        <time>2016-10-22T07:08:34Z</time>
      </trkpt>
      <trkpt lat="42.439670000" lon="-2.554029000">
        <ele>463.50</ele>
        <time>2016-10-22T07:08:35Z</time>
      </trkpt>
      <trkpt lat="42.439631000" lon="-2.553998000">
        <ele>463.40</ele>
        <time>2016-10-22T07:08:36Z</time>
      </trkpt>
      <trkpt lat="42.439595000" lon="-2.553968000">
        <ele>463.30</ele>
        <time>2016-10-22T07:08:37Z</time>
      </trkpt>
      <trkpt lat="42.439560000" lon="-2.553941000">
        <ele>463.30</ele>
        <time>2016-10-22T07:08:38Z</time>
      </trkpt>
      <trkpt lat="42.439528000" lon="-2.553910000">
        <ele>463.30</ele>
        <time>2016-10-22T07:08:39Z</time>
      </trkpt>
      <trkpt lat="42.439497000" lon="-2.553880000">
        <ele>463.20</ele>
        <time>2016-10-22T07:08:40Z</time>
      </trkpt>
      <trkpt lat="42.439469000" lon="-2.553849000">
        <ele>463.20</ele>
        <time>2016-10-22T07:08:41Z</time>
      </trkpt>
      <trkpt lat="42.439438000" lon="-2.553820000">
        <ele>463.20</ele>
        <time>2016-10-22T07:08:42Z</time>
      </trkpt>
      <trkpt lat="42.439405000" lon="-2.553792000">
        <ele>463.30</ele>
        <time>2016-10-22T07:08:43Z</time>
      </trkpt>
      <trkpt lat="42.439372000" lon="-2.553764000">
        <ele>463.30</ele>
        <time>2016-10-22T07:08:44Z</time>
      </trkpt>
      <trkpt lat="42.439337000" lon="-2.553737000">
        <ele>463.30</ele>
        <time>2016-10-22T07:08:45Z</time>
      </trkpt>
      <trkpt lat="42.439305000" lon="-2.553707000">
        <ele>463.30</ele>
        <time>2016-10-22T07:08:46Z</time>
      </trkpt>
      <trkpt lat="42.439271000" lon="-2.553677000">
        <ele>463.30</ele>
        <time>2016-10-22T07:08:47Z</time>
      </trkpt>
      <trkpt lat="42.439238000" lon="-2.553648000">
        <ele>463.30</ele>
        <time>2016-10-22T07:08:48Z</time>
      </trkpt>
      <trkpt lat="42.439205000" lon="-2.553617000">
        <ele>463.30</ele>
        <time>2016-10-22T07:08:49Z</time>
      </trkpt>
      <trkpt lat="42.439173000" lon="-2.553585000">
        <ele>463.30</ele>
        <time>2016-10-22T07:08:50Z</time>
      </trkpt>
      <trkpt lat="42.439139000" lon="-2.553555000">
        <ele>463.30</ele>
        <time>2016-10-22T07:08:51Z</time>
      </trkpt>
      <trkpt lat="42.439105000" lon="-2.553528000">
        <ele>463.30</ele>
        <time>2016-10-22T07:08:52Z</time>
      </trkpt>
      <trkpt lat="42.439071000" lon="-2.553499000">
        <ele>463.20</ele>
        <time>2016-10-22T07:08:53Z</time>
      </trkpt>
      <trkpt lat="42.439039000" lon="-2.553467000">
        <ele>463.20</ele>
        <time>2016-10-22T07:08:54Z</time>
      </trkpt>
      <trkpt lat="42.439006000" lon="-2.553440000">
        <ele>463.10</ele>
        <time>2016-10-22T07:08:55Z</time>
      </trkpt>
      <trkpt lat="42.438971000" lon="-2.553410000">
        <ele>463.10</ele>
        <time>2016-10-22T07:08:56Z</time>
      </trkpt>
      <trkpt lat="42.438934000" lon="-2.553378000">
        <ele>463.10</ele>
        <time>2016-10-22T07:08:57Z</time>
      </trkpt>
      <trkpt lat="42.438899000" lon="-2.553346000">
        <ele>463.10</ele>
        <time>2016-10-22T07:08:58Z</time>
      </trkpt>
      <trkpt lat="42.438863000" lon="-2.553317000">
        <ele>463.10</ele>
        <time>2016-10-22T07:08:59Z</time>
      </trkpt>
      <trkpt lat="42.438829000" lon="-2.553286000">
        <ele>463.10</ele>
        <time>2016-10-22T07:09:00Z</time>
      </trkpt>
      <trkpt lat="42.438794000" lon="-2.553256000">
        <ele>463.10</ele>
        <time>2016-10-22T07:09:01Z</time>
      </trkpt>
      <trkpt lat="42.438760000" lon="-2.553226000">
        <ele>463.10</ele>
        <time>2016-10-22T07:09:02Z</time>
      </trkpt>
      <trkpt lat="42.438724000" lon="-2.553196000">
        <ele>463.10</ele>
        <time>2016-10-22T07:09:03Z</time>
      </trkpt>
      <trkpt lat="42.438692000" lon="-2.553167000">
        <ele>463.10</ele>
        <time>2016-10-22T07:09:04Z</time>
      </trkpt>
      <trkpt lat="42.438660000" lon="-2.553140000">
        <ele>463.20</ele>
        <time>2016-10-22T07:09:05Z</time>
      </trkpt>
      <trkpt lat="42.438628000" lon="-2.553110000">
        <ele>463.20</ele>
        <time>2016-10-22T07:09:06Z</time>
      </trkpt>
      <trkpt lat="42.438595000" lon="-2.553079000">
        <ele>463.20</ele>
        <time>2016-10-22T07:09:07Z</time>
      </trkpt>
      <trkpt lat="42.438564000" lon="-2.553048000">
        <ele>463.20</ele>
        <time>2016-10-22T07:09:08Z</time>
      </trkpt>
      <trkpt lat="42.438531000" lon="-2.553016000">
        <ele>463.20</ele>
        <time>2016-10-22T07:09:09Z</time>
      </trkpt>
      <trkpt lat="42.438499000" lon="-2.552980000">
        <ele>463.10</ele>
        <time>2016-10-22T07:09:10Z</time>
      </trkpt>
      <trkpt lat="42.438466000" lon="-2.552947000">
        <ele>463.10</ele>
        <time>2016-10-22T07:09:11Z</time>
      </trkpt>
      <trkpt lat="42.438436000" lon="-2.552912000">
        <ele>463.10</ele>
        <time>2016-10-22T07:09:12Z</time>
      </trkpt>
      <trkpt lat="42.438408000" lon="-2.552879000">
        <ele>463.10</ele>
        <time>2016-10-22T07:09:13Z</time>
      </trkpt>
      <trkpt lat="42.438374000" lon="-2.552847000">
        <ele>463.30</ele>
        <time>2016-10-22T07:09:14Z</time>
      </trkpt>
      <trkpt lat="42.438342000" lon="-2.552815000">
        <ele>463.40</ele>
        <time>2016-10-22T07:09:15Z</time>
      </trkpt>
      <trkpt lat="42.438312000" lon="-2.552783000">
        <ele>463.30</ele>
        <time>2016-10-22T07:09:16Z</time>
      </trkpt>
      <trkpt lat="42.438282000" lon="-2.552748000">
        <ele>463.30</ele>
        <time>2016-10-22T07:09:17Z</time>
      </trkpt>
      <trkpt lat="42.438254000" lon="-2.552715000">
        <ele>463.20</ele>
        <time>2016-10-22T07:09:18Z</time>
      </trkpt>
      <trkpt lat="42.438223000" lon="-2.552682000">
        <ele>463.20</ele>
        <time>2016-10-22T07:09:19Z</time>
      </trkpt>
      <trkpt lat="42.438192000" lon="-2.552651000">
        <ele>463.20</ele>
        <time>2016-10-22T07:09:20Z</time>
      </trkpt>
      <trkpt lat="42.438162000" lon="-2.552619000">
        <ele>463.10</ele>
        <time>2016-10-22T07:09:21Z</time>
      </trkpt>
      <trkpt lat="42.438133000" lon="-2.552587000">
        <ele>463.10</ele>
        <time>2016-10-22T07:09:22Z</time>
      </trkpt>
      <trkpt lat="42.438106000" lon="-2.552555000">
        <ele>463.10</ele>
        <time>2016-10-22T07:09:23Z</time>
      </trkpt>
      <trkpt lat="42.438079000" lon="-2.552522000">
        <ele>463.10</ele>
        <time>2016-10-22T07:09:24Z</time>
      </trkpt>
      <trkpt lat="42.438053000" lon="-2.552490000">
        <ele>463.10</ele>
        <time>2016-10-22T07:09:25Z</time>
      </trkpt>
      <trkpt lat="42.438023000" lon="-2.552464000">
        <ele>463.10</ele>
        <time>2016-10-22T07:09:26Z</time>
      </trkpt>
      <trkpt lat="42.437997000" lon="-2.552430000">
        <ele>463.20</ele>
        <time>2016-10-22T07:09:27Z</time>
      </trkpt>
      <trkpt lat="42.437970000" lon="-2.552403000">
        <ele>463.10</ele>
        <time>2016-10-22T07:09:28Z</time>
      </trkpt>
      <trkpt lat="42.437942000" lon="-2.552377000">
        <ele>463.10</ele>
        <time>2016-10-22T07:09:29Z</time>
      </trkpt>
      <trkpt lat="42.437914000" lon="-2.552345000">
        <ele>463.10</ele>
        <time>2016-10-22T07:09:30Z</time>
      </trkpt>
      <trkpt lat="42.437884000" lon="-2.552316000">
        <ele>463.10</ele>
        <time>2016-10-22T07:09:31Z</time>
      </trkpt>
      <trkpt lat="42.437827000" lon="-2.552256000">
        <ele>463.10</ele>
        <time>2016-10-22T07:09:33Z</time>
      </trkpt>
      <trkpt lat="42.437799000" lon="-2.552223000">
        <ele>463.10</ele>
        <time>2016-10-22T07:09:34Z</time>
      </trkpt>
      <trkpt lat="42.437771000" lon="-2.552193000">
        <ele>463.10</ele>
        <time>2016-10-22T07:09:35Z</time>
      </trkpt>
      <trkpt lat="42.437742000" lon="-2.552163000">
        <ele>463.10</ele>
        <time>2016-10-22T07:09:36Z</time>
      </trkpt>
      <trkpt lat="42.437712000" lon="-2.552133000">
        <ele>463.10</ele>
        <time>2016-10-22T07:09:37Z</time>
      </trkpt>
      <trkpt lat="42.437684000" lon="-2.552102000">
        <ele>463.10</ele>
        <time>2016-10-22T07:09:38Z</time>
      </trkpt>
      <trkpt lat="42.437655000" lon="-2.552069000">
        <ele>463.10</ele>
        <time>2016-10-22T07:09:39Z</time>
      </trkpt>
      <trkpt lat="42.437627000" lon="-2.552037000">
        <ele>463.10</ele>
        <time>2016-10-22T07:09:40Z</time>
      </trkpt>
      <trkpt lat="42.437597000" lon="-2.552006000">
        <ele>463.20</ele>
        <time>2016-10-22T07:09:41Z</time>
      </trkpt>
      <trkpt lat="42.437569000" lon="-2.551975000">
        <ele>463.40</ele>
        <time>2016-10-22T07:09:42Z</time>
      </trkpt>
      <trkpt lat="42.437539000" lon="-2.551939000">
        <ele>463.50</ele>
        <time>2016-10-22T07:09:43Z</time>
      </trkpt>
      <trkpt lat="42.437510000" lon="-2.551907000">
        <ele>463.60</ele>
        <time>2016-10-22T07:09:44Z</time>
      </trkpt>
      <trkpt lat="42.437480000" lon="-2.551875000">
        <ele>463.80</ele>
        <time>2016-10-22T07:09:45Z</time>
      </trkpt>
      <trkpt lat="42.437449000" lon="-2.551843000">
        <ele>463.80</ele>
        <time>2016-10-22T07:09:46Z</time>
      </trkpt>
      <trkpt lat="42.437419000" lon="-2.551813000">
        <ele>463.80</ele>
        <time>2016-10-22T07:09:47Z</time>
      </trkpt>
      <trkpt lat="42.437392000" lon="-2.551778000">
        <ele>463.90</ele>
        <time>2016-10-22T07:09:48Z</time>
      </trkpt>
      <trkpt lat="42.437363000" lon="-2.551745000">
        <ele>463.90</ele>
        <time>2016-10-22T07:09:49Z</time>
      </trkpt>
      <trkpt lat="42.437334000" lon="-2.551713000">
        <ele>463.90</ele>
        <time>2016-10-22T07:09:50Z</time>
      </trkpt>
      <trkpt lat="42.437305000" lon="-2.551681000">
        <ele>463.80</ele>
        <time>2016-10-22T07:09:51Z</time>
      </trkpt>
      <trkpt lat="42.437276000" lon="-2.551654000">
        <ele>463.70</ele>
        <time>2016-10-22T07:09:52Z</time>
      </trkpt>
      <trkpt lat="42.437248000" lon="-2.551625000">
        <ele>463.70</ele>
        <time>2016-10-22T07:09:53Z</time>
      </trkpt>
      <trkpt lat="42.437216000" lon="-2.551594000">
        <ele>463.60</ele>
        <time>2016-10-22T07:09:54Z</time>
      </trkpt>
      <trkpt lat="42.437183000" lon="-2.551562000">
        <ele>463.50</ele>
        <time>2016-10-22T07:09:55Z</time>
      </trkpt>
      <trkpt lat="42.437153000" lon="-2.551531000">
        <ele>463.50</ele>
        <time>2016-10-22T07:09:56Z</time>
      </trkpt>
      <trkpt lat="42.437128000" lon="-2.551500000">
        <ele>463.50</ele>
        <time>2016-10-22T07:09:57Z</time>
      </trkpt>
      <trkpt lat="42.437099000" lon="-2.551471000">
        <ele>463.60</ele>
        <time>2016-10-22T07:09:58Z</time>
      </trkpt>
      <trkpt lat="42.437070000" lon="-2.551437000">
        <ele>463.60</ele>
        <time>2016-10-22T07:09:59Z</time>
      </trkpt>
      <trkpt lat="42.437042000" lon="-2.551405000">
        <ele>463.70</ele>
        <time>2016-10-22T07:10:00Z</time>
      </trkpt>
      <trkpt lat="42.437012000" lon="-2.551375000">
        <ele>463.80</ele>
        <time>2016-10-22T07:10:01Z</time>
      </trkpt>
      <trkpt lat="42.436983000" lon="-2.551342000">
        <ele>463.90</ele>
        <time>2016-10-22T07:10:02Z</time>
      </trkpt>
      <trkpt lat="42.436952000" lon="-2.551310000">
        <ele>463.90</ele>
        <time>2016-10-22T07:10:03Z</time>
      </trkpt>
      <trkpt lat="42.436923000" lon="-2.551277000">
        <ele>463.90</ele>
        <time>2016-10-22T07:10:04Z</time>
      </trkpt>
      <trkpt lat="42.436895000" lon="-2.551242000">
        <ele>464.00</ele>
        <time>2016-10-22T07:10:05Z</time>
      </trkpt>
      <trkpt lat="42.436866000" lon="-2.551210000">
        <ele>464.00</ele>
        <time>2016-10-22T07:10:06Z</time>
      </trkpt>
      <trkpt lat="42.436837000" lon="-2.551179000">
        <ele>463.90</ele>
        <time>2016-10-22T07:10:07Z</time>
      </trkpt>
      <trkpt lat="42.436806000" lon="-2.551151000">
        <ele>463.90</ele>
        <time>2016-10-22T07:10:08Z</time>
      </trkpt>
      <trkpt lat="42.436776000" lon="-2.551119000">
        <ele>463.90</ele>
        <time>2016-10-22T07:10:09Z</time>
      </trkpt>
      <trkpt lat="42.436744000" lon="-2.551093000">
        <ele>463.90</ele>
        <time>2016-10-22T07:10:10Z</time>
      </trkpt>
      <trkpt lat="42.436715000" lon="-2.551061000">
        <ele>463.90</ele>
        <time>2016-10-22T07:10:11Z</time>
      </trkpt>
      <trkpt lat="42.436687000" lon="-2.551028000">
        <ele>464.10</ele>
        <time>2016-10-22T07:10:12Z</time>
      </trkpt>
      <trkpt lat="42.436659000" lon="-2.550999000">
        <ele>464.20</ele>
        <time>2016-10-22T07:10:13Z</time>
      </trkpt>
      <trkpt lat="42.436628000" lon="-2.550970000">
        <ele>464.30</ele>
        <time>2016-10-22T07:10:14Z</time>
      </trkpt>
      <trkpt lat="42.436595000" lon="-2.550941000">
        <ele>464.40</ele>
        <time>2016-10-22T07:10:15Z</time>
      </trkpt>
      <trkpt lat="42.436567000" lon="-2.550912000">
        <ele>464.50</ele>
        <time>2016-10-22T07:10:16Z</time>
      </trkpt>
      <trkpt lat="42.436536000" lon="-2.550887000">
        <ele>464.60</ele>
        <time>2016-10-22T07:10:17Z</time>
      </trkpt>
      <trkpt lat="42.436508000" lon="-2.550854000">
        <ele>464.60</ele>
        <time>2016-10-22T07:10:18Z</time>
      </trkpt>
      <trkpt lat="42.436479000" lon="-2.550823000">
        <ele>464.60</ele>
        <time>2016-10-22T07:10:19Z</time>
      </trkpt>
      <trkpt lat="42.436449000" lon="-2.550793000">
        <ele>464.60</ele>
        <time>2016-10-22T07:10:20Z</time>
      </trkpt>
      <trkpt lat="42.436422000" lon="-2.550762000">
        <ele>464.70</ele>
        <time>2016-10-22T07:10:21Z</time>
      </trkpt>
      <trkpt lat="42.436392000" lon="-2.550731000">
        <ele>464.60</ele>
        <time>2016-10-22T07:10:22Z</time>
      </trkpt>
      <trkpt lat="42.436367000" lon="-2.550695000">
        <ele>464.60</ele>
        <time>2016-10-22T07:10:23Z</time>
      </trkpt>
      <trkpt lat="42.436342000" lon="-2.550660000">
        <ele>464.70</ele>
        <time>2016-10-22T07:10:24Z</time>
      </trkpt>
      <trkpt lat="42.436314000" lon="-2.550628000">
        <ele>464.70</ele>
        <time>2016-10-22T07:10:25Z</time>
      </trkpt>
      <trkpt lat="42.436287000" lon="-2.550594000">
        <ele>464.80</ele>
        <time>2016-10-22T07:10:26Z</time>
      </trkpt>
      <trkpt lat="42.436260000" lon="-2.550562000">
        <ele>464.90</ele>
        <time>2016-10-22T07:10:27Z</time>
      </trkpt>
      <trkpt lat="42.436231000" lon="-2.550527000">
        <ele>464.90</ele>
        <time>2016-10-22T07:10:28Z</time>
      </trkpt>
      <trkpt lat="42.436203000" lon="-2.550495000">
        <ele>465.00</ele>
        <time>2016-10-22T07:10:29Z</time>
      </trkpt>
      <trkpt lat="42.436173000" lon="-2.550460000">
        <ele>465.00</ele>
        <time>2016-10-22T07:10:30Z</time>
      </trkpt>
      <trkpt lat="42.436147000" lon="-2.550425000">
        <ele>465.10</ele>
        <time>2016-10-22T07:10:31Z</time>
      </trkpt>
      <trkpt lat="42.436118000" lon="-2.550389000">
        <ele>465.10</ele>
        <time>2016-10-22T07:10:32Z</time>
      </trkpt>
      <trkpt lat="42.436064000" lon="-2.550320000">
        <ele>465.20</ele>
        <time>2016-10-22T07:10:34Z</time>
      </trkpt>
      <trkpt lat="42.436042000" lon="-2.550281000">
        <ele>465.20</ele>
        <time>2016-10-22T07:10:35Z</time>
      </trkpt>
      <trkpt lat="42.436019000" lon="-2.550243000">
        <ele>465.30</ele>
        <time>2016-10-22T07:10:36Z</time>
      </trkpt>
      <trkpt lat="42.435999000" lon="-2.550203000">
        <ele>465.50</ele>
        <time>2016-10-22T07:10:37Z</time>
      </trkpt>
      <trkpt lat="42.435985000" lon="-2.550155000">
        <ele>465.50</ele>
        <time>2016-10-22T07:10:38Z</time>
      </trkpt>
      <trkpt lat="42.435981000" lon="-2.550103000">
        <ele>465.60</ele>
        <time>2016-10-22T07:10:39Z</time>
      </trkpt>
      <trkpt lat="42.435988000" lon="-2.550050000">
        <ele>465.80</ele>
        <time>2016-10-22T07:10:40Z</time>
      </trkpt>
      <trkpt lat="42.435996000" lon="-2.550001000">
        <ele>465.90</ele>
        <time>2016-10-22T07:10:41Z</time>
      </trkpt>
      <trkpt lat="42.436007000" lon="-2.549948000">
        <ele>465.90</ele>
        <time>2016-10-22T07:10:42Z</time>
      </trkpt>
      <trkpt lat="42.436022000" lon="-2.549897000">
        <ele>465.80</ele>
        <time>2016-10-22T07:10:43Z</time>
      </trkpt>
      <trkpt lat="42.436033000" lon="-2.549848000">
        <ele>465.80</ele>
        <time>2016-10-22T07:10:44Z</time>
      </trkpt>
      <trkpt lat="42.436043000" lon="-2.549801000">
        <ele>465.80</ele>
        <time>2016-10-22T07:10:45Z</time>
      </trkpt>
      <trkpt lat="42.436053000" lon="-2.549756000">
        <ele>465.70</ele>
        <time>2016-10-22T07:10:46Z</time>
      </trkpt>
      <trkpt lat="42.436065000" lon="-2.549706000">
        <ele>465.70</ele>
        <time>2016-10-22T07:10:47Z</time>
      </trkpt>
      <trkpt lat="42.436076000" lon="-2.549660000">
        <ele>465.70</ele>
        <time>2016-10-22T07:10:48Z</time>
      </trkpt>
      <trkpt lat="42.436078000" lon="-2.549616000">
        <ele>465.70</ele>
        <time>2016-10-22T07:10:49Z</time>
      </trkpt>
      <trkpt lat="42.436079000" lon="-2.549568000">
        <ele>465.70</ele>
        <time>2016-10-22T07:10:50Z</time>
      </trkpt>
      <trkpt lat="42.436077000" lon="-2.549517000">
        <ele>465.70</ele>
        <time>2016-10-22T07:10:51Z</time>
      </trkpt>
      <trkpt lat="42.436069000" lon="-2.549462000">
        <ele>465.70</ele>
        <time>2016-10-22T07:10:52Z</time>
      </trkpt>
      <trkpt lat="42.436059000" lon="-2.549413000">
        <ele>465.80</ele>
        <time>2016-10-22T07:10:53Z</time>
      </trkpt>
      <trkpt lat="42.436043000" lon="-2.549362000">
        <ele>465.80</ele>
        <time>2016-10-22T07:10:54Z</time>
      </trkpt>
      <trkpt lat="42.436023000" lon="-2.549320000">
        <ele>465.90</ele>
        <time>2016-10-22T07:10:55Z</time>
      </trkpt>
      <trkpt lat="42.435997000" lon="-2.549282000">
        <ele>466.00</ele>
        <time>2016-10-22T07:10:56Z</time>
      </trkpt>
      <trkpt lat="42.435967000" lon="-2.549247000">
        <ele>466.10</ele>
        <time>2016-10-22T07:10:57Z</time>
      </trkpt>
      <trkpt lat="42.435940000" lon="-2.549208000">
        <ele>466.10</ele>
        <time>2016-10-22T07:10:58Z</time>
      </trkpt>
      <trkpt lat="42.435912000" lon="-2.549171000">
        <ele>466.10</ele>
        <time>2016-10-22T07:10:59Z</time>
      </trkpt>
      <trkpt lat="42.435881000" lon="-2.549135000">
        <ele>466.00</ele>
        <time>2016-10-22T07:11:00Z</time>
      </trkpt>
      <trkpt lat="42.435857000" lon="-2.549097000">
        <ele>466.00</ele>
        <time>2016-10-22T07:11:01Z</time>
      </trkpt>
      <trkpt lat="42.435834000" lon="-2.549059000">
        <ele>465.90</ele>
        <time>2016-10-22T07:11:02Z</time>
      </trkpt>
      <trkpt lat="42.435812000" lon="-2.549018000">
        <ele>465.80</ele>
        <time>2016-10-22T07:11:03Z</time>
      </trkpt>
      <trkpt lat="42.435786000" lon="-2.548980000">
        <ele>465.70</ele>
        <time>2016-10-22T07:11:04Z</time>
      </trkpt>
      <trkpt lat="42.435765000" lon="-2.548938000">
        <ele>465.60</ele>
        <time>2016-10-22T07:11:05Z</time>
      </trkpt>
      <trkpt lat="42.435744000" lon="-2.548894000">
        <ele>465.90</ele>
        <time>2016-10-22T07:11:06Z</time>
      </trkpt>
      <trkpt lat="42.435724000" lon="-2.548854000">
        <ele>466.10</ele>
        <time>2016-10-22T07:11:07Z</time>
      </trkpt>
      <trkpt lat="42.435707000" lon="-2.548817000">
        <ele>466.20</ele>
        <time>2016-10-22T07:11:08Z</time>
      </trkpt>
      <trkpt lat="42.435686000" lon="-2.548773000">
        <ele>466.30</ele>
        <time>2016-10-22T07:11:09Z</time>
      </trkpt>
      <trkpt lat="42.435669000" lon="-2.548731000">
        <ele>466.30</ele>
        <time>2016-10-22T07:11:10Z</time>
      </trkpt>
      <trkpt lat="42.435648000" lon="-2.548689000">
        <ele>466.20</ele>
        <time>2016-10-22T07:11:11Z</time>
      </trkpt>
      <trkpt lat="42.435629000" lon="-2.548646000">
        <ele>466.20</ele>
        <time>2016-10-22T07:11:12Z</time>
      </trkpt>
      <trkpt lat="42.435611000" lon="-2.548599000">
        <ele>466.20</ele>
        <time>2016-10-22T07:11:13Z</time>
      </trkpt>
      <trkpt lat="42.435590000" lon="-2.548552000">
        <ele>466.40</ele>
        <time>2016-10-22T07:11:14Z</time>
      </trkpt>
      <trkpt lat="42.435574000" lon="-2.548503000">
        <ele>466.50</ele>
        <time>2016-10-22T07:11:15Z</time>
      </trkpt>
      <trkpt lat="42.435558000" lon="-2.548454000">
        <ele>466.60</ele>
        <time>2016-10-22T07:11:16Z</time>
      </trkpt>
      <trkpt lat="42.435548000" lon="-2.548401000">
        <ele>466.70</ele>
        <time>2016-10-22T07:11:17Z</time>
      </trkpt>
      <trkpt lat="42.435540000" lon="-2.548348000">
        <ele>466.70</ele>
        <time>2016-10-22T07:11:18Z</time>
      </trkpt>
      <trkpt lat="42.435534000" lon="-2.548295000">
        <ele>466.70</ele>
        <time>2016-10-22T07:11:19Z</time>
      </trkpt>
      <trkpt lat="42.435530000" lon="-2.548242000">
        <ele>466.80</ele>
        <time>2016-10-22T07:11:20Z</time>
      </trkpt>
      <trkpt lat="42.435524000" lon="-2.548184000">
        <ele>466.80</ele>
        <time>2016-10-22T07:11:21Z</time>
      </trkpt>
      <trkpt lat="42.435505000" lon="-2.548138000">
        <ele>466.80</ele>
        <time>2016-10-22T07:11:22Z</time>
      </trkpt>
      <trkpt lat="42.435482000" lon="-2.548101000">
        <ele>466.80</ele>
        <time>2016-10-22T07:11:23Z</time>
      </trkpt>
      <trkpt lat="42.435454000" lon="-2.548068000">
        <ele>466.90</ele>
        <time>2016-10-22T07:11:24Z</time>
      </trkpt>
      <trkpt lat="42.435420000" lon="-2.548037000">
        <ele>466.90</ele>
        <time>2016-10-22T07:11:25Z</time>
      </trkpt>
      <trkpt lat="42.435385000" lon="-2.548006000">
        <ele>466.90</ele>
        <time>2016-10-22T07:11:26Z</time>
      </trkpt>
      <trkpt lat="42.435353000" lon="-2.547977000">
        <ele>466.90</ele>
        <time>2016-10-22T07:11:27Z</time>
      </trkpt>
      <trkpt lat="42.435319000" lon="-2.547950000">
        <ele>467.10</ele>
        <time>2016-10-22T07:11:28Z</time>
      </trkpt>
      <trkpt lat="42.435287000" lon="-2.547927000">
        <ele>467.30</ele>
        <time>2016-10-22T07:11:29Z</time>
      </trkpt>
      <trkpt lat="42.435255000" lon="-2.547903000">
        <ele>467.40</ele>
        <time>2016-10-22T07:11:30Z</time>
      </trkpt>
      <trkpt lat="42.435226000" lon="-2.547874000">
        <ele>467.50</ele>
        <time>2016-10-22T07:11:31Z</time>
      </trkpt>
      <trkpt lat="42.435195000" lon="-2.547845000">
        <ele>467.60</ele>
        <time>2016-10-22T07:11:32Z</time>
      </trkpt>
      <trkpt lat="42.435161000" lon="-2.547820000">
        <ele>467.60</ele>
        <time>2016-10-22T07:11:33Z</time>
      </trkpt>
      <trkpt lat="42.435096000" lon="-2.547765000">
        <ele>467.80</ele>
        <time>2016-10-22T07:11:35Z</time>
      </trkpt>
      <trkpt lat="42.435064000" lon="-2.547734000">
        <ele>467.90</ele>
        <time>2016-10-22T07:11:36Z</time>
      </trkpt>
      <trkpt lat="42.435034000" lon="-2.547706000">
        <ele>468.00</ele>
        <time>2016-10-22T07:11:37Z</time>
      </trkpt>
      <trkpt lat="42.435004000" lon="-2.547675000">
        <ele>468.10</ele>
        <time>2016-10-22T07:11:38Z</time>
      </trkpt>
      <trkpt lat="42.434973000" lon="-2.547645000">
        <ele>468.20</ele>
        <time>2016-10-22T07:11:39Z</time>
      </trkpt>
      <trkpt lat="42.434944000" lon="-2.547618000">
        <ele>468.20</ele>
        <time>2016-10-22T07:11:40Z</time>
      </trkpt>
      <trkpt lat="42.434911000" lon="-2.547589000">
        <ele>468.20</ele>
        <time>2016-10-22T07:11:41Z</time>
      </trkpt>
      <trkpt lat="42.434875000" lon="-2.547558000">
        <ele>468.20</ele>
        <time>2016-10-22T07:11:42Z</time>
      </trkpt>
      <trkpt lat="42.434841000" lon="-2.547530000">
        <ele>468.30</ele>
        <time>2016-10-22T07:11:43Z</time>
      </trkpt>
      <trkpt lat="42.434806000" lon="-2.547502000">
        <ele>468.50</ele>
        <time>2016-10-22T07:11:44Z</time>
      </trkpt>
      <trkpt lat="42.434774000" lon="-2.547471000">
        <ele>468.60</ele>
        <time>2016-10-22T07:11:45Z</time>
      </trkpt>
      <trkpt lat="42.434743000" lon="-2.547439000">
        <ele>468.70</ele>
        <time>2016-10-22T07:11:46Z</time>
      </trkpt>
      <trkpt lat="42.434711000" lon="-2.547405000">
        <ele>468.80</ele>
        <time>2016-10-22T07:11:47Z</time>
      </trkpt>
      <trkpt lat="42.434682000" lon="-2.547373000">
        <ele>468.90</ele>
        <time>2016-10-22T07:11:48Z</time>
      </trkpt>
      <trkpt lat="42.434647000" lon="-2.547345000">
        <ele>468.90</ele>
        <time>2016-10-22T07:11:49Z</time>
      </trkpt>
      <trkpt lat="42.434614000" lon="-2.547315000">
        <ele>468.90</ele>
        <time>2016-10-22T07:11:50Z</time>
      </trkpt>
      <trkpt lat="42.434583000" lon="-2.547285000">
        <ele>469.00</ele>
        <time>2016-10-22T07:11:51Z</time>
      </trkpt>
      <trkpt lat="42.434548000" lon="-2.547255000">
        <ele>469.00</ele>
        <time>2016-10-22T07:11:52Z</time>
      </trkpt>
      <trkpt lat="42.434514000" lon="-2.547226000">
        <ele>469.00</ele>
        <time>2016-10-22T07:11:53Z</time>
      </trkpt>
      <trkpt lat="42.434479000" lon="-2.547199000">
        <ele>469.10</ele>
        <time>2016-10-22T07:11:54Z</time>
      </trkpt>
      <trkpt lat="42.434444000" lon="-2.547171000">
        <ele>469.10</ele>
        <time>2016-10-22T07:11:55Z</time>
      </trkpt>
      <trkpt lat="42.434409000" lon="-2.547142000">
        <ele>469.10</ele>
        <time>2016-10-22T07:11:56Z</time>
      </trkpt>
      <trkpt lat="42.434373000" lon="-2.547111000">
        <ele>469.20</ele>
        <time>2016-10-22T07:11:57Z</time>
      </trkpt>
      <trkpt lat="42.434338000" lon="-2.547081000">
        <ele>469.20</ele>
        <time>2016-10-22T07:11:58Z</time>
      </trkpt>
      <trkpt lat="42.434301000" lon="-2.547055000">
        <ele>469.30</ele>
        <time>2016-10-22T07:11:59Z</time>
      </trkpt>
      <trkpt lat="42.434265000" lon="-2.547031000">
        <ele>469.30</ele>
        <time>2016-10-22T07:12:00Z</time>
      </trkpt>
      <trkpt lat="42.434230000" lon="-2.547006000">
        <ele>469.40</ele>
        <time>2016-10-22T07:12:01Z</time>
      </trkpt>
      <trkpt lat="42.434192000" lon="-2.546981000">
        <ele>469.40</ele>
        <time>2016-10-22T07:12:02Z</time>
      </trkpt>
      <trkpt lat="42.434156000" lon="-2.546954000">
        <ele>469.40</ele>
        <time>2016-10-22T07:12:03Z</time>
      </trkpt>
      <trkpt lat="42.434121000" lon="-2.546927000">
        <ele>469.30</ele>
        <time>2016-10-22T07:12:04Z</time>
      </trkpt>
      <trkpt lat="42.434086000" lon="-2.546896000">
        <ele>469.30</ele>
        <time>2016-10-22T07:12:05Z</time>
      </trkpt>
      <trkpt lat="42.434053000" lon="-2.546866000">
        <ele>469.30</ele>
        <time>2016-10-22T07:12:06Z</time>
      </trkpt>
      <trkpt lat="42.434021000" lon="-2.546833000">
        <ele>469.40</ele>
        <time>2016-10-22T07:12:07Z</time>
      </trkpt>
      <trkpt lat="42.433994000" lon="-2.546796000">
        <ele>469.40</ele>
        <time>2016-10-22T07:12:08Z</time>
      </trkpt>
      <trkpt lat="42.433970000" lon="-2.546761000">
        <ele>469.40</ele>
        <time>2016-10-22T07:12:09Z</time>
      </trkpt>
      <trkpt lat="42.433944000" lon="-2.546726000">
        <ele>469.50</ele>
        <time>2016-10-22T07:12:10Z</time>
      </trkpt>
      <trkpt lat="42.433924000" lon="-2.546691000">
        <ele>469.60</ele>
        <time>2016-10-22T07:12:11Z</time>
      </trkpt>
      <trkpt lat="42.433903000" lon="-2.546650000">
        <ele>469.70</ele>
        <time>2016-10-22T07:12:12Z</time>
      </trkpt>
      <trkpt lat="42.433883000" lon="-2.546610000">
        <ele>469.70</ele>
        <time>2016-10-22T07:12:13Z</time>
      </trkpt>
      <trkpt lat="42.433860000" lon="-2.546573000">
        <ele>469.90</ele>
        <time>2016-10-22T07:12:14Z</time>
      </trkpt>
      <trkpt lat="42.433840000" lon="-2.546533000">
        <ele>470.00</ele>
        <time>2016-10-22T07:12:15Z</time>
      </trkpt>
      <trkpt lat="42.433821000" lon="-2.546489000">
        <ele>470.20</ele>
        <time>2016-10-22T07:12:16Z</time>
      </trkpt>
      <trkpt lat="42.433803000" lon="-2.546443000">
        <ele>470.30</ele>
        <time>2016-10-22T07:12:17Z</time>
      </trkpt>
      <trkpt lat="42.433786000" lon="-2.546401000">
        <ele>470.60</ele>
        <time>2016-10-22T07:12:18Z</time>
      </trkpt>
      <trkpt lat="42.433767000" lon="-2.546355000">
        <ele>470.80</ele>
        <time>2016-10-22T07:12:19Z</time>
      </trkpt>
      <trkpt lat="42.433746000" lon="-2.546311000">
        <ele>471.00</ele>
        <time>2016-10-22T07:12:20Z</time>
      </trkpt>
      <trkpt lat="42.433736000" lon="-2.546261000">
        <ele>471.10</ele>
        <time>2016-10-22T07:12:21Z</time>
      </trkpt>
      <trkpt lat="42.433724000" lon="-2.546215000">
        <ele>471.20</ele>
        <time>2016-10-22T07:12:22Z</time>
      </trkpt>
      <trkpt lat="42.433711000" lon="-2.546169000">
        <ele>471.30</ele>
        <time>2016-10-22T07:12:23Z</time>
      </trkpt>
      <trkpt lat="42.433698000" lon="-2.546122000">
        <ele>472.00</ele>
        <time>2016-10-22T07:12:24Z</time>
      </trkpt>
      <trkpt lat="42.433685000" lon="-2.546077000">
        <ele>472.50</ele>
        <time>2016-10-22T07:12:25Z</time>
      </trkpt>
      <trkpt lat="42.433672000" lon="-2.546033000">
        <ele>472.90</ele>
        <time>2016-10-22T07:12:26Z</time>
      </trkpt>
      <trkpt lat="42.433663000" lon="-2.545984000">
        <ele>473.20</ele>
        <time>2016-10-22T07:12:27Z</time>
      </trkpt>
      <trkpt lat="42.433650000" lon="-2.545938000">
        <ele>473.60</ele>
        <time>2016-10-22T07:12:28Z</time>
      </trkpt>
      <trkpt lat="42.433637000" lon="-2.545889000">
        <ele>473.90</ele>
        <time>2016-10-22T07:12:29Z</time>
      </trkpt>
      <trkpt lat="42.433624000" lon="-2.545845000">
        <ele>474.10</ele>
        <time>2016-10-22T07:12:30Z</time>
      </trkpt>
      <trkpt lat="42.433611000" lon="-2.545805000">
        <ele>474.20</ele>
        <time>2016-10-22T07:12:31Z</time>
      </trkpt>
      <trkpt lat="42.433600000" lon="-2.545759000">
        <ele>474.50</ele>
        <time>2016-10-22T07:12:32Z</time>
      </trkpt>
      <trkpt lat="42.433590000" lon="-2.545713000">
        <ele>474.70</ele>
        <time>2016-10-22T07:12:33Z</time>
      </trkpt>
      <trkpt lat="42.433580000" lon="-2.545666000">
        <ele>474.90</ele>
        <time>2016-10-22T07:12:34Z</time>
      </trkpt>
      <trkpt lat="42.433559000" lon="-2.545581000">
        <ele>475.70</ele>
        <time>2016-10-22T07:12:36Z</time>
      </trkpt>
      <trkpt lat="42.433551000" lon="-2.545541000">
        <ele>476.10</ele>
        <time>2016-10-22T07:12:37Z</time>
      </trkpt>
      <trkpt lat="42.433546000" lon="-2.545502000">
        <ele>476.30</ele>
        <time>2016-10-22T07:12:38Z</time>
      </trkpt>
      <trkpt lat="42.433532000" lon="-2.545469000">
        <ele>476.60</ele>
        <time>2016-10-22T07:12:39Z</time>
      </trkpt>
      <trkpt lat="42.433525000" lon="-2.545434000">
        <ele>477.10</ele>
        <time>2016-10-22T07:12:40Z</time>
      </trkpt>
      <trkpt lat="42.433521000" lon="-2.545396000">
        <ele>477.40</ele>
        <time>2016-10-22T07:12:41Z</time>
      </trkpt>
      <trkpt lat="42.433515000" lon="-2.545363000">
        <ele>477.70</ele>
        <time>2016-10-22T07:12:42Z</time>
      </trkpt>
      <trkpt lat="42.433509000" lon="-2.545331000">
        <ele>477.90</ele>
        <time>2016-10-22T07:12:43Z</time>
      </trkpt>
      <trkpt lat="42.433502000" lon="-2.545300000">
        <ele>478.10</ele>
        <time>2016-10-22T07:12:44Z</time>
      </trkpt>
      <trkpt lat="42.433496000" lon="-2.545270000">
        <ele>478.20</ele>
        <time>2016-10-22T07:12:45Z</time>
      </trkpt>
      <trkpt lat="42.433492000" lon="-2.545244000">
        <ele>478.30</ele>
        <time>2016-10-22T07:12:46Z</time>
      </trkpt>
      <trkpt lat="42.433482000" lon="-2.545215000">
        <ele>478.50</ele>
        <time>2016-10-22T07:12:47Z</time>
      </trkpt>
      <trkpt lat="42.433473000" lon="-2.545191000">
        <ele>478.50</ele>
        <time>2016-10-22T07:12:48Z</time>
      </trkpt>
      <trkpt lat="42.433462000" lon="-2.545168000">
        <ele>478.60</ele>
        <time>2016-10-22T07:12:49Z</time>
      </trkpt>
      <trkpt lat="42.433450000" lon="-2.545149000">
        <ele>478.70</ele>
        <time>2016-10-22T07:12:50Z</time>
      </trkpt>
      <trkpt lat="42.433438000" lon="-2.545131000">
        <ele>478.70</ele>
        <time>2016-10-22T07:12:51Z</time>
      </trkpt>
      <trkpt lat="42.433424000" lon="-2.545111000">
        <ele>478.70</ele>
        <time>2016-10-22T07:12:52Z</time>
      </trkpt>
      <trkpt lat="42.433412000" lon="-2.545093000">
        <ele>478.70</ele>
        <time>2016-10-22T07:12:53Z</time>
      </trkpt>
      <trkpt lat="42.433397000" lon="-2.545074000">
        <ele>479.00</ele>
        <time>2016-10-22T07:12:54Z</time>
      </trkpt>
      <trkpt lat="42.433382000" lon="-2.545071000">
        <ele>479.20</ele>
        <time>2016-10-22T07:12:55Z</time>
      </trkpt>
      <trkpt lat="42.433364000" lon="-2.545075000">
        <ele>479.40</ele>
        <time>2016-10-22T07:12:56Z</time>
      </trkpt>
      <trkpt lat="42.433342000" lon="-2.545093000">
        <ele>479.60</ele>
        <time>2016-10-22T07:12:57Z</time>
      </trkpt>
      <trkpt lat="42.433325000" lon="-2.545116000">
        <ele>479.80</ele>
        <time>2016-10-22T07:12:58Z</time>
      </trkpt>
      <trkpt lat="42.433305000" lon="-2.545134000">
        <ele>479.90</ele>
        <time>2016-10-22T07:12:59Z</time>
      </trkpt>
      <trkpt lat="42.433281000" lon="-2.545149000">
        <ele>480.00</ele>
        <time>2016-10-22T07:13:00Z</time>
      </trkpt>
      <trkpt lat="42.433256000" lon="-2.545166000">
        <ele>480.10</ele>
        <time>2016-10-22T07:13:01Z</time>
      </trkpt>
      <trkpt lat="42.433228000" lon="-2.545179000">
        <ele>480.40</ele>
        <time>2016-10-22T07:13:02Z</time>
      </trkpt>
      <trkpt lat="42.433202000" lon="-2.545199000">
        <ele>480.60</ele>
        <time>2016-10-22T07:13:03Z</time>
      </trkpt>
      <trkpt lat="42.433177000" lon="-2.545216000">
        <ele>480.80</ele>
        <time>2016-10-22T07:13:04Z</time>
      </trkpt>
      <trkpt lat="42.433148000" lon="-2.545229000">
        <ele>480.90</ele>
        <time>2016-10-22T07:13:05Z</time>
      </trkpt>
      <trkpt lat="42.433117000" lon="-2.545247000">
        <ele>481.00</ele>
        <time>2016-10-22T07:13:06Z</time>
      </trkpt>
      <trkpt lat="42.433087000" lon="-2.545270000">
        <ele>481.10</ele>
        <time>2016-10-22T07:13:07Z</time>
      </trkpt>
      <trkpt lat="42.433057000" lon="-2.545291000">
        <ele>481.20</ele>
        <time>2016-10-22T07:13:08Z</time>
      </trkpt>
      <trkpt lat="42.433029000" lon="-2.545312000">
        <ele>481.30</ele>
        <time>2016-10-22T07:13:09Z</time>
      </trkpt>
      <trkpt lat="42.432999000" lon="-2.545334000">
        <ele>481.40</ele>
        <time>2016-10-22T07:13:10Z</time>
      </trkpt>
      <trkpt lat="42.432968000" lon="-2.545357000">
        <ele>481.50</ele>
        <time>2016-10-22T07:13:11Z</time>
      </trkpt>
      <trkpt lat="42.432935000" lon="-2.545377000">
        <ele>481.50</ele>
        <time>2016-10-22T07:13:12Z</time>
      </trkpt>
      <trkpt lat="42.432899000" lon="-2.545405000">
        <ele>481.50</ele>
        <time>2016-10-22T07:13:13Z</time>
      </trkpt>
      <trkpt lat="42.432858000" lon="-2.545437000">
        <ele>481.50</ele>
        <time>2016-10-22T07:13:14Z</time>
      </trkpt>
      <trkpt lat="42.432815000" lon="-2.545469000">
        <ele>481.60</ele>
        <time>2016-10-22T07:13:15Z</time>
      </trkpt>
      <trkpt lat="42.432767000" lon="-2.545499000">
        <ele>481.60</ele>
        <time>2016-10-22T07:13:16Z</time>
      </trkpt>
      <trkpt lat="42.432719000" lon="-2.545536000">
        <ele>481.60</ele>
        <time>2016-10-22T07:13:17Z</time>
      </trkpt>
      <trkpt lat="42.432670000" lon="-2.545572000">
        <ele>481.30</ele>
        <time>2016-10-22T07:13:18Z</time>
      </trkpt>
      <trkpt lat="42.432613000" lon="-2.545612000">
        <ele>481.10</ele>
        <time>2016-10-22T07:13:19Z</time>
      </trkpt>
      <trkpt lat="42.432554000" lon="-2.545656000">
        <ele>480.90</ele>
        <time>2016-10-22T07:13:20Z</time>
      </trkpt>
      <trkpt lat="42.432491000" lon="-2.545703000">
        <ele>480.70</ele>
        <time>2016-10-22T07:13:21Z</time>
      </trkpt>
      <trkpt lat="42.432424000" lon="-2.545752000">
        <ele>479.90</ele>
        <time>2016-10-22T07:13:22Z</time>
      </trkpt>
      <trkpt lat="42.432354000" lon="-2.545805000">
        <ele>479.30</ele>
        <time>2016-10-22T07:13:23Z</time>
      </trkpt>
      <trkpt lat="42.432289000" lon="-2.545854000">
        <ele>478.70</ele>
        <time>2016-10-22T07:13:24Z</time>
      </trkpt>
      <trkpt lat="42.432235000" lon="-2.545887000">
        <ele>478.30</ele>
        <time>2016-10-22T07:13:25Z</time>
      </trkpt>
      <trkpt lat="42.432190000" lon="-2.545907000">
        <ele>477.40</ele>
        <time>2016-10-22T07:13:26Z</time>
      </trkpt>
      <trkpt lat="42.432151000" lon="-2.545907000">
        <ele>476.70</ele>
        <time>2016-10-22T07:13:27Z</time>
      </trkpt>
      <trkpt lat="42.432116000" lon="-2.545879000">
        <ele>476.20</ele>
        <time>2016-10-22T07:13:28Z</time>
      </trkpt>
      <trkpt lat="42.432084000" lon="-2.545838000">
        <ele>475.80</ele>
        <time>2016-10-22T07:13:29Z</time>
      </trkpt>
      <trkpt lat="42.432052000" lon="-2.545793000">
        <ele>475.30</ele>
        <time>2016-10-22T07:13:30Z</time>
      </trkpt>
      <trkpt lat="42.432020000" lon="-2.545750000">
        <ele>474.90</ele>
        <time>2016-10-22T07:13:31Z</time>
      </trkpt>
      <trkpt lat="42.431986000" lon="-2.545717000">
        <ele>474.50</ele>
        <time>2016-10-22T07:13:32Z</time>
      </trkpt>
      <trkpt lat="42.431948000" lon="-2.545693000">
        <ele>474.30</ele>
        <time>2016-10-22T07:13:33Z</time>
      </trkpt>
      <trkpt lat="42.431905000" lon="-2.545679000">
        <ele>474.10</ele>
        <time>2016-10-22T07:13:34Z</time>
      </trkpt>
      <trkpt lat="42.431862000" lon="-2.545675000">
        <ele>473.90</ele>
        <time>2016-10-22T07:13:35Z</time>
      </trkpt>
      <trkpt lat="42.431771000" lon="-2.545673000">
        <ele>473.70</ele>
        <time>2016-10-22T07:13:37Z</time>
      </trkpt>
      <trkpt lat="42.431728000" lon="-2.545676000">
        <ele>473.80</ele>
        <time>2016-10-22T07:13:38Z</time>
      </trkpt>
      <trkpt lat="42.431686000" lon="-2.545684000">
        <ele>473.80</ele>
        <time>2016-10-22T07:13:39Z</time>
      </trkpt>
      <trkpt lat="42.431643000" lon="-2.545695000">
        <ele>473.90</ele>
        <time>2016-10-22T07:13:40Z</time>
      </trkpt>
      <trkpt lat="42.431606000" lon="-2.545703000">
        <ele>473.90</ele>
        <time>2016-10-22T07:13:41Z</time>
      </trkpt>
      <trkpt lat="42.431569000" lon="-2.545711000">
        <ele>473.90</ele>
        <time>2016-10-22T07:13:42Z</time>
      </trkpt>
      <trkpt lat="42.431535000" lon="-2.545716000">
        <ele>473.90</ele>
        <time>2016-10-22T07:13:43Z</time>
      </trkpt>
      <trkpt lat="42.431501000" lon="-2.545722000">
        <ele>473.70</ele>
        <time>2016-10-22T07:13:44Z</time>
      </trkpt>
      <trkpt lat="42.431467000" lon="-2.545731000">
        <ele>473.50</ele>
        <time>2016-10-22T07:13:45Z</time>
      </trkpt>
      <trkpt lat="42.431431000" lon="-2.545736000">
        <ele>473.30</ele>
        <time>2016-10-22T07:13:46Z</time>
      </trkpt>
      <trkpt lat="42.431396000" lon="-2.545742000">
        <ele>473.10</ele>
        <time>2016-10-22T07:13:47Z</time>
      </trkpt>
      <trkpt lat="42.431358000" lon="-2.545752000">
        <ele>473.10</ele>
        <time>2016-10-22T07:13:48Z</time>
      </trkpt>
      <trkpt lat="42.431319000" lon="-2.545765000">
        <ele>473.10</ele>
        <time>2016-10-22T07:13:49Z</time>
      </trkpt>
      <trkpt lat="42.431283000" lon="-2.545778000">
        <ele>472.90</ele>
        <time>2016-10-22T07:13:50Z</time>
      </trkpt>
      <trkpt lat="42.431246000" lon="-2.545789000">
        <ele>472.80</ele>
        <time>2016-10-22T07:13:51Z</time>
      </trkpt>
      <trkpt lat="42.431209000" lon="-2.545802000">
        <ele>472.80</ele>
        <time>2016-10-22T07:13:52Z</time>
      </trkpt>
      <trkpt lat="42.431172000" lon="-2.545813000">
        <ele>472.80</ele>
        <time>2016-10-22T07:13:53Z</time>
      </trkpt>
      <trkpt lat="42.431135000" lon="-2.545819000">
        <ele>472.70</ele>
        <time>2016-10-22T07:13:54Z</time>
      </trkpt>
      <trkpt lat="42.431098000" lon="-2.545818000">
        <ele>472.70</ele>
        <time>2016-10-22T07:13:55Z</time>
      </trkpt>
      <trkpt lat="42.431058000" lon="-2.545817000">
        <ele>472.60</ele>
        <time>2016-10-22T07:13:56Z</time>
      </trkpt>
      <trkpt lat="42.431019000" lon="-2.545812000">
        <ele>472.60</ele>
        <time>2016-10-22T07:13:57Z</time>
      </trkpt>
      <trkpt lat="42.430980000" lon="-2.545814000">
        <ele>472.60</ele>
        <time>2016-10-22T07:13:58Z</time>
      </trkpt>
      <trkpt lat="42.430941000" lon="-2.545815000">
        <ele>472.60</ele>
        <time>2016-10-22T07:13:59Z</time>
      </trkpt>
      <trkpt lat="42.430899000" lon="-2.545815000">
        <ele>472.80</ele>
        <time>2016-10-22T07:14:00Z</time>
      </trkpt>
      <trkpt lat="42.430859000" lon="-2.545818000">
        <ele>473.00</ele>
        <time>2016-10-22T07:14:01Z</time>
      </trkpt>
      <trkpt lat="42.430820000" lon="-2.545819000">
        <ele>473.10</ele>
        <time>2016-10-22T07:14:02Z</time>
      </trkpt>
      <trkpt lat="42.430781000" lon="-2.545819000">
        <ele>473.20</ele>
        <time>2016-10-22T07:14:03Z</time>
      </trkpt>
      <trkpt lat="42.430740000" lon="-2.545816000">
        <ele>473.10</ele>
        <time>2016-10-22T07:14:04Z</time>
      </trkpt>
      <trkpt lat="42.430700000" lon="-2.545815000">
        <ele>473.00</ele>
        <time>2016-10-22T07:14:05Z</time>
      </trkpt>
      <trkpt lat="42.430660000" lon="-2.545813000">
        <ele>472.90</ele>
        <time>2016-10-22T07:14:06Z</time>
      </trkpt>
      <trkpt lat="42.430622000" lon="-2.545815000">
        <ele>472.80</ele>
        <time>2016-10-22T07:14:07Z</time>
      </trkpt>
      <trkpt lat="42.430584000" lon="-2.545817000">
        <ele>472.80</ele>
        <time>2016-10-22T07:14:08Z</time>
      </trkpt>
      <trkpt lat="42.430546000" lon="-2.545820000">
        <ele>472.80</ele>
        <time>2016-10-22T07:14:09Z</time>
      </trkpt>
      <trkpt lat="42.430507000" lon="-2.545821000">
        <ele>472.80</ele>
        <time>2016-10-22T07:14:10Z</time>
      </trkpt>
      <trkpt lat="42.430471000" lon="-2.545822000">
        <ele>472.70</ele>
        <time>2016-10-22T07:14:11Z</time>
      </trkpt>
      <trkpt lat="42.430433000" lon="-2.545824000">
        <ele>472.70</ele>
        <time>2016-10-22T07:14:12Z</time>
      </trkpt>
      <trkpt lat="42.430395000" lon="-2.545823000">
        <ele>472.70</ele>
        <time>2016-10-22T07:14:13Z</time>
      </trkpt>
      <trkpt lat="42.430353000" lon="-2.545824000">
        <ele>472.70</ele>
        <time>2016-10-22T07:14:14Z</time>
      </trkpt>
      <trkpt lat="42.430313000" lon="-2.545825000">
        <ele>472.70</ele>
        <time>2016-10-22T07:14:15Z</time>
      </trkpt>
      <trkpt lat="42.430273000" lon="-2.545825000">
        <ele>473.00</ele>
        <time>2016-10-22T07:14:16Z</time>
      </trkpt>
      <trkpt lat="42.430235000" lon="-2.545828000">
        <ele>473.20</ele>
        <time>2016-10-22T07:14:17Z</time>
      </trkpt>
      <trkpt lat="42.430197000" lon="-2.545831000">
        <ele>473.30</ele>
        <time>2016-10-22T07:14:18Z</time>
      </trkpt>
      <trkpt lat="42.430158000" lon="-2.545834000">
        <ele>473.40</ele>
        <time>2016-10-22T07:14:19Z</time>
      </trkpt>
      <trkpt lat="42.430120000" lon="-2.545836000">
        <ele>473.40</ele>
        <time>2016-10-22T07:14:20Z</time>
      </trkpt>
      <trkpt lat="42.430086000" lon="-2.545837000">
        <ele>473.30</ele>
        <time>2016-10-22T07:14:21Z</time>
      </trkpt>
      <trkpt lat="42.430049000" lon="-2.545838000">
        <ele>473.30</ele>
        <time>2016-10-22T07:14:22Z</time>
      </trkpt>
      <trkpt lat="42.430013000" lon="-2.545841000">
        <ele>473.30</ele>
        <time>2016-10-22T07:14:23Z</time>
      </trkpt>
      <trkpt lat="42.429976000" lon="-2.545840000">
        <ele>473.20</ele>
        <time>2016-10-22T07:14:24Z</time>
      </trkpt>
      <trkpt lat="42.429938000" lon="-2.545840000">
        <ele>473.10</ele>
        <time>2016-10-22T07:14:25Z</time>
      </trkpt>
      <trkpt lat="42.429900000" lon="-2.545839000">
        <ele>473.30</ele>
        <time>2016-10-22T07:14:26Z</time>
      </trkpt>
      <trkpt lat="42.429860000" lon="-2.545841000">
        <ele>473.40</ele>
        <time>2016-10-22T07:14:27Z</time>
      </trkpt>
      <trkpt lat="42.429819000" lon="-2.545848000">
        <ele>473.30</ele>
        <time>2016-10-22T07:14:28Z</time>
      </trkpt>
      <trkpt lat="42.429779000" lon="-2.545851000">
        <ele>473.20</ele>
        <time>2016-10-22T07:14:29Z</time>
      </trkpt>
      <trkpt lat="42.429742000" lon="-2.545852000">
        <ele>473.30</ele>
        <time>2016-10-22T07:14:30Z</time>
      </trkpt>
      <trkpt lat="42.429705000" lon="-2.545848000">
        <ele>473.40</ele>
        <time>2016-10-22T07:14:31Z</time>
      </trkpt>
      <trkpt lat="42.429665000" lon="-2.545848000">
        <ele>473.20</ele>
        <time>2016-10-22T07:14:32Z</time>
      </trkpt>
      <trkpt lat="42.429629000" lon="-2.545847000">
        <ele>473.00</ele>
        <time>2016-10-22T07:14:33Z</time>
      </trkpt>
      <trkpt lat="42.429590000" lon="-2.545847000">
        <ele>473.10</ele>
        <time>2016-10-22T07:14:34Z</time>
      </trkpt>
      <trkpt lat="42.429551000" lon="-2.545851000">
        <ele>473.10</ele>
        <time>2016-10-22T07:14:35Z</time>
      </trkpt>
      <trkpt lat="42.429510000" lon="-2.545859000">
        <ele>473.00</ele>
        <time>2016-10-22T07:14:36Z</time>
      </trkpt>
      <trkpt lat="42.429434000" lon="-2.545882000">
        <ele>472.90</ele>
        <time>2016-10-22T07:14:38Z</time>
      </trkpt>
      <trkpt lat="42.429398000" lon="-2.545890000">
        <ele>473.00</ele>
        <time>2016-10-22T07:14:39Z</time>
      </trkpt>
      <trkpt lat="42.429362000" lon="-2.545903000">
        <ele>472.90</ele>
        <time>2016-10-22T07:14:40Z</time>
      </trkpt>
      <trkpt lat="42.429326000" lon="-2.545917000">
        <ele>472.90</ele>
        <time>2016-10-22T07:14:41Z</time>
      </trkpt>
      <trkpt lat="42.429291000" lon="-2.545935000">
        <ele>473.00</ele>
        <time>2016-10-22T07:14:42Z</time>
      </trkpt>
      <trkpt lat="42.429253000" lon="-2.545947000">
        <ele>473.10</ele>
        <time>2016-10-22T07:14:43Z</time>
      </trkpt>
      <trkpt lat="42.429216000" lon="-2.545960000">
        <ele>473.10</ele>
        <time>2016-10-22T07:14:44Z</time>
      </trkpt>
      <trkpt lat="42.429180000" lon="-2.545967000">
        <ele>473.10</ele>
        <time>2016-10-22T07:14:45Z</time>
      </trkpt>
      <trkpt lat="42.429139000" lon="-2.545965000">
        <ele>473.30</ele>
        <time>2016-10-22T07:14:46Z</time>
      </trkpt>
      <trkpt lat="42.429101000" lon="-2.545957000">
        <ele>473.40</ele>
        <time>2016-10-22T07:14:47Z</time>
      </trkpt>
      <trkpt lat="42.429062000" lon="-2.545950000">
        <ele>473.40</ele>
        <time>2016-10-22T07:14:48Z</time>
      </trkpt>
      <trkpt lat="42.429025000" lon="-2.545945000">
        <ele>473.50</ele>
        <time>2016-10-22T07:14:49Z</time>
      </trkpt>
      <trkpt lat="42.428989000" lon="-2.545942000">
        <ele>473.50</ele>
        <time>2016-10-22T07:14:50Z</time>
      </trkpt>
      <trkpt lat="42.428952000" lon="-2.545937000">
        <ele>473.60</ele>
        <time>2016-10-22T07:14:51Z</time>
      </trkpt>
      <trkpt lat="42.428913000" lon="-2.545931000">
        <ele>473.60</ele>
        <time>2016-10-22T07:14:52Z</time>
      </trkpt>
      <trkpt lat="42.428872000" lon="-2.545923000">
        <ele>473.60</ele>
        <time>2016-10-22T07:14:53Z</time>
      </trkpt>
      <trkpt lat="42.428830000" lon="-2.545913000">
        <ele>473.60</ele>
        <time>2016-10-22T07:14:54Z</time>
      </trkpt>
      <trkpt lat="42.428791000" lon="-2.545898000">
        <ele>473.60</ele>
        <time>2016-10-22T07:14:55Z</time>
      </trkpt>
      <trkpt lat="42.428753000" lon="-2.545890000">
        <ele>473.70</ele>
        <time>2016-10-22T07:14:56Z</time>
      </trkpt>
      <trkpt lat="42.428713000" lon="-2.545880000">
        <ele>473.80</ele>
        <time>2016-10-22T07:14:57Z</time>
      </trkpt>
      <trkpt lat="42.428674000" lon="-2.545870000">
        <ele>473.90</ele>
        <time>2016-10-22T07:14:58Z</time>
      </trkpt>
      <trkpt lat="42.428634000" lon="-2.545860000">
        <ele>474.00</ele>
        <time>2016-10-22T07:14:59Z</time>
      </trkpt>
      <trkpt lat="42.428596000" lon="-2.545850000">
        <ele>474.20</ele>
        <time>2016-10-22T07:15:00Z</time>
      </trkpt>
      <trkpt lat="42.428557000" lon="-2.545841000">
        <ele>474.40</ele>
        <time>2016-10-22T07:15:01Z</time>
      </trkpt>
      <trkpt lat="42.428517000" lon="-2.545828000">
        <ele>474.40</ele>
        <time>2016-10-22T07:15:02Z</time>
      </trkpt>
      <trkpt lat="42.428480000" lon="-2.545818000">
        <ele>474.40</ele>
        <time>2016-10-22T07:15:03Z</time>
      </trkpt>
      <trkpt lat="42.428447000" lon="-2.545808000">
        <ele>474.40</ele>
        <time>2016-10-22T07:15:04Z</time>
      </trkpt>
      <trkpt lat="42.428409000" lon="-2.545793000">
        <ele>474.50</ele>
        <time>2016-10-22T07:15:05Z</time>
      </trkpt>
      <trkpt lat="42.428372000" lon="-2.545782000">
        <ele>474.40</ele>
        <time>2016-10-22T07:15:06Z</time>
      </trkpt>
      <trkpt lat="42.428334000" lon="-2.545771000">
        <ele>474.40</ele>
        <time>2016-10-22T07:15:07Z</time>
      </trkpt>
      <trkpt lat="42.428296000" lon="-2.545761000">
        <ele>474.40</ele>
        <time>2016-10-22T07:15:08Z</time>
      </trkpt>
      <trkpt lat="42.428257000" lon="-2.545752000">
        <ele>474.40</ele>
        <time>2016-10-22T07:15:09Z</time>
      </trkpt>
      <trkpt lat="42.428220000" lon="-2.545744000">
        <ele>474.40</ele>
        <time>2016-10-22T07:15:10Z</time>
      </trkpt>
      <trkpt lat="42.428182000" lon="-2.545736000">
        <ele>474.30</ele>
        <time>2016-10-22T07:15:11Z</time>
      </trkpt>
      <trkpt lat="42.428146000" lon="-2.545727000">
        <ele>474.20</ele>
        <time>2016-10-22T07:15:12Z</time>
      </trkpt>
      <trkpt lat="42.428110000" lon="-2.545721000">
        <ele>474.10</ele>
        <time>2016-10-22T07:15:13Z</time>
      </trkpt>
      <trkpt lat="42.428075000" lon="-2.545714000">
        <ele>474.00</ele>
        <time>2016-10-22T07:15:14Z</time>
      </trkpt>
      <trkpt lat="42.428039000" lon="-2.545707000">
        <ele>473.90</ele>
        <time>2016-10-22T07:15:15Z</time>
      </trkpt>
      <trkpt lat="42.428002000" lon="-2.545698000">
        <ele>474.00</ele>
        <time>2016-10-22T07:15:16Z</time>
      </trkpt>
      <trkpt lat="42.427964000" lon="-2.545695000">
        <ele>474.10</ele>
        <time>2016-10-22T07:15:17Z</time>
      </trkpt>
      <trkpt lat="42.427924000" lon="-2.545688000">
        <ele>474.10</ele>
        <time>2016-10-22T07:15:18Z</time>
      </trkpt>
      <trkpt lat="42.427886000" lon="-2.545684000">
        <ele>474.20</ele>
        <time>2016-10-22T07:15:19Z</time>
      </trkpt>
      <trkpt lat="42.427846000" lon="-2.545679000">
        <ele>474.20</ele>
        <time>2016-10-22T07:15:20Z</time>
      </trkpt>
      <trkpt lat="42.427807000" lon="-2.545685000">
        <ele>474.20</ele>
        <time>2016-10-22T07:15:21Z</time>
      </trkpt>
      <trkpt lat="42.427769000" lon="-2.545692000">
        <ele>474.10</ele>
        <time>2016-10-22T07:15:22Z</time>
      </trkpt>
      <trkpt lat="42.427731000" lon="-2.545690000">
        <ele>474.10</ele>
        <time>2016-10-22T07:15:23Z</time>
      </trkpt>
      <trkpt lat="42.427698000" lon="-2.545686000">
        <ele>474.10</ele>
        <time>2016-10-22T07:15:24Z</time>
      </trkpt>
      <trkpt lat="42.427664000" lon="-2.545684000">
        <ele>474.10</ele>
        <time>2016-10-22T07:15:25Z</time>
      </trkpt>
      <trkpt lat="42.427630000" lon="-2.545685000">
        <ele>474.00</ele>
        <time>2016-10-22T07:15:26Z</time>
      </trkpt>
      <trkpt lat="42.427596000" lon="-2.545686000">
        <ele>474.00</ele>
        <time>2016-10-22T07:15:27Z</time>
      </trkpt>
      <trkpt lat="42.427560000" lon="-2.545684000">
        <ele>474.30</ele>
        <time>2016-10-22T07:15:28Z</time>
      </trkpt>
      <trkpt lat="42.427525000" lon="-2.545683000">
        <ele>474.50</ele>
        <time>2016-10-22T07:15:29Z</time>
      </trkpt>
      <trkpt lat="42.427490000" lon="-2.545679000">
        <ele>474.40</ele>
        <time>2016-10-22T07:15:30Z</time>
      </trkpt>
      <trkpt lat="42.427455000" lon="-2.545680000">
        <ele>474.40</ele>
        <time>2016-10-22T07:15:31Z</time>
      </trkpt>
      <trkpt lat="42.427419000" lon="-2.545684000">
        <ele>474.50</ele>
        <time>2016-10-22T07:15:32Z</time>
      </trkpt>
      <trkpt lat="42.427381000" lon="-2.545683000">
        <ele>474.70</ele>
        <time>2016-10-22T07:15:33Z</time>
      </trkpt>
      <trkpt lat="42.427346000" lon="-2.545680000">
        <ele>474.80</ele>
        <time>2016-10-22T07:15:34Z</time>
      </trkpt>
      <trkpt lat="42.427309000" lon="-2.545682000">
        <ele>474.80</ele>
        <time>2016-10-22T07:15:35Z</time>
      </trkpt>
      <trkpt lat="42.427273000" lon="-2.545682000">
        <ele>474.90</ele>
        <time>2016-10-22T07:15:36Z</time>
      </trkpt>
      <trkpt lat="42.427242000" lon="-2.545688000">
        <ele>474.90</ele>
        <time>2016-10-22T07:15:37Z</time>
      </trkpt>
      <trkpt lat="42.427178000" lon="-2.545711000">
        <ele>475.10</ele>
        <time>2016-10-22T07:15:39Z</time>
      </trkpt>
      <trkpt lat="42.427148000" lon="-2.545735000">
        <ele>475.00</ele>
        <time>2016-10-22T07:15:40Z</time>
      </trkpt>
      <trkpt lat="42.427116000" lon="-2.545756000">
        <ele>475.00</ele>
        <time>2016-10-22T07:15:41Z</time>
      </trkpt>
      <trkpt lat="42.427082000" lon="-2.545779000">
        <ele>475.10</ele>
        <time>2016-10-22T07:15:42Z</time>
      </trkpt>
      <trkpt lat="42.427049000" lon="-2.545796000">
        <ele>475.20</ele>
        <time>2016-10-22T07:15:43Z</time>
      </trkpt>
      <trkpt lat="42.427013000" lon="-2.545806000">
        <ele>475.30</ele>
        <time>2016-10-22T07:15:44Z</time>
      </trkpt>
      <trkpt lat="42.426979000" lon="-2.545805000">
        <ele>475.40</ele>
        <time>2016-10-22T07:15:45Z</time>
      </trkpt>
      <trkpt lat="42.426944000" lon="-2.545802000">
        <ele>475.50</ele>
        <time>2016-10-22T07:15:46Z</time>
      </trkpt>
      <trkpt lat="42.426909000" lon="-2.545784000">
        <ele>475.60</ele>
        <time>2016-10-22T07:15:47Z</time>
      </trkpt>
      <trkpt lat="42.426876000" lon="-2.545763000">
        <ele>475.60</ele>
        <time>2016-10-22T07:15:48Z</time>
      </trkpt>
      <trkpt lat="42.426840000" lon="-2.545746000">
        <ele>475.60</ele>
        <time>2016-10-22T07:15:49Z</time>
      </trkpt>
      <trkpt lat="42.426805000" lon="-2.545728000">
        <ele>475.70</ele>
        <time>2016-10-22T07:15:50Z</time>
      </trkpt>
      <trkpt lat="42.426773000" lon="-2.545712000">
        <ele>475.80</ele>
        <time>2016-10-22T07:15:51Z</time>
      </trkpt>
      <trkpt lat="42.426738000" lon="-2.545695000">
        <ele>476.10</ele>
        <time>2016-10-22T07:15:52Z</time>
      </trkpt>
      <trkpt lat="42.426704000" lon="-2.545680000">
        <ele>476.30</ele>
        <time>2016-10-22T07:15:53Z</time>
      </trkpt>
      <trkpt lat="42.426668000" lon="-2.545662000">
        <ele>476.40</ele>
        <time>2016-10-22T07:15:54Z</time>
      </trkpt>
      <trkpt lat="42.426631000" lon="-2.545645000">
        <ele>476.50</ele>
        <time>2016-10-22T07:15:55Z</time>
      </trkpt>
      <trkpt lat="42.426594000" lon="-2.545632000">
        <ele>476.60</ele>
        <time>2016-10-22T07:15:56Z</time>
      </trkpt>
      <trkpt lat="42.426557000" lon="-2.545619000">
        <ele>476.60</ele>
        <time>2016-10-22T07:15:57Z</time>
      </trkpt>
      <trkpt lat="42.426519000" lon="-2.545607000">
        <ele>476.50</ele>
        <time>2016-10-22T07:15:58Z</time>
      </trkpt>
      <trkpt lat="42.426479000" lon="-2.545596000">
        <ele>476.50</ele>
        <time>2016-10-22T07:15:59Z</time>
      </trkpt>
      <trkpt lat="42.426443000" lon="-2.545587000">
        <ele>476.50</ele>
        <time>2016-10-22T07:16:00Z</time>
      </trkpt>
      <trkpt lat="42.426411000" lon="-2.545576000">
        <ele>476.50</ele>
        <time>2016-10-22T07:16:01Z</time>
      </trkpt>
      <trkpt lat="42.426377000" lon="-2.545564000">
        <ele>476.40</ele>
        <time>2016-10-22T07:16:02Z</time>
      </trkpt>
      <trkpt lat="42.426342000" lon="-2.545555000">
        <ele>476.20</ele>
        <time>2016-10-22T07:16:03Z</time>
      </trkpt>
      <trkpt lat="42.426304000" lon="-2.545544000">
        <ele>476.30</ele>
        <time>2016-10-22T07:16:04Z</time>
      </trkpt>
      <trkpt lat="42.426267000" lon="-2.545531000">
        <ele>476.40</ele>
        <time>2016-10-22T07:16:05Z</time>
      </trkpt>
      <trkpt lat="42.426231000" lon="-2.545516000">
        <ele>476.50</ele>
        <time>2016-10-22T07:16:06Z</time>
      </trkpt>
      <trkpt lat="42.426193000" lon="-2.545501000">
        <ele>476.60</ele>
        <time>2016-10-22T07:16:07Z</time>
      </trkpt>
      <trkpt lat="42.426157000" lon="-2.545484000">
        <ele>476.80</ele>
        <time>2016-10-22T07:16:08Z</time>
      </trkpt>
      <trkpt lat="42.426120000" lon="-2.545470000">
        <ele>476.90</ele>
        <time>2016-10-22T07:16:09Z</time>
      </trkpt>
      <trkpt lat="42.426082000" lon="-2.545456000">
        <ele>477.00</ele>
        <time>2016-10-22T07:16:10Z</time>
      </trkpt>
      <trkpt lat="42.426043000" lon="-2.545442000">
        <ele>477.10</ele>
        <time>2016-10-22T07:16:11Z</time>
      </trkpt>
      <trkpt lat="42.426005000" lon="-2.545427000">
        <ele>477.10</ele>
        <time>2016-10-22T07:16:12Z</time>
      </trkpt>
      <trkpt lat="42.425966000" lon="-2.545411000">
        <ele>477.10</ele>
        <time>2016-10-22T07:16:13Z</time>
      </trkpt>
      <trkpt lat="42.425927000" lon="-2.545395000">
        <ele>477.00</ele>
        <time>2016-10-22T07:16:14Z</time>
      </trkpt>
      <trkpt lat="42.425888000" lon="-2.545382000">
        <ele>477.00</ele>
        <time>2016-10-22T07:16:15Z</time>
      </trkpt>
      <trkpt lat="42.425849000" lon="-2.545370000">
        <ele>476.80</ele>
        <time>2016-10-22T07:16:16Z</time>
      </trkpt>
      <trkpt lat="42.425811000" lon="-2.545357000">
        <ele>476.80</ele>
        <time>2016-10-22T07:16:17Z</time>
      </trkpt>
      <trkpt lat="42.425771000" lon="-2.545346000">
        <ele>476.70</ele>
        <time>2016-10-22T07:16:18Z</time>
      </trkpt>
      <trkpt lat="42.425731000" lon="-2.545335000">
        <ele>476.70</ele>
        <time>2016-10-22T07:16:19Z</time>
      </trkpt>
      <trkpt lat="42.425692000" lon="-2.545321000">
        <ele>476.70</ele>
        <time>2016-10-22T07:16:20Z</time>
      </trkpt>
      <trkpt lat="42.425651000" lon="-2.545310000">
        <ele>476.70</ele>
        <time>2016-10-22T07:16:21Z</time>
      </trkpt>
      <trkpt lat="42.425613000" lon="-2.545295000">
        <ele>476.70</ele>
        <time>2016-10-22T07:16:22Z</time>
      </trkpt>
      <trkpt lat="42.425575000" lon="-2.545275000">
        <ele>476.70</ele>
        <time>2016-10-22T07:16:23Z</time>
      </trkpt>
      <trkpt lat="42.425537000" lon="-2.545252000">
        <ele>476.80</ele>
        <time>2016-10-22T07:16:24Z</time>
      </trkpt>
      <trkpt lat="42.425498000" lon="-2.545230000">
        <ele>476.90</ele>
        <time>2016-10-22T07:16:25Z</time>
      </trkpt>
      <trkpt lat="42.425460000" lon="-2.545205000">
        <ele>477.00</ele>
        <time>2016-10-22T07:16:26Z</time>
      </trkpt>
      <trkpt lat="42.425422000" lon="-2.545182000">
        <ele>477.10</ele>
        <time>2016-10-22T07:16:27Z</time>
      </trkpt>
      <trkpt lat="42.425385000" lon="-2.545158000">
        <ele>477.10</ele>
        <time>2016-10-22T07:16:28Z</time>
      </trkpt>
      <trkpt lat="42.425347000" lon="-2.545137000">
        <ele>477.10</ele>
        <time>2016-10-22T07:16:29Z</time>
      </trkpt>
      <trkpt lat="42.425308000" lon="-2.545118000">
        <ele>477.20</ele>
        <time>2016-10-22T07:16:30Z</time>
      </trkpt>
      <trkpt lat="42.425267000" lon="-2.545103000">
        <ele>477.30</ele>
        <time>2016-10-22T07:16:31Z</time>
      </trkpt>
      <trkpt lat="42.425227000" lon="-2.545085000">
        <ele>477.60</ele>
        <time>2016-10-22T07:16:32Z</time>
      </trkpt>
      <trkpt lat="42.425187000" lon="-2.545066000">
        <ele>477.80</ele>
        <time>2016-10-22T07:16:33Z</time>
      </trkpt>
      <trkpt lat="42.425146000" lon="-2.545052000">
        <ele>478.00</ele>
        <time>2016-10-22T07:16:34Z</time>
      </trkpt>
      <trkpt lat="42.425105000" lon="-2.545040000">
        <ele>478.10</ele>
        <time>2016-10-22T07:16:35Z</time>
      </trkpt>
      <trkpt lat="42.425062000" lon="-2.545026000">
        <ele>478.00</ele>
        <time>2016-10-22T07:16:36Z</time>
      </trkpt>
      <trkpt lat="42.425018000" lon="-2.545011000">
        <ele>477.90</ele>
        <time>2016-10-22T07:16:37Z</time>
      </trkpt>
      <trkpt lat="42.424975000" lon="-2.544997000">
        <ele>477.80</ele>
        <time>2016-10-22T07:16:38Z</time>
      </trkpt>
      <trkpt lat="42.424883000" lon="-2.544984000">
        <ele>477.60</ele>
        <time>2016-10-22T07:16:40Z</time>
      </trkpt>
      <trkpt lat="42.424839000" lon="-2.544973000">
        <ele>477.50</ele>
        <time>2016-10-22T07:16:41Z</time>
      </trkpt>
      <trkpt lat="42.424795000" lon="-2.544964000">
        <ele>477.40</ele>
        <time>2016-10-22T07:16:42Z</time>
      </trkpt>
      <trkpt lat="42.424750000" lon="-2.544955000">
        <ele>477.30</ele>
        <time>2016-10-22T07:16:43Z</time>
      </trkpt>
      <trkpt lat="42.424708000" lon="-2.544946000">
        <ele>477.20</ele>
        <time>2016-10-22T07:16:44Z</time>
      </trkpt>
      <trkpt lat="42.424661000" lon="-2.544934000">
        <ele>477.10</ele>
        <time>2016-10-22T07:16:45Z</time>
      </trkpt>
      <trkpt lat="42.424615000" lon="-2.544918000">
        <ele>477.40</ele>
        <time>2016-10-22T07:16:46Z</time>
      </trkpt>
      <trkpt lat="42.424570000" lon="-2.544905000">
        <ele>477.60</ele>
        <time>2016-10-22T07:16:47Z</time>
      </trkpt>
      <trkpt lat="42.424525000" lon="-2.544895000">
        <ele>477.70</ele>
        <time>2016-10-22T07:16:48Z</time>
      </trkpt>
      <trkpt lat="42.424485000" lon="-2.544882000">
        <ele>477.80</ele>
        <time>2016-10-22T07:16:49Z</time>
      </trkpt>
      <trkpt lat="42.424442000" lon="-2.544868000">
        <ele>477.90</ele>
        <time>2016-10-22T07:16:50Z</time>
      </trkpt>
      <trkpt lat="42.424398000" lon="-2.544852000">
        <ele>477.90</ele>
        <time>2016-10-22T07:16:51Z</time>
      </trkpt>
      <trkpt lat="42.424355000" lon="-2.544835000">
        <ele>477.90</ele>
        <time>2016-10-22T07:16:52Z</time>
      </trkpt>
      <trkpt lat="42.424312000" lon="-2.544815000">
        <ele>477.80</ele>
        <time>2016-10-22T07:16:53Z</time>
      </trkpt>
      <trkpt lat="42.424269000" lon="-2.544794000">
        <ele>477.70</ele>
        <time>2016-10-22T07:16:54Z</time>
      </trkpt>
      <trkpt lat="42.424231000" lon="-2.544771000">
        <ele>477.60</ele>
        <time>2016-10-22T07:16:55Z</time>
      </trkpt>
      <trkpt lat="42.424190000" lon="-2.544748000">
        <ele>477.50</ele>
        <time>2016-10-22T07:16:56Z</time>
      </trkpt>
      <trkpt lat="42.424150000" lon="-2.544730000">
        <ele>477.50</ele>
        <time>2016-10-22T07:16:57Z</time>
      </trkpt>
      <trkpt lat="42.424110000" lon="-2.544711000">
        <ele>477.60</ele>
        <time>2016-10-22T07:16:58Z</time>
      </trkpt>
      <trkpt lat="42.424072000" lon="-2.544700000">
        <ele>477.60</ele>
        <time>2016-10-22T07:16:59Z</time>
      </trkpt>
      <trkpt lat="42.424032000" lon="-2.544692000">
        <ele>477.70</ele>
        <time>2016-10-22T07:17:00Z</time>
      </trkpt>
      <trkpt lat="42.423991000" lon="-2.544684000">
        <ele>477.70</ele>
        <time>2016-10-22T07:17:01Z</time>
      </trkpt>
      <trkpt lat="42.423950000" lon="-2.544678000">
        <ele>477.80</ele>
        <time>2016-10-22T07:17:02Z</time>
      </trkpt>
      <trkpt lat="42.423907000" lon="-2.544674000">
        <ele>477.80</ele>
        <time>2016-10-22T07:17:03Z</time>
      </trkpt>
      <trkpt lat="42.423865000" lon="-2.544677000">
        <ele>478.00</ele>
        <time>2016-10-22T07:17:04Z</time>
      </trkpt>
      <trkpt lat="42.423821000" lon="-2.544678000">
        <ele>478.10</ele>
        <time>2016-10-22T07:17:05Z</time>
      </trkpt>
      <trkpt lat="42.423777000" lon="-2.544681000">
        <ele>478.20</ele>
        <time>2016-10-22T07:17:06Z</time>
      </trkpt>
      <trkpt lat="42.423731000" lon="-2.544687000">
        <ele>478.30</ele>
        <time>2016-10-22T07:17:07Z</time>
      </trkpt>
      <trkpt lat="42.423686000" lon="-2.544692000">
        <ele>478.30</ele>
        <time>2016-10-22T07:17:08Z</time>
      </trkpt>
      <trkpt lat="42.423641000" lon="-2.544699000">
        <ele>478.30</ele>
        <time>2016-10-22T07:17:09Z</time>
      </trkpt>
      <trkpt lat="42.423600000" lon="-2.544707000">
        <ele>478.20</ele>
        <time>2016-10-22T07:17:10Z</time>
      </trkpt>
      <trkpt lat="42.423559000" lon="-2.544715000">
        <ele>478.20</ele>
        <time>2016-10-22T07:17:11Z</time>
      </trkpt>
      <trkpt lat="42.423514000" lon="-2.544720000">
        <ele>478.20</ele>
        <time>2016-10-22T07:17:12Z</time>
      </trkpt>
      <trkpt lat="42.423473000" lon="-2.544724000">
        <ele>478.20</ele>
        <time>2016-10-22T07:17:13Z</time>
      </trkpt>
      <trkpt lat="42.423431000" lon="-2.544726000">
        <ele>478.30</ele>
        <time>2016-10-22T07:17:14Z</time>
      </trkpt>
      <trkpt lat="42.423387000" lon="-2.544729000">
        <ele>478.40</ele>
        <time>2016-10-22T07:17:15Z</time>
      </trkpt>
      <trkpt lat="42.423344000" lon="-2.544728000">
        <ele>478.70</ele>
        <time>2016-10-22T07:17:16Z</time>
      </trkpt>
      <trkpt lat="42.423303000" lon="-2.544728000">
        <ele>478.90</ele>
        <time>2016-10-22T07:17:17Z</time>
      </trkpt>
      <trkpt lat="42.423264000" lon="-2.544727000">
        <ele>479.10</ele>
        <time>2016-10-22T07:17:18Z</time>
      </trkpt>
      <trkpt lat="42.423222000" lon="-2.544724000">
        <ele>479.20</ele>
        <time>2016-10-22T07:17:19Z</time>
      </trkpt>
      <trkpt lat="42.423179000" lon="-2.544724000">
        <ele>479.30</ele>
        <time>2016-10-22T07:17:20Z</time>
      </trkpt>
      <trkpt lat="42.423136000" lon="-2.544722000">
        <ele>479.40</ele>
        <time>2016-10-22T07:17:21Z</time>
      </trkpt>
      <trkpt lat="42.423095000" lon="-2.544720000">
        <ele>479.20</ele>
        <time>2016-10-22T07:17:22Z</time>
      </trkpt>
      <trkpt lat="42.423055000" lon="-2.544713000">
        <ele>479.10</ele>
        <time>2016-10-22T07:17:23Z</time>
      </trkpt>
      <trkpt lat="42.423013000" lon="-2.544711000">
        <ele>479.30</ele>
        <time>2016-10-22T07:17:24Z</time>
      </trkpt>
      <trkpt lat="42.422972000" lon="-2.544700000">
        <ele>479.40</ele>
        <time>2016-10-22T07:17:25Z</time>
      </trkpt>
      <trkpt lat="42.422929000" lon="-2.544693000">
        <ele>479.50</ele>
        <time>2016-10-22T07:17:26Z</time>
      </trkpt>
      <trkpt lat="42.422884000" lon="-2.544684000">
        <ele>479.70</ele>
        <time>2016-10-22T07:17:27Z</time>
      </trkpt>
      <trkpt lat="42.422838000" lon="-2.544676000">
        <ele>479.80</ele>
        <time>2016-10-22T07:17:28Z</time>
      </trkpt>
      <trkpt lat="42.422793000" lon="-2.544664000">
        <ele>479.80</ele>
        <time>2016-10-22T07:17:29Z</time>
      </trkpt>
      <trkpt lat="42.422751000" lon="-2.544656000">
        <ele>479.90</ele>
        <time>2016-10-22T07:17:30Z</time>
      </trkpt>
      <trkpt lat="42.422709000" lon="-2.544654000">
        <ele>479.90</ele>
        <time>2016-10-22T07:17:31Z</time>
      </trkpt>
      <trkpt lat="42.422665000" lon="-2.544661000">
        <ele>479.80</ele>
        <time>2016-10-22T07:17:32Z</time>
      </trkpt>
      <trkpt lat="42.422622000" lon="-2.544675000">
        <ele>479.70</ele>
        <time>2016-10-22T07:17:33Z</time>
      </trkpt>
      <trkpt lat="42.422581000" lon="-2.544687000">
        <ele>479.60</ele>
        <time>2016-10-22T07:17:34Z</time>
      </trkpt>
      <trkpt lat="42.422541000" lon="-2.544698000">
        <ele>479.60</ele>
        <time>2016-10-22T07:17:35Z</time>
      </trkpt>
      <trkpt lat="42.422502000" lon="-2.544715000">
        <ele>479.50</ele>
        <time>2016-10-22T07:17:36Z</time>
      </trkpt>
      <trkpt lat="42.422463000" lon="-2.544731000">
        <ele>479.50</ele>
        <time>2016-10-22T07:17:37Z</time>
      </trkpt>
      <trkpt lat="42.422424000" lon="-2.544741000">
        <ele>479.50</ele>
        <time>2016-10-22T07:17:38Z</time>
      </trkpt>
      <trkpt lat="42.422384000" lon="-2.544747000">
        <ele>479.60</ele>
        <time>2016-10-22T07:17:39Z</time>
      </trkpt>
      <trkpt lat="42.422312000" lon="-2.544762000">
        <ele>479.60</ele>
        <time>2016-10-22T07:17:41Z</time>
      </trkpt>
      <trkpt lat="42.422273000" lon="-2.544772000">
        <ele>479.70</ele>
        <time>2016-10-22T07:17:42Z</time>
      </trkpt>
      <trkpt lat="42.422236000" lon="-2.544786000">
        <ele>479.70</ele>
        <time>2016-10-22T07:17:43Z</time>
      </trkpt>
      <trkpt lat="42.422199000" lon="-2.544800000">
        <ele>479.80</ele>
        <time>2016-10-22T07:17:44Z</time>
      </trkpt>
      <trkpt lat="42.422168000" lon="-2.544812000">
        <ele>479.90</ele>
        <time>2016-10-22T07:17:45Z</time>
      </trkpt>
      <trkpt lat="42.422143000" lon="-2.544829000">
        <ele>480.00</ele>
        <time>2016-10-22T07:17:46Z</time>
      </trkpt>
      <trkpt lat="42.422117000" lon="-2.544844000">
        <ele>480.00</ele>
        <time>2016-10-22T07:17:47Z</time>
      </trkpt>
      <trkpt lat="42.422087000" lon="-2.544846000">
        <ele>480.00</ele>
        <time>2016-10-22T07:17:48Z</time>
      </trkpt>
      <trkpt lat="42.422055000" lon="-2.544841000">
        <ele>479.90</ele>
        <time>2016-10-22T07:17:49Z</time>
      </trkpt>
      <trkpt lat="42.422025000" lon="-2.544828000">
        <ele>479.90</ele>
        <time>2016-10-22T07:17:50Z</time>
      </trkpt>
      <trkpt lat="42.421992000" lon="-2.544807000">
        <ele>479.90</ele>
        <time>2016-10-22T07:17:51Z</time>
      </trkpt>
      <trkpt lat="42.421961000" lon="-2.544776000">
        <ele>479.90</ele>
        <time>2016-10-22T07:17:52Z</time>
      </trkpt>
      <trkpt lat="42.421935000" lon="-2.544744000">
        <ele>479.90</ele>
        <time>2016-10-22T07:17:53Z</time>
      </trkpt>
      <trkpt lat="42.421909000" lon="-2.544712000">
        <ele>479.90</ele>
        <time>2016-10-22T07:17:54Z</time>
      </trkpt>
      <trkpt lat="42.421888000" lon="-2.544680000">
        <ele>480.00</ele>
        <time>2016-10-22T07:17:55Z</time>
      </trkpt>
      <trkpt lat="42.421861000" lon="-2.544650000">
        <ele>480.00</ele>
        <time>2016-10-22T07:17:56Z</time>
      </trkpt>
      <trkpt lat="42.421827000" lon="-2.544635000">
        <ele>480.00</ele>
        <time>2016-10-22T07:17:57Z</time>
      </trkpt>
      <trkpt lat="42.421789000" lon="-2.544625000">
        <ele>480.00</ele>
        <time>2016-10-22T07:17:58Z</time>
      </trkpt>
      <trkpt lat="42.421749000" lon="-2.544617000">
        <ele>480.00</ele>
        <time>2016-10-22T07:17:59Z</time>
      </trkpt>
      <trkpt lat="42.421705000" lon="-2.544606000">
        <ele>480.00</ele>
        <time>2016-10-22T07:18:00Z</time>
      </trkpt>
      <trkpt lat="42.421665000" lon="-2.544592000">
        <ele>479.90</ele>
        <time>2016-10-22T07:18:01Z</time>
      </trkpt>
      <trkpt lat="42.421624000" lon="-2.544569000">
        <ele>479.80</ele>
        <time>2016-10-22T07:18:02Z</time>
      </trkpt>
      <trkpt lat="42.421583000" lon="-2.544545000">
        <ele>479.70</ele>
        <time>2016-10-22T07:18:03Z</time>
      </trkpt>
      <trkpt lat="42.421544000" lon="-2.544521000">
        <ele>479.70</ele>
        <time>2016-10-22T07:18:04Z</time>
      </trkpt>
      <trkpt lat="42.421506000" lon="-2.544501000">
        <ele>479.80</ele>
        <time>2016-10-22T07:18:05Z</time>
      </trkpt>
      <trkpt lat="42.421464000" lon="-2.544481000">
        <ele>480.10</ele>
        <time>2016-10-22T07:18:06Z</time>
      </trkpt>
      <trkpt lat="42.421423000" lon="-2.544463000">
        <ele>480.30</ele>
        <time>2016-10-22T07:18:07Z</time>
      </trkpt>
      <trkpt lat="42.421384000" lon="-2.544442000">
        <ele>480.60</ele>
        <time>2016-10-22T07:18:08Z</time>
      </trkpt>
      <trkpt lat="42.421341000" lon="-2.544419000">
        <ele>480.80</ele>
        <time>2016-10-22T07:18:09Z</time>
      </trkpt>
      <trkpt lat="42.421302000" lon="-2.544399000">
        <ele>480.90</ele>
        <time>2016-10-22T07:18:10Z</time>
      </trkpt>
      <trkpt lat="42.421258000" lon="-2.544376000">
        <ele>481.00</ele>
        <time>2016-10-22T07:18:11Z</time>
      </trkpt>
      <trkpt lat="42.421219000" lon="-2.544352000">
        <ele>481.00</ele>
        <time>2016-10-22T07:18:12Z</time>
      </trkpt>
      <trkpt lat="42.421182000" lon="-2.544323000">
        <ele>481.10</ele>
        <time>2016-10-22T07:18:13Z</time>
      </trkpt>
      <trkpt lat="42.421144000" lon="-2.544295000">
        <ele>481.00</ele>
        <time>2016-10-22T07:18:14Z</time>
      </trkpt>
      <trkpt lat="42.421103000" lon="-2.544270000">
        <ele>481.00</ele>
        <time>2016-10-22T07:18:15Z</time>
      </trkpt>
      <trkpt lat="42.421062000" lon="-2.544244000">
        <ele>481.00</ele>
        <time>2016-10-22T07:18:16Z</time>
      </trkpt>
      <trkpt lat="42.421019000" lon="-2.544221000">
        <ele>481.00</ele>
        <time>2016-10-22T07:18:17Z</time>
      </trkpt>
      <trkpt lat="42.420980000" lon="-2.544196000">
        <ele>481.10</ele>
        <time>2016-10-22T07:18:18Z</time>
      </trkpt>
      <trkpt lat="42.420941000" lon="-2.544177000">
        <ele>481.10</ele>
        <time>2016-10-22T07:18:19Z</time>
      </trkpt>
      <trkpt lat="42.420904000" lon="-2.544155000">
        <ele>481.20</ele>
        <time>2016-10-22T07:18:20Z</time>
      </trkpt>
      <trkpt lat="42.420863000" lon="-2.544138000">
        <ele>481.20</ele>
        <time>2016-10-22T07:18:21Z</time>
      </trkpt>
      <trkpt lat="42.420823000" lon="-2.544125000">
        <ele>481.10</ele>
        <time>2016-10-22T07:18:22Z</time>
      </trkpt>
      <trkpt lat="42.420784000" lon="-2.544109000">
        <ele>481.10</ele>
        <time>2016-10-22T07:18:23Z</time>
      </trkpt>
      <trkpt lat="42.420746000" lon="-2.544097000">
        <ele>481.10</ele>
        <time>2016-10-22T07:18:24Z</time>
      </trkpt>
      <trkpt lat="42.420709000" lon="-2.544082000">
        <ele>481.10</ele>
        <time>2016-10-22T07:18:25Z</time>
      </trkpt>
      <trkpt lat="42.420672000" lon="-2.544066000">
        <ele>481.20</ele>
        <time>2016-10-22T07:18:26Z</time>
      </trkpt>
      <trkpt lat="42.420633000" lon="-2.544052000">
        <ele>481.40</ele>
        <time>2016-10-22T07:18:27Z</time>
      </trkpt>
      <trkpt lat="42.420594000" lon="-2.544037000">
        <ele>481.50</ele>
        <time>2016-10-22T07:18:28Z</time>
      </trkpt>
      <trkpt lat="42.420555000" lon="-2.544024000">
        <ele>481.60</ele>
        <time>2016-10-22T07:18:29Z</time>
      </trkpt>
      <trkpt lat="42.420516000" lon="-2.544006000">
        <ele>481.60</ele>
        <time>2016-10-22T07:18:30Z</time>
      </trkpt>
      <trkpt lat="42.420480000" lon="-2.543986000">
        <ele>481.70</ele>
        <time>2016-10-22T07:18:31Z</time>
      </trkpt>
      <trkpt lat="42.420440000" lon="-2.543971000">
        <ele>481.50</ele>
        <time>2016-10-22T07:18:32Z</time>
      </trkpt>
      <trkpt lat="42.420401000" lon="-2.543955000">
        <ele>481.40</ele>
        <time>2016-10-22T07:18:33Z</time>
      </trkpt>
      <trkpt lat="42.420359000" lon="-2.543940000">
        <ele>481.30</ele>
        <time>2016-10-22T07:18:34Z</time>
      </trkpt>
      <trkpt lat="42.420318000" lon="-2.543921000">
        <ele>481.20</ele>
        <time>2016-10-22T07:18:35Z</time>
      </trkpt>
      <trkpt lat="42.420278000" lon="-2.543907000">
        <ele>481.20</ele>
        <time>2016-10-22T07:18:36Z</time>
      </trkpt>
      <trkpt lat="42.420238000" lon="-2.543892000">
        <ele>481.10</ele>
        <time>2016-10-22T07:18:37Z</time>
      </trkpt>
      <trkpt lat="42.420196000" lon="-2.543874000">
        <ele>481.20</ele>
        <time>2016-10-22T07:18:38Z</time>
      </trkpt>
      <trkpt lat="42.420155000" lon="-2.543859000">
        <ele>481.30</ele>
        <time>2016-10-22T07:18:39Z</time>
      </trkpt>
      <trkpt lat="42.420114000" lon="-2.543846000">
        <ele>481.30</ele>
        <time>2016-10-22T07:18:40Z</time>
      </trkpt>
      <trkpt lat="42.420033000" lon="-2.543817000">
        <ele>481.50</ele>
        <time>2016-10-22T07:18:42Z</time>
      </trkpt>
      <trkpt lat="42.419993000" lon="-2.543807000">
        <ele>481.50</ele>
        <time>2016-10-22T07:18:43Z</time>
      </trkpt>
      <trkpt lat="42.419951000" lon="-2.543796000">
        <ele>481.60</ele>
        <time>2016-10-22T07:18:44Z</time>
      </trkpt>
      <trkpt lat="42.419913000" lon="-2.543785000">
        <ele>481.60</ele>
        <time>2016-10-22T07:18:45Z</time>
      </trkpt>
      <trkpt lat="42.419875000" lon="-2.543772000">
        <ele>481.60</ele>
        <time>2016-10-22T07:18:46Z</time>
      </trkpt>
      <trkpt lat="42.419835000" lon="-2.543757000">
        <ele>481.60</ele>
        <time>2016-10-22T07:18:47Z</time>
      </trkpt>
      <trkpt lat="42.419798000" lon="-2.543744000">
        <ele>481.70</ele>
        <time>2016-10-22T07:18:48Z</time>
      </trkpt>
      <trkpt lat="42.419760000" lon="-2.543732000">
        <ele>481.70</ele>
        <time>2016-10-22T07:18:49Z</time>
      </trkpt>
      <trkpt lat="42.419721000" lon="-2.543720000">
        <ele>481.80</ele>
        <time>2016-10-22T07:18:50Z</time>
      </trkpt>
      <trkpt lat="42.419680000" lon="-2.543710000">
        <ele>481.90</ele>
        <time>2016-10-22T07:18:51Z</time>
      </trkpt>
      <trkpt lat="42.419640000" lon="-2.543699000">
        <ele>482.00</ele>
        <time>2016-10-22T07:18:52Z</time>
      </trkpt>
      <trkpt lat="42.419602000" lon="-2.543688000">
        <ele>482.00</ele>
        <time>2016-10-22T07:18:53Z</time>
      </trkpt>
      <trkpt lat="42.419564000" lon="-2.543675000">
        <ele>482.10</ele>
        <time>2016-10-22T07:18:54Z</time>
      </trkpt>
      <trkpt lat="42.419524000" lon="-2.543664000">
        <ele>482.10</ele>
        <time>2016-10-22T07:18:55Z</time>
      </trkpt>
      <trkpt lat="42.419487000" lon="-2.543648000">
        <ele>482.10</ele>
        <time>2016-10-22T07:18:56Z</time>
      </trkpt>
      <trkpt lat="42.419445000" lon="-2.543638000">
        <ele>482.20</ele>
        <time>2016-10-22T07:18:57Z</time>
      </trkpt>
      <trkpt lat="42.419405000" lon="-2.543619000">
        <ele>482.20</ele>
        <time>2016-10-22T07:18:58Z</time>
      </trkpt>
      <trkpt lat="42.419364000" lon="-2.543603000">
        <ele>482.30</ele>
        <time>2016-10-22T07:18:59Z</time>
      </trkpt>
      <trkpt lat="42.419324000" lon="-2.543589000">
        <ele>482.50</ele>
        <time>2016-10-22T07:19:00Z</time>
      </trkpt>
      <trkpt lat="42.419283000" lon="-2.543575000">
        <ele>482.60</ele>
        <time>2016-10-22T07:19:01Z</time>
      </trkpt>
      <trkpt lat="42.419244000" lon="-2.543559000">
        <ele>482.60</ele>
        <time>2016-10-22T07:19:02Z</time>
      </trkpt>
      <trkpt lat="42.419206000" lon="-2.543545000">
        <ele>482.70</ele>
        <time>2016-10-22T07:19:03Z</time>
      </trkpt>
      <trkpt lat="42.419168000" lon="-2.543531000">
        <ele>482.70</ele>
        <time>2016-10-22T07:19:04Z</time>
      </trkpt>
      <trkpt lat="42.419129000" lon="-2.543515000">
        <ele>482.80</ele>
        <time>2016-10-22T07:19:05Z</time>
      </trkpt>
      <trkpt lat="42.419088000" lon="-2.543499000">
        <ele>482.80</ele>
        <time>2016-10-22T07:19:06Z</time>
      </trkpt>
      <trkpt lat="42.419048000" lon="-2.543486000">
        <ele>482.80</ele>
        <time>2016-10-22T07:19:07Z</time>
      </trkpt>
      <trkpt lat="42.419007000" lon="-2.543473000">
        <ele>482.90</ele>
        <time>2016-10-22T07:19:08Z</time>
      </trkpt>
      <trkpt lat="42.418967000" lon="-2.543459000">
        <ele>482.90</ele>
        <time>2016-10-22T07:19:09Z</time>
      </trkpt>
      <trkpt lat="42.418928000" lon="-2.543447000">
        <ele>482.80</ele>
        <time>2016-10-22T07:19:10Z</time>
      </trkpt>
      <trkpt lat="42.418890000" lon="-2.543431000">
        <ele>482.70</ele>
        <time>2016-10-22T07:19:11Z</time>
      </trkpt>
      <trkpt lat="42.418849000" lon="-2.543416000">
        <ele>482.60</ele>
        <time>2016-10-22T07:19:12Z</time>
      </trkpt>
      <trkpt lat="42.418809000" lon="-2.543402000">
        <ele>482.50</ele>
        <time>2016-10-22T07:19:13Z</time>
      </trkpt>
      <trkpt lat="42.418770000" lon="-2.543387000">
        <ele>482.50</ele>
        <time>2016-10-22T07:19:14Z</time>
      </trkpt>
      <trkpt lat="42.418730000" lon="-2.543370000">
        <ele>482.50</ele>
        <time>2016-10-22T07:19:15Z</time>
      </trkpt>
      <trkpt lat="42.418691000" lon="-2.543355000">
        <ele>482.70</ele>
        <time>2016-10-22T07:19:16Z</time>
      </trkpt>
      <trkpt lat="42.418649000" lon="-2.543340000">
        <ele>482.80</ele>
        <time>2016-10-22T07:19:17Z</time>
      </trkpt>
      <trkpt lat="42.418609000" lon="-2.543326000">
        <ele>482.90</ele>
        <time>2016-10-22T07:19:18Z</time>
      </trkpt>
      <trkpt lat="42.418568000" lon="-2.543311000">
        <ele>483.00</ele>
        <time>2016-10-22T07:19:19Z</time>
      </trkpt>
      <trkpt lat="42.418526000" lon="-2.543297000">
        <ele>483.10</ele>
        <time>2016-10-22T07:19:20Z</time>
      </trkpt>
      <trkpt lat="42.418484000" lon="-2.543282000">
        <ele>483.20</ele>
        <time>2016-10-22T07:19:21Z</time>
      </trkpt>
      <trkpt lat="42.418442000" lon="-2.543268000">
        <ele>483.20</ele>
        <time>2016-10-22T07:19:22Z</time>
      </trkpt>
      <trkpt lat="42.418400000" lon="-2.543252000">
        <ele>483.30</ele>
        <time>2016-10-22T07:19:23Z</time>
      </trkpt>
      <trkpt lat="42.418356000" lon="-2.543237000">
        <ele>483.30</ele>
        <time>2016-10-22T07:19:24Z</time>
      </trkpt>
      <trkpt lat="42.418313000" lon="-2.543222000">
        <ele>483.40</ele>
        <time>2016-10-22T07:19:25Z</time>
      </trkpt>
      <trkpt lat="42.418270000" lon="-2.543210000">
        <ele>483.40</ele>
        <time>2016-10-22T07:19:26Z</time>
      </trkpt>
      <trkpt lat="42.418225000" lon="-2.543197000">
        <ele>483.50</ele>
        <time>2016-10-22T07:19:27Z</time>
      </trkpt>
      <trkpt lat="42.418181000" lon="-2.543181000">
        <ele>483.60</ele>
        <time>2016-10-22T07:19:28Z</time>
      </trkpt>
      <trkpt lat="42.418138000" lon="-2.543165000">
        <ele>483.60</ele>
        <time>2016-10-22T07:19:29Z</time>
      </trkpt>
      <trkpt lat="42.418095000" lon="-2.543152000">
        <ele>483.70</ele>
        <time>2016-10-22T07:19:30Z</time>
      </trkpt>
      <trkpt lat="42.418051000" lon="-2.543136000">
        <ele>483.80</ele>
        <time>2016-10-22T07:19:31Z</time>
      </trkpt>
      <trkpt lat="42.418010000" lon="-2.543121000">
        <ele>483.80</ele>
        <time>2016-10-22T07:19:32Z</time>
      </trkpt>
      <trkpt lat="42.417966000" lon="-2.543108000">
        <ele>483.90</ele>
        <time>2016-10-22T07:19:33Z</time>
      </trkpt>
      <trkpt lat="42.417923000" lon="-2.543096000">
        <ele>483.90</ele>
        <time>2016-10-22T07:19:34Z</time>
      </trkpt>
      <trkpt lat="42.417879000" lon="-2.543083000">
        <ele>483.90</ele>
        <time>2016-10-22T07:19:35Z</time>
      </trkpt>
      <trkpt lat="42.417836000" lon="-2.543065000">
        <ele>483.90</ele>
        <time>2016-10-22T07:19:36Z</time>
      </trkpt>
      <trkpt lat="42.417791000" lon="-2.543049000">
        <ele>483.80</ele>
        <time>2016-10-22T07:19:37Z</time>
      </trkpt>
      <trkpt lat="42.417749000" lon="-2.543036000">
        <ele>483.80</ele>
        <time>2016-10-22T07:19:38Z</time>
      </trkpt>
      <trkpt lat="42.417707000" lon="-2.543023000">
        <ele>483.80</ele>
        <time>2016-10-22T07:19:39Z</time>
      </trkpt>
      <trkpt lat="42.417666000" lon="-2.543007000">
        <ele>484.00</ele>
        <time>2016-10-22T07:19:40Z</time>
      </trkpt>
      <trkpt lat="42.417625000" lon="-2.542993000">
        <ele>484.10</ele>
        <time>2016-10-22T07:19:41Z</time>
      </trkpt>
      <trkpt lat="42.417540000" lon="-2.542963000">
        <ele>484.30</ele>
        <time>2016-10-22T07:19:43Z</time>
      </trkpt>
      <trkpt lat="42.417495000" lon="-2.542949000">
        <ele>484.40</ele>
        <time>2016-10-22T07:19:44Z</time>
      </trkpt>
      <trkpt lat="42.417451000" lon="-2.542936000">
        <ele>484.40</ele>
        <time>2016-10-22T07:19:45Z</time>
      </trkpt>
      <trkpt lat="42.417409000" lon="-2.542927000">
        <ele>484.50</ele>
        <time>2016-10-22T07:19:46Z</time>
      </trkpt>
      <trkpt lat="42.417366000" lon="-2.542909000">
        <ele>484.50</ele>
        <time>2016-10-22T07:19:47Z</time>
      </trkpt>
      <trkpt lat="42.417325000" lon="-2.542895000">
        <ele>484.50</ele>
        <time>2016-10-22T07:19:48Z</time>
      </trkpt>
      <trkpt lat="42.417284000" lon="-2.542886000">
        <ele>484.50</ele>
        <time>2016-10-22T07:19:49Z</time>
      </trkpt>
      <trkpt lat="42.417241000" lon="-2.542879000">
        <ele>484.60</ele>
        <time>2016-10-22T07:19:50Z</time>
      </trkpt>
      <trkpt lat="42.417196000" lon="-2.542867000">
        <ele>484.60</ele>
        <time>2016-10-22T07:19:51Z</time>
      </trkpt>
      <trkpt lat="42.417154000" lon="-2.542861000">
        <ele>484.60</ele>
        <time>2016-10-22T07:19:52Z</time>
      </trkpt>
      <trkpt lat="42.417112000" lon="-2.542852000">
        <ele>484.60</ele>
        <time>2016-10-22T07:19:53Z</time>
      </trkpt>
      <trkpt lat="42.417068000" lon="-2.542836000">
        <ele>484.60</ele>
        <time>2016-10-22T07:19:54Z</time>
      </trkpt>
      <trkpt lat="42.417023000" lon="-2.542815000">
        <ele>484.60</ele>
        <time>2016-10-22T07:19:55Z</time>
      </trkpt>
      <trkpt lat="42.416977000" lon="-2.542800000">
        <ele>484.70</ele>
        <time>2016-10-22T07:19:56Z</time>
      </trkpt>
      <trkpt lat="42.416932000" lon="-2.542785000">
        <ele>484.80</ele>
        <time>2016-10-22T07:19:57Z</time>
      </trkpt>
      <trkpt lat="42.416890000" lon="-2.542777000">
        <ele>484.90</ele>
        <time>2016-10-22T07:19:58Z</time>
      </trkpt>
      <trkpt lat="42.416847000" lon="-2.542771000">
        <ele>484.90</ele>
        <time>2016-10-22T07:19:59Z</time>
      </trkpt>
      <trkpt lat="42.416802000" lon="-2.542761000">
        <ele>485.00</ele>
        <time>2016-10-22T07:20:00Z</time>
      </trkpt>
      <trkpt lat="42.416757000" lon="-2.542750000">
        <ele>485.00</ele>
        <time>2016-10-22T07:20:01Z</time>
      </trkpt>
      <trkpt lat="42.416712000" lon="-2.542738000">
        <ele>485.00</ele>
        <time>2016-10-22T07:20:02Z</time>
      </trkpt>
      <trkpt lat="42.416665000" lon="-2.542729000">
        <ele>485.10</ele>
        <time>2016-10-22T07:20:03Z</time>
      </trkpt>
      <trkpt lat="42.416622000" lon="-2.542724000">
        <ele>485.10</ele>
        <time>2016-10-22T07:20:04Z</time>
      </trkpt>
      <trkpt lat="42.416576000" lon="-2.542716000">
        <ele>485.10</ele>
        <time>2016-10-22T07:20:05Z</time>
      </trkpt>
      <trkpt lat="42.416531000" lon="-2.542707000">
        <ele>485.20</ele>
        <time>2016-10-22T07:20:06Z</time>
      </trkpt>
      <trkpt lat="42.416485000" lon="-2.542703000">
        <ele>485.30</ele>
        <time>2016-10-22T07:20:07Z</time>
      </trkpt>
      <trkpt lat="42.416439000" lon="-2.542697000">
        <ele>485.50</ele>
        <time>2016-10-22T07:20:08Z</time>
      </trkpt>
      <trkpt lat="42.416394000" lon="-2.542688000">
        <ele>485.60</ele>
        <time>2016-10-22T07:20:09Z</time>
      </trkpt>
      <trkpt lat="42.416348000" lon="-2.542682000">
        <ele>485.70</ele>
        <time>2016-10-22T07:20:10Z</time>
      </trkpt>
      <trkpt lat="42.416302000" lon="-2.542676000">
        <ele>485.70</ele>
        <time>2016-10-22T07:20:11Z</time>
      </trkpt>
      <trkpt lat="42.416258000" lon="-2.542667000">
        <ele>485.70</ele>
        <time>2016-10-22T07:20:12Z</time>
      </trkpt>
      <trkpt lat="42.416213000" lon="-2.542657000">
        <ele>485.70</ele>
        <time>2016-10-22T07:20:13Z</time>
      </trkpt>
      <trkpt lat="42.416166000" lon="-2.542649000">
        <ele>485.60</ele>
        <time>2016-10-22T07:20:14Z</time>
      </trkpt>
      <trkpt lat="42.416121000" lon="-2.542643000">
        <ele>485.50</ele>
        <time>2016-10-22T07:20:15Z</time>
      </trkpt>
      <trkpt lat="42.416076000" lon="-2.542635000">
        <ele>485.50</ele>
        <time>2016-10-22T07:20:16Z</time>
      </trkpt>
      <trkpt lat="42.416029000" lon="-2.542628000">
        <ele>485.50</ele>
        <time>2016-10-22T07:20:17Z</time>
      </trkpt>
      <trkpt lat="42.415982000" lon="-2.542619000">
        <ele>485.40</ele>
        <time>2016-10-22T07:20:18Z</time>
      </trkpt>
      <trkpt lat="42.415934000" lon="-2.542618000">
        <ele>485.40</ele>
        <time>2016-10-22T07:20:19Z</time>
      </trkpt>
      <trkpt lat="42.415884000" lon="-2.542608000">
        <ele>485.40</ele>
        <time>2016-10-22T07:20:20Z</time>
      </trkpt>
      <trkpt lat="42.415834000" lon="-2.542600000">
        <ele>485.40</ele>
        <time>2016-10-22T07:20:21Z</time>
      </trkpt>
      <trkpt lat="42.415786000" lon="-2.542592000">
        <ele>485.50</ele>
        <time>2016-10-22T07:20:22Z</time>
      </trkpt>
      <trkpt lat="42.415738000" lon="-2.542584000">
        <ele>485.50</ele>
        <time>2016-10-22T07:20:23Z</time>
      </trkpt>
      <trkpt lat="42.415692000" lon="-2.542579000">
        <ele>485.50</ele>
        <time>2016-10-22T07:20:24Z</time>
      </trkpt>
      <trkpt lat="42.415646000" lon="-2.542574000">
        <ele>485.60</ele>
        <time>2016-10-22T07:20:25Z</time>
      </trkpt>
      <trkpt lat="42.415599000" lon="-2.542568000">
        <ele>485.60</ele>
        <time>2016-10-22T07:20:26Z</time>
      </trkpt>
      <trkpt lat="42.415553000" lon="-2.542557000">
        <ele>485.60</ele>
        <time>2016-10-22T07:20:27Z</time>
      </trkpt>
      <trkpt lat="42.415508000" lon="-2.542549000">
        <ele>485.70</ele>
        <time>2016-10-22T07:20:28Z</time>
      </trkpt>
      <trkpt lat="42.415460000" lon="-2.542547000">
        <ele>485.80</ele>
        <time>2016-10-22T07:20:29Z</time>
      </trkpt>
      <trkpt lat="42.415411000" lon="-2.542544000">
        <ele>485.90</ele>
        <time>2016-10-22T07:20:30Z</time>
      </trkpt>
      <trkpt lat="42.415365000" lon="-2.542542000">
        <ele>485.90</ele>
        <time>2016-10-22T07:20:31Z</time>
      </trkpt>
      <trkpt lat="42.415321000" lon="-2.542535000">
        <ele>486.10</ele>
        <time>2016-10-22T07:20:32Z</time>
      </trkpt>
      <trkpt lat="42.415277000" lon="-2.542527000">
        <ele>486.30</ele>
        <time>2016-10-22T07:20:33Z</time>
      </trkpt>
      <trkpt lat="42.415234000" lon="-2.542517000">
        <ele>486.50</ele>
        <time>2016-10-22T07:20:34Z</time>
      </trkpt>
      <trkpt lat="42.415192000" lon="-2.542504000">
        <ele>486.60</ele>
        <time>2016-10-22T07:20:35Z</time>
      </trkpt>
      <trkpt lat="42.415150000" lon="-2.542491000">
        <ele>486.70</ele>
        <time>2016-10-22T07:20:36Z</time>
      </trkpt>
      <trkpt lat="42.415108000" lon="-2.542480000">
        <ele>486.80</ele>
        <time>2016-10-22T07:20:37Z</time>
      </trkpt>
      <trkpt lat="42.415068000" lon="-2.542467000">
        <ele>486.90</ele>
        <time>2016-10-22T07:20:38Z</time>
      </trkpt>
      <trkpt lat="42.415028000" lon="-2.542454000">
        <ele>487.00</ele>
        <time>2016-10-22T07:20:39Z</time>
      </trkpt>
      <trkpt lat="42.414987000" lon="-2.542438000">
        <ele>487.00</ele>
        <time>2016-10-22T07:20:40Z</time>
      </trkpt>
      <trkpt lat="42.414947000" lon="-2.542423000">
        <ele>487.10</ele>
        <time>2016-10-22T07:20:41Z</time>
      </trkpt>
      <trkpt lat="42.414908000" lon="-2.542411000">
        <ele>487.10</ele>
        <time>2016-10-22T07:20:42Z</time>
      </trkpt>
      <trkpt lat="42.414832000" lon="-2.542389000">
        <ele>487.20</ele>
        <time>2016-10-22T07:20:44Z</time>
      </trkpt>
      <trkpt lat="42.414793000" lon="-2.542379000">
        <ele>487.20</ele>
        <time>2016-10-22T07:20:45Z</time>
      </trkpt>
      <trkpt lat="42.414754000" lon="-2.542370000">
        <ele>487.20</ele>
        <time>2016-10-22T07:20:46Z</time>
      </trkpt>
      <trkpt lat="42.414714000" lon="-2.542358000">
        <ele>487.30</ele>
        <time>2016-10-22T07:20:47Z</time>
      </trkpt>
      <trkpt lat="42.414676000" lon="-2.542345000">
        <ele>487.50</ele>
        <time>2016-10-22T07:20:48Z</time>
      </trkpt>
      <trkpt lat="42.414639000" lon="-2.542329000">
        <ele>487.70</ele>
        <time>2016-10-22T07:20:49Z</time>
      </trkpt>
      <trkpt lat="42.414602000" lon="-2.542309000">
        <ele>487.90</ele>
        <time>2016-10-22T07:20:50Z</time>
      </trkpt>
      <trkpt lat="42.414566000" lon="-2.542285000">
        <ele>488.00</ele>
        <time>2016-10-22T07:20:51Z</time>
      </trkpt>
      <trkpt lat="42.414533000" lon="-2.542262000">
        <ele>488.00</ele>
        <time>2016-10-22T07:20:52Z</time>
      </trkpt>
      <trkpt lat="42.414499000" lon="-2.542241000">
        <ele>488.10</ele>
        <time>2016-10-22T07:20:53Z</time>
      </trkpt>
      <trkpt lat="42.414464000" lon="-2.542219000">
        <ele>488.00</ele>
        <time>2016-10-22T07:20:54Z</time>
      </trkpt>
      <trkpt lat="42.414429000" lon="-2.542196000">
        <ele>487.90</ele>
        <time>2016-10-22T07:20:55Z</time>
      </trkpt>
      <trkpt lat="42.414393000" lon="-2.542173000">
        <ele>488.10</ele>
        <time>2016-10-22T07:20:56Z</time>
      </trkpt>
      <trkpt lat="42.414356000" lon="-2.542151000">
        <ele>488.20</ele>
        <time>2016-10-22T07:20:57Z</time>
      </trkpt>
      <trkpt lat="42.414320000" lon="-2.542130000">
        <ele>488.30</ele>
        <time>2016-10-22T07:20:58Z</time>
      </trkpt>
      <trkpt lat="42.414284000" lon="-2.542106000">
        <ele>488.30</ele>
        <time>2016-10-22T07:20:59Z</time>
      </trkpt>
      <trkpt lat="42.414245000" lon="-2.542080000">
        <ele>488.50</ele>
        <time>2016-10-22T07:21:00Z</time>
      </trkpt>
      <trkpt lat="42.414211000" lon="-2.542052000">
        <ele>488.70</ele>
        <time>2016-10-22T07:21:01Z</time>
      </trkpt>
      <trkpt lat="42.414175000" lon="-2.542022000">
        <ele>488.80</ele>
        <time>2016-10-22T07:21:02Z</time>
      </trkpt>
      <trkpt lat="42.414139000" lon="-2.541996000">
        <ele>488.80</ele>
        <time>2016-10-22T07:21:03Z</time>
      </trkpt>
      <trkpt lat="42.414105000" lon="-2.541976000">
        <ele>488.90</ele>
        <time>2016-10-22T07:21:04Z</time>
      </trkpt>
      <trkpt lat="42.414069000" lon="-2.541951000">
        <ele>488.90</ele>
        <time>2016-10-22T07:21:05Z</time>
      </trkpt>
      <trkpt lat="42.414034000" lon="-2.541928000">
        <ele>489.00</ele>
        <time>2016-10-22T07:21:06Z</time>
      </trkpt>
      <trkpt lat="42.413998000" lon="-2.541903000">
        <ele>489.00</ele>
        <time>2016-10-22T07:21:07Z</time>
      </trkpt>
      <trkpt lat="42.413962000" lon="-2.541877000">
        <ele>488.90</ele>
        <time>2016-10-22T07:21:08Z</time>
      </trkpt>
      <trkpt lat="42.413928000" lon="-2.541853000">
        <ele>488.90</ele>
        <time>2016-10-22T07:21:09Z</time>
      </trkpt>
      <trkpt lat="42.413892000" lon="-2.541831000">
        <ele>488.90</ele>
        <time>2016-10-22T07:21:10Z</time>
      </trkpt>
      <trkpt lat="42.413854000" lon="-2.541813000">
        <ele>489.00</ele>
        <time>2016-10-22T07:21:11Z</time>
      </trkpt>
      <trkpt lat="42.413817000" lon="-2.541790000">
        <ele>489.10</ele>
        <time>2016-10-22T07:21:12Z</time>
      </trkpt>
      <trkpt lat="42.413779000" lon="-2.541765000">
        <ele>489.20</ele>
        <time>2016-10-22T07:21:13Z</time>
      </trkpt>
      <trkpt lat="42.413741000" lon="-2.541746000">
        <ele>489.30</ele>
        <time>2016-10-22T07:21:14Z</time>
      </trkpt>
      <trkpt lat="42.413701000" lon="-2.541720000">
        <ele>489.40</ele>
        <time>2016-10-22T07:21:15Z</time>
      </trkpt>
      <trkpt lat="42.413656000" lon="-2.541693000">
        <ele>489.50</ele>
        <time>2016-10-22T07:21:16Z</time>
      </trkpt>
      <trkpt lat="42.413603000" lon="-2.541674000">
        <ele>489.60</ele>
        <time>2016-10-22T07:21:17Z</time>
      </trkpt>
      <trkpt lat="42.413547000" lon="-2.541673000">
        <ele>489.60</ele>
        <time>2016-10-22T07:21:18Z</time>
      </trkpt>
      <trkpt lat="42.413496000" lon="-2.541698000">
        <ele>489.70</ele>
        <time>2016-10-22T07:21:19Z</time>
      </trkpt>
      <trkpt lat="42.413458000" lon="-2.541735000">
        <ele>489.90</ele>
        <time>2016-10-22T07:21:20Z</time>
      </trkpt>
      <trkpt lat="42.413424000" lon="-2.541773000">
        <ele>490.10</ele>
        <time>2016-10-22T07:21:21Z</time>
      </trkpt>
      <trkpt lat="42.413392000" lon="-2.541810000">
        <ele>490.40</ele>
        <time>2016-10-22T07:21:22Z</time>
      </trkpt>
      <trkpt lat="42.413365000" lon="-2.541832000">
        <ele>490.70</ele>
        <time>2016-10-22T07:21:23Z</time>
      </trkpt>
      <trkpt lat="42.413346000" lon="-2.541844000">
        <ele>490.90</ele>
        <time>2016-10-22T07:21:24Z</time>
      </trkpt>
      <trkpt lat="42.413329000" lon="-2.541847000">
        <ele>491.00</ele>
        <time>2016-10-22T07:21:25Z</time>
      </trkpt>
      <trkpt lat="42.413319000" lon="-2.541853000">
        <ele>491.10</ele>
        <time>2016-10-22T07:21:26Z</time>
      </trkpt>
      <trkpt lat="42.413311000" lon="-2.541849000">
        <ele>491.20</ele>
        <time>2016-10-22T07:21:27Z</time>
      </trkpt>
      <trkpt lat="42.413308000" lon="-2.541842000">
        <ele>491.20</ele>
        <time>2016-10-22T07:21:28Z</time>
      </trkpt>
      <trkpt lat="42.413305000" lon="-2.541839000">
        <ele>491.30</ele>
        <time>2016-10-22T07:21:29Z</time>
      </trkpt>
      <trkpt lat="42.413296000" lon="-2.541838000">
        <ele>491.30</ele>
        <time>2016-10-22T07:21:30Z</time>
      </trkpt>
      <trkpt lat="42.413291000" lon="-2.541833000">
        <ele>491.30</ele>
        <time>2016-10-22T07:21:31Z</time>
      </trkpt>
      <trkpt lat="42.413290000" lon="-2.541833000">
        <ele>491.30</ele>
        <time>2016-10-22T07:21:32Z</time>
      </trkpt>
      <trkpt lat="42.413290000" lon="-2.541833000">
        <ele>491.30</ele>
        <time>2016-10-22T07:21:33Z</time>
      </trkpt>
      <trkpt lat="42.413290000" lon="-2.541833000">
        <ele>491.20</ele>
        <time>2016-10-22T07:21:34Z</time>
      </trkpt>
      <trkpt lat="42.413288000" lon="-2.541837000">
        <ele>491.20</ele>
        <time>2016-10-22T07:21:35Z</time>
      </trkpt>
      <trkpt lat="42.413283000" lon="-2.541840000">
        <ele>491.20</ele>
        <time>2016-10-22T07:21:36Z</time>
      </trkpt>
      <trkpt lat="42.413280000" lon="-2.541840000">
        <ele>491.20</ele>
        <time>2016-10-22T07:21:37Z</time>
      </trkpt>
      <trkpt lat="42.413278000" lon="-2.541836000">
        <ele>491.20</ele>
        <time>2016-10-22T07:21:38Z</time>
      </trkpt>
      <trkpt lat="42.413275000" lon="-2.541834000">
        <ele>491.20</ele>
        <time>2016-10-22T07:21:39Z</time>
      </trkpt>
      <trkpt lat="42.413275000" lon="-2.541834000">
        <ele>491.10</ele>
        <time>2016-10-22T07:21:40Z</time>
      </trkpt>
      <trkpt lat="42.413275000" lon="-2.541834000">
        <ele>491.00</ele>
        <time>2016-10-22T07:21:41Z</time>
      </trkpt>
      <trkpt lat="42.413275000" lon="-2.541834000">
        <ele>490.90</ele>
        <time>2016-10-22T07:21:42Z</time>
      </trkpt>
      <trkpt lat="42.413275000" lon="-2.541834000">
        <ele>490.90</ele>
        <time>2016-10-22T07:21:43Z</time>
      </trkpt>
      <trkpt lat="42.413266000" lon="-2.541849000">
        <ele>491.00</ele>
        <time>2016-10-22T07:21:45Z</time>
      </trkpt>
      <trkpt lat="42.413260000" lon="-2.541848000">
        <ele>491.20</ele>
        <time>2016-10-22T07:21:46Z</time>
      </trkpt>
      <trkpt lat="42.413253000" lon="-2.541842000">
        <ele>491.30</ele>
        <time>2016-10-22T07:21:47Z</time>
      </trkpt>
      <trkpt lat="42.413248000" lon="-2.541835000">
        <ele>491.30</ele>
        <time>2016-10-22T07:21:48Z</time>
      </trkpt>
      <trkpt lat="42.413248000" lon="-2.541830000">
        <ele>491.30</ele>
        <time>2016-10-22T07:21:49Z</time>
      </trkpt>
      <trkpt lat="42.413250000" lon="-2.541823000">
        <ele>491.40</ele>
        <time>2016-10-22T07:21:50Z</time>
      </trkpt>
      <trkpt lat="42.413250000" lon="-2.541823000">
        <ele>491.50</ele>
        <time>2016-10-22T07:21:51Z</time>
      </trkpt>
      <trkpt lat="42.413250000" lon="-2.541823000">
        <ele>491.70</ele>
        <time>2016-10-22T07:21:52Z</time>
      </trkpt>
      <trkpt lat="42.413238000" lon="-2.541816000">
        <ele>491.80</ele>
        <time>2016-10-22T07:21:53Z</time>
      </trkpt>
      <trkpt lat="42.413230000" lon="-2.541803000">
        <ele>491.90</ele>
        <time>2016-10-22T07:21:54Z</time>
      </trkpt>
      <trkpt lat="42.413230000" lon="-2.541794000">
        <ele>492.00</ele>
        <time>2016-10-22T07:21:55Z</time>
      </trkpt>
      <trkpt lat="42.413227000" lon="-2.541784000">
        <ele>492.00</ele>
        <time>2016-10-22T07:21:56Z</time>
      </trkpt>
      <trkpt lat="42.413220000" lon="-2.541776000">
        <ele>492.10</ele>
        <time>2016-10-22T07:21:57Z</time>
      </trkpt>
      <trkpt lat="42.413214000" lon="-2.541773000">
        <ele>492.00</ele>
        <time>2016-10-22T07:21:58Z</time>
      </trkpt>
      <trkpt lat="42.413210000" lon="-2.541773000">
        <ele>491.90</ele>
        <time>2016-10-22T07:21:59Z</time>
      </trkpt>
      <trkpt lat="42.413210000" lon="-2.541773000">
        <ele>491.90</ele>
        <time>2016-10-22T07:22:00Z</time>
      </trkpt>
      <trkpt lat="42.413211000" lon="-2.541773000">
        <ele>491.90</ele>
        <time>2016-10-22T07:22:01Z</time>
      </trkpt>
      <trkpt lat="42.413213000" lon="-2.541780000">
        <ele>491.80</ele>
        <time>2016-10-22T07:22:02Z</time>
      </trkpt>
      <trkpt lat="42.413213000" lon="-2.541780000">
        <ele>491.80</ele>
        <time>2016-10-22T07:22:03Z</time>
      </trkpt>
      <trkpt lat="42.413213000" lon="-2.541780000">
        <ele>491.70</ele>
        <time>2016-10-22T07:22:04Z</time>
      </trkpt>
      <trkpt lat="42.413213000" lon="-2.541780000">
        <ele>491.70</ele>
        <time>2016-10-22T07:22:05Z</time>
      </trkpt>
      <trkpt lat="42.413213000" lon="-2.541780000">
        <ele>491.70</ele>
        <time>2016-10-22T07:22:06Z</time>
      </trkpt>
      <trkpt lat="42.413213000" lon="-2.541780000">
        <ele>491.70</ele>
        <time>2016-10-22T07:22:07Z</time>
      </trkpt>
      <trkpt lat="42.413213000" lon="-2.541780000">
        <ele>491.70</ele>
        <time>2016-10-22T07:22:08Z</time>
      </trkpt>
      <trkpt lat="42.413213000" lon="-2.541780000">
        <ele>491.70</ele>
        <time>2016-10-22T07:22:09Z</time>
      </trkpt>
      <trkpt lat="42.413213000" lon="-2.541780000">
        <ele>491.70</ele>
        <time>2016-10-22T07:22:10Z</time>
      </trkpt>
      <trkpt lat="42.413213000" lon="-2.541780000">
        <ele>491.80</ele>
        <time>2016-10-22T07:22:11Z</time>
      </trkpt>
      <trkpt lat="42.413214000" lon="-2.541787000">
        <ele>491.80</ele>
        <time>2016-10-22T07:22:12Z</time>
      </trkpt>
      <trkpt lat="42.413213000" lon="-2.541791000">
        <ele>491.90</ele>
        <time>2016-10-22T07:22:13Z</time>
      </trkpt>
      <trkpt lat="42.413213000" lon="-2.541791000">
        <ele>491.90</ele>
        <time>2016-10-22T07:22:14Z</time>
      </trkpt>
      <trkpt lat="42.413213000" lon="-2.541791000">
        <ele>491.90</ele>
        <time>2016-10-22T07:22:15Z</time>
      </trkpt>
      <trkpt lat="42.413213000" lon="-2.541791000">
        <ele>492.00</ele>
        <time>2016-10-22T07:22:16Z</time>
      </trkpt>
      <trkpt lat="42.413213000" lon="-2.541791000">
        <ele>492.00</ele>
        <time>2016-10-22T07:22:17Z</time>
      </trkpt>
      <trkpt lat="42.413213000" lon="-2.541791000">
        <ele>491.90</ele>
        <time>2016-10-22T07:22:18Z</time>
      </trkpt>
      <trkpt lat="42.413213000" lon="-2.541791000">
        <ele>491.90</ele>
        <time>2016-10-22T07:22:19Z</time>
      </trkpt>
      <trkpt lat="42.413213000" lon="-2.541791000">
        <ele>491.90</ele>
        <time>2016-10-22T07:22:20Z</time>
      </trkpt>
      <trkpt lat="42.413213000" lon="-2.541791000">
        <ele>491.80</ele>
        <time>2016-10-22T07:22:21Z</time>
      </trkpt>
      <trkpt lat="42.413213000" lon="-2.541791000">
        <ele>491.80</ele>
        <time>2016-10-22T07:22:22Z</time>
      </trkpt>
      <trkpt lat="42.413213000" lon="-2.541791000">
        <ele>491.70</ele>
        <time>2016-10-22T07:22:23Z</time>
      </trkpt>
      <trkpt lat="42.413213000" lon="-2.541791000">
        <ele>491.60</ele>
        <time>2016-10-22T07:22:24Z</time>
      </trkpt>
      <trkpt lat="42.413213000" lon="-2.541791000">
        <ele>491.60</ele>
        <time>2016-10-22T07:22:25Z</time>
      </trkpt>
      <trkpt lat="42.413213000" lon="-2.541791000">
        <ele>491.60</ele>
        <time>2016-10-22T07:22:26Z</time>
      </trkpt>
      <trkpt lat="42.413213000" lon="-2.541791000">
        <ele>491.60</ele>
        <time>2016-10-22T07:22:27Z</time>
      </trkpt>
      <trkpt lat="42.413213000" lon="-2.541791000">
        <ele>491.50</ele>
        <time>2016-10-22T07:22:28Z</time>
      </trkpt>
      <trkpt lat="42.413213000" lon="-2.541791000">
        <ele>491.50</ele>
        <time>2016-10-22T07:22:29Z</time>
      </trkpt>
      <trkpt lat="42.413213000" lon="-2.541791000">
        <ele>491.50</ele>
        <time>2016-10-22T07:22:30Z</time>
      </trkpt>
      <trkpt lat="42.413213000" lon="-2.541791000">
        <ele>491.50</ele>
        <time>2016-10-22T07:22:31Z</time>
      </trkpt>
      <trkpt lat="42.413213000" lon="-2.541791000">
        <ele>491.50</ele>
        <time>2016-10-22T07:22:32Z</time>
      </trkpt>
      <trkpt lat="42.413213000" lon="-2.541791000">
        <ele>491.50</ele>
        <time>2016-10-22T07:22:33Z</time>
      </trkpt>
      <trkpt lat="42.413213000" lon="-2.541791000">
        <ele>491.50</ele>
        <time>2016-10-22T07:22:34Z</time>
      </trkpt>
      <trkpt lat="42.413213000" lon="-2.541791000">
        <ele>491.50</ele>
        <time>2016-10-22T07:22:35Z</time>
      </trkpt>
      <trkpt lat="42.413213000" lon="-2.541791000">
        <ele>491.60</ele>
        <time>2016-10-22T07:22:36Z</time>
      </trkpt>
      <trkpt lat="42.413213000" lon="-2.541791000">
        <ele>491.60</ele>
        <time>2016-10-22T07:22:37Z</time>
      </trkpt>
      <trkpt lat="42.413213000" lon="-2.541791000">
        <ele>491.60</ele>
        <time>2016-10-22T07:22:38Z</time>
      </trkpt>
      <trkpt lat="42.413213000" lon="-2.541791000">
        <ele>491.60</ele>
        <time>2016-10-22T07:22:39Z</time>
      </trkpt>
      <trkpt lat="42.413213000" lon="-2.541791000">
        <ele>491.60</ele>
        <time>2016-10-22T07:22:40Z</time>
      </trkpt>
      <trkpt lat="42.413213000" lon="-2.541791000">
        <ele>491.50</ele>
        <time>2016-10-22T07:22:41Z</time>
      </trkpt>
      <trkpt lat="42.413213000" lon="-2.541791000">
        <ele>491.50</ele>
        <time>2016-10-22T07:22:42Z</time>
      </trkpt>
      <trkpt lat="42.413213000" lon="-2.541791000">
        <ele>491.40</ele>
        <time>2016-10-22T07:22:43Z</time>
      </trkpt>
      <trkpt lat="42.413213000" lon="-2.541791000">
        <ele>491.30</ele>
        <time>2016-10-22T07:22:44Z</time>
      </trkpt>
      <trkpt lat="42.413213000" lon="-2.541791000">
        <ele>491.20</ele>
        <time>2016-10-22T07:22:46Z</time>
      </trkpt>
      <trkpt lat="42.413213000" lon="-2.541791000">
        <ele>491.10</ele>
        <time>2016-10-22T07:22:47Z</time>
      </trkpt>
      <trkpt lat="42.413213000" lon="-2.541791000">
        <ele>491.10</ele>
        <time>2016-10-22T07:22:48Z</time>
      </trkpt>
      <trkpt lat="42.413213000" lon="-2.541791000">
        <ele>491.10</ele>
        <time>2016-10-22T07:22:49Z</time>
      </trkpt>
      <trkpt lat="42.413213000" lon="-2.541791000">
        <ele>491.10</ele>
        <time>2016-10-22T07:22:50Z</time>
      </trkpt>
      <trkpt lat="42.413213000" lon="-2.541791000">
        <ele>491.10</ele>
        <time>2016-10-22T07:22:51Z</time>
      </trkpt>
      <trkpt lat="42.413213000" lon="-2.541791000">
        <ele>491.20</ele>
        <time>2016-10-22T07:22:52Z</time>
      </trkpt>
      <trkpt lat="42.413213000" lon="-2.541792000">
        <ele>491.20</ele>
        <time>2016-10-22T07:22:53Z</time>
      </trkpt>
      <trkpt lat="42.413213000" lon="-2.541792000">
        <ele>491.20</ele>
        <time>2016-10-22T07:22:54Z</time>
      </trkpt>
      <trkpt lat="42.413213000" lon="-2.541792000">
        <ele>491.20</ele>
        <time>2016-10-22T07:22:55Z</time>
      </trkpt>
      <trkpt lat="42.413213000" lon="-2.541792000">
        <ele>491.30</ele>
        <time>2016-10-22T07:22:56Z</time>
      </trkpt>
      <trkpt lat="42.413213000" lon="-2.541792000">
        <ele>491.30</ele>
        <time>2016-10-22T07:22:57Z</time>
      </trkpt>
      <trkpt lat="42.413213000" lon="-2.541792000">
        <ele>491.40</ele>
        <time>2016-10-22T07:22:58Z</time>
      </trkpt>
      <trkpt lat="42.413213000" lon="-2.541792000">
        <ele>491.40</ele>
        <time>2016-10-22T07:22:59Z</time>
      </trkpt>
      <trkpt lat="42.413213000" lon="-2.541792000">
        <ele>491.40</ele>
        <time>2016-10-22T07:23:00Z</time>
      </trkpt>
      <trkpt lat="42.413213000" lon="-2.541792000">
        <ele>491.40</ele>
        <time>2016-10-22T07:23:01Z</time>
      </trkpt>
      <trkpt lat="42.413213000" lon="-2.541792000">
        <ele>491.40</ele>
        <time>2016-10-22T07:23:02Z</time>
      </trkpt>
      <trkpt lat="42.413213000" lon="-2.541792000">
        <ele>491.40</ele>
        <time>2016-10-22T07:23:03Z</time>
      </trkpt>
      <trkpt lat="42.413213000" lon="-2.541792000">
        <ele>491.30</ele>
        <time>2016-10-22T07:23:04Z</time>
      </trkpt>
      <trkpt lat="42.413213000" lon="-2.541792000">
        <ele>491.30</ele>
        <time>2016-10-22T07:23:05Z</time>
      </trkpt>
      <trkpt lat="42.413213000" lon="-2.541792000">
        <ele>491.30</ele>
        <time>2016-10-22T07:23:06Z</time>
      </trkpt>
      <trkpt lat="42.413213000" lon="-2.541792000">
        <ele>491.30</ele>
        <time>2016-10-22T07:23:07Z</time>
      </trkpt>
      <trkpt lat="42.413213000" lon="-2.541792000">
        <ele>491.30</ele>
        <time>2016-10-22T07:23:08Z</time>
      </trkpt>
      <trkpt lat="42.413213000" lon="-2.541792000">
        <ele>491.30</ele>
        <time>2016-10-22T07:23:09Z</time>
      </trkpt>
      <trkpt lat="42.413213000" lon="-2.541792000">
        <ele>491.30</ele>
        <time>2016-10-22T07:23:10Z</time>
      </trkpt>
      <trkpt lat="42.413213000" lon="-2.541792000">
        <ele>491.30</ele>
        <time>2016-10-22T07:23:11Z</time>
      </trkpt>
      <trkpt lat="42.413213000" lon="-2.541792000">
        <ele>491.30</ele>
        <time>2016-10-22T07:23:12Z</time>
      </trkpt>
      <trkpt lat="42.413213000" lon="-2.541792000">
        <ele>491.30</ele>
        <time>2016-10-22T07:23:13Z</time>
      </trkpt>
      <trkpt lat="42.413213000" lon="-2.541792000">
        <ele>491.30</ele>
        <time>2016-10-22T07:23:14Z</time>
      </trkpt>
      <trkpt lat="42.413213000" lon="-2.541792000">
        <ele>491.30</ele>
        <time>2016-10-22T07:23:15Z</time>
      </trkpt>
      <trkpt lat="42.413213000" lon="-2.541792000">
        <ele>491.30</ele>
        <time>2016-10-22T07:23:16Z</time>
      </trkpt>
      <trkpt lat="42.413213000" lon="-2.541792000">
        <ele>491.30</ele>
        <time>2016-10-22T07:23:17Z</time>
      </trkpt>
      <trkpt lat="42.413213000" lon="-2.541792000">
        <ele>491.30</ele>
        <time>2016-10-22T07:23:18Z</time>
      </trkpt>
      <trkpt lat="42.413213000" lon="-2.541792000">
        <ele>491.30</ele>
        <time>2016-10-22T07:23:19Z</time>
      </trkpt>
      <trkpt lat="42.413213000" lon="-2.541792000">
        <ele>491.50</ele>
        <time>2016-10-22T07:23:20Z</time>
      </trkpt>
      <trkpt lat="42.413213000" lon="-2.541792000">
        <ele>491.70</ele>
        <time>2016-10-22T07:23:21Z</time>
      </trkpt>
      <trkpt lat="42.413213000" lon="-2.541792000">
        <ele>491.80</ele>
        <time>2016-10-22T07:23:22Z</time>
      </trkpt>
      <trkpt lat="42.413213000" lon="-2.541792000">
        <ele>491.90</ele>
        <time>2016-10-22T07:23:23Z</time>
      </trkpt>
      <trkpt lat="42.413213000" lon="-2.541792000">
        <ele>491.80</ele>
        <time>2016-10-22T07:23:24Z</time>
      </trkpt>
      <trkpt lat="42.413213000" lon="-2.541792000">
        <ele>491.80</ele>
        <time>2016-10-22T07:23:25Z</time>
      </trkpt>
      <trkpt lat="42.413213000" lon="-2.541792000">
        <ele>491.60</ele>
        <time>2016-10-22T07:23:26Z</time>
      </trkpt>
      <trkpt lat="42.413213000" lon="-2.541792000">
        <ele>491.50</ele>
        <time>2016-10-22T07:23:27Z</time>
      </trkpt>
      <trkpt lat="42.413213000" lon="-2.541792000">
        <ele>491.60</ele>
        <time>2016-10-22T07:23:28Z</time>
      </trkpt>
      <trkpt lat="42.413213000" lon="-2.541792000">
        <ele>491.60</ele>
        <time>2016-10-22T07:23:29Z</time>
      </trkpt>
      <trkpt lat="42.413213000" lon="-2.541792000">
        <ele>491.70</ele>
        <time>2016-10-22T07:23:30Z</time>
      </trkpt>
      <trkpt lat="42.413213000" lon="-2.541792000">
        <ele>491.70</ele>
        <time>2016-10-22T07:23:31Z</time>
      </trkpt>
      <trkpt lat="42.413213000" lon="-2.541792000">
        <ele>491.80</ele>
        <time>2016-10-22T07:23:32Z</time>
      </trkpt>
      <trkpt lat="42.413214000" lon="-2.541791000">
        <ele>491.80</ele>
        <time>2016-10-22T07:23:33Z</time>
      </trkpt>
      <trkpt lat="42.413214000" lon="-2.541791000">
        <ele>491.90</ele>
        <time>2016-10-22T07:23:34Z</time>
      </trkpt>
      <trkpt lat="42.413214000" lon="-2.541791000">
        <ele>491.90</ele>
        <time>2016-10-22T07:23:35Z</time>
      </trkpt>
      <trkpt lat="42.413214000" lon="-2.541791000">
        <ele>491.90</ele>
        <time>2016-10-22T07:23:36Z</time>
      </trkpt>
      <trkpt lat="42.413214000" lon="-2.541791000">
        <ele>491.90</ele>
        <time>2016-10-22T07:23:37Z</time>
      </trkpt>
      <trkpt lat="42.413214000" lon="-2.541791000">
        <ele>491.90</ele>
        <time>2016-10-22T07:23:38Z</time>
      </trkpt>
      <trkpt lat="42.413214000" lon="-2.541791000">
        <ele>492.00</ele>
        <time>2016-10-22T07:23:39Z</time>
      </trkpt>
      <trkpt lat="42.413214000" lon="-2.541791000">
        <ele>492.00</ele>
        <time>2016-10-22T07:23:40Z</time>
      </trkpt>
      <trkpt lat="42.413214000" lon="-2.541791000">
        <ele>492.00</ele>
        <time>2016-10-22T07:23:41Z</time>
      </trkpt>
      <trkpt lat="42.413214000" lon="-2.541791000">
        <ele>492.00</ele>
        <time>2016-10-22T07:23:42Z</time>
      </trkpt>
      <trkpt lat="42.413214000" lon="-2.541791000">
        <ele>492.00</ele>
        <time>2016-10-22T07:23:43Z</time>
      </trkpt>
      <trkpt lat="42.413214000" lon="-2.541791000">
        <ele>491.90</ele>
        <time>2016-10-22T07:23:44Z</time>
      </trkpt>
      <trkpt lat="42.413214000" lon="-2.541791000">
        <ele>491.90</ele>
        <time>2016-10-22T07:23:45Z</time>
      </trkpt>
      <trkpt lat="42.413214000" lon="-2.541791000">
        <ele>492.00</ele>
        <time>2016-10-22T07:23:47Z</time>
      </trkpt>
      <trkpt lat="42.413214000" lon="-2.541791000">
        <ele>492.00</ele>
        <time>2016-10-22T07:23:48Z</time>
      </trkpt>
      <trkpt lat="42.413214000" lon="-2.541791000">
        <ele>492.00</ele>
        <time>2016-10-22T07:23:49Z</time>
      </trkpt>
      <trkpt lat="42.413214000" lon="-2.541791000">
        <ele>492.10</ele>
        <time>2016-10-22T07:23:50Z</time>
      </trkpt>
      <trkpt lat="42.413214000" lon="-2.541791000">
        <ele>492.10</ele>
        <time>2016-10-22T07:23:51Z</time>
      </trkpt>
      <trkpt lat="42.413214000" lon="-2.541791000">
        <ele>491.90</ele>
        <time>2016-10-22T07:23:52Z</time>
      </trkpt>
      <trkpt lat="42.413214000" lon="-2.541791000">
        <ele>491.80</ele>
        <time>2016-10-22T07:23:53Z</time>
      </trkpt>
      <trkpt lat="42.413214000" lon="-2.541791000">
        <ele>491.70</ele>
        <time>2016-10-22T07:23:54Z</time>
      </trkpt>
      <trkpt lat="42.413214000" lon="-2.541791000">
        <ele>491.60</ele>
        <time>2016-10-22T07:23:55Z</time>
      </trkpt>
      <trkpt lat="42.413214000" lon="-2.541791000">
        <ele>491.70</ele>
        <time>2016-10-22T07:23:56Z</time>
      </trkpt>
      <trkpt lat="42.413214000" lon="-2.541791000">
        <ele>491.80</ele>
        <time>2016-10-22T07:23:57Z</time>
      </trkpt>
      <trkpt lat="42.413214000" lon="-2.541791000">
        <ele>491.90</ele>
        <time>2016-10-22T07:23:58Z</time>
      </trkpt>
      <trkpt lat="42.413214000" lon="-2.541791000">
        <ele>492.00</ele>
        <time>2016-10-22T07:23:59Z</time>
      </trkpt>
      <trkpt lat="42.413214000" lon="-2.541791000">
        <ele>492.00</ele>
        <time>2016-10-22T07:24:00Z</time>
      </trkpt>
      <trkpt lat="42.413214000" lon="-2.541791000">
        <ele>492.10</ele>
        <time>2016-10-22T07:24:01Z</time>
      </trkpt>
      <trkpt lat="42.413214000" lon="-2.541791000">
        <ele>492.10</ele>
        <time>2016-10-22T07:24:02Z</time>
      </trkpt>
      <trkpt lat="42.413214000" lon="-2.541791000">
        <ele>492.10</ele>
        <time>2016-10-22T07:24:03Z</time>
      </trkpt>
      <trkpt lat="42.413214000" lon="-2.541791000">
        <ele>492.20</ele>
        <time>2016-10-22T07:24:04Z</time>
      </trkpt>
      <trkpt lat="42.413214000" lon="-2.541791000">
        <ele>492.20</ele>
        <time>2016-10-22T07:24:05Z</time>
      </trkpt>
      <trkpt lat="42.413214000" lon="-2.541791000">
        <ele>492.20</ele>
        <time>2016-10-22T07:24:06Z</time>
      </trkpt>
      <trkpt lat="42.413214000" lon="-2.541791000">
        <ele>492.20</ele>
        <time>2016-10-22T07:24:07Z</time>
      </trkpt>
      <trkpt lat="42.413214000" lon="-2.541791000">
        <ele>492.30</ele>
        <time>2016-10-22T07:24:08Z</time>
      </trkpt>
      <trkpt lat="42.413214000" lon="-2.541791000">
        <ele>492.30</ele>
        <time>2016-10-22T07:24:09Z</time>
      </trkpt>
      <trkpt lat="42.413214000" lon="-2.541791000">
        <ele>492.10</ele>
        <time>2016-10-22T07:24:10Z</time>
      </trkpt>
      <trkpt lat="42.413214000" lon="-2.541791000">
        <ele>492.00</ele>
        <time>2016-10-22T07:24:11Z</time>
      </trkpt>
      <trkpt lat="42.413214000" lon="-2.541791000">
        <ele>491.90</ele>
        <time>2016-10-22T07:24:12Z</time>
      </trkpt>
      <trkpt lat="42.413213000" lon="-2.541789000">
        <ele>491.80</ele>
        <time>2016-10-22T07:24:13Z</time>
      </trkpt>
      <trkpt lat="42.413213000" lon="-2.541789000">
        <ele>491.80</ele>
        <time>2016-10-22T07:24:14Z</time>
      </trkpt>
      <trkpt lat="42.413213000" lon="-2.541789000">
        <ele>491.70</ele>
        <time>2016-10-22T07:24:15Z</time>
      </trkpt>
      <trkpt lat="42.413213000" lon="-2.541789000">
        <ele>491.70</ele>
        <time>2016-10-22T07:24:16Z</time>
      </trkpt>
      <trkpt lat="42.413213000" lon="-2.541789000">
        <ele>491.70</ele>
        <time>2016-10-22T07:24:17Z</time>
      </trkpt>
      <trkpt lat="42.413213000" lon="-2.541789000">
        <ele>491.80</ele>
        <time>2016-10-22T07:24:18Z</time>
      </trkpt>
      <trkpt lat="42.413213000" lon="-2.541789000">
        <ele>491.90</ele>
        <time>2016-10-22T07:24:19Z</time>
      </trkpt>
      <trkpt lat="42.413213000" lon="-2.541789000">
        <ele>491.90</ele>
        <time>2016-10-22T07:24:20Z</time>
      </trkpt>
      <trkpt lat="42.413213000" lon="-2.541789000">
        <ele>492.00</ele>
        <time>2016-10-22T07:24:21Z</time>
      </trkpt>
      <trkpt lat="42.413213000" lon="-2.541789000">
        <ele>492.00</ele>
        <time>2016-10-22T07:24:22Z</time>
      </trkpt>
      <trkpt lat="42.413213000" lon="-2.541789000">
        <ele>492.00</ele>
        <time>2016-10-22T07:24:23Z</time>
      </trkpt>
      <trkpt lat="42.413213000" lon="-2.541789000">
        <ele>492.00</ele>
        <time>2016-10-22T07:24:24Z</time>
      </trkpt>
      <trkpt lat="42.413213000" lon="-2.541789000">
        <ele>492.00</ele>
        <time>2016-10-22T07:24:25Z</time>
      </trkpt>
      <trkpt lat="42.413213000" lon="-2.541789000">
        <ele>491.90</ele>
        <time>2016-10-22T07:24:26Z</time>
      </trkpt>
      <trkpt lat="42.413213000" lon="-2.541789000">
        <ele>491.80</ele>
        <time>2016-10-22T07:24:27Z</time>
      </trkpt>
      <trkpt lat="42.413213000" lon="-2.541789000">
        <ele>491.70</ele>
        <time>2016-10-22T07:24:28Z</time>
      </trkpt>
      <trkpt lat="42.413213000" lon="-2.541789000">
        <ele>491.50</ele>
        <time>2016-10-22T07:24:29Z</time>
      </trkpt>
      <trkpt lat="42.413213000" lon="-2.541789000">
        <ele>491.40</ele>
        <time>2016-10-22T07:24:30Z</time>
      </trkpt>
      <trkpt lat="42.413213000" lon="-2.541789000">
        <ele>491.40</ele>
        <time>2016-10-22T07:24:31Z</time>
      </trkpt>
      <trkpt lat="42.413213000" lon="-2.541789000">
        <ele>491.50</ele>
        <time>2016-10-22T07:24:32Z</time>
      </trkpt>
      <trkpt lat="42.413213000" lon="-2.541789000">
        <ele>491.70</ele>
        <time>2016-10-22T07:24:33Z</time>
      </trkpt>
      <trkpt lat="42.413213000" lon="-2.541789000">
        <ele>491.80</ele>
        <time>2016-10-22T07:24:34Z</time>
      </trkpt>
      <trkpt lat="42.413213000" lon="-2.541789000">
        <ele>491.80</ele>
        <time>2016-10-22T07:24:35Z</time>
      </trkpt>
      <trkpt lat="42.413213000" lon="-2.541789000">
        <ele>491.90</ele>
        <time>2016-10-22T07:24:36Z</time>
      </trkpt>
      <trkpt lat="42.413213000" lon="-2.541789000">
        <ele>491.90</ele>
        <time>2016-10-22T07:24:37Z</time>
      </trkpt>
      <trkpt lat="42.413213000" lon="-2.541789000">
        <ele>491.90</ele>
        <time>2016-10-22T07:24:38Z</time>
      </trkpt>
      <trkpt lat="42.413213000" lon="-2.541789000">
        <ele>491.80</ele>
        <time>2016-10-22T07:24:39Z</time>
      </trkpt>
      <trkpt lat="42.413213000" lon="-2.541789000">
        <ele>491.80</ele>
        <time>2016-10-22T07:24:40Z</time>
      </trkpt>
      <trkpt lat="42.413213000" lon="-2.541789000">
        <ele>491.80</ele>
        <time>2016-10-22T07:24:41Z</time>
      </trkpt>
      <trkpt lat="42.413213000" lon="-2.541789000">
        <ele>491.80</ele>
        <time>2016-10-22T07:24:42Z</time>
      </trkpt>
      <trkpt lat="42.413213000" lon="-2.541789000">
        <ele>491.80</ele>
        <time>2016-10-22T07:24:43Z</time>
      </trkpt>
      <trkpt lat="42.413213000" lon="-2.541789000">
        <ele>491.80</ele>
        <time>2016-10-22T07:24:44Z</time>
      </trkpt>
      <trkpt lat="42.413213000" lon="-2.541789000">
        <ele>491.80</ele>
        <time>2016-10-22T07:24:45Z</time>
      </trkpt>
      <trkpt lat="42.413213000" lon="-2.541789000">
        <ele>491.80</ele>
        <time>2016-10-22T07:24:46Z</time>
      </trkpt>
      <trkpt lat="42.413213000" lon="-2.541789000">
        <ele>491.90</ele>
        <time>2016-10-22T07:24:48Z</time>
      </trkpt>
      <trkpt lat="42.413213000" lon="-2.541789000">
        <ele>491.90</ele>
        <time>2016-10-22T07:24:49Z</time>
      </trkpt>
      <trkpt lat="42.413213000" lon="-2.541789000">
        <ele>492.00</ele>
        <time>2016-10-22T07:24:50Z</time>
      </trkpt>
      <trkpt lat="42.413213000" lon="-2.541789000">
        <ele>492.10</ele>
        <time>2016-10-22T07:24:51Z</time>
      </trkpt>
      <trkpt lat="42.413213000" lon="-2.541789000">
        <ele>492.20</ele>
        <time>2016-10-22T07:24:52Z</time>
      </trkpt>
      <trkpt lat="42.413213000" lon="-2.541789000">
        <ele>492.20</ele>
        <time>2016-10-22T07:24:53Z</time>
      </trkpt>
      <trkpt lat="42.413213000" lon="-2.541789000">
        <ele>492.30</ele>
        <time>2016-10-22T07:24:54Z</time>
      </trkpt>
      <trkpt lat="42.413213000" lon="-2.541789000">
        <ele>492.30</ele>
        <time>2016-10-22T07:24:55Z</time>
      </trkpt>
      <trkpt lat="42.413213000" lon="-2.541789000">
        <ele>492.30</ele>
        <time>2016-10-22T07:24:56Z</time>
      </trkpt>
      <trkpt lat="42.413213000" lon="-2.541789000">
        <ele>492.20</ele>
        <time>2016-10-22T07:24:57Z</time>
      </trkpt>
      <trkpt lat="42.413213000" lon="-2.541789000">
        <ele>492.00</ele>
        <time>2016-10-22T07:24:58Z</time>
      </trkpt>
      <trkpt lat="42.413213000" lon="-2.541789000">
        <ele>491.80</ele>
        <time>2016-10-22T07:24:59Z</time>
      </trkpt>
      <trkpt lat="42.413213000" lon="-2.541789000">
        <ele>491.90</ele>
        <time>2016-10-22T07:25:00Z</time>
      </trkpt>
      <trkpt lat="42.413213000" lon="-2.541789000">
        <ele>492.00</ele>
        <time>2016-10-22T07:25:01Z</time>
      </trkpt>
      <trkpt lat="42.413213000" lon="-2.541789000">
        <ele>491.90</ele>
        <time>2016-10-22T07:25:02Z</time>
      </trkpt>
      <trkpt lat="42.413213000" lon="-2.541789000">
        <ele>491.90</ele>
        <time>2016-10-22T07:25:03Z</time>
      </trkpt>
      <trkpt lat="42.413213000" lon="-2.541789000">
        <ele>491.90</ele>
        <time>2016-10-22T07:25:04Z</time>
      </trkpt>
      <trkpt lat="42.413213000" lon="-2.541789000">
        <ele>491.90</ele>
        <time>2016-10-22T07:25:05Z</time>
      </trkpt>
      <trkpt lat="42.413213000" lon="-2.541789000">
        <ele>491.80</ele>
        <time>2016-10-22T07:25:06Z</time>
      </trkpt>
      <trkpt lat="42.413213000" lon="-2.541789000">
        <ele>491.80</ele>
        <time>2016-10-22T07:25:07Z</time>
      </trkpt>
      <trkpt lat="42.413213000" lon="-2.541789000">
        <ele>491.80</ele>
        <time>2016-10-22T07:25:08Z</time>
      </trkpt>
      <trkpt lat="42.413213000" lon="-2.541789000">
        <ele>491.70</ele>
        <time>2016-10-22T07:25:09Z</time>
      </trkpt>
      <trkpt lat="42.413213000" lon="-2.541789000">
        <ele>491.70</ele>
        <time>2016-10-22T07:25:10Z</time>
      </trkpt>
      <trkpt lat="42.413213000" lon="-2.541789000">
        <ele>491.70</ele>
        <time>2016-10-22T07:25:11Z</time>
      </trkpt>
      <trkpt lat="42.413213000" lon="-2.541789000">
        <ele>491.70</ele>
        <time>2016-10-22T07:25:12Z</time>
      </trkpt>
      <trkpt lat="42.413213000" lon="-2.541789000">
        <ele>491.70</ele>
        <time>2016-10-22T07:25:13Z</time>
      </trkpt>
      <trkpt lat="42.413213000" lon="-2.541789000">
        <ele>491.80</ele>
        <time>2016-10-22T07:25:14Z</time>
      </trkpt>
      <trkpt lat="42.413213000" lon="-2.541789000">
        <ele>491.90</ele>
        <time>2016-10-22T07:25:15Z</time>
      </trkpt>
      <trkpt lat="42.413213000" lon="-2.541789000">
        <ele>492.00</ele>
        <time>2016-10-22T07:25:16Z</time>
      </trkpt>
      <trkpt lat="42.413213000" lon="-2.541789000">
        <ele>492.00</ele>
        <time>2016-10-22T07:25:17Z</time>
      </trkpt>
      <trkpt lat="42.413213000" lon="-2.541789000">
        <ele>492.10</ele>
        <time>2016-10-22T07:25:18Z</time>
      </trkpt>
      <trkpt lat="42.413213000" lon="-2.541789000">
        <ele>492.10</ele>
        <time>2016-10-22T07:25:19Z</time>
      </trkpt>
      <trkpt lat="42.413213000" lon="-2.541789000">
        <ele>492.10</ele>
        <time>2016-10-22T07:25:20Z</time>
      </trkpt>
      <trkpt lat="42.413213000" lon="-2.541789000">
        <ele>492.00</ele>
        <time>2016-10-22T07:25:21Z</time>
      </trkpt>
      <trkpt lat="42.413213000" lon="-2.541789000">
        <ele>492.00</ele>
        <time>2016-10-22T07:25:22Z</time>
      </trkpt>
      <trkpt lat="42.413213000" lon="-2.541789000">
        <ele>492.00</ele>
        <time>2016-10-22T07:25:23Z</time>
      </trkpt>
      <trkpt lat="42.413213000" lon="-2.541789000">
        <ele>492.00</ele>
        <time>2016-10-22T07:25:24Z</time>
      </trkpt>
      <trkpt lat="42.413213000" lon="-2.541789000">
        <ele>492.00</ele>
        <time>2016-10-22T07:25:25Z</time>
      </trkpt>
      <trkpt lat="42.413213000" lon="-2.541789000">
        <ele>492.00</ele>
        <time>2016-10-22T07:25:26Z</time>
      </trkpt>
      <trkpt lat="42.413213000" lon="-2.541789000">
        <ele>492.00</ele>
        <time>2016-10-22T07:25:27Z</time>
      </trkpt>
      <trkpt lat="42.413213000" lon="-2.541789000">
        <ele>491.90</ele>
        <time>2016-10-22T07:25:28Z</time>
      </trkpt>
      <trkpt lat="42.413213000" lon="-2.541789000">
        <ele>491.80</ele>
        <time>2016-10-22T07:25:29Z</time>
      </trkpt>
      <trkpt lat="42.413213000" lon="-2.541789000">
        <ele>491.80</ele>
        <time>2016-10-22T07:25:30Z</time>
      </trkpt>
      <trkpt lat="42.413213000" lon="-2.541789000">
        <ele>491.80</ele>
        <time>2016-10-22T07:25:31Z</time>
      </trkpt>
      <trkpt lat="42.413213000" lon="-2.541789000">
        <ele>491.70</ele>
        <time>2016-10-22T07:25:32Z</time>
      </trkpt>
      <trkpt lat="42.413215000" lon="-2.541788000">
        <ele>491.70</ele>
        <time>2016-10-22T07:25:33Z</time>
      </trkpt>
      <trkpt lat="42.413215000" lon="-2.541788000">
        <ele>491.80</ele>
        <time>2016-10-22T07:25:34Z</time>
      </trkpt>
      <trkpt lat="42.413215000" lon="-2.541788000">
        <ele>491.80</ele>
        <time>2016-10-22T07:25:35Z</time>
      </trkpt>
      <trkpt lat="42.413215000" lon="-2.541788000">
        <ele>491.90</ele>
        <time>2016-10-22T07:25:36Z</time>
      </trkpt>
      <trkpt lat="42.413215000" lon="-2.541788000">
        <ele>491.90</ele>
        <time>2016-10-22T07:25:37Z</time>
      </trkpt>
      <trkpt lat="42.413215000" lon="-2.541788000">
        <ele>491.90</ele>
        <time>2016-10-22T07:25:38Z</time>
      </trkpt>
      <trkpt lat="42.413215000" lon="-2.541788000">
        <ele>491.90</ele>
        <time>2016-10-22T07:25:39Z</time>
      </trkpt>
      <trkpt lat="42.413215000" lon="-2.541788000">
        <ele>491.90</ele>
        <time>2016-10-22T07:25:40Z</time>
      </trkpt>
      <trkpt lat="42.413215000" lon="-2.541788000">
        <ele>491.90</ele>
        <time>2016-10-22T07:25:41Z</time>
      </trkpt>
      <trkpt lat="42.413215000" lon="-2.541788000">
        <ele>492.00</ele>
        <time>2016-10-22T07:25:42Z</time>
      </trkpt>
      <trkpt lat="42.413215000" lon="-2.541788000">
        <ele>492.00</ele>
        <time>2016-10-22T07:25:43Z</time>
      </trkpt>
      <trkpt lat="42.413215000" lon="-2.541788000">
        <ele>492.00</ele>
        <time>2016-10-22T07:25:44Z</time>
      </trkpt>
      <trkpt lat="42.413215000" lon="-2.541788000">
        <ele>492.00</ele>
        <time>2016-10-22T07:25:45Z</time>
      </trkpt>
      <trkpt lat="42.413215000" lon="-2.541788000">
        <ele>492.00</ele>
        <time>2016-10-22T07:25:46Z</time>
      </trkpt>
      <trkpt lat="42.413215000" lon="-2.541788000">
        <ele>492.00</ele>
        <time>2016-10-22T07:25:47Z</time>
      </trkpt>
      <trkpt lat="42.413215000" lon="-2.541788000">
        <ele>491.80</ele>
        <time>2016-10-22T07:25:49Z</time>
      </trkpt>
      <trkpt lat="42.413215000" lon="-2.541788000">
        <ele>491.80</ele>
        <time>2016-10-22T07:25:50Z</time>
      </trkpt>
      <trkpt lat="42.413215000" lon="-2.541788000">
        <ele>491.70</ele>
        <time>2016-10-22T07:25:51Z</time>
      </trkpt>
      <trkpt lat="42.413215000" lon="-2.541788000">
        <ele>491.80</ele>
        <time>2016-10-22T07:25:52Z</time>
      </trkpt>
      <trkpt lat="42.413215000" lon="-2.541788000">
        <ele>491.90</ele>
        <time>2016-10-22T07:25:53Z</time>
      </trkpt>
      <trkpt lat="42.413215000" lon="-2.541788000">
        <ele>492.00</ele>
        <time>2016-10-22T07:25:54Z</time>
      </trkpt>
      <trkpt lat="42.413215000" lon="-2.541788000">
        <ele>492.00</ele>
        <time>2016-10-22T07:25:55Z</time>
      </trkpt>
      <trkpt lat="42.413215000" lon="-2.541788000">
        <ele>491.90</ele>
        <time>2016-10-22T07:25:56Z</time>
      </trkpt>
      <trkpt lat="42.413215000" lon="-2.541788000">
        <ele>491.80</ele>
        <time>2016-10-22T07:25:57Z</time>
      </trkpt>
      <trkpt lat="42.413215000" lon="-2.541788000">
        <ele>491.80</ele>
        <time>2016-10-22T07:25:58Z</time>
      </trkpt>
      <trkpt lat="42.413215000" lon="-2.541788000">
        <ele>491.70</ele>
        <time>2016-10-22T07:25:59Z</time>
      </trkpt>
      <trkpt lat="42.413202000" lon="-2.541770000">
        <ele>491.70</ele>
        <time>2016-10-22T07:26:00Z</time>
      </trkpt>
      <trkpt lat="42.413185000" lon="-2.541747000">
        <ele>491.70</ele>
        <time>2016-10-22T07:26:01Z</time>
      </trkpt>
      <trkpt lat="42.413174000" lon="-2.541722000">
        <ele>491.60</ele>
        <time>2016-10-22T07:26:02Z</time>
      </trkpt>
      <trkpt lat="42.413160000" lon="-2.541700000">
        <ele>491.60</ele>
        <time>2016-10-22T07:26:03Z</time>
      </trkpt>
      <trkpt lat="42.413146000" lon="-2.541678000">
        <ele>491.70</ele>
        <time>2016-10-22T07:26:04Z</time>
      </trkpt>
      <trkpt lat="42.413129000" lon="-2.541655000">
        <ele>491.70</ele>
        <time>2016-10-22T07:26:05Z</time>
      </trkpt>
      <trkpt lat="42.413110000" lon="-2.541635000">
        <ele>492.00</ele>
        <time>2016-10-22T07:26:06Z</time>
      </trkpt>
      <trkpt lat="42.413088000" lon="-2.541614000">
        <ele>492.10</ele>
        <time>2016-10-22T07:26:07Z</time>
      </trkpt>
      <trkpt lat="42.413068000" lon="-2.541589000">
        <ele>492.30</ele>
        <time>2016-10-22T07:26:08Z</time>
      </trkpt>
      <trkpt lat="42.413046000" lon="-2.541565000">
        <ele>492.40</ele>
        <time>2016-10-22T07:26:09Z</time>
      </trkpt>
      <trkpt lat="42.413024000" lon="-2.541537000">
        <ele>492.50</ele>
        <time>2016-10-22T07:26:10Z</time>
      </trkpt>
      <trkpt lat="42.413002000" lon="-2.541513000">
        <ele>492.50</ele>
        <time>2016-10-22T07:26:11Z</time>
      </trkpt>
      <trkpt lat="42.412980000" lon="-2.541489000">
        <ele>492.60</ele>
        <time>2016-10-22T07:26:12Z</time>
      </trkpt>
      <trkpt lat="42.412959000" lon="-2.541463000">
        <ele>492.60</ele>
        <time>2016-10-22T07:26:13Z</time>
      </trkpt>
      <trkpt lat="42.412937000" lon="-2.541436000">
        <ele>492.70</ele>
        <time>2016-10-22T07:26:14Z</time>
      </trkpt>
      <trkpt lat="42.412916000" lon="-2.541405000">
        <ele>492.70</ele>
        <time>2016-10-22T07:26:15Z</time>
      </trkpt>
      <trkpt lat="42.412894000" lon="-2.541378000">
        <ele>492.70</ele>
        <time>2016-10-22T07:26:16Z</time>
      </trkpt>
      <trkpt lat="42.412872000" lon="-2.541350000">
        <ele>492.70</ele>
        <time>2016-10-22T07:26:17Z</time>
      </trkpt>
      <trkpt lat="42.412847000" lon="-2.541326000">
        <ele>492.80</ele>
        <time>2016-10-22T07:26:18Z</time>
      </trkpt>
      <trkpt lat="42.412825000" lon="-2.541301000">
        <ele>492.80</ele>
        <time>2016-10-22T07:26:19Z</time>
      </trkpt>
      <trkpt lat="42.412803000" lon="-2.541280000">
        <ele>492.90</ele>
        <time>2016-10-22T07:26:20Z</time>
      </trkpt>
      <trkpt lat="42.412781000" lon="-2.541260000">
        <ele>493.00</ele>
        <time>2016-10-22T07:26:21Z</time>
      </trkpt>
      <trkpt lat="42.412762000" lon="-2.541235000">
        <ele>493.10</ele>
        <time>2016-10-22T07:26:22Z</time>
      </trkpt>
      <trkpt lat="42.412742000" lon="-2.541208000">
        <ele>493.10</ele>
        <time>2016-10-22T07:26:23Z</time>
      </trkpt>
      <trkpt lat="42.412722000" lon="-2.541181000">
        <ele>492.90</ele>
        <time>2016-10-22T07:26:24Z</time>
      </trkpt>
      <trkpt lat="42.412702000" lon="-2.541159000">
        <ele>492.80</ele>
        <time>2016-10-22T07:26:25Z</time>
      </trkpt>
      <trkpt lat="42.412682000" lon="-2.541140000">
        <ele>492.60</ele>
        <time>2016-10-22T07:26:26Z</time>
      </trkpt>
      <trkpt lat="42.412664000" lon="-2.541121000">
        <ele>492.60</ele>
        <time>2016-10-22T07:26:27Z</time>
      </trkpt>
      <trkpt lat="42.412647000" lon="-2.541105000">
        <ele>492.70</ele>
        <time>2016-10-22T07:26:28Z</time>
      </trkpt>
      <trkpt lat="42.412631000" lon="-2.541092000">
        <ele>492.80</ele>
        <time>2016-10-22T07:26:29Z</time>
      </trkpt>
      <trkpt lat="42.412618000" lon="-2.541076000">
        <ele>493.00</ele>
        <time>2016-10-22T07:26:30Z</time>
      </trkpt>
      <trkpt lat="42.412601000" lon="-2.541061000">
        <ele>493.20</ele>
        <time>2016-10-22T07:26:31Z</time>
      </trkpt>
      <trkpt lat="42.412578000" lon="-2.541038000">
        <ele>493.30</ele>
        <time>2016-10-22T07:26:32Z</time>
      </trkpt>
      <trkpt lat="42.412549000" lon="-2.541009000">
        <ele>493.40</ele>
        <time>2016-10-22T07:26:33Z</time>
      </trkpt>
      <trkpt lat="42.412519000" lon="-2.540975000">
        <ele>493.50</ele>
        <time>2016-10-22T07:26:34Z</time>
      </trkpt>
      <trkpt lat="42.412492000" lon="-2.540944000">
        <ele>493.50</ele>
        <time>2016-10-22T07:26:35Z</time>
      </trkpt>
      <trkpt lat="42.412469000" lon="-2.540916000">
        <ele>493.40</ele>
        <time>2016-10-22T07:26:36Z</time>
      </trkpt>
      <trkpt lat="42.412446000" lon="-2.540891000">
        <ele>493.30</ele>
        <time>2016-10-22T07:26:37Z</time>
      </trkpt>
      <trkpt lat="42.412429000" lon="-2.540869000">
        <ele>493.20</ele>
        <time>2016-10-22T07:26:38Z</time>
      </trkpt>
      <trkpt lat="42.412409000" lon="-2.540847000">
        <ele>493.10</ele>
        <time>2016-10-22T07:26:39Z</time>
      </trkpt>
      <trkpt lat="42.412391000" lon="-2.540826000">
        <ele>493.10</ele>
        <time>2016-10-22T07:26:40Z</time>
      </trkpt>
      <trkpt lat="42.412374000" lon="-2.540803000">
        <ele>493.10</ele>
        <time>2016-10-22T07:26:41Z</time>
      </trkpt>
      <trkpt lat="42.412356000" lon="-2.540783000">
        <ele>493.10</ele>
        <time>2016-10-22T07:26:42Z</time>
      </trkpt>
      <trkpt lat="42.412337000" lon="-2.540763000">
        <ele>493.10</ele>
        <time>2016-10-22T07:26:43Z</time>
      </trkpt>
      <trkpt lat="42.412320000" lon="-2.540740000">
        <ele>493.20</ele>
        <time>2016-10-22T07:26:44Z</time>
      </trkpt>
      <trkpt lat="42.412302000" lon="-2.540719000">
        <ele>493.30</ele>
        <time>2016-10-22T07:26:45Z</time>
      </trkpt>
      <trkpt lat="42.412285000" lon="-2.540697000">
        <ele>493.30</ele>
        <time>2016-10-22T07:26:46Z</time>
      </trkpt>
      <trkpt lat="42.412265000" lon="-2.540675000">
        <ele>493.30</ele>
        <time>2016-10-22T07:26:47Z</time>
      </trkpt>
      <trkpt lat="42.412245000" lon="-2.540650000">
        <ele>493.30</ele>
        <time>2016-10-22T07:26:48Z</time>
      </trkpt>
      <trkpt lat="42.412204000" lon="-2.540601000">
        <ele>493.20</ele>
        <time>2016-10-22T07:26:50Z</time>
      </trkpt>
      <trkpt lat="42.412183000" lon="-2.540576000">
        <ele>493.20</ele>
        <time>2016-10-22T07:26:51Z</time>
      </trkpt>
      <trkpt lat="42.412164000" lon="-2.540554000">
        <ele>493.10</ele>
        <time>2016-10-22T07:26:52Z</time>
      </trkpt>
      <trkpt lat="42.412145000" lon="-2.540532000">
        <ele>493.10</ele>
        <time>2016-10-22T07:26:53Z</time>
      </trkpt>
      <trkpt lat="42.412127000" lon="-2.540509000">
        <ele>493.10</ele>
        <time>2016-10-22T07:26:54Z</time>
      </trkpt>
      <trkpt lat="42.412108000" lon="-2.540486000">
        <ele>493.10</ele>
        <time>2016-10-22T07:26:55Z</time>
      </trkpt>
      <trkpt lat="42.412087000" lon="-2.540466000">
        <ele>493.10</ele>
        <time>2016-10-22T07:26:56Z</time>
      </trkpt>
      <trkpt lat="42.412065000" lon="-2.540445000">
        <ele>493.10</ele>
        <time>2016-10-22T07:26:57Z</time>
      </trkpt>
      <trkpt lat="42.412048000" lon="-2.540424000">
        <ele>493.10</ele>
        <time>2016-10-22T07:26:58Z</time>
      </trkpt>
      <trkpt lat="42.412026000" lon="-2.540402000">
        <ele>493.10</ele>
        <time>2016-10-22T07:26:59Z</time>
      </trkpt>
      <trkpt lat="42.412005000" lon="-2.540374000">
        <ele>493.10</ele>
        <time>2016-10-22T07:27:00Z</time>
      </trkpt>
      <trkpt lat="42.411984000" lon="-2.540350000">
        <ele>493.10</ele>
        <time>2016-10-22T07:27:01Z</time>
      </trkpt>
      <trkpt lat="42.411965000" lon="-2.540327000">
        <ele>493.30</ele>
        <time>2016-10-22T07:27:02Z</time>
      </trkpt>
      <trkpt lat="42.411945000" lon="-2.540303000">
        <ele>493.40</ele>
        <time>2016-10-22T07:27:03Z</time>
      </trkpt>
      <trkpt lat="42.411925000" lon="-2.540283000">
        <ele>493.50</ele>
        <time>2016-10-22T07:27:04Z</time>
      </trkpt>
      <trkpt lat="42.411906000" lon="-2.540261000">
        <ele>493.60</ele>
        <time>2016-10-22T07:27:05Z</time>
      </trkpt>
      <trkpt lat="42.411885000" lon="-2.540240000">
        <ele>493.60</ele>
        <time>2016-10-22T07:27:06Z</time>
      </trkpt>
      <trkpt lat="42.411863000" lon="-2.540220000">
        <ele>493.50</ele>
        <time>2016-10-22T07:27:07Z</time>
      </trkpt>
      <trkpt lat="42.411843000" lon="-2.540197000">
        <ele>493.40</ele>
        <time>2016-10-22T07:27:08Z</time>
      </trkpt>
      <trkpt lat="42.411821000" lon="-2.540173000">
        <ele>493.30</ele>
        <time>2016-10-22T07:27:09Z</time>
      </trkpt>
      <trkpt lat="42.411801000" lon="-2.540153000">
        <ele>493.40</ele>
        <time>2016-10-22T07:27:10Z</time>
      </trkpt>
      <trkpt lat="42.411781000" lon="-2.540132000">
        <ele>493.40</ele>
        <time>2016-10-22T07:27:11Z</time>
      </trkpt>
      <trkpt lat="42.411759000" lon="-2.540112000">
        <ele>493.30</ele>
        <time>2016-10-22T07:27:12Z</time>
      </trkpt>
      <trkpt lat="42.411739000" lon="-2.540089000">
        <ele>493.20</ele>
        <time>2016-10-22T07:27:13Z</time>
      </trkpt>
      <trkpt lat="42.411719000" lon="-2.540065000">
        <ele>493.30</ele>
        <time>2016-10-22T07:27:14Z</time>
      </trkpt>
      <trkpt lat="42.411698000" lon="-2.540043000">
        <ele>493.40</ele>
        <time>2016-10-22T07:27:15Z</time>
      </trkpt>
      <trkpt lat="42.411674000" lon="-2.540024000">
        <ele>493.40</ele>
        <time>2016-10-22T07:27:16Z</time>
      </trkpt>
      <trkpt lat="42.411650000" lon="-2.540001000">
        <ele>493.40</ele>
        <time>2016-10-22T07:27:17Z</time>
      </trkpt>
      <trkpt lat="42.411625000" lon="-2.539979000">
        <ele>493.40</ele>
        <time>2016-10-22T07:27:18Z</time>
      </trkpt>
      <trkpt lat="42.411603000" lon="-2.539954000">
        <ele>493.40</ele>
        <time>2016-10-22T07:27:19Z</time>
      </trkpt>
      <trkpt lat="42.411581000" lon="-2.539930000">
        <ele>493.40</ele>
        <time>2016-10-22T07:27:20Z</time>
      </trkpt>
      <trkpt lat="42.411559000" lon="-2.539905000">
        <ele>493.40</ele>
        <time>2016-10-22T07:27:21Z</time>
      </trkpt>
      <trkpt lat="42.411539000" lon="-2.539878000">
        <ele>493.40</ele>
        <time>2016-10-22T07:27:22Z</time>
      </trkpt>
      <trkpt lat="42.411517000" lon="-2.539853000">
        <ele>493.30</ele>
        <time>2016-10-22T07:27:23Z</time>
      </trkpt>
      <trkpt lat="42.411494000" lon="-2.539829000">
        <ele>493.30</ele>
        <time>2016-10-22T07:27:24Z</time>
      </trkpt>
      <trkpt lat="42.411470000" lon="-2.539803000">
        <ele>493.40</ele>
        <time>2016-10-22T07:27:25Z</time>
      </trkpt>
      <trkpt lat="42.411448000" lon="-2.539777000">
        <ele>493.40</ele>
        <time>2016-10-22T07:27:26Z</time>
      </trkpt>
      <trkpt lat="42.411428000" lon="-2.539750000">
        <ele>493.40</ele>
        <time>2016-10-22T07:27:27Z</time>
      </trkpt>
      <trkpt lat="42.411406000" lon="-2.539725000">
        <ele>493.40</ele>
        <time>2016-10-22T07:27:28Z</time>
      </trkpt>
      <trkpt lat="42.411384000" lon="-2.539701000">
        <ele>493.50</ele>
        <time>2016-10-22T07:27:29Z</time>
      </trkpt>
      <trkpt lat="42.411365000" lon="-2.539676000">
        <ele>493.50</ele>
        <time>2016-10-22T07:27:30Z</time>
      </trkpt>
      <trkpt lat="42.411346000" lon="-2.539651000">
        <ele>493.50</ele>
        <time>2016-10-22T07:27:31Z</time>
      </trkpt>
      <trkpt lat="42.411327000" lon="-2.539623000">
        <ele>493.60</ele>
        <time>2016-10-22T07:27:32Z</time>
      </trkpt>
      <trkpt lat="42.411309000" lon="-2.539596000">
        <ele>493.60</ele>
        <time>2016-10-22T07:27:33Z</time>
      </trkpt>
      <trkpt lat="42.411287000" lon="-2.539574000">
        <ele>493.60</ele>
        <time>2016-10-22T07:27:34Z</time>
      </trkpt>
      <trkpt lat="42.411268000" lon="-2.539548000">
        <ele>493.60</ele>
        <time>2016-10-22T07:27:35Z</time>
      </trkpt>
      <trkpt lat="42.411246000" lon="-2.539522000">
        <ele>493.50</ele>
        <time>2016-10-22T07:27:36Z</time>
      </trkpt>
      <trkpt lat="42.411225000" lon="-2.539497000">
        <ele>493.50</ele>
        <time>2016-10-22T07:27:37Z</time>
      </trkpt>
      <trkpt lat="42.411201000" lon="-2.539473000">
        <ele>493.60</ele>
        <time>2016-10-22T07:27:38Z</time>
      </trkpt>
      <trkpt lat="42.411181000" lon="-2.539447000">
        <ele>493.80</ele>
        <time>2016-10-22T07:27:39Z</time>
      </trkpt>
      <trkpt lat="42.411159000" lon="-2.539425000">
        <ele>493.90</ele>
        <time>2016-10-22T07:27:40Z</time>
      </trkpt>
      <trkpt lat="42.411137000" lon="-2.539405000">
        <ele>493.90</ele>
        <time>2016-10-22T07:27:41Z</time>
      </trkpt>
      <trkpt lat="42.411116000" lon="-2.539384000">
        <ele>494.00</ele>
        <time>2016-10-22T07:27:42Z</time>
      </trkpt>
      <trkpt lat="42.411094000" lon="-2.539360000">
        <ele>494.00</ele>
        <time>2016-10-22T07:27:43Z</time>
      </trkpt>
      <trkpt lat="42.411070000" lon="-2.539337000">
        <ele>494.00</ele>
        <time>2016-10-22T07:27:44Z</time>
      </trkpt>
      <trkpt lat="42.411045000" lon="-2.539316000">
        <ele>494.00</ele>
        <time>2016-10-22T07:27:45Z</time>
      </trkpt>
      <trkpt lat="42.411019000" lon="-2.539295000">
        <ele>494.00</ele>
        <time>2016-10-22T07:27:46Z</time>
      </trkpt>
      <trkpt lat="42.410994000" lon="-2.539276000">
        <ele>494.00</ele>
        <time>2016-10-22T07:27:47Z</time>
      </trkpt>
      <trkpt lat="42.410969000" lon="-2.539257000">
        <ele>494.20</ele>
        <time>2016-10-22T07:27:48Z</time>
      </trkpt>
      <trkpt lat="42.410944000" lon="-2.539235000">
        <ele>494.30</ele>
        <time>2016-10-22T07:27:49Z</time>
      </trkpt>
      <trkpt lat="42.410893000" lon="-2.539187000">
        <ele>494.40</ele>
        <time>2016-10-22T07:27:51Z</time>
      </trkpt>
      <trkpt lat="42.410867000" lon="-2.539165000">
        <ele>494.40</ele>
        <time>2016-10-22T07:27:52Z</time>
      </trkpt>
      <trkpt lat="42.410843000" lon="-2.539143000">
        <ele>494.50</ele>
        <time>2016-10-22T07:27:53Z</time>
      </trkpt>
      <trkpt lat="42.410817000" lon="-2.539119000">
        <ele>494.60</ele>
        <time>2016-10-22T07:27:54Z</time>
      </trkpt>
      <trkpt lat="42.410790000" lon="-2.539096000">
        <ele>494.70</ele>
        <time>2016-10-22T07:27:55Z</time>
      </trkpt>
      <trkpt lat="42.410762000" lon="-2.539075000">
        <ele>494.80</ele>
        <time>2016-10-22T07:27:56Z</time>
      </trkpt>
      <trkpt lat="42.410736000" lon="-2.539052000">
        <ele>494.80</ele>
        <time>2016-10-22T07:27:57Z</time>
      </trkpt>
      <trkpt lat="42.410711000" lon="-2.539027000">
        <ele>494.90</ele>
        <time>2016-10-22T07:27:58Z</time>
      </trkpt>
      <trkpt lat="42.410684000" lon="-2.539006000">
        <ele>494.90</ele>
        <time>2016-10-22T07:27:59Z</time>
      </trkpt>
      <trkpt lat="42.410659000" lon="-2.538981000">
        <ele>494.90</ele>
        <time>2016-10-22T07:28:00Z</time>
      </trkpt>
      <trkpt lat="42.410633000" lon="-2.538958000">
        <ele>494.80</ele>
        <time>2016-10-22T07:28:01Z</time>
      </trkpt>
      <trkpt lat="42.410604000" lon="-2.538937000">
        <ele>494.90</ele>
        <time>2016-10-22T07:28:02Z</time>
      </trkpt>
      <trkpt lat="42.410578000" lon="-2.538912000">
        <ele>494.90</ele>
        <time>2016-10-22T07:28:03Z</time>
      </trkpt>
      <trkpt lat="42.410553000" lon="-2.538885000">
        <ele>494.90</ele>
        <time>2016-10-22T07:28:04Z</time>
      </trkpt>
      <trkpt lat="42.410528000" lon="-2.538858000">
        <ele>495.00</ele>
        <time>2016-10-22T07:28:05Z</time>
      </trkpt>
      <trkpt lat="42.410503000" lon="-2.538832000">
        <ele>495.00</ele>
        <time>2016-10-22T07:28:06Z</time>
      </trkpt>
      <trkpt lat="42.410479000" lon="-2.538807000">
        <ele>495.10</ele>
        <time>2016-10-22T07:28:07Z</time>
      </trkpt>
      <trkpt lat="42.410455000" lon="-2.538784000">
        <ele>495.10</ele>
        <time>2016-10-22T07:28:08Z</time>
      </trkpt>
      <trkpt lat="42.410433000" lon="-2.538764000">
        <ele>495.20</ele>
        <time>2016-10-22T07:28:09Z</time>
      </trkpt>
      <trkpt lat="42.410410000" lon="-2.538741000">
        <ele>495.20</ele>
        <time>2016-10-22T07:28:10Z</time>
      </trkpt>
      <trkpt lat="42.410383000" lon="-2.538716000">
        <ele>495.20</ele>
        <time>2016-10-22T07:28:11Z</time>
      </trkpt>
      <trkpt lat="42.410357000" lon="-2.538695000">
        <ele>495.20</ele>
        <time>2016-10-22T07:28:12Z</time>
      </trkpt>
      <trkpt lat="42.410330000" lon="-2.538671000">
        <ele>495.20</ele>
        <time>2016-10-22T07:28:13Z</time>
      </trkpt>
      <trkpt lat="42.410302000" lon="-2.538647000">
        <ele>495.20</ele>
        <time>2016-10-22T07:28:14Z</time>
      </trkpt>
      <trkpt lat="42.410273000" lon="-2.538622000">
        <ele>495.30</ele>
        <time>2016-10-22T07:28:15Z</time>
      </trkpt>
      <trkpt lat="42.410246000" lon="-2.538597000">
        <ele>495.30</ele>
        <time>2016-10-22T07:28:16Z</time>
      </trkpt>
      <trkpt lat="42.410219000" lon="-2.538571000">
        <ele>495.30</ele>
        <time>2016-10-22T07:28:17Z</time>
      </trkpt>
      <trkpt lat="42.410195000" lon="-2.538550000">
        <ele>495.30</ele>
        <time>2016-10-22T07:28:18Z</time>
      </trkpt>
      <trkpt lat="42.410170000" lon="-2.538525000">
        <ele>495.30</ele>
        <time>2016-10-22T07:28:19Z</time>
      </trkpt>
      <trkpt lat="42.410148000" lon="-2.538503000">
        <ele>495.30</ele>
        <time>2016-10-22T07:28:20Z</time>
      </trkpt>
      <trkpt lat="42.410127000" lon="-2.538485000">
        <ele>495.30</ele>
        <time>2016-10-22T07:28:21Z</time>
      </trkpt>
      <trkpt lat="42.410105000" lon="-2.538469000">
        <ele>495.20</ele>
        <time>2016-10-22T07:28:22Z</time>
      </trkpt>
      <trkpt lat="42.410085000" lon="-2.538455000">
        <ele>495.20</ele>
        <time>2016-10-22T07:28:23Z</time>
      </trkpt>
      <trkpt lat="42.410062000" lon="-2.538441000">
        <ele>495.10</ele>
        <time>2016-10-22T07:28:24Z</time>
      </trkpt>
      <trkpt lat="42.410040000" lon="-2.538430000">
        <ele>495.10</ele>
        <time>2016-10-22T07:28:25Z</time>
      </trkpt>
      <trkpt lat="42.410018000" lon="-2.538424000">
        <ele>495.20</ele>
        <time>2016-10-22T07:28:26Z</time>
      </trkpt>
      <trkpt lat="42.409997000" lon="-2.538416000">
        <ele>495.40</ele>
        <time>2016-10-22T07:28:27Z</time>
      </trkpt>
      <trkpt lat="42.409976000" lon="-2.538410000">
        <ele>495.50</ele>
        <time>2016-10-22T07:28:28Z</time>
      </trkpt>
      <trkpt lat="42.409955000" lon="-2.538409000">
        <ele>495.60</ele>
        <time>2016-10-22T07:28:29Z</time>
      </trkpt>
      <trkpt lat="42.409936000" lon="-2.538403000">
        <ele>495.70</ele>
        <time>2016-10-22T07:28:30Z</time>
      </trkpt>
      <trkpt lat="42.409918000" lon="-2.538398000">
        <ele>495.80</ele>
        <time>2016-10-22T07:28:31Z</time>
      </trkpt>
      <trkpt lat="42.409899000" lon="-2.538390000">
        <ele>495.80</ele>
        <time>2016-10-22T07:28:32Z</time>
      </trkpt>
      <trkpt lat="42.409880000" lon="-2.538384000">
        <ele>495.90</ele>
        <time>2016-10-22T07:28:33Z</time>
      </trkpt>
      <trkpt lat="42.409860000" lon="-2.538376000">
        <ele>495.90</ele>
        <time>2016-10-22T07:28:34Z</time>
      </trkpt>
      <trkpt lat="42.409843000" lon="-2.538367000">
        <ele>495.90</ele>
        <time>2016-10-22T07:28:35Z</time>
      </trkpt>
      <trkpt lat="42.409823000" lon="-2.538357000">
        <ele>495.90</ele>
        <time>2016-10-22T07:28:36Z</time>
      </trkpt>
      <trkpt lat="42.409807000" lon="-2.538345000">
        <ele>495.90</ele>
        <time>2016-10-22T07:28:37Z</time>
      </trkpt>
      <trkpt lat="42.409793000" lon="-2.538331000">
        <ele>496.10</ele>
        <time>2016-10-22T07:28:38Z</time>
      </trkpt>
      <trkpt lat="42.409780000" lon="-2.538319000">
        <ele>496.10</ele>
        <time>2016-10-22T07:28:39Z</time>
      </trkpt>
      <trkpt lat="42.409768000" lon="-2.538307000">
        <ele>496.20</ele>
        <time>2016-10-22T07:28:40Z</time>
      </trkpt>
      <trkpt lat="42.409757000" lon="-2.538289000">
        <ele>496.30</ele>
        <time>2016-10-22T07:28:41Z</time>
      </trkpt>
      <trkpt lat="42.409744000" lon="-2.538272000">
        <ele>496.40</ele>
        <time>2016-10-22T07:28:42Z</time>
      </trkpt>
      <trkpt lat="42.409732000" lon="-2.538255000">
        <ele>496.40</ele>
        <time>2016-10-22T07:28:43Z</time>
      </trkpt>
      <trkpt lat="42.409718000" lon="-2.538240000">
        <ele>496.50</ele>
        <time>2016-10-22T07:28:44Z</time>
      </trkpt>
      <trkpt lat="42.409706000" lon="-2.538221000">
        <ele>496.50</ele>
        <time>2016-10-22T07:28:45Z</time>
      </trkpt>
      <trkpt lat="42.409692000" lon="-2.538206000">
        <ele>496.60</ele>
        <time>2016-10-22T07:28:46Z</time>
      </trkpt>
      <trkpt lat="42.409682000" lon="-2.538189000">
        <ele>496.60</ele>
        <time>2016-10-22T07:28:47Z</time>
      </trkpt>
      <trkpt lat="42.409669000" lon="-2.538170000">
        <ele>496.60</ele>
        <time>2016-10-22T07:28:48Z</time>
      </trkpt>
      <trkpt lat="42.409658000" lon="-2.538153000">
        <ele>496.60</ele>
        <time>2016-10-22T07:28:49Z</time>
      </trkpt>
      <trkpt lat="42.409646000" lon="-2.538140000">
        <ele>496.60</ele>
        <time>2016-10-22T07:28:50Z</time>
      </trkpt>
      <trkpt lat="42.409635000" lon="-2.538107000">
        <ele>496.50</ele>
        <time>2016-10-22T07:28:52Z</time>
      </trkpt>
      <trkpt lat="42.409629000" lon="-2.538095000">
        <ele>496.40</ele>
        <time>2016-10-22T07:28:53Z</time>
      </trkpt>
      <trkpt lat="42.409621000" lon="-2.538086000">
        <ele>496.40</ele>
        <time>2016-10-22T07:28:54Z</time>
      </trkpt>
      <trkpt lat="42.409612000" lon="-2.538076000">
        <ele>496.40</ele>
        <time>2016-10-22T07:28:55Z</time>
      </trkpt>
      <trkpt lat="42.409604000" lon="-2.538068000">
        <ele>496.30</ele>
        <time>2016-10-22T07:28:56Z</time>
      </trkpt>
      <trkpt lat="42.409598000" lon="-2.538057000">
        <ele>496.20</ele>
        <time>2016-10-22T07:28:57Z</time>
      </trkpt>
      <trkpt lat="42.409587000" lon="-2.538046000">
        <ele>496.40</ele>
        <time>2016-10-22T07:28:58Z</time>
      </trkpt>
      <trkpt lat="42.409580000" lon="-2.538032000">
        <ele>496.50</ele>
        <time>2016-10-22T07:28:59Z</time>
      </trkpt>
      <trkpt lat="42.409574000" lon="-2.538019000">
        <ele>496.70</ele>
        <time>2016-10-22T07:29:00Z</time>
      </trkpt>
      <trkpt lat="42.409566000" lon="-2.538007000">
        <ele>496.80</ele>
        <time>2016-10-22T07:29:01Z</time>
      </trkpt>
      <trkpt lat="42.409558000" lon="-2.537996000">
        <ele>496.90</ele>
        <time>2016-10-22T07:29:02Z</time>
      </trkpt>
      <trkpt lat="42.409552000" lon="-2.537983000">
        <ele>496.90</ele>
        <time>2016-10-22T07:29:03Z</time>
      </trkpt>
      <trkpt lat="42.409544000" lon="-2.537971000">
        <ele>496.90</ele>
        <time>2016-10-22T07:29:04Z</time>
      </trkpt>
      <trkpt lat="42.409536000" lon="-2.537960000">
        <ele>496.90</ele>
        <time>2016-10-22T07:29:05Z</time>
      </trkpt>
      <trkpt lat="42.409532000" lon="-2.537947000">
        <ele>496.90</ele>
        <time>2016-10-22T07:29:06Z</time>
      </trkpt>
      <trkpt lat="42.409527000" lon="-2.537931000">
        <ele>496.90</ele>
        <time>2016-10-22T07:29:07Z</time>
      </trkpt>
      <trkpt lat="42.409525000" lon="-2.537915000">
        <ele>496.90</ele>
        <time>2016-10-22T07:29:08Z</time>
      </trkpt>
      <trkpt lat="42.409522000" lon="-2.537896000">
        <ele>497.00</ele>
        <time>2016-10-22T07:29:09Z</time>
      </trkpt>
      <trkpt lat="42.409521000" lon="-2.537879000">
        <ele>497.00</ele>
        <time>2016-10-22T07:29:10Z</time>
      </trkpt>
      <trkpt lat="42.409520000" lon="-2.537864000">
        <ele>497.00</ele>
        <time>2016-10-22T07:29:11Z</time>
      </trkpt>
      <trkpt lat="42.409517000" lon="-2.537852000">
        <ele>496.90</ele>
        <time>2016-10-22T07:29:12Z</time>
      </trkpt>
      <trkpt lat="42.409516000" lon="-2.537836000">
        <ele>496.80</ele>
        <time>2016-10-22T07:29:13Z</time>
      </trkpt>
      <trkpt lat="42.409517000" lon="-2.537822000">
        <ele>496.80</ele>
        <time>2016-10-22T07:29:14Z</time>
      </trkpt>
      <trkpt lat="42.409517000" lon="-2.537812000">
        <ele>496.70</ele>
        <time>2016-10-22T07:29:15Z</time>
      </trkpt>
      <trkpt lat="42.409518000" lon="-2.537800000">
        <ele>496.60</ele>
        <time>2016-10-22T07:29:16Z</time>
      </trkpt>
      <trkpt lat="42.409520000" lon="-2.537787000">
        <ele>496.60</ele>
        <time>2016-10-22T07:29:17Z</time>
      </trkpt>
      <trkpt lat="42.409522000" lon="-2.537779000">
        <ele>496.70</ele>
        <time>2016-10-22T07:29:18Z</time>
      </trkpt>
      <trkpt lat="42.409523000" lon="-2.537768000">
        <ele>496.80</ele>
        <time>2016-10-22T07:29:19Z</time>
      </trkpt>
      <trkpt lat="42.409525000" lon="-2.537759000">
        <ele>496.80</ele>
        <time>2016-10-22T07:29:20Z</time>
      </trkpt>
      <trkpt lat="42.409525000" lon="-2.537751000">
        <ele>496.90</ele>
        <time>2016-10-22T07:29:21Z</time>
      </trkpt>
      <trkpt lat="42.409526000" lon="-2.537738000">
        <ele>496.90</ele>
        <time>2016-10-22T07:29:22Z</time>
      </trkpt>
      <trkpt lat="42.409528000" lon="-2.537726000">
        <ele>496.80</ele>
        <time>2016-10-22T07:29:23Z</time>
      </trkpt>
      <trkpt lat="42.409531000" lon="-2.537714000">
        <ele>496.80</ele>
        <time>2016-10-22T07:29:24Z</time>
      </trkpt>
      <trkpt lat="42.409534000" lon="-2.537708000">
        <ele>496.80</ele>
        <time>2016-10-22T07:29:25Z</time>
      </trkpt>
      <trkpt lat="42.409535000" lon="-2.537705000">
        <ele>496.80</ele>
        <time>2016-10-22T07:29:26Z</time>
      </trkpt>
      <trkpt lat="42.409535000" lon="-2.537705000">
        <ele>496.80</ele>
        <time>2016-10-22T07:29:27Z</time>
      </trkpt>
      <trkpt lat="42.409535000" lon="-2.537693000">
        <ele>496.80</ele>
        <time>2016-10-22T07:29:28Z</time>
      </trkpt>
      <trkpt lat="42.409535000" lon="-2.537685000">
        <ele>496.80</ele>
        <time>2016-10-22T07:29:29Z</time>
      </trkpt>
      <trkpt lat="42.409536000" lon="-2.537683000">
        <ele>496.60</ele>
        <time>2016-10-22T07:29:30Z</time>
      </trkpt>
      <trkpt lat="42.409536000" lon="-2.537683000">
        <ele>496.50</ele>
        <time>2016-10-22T07:29:31Z</time>
      </trkpt>
      <trkpt lat="42.409536000" lon="-2.537683000">
        <ele>496.50</ele>
        <time>2016-10-22T07:29:32Z</time>
      </trkpt>
      <trkpt lat="42.409536000" lon="-2.537683000">
        <ele>496.40</ele>
        <time>2016-10-22T07:29:33Z</time>
      </trkpt>
      <trkpt lat="42.409536000" lon="-2.537683000">
        <ele>496.50</ele>
        <time>2016-10-22T07:29:34Z</time>
      </trkpt>
      <trkpt lat="42.409536000" lon="-2.537683000">
        <ele>496.60</ele>
        <time>2016-10-22T07:29:35Z</time>
      </trkpt>
      <trkpt lat="42.409536000" lon="-2.537683000">
        <ele>496.70</ele>
        <time>2016-10-22T07:29:36Z</time>
      </trkpt>
      <trkpt lat="42.409536000" lon="-2.537683000">
        <ele>496.80</ele>
        <time>2016-10-22T07:29:37Z</time>
      </trkpt>
      <trkpt lat="42.409536000" lon="-2.537683000">
        <ele>496.70</ele>
        <time>2016-10-22T07:29:38Z</time>
      </trkpt>
      <trkpt lat="42.409536000" lon="-2.537683000">
        <ele>496.70</ele>
        <time>2016-10-22T07:29:39Z</time>
      </trkpt>
      <trkpt lat="42.409536000" lon="-2.537683000">
        <ele>496.70</ele>
        <time>2016-10-22T07:29:40Z</time>
      </trkpt>
      <trkpt lat="42.409536000" lon="-2.537683000">
        <ele>496.70</ele>
        <time>2016-10-22T07:29:41Z</time>
      </trkpt>
      <trkpt lat="42.409536000" lon="-2.537683000">
        <ele>496.70</ele>
        <time>2016-10-22T07:29:42Z</time>
      </trkpt>
      <trkpt lat="42.409536000" lon="-2.537683000">
        <ele>496.70</ele>
        <time>2016-10-22T07:29:43Z</time>
      </trkpt>
      <trkpt lat="42.409536000" lon="-2.537683000">
        <ele>496.70</ele>
        <time>2016-10-22T07:29:44Z</time>
      </trkpt>
      <trkpt lat="42.409536000" lon="-2.537683000">
        <ele>496.70</ele>
        <time>2016-10-22T07:29:45Z</time>
      </trkpt>
      <trkpt lat="42.409536000" lon="-2.537683000">
        <ele>496.70</ele>
        <time>2016-10-22T07:29:46Z</time>
      </trkpt>
      <trkpt lat="42.409536000" lon="-2.537683000">
        <ele>496.70</ele>
        <time>2016-10-22T07:29:47Z</time>
      </trkpt>
      <trkpt lat="42.409536000" lon="-2.537683000">
        <ele>496.70</ele>
        <time>2016-10-22T07:29:48Z</time>
      </trkpt>
      <trkpt lat="42.409536000" lon="-2.537683000">
        <ele>496.60</ele>
        <time>2016-10-22T07:29:49Z</time>
      </trkpt>
      <trkpt lat="42.409536000" lon="-2.537683000">
        <ele>496.70</ele>
        <time>2016-10-22T07:29:50Z</time>
      </trkpt>
      <trkpt lat="42.409536000" lon="-2.537683000">
        <ele>496.70</ele>
        <time>2016-10-22T07:29:51Z</time>
      </trkpt>
      <trkpt lat="42.409536000" lon="-2.537683000">
        <ele>496.90</ele>
        <time>2016-10-22T07:29:53Z</time>
      </trkpt>
      <trkpt lat="42.409536000" lon="-2.537683000">
        <ele>497.00</ele>
        <time>2016-10-22T07:29:54Z</time>
      </trkpt>
      <trkpt lat="42.409536000" lon="-2.537683000">
        <ele>497.10</ele>
        <time>2016-10-22T07:29:55Z</time>
      </trkpt>
      <trkpt lat="42.409536000" lon="-2.537683000">
        <ele>497.10</ele>
        <time>2016-10-22T07:29:56Z</time>
      </trkpt>
      <trkpt lat="42.409536000" lon="-2.537683000">
        <ele>497.10</ele>
        <time>2016-10-22T07:29:57Z</time>
      </trkpt>
      <trkpt lat="42.409536000" lon="-2.537683000">
        <ele>497.00</ele>
        <time>2016-10-22T07:29:58Z</time>
      </trkpt>
      <trkpt lat="42.409536000" lon="-2.537683000">
        <ele>497.00</ele>
        <time>2016-10-22T07:29:59Z</time>
      </trkpt>
      <trkpt lat="42.409536000" lon="-2.537683000">
        <ele>496.90</ele>
        <time>2016-10-22T07:30:00Z</time>
      </trkpt>
      <trkpt lat="42.409536000" lon="-2.537683000">
        <ele>496.80</ele>
        <time>2016-10-22T07:30:01Z</time>
      </trkpt>
      <trkpt lat="42.409536000" lon="-2.537683000">
        <ele>496.80</ele>
        <time>2016-10-22T07:30:02Z</time>
      </trkpt>
      <trkpt lat="42.409536000" lon="-2.537683000">
        <ele>496.70</ele>
        <time>2016-10-22T07:30:03Z</time>
      </trkpt>
      <trkpt lat="42.409536000" lon="-2.537683000">
        <ele>496.70</ele>
        <time>2016-10-22T07:30:04Z</time>
      </trkpt>
      <trkpt lat="42.409536000" lon="-2.537683000">
        <ele>496.70</ele>
        <time>2016-10-22T07:30:05Z</time>
      </trkpt>
      <trkpt lat="42.409536000" lon="-2.537683000">
        <ele>496.60</ele>
        <time>2016-10-22T07:30:06Z</time>
      </trkpt>
      <trkpt lat="42.409536000" lon="-2.537683000">
        <ele>496.60</ele>
        <time>2016-10-22T07:30:07Z</time>
      </trkpt>
      <trkpt lat="42.409536000" lon="-2.537683000">
        <ele>496.70</ele>
        <time>2016-10-22T07:30:08Z</time>
      </trkpt>
      <trkpt lat="42.409536000" lon="-2.537683000">
        <ele>496.80</ele>
        <time>2016-10-22T07:30:09Z</time>
      </trkpt>
      <trkpt lat="42.409534000" lon="-2.537681000">
        <ele>497.00</ele>
        <time>2016-10-22T07:30:10Z</time>
      </trkpt>
      <trkpt lat="42.409534000" lon="-2.537681000">
        <ele>497.10</ele>
        <time>2016-10-22T07:30:11Z</time>
      </trkpt>
      <trkpt lat="42.409534000" lon="-2.537681000">
        <ele>497.20</ele>
        <time>2016-10-22T07:30:12Z</time>
      </trkpt>
      <trkpt lat="42.409534000" lon="-2.537681000">
        <ele>497.20</ele>
        <time>2016-10-22T07:30:13Z</time>
      </trkpt>
      <trkpt lat="42.409534000" lon="-2.537681000">
        <ele>497.20</ele>
        <time>2016-10-22T07:30:14Z</time>
      </trkpt>
      <trkpt lat="42.409534000" lon="-2.537681000">
        <ele>497.10</ele>
        <time>2016-10-22T07:30:15Z</time>
      </trkpt>
      <trkpt lat="42.409534000" lon="-2.537681000">
        <ele>497.00</ele>
        <time>2016-10-22T07:30:16Z</time>
      </trkpt>
      <trkpt lat="42.409534000" lon="-2.537681000">
        <ele>497.00</ele>
        <time>2016-10-22T07:30:17Z</time>
      </trkpt>
      <trkpt lat="42.409534000" lon="-2.537681000">
        <ele>497.00</ele>
        <time>2016-10-22T07:30:18Z</time>
      </trkpt>
      <trkpt lat="42.409534000" lon="-2.537681000">
        <ele>497.00</ele>
        <time>2016-10-22T07:30:19Z</time>
      </trkpt>
      <trkpt lat="42.409534000" lon="-2.537681000">
        <ele>496.90</ele>
        <time>2016-10-22T07:30:20Z</time>
      </trkpt>
      <trkpt lat="42.409534000" lon="-2.537681000">
        <ele>496.90</ele>
        <time>2016-10-22T07:30:21Z</time>
      </trkpt>
      <trkpt lat="42.409534000" lon="-2.537681000">
        <ele>496.90</ele>
        <time>2016-10-22T07:30:22Z</time>
      </trkpt>
      <trkpt lat="42.409534000" lon="-2.537681000">
        <ele>496.80</ele>
        <time>2016-10-22T07:30:23Z</time>
      </trkpt>
      <trkpt lat="42.409534000" lon="-2.537681000">
        <ele>496.60</ele>
        <time>2016-10-22T07:30:24Z</time>
      </trkpt>
      <trkpt lat="42.409534000" lon="-2.537681000">
        <ele>496.50</ele>
        <time>2016-10-22T07:30:25Z</time>
      </trkpt>
      <trkpt lat="42.409534000" lon="-2.537681000">
        <ele>496.30</ele>
        <time>2016-10-22T07:30:26Z</time>
      </trkpt>
      <trkpt lat="42.409534000" lon="-2.537681000">
        <ele>496.20</ele>
        <time>2016-10-22T07:30:27Z</time>
      </trkpt>
      <trkpt lat="42.409534000" lon="-2.537681000">
        <ele>496.40</ele>
        <time>2016-10-22T07:30:28Z</time>
      </trkpt>
      <trkpt lat="42.409534000" lon="-2.537681000">
        <ele>496.50</ele>
        <time>2016-10-22T07:30:29Z</time>
      </trkpt>
      <trkpt lat="42.409534000" lon="-2.537681000">
        <ele>496.60</ele>
        <time>2016-10-22T07:30:30Z</time>
      </trkpt>
      <trkpt lat="42.409534000" lon="-2.537681000">
        <ele>496.70</ele>
        <time>2016-10-22T07:30:31Z</time>
      </trkpt>
      <trkpt lat="42.409534000" lon="-2.537681000">
        <ele>496.80</ele>
        <time>2016-10-22T07:30:32Z</time>
      </trkpt>
      <trkpt lat="42.409534000" lon="-2.537681000">
        <ele>496.90</ele>
        <time>2016-10-22T07:30:33Z</time>
      </trkpt>
      <trkpt lat="42.409534000" lon="-2.537681000">
        <ele>496.90</ele>
        <time>2016-10-22T07:30:34Z</time>
      </trkpt>
      <trkpt lat="42.409534000" lon="-2.537681000">
        <ele>496.90</ele>
        <time>2016-10-22T07:30:35Z</time>
      </trkpt>
      <trkpt lat="42.409534000" lon="-2.537681000">
        <ele>497.00</ele>
        <time>2016-10-22T07:30:36Z</time>
      </trkpt>
      <trkpt lat="42.409534000" lon="-2.537681000">
        <ele>497.00</ele>
        <time>2016-10-22T07:30:37Z</time>
      </trkpt>
      <trkpt lat="42.409534000" lon="-2.537681000">
        <ele>496.90</ele>
        <time>2016-10-22T07:30:38Z</time>
      </trkpt>
      <trkpt lat="42.409534000" lon="-2.537681000">
        <ele>496.90</ele>
        <time>2016-10-22T07:30:39Z</time>
      </trkpt>
      <trkpt lat="42.409534000" lon="-2.537681000">
        <ele>496.90</ele>
        <time>2016-10-22T07:30:40Z</time>
      </trkpt>
      <trkpt lat="42.409534000" lon="-2.537681000">
        <ele>496.80</ele>
        <time>2016-10-22T07:30:41Z</time>
      </trkpt>
      <trkpt lat="42.409534000" lon="-2.537681000">
        <ele>496.80</ele>
        <time>2016-10-22T07:30:42Z</time>
      </trkpt>
      <trkpt lat="42.409534000" lon="-2.537681000">
        <ele>496.80</ele>
        <time>2016-10-22T07:30:43Z</time>
      </trkpt>
      <trkpt lat="42.409534000" lon="-2.537681000">
        <ele>496.80</ele>
        <time>2016-10-22T07:30:44Z</time>
      </trkpt>
      <trkpt lat="42.409534000" lon="-2.537681000">
        <ele>496.80</ele>
        <time>2016-10-22T07:30:45Z</time>
      </trkpt>
      <trkpt lat="42.409534000" lon="-2.537681000">
        <ele>496.80</ele>
        <time>2016-10-22T07:30:46Z</time>
      </trkpt>
      <trkpt lat="42.409534000" lon="-2.537681000">
        <ele>496.80</ele>
        <time>2016-10-22T07:30:47Z</time>
      </trkpt>
      <trkpt lat="42.409534000" lon="-2.537681000">
        <ele>496.80</ele>
        <time>2016-10-22T07:30:48Z</time>
      </trkpt>
      <trkpt lat="42.409534000" lon="-2.537681000">
        <ele>496.80</ele>
        <time>2016-10-22T07:30:49Z</time>
      </trkpt>
      <trkpt lat="42.409534000" lon="-2.537676000">
        <ele>496.80</ele>
        <time>2016-10-22T07:30:50Z</time>
      </trkpt>
      <trkpt lat="42.409534000" lon="-2.537676000">
        <ele>496.90</ele>
        <time>2016-10-22T07:30:51Z</time>
      </trkpt>
      <trkpt lat="42.409534000" lon="-2.537676000">
        <ele>496.90</ele>
        <time>2016-10-22T07:30:52Z</time>
      </trkpt>
      <trkpt lat="42.409534000" lon="-2.537676000">
        <ele>497.00</ele>
        <time>2016-10-22T07:30:54Z</time>
      </trkpt>
      <trkpt lat="42.409534000" lon="-2.537676000">
        <ele>497.00</ele>
        <time>2016-10-22T07:30:55Z</time>
      </trkpt>
      <trkpt lat="42.409534000" lon="-2.537676000">
        <ele>497.00</ele>
        <time>2016-10-22T07:30:56Z</time>
      </trkpt>
      <trkpt lat="42.409534000" lon="-2.537676000">
        <ele>497.00</ele>
        <time>2016-10-22T07:30:57Z</time>
      </trkpt>
      <trkpt lat="42.409534000" lon="-2.537676000">
        <ele>496.90</ele>
        <time>2016-10-22T07:30:58Z</time>
      </trkpt>
      <trkpt lat="42.409534000" lon="-2.537676000">
        <ele>496.80</ele>
        <time>2016-10-22T07:30:59Z</time>
      </trkpt>
      <trkpt lat="42.409534000" lon="-2.537676000">
        <ele>496.70</ele>
        <time>2016-10-22T07:31:00Z</time>
      </trkpt>
      <trkpt lat="42.409534000" lon="-2.537676000">
        <ele>496.70</ele>
        <time>2016-10-22T07:31:01Z</time>
      </trkpt>
      <trkpt lat="42.409534000" lon="-2.537676000">
        <ele>496.60</ele>
        <time>2016-10-22T07:31:02Z</time>
      </trkpt>
      <trkpt lat="42.409534000" lon="-2.537676000">
        <ele>496.60</ele>
        <time>2016-10-22T07:31:03Z</time>
      </trkpt>
      <trkpt lat="42.409534000" lon="-2.537676000">
        <ele>496.60</ele>
        <time>2016-10-22T07:31:04Z</time>
      </trkpt>
      <trkpt lat="42.409534000" lon="-2.537676000">
        <ele>496.70</ele>
        <time>2016-10-22T07:31:05Z</time>
      </trkpt>
      <trkpt lat="42.409534000" lon="-2.537676000">
        <ele>496.80</ele>
        <time>2016-10-22T07:31:06Z</time>
      </trkpt>
      <trkpt lat="42.409534000" lon="-2.537676000">
        <ele>496.90</ele>
        <time>2016-10-22T07:31:07Z</time>
      </trkpt>
      <trkpt lat="42.409534000" lon="-2.537676000">
        <ele>497.00</ele>
        <time>2016-10-22T07:31:08Z</time>
      </trkpt>
      <trkpt lat="42.409534000" lon="-2.537676000">
        <ele>497.10</ele>
        <time>2016-10-22T07:31:09Z</time>
      </trkpt>
      <trkpt lat="42.409534000" lon="-2.537676000">
        <ele>497.00</ele>
        <time>2016-10-22T07:31:10Z</time>
      </trkpt>
      <trkpt lat="42.409534000" lon="-2.537676000">
        <ele>496.90</ele>
        <time>2016-10-22T07:31:11Z</time>
      </trkpt>
      <trkpt lat="42.409534000" lon="-2.537676000">
        <ele>496.90</ele>
        <time>2016-10-22T07:31:12Z</time>
      </trkpt>
      <trkpt lat="42.409534000" lon="-2.537676000">
        <ele>496.90</ele>
        <time>2016-10-22T07:31:13Z</time>
      </trkpt>
      <trkpt lat="42.409534000" lon="-2.537676000">
        <ele>496.90</ele>
        <time>2016-10-22T07:31:14Z</time>
      </trkpt>
      <trkpt lat="42.409534000" lon="-2.537676000">
        <ele>496.90</ele>
        <time>2016-10-22T07:31:15Z</time>
      </trkpt>
      <trkpt lat="42.409534000" lon="-2.537676000">
        <ele>497.00</ele>
        <time>2016-10-22T07:31:16Z</time>
      </trkpt>
      <trkpt lat="42.409534000" lon="-2.537676000">
        <ele>497.00</ele>
        <time>2016-10-22T07:31:17Z</time>
      </trkpt>
      <trkpt lat="42.409534000" lon="-2.537676000">
        <ele>497.00</ele>
        <time>2016-10-22T07:31:18Z</time>
      </trkpt>
      <trkpt lat="42.409534000" lon="-2.537676000">
        <ele>497.00</ele>
        <time>2016-10-22T07:31:19Z</time>
      </trkpt>
      <trkpt lat="42.409534000" lon="-2.537676000">
        <ele>497.00</ele>
        <time>2016-10-22T07:31:20Z</time>
      </trkpt>
      <trkpt lat="42.409534000" lon="-2.537676000">
        <ele>497.00</ele>
        <time>2016-10-22T07:31:21Z</time>
      </trkpt>
      <trkpt lat="42.409534000" lon="-2.537676000">
        <ele>497.00</ele>
        <time>2016-10-22T07:31:22Z</time>
      </trkpt>
      <trkpt lat="42.409534000" lon="-2.537676000">
        <ele>497.00</ele>
        <time>2016-10-22T07:31:23Z</time>
      </trkpt>
      <trkpt lat="42.409534000" lon="-2.537676000">
        <ele>497.00</ele>
        <time>2016-10-22T07:31:24Z</time>
      </trkpt>
      <trkpt lat="42.409534000" lon="-2.537676000">
        <ele>497.00</ele>
        <time>2016-10-22T07:31:25Z</time>
      </trkpt>
      <trkpt lat="42.409534000" lon="-2.537676000">
        <ele>497.00</ele>
        <time>2016-10-22T07:31:26Z</time>
      </trkpt>
      <trkpt lat="42.409534000" lon="-2.537676000">
        <ele>496.90</ele>
        <time>2016-10-22T07:31:27Z</time>
      </trkpt>
      <trkpt lat="42.409534000" lon="-2.537676000">
        <ele>497.20</ele>
        <time>2016-10-22T07:31:28Z</time>
      </trkpt>
      <trkpt lat="42.409534000" lon="-2.537676000">
        <ele>497.30</ele>
        <time>2016-10-22T07:31:29Z</time>
      </trkpt>
      <trkpt lat="42.409535000" lon="-2.537675000">
        <ele>497.20</ele>
        <time>2016-10-22T07:31:30Z</time>
      </trkpt>
      <trkpt lat="42.409535000" lon="-2.537675000">
        <ele>497.10</ele>
        <time>2016-10-22T07:31:31Z</time>
      </trkpt>
      <trkpt lat="42.409535000" lon="-2.537675000">
        <ele>497.00</ele>
        <time>2016-10-22T07:31:32Z</time>
      </trkpt>
      <trkpt lat="42.409535000" lon="-2.537675000">
        <ele>496.90</ele>
        <time>2016-10-22T07:31:33Z</time>
      </trkpt>
      <trkpt lat="42.409535000" lon="-2.537675000">
        <ele>496.80</ele>
        <time>2016-10-22T07:31:34Z</time>
      </trkpt>
      <trkpt lat="42.409535000" lon="-2.537675000">
        <ele>496.80</ele>
        <time>2016-10-22T07:31:35Z</time>
      </trkpt>
      <trkpt lat="42.409535000" lon="-2.537675000">
        <ele>496.70</ele>
        <time>2016-10-22T07:31:36Z</time>
      </trkpt>
      <trkpt lat="42.409535000" lon="-2.537675000">
        <ele>496.70</ele>
        <time>2016-10-22T07:31:37Z</time>
      </trkpt>
      <trkpt lat="42.409535000" lon="-2.537675000">
        <ele>496.70</ele>
        <time>2016-10-22T07:31:38Z</time>
      </trkpt>
      <trkpt lat="42.409535000" lon="-2.537675000">
        <ele>496.60</ele>
        <time>2016-10-22T07:31:39Z</time>
      </trkpt>
      <trkpt lat="42.409535000" lon="-2.537675000">
        <ele>496.90</ele>
        <time>2016-10-22T07:31:40Z</time>
      </trkpt>
      <trkpt lat="42.409535000" lon="-2.537675000">
        <ele>497.00</ele>
        <time>2016-10-22T07:31:41Z</time>
      </trkpt>
      <trkpt lat="42.409535000" lon="-2.537675000">
        <ele>497.20</ele>
        <time>2016-10-22T07:31:42Z</time>
      </trkpt>
      <trkpt lat="42.409535000" lon="-2.537675000">
        <ele>497.30</ele>
        <time>2016-10-22T07:31:43Z</time>
      </trkpt>
      <trkpt lat="42.409535000" lon="-2.537675000">
        <ele>497.20</ele>
        <time>2016-10-22T07:31:44Z</time>
      </trkpt>
      <trkpt lat="42.409535000" lon="-2.537675000">
        <ele>497.20</ele>
        <time>2016-10-22T07:31:45Z</time>
      </trkpt>
      <trkpt lat="42.409535000" lon="-2.537675000">
        <ele>497.00</ele>
        <time>2016-10-22T07:31:46Z</time>
      </trkpt>
      <trkpt lat="42.409535000" lon="-2.537675000">
        <ele>496.90</ele>
        <time>2016-10-22T07:31:47Z</time>
      </trkpt>
      <trkpt lat="42.409535000" lon="-2.537675000">
        <ele>496.90</ele>
        <time>2016-10-22T07:31:48Z</time>
      </trkpt>
      <trkpt lat="42.409535000" lon="-2.537675000">
        <ele>496.90</ele>
        <time>2016-10-22T07:31:49Z</time>
      </trkpt>
      <trkpt lat="42.409535000" lon="-2.537675000">
        <ele>496.80</ele>
        <time>2016-10-22T07:31:50Z</time>
      </trkpt>
      <trkpt lat="42.409540000" lon="-2.537667000">
        <ele>496.80</ele>
        <time>2016-10-22T07:31:51Z</time>
      </trkpt>
      <trkpt lat="42.409539000" lon="-2.537663000">
        <ele>496.70</ele>
        <time>2016-10-22T07:31:52Z</time>
      </trkpt>
      <trkpt lat="42.409539000" lon="-2.537663000">
        <ele>496.70</ele>
        <time>2016-10-22T07:31:53Z</time>
      </trkpt>
      <trkpt lat="42.409539000" lon="-2.537663000">
        <ele>496.60</ele>
        <time>2016-10-22T07:31:55Z</time>
      </trkpt>
      <trkpt lat="42.409539000" lon="-2.537663000">
        <ele>496.60</ele>
        <time>2016-10-22T07:31:56Z</time>
      </trkpt>
      <trkpt lat="42.409539000" lon="-2.537663000">
        <ele>496.60</ele>
        <time>2016-10-22T07:31:57Z</time>
      </trkpt>
      <trkpt lat="42.409539000" lon="-2.537663000">
        <ele>496.70</ele>
        <time>2016-10-22T07:31:58Z</time>
      </trkpt>
      <trkpt lat="42.409539000" lon="-2.537663000">
        <ele>496.70</ele>
        <time>2016-10-22T07:31:59Z</time>
      </trkpt>
      <trkpt lat="42.409539000" lon="-2.537663000">
        <ele>496.90</ele>
        <time>2016-10-22T07:32:00Z</time>
      </trkpt>
      <trkpt lat="42.409539000" lon="-2.537663000">
        <ele>497.00</ele>
        <time>2016-10-22T07:32:01Z</time>
      </trkpt>
      <trkpt lat="42.409539000" lon="-2.537663000">
        <ele>497.10</ele>
        <time>2016-10-22T07:32:02Z</time>
      </trkpt>
      <trkpt lat="42.409539000" lon="-2.537663000">
        <ele>497.20</ele>
        <time>2016-10-22T07:32:03Z</time>
      </trkpt>
      <trkpt lat="42.409539000" lon="-2.537663000">
        <ele>497.20</ele>
        <time>2016-10-22T07:32:04Z</time>
      </trkpt>
      <trkpt lat="42.409539000" lon="-2.537663000">
        <ele>497.10</ele>
        <time>2016-10-22T07:32:05Z</time>
      </trkpt>
      <trkpt lat="42.409539000" lon="-2.537663000">
        <ele>497.10</ele>
        <time>2016-10-22T07:32:06Z</time>
      </trkpt>
      <trkpt lat="42.409539000" lon="-2.537663000">
        <ele>497.00</ele>
        <time>2016-10-22T07:32:07Z</time>
      </trkpt>
      <trkpt lat="42.409539000" lon="-2.537663000">
        <ele>497.00</ele>
        <time>2016-10-22T07:32:08Z</time>
      </trkpt>
      <trkpt lat="42.409539000" lon="-2.537663000">
        <ele>497.10</ele>
        <time>2016-10-22T07:32:09Z</time>
      </trkpt>
      <trkpt lat="42.409539000" lon="-2.537663000">
        <ele>497.00</ele>
        <time>2016-10-22T07:32:10Z</time>
      </trkpt>
      <trkpt lat="42.409539000" lon="-2.537663000">
        <ele>497.00</ele>
        <time>2016-10-22T07:32:11Z</time>
      </trkpt>
      <trkpt lat="42.409539000" lon="-2.537663000">
        <ele>497.00</ele>
        <time>2016-10-22T07:32:12Z</time>
      </trkpt>
      <trkpt lat="42.409539000" lon="-2.537663000">
        <ele>497.00</ele>
        <time>2016-10-22T07:32:13Z</time>
      </trkpt>
      <trkpt lat="42.409539000" lon="-2.537663000">
        <ele>497.00</ele>
        <time>2016-10-22T07:32:14Z</time>
      </trkpt>
      <trkpt lat="42.409539000" lon="-2.537663000">
        <ele>497.00</ele>
        <time>2016-10-22T07:32:15Z</time>
      </trkpt>
      <trkpt lat="42.409539000" lon="-2.537663000">
        <ele>496.90</ele>
        <time>2016-10-22T07:32:16Z</time>
      </trkpt>
      <trkpt lat="42.409539000" lon="-2.537663000">
        <ele>496.90</ele>
        <time>2016-10-22T07:32:17Z</time>
      </trkpt>
      <trkpt lat="42.409539000" lon="-2.537663000">
        <ele>496.90</ele>
        <time>2016-10-22T07:32:18Z</time>
      </trkpt>
      <trkpt lat="42.409539000" lon="-2.537663000">
        <ele>496.90</ele>
        <time>2016-10-22T07:32:19Z</time>
      </trkpt>
      <trkpt lat="42.409539000" lon="-2.537663000">
        <ele>496.90</ele>
        <time>2016-10-22T07:32:20Z</time>
      </trkpt>
      <trkpt lat="42.409539000" lon="-2.537663000">
        <ele>496.90</ele>
        <time>2016-10-22T07:32:21Z</time>
      </trkpt>
      <trkpt lat="42.409539000" lon="-2.537663000">
        <ele>497.00</ele>
        <time>2016-10-22T07:32:22Z</time>
      </trkpt>
      <trkpt lat="42.409539000" lon="-2.537663000">
        <ele>497.00</ele>
        <time>2016-10-22T07:32:23Z</time>
      </trkpt>
      <trkpt lat="42.409539000" lon="-2.537663000">
        <ele>497.00</ele>
        <time>2016-10-22T07:32:24Z</time>
      </trkpt>
      <trkpt lat="42.409539000" lon="-2.537663000">
        <ele>497.10</ele>
        <time>2016-10-22T07:32:25Z</time>
      </trkpt>
      <trkpt lat="42.409539000" lon="-2.537663000">
        <ele>497.10</ele>
        <time>2016-10-22T07:32:26Z</time>
      </trkpt>
      <trkpt lat="42.409539000" lon="-2.537663000">
        <ele>497.20</ele>
        <time>2016-10-22T07:32:27Z</time>
      </trkpt>
      <trkpt lat="42.409539000" lon="-2.537663000">
        <ele>497.20</ele>
        <time>2016-10-22T07:32:28Z</time>
      </trkpt>
      <trkpt lat="42.409539000" lon="-2.537663000">
        <ele>497.30</ele>
        <time>2016-10-22T07:32:29Z</time>
      </trkpt>
      <trkpt lat="42.409539000" lon="-2.537663000">
        <ele>497.30</ele>
        <time>2016-10-22T07:32:30Z</time>
      </trkpt>
      <trkpt lat="42.409539000" lon="-2.537663000">
        <ele>497.40</ele>
        <time>2016-10-22T07:32:31Z</time>
      </trkpt>
      <trkpt lat="42.409539000" lon="-2.537664000">
        <ele>497.30</ele>
        <time>2016-10-22T07:32:32Z</time>
      </trkpt>
      <trkpt lat="42.409539000" lon="-2.537664000">
        <ele>497.30</ele>
        <time>2016-10-22T07:32:33Z</time>
      </trkpt>
      <trkpt lat="42.409539000" lon="-2.537664000">
        <ele>497.30</ele>
        <time>2016-10-22T07:32:34Z</time>
      </trkpt>
      <trkpt lat="42.409539000" lon="-2.537664000">
        <ele>497.30</ele>
        <time>2016-10-22T07:32:35Z</time>
      </trkpt>
      <trkpt lat="42.409539000" lon="-2.537664000">
        <ele>497.20</ele>
        <time>2016-10-22T07:32:36Z</time>
      </trkpt>
      <trkpt lat="42.409539000" lon="-2.537664000">
        <ele>497.20</ele>
        <time>2016-10-22T07:32:37Z</time>
      </trkpt>
      <trkpt lat="42.409539000" lon="-2.537664000">
        <ele>497.20</ele>
        <time>2016-10-22T07:32:38Z</time>
      </trkpt>
      <trkpt lat="42.409539000" lon="-2.537664000">
        <ele>497.20</ele>
        <time>2016-10-22T07:32:39Z</time>
      </trkpt>
      <trkpt lat="42.409539000" lon="-2.537664000">
        <ele>497.10</ele>
        <time>2016-10-22T07:32:40Z</time>
      </trkpt>
      <trkpt lat="42.409539000" lon="-2.537664000">
        <ele>497.10</ele>
        <time>2016-10-22T07:32:41Z</time>
      </trkpt>
      <trkpt lat="42.409539000" lon="-2.537664000">
        <ele>497.10</ele>
        <time>2016-10-22T07:32:42Z</time>
      </trkpt>
      <trkpt lat="42.409539000" lon="-2.537664000">
        <ele>497.10</ele>
        <time>2016-10-22T07:32:43Z</time>
      </trkpt>
      <trkpt lat="42.409539000" lon="-2.537664000">
        <ele>497.10</ele>
        <time>2016-10-22T07:32:44Z</time>
      </trkpt>
      <trkpt lat="42.409539000" lon="-2.537664000">
        <ele>497.10</ele>
        <time>2016-10-22T07:32:45Z</time>
      </trkpt>
      <trkpt lat="42.409539000" lon="-2.537664000">
        <ele>497.00</ele>
        <time>2016-10-22T07:32:46Z</time>
      </trkpt>
      <trkpt lat="42.409539000" lon="-2.537664000">
        <ele>497.00</ele>
        <time>2016-10-22T07:32:47Z</time>
      </trkpt>
      <trkpt lat="42.409539000" lon="-2.537664000">
        <ele>497.00</ele>
        <time>2016-10-22T07:32:48Z</time>
      </trkpt>
      <trkpt lat="42.409539000" lon="-2.537664000">
        <ele>497.00</ele>
        <time>2016-10-22T07:32:49Z</time>
      </trkpt>
      <trkpt lat="42.409539000" lon="-2.537664000">
        <ele>497.10</ele>
        <time>2016-10-22T07:32:50Z</time>
      </trkpt>
      <trkpt lat="42.409539000" lon="-2.537664000">
        <ele>497.20</ele>
        <time>2016-10-22T07:32:51Z</time>
      </trkpt>
      <trkpt lat="42.409539000" lon="-2.537664000">
        <ele>497.30</ele>
        <time>2016-10-22T07:32:52Z</time>
      </trkpt>
      <trkpt lat="42.409539000" lon="-2.537664000">
        <ele>497.40</ele>
        <time>2016-10-22T07:32:53Z</time>
      </trkpt>
      <trkpt lat="42.409539000" lon="-2.537664000">
        <ele>497.40</ele>
        <time>2016-10-22T07:32:54Z</time>
      </trkpt>
      <trkpt lat="42.409539000" lon="-2.537664000">
        <ele>497.40</ele>
        <time>2016-10-22T07:32:56Z</time>
      </trkpt>
      <trkpt lat="42.409539000" lon="-2.537664000">
        <ele>497.30</ele>
        <time>2016-10-22T07:32:57Z</time>
      </trkpt>
      <trkpt lat="42.409539000" lon="-2.537664000">
        <ele>497.20</ele>
        <time>2016-10-22T07:32:58Z</time>
      </trkpt>
      <trkpt lat="42.409539000" lon="-2.537664000">
        <ele>497.00</ele>
        <time>2016-10-22T07:32:59Z</time>
      </trkpt>
      <trkpt lat="42.409539000" lon="-2.537664000">
        <ele>497.00</ele>
        <time>2016-10-22T07:33:00Z</time>
      </trkpt>
      <trkpt lat="42.409539000" lon="-2.537664000">
        <ele>496.90</ele>
        <time>2016-10-22T07:33:01Z</time>
      </trkpt>
      <trkpt lat="42.409539000" lon="-2.537664000">
        <ele>496.80</ele>
        <time>2016-10-22T07:33:02Z</time>
      </trkpt>
      <trkpt lat="42.409539000" lon="-2.537664000">
        <ele>496.80</ele>
        <time>2016-10-22T07:33:03Z</time>
      </trkpt>
      <trkpt lat="42.409539000" lon="-2.537664000">
        <ele>496.80</ele>
        <time>2016-10-22T07:33:04Z</time>
      </trkpt>
      <trkpt lat="42.409539000" lon="-2.537664000">
        <ele>496.90</ele>
        <time>2016-10-22T07:33:05Z</time>
      </trkpt>
      <trkpt lat="42.409539000" lon="-2.537664000">
        <ele>496.90</ele>
        <time>2016-10-22T07:33:06Z</time>
      </trkpt>
      <trkpt lat="42.409539000" lon="-2.537664000">
        <ele>496.90</ele>
        <time>2016-10-22T07:33:07Z</time>
      </trkpt>
      <trkpt lat="42.409539000" lon="-2.537664000">
        <ele>496.90</ele>
        <time>2016-10-22T07:33:08Z</time>
      </trkpt>
      <trkpt lat="42.409539000" lon="-2.537664000">
        <ele>496.90</ele>
        <time>2016-10-22T07:33:09Z</time>
      </trkpt>
      <trkpt lat="42.409539000" lon="-2.537664000">
        <ele>496.90</ele>
        <time>2016-10-22T07:33:10Z</time>
      </trkpt>
      <trkpt lat="42.409539000" lon="-2.537664000">
        <ele>496.90</ele>
        <time>2016-10-22T07:33:11Z</time>
      </trkpt>
      <trkpt lat="42.409539000" lon="-2.537665000">
        <ele>496.90</ele>
        <time>2016-10-22T07:33:12Z</time>
      </trkpt>
      <trkpt lat="42.409539000" lon="-2.537665000">
        <ele>496.90</ele>
        <time>2016-10-22T07:33:13Z</time>
      </trkpt>
      <trkpt lat="42.409539000" lon="-2.537665000">
        <ele>496.90</ele>
        <time>2016-10-22T07:33:14Z</time>
      </trkpt>
      <trkpt lat="42.409539000" lon="-2.537665000">
        <ele>496.90</ele>
        <time>2016-10-22T07:33:15Z</time>
      </trkpt>
      <trkpt lat="42.409539000" lon="-2.537665000">
        <ele>497.00</ele>
        <time>2016-10-22T07:33:16Z</time>
      </trkpt>
      <trkpt lat="42.409539000" lon="-2.537665000">
        <ele>497.10</ele>
        <time>2016-10-22T07:33:17Z</time>
      </trkpt>
      <trkpt lat="42.409539000" lon="-2.537665000">
        <ele>497.00</ele>
        <time>2016-10-22T07:33:18Z</time>
      </trkpt>
      <trkpt lat="42.409539000" lon="-2.537665000">
        <ele>497.00</ele>
        <time>2016-10-22T07:33:19Z</time>
      </trkpt>
      <trkpt lat="42.409539000" lon="-2.537665000">
        <ele>497.10</ele>
        <time>2016-10-22T07:33:20Z</time>
      </trkpt>
      <trkpt lat="42.409539000" lon="-2.537665000">
        <ele>497.20</ele>
        <time>2016-10-22T07:33:21Z</time>
      </trkpt>
      <trkpt lat="42.409539000" lon="-2.537665000">
        <ele>497.20</ele>
        <time>2016-10-22T07:33:22Z</time>
      </trkpt>
      <trkpt lat="42.409539000" lon="-2.537665000">
        <ele>497.30</ele>
        <time>2016-10-22T07:33:23Z</time>
      </trkpt>
      <trkpt lat="42.409539000" lon="-2.537665000">
        <ele>497.30</ele>
        <time>2016-10-22T07:33:24Z</time>
      </trkpt>
      <trkpt lat="42.409539000" lon="-2.537665000">
        <ele>497.30</ele>
        <time>2016-10-22T07:33:25Z</time>
      </trkpt>
      <trkpt lat="42.409539000" lon="-2.537665000">
        <ele>497.30</ele>
        <time>2016-10-22T07:33:26Z</time>
      </trkpt>
      <trkpt lat="42.409539000" lon="-2.537665000">
        <ele>497.30</ele>
        <time>2016-10-22T07:33:27Z</time>
      </trkpt>
      <trkpt lat="42.409539000" lon="-2.537665000">
        <ele>497.40</ele>
        <time>2016-10-22T07:33:28Z</time>
      </trkpt>
      <trkpt lat="42.409539000" lon="-2.537665000">
        <ele>497.40</ele>
        <time>2016-10-22T07:33:29Z</time>
      </trkpt>
      <trkpt lat="42.409539000" lon="-2.537665000">
        <ele>497.40</ele>
        <time>2016-10-22T07:33:30Z</time>
      </trkpt>
      <trkpt lat="42.409539000" lon="-2.537665000">
        <ele>497.40</ele>
        <time>2016-10-22T07:33:31Z</time>
      </trkpt>
      <trkpt lat="42.409539000" lon="-2.537665000">
        <ele>497.30</ele>
        <time>2016-10-22T07:33:32Z</time>
      </trkpt>
      <trkpt lat="42.409539000" lon="-2.537665000">
        <ele>497.20</ele>
        <time>2016-10-22T07:33:33Z</time>
      </trkpt>
      <trkpt lat="42.409539000" lon="-2.537665000">
        <ele>497.10</ele>
        <time>2016-10-22T07:33:34Z</time>
      </trkpt>
      <trkpt lat="42.409539000" lon="-2.537665000">
        <ele>497.10</ele>
        <time>2016-10-22T07:33:35Z</time>
      </trkpt>
      <trkpt lat="42.409539000" lon="-2.537665000">
        <ele>497.00</ele>
        <time>2016-10-22T07:33:36Z</time>
      </trkpt>
      <trkpt lat="42.409539000" lon="-2.537665000">
        <ele>497.00</ele>
        <time>2016-10-22T07:33:37Z</time>
      </trkpt>
      <trkpt lat="42.409539000" lon="-2.537665000">
        <ele>496.90</ele>
        <time>2016-10-22T07:33:38Z</time>
      </trkpt>
      <trkpt lat="42.409539000" lon="-2.537665000">
        <ele>496.90</ele>
        <time>2016-10-22T07:33:39Z</time>
      </trkpt>
      <trkpt lat="42.409539000" lon="-2.537665000">
        <ele>496.90</ele>
        <time>2016-10-22T07:33:40Z</time>
      </trkpt>
      <trkpt lat="42.409539000" lon="-2.537665000">
        <ele>496.90</ele>
        <time>2016-10-22T07:33:41Z</time>
      </trkpt>
      <trkpt lat="42.409539000" lon="-2.537665000">
        <ele>496.90</ele>
        <time>2016-10-22T07:33:42Z</time>
      </trkpt>
      <trkpt lat="42.409539000" lon="-2.537665000">
        <ele>496.80</ele>
        <time>2016-10-22T07:33:43Z</time>
      </trkpt>
      <trkpt lat="42.409539000" lon="-2.537665000">
        <ele>496.80</ele>
        <time>2016-10-22T07:33:44Z</time>
      </trkpt>
      <trkpt lat="42.409539000" lon="-2.537665000">
        <ele>496.90</ele>
        <time>2016-10-22T07:33:45Z</time>
      </trkpt>
      <trkpt lat="42.409539000" lon="-2.537665000">
        <ele>497.00</ele>
        <time>2016-10-22T07:33:46Z</time>
      </trkpt>
      <trkpt lat="42.409539000" lon="-2.537665000">
        <ele>497.10</ele>
        <time>2016-10-22T07:33:47Z</time>
      </trkpt>
      <trkpt lat="42.409539000" lon="-2.537665000">
        <ele>497.20</ele>
        <time>2016-10-22T07:33:48Z</time>
      </trkpt>
      <trkpt lat="42.409539000" lon="-2.537665000">
        <ele>497.20</ele>
        <time>2016-10-22T07:33:49Z</time>
      </trkpt>
      <trkpt lat="42.409539000" lon="-2.537665000">
        <ele>497.20</ele>
        <time>2016-10-22T07:33:50Z</time>
      </trkpt>
      <trkpt lat="42.409539000" lon="-2.537665000">
        <ele>497.20</ele>
        <time>2016-10-22T07:33:51Z</time>
      </trkpt>
      <trkpt lat="42.409542000" lon="-2.537664000">
        <ele>497.10</ele>
        <time>2016-10-22T07:33:52Z</time>
      </trkpt>
      <trkpt lat="42.409542000" lon="-2.537664000">
        <ele>497.00</ele>
        <time>2016-10-22T07:33:53Z</time>
      </trkpt>
      <trkpt lat="42.409542000" lon="-2.537664000">
        <ele>497.00</ele>
        <time>2016-10-22T07:33:54Z</time>
      </trkpt>
      <trkpt lat="42.409542000" lon="-2.537664000">
        <ele>497.00</ele>
        <time>2016-10-22T07:33:55Z</time>
      </trkpt>
      <trkpt lat="42.409542000" lon="-2.537664000">
        <ele>497.00</ele>
        <time>2016-10-22T07:33:57Z</time>
      </trkpt>
      <trkpt lat="42.409542000" lon="-2.537664000">
        <ele>497.00</ele>
        <time>2016-10-22T07:33:58Z</time>
      </trkpt>
      <trkpt lat="42.409542000" lon="-2.537664000">
        <ele>497.10</ele>
        <time>2016-10-22T07:33:59Z</time>
      </trkpt>
      <trkpt lat="42.409542000" lon="-2.537664000">
        <ele>497.10</ele>
        <time>2016-10-22T07:34:00Z</time>
      </trkpt>
      <trkpt lat="42.409542000" lon="-2.537664000">
        <ele>497.10</ele>
        <time>2016-10-22T07:34:01Z</time>
      </trkpt>
      <trkpt lat="42.409542000" lon="-2.537664000">
        <ele>497.00</ele>
        <time>2016-10-22T07:34:02Z</time>
      </trkpt>
      <trkpt lat="42.409542000" lon="-2.537664000">
        <ele>497.00</ele>
        <time>2016-10-22T07:34:03Z</time>
      </trkpt>
      <trkpt lat="42.409542000" lon="-2.537664000">
        <ele>496.90</ele>
        <time>2016-10-22T07:34:04Z</time>
      </trkpt>
      <trkpt lat="42.409542000" lon="-2.537664000">
        <ele>496.90</ele>
        <time>2016-10-22T07:34:05Z</time>
      </trkpt>
      <trkpt lat="42.409542000" lon="-2.537664000">
        <ele>496.90</ele>
        <time>2016-10-22T07:34:06Z</time>
      </trkpt>
      <trkpt lat="42.409542000" lon="-2.537664000">
        <ele>496.90</ele>
        <time>2016-10-22T07:34:07Z</time>
      </trkpt>
      <trkpt lat="42.409542000" lon="-2.537664000">
        <ele>496.90</ele>
        <time>2016-10-22T07:34:08Z</time>
      </trkpt>
      <trkpt lat="42.409542000" lon="-2.537664000">
        <ele>496.90</ele>
        <time>2016-10-22T07:34:09Z</time>
      </trkpt>
      <trkpt lat="42.409534000" lon="-2.537641000">
        <ele>496.80</ele>
        <time>2016-10-22T07:34:10Z</time>
      </trkpt>
      <trkpt lat="42.409528000" lon="-2.537619000">
        <ele>496.70</ele>
        <time>2016-10-22T07:34:11Z</time>
      </trkpt>
      <trkpt lat="42.409519000" lon="-2.537601000">
        <ele>496.70</ele>
        <time>2016-10-22T07:34:12Z</time>
      </trkpt>
      <trkpt lat="42.409504000" lon="-2.537598000">
        <ele>496.70</ele>
        <time>2016-10-22T07:34:13Z</time>
      </trkpt>
      <trkpt lat="42.409490000" lon="-2.537595000">
        <ele>496.70</ele>
        <time>2016-10-22T07:34:14Z</time>
      </trkpt>
      <trkpt lat="42.409476000" lon="-2.537596000">
        <ele>496.60</ele>
        <time>2016-10-22T07:34:15Z</time>
      </trkpt>
      <trkpt lat="42.409459000" lon="-2.537598000">
        <ele>496.70</ele>
        <time>2016-10-22T07:34:16Z</time>
      </trkpt>
      <trkpt lat="42.409437000" lon="-2.537609000">
        <ele>496.70</ele>
        <time>2016-10-22T07:34:17Z</time>
      </trkpt>
      <trkpt lat="42.409415000" lon="-2.537615000">
        <ele>496.80</ele>
        <time>2016-10-22T07:34:18Z</time>
      </trkpt>
      <trkpt lat="42.409387000" lon="-2.537619000">
        <ele>496.90</ele>
        <time>2016-10-22T07:34:19Z</time>
      </trkpt>
      <trkpt lat="42.409359000" lon="-2.537615000">
        <ele>497.00</ele>
        <time>2016-10-22T07:34:20Z</time>
      </trkpt>
      <trkpt lat="42.409328000" lon="-2.537607000">
        <ele>497.00</ele>
        <time>2016-10-22T07:34:21Z</time>
      </trkpt>
      <trkpt lat="42.409298000" lon="-2.537596000">
        <ele>497.10</ele>
        <time>2016-10-22T07:34:22Z</time>
      </trkpt>
      <trkpt lat="42.409265000" lon="-2.537584000">
        <ele>497.10</ele>
        <time>2016-10-22T07:34:23Z</time>
      </trkpt>
      <trkpt lat="42.409232000" lon="-2.537572000">
        <ele>497.10</ele>
        <time>2016-10-22T07:34:24Z</time>
      </trkpt>
      <trkpt lat="42.409198000" lon="-2.537566000">
        <ele>497.10</ele>
        <time>2016-10-22T07:34:25Z</time>
      </trkpt>
      <trkpt lat="42.409171000" lon="-2.537560000">
        <ele>497.20</ele>
        <time>2016-10-22T07:34:26Z</time>
      </trkpt>
      <trkpt lat="42.409148000" lon="-2.537547000">
        <ele>497.20</ele>
        <time>2016-10-22T07:34:27Z</time>
      </trkpt>
      <trkpt lat="42.409124000" lon="-2.537528000">
        <ele>497.40</ele>
        <time>2016-10-22T07:34:28Z</time>
      </trkpt>
      <trkpt lat="42.409096000" lon="-2.537512000">
        <ele>497.60</ele>
        <time>2016-10-22T07:34:29Z</time>
      </trkpt>
      <trkpt lat="42.409068000" lon="-2.537502000">
        <ele>497.90</ele>
        <time>2016-10-22T07:34:30Z</time>
      </trkpt>
      <trkpt lat="42.409037000" lon="-2.537493000">
        <ele>498.00</ele>
        <time>2016-10-22T07:34:31Z</time>
      </trkpt>
      <trkpt lat="42.409005000" lon="-2.537480000">
        <ele>498.10</ele>
        <time>2016-10-22T07:34:32Z</time>
      </trkpt>
      <trkpt lat="42.408977000" lon="-2.537464000">
        <ele>498.20</ele>
        <time>2016-10-22T07:34:33Z</time>
      </trkpt>
      <trkpt lat="42.408950000" lon="-2.537450000">
        <ele>498.60</ele>
        <time>2016-10-22T07:34:34Z</time>
      </trkpt>
      <trkpt lat="42.408925000" lon="-2.537436000">
        <ele>498.80</ele>
        <time>2016-10-22T07:34:35Z</time>
      </trkpt>
      <trkpt lat="42.408900000" lon="-2.537425000">
        <ele>499.00</ele>
        <time>2016-10-22T07:34:36Z</time>
      </trkpt>
      <trkpt lat="42.408881000" lon="-2.537418000">
        <ele>499.20</ele>
        <time>2016-10-22T07:34:37Z</time>
      </trkpt>
      <trkpt lat="42.408864000" lon="-2.537413000">
        <ele>499.50</ele>
        <time>2016-10-22T07:34:38Z</time>
      </trkpt>
      <trkpt lat="42.408848000" lon="-2.537407000">
        <ele>499.80</ele>
        <time>2016-10-22T07:34:39Z</time>
      </trkpt>
      <trkpt lat="42.408837000" lon="-2.537391000">
        <ele>500.10</ele>
        <time>2016-10-22T07:34:40Z</time>
      </trkpt>
      <trkpt lat="42.408826000" lon="-2.537374000">
        <ele>500.30</ele>
        <time>2016-10-22T07:34:41Z</time>
      </trkpt>
      <trkpt lat="42.408814000" lon="-2.537366000">
        <ele>500.70</ele>
        <time>2016-10-22T07:34:42Z</time>
      </trkpt>
      <trkpt lat="42.408803000" lon="-2.537365000">
        <ele>501.00</ele>
        <time>2016-10-22T07:34:43Z</time>
      </trkpt>
      <trkpt lat="42.408793000" lon="-2.537367000">
        <ele>501.20</ele>
        <time>2016-10-22T07:34:44Z</time>
      </trkpt>
      <trkpt lat="42.408779000" lon="-2.537374000">
        <ele>501.30</ele>
        <time>2016-10-22T07:34:45Z</time>
      </trkpt>
      <trkpt lat="42.408771000" lon="-2.537389000">
        <ele>501.50</ele>
        <time>2016-10-22T07:34:46Z</time>
      </trkpt>
      <trkpt lat="42.408769000" lon="-2.537404000">
        <ele>501.70</ele>
        <time>2016-10-22T07:34:47Z</time>
      </trkpt>
      <trkpt lat="42.408769000" lon="-2.537419000">
        <ele>501.80</ele>
        <time>2016-10-22T07:34:48Z</time>
      </trkpt>
      <trkpt lat="42.408773000" lon="-2.537436000">
        <ele>501.90</ele>
        <time>2016-10-22T07:34:49Z</time>
      </trkpt>
      <trkpt lat="42.408781000" lon="-2.537452000">
        <ele>501.90</ele>
        <time>2016-10-22T07:34:50Z</time>
      </trkpt>
      <trkpt lat="42.408781000" lon="-2.537460000">
        <ele>502.00</ele>
        <time>2016-10-22T07:34:51Z</time>
      </trkpt>
      <trkpt lat="42.408783000" lon="-2.537460000">
        <ele>501.90</ele>
        <time>2016-10-22T07:34:52Z</time>
      </trkpt>
      <trkpt lat="42.408783000" lon="-2.537460000">
        <ele>501.80</ele>
        <time>2016-10-22T07:34:53Z</time>
      </trkpt>
      <trkpt lat="42.408784000" lon="-2.537462000">
        <ele>501.70</ele>
        <time>2016-10-22T07:34:54Z</time>
      </trkpt>
      <trkpt lat="42.408784000" lon="-2.537462000">
        <ele>501.70</ele>
        <time>2016-10-22T07:34:55Z</time>
      </trkpt>
      <trkpt lat="42.408786000" lon="-2.537461000">
        <ele>501.60</ele>
        <time>2016-10-22T07:34:56Z</time>
      </trkpt>
      <trkpt lat="42.408786000" lon="-2.537461000">
        <ele>501.60</ele>
        <time>2016-10-22T07:34:58Z</time>
      </trkpt>
      <trkpt lat="42.408786000" lon="-2.537461000">
        <ele>501.60</ele>
        <time>2016-10-22T07:34:59Z</time>
      </trkpt>
      <trkpt lat="42.408786000" lon="-2.537461000">
        <ele>501.50</ele>
        <time>2016-10-22T07:35:00Z</time>
      </trkpt>
      <trkpt lat="42.408786000" lon="-2.537461000">
        <ele>501.40</ele>
        <time>2016-10-22T07:35:01Z</time>
      </trkpt>
      <trkpt lat="42.408786000" lon="-2.537461000">
        <ele>501.40</ele>
        <time>2016-10-22T07:35:02Z</time>
      </trkpt>
      <trkpt lat="42.408786000" lon="-2.537461000">
        <ele>501.40</ele>
        <time>2016-10-22T07:35:03Z</time>
      </trkpt>
      <trkpt lat="42.408786000" lon="-2.537461000">
        <ele>501.40</ele>
        <time>2016-10-22T07:35:04Z</time>
      </trkpt>
      <trkpt lat="42.408786000" lon="-2.537461000">
        <ele>501.40</ele>
        <time>2016-10-22T07:35:05Z</time>
      </trkpt>
      <trkpt lat="42.408786000" lon="-2.537461000">
        <ele>501.50</ele>
        <time>2016-10-22T07:35:06Z</time>
      </trkpt>
      <trkpt lat="42.408786000" lon="-2.537461000">
        <ele>501.50</ele>
        <time>2016-10-22T07:35:07Z</time>
      </trkpt>
      <trkpt lat="42.408786000" lon="-2.537461000">
        <ele>501.60</ele>
        <time>2016-10-22T07:35:08Z</time>
      </trkpt>
      <trkpt lat="42.408786000" lon="-2.537461000">
        <ele>501.60</ele>
        <time>2016-10-22T07:35:09Z</time>
      </trkpt>
      <trkpt lat="42.408786000" lon="-2.537461000">
        <ele>501.60</ele>
        <time>2016-10-22T07:35:10Z</time>
      </trkpt>
      <trkpt lat="42.408793000" lon="-2.537453000">
        <ele>501.60</ele>
        <time>2016-10-22T07:35:11Z</time>
      </trkpt>
      <trkpt lat="42.408809000" lon="-2.537441000">
        <ele>501.60</ele>
        <time>2016-10-22T07:35:12Z</time>
      </trkpt>
      <trkpt lat="42.408823000" lon="-2.537421000">
        <ele>501.60</ele>
        <time>2016-10-22T07:35:13Z</time>
      </trkpt>
      <trkpt lat="42.408837000" lon="-2.537412000">
        <ele>501.70</ele>
        <time>2016-10-22T07:35:14Z</time>
      </trkpt>
      <trkpt lat="42.408854000" lon="-2.537414000">
        <ele>501.70</ele>
        <time>2016-10-22T07:35:15Z</time>
      </trkpt>
      <trkpt lat="42.408879000" lon="-2.537418000">
        <ele>501.70</ele>
        <time>2016-10-22T07:35:16Z</time>
      </trkpt>
      <trkpt lat="42.408908000" lon="-2.537433000">
        <ele>501.70</ele>
        <time>2016-10-22T07:35:17Z</time>
      </trkpt>
      <trkpt lat="42.408939000" lon="-2.537454000">
        <ele>501.70</ele>
        <time>2016-10-22T07:35:18Z</time>
      </trkpt>
      <trkpt lat="42.408975000" lon="-2.537483000">
        <ele>501.70</ele>
        <time>2016-10-22T07:35:19Z</time>
      </trkpt>
      <trkpt lat="42.409024000" lon="-2.537505000">
        <ele>501.20</ele>
        <time>2016-10-22T07:35:20Z</time>
      </trkpt>
      <trkpt lat="42.409077000" lon="-2.537526000">
        <ele>500.90</ele>
        <time>2016-10-22T07:35:21Z</time>
      </trkpt>
      <trkpt lat="42.409125000" lon="-2.537548000">
        <ele>500.60</ele>
        <time>2016-10-22T07:35:22Z</time>
      </trkpt>
      <trkpt lat="42.409171000" lon="-2.537563000">
        <ele>500.40</ele>
        <time>2016-10-22T07:35:23Z</time>
      </trkpt>
      <trkpt lat="42.409230000" lon="-2.537577000">
        <ele>500.10</ele>
        <time>2016-10-22T07:35:24Z</time>
      </trkpt>
      <trkpt lat="42.409288000" lon="-2.537604000">
        <ele>499.80</ele>
        <time>2016-10-22T07:35:25Z</time>
      </trkpt>
      <trkpt lat="42.409347000" lon="-2.537610000">
        <ele>499.30</ele>
        <time>2016-10-22T07:35:26Z</time>
      </trkpt>
      <trkpt lat="42.409404000" lon="-2.537624000">
        <ele>498.90</ele>
        <time>2016-10-22T07:35:27Z</time>
      </trkpt>
      <trkpt lat="42.409456000" lon="-2.537632000">
        <ele>498.40</ele>
        <time>2016-10-22T07:35:28Z</time>
      </trkpt>
      <trkpt lat="42.409487000" lon="-2.537637000">
        <ele>498.00</ele>
        <time>2016-10-22T07:35:29Z</time>
      </trkpt>
      <trkpt lat="42.409504000" lon="-2.537639000">
        <ele>497.70</ele>
        <time>2016-10-22T07:35:30Z</time>
      </trkpt>
      <trkpt lat="42.409515000" lon="-2.537648000">
        <ele>497.50</ele>
        <time>2016-10-22T07:35:31Z</time>
      </trkpt>
      <trkpt lat="42.409522000" lon="-2.537663000">
        <ele>497.20</ele>
        <time>2016-10-22T07:35:32Z</time>
      </trkpt>
      <trkpt lat="42.409526000" lon="-2.537683000">
        <ele>497.00</ele>
        <time>2016-10-22T07:35:33Z</time>
      </trkpt>
      <trkpt lat="42.409523000" lon="-2.537705000">
        <ele>497.00</ele>
        <time>2016-10-22T07:35:34Z</time>
      </trkpt>
      <trkpt lat="42.409515000" lon="-2.537723000">
        <ele>496.90</ele>
        <time>2016-10-22T07:35:35Z</time>
      </trkpt>
      <trkpt lat="42.409507000" lon="-2.537742000">
        <ele>496.90</ele>
        <time>2016-10-22T07:35:36Z</time>
      </trkpt>
      <trkpt lat="42.409501000" lon="-2.537763000">
        <ele>496.80</ele>
        <time>2016-10-22T07:35:37Z</time>
      </trkpt>
      <trkpt lat="42.409501000" lon="-2.537787000">
        <ele>496.80</ele>
        <time>2016-10-22T07:35:38Z</time>
      </trkpt>
      <trkpt lat="42.409502000" lon="-2.537813000">
        <ele>496.80</ele>
        <time>2016-10-22T07:35:39Z</time>
      </trkpt>
      <trkpt lat="42.409502000" lon="-2.537841000">
        <ele>496.70</ele>
        <time>2016-10-22T07:35:40Z</time>
      </trkpt>
      <trkpt lat="42.409506000" lon="-2.537872000">
        <ele>496.70</ele>
        <time>2016-10-22T07:35:41Z</time>
      </trkpt>
      <trkpt lat="42.409513000" lon="-2.537902000">
        <ele>496.60</ele>
        <time>2016-10-22T07:35:42Z</time>
      </trkpt>
      <trkpt lat="42.409518000" lon="-2.537935000">
        <ele>496.60</ele>
        <time>2016-10-22T07:35:43Z</time>
      </trkpt>
      <trkpt lat="42.409527000" lon="-2.537966000">
        <ele>496.60</ele>
        <time>2016-10-22T07:35:44Z</time>
      </trkpt>
      <trkpt lat="42.409539000" lon="-2.537994000">
        <ele>496.60</ele>
        <time>2016-10-22T07:35:45Z</time>
      </trkpt>
      <trkpt lat="42.409553000" lon="-2.538021000">
        <ele>496.60</ele>
        <time>2016-10-22T07:35:46Z</time>
      </trkpt>
      <trkpt lat="42.409568000" lon="-2.538047000">
        <ele>496.70</ele>
        <time>2016-10-22T07:35:47Z</time>
      </trkpt>
      <trkpt lat="42.409583000" lon="-2.538076000">
        <ele>496.70</ele>
        <time>2016-10-22T07:35:48Z</time>
      </trkpt>
      <trkpt lat="42.409595000" lon="-2.538105000">
        <ele>496.70</ele>
        <time>2016-10-22T07:35:49Z</time>
      </trkpt>
      <trkpt lat="42.409610000" lon="-2.538131000">
        <ele>496.70</ele>
        <time>2016-10-22T07:35:50Z</time>
      </trkpt>
      <trkpt lat="42.409626000" lon="-2.538157000">
        <ele>496.70</ele>
        <time>2016-10-22T07:35:51Z</time>
      </trkpt>
      <trkpt lat="42.409641000" lon="-2.538185000">
        <ele>496.70</ele>
        <time>2016-10-22T07:35:52Z</time>
      </trkpt>
      <trkpt lat="42.409657000" lon="-2.538212000">
        <ele>496.70</ele>
        <time>2016-10-22T07:35:53Z</time>
      </trkpt>
      <trkpt lat="42.409676000" lon="-2.538240000">
        <ele>496.70</ele>
        <time>2016-10-22T07:35:54Z</time>
      </trkpt>
      <trkpt lat="42.409693000" lon="-2.538265000">
        <ele>496.70</ele>
        <time>2016-10-22T07:35:55Z</time>
      </trkpt>
      <trkpt lat="42.409715000" lon="-2.538286000">
        <ele>496.60</ele>
        <time>2016-10-22T07:35:56Z</time>
      </trkpt>
      <trkpt lat="42.409737000" lon="-2.538304000">
        <ele>496.60</ele>
        <time>2016-10-22T07:35:57Z</time>
      </trkpt>
      <trkpt lat="42.409783000" lon="-2.538338000">
        <ele>496.50</ele>
        <time>2016-10-22T07:35:59Z</time>
      </trkpt>
      <trkpt lat="42.409808000" lon="-2.538356000">
        <ele>496.50</ele>
        <time>2016-10-22T07:36:00Z</time>
      </trkpt>
      <trkpt lat="42.409836000" lon="-2.538376000">
        <ele>496.50</ele>
        <time>2016-10-22T07:36:01Z</time>
      </trkpt>
      <trkpt lat="42.409868000" lon="-2.538391000">
        <ele>496.40</ele>
        <time>2016-10-22T07:36:02Z</time>
      </trkpt>
      <trkpt lat="42.409904000" lon="-2.538402000">
        <ele>496.40</ele>
        <time>2016-10-22T07:36:03Z</time>
      </trkpt>
      <trkpt lat="42.409939000" lon="-2.538408000">
        <ele>496.40</ele>
        <time>2016-10-22T07:36:04Z</time>
      </trkpt>
      <trkpt lat="42.409973000" lon="-2.538418000">
        <ele>496.30</ele>
        <time>2016-10-22T07:36:05Z</time>
      </trkpt>
      <trkpt lat="42.410008000" lon="-2.538423000">
        <ele>496.10</ele>
        <time>2016-10-22T07:36:06Z</time>
      </trkpt>
      <trkpt lat="42.410041000" lon="-2.538437000">
        <ele>496.00</ele>
        <time>2016-10-22T07:36:07Z</time>
      </trkpt>
      <trkpt lat="42.410074000" lon="-2.538452000">
        <ele>495.90</ele>
        <time>2016-10-22T07:36:08Z</time>
      </trkpt>
      <trkpt lat="42.410104000" lon="-2.538472000">
        <ele>495.80</ele>
        <time>2016-10-22T07:36:09Z</time>
      </trkpt>
      <trkpt lat="42.410131000" lon="-2.538494000">
        <ele>495.80</ele>
        <time>2016-10-22T07:36:10Z</time>
      </trkpt>
      <trkpt lat="42.410158000" lon="-2.538518000">
        <ele>495.70</ele>
        <time>2016-10-22T07:36:11Z</time>
      </trkpt>
      <trkpt lat="42.410185000" lon="-2.538545000">
        <ele>495.80</ele>
        <time>2016-10-22T07:36:12Z</time>
      </trkpt>
      <trkpt lat="42.410210000" lon="-2.538574000">
        <ele>495.80</ele>
        <time>2016-10-22T07:36:13Z</time>
      </trkpt>
      <trkpt lat="42.410238000" lon="-2.538602000">
        <ele>495.80</ele>
        <time>2016-10-22T07:36:14Z</time>
      </trkpt>
      <trkpt lat="42.410267000" lon="-2.538634000">
        <ele>495.80</ele>
        <time>2016-10-22T07:36:15Z</time>
      </trkpt>
      <trkpt lat="42.410296000" lon="-2.538663000">
        <ele>495.70</ele>
        <time>2016-10-22T07:36:16Z</time>
      </trkpt>
      <trkpt lat="42.410323000" lon="-2.538690000">
        <ele>495.60</ele>
        <time>2016-10-22T07:36:17Z</time>
      </trkpt>
      <trkpt lat="42.410351000" lon="-2.538711000">
        <ele>495.30</ele>
        <time>2016-10-22T07:36:18Z</time>
      </trkpt>
      <trkpt lat="42.410377000" lon="-2.538734000">
        <ele>495.10</ele>
        <time>2016-10-22T07:36:19Z</time>
      </trkpt>
      <trkpt lat="42.410406000" lon="-2.538759000">
        <ele>494.90</ele>
        <time>2016-10-22T07:36:20Z</time>
      </trkpt>
      <trkpt lat="42.410435000" lon="-2.538786000">
        <ele>494.70</ele>
        <time>2016-10-22T07:36:21Z</time>
      </trkpt>
      <trkpt lat="42.410462000" lon="-2.538814000">
        <ele>494.80</ele>
        <time>2016-10-22T07:36:22Z</time>
      </trkpt>
      <trkpt lat="42.410491000" lon="-2.538842000">
        <ele>494.90</ele>
        <time>2016-10-22T07:36:23Z</time>
      </trkpt>
      <trkpt lat="42.410521000" lon="-2.538868000">
        <ele>495.00</ele>
        <time>2016-10-22T07:36:24Z</time>
      </trkpt>
      <trkpt lat="42.410550000" lon="-2.538899000">
        <ele>495.10</ele>
        <time>2016-10-22T07:36:25Z</time>
      </trkpt>
      <trkpt lat="42.410579000" lon="-2.538928000">
        <ele>495.20</ele>
        <time>2016-10-22T07:36:26Z</time>
      </trkpt>
      <trkpt lat="42.410608000" lon="-2.538954000">
        <ele>495.20</ele>
        <time>2016-10-22T07:36:27Z</time>
      </trkpt>
      <trkpt lat="42.410638000" lon="-2.538979000">
        <ele>495.10</ele>
        <time>2016-10-22T07:36:28Z</time>
      </trkpt>
      <trkpt lat="42.410669000" lon="-2.539002000">
        <ele>494.90</ele>
        <time>2016-10-22T07:36:29Z</time>
      </trkpt>
      <trkpt lat="42.410700000" lon="-2.539031000">
        <ele>494.80</ele>
        <time>2016-10-22T07:36:30Z</time>
      </trkpt>
      <trkpt lat="42.410730000" lon="-2.539053000">
        <ele>494.80</ele>
        <time>2016-10-22T07:36:31Z</time>
      </trkpt>
      <trkpt lat="42.410760000" lon="-2.539078000">
        <ele>494.80</ele>
        <time>2016-10-22T07:36:32Z</time>
      </trkpt>
      <trkpt lat="42.410790000" lon="-2.539103000">
        <ele>494.80</ele>
        <time>2016-10-22T07:36:33Z</time>
      </trkpt>
      <trkpt lat="42.410820000" lon="-2.539127000">
        <ele>494.80</ele>
        <time>2016-10-22T07:36:34Z</time>
      </trkpt>
      <trkpt lat="42.410850000" lon="-2.539153000">
        <ele>494.80</ele>
        <time>2016-10-22T07:36:35Z</time>
      </trkpt>
      <trkpt lat="42.410877000" lon="-2.539177000">
        <ele>494.70</ele>
        <time>2016-10-22T07:36:36Z</time>
      </trkpt>
      <trkpt lat="42.410895000" lon="-2.539195000">
        <ele>494.60</ele>
        <time>2016-10-22T07:36:37Z</time>
      </trkpt>
      <trkpt lat="42.410901000" lon="-2.539208000">
        <ele>494.50</ele>
        <time>2016-10-22T07:36:38Z</time>
      </trkpt>
      <trkpt lat="42.410901000" lon="-2.539219000">
        <ele>494.40</ele>
        <time>2016-10-22T07:36:39Z</time>
      </trkpt>
      <trkpt lat="42.410893000" lon="-2.539219000">
        <ele>494.20</ele>
        <time>2016-10-22T07:36:40Z</time>
      </trkpt>
      <trkpt lat="42.410888000" lon="-2.539209000">
        <ele>494.10</ele>
        <time>2016-10-22T07:36:41Z</time>
      </trkpt>
      <trkpt lat="42.410873000" lon="-2.539196000">
        <ele>494.00</ele>
        <time>2016-10-22T07:36:42Z</time>
      </trkpt>
      <trkpt lat="42.410858000" lon="-2.539183000">
        <ele>494.00</ele>
        <time>2016-10-22T07:36:43Z</time>
      </trkpt>
      <trkpt lat="42.410844000" lon="-2.539166000">
        <ele>493.90</ele>
        <time>2016-10-22T07:36:44Z</time>
      </trkpt>
      <trkpt lat="42.410827000" lon="-2.539150000">
        <ele>493.90</ele>
        <time>2016-10-22T07:36:45Z</time>
      </trkpt>
      <trkpt lat="42.410809000" lon="-2.539130000">
        <ele>493.90</ele>
        <time>2016-10-22T07:36:46Z</time>
      </trkpt>
      <trkpt lat="42.410792000" lon="-2.539111000">
        <ele>493.80</ele>
        <time>2016-10-22T07:36:47Z</time>
      </trkpt>
      <trkpt lat="42.410775000" lon="-2.539095000">
        <ele>493.90</ele>
        <time>2016-10-22T07:36:48Z</time>
      </trkpt>
      <trkpt lat="42.410756000" lon="-2.539079000">
        <ele>494.00</ele>
        <time>2016-10-22T07:36:49Z</time>
      </trkpt>
      <trkpt lat="42.410737000" lon="-2.539061000">
        <ele>494.10</ele>
        <time>2016-10-22T07:36:50Z</time>
      </trkpt>
      <trkpt lat="42.410718000" lon="-2.539044000">
        <ele>494.10</ele>
        <time>2016-10-22T07:36:51Z</time>
      </trkpt>
      <trkpt lat="42.410699000" lon="-2.539026000">
        <ele>494.10</ele>
        <time>2016-10-22T07:36:52Z</time>
      </trkpt>
      <trkpt lat="42.410680000" lon="-2.539005000">
        <ele>494.20</ele>
        <time>2016-10-22T07:36:53Z</time>
      </trkpt>
      <trkpt lat="42.410658000" lon="-2.538985000">
        <ele>494.10</ele>
        <time>2016-10-22T07:36:54Z</time>
      </trkpt>
      <trkpt lat="42.410637000" lon="-2.538966000">
        <ele>494.10</ele>
        <time>2016-10-22T07:36:55Z</time>
      </trkpt>
      <trkpt lat="42.410614000" lon="-2.538946000">
        <ele>494.00</ele>
        <time>2016-10-22T07:36:56Z</time>
      </trkpt>
      <trkpt lat="42.410589000" lon="-2.538929000">
        <ele>494.00</ele>
        <time>2016-10-22T07:36:57Z</time>
      </trkpt>
      <trkpt lat="42.410565000" lon="-2.538908000">
        <ele>494.20</ele>
        <time>2016-10-22T07:36:58Z</time>
      </trkpt>
      <trkpt lat="42.410517000" lon="-2.538861000">
        <ele>494.40</ele>
        <time>2016-10-22T07:37:00Z</time>
      </trkpt>
      <trkpt lat="42.410493000" lon="-2.538838000">
        <ele>494.50</ele>
        <time>2016-10-22T07:37:01Z</time>
      </trkpt>
      <trkpt lat="42.410470000" lon="-2.538815000">
        <ele>494.60</ele>
        <time>2016-10-22T07:37:02Z</time>
      </trkpt>
      <trkpt lat="42.410445000" lon="-2.538792000">
        <ele>494.60</ele>
        <time>2016-10-22T07:37:03Z</time>
      </trkpt>
      <trkpt lat="42.410422000" lon="-2.538768000">
        <ele>494.60</ele>
        <time>2016-10-22T07:37:04Z</time>
      </trkpt>
      <trkpt lat="42.410398000" lon="-2.538748000">
        <ele>494.60</ele>
        <time>2016-10-22T07:37:05Z</time>
      </trkpt>
      <trkpt lat="42.410376000" lon="-2.538728000">
        <ele>494.50</ele>
        <time>2016-10-22T07:37:06Z</time>
      </trkpt>
      <trkpt lat="42.410353000" lon="-2.538706000">
        <ele>494.50</ele>
        <time>2016-10-22T07:37:07Z</time>
      </trkpt>
      <trkpt lat="42.410330000" lon="-2.538683000">
        <ele>494.60</ele>
        <time>2016-10-22T07:37:08Z</time>
      </trkpt>
      <trkpt lat="42.410308000" lon="-2.538653000">
        <ele>494.70</ele>
        <time>2016-10-22T07:37:09Z</time>
      </trkpt>
      <trkpt lat="42.410285000" lon="-2.538625000">
        <ele>494.80</ele>
        <time>2016-10-22T07:37:10Z</time>
      </trkpt>
      <trkpt lat="42.410261000" lon="-2.538599000">
        <ele>494.90</ele>
        <time>2016-10-22T07:37:11Z</time>
      </trkpt>
      <trkpt lat="42.410237000" lon="-2.538575000">
        <ele>495.00</ele>
        <time>2016-10-22T07:37:12Z</time>
      </trkpt>
      <trkpt lat="42.410214000" lon="-2.538550000">
        <ele>495.00</ele>
        <time>2016-10-22T07:37:13Z</time>
      </trkpt>
      <trkpt lat="42.410188000" lon="-2.538526000">
        <ele>495.10</ele>
        <time>2016-10-22T07:37:14Z</time>
      </trkpt>
      <trkpt lat="42.410163000" lon="-2.538502000">
        <ele>495.10</ele>
        <time>2016-10-22T07:37:15Z</time>
      </trkpt>
      <trkpt lat="42.410138000" lon="-2.538480000">
        <ele>495.20</ele>
        <time>2016-10-22T07:37:16Z</time>
      </trkpt>
      <trkpt lat="42.410111000" lon="-2.538463000">
        <ele>495.30</ele>
        <time>2016-10-22T07:37:17Z</time>
      </trkpt>
      <trkpt lat="42.410082000" lon="-2.538445000">
        <ele>495.30</ele>
        <time>2016-10-22T07:37:18Z</time>
      </trkpt>
      <trkpt lat="42.410053000" lon="-2.538429000">
        <ele>495.30</ele>
        <time>2016-10-22T07:37:19Z</time>
      </trkpt>
      <trkpt lat="42.410023000" lon="-2.538417000">
        <ele>495.40</ele>
        <time>2016-10-22T07:37:20Z</time>
      </trkpt>
      <trkpt lat="42.409992000" lon="-2.538409000">
        <ele>495.40</ele>
        <time>2016-10-22T07:37:21Z</time>
      </trkpt>
      <trkpt lat="42.409963000" lon="-2.538402000">
        <ele>495.40</ele>
        <time>2016-10-22T07:37:22Z</time>
      </trkpt>
      <trkpt lat="42.409933000" lon="-2.538394000">
        <ele>495.40</ele>
        <time>2016-10-22T07:37:23Z</time>
      </trkpt>
      <trkpt lat="42.409904000" lon="-2.538387000">
        <ele>495.40</ele>
        <time>2016-10-22T07:37:24Z</time>
      </trkpt>
      <trkpt lat="42.409874000" lon="-2.538381000">
        <ele>495.30</ele>
        <time>2016-10-22T07:37:25Z</time>
      </trkpt>
      <trkpt lat="42.409846000" lon="-2.538367000">
        <ele>495.30</ele>
        <time>2016-10-22T07:37:26Z</time>
      </trkpt>
      <trkpt lat="42.409821000" lon="-2.538348000">
        <ele>495.30</ele>
        <time>2016-10-22T07:37:27Z</time>
      </trkpt>
      <trkpt lat="42.409796000" lon="-2.538325000">
        <ele>495.20</ele>
        <time>2016-10-22T07:37:28Z</time>
      </trkpt>
      <trkpt lat="42.409772000" lon="-2.538299000">
        <ele>495.20</ele>
        <time>2016-10-22T07:37:29Z</time>
      </trkpt>
      <trkpt lat="42.409749000" lon="-2.538274000">
        <ele>495.40</ele>
        <time>2016-10-22T07:37:30Z</time>
      </trkpt>
      <trkpt lat="42.409728000" lon="-2.538247000">
        <ele>495.60</ele>
        <time>2016-10-22T07:37:31Z</time>
      </trkpt>
      <trkpt lat="42.409706000" lon="-2.538219000">
        <ele>495.70</ele>
        <time>2016-10-22T07:37:32Z</time>
      </trkpt>
      <trkpt lat="42.409685000" lon="-2.538187000">
        <ele>495.70</ele>
        <time>2016-10-22T07:37:33Z</time>
      </trkpt>
      <trkpt lat="42.409665000" lon="-2.538155000">
        <ele>495.80</ele>
        <time>2016-10-22T07:37:34Z</time>
      </trkpt>
      <trkpt lat="42.409644000" lon="-2.538124000">
        <ele>495.80</ele>
        <time>2016-10-22T07:37:35Z</time>
      </trkpt>
      <trkpt lat="42.409625000" lon="-2.538095000">
        <ele>495.90</ele>
        <time>2016-10-22T07:37:36Z</time>
      </trkpt>
      <trkpt lat="42.409607000" lon="-2.538066000">
        <ele>495.90</ele>
        <time>2016-10-22T07:37:37Z</time>
      </trkpt>
      <trkpt lat="42.409592000" lon="-2.538038000">
        <ele>495.90</ele>
        <time>2016-10-22T07:37:38Z</time>
      </trkpt>
      <trkpt lat="42.409577000" lon="-2.538009000">
        <ele>495.90</ele>
        <time>2016-10-22T07:37:39Z</time>
      </trkpt>
      <trkpt lat="42.409562000" lon="-2.537980000">
        <ele>495.90</ele>
        <time>2016-10-22T07:37:40Z</time>
      </trkpt>
      <trkpt lat="42.409548000" lon="-2.537952000">
        <ele>496.00</ele>
        <time>2016-10-22T07:37:41Z</time>
      </trkpt>
      <trkpt lat="42.409537000" lon="-2.537921000">
        <ele>496.00</ele>
        <time>2016-10-22T07:37:42Z</time>
      </trkpt>
      <trkpt lat="42.409526000" lon="-2.537889000">
        <ele>496.00</ele>
        <time>2016-10-22T07:37:43Z</time>
      </trkpt>
      <trkpt lat="42.409519000" lon="-2.537858000">
        <ele>496.10</ele>
        <time>2016-10-22T07:37:44Z</time>
      </trkpt>
      <trkpt lat="42.409518000" lon="-2.537830000">
        <ele>496.10</ele>
        <time>2016-10-22T07:37:45Z</time>
      </trkpt>
      <trkpt lat="42.409521000" lon="-2.537803000">
        <ele>496.20</ele>
        <time>2016-10-22T07:37:46Z</time>
      </trkpt>
      <trkpt lat="42.409522000" lon="-2.537776000">
        <ele>496.20</ele>
        <time>2016-10-22T07:37:47Z</time>
      </trkpt>
      <trkpt lat="42.409523000" lon="-2.537750000">
        <ele>496.20</ele>
        <time>2016-10-22T07:37:48Z</time>
      </trkpt>
      <trkpt lat="42.409522000" lon="-2.537723000">
        <ele>496.20</ele>
        <time>2016-10-22T07:37:49Z</time>
      </trkpt>
      <trkpt lat="42.409518000" lon="-2.537699000">
        <ele>496.20</ele>
        <time>2016-10-22T07:37:50Z</time>
      </trkpt>
      <trkpt lat="42.409511000" lon="-2.537673000">
        <ele>496.20</ele>
        <time>2016-10-22T07:37:51Z</time>
      </trkpt>
      <trkpt lat="42.409507000" lon="-2.537649000">
        <ele>496.20</ele>
        <time>2016-10-22T07:37:52Z</time>
      </trkpt>
      <trkpt lat="42.409501000" lon="-2.537622000">
        <ele>496.20</ele>
        <time>2016-10-22T07:37:53Z</time>
      </trkpt>
      <trkpt lat="42.409498000" lon="-2.537595000">
        <ele>496.20</ele>
        <time>2016-10-22T07:37:54Z</time>
      </trkpt>
      <trkpt lat="42.409498000" lon="-2.537570000">
        <ele>496.20</ele>
        <time>2016-10-22T07:37:55Z</time>
      </trkpt>
      <trkpt lat="42.409493000" lon="-2.537547000">
        <ele>496.20</ele>
        <time>2016-10-22T07:37:56Z</time>
      </trkpt>
      <trkpt lat="42.409491000" lon="-2.537525000">
        <ele>496.20</ele>
        <time>2016-10-22T07:37:57Z</time>
      </trkpt>
      <trkpt lat="42.409492000" lon="-2.537501000">
        <ele>496.20</ele>
        <time>2016-10-22T07:37:58Z</time>
      </trkpt>
      <trkpt lat="42.409497000" lon="-2.537476000">
        <ele>496.20</ele>
        <time>2016-10-22T07:37:59Z</time>
      </trkpt>
      <trkpt lat="42.409519000" lon="-2.537425000">
        <ele>496.40</ele>
        <time>2016-10-22T07:38:01Z</time>
      </trkpt>
      <trkpt lat="42.409531000" lon="-2.537399000">
        <ele>496.50</ele>
        <time>2016-10-22T07:38:02Z</time>
      </trkpt>
      <trkpt lat="42.409543000" lon="-2.537370000">
        <ele>496.60</ele>
        <time>2016-10-22T07:38:03Z</time>
      </trkpt>
      <trkpt lat="42.409555000" lon="-2.537342000">
        <ele>496.60</ele>
        <time>2016-10-22T07:38:04Z</time>
      </trkpt>
      <trkpt lat="42.409566000" lon="-2.537310000">
        <ele>496.60</ele>
        <time>2016-10-22T07:38:05Z</time>
      </trkpt>
      <trkpt lat="42.409573000" lon="-2.537281000">
        <ele>496.40</ele>
        <time>2016-10-22T07:38:06Z</time>
      </trkpt>
      <trkpt lat="42.409577000" lon="-2.537254000">
        <ele>496.20</ele>
        <time>2016-10-22T07:38:07Z</time>
      </trkpt>
      <trkpt lat="42.409571000" lon="-2.537231000">
        <ele>496.10</ele>
        <time>2016-10-22T07:38:08Z</time>
      </trkpt>
      <trkpt lat="42.409564000" lon="-2.537207000">
        <ele>495.90</ele>
        <time>2016-10-22T07:38:09Z</time>
      </trkpt>
      <trkpt lat="42.409555000" lon="-2.537181000">
        <ele>495.90</ele>
        <time>2016-10-22T07:38:10Z</time>
      </trkpt>
      <trkpt lat="42.409541000" lon="-2.537156000">
        <ele>495.90</ele>
        <time>2016-10-22T07:38:11Z</time>
      </trkpt>
      <trkpt lat="42.409527000" lon="-2.537127000">
        <ele>496.00</ele>
        <time>2016-10-22T07:38:12Z</time>
      </trkpt>
      <trkpt lat="42.409513000" lon="-2.537097000">
        <ele>496.00</ele>
        <time>2016-10-22T07:38:13Z</time>
      </trkpt>
      <trkpt lat="42.409502000" lon="-2.537066000">
        <ele>496.10</ele>
        <time>2016-10-22T07:38:14Z</time>
      </trkpt>
      <trkpt lat="42.409490000" lon="-2.537031000">
        <ele>496.10</ele>
        <time>2016-10-22T07:38:15Z</time>
      </trkpt>
      <trkpt lat="42.409483000" lon="-2.536999000">
        <ele>496.10</ele>
        <time>2016-10-22T07:38:16Z</time>
      </trkpt>
      <trkpt lat="42.409473000" lon="-2.536965000">
        <ele>496.10</ele>
        <time>2016-10-22T07:38:17Z</time>
      </trkpt>
      <trkpt lat="42.409464000" lon="-2.536931000">
        <ele>495.90</ele>
        <time>2016-10-22T07:38:18Z</time>
      </trkpt>
      <trkpt lat="42.409455000" lon="-2.536897000">
        <ele>495.80</ele>
        <time>2016-10-22T07:38:19Z</time>
      </trkpt>
      <trkpt lat="42.409446000" lon="-2.536861000">
        <ele>495.70</ele>
        <time>2016-10-22T07:38:20Z</time>
      </trkpt>
      <trkpt lat="42.409439000" lon="-2.536825000">
        <ele>495.60</ele>
        <time>2016-10-22T07:38:21Z</time>
      </trkpt>
      <trkpt lat="42.409433000" lon="-2.536791000">
        <ele>495.60</ele>
        <time>2016-10-22T07:38:22Z</time>
      </trkpt>
      <trkpt lat="42.409425000" lon="-2.536757000">
        <ele>495.60</ele>
        <time>2016-10-22T07:38:23Z</time>
      </trkpt>
      <trkpt lat="42.409416000" lon="-2.536722000">
        <ele>495.60</ele>
        <time>2016-10-22T07:38:24Z</time>
      </trkpt>
      <trkpt lat="42.409402000" lon="-2.536690000">
        <ele>495.60</ele>
        <time>2016-10-22T07:38:25Z</time>
      </trkpt>
      <trkpt lat="42.409384000" lon="-2.536659000">
        <ele>495.70</ele>
        <time>2016-10-22T07:38:26Z</time>
      </trkpt>
      <trkpt lat="42.409365000" lon="-2.536629000">
        <ele>495.70</ele>
        <time>2016-10-22T07:38:27Z</time>
      </trkpt>
      <trkpt lat="42.409343000" lon="-2.536600000">
        <ele>495.80</ele>
        <time>2016-10-22T07:38:28Z</time>
      </trkpt>
      <trkpt lat="42.409320000" lon="-2.536575000">
        <ele>495.80</ele>
        <time>2016-10-22T07:38:29Z</time>
      </trkpt>
      <trkpt lat="42.409295000" lon="-2.536551000">
        <ele>495.90</ele>
        <time>2016-10-22T07:38:30Z</time>
      </trkpt>
      <trkpt lat="42.409272000" lon="-2.536528000">
        <ele>496.00</ele>
        <time>2016-10-22T07:38:31Z</time>
      </trkpt>
      <trkpt lat="42.409250000" lon="-2.536507000">
        <ele>496.10</ele>
        <time>2016-10-22T07:38:32Z</time>
      </trkpt>
      <trkpt lat="42.409226000" lon="-2.536489000">
        <ele>496.20</ele>
        <time>2016-10-22T07:38:33Z</time>
      </trkpt>
      <trkpt lat="42.409202000" lon="-2.536471000">
        <ele>496.20</ele>
        <time>2016-10-22T07:38:34Z</time>
      </trkpt>
      <trkpt lat="42.409174000" lon="-2.536455000">
        <ele>496.30</ele>
        <time>2016-10-22T07:38:35Z</time>
      </trkpt>
      <trkpt lat="42.409147000" lon="-2.536433000">
        <ele>496.30</ele>
        <time>2016-10-22T07:38:36Z</time>
      </trkpt>
      <trkpt lat="42.409121000" lon="-2.536409000">
        <ele>496.30</ele>
        <time>2016-10-22T07:38:37Z</time>
      </trkpt>
      <trkpt lat="42.409094000" lon="-2.536387000">
        <ele>496.50</ele>
        <time>2016-10-22T07:38:38Z</time>
      </trkpt>
      <trkpt lat="42.409065000" lon="-2.536367000">
        <ele>496.60</ele>
        <time>2016-10-22T07:38:39Z</time>
      </trkpt>
      <trkpt lat="42.409039000" lon="-2.536343000">
        <ele>496.70</ele>
        <time>2016-10-22T07:38:40Z</time>
      </trkpt>
      <trkpt lat="42.409011000" lon="-2.536320000">
        <ele>496.70</ele>
        <time>2016-10-22T07:38:41Z</time>
      </trkpt>
      <trkpt lat="42.408981000" lon="-2.536299000">
        <ele>496.80</ele>
        <time>2016-10-22T07:38:42Z</time>
      </trkpt>
      <trkpt lat="42.408952000" lon="-2.536276000">
        <ele>496.80</ele>
        <time>2016-10-22T07:38:43Z</time>
      </trkpt>
      <trkpt lat="42.408922000" lon="-2.536250000">
        <ele>496.80</ele>
        <time>2016-10-22T07:38:44Z</time>
      </trkpt>
      <trkpt lat="42.408893000" lon="-2.536223000">
        <ele>496.80</ele>
        <time>2016-10-22T07:38:45Z</time>
      </trkpt>
      <trkpt lat="42.408863000" lon="-2.536198000">
        <ele>496.80</ele>
        <time>2016-10-22T07:38:46Z</time>
      </trkpt>
      <trkpt lat="42.408835000" lon="-2.536173000">
        <ele>496.80</ele>
        <time>2016-10-22T07:38:47Z</time>
      </trkpt>
      <trkpt lat="42.408804000" lon="-2.536149000">
        <ele>496.90</ele>
        <time>2016-10-22T07:38:48Z</time>
      </trkpt>
      <trkpt lat="42.408773000" lon="-2.536126000">
        <ele>497.00</ele>
        <time>2016-10-22T07:38:49Z</time>
      </trkpt>
      <trkpt lat="42.408742000" lon="-2.536098000">
        <ele>497.10</ele>
        <time>2016-10-22T07:38:50Z</time>
      </trkpt>
      <trkpt lat="42.408710000" lon="-2.536069000">
        <ele>497.10</ele>
        <time>2016-10-22T07:38:51Z</time>
      </trkpt>
      <trkpt lat="42.408678000" lon="-2.536044000">
        <ele>497.20</ele>
        <time>2016-10-22T07:38:52Z</time>
      </trkpt>
      <trkpt lat="42.408648000" lon="-2.536015000">
        <ele>497.20</ele>
        <time>2016-10-22T07:38:53Z</time>
      </trkpt>
      <trkpt lat="42.408617000" lon="-2.535987000">
        <ele>497.30</ele>
        <time>2016-10-22T07:38:54Z</time>
      </trkpt>
      <trkpt lat="42.408586000" lon="-2.535962000">
        <ele>497.40</ele>
        <time>2016-10-22T07:38:55Z</time>
      </trkpt>
      <trkpt lat="42.408555000" lon="-2.535934000">
        <ele>497.50</ele>
        <time>2016-10-22T07:38:56Z</time>
      </trkpt>
      <trkpt lat="42.408522000" lon="-2.535904000">
        <ele>497.60</ele>
        <time>2016-10-22T07:38:57Z</time>
      </trkpt>
      <trkpt lat="42.408491000" lon="-2.535873000">
        <ele>497.80</ele>
        <time>2016-10-22T07:38:58Z</time>
      </trkpt>
      <trkpt lat="42.408460000" lon="-2.535843000">
        <ele>497.90</ele>
        <time>2016-10-22T07:38:59Z</time>
      </trkpt>
      <trkpt lat="42.408428000" lon="-2.535811000">
        <ele>498.00</ele>
        <time>2016-10-22T07:39:00Z</time>
      </trkpt>
      <trkpt lat="42.408366000" lon="-2.535747000">
        <ele>498.40</ele>
        <time>2016-10-22T07:39:02Z</time>
      </trkpt>
      <trkpt lat="42.408339000" lon="-2.535714000">
        <ele>498.60</ele>
        <time>2016-10-22T07:39:03Z</time>
      </trkpt>
      <trkpt lat="42.408309000" lon="-2.535683000">
        <ele>498.70</ele>
        <time>2016-10-22T07:39:04Z</time>
      </trkpt>
      <trkpt lat="42.408279000" lon="-2.535651000">
        <ele>498.70</ele>
        <time>2016-10-22T07:39:05Z</time>
      </trkpt>
      <trkpt lat="42.408250000" lon="-2.535618000">
        <ele>498.80</ele>
        <time>2016-10-22T07:39:06Z</time>
      </trkpt>
      <trkpt lat="42.408220000" lon="-2.535587000">
        <ele>498.80</ele>
        <time>2016-10-22T07:39:07Z</time>
      </trkpt>
      <trkpt lat="42.408191000" lon="-2.535556000">
        <ele>498.80</ele>
        <time>2016-10-22T07:39:08Z</time>
      </trkpt>
      <trkpt lat="42.408159000" lon="-2.535528000">
        <ele>498.80</ele>
        <time>2016-10-22T07:39:09Z</time>
      </trkpt>
      <trkpt lat="42.408130000" lon="-2.535502000">
        <ele>499.00</ele>
        <time>2016-10-22T07:39:10Z</time>
      </trkpt>
      <trkpt lat="42.408101000" lon="-2.535472000">
        <ele>499.10</ele>
        <time>2016-10-22T07:39:11Z</time>
      </trkpt>
      <trkpt lat="42.408072000" lon="-2.535441000">
        <ele>499.30</ele>
        <time>2016-10-22T07:39:12Z</time>
      </trkpt>
      <trkpt lat="42.408042000" lon="-2.535410000">
        <ele>499.40</ele>
        <time>2016-10-22T07:39:13Z</time>
      </trkpt>
      <trkpt lat="42.408014000" lon="-2.535378000">
        <ele>499.70</ele>
        <time>2016-10-22T07:39:14Z</time>
      </trkpt>
      <trkpt lat="42.407986000" lon="-2.535345000">
        <ele>499.90</ele>
        <time>2016-10-22T07:39:15Z</time>
      </trkpt>
      <trkpt lat="42.407959000" lon="-2.535312000">
        <ele>500.00</ele>
        <time>2016-10-22T07:39:16Z</time>
      </trkpt>
      <trkpt lat="42.407932000" lon="-2.535280000">
        <ele>500.10</ele>
        <time>2016-10-22T07:39:17Z</time>
      </trkpt>
      <trkpt lat="42.407902000" lon="-2.535250000">
        <ele>500.10</ele>
        <time>2016-10-22T07:39:18Z</time>
      </trkpt>
      <trkpt lat="42.407873000" lon="-2.535220000">
        <ele>500.10</ele>
        <time>2016-10-22T07:39:19Z</time>
      </trkpt>
      <trkpt lat="42.407842000" lon="-2.535189000">
        <ele>500.10</ele>
        <time>2016-10-22T07:39:20Z</time>
      </trkpt>
      <trkpt lat="42.407812000" lon="-2.535160000">
        <ele>500.10</ele>
        <time>2016-10-22T07:39:21Z</time>
      </trkpt>
      <trkpt lat="42.407780000" lon="-2.535133000">
        <ele>500.20</ele>
        <time>2016-10-22T07:39:22Z</time>
      </trkpt>
      <trkpt lat="42.407747000" lon="-2.535106000">
        <ele>500.30</ele>
        <time>2016-10-22T07:39:23Z</time>
      </trkpt>
      <trkpt lat="42.407716000" lon="-2.535081000">
        <ele>500.40</ele>
        <time>2016-10-22T07:39:24Z</time>
      </trkpt>
      <trkpt lat="42.407683000" lon="-2.535053000">
        <ele>500.50</ele>
        <time>2016-10-22T07:39:25Z</time>
      </trkpt>
      <trkpt lat="42.407648000" lon="-2.535031000">
        <ele>500.50</ele>
        <time>2016-10-22T07:39:26Z</time>
      </trkpt>
      <trkpt lat="42.407614000" lon="-2.535005000">
        <ele>500.50</ele>
        <time>2016-10-22T07:39:27Z</time>
      </trkpt>
      <trkpt lat="42.407580000" lon="-2.534982000">
        <ele>500.60</ele>
        <time>2016-10-22T07:39:28Z</time>
      </trkpt>
      <trkpt lat="42.407549000" lon="-2.534954000">
        <ele>500.60</ele>
        <time>2016-10-22T07:39:29Z</time>
      </trkpt>
      <trkpt lat="42.407516000" lon="-2.534927000">
        <ele>500.60</ele>
        <time>2016-10-22T07:39:30Z</time>
      </trkpt>
      <trkpt lat="42.407483000" lon="-2.534900000">
        <ele>500.60</ele>
        <time>2016-10-22T07:39:31Z</time>
      </trkpt>
      <trkpt lat="42.407448000" lon="-2.534873000">
        <ele>500.60</ele>
        <time>2016-10-22T07:39:32Z</time>
      </trkpt>
      <trkpt lat="42.407416000" lon="-2.534842000">
        <ele>500.60</ele>
        <time>2016-10-22T07:39:33Z</time>
      </trkpt>
      <trkpt lat="42.407382000" lon="-2.534814000">
        <ele>500.50</ele>
        <time>2016-10-22T07:39:34Z</time>
      </trkpt>
      <trkpt lat="42.407351000" lon="-2.534784000">
        <ele>500.50</ele>
        <time>2016-10-22T07:39:35Z</time>
      </trkpt>
      <trkpt lat="42.407316000" lon="-2.534752000">
        <ele>500.50</ele>
        <time>2016-10-22T07:39:36Z</time>
      </trkpt>
      <trkpt lat="42.407284000" lon="-2.534718000">
        <ele>500.40</ele>
        <time>2016-10-22T07:39:37Z</time>
      </trkpt>
      <trkpt lat="42.407253000" lon="-2.534686000">
        <ele>500.60</ele>
        <time>2016-10-22T07:39:38Z</time>
      </trkpt>
      <trkpt lat="42.407223000" lon="-2.534652000">
        <ele>500.70</ele>
        <time>2016-10-22T07:39:39Z</time>
      </trkpt>
      <trkpt lat="42.407191000" lon="-2.534620000">
        <ele>500.80</ele>
        <time>2016-10-22T07:39:40Z</time>
      </trkpt>
      <trkpt lat="42.407157000" lon="-2.534588000">
        <ele>500.90</ele>
        <time>2016-10-22T07:39:41Z</time>
      </trkpt>
      <trkpt lat="42.407124000" lon="-2.534554000">
        <ele>501.00</ele>
        <time>2016-10-22T07:39:42Z</time>
      </trkpt>
      <trkpt lat="42.407091000" lon="-2.534521000">
        <ele>501.00</ele>
        <time>2016-10-22T07:39:43Z</time>
      </trkpt>
      <trkpt lat="42.407057000" lon="-2.534489000">
        <ele>501.20</ele>
        <time>2016-10-22T07:39:44Z</time>
      </trkpt>
      <trkpt lat="42.407023000" lon="-2.534462000">
        <ele>501.40</ele>
        <time>2016-10-22T07:39:45Z</time>
      </trkpt>
      <trkpt lat="42.406991000" lon="-2.534436000">
        <ele>501.70</ele>
        <time>2016-10-22T07:39:46Z</time>
      </trkpt>
      <trkpt lat="42.406957000" lon="-2.534415000">
        <ele>502.00</ele>
        <time>2016-10-22T07:39:47Z</time>
      </trkpt>
      <trkpt lat="42.406920000" lon="-2.534392000">
        <ele>502.20</ele>
        <time>2016-10-22T07:39:48Z</time>
      </trkpt>
      <trkpt lat="42.406884000" lon="-2.534375000">
        <ele>502.30</ele>
        <time>2016-10-22T07:39:49Z</time>
      </trkpt>
      <trkpt lat="42.406847000" lon="-2.534360000">
        <ele>502.30</ele>
        <time>2016-10-22T07:39:50Z</time>
      </trkpt>
      <trkpt lat="42.406811000" lon="-2.534345000">
        <ele>502.30</ele>
        <time>2016-10-22T07:39:51Z</time>
      </trkpt>
      <trkpt lat="42.406774000" lon="-2.534332000">
        <ele>502.20</ele>
        <time>2016-10-22T07:39:52Z</time>
      </trkpt>
      <trkpt lat="42.406736000" lon="-2.534320000">
        <ele>502.20</ele>
        <time>2016-10-22T07:39:53Z</time>
      </trkpt>
      <trkpt lat="42.406699000" lon="-2.534312000">
        <ele>502.20</ele>
        <time>2016-10-22T07:39:54Z</time>
      </trkpt>
      <trkpt lat="42.406662000" lon="-2.534305000">
        <ele>502.20</ele>
        <time>2016-10-22T07:39:55Z</time>
      </trkpt>
      <trkpt lat="42.406623000" lon="-2.534297000">
        <ele>502.20</ele>
        <time>2016-10-22T07:39:56Z</time>
      </trkpt>
      <trkpt lat="42.406586000" lon="-2.534291000">
        <ele>502.20</ele>
        <time>2016-10-22T07:39:57Z</time>
      </trkpt>
      <trkpt lat="42.406546000" lon="-2.534286000">
        <ele>502.20</ele>
        <time>2016-10-22T07:39:58Z</time>
      </trkpt>
      <trkpt lat="42.406508000" lon="-2.534283000">
        <ele>502.20</ele>
        <time>2016-10-22T07:39:59Z</time>
      </trkpt>
      <trkpt lat="42.406469000" lon="-2.534280000">
        <ele>502.20</ele>
        <time>2016-10-22T07:40:00Z</time>
      </trkpt>
      <trkpt lat="42.406431000" lon="-2.534279000">
        <ele>502.20</ele>
        <time>2016-10-22T07:40:01Z</time>
      </trkpt>
      <trkpt lat="42.406351000" lon="-2.534281000">
        <ele>502.50</ele>
        <time>2016-10-22T07:40:03Z</time>
      </trkpt>
      <trkpt lat="42.406310000" lon="-2.534281000">
        <ele>502.70</ele>
        <time>2016-10-22T07:40:04Z</time>
      </trkpt>
      <trkpt lat="42.406270000" lon="-2.534280000">
        <ele>502.70</ele>
        <time>2016-10-22T07:40:05Z</time>
      </trkpt>
      <trkpt lat="42.406230000" lon="-2.534280000">
        <ele>502.80</ele>
        <time>2016-10-22T07:40:06Z</time>
      </trkpt>
      <trkpt lat="42.406190000" lon="-2.534279000">
        <ele>502.80</ele>
        <time>2016-10-22T07:40:07Z</time>
      </trkpt>
      <trkpt lat="42.406149000" lon="-2.534277000">
        <ele>502.90</ele>
        <time>2016-10-22T07:40:08Z</time>
      </trkpt>
      <trkpt lat="42.406109000" lon="-2.534273000">
        <ele>502.90</ele>
        <time>2016-10-22T07:40:09Z</time>
      </trkpt>
      <trkpt lat="42.406071000" lon="-2.534272000">
        <ele>503.10</ele>
        <time>2016-10-22T07:40:10Z</time>
      </trkpt>
      <trkpt lat="42.406029000" lon="-2.534267000">
        <ele>503.20</ele>
        <time>2016-10-22T07:40:11Z</time>
      </trkpt>
      <trkpt lat="42.405989000" lon="-2.534266000">
        <ele>503.30</ele>
        <time>2016-10-22T07:40:12Z</time>
      </trkpt>
      <trkpt lat="42.405949000" lon="-2.534258000">
        <ele>503.40</ele>
        <time>2016-10-22T07:40:13Z</time>
      </trkpt>
      <trkpt lat="42.405911000" lon="-2.534253000">
        <ele>503.50</ele>
        <time>2016-10-22T07:40:14Z</time>
      </trkpt>
      <trkpt lat="42.405872000" lon="-2.534249000">
        <ele>503.50</ele>
        <time>2016-10-22T07:40:15Z</time>
      </trkpt>
      <trkpt lat="42.405832000" lon="-2.534246000">
        <ele>503.60</ele>
        <time>2016-10-22T07:40:16Z</time>
      </trkpt>
      <trkpt lat="42.405792000" lon="-2.534242000">
        <ele>503.60</ele>
        <time>2016-10-22T07:40:17Z</time>
      </trkpt>
      <trkpt lat="42.405751000" lon="-2.534238000">
        <ele>503.60</ele>
        <time>2016-10-22T07:40:18Z</time>
      </trkpt>
      <trkpt lat="42.405709000" lon="-2.534234000">
        <ele>503.60</ele>
        <time>2016-10-22T07:40:19Z</time>
      </trkpt>
      <trkpt lat="42.405669000" lon="-2.534233000">
        <ele>503.70</ele>
        <time>2016-10-22T07:40:20Z</time>
      </trkpt>
      <trkpt lat="42.405628000" lon="-2.534234000">
        <ele>503.70</ele>
        <time>2016-10-22T07:40:21Z</time>
      </trkpt>
      <trkpt lat="42.405588000" lon="-2.534236000">
        <ele>503.80</ele>
        <time>2016-10-22T07:40:22Z</time>
      </trkpt>
      <trkpt lat="42.405545000" lon="-2.534239000">
        <ele>503.90</ele>
        <time>2016-10-22T07:40:23Z</time>
      </trkpt>
      <trkpt lat="42.405503000" lon="-2.534241000">
        <ele>504.10</ele>
        <time>2016-10-22T07:40:24Z</time>
      </trkpt>
      <trkpt lat="42.405460000" lon="-2.534243000">
        <ele>504.30</ele>
        <time>2016-10-22T07:40:25Z</time>
      </trkpt>
      <trkpt lat="42.405418000" lon="-2.534241000">
        <ele>504.40</ele>
        <time>2016-10-22T07:40:26Z</time>
      </trkpt>
      <trkpt lat="42.405376000" lon="-2.534242000">
        <ele>504.50</ele>
        <time>2016-10-22T07:40:27Z</time>
      </trkpt>
      <trkpt lat="42.405334000" lon="-2.534244000">
        <ele>504.50</ele>
        <time>2016-10-22T07:40:28Z</time>
      </trkpt>
      <trkpt lat="42.405292000" lon="-2.534243000">
        <ele>504.60</ele>
        <time>2016-10-22T07:40:29Z</time>
      </trkpt>
      <trkpt lat="42.405252000" lon="-2.534245000">
        <ele>504.60</ele>
        <time>2016-10-22T07:40:30Z</time>
      </trkpt>
      <trkpt lat="42.405212000" lon="-2.534248000">
        <ele>504.70</ele>
        <time>2016-10-22T07:40:31Z</time>
      </trkpt>
      <trkpt lat="42.405171000" lon="-2.534251000">
        <ele>504.70</ele>
        <time>2016-10-22T07:40:32Z</time>
      </trkpt>
      <trkpt lat="42.405128000" lon="-2.534257000">
        <ele>504.80</ele>
        <time>2016-10-22T07:40:33Z</time>
      </trkpt>
      <trkpt lat="42.405086000" lon="-2.534263000">
        <ele>504.90</ele>
        <time>2016-10-22T07:40:34Z</time>
      </trkpt>
      <trkpt lat="42.405044000" lon="-2.534274000">
        <ele>504.90</ele>
        <time>2016-10-22T07:40:35Z</time>
      </trkpt>
      <trkpt lat="42.405004000" lon="-2.534285000">
        <ele>504.90</ele>
        <time>2016-10-22T07:40:36Z</time>
      </trkpt>
      <trkpt lat="42.404965000" lon="-2.534296000">
        <ele>504.90</ele>
        <time>2016-10-22T07:40:37Z</time>
      </trkpt>
      <trkpt lat="42.404925000" lon="-2.534308000">
        <ele>504.90</ele>
        <time>2016-10-22T07:40:38Z</time>
      </trkpt>
      <trkpt lat="42.404887000" lon="-2.534319000">
        <ele>504.90</ele>
        <time>2016-10-22T07:40:39Z</time>
      </trkpt>
      <trkpt lat="42.404848000" lon="-2.534327000">
        <ele>504.90</ele>
        <time>2016-10-22T07:40:40Z</time>
      </trkpt>
      <trkpt lat="42.404808000" lon="-2.534327000">
        <ele>504.90</ele>
        <time>2016-10-22T07:40:41Z</time>
      </trkpt>
      <trkpt lat="42.404773000" lon="-2.534317000">
        <ele>505.10</ele>
        <time>2016-10-22T07:40:42Z</time>
      </trkpt>
      <trkpt lat="42.404742000" lon="-2.534295000">
        <ele>505.20</ele>
        <time>2016-10-22T07:40:43Z</time>
      </trkpt>
      <trkpt lat="42.404715000" lon="-2.534269000">
        <ele>505.40</ele>
        <time>2016-10-22T07:40:44Z</time>
      </trkpt>
      <trkpt lat="42.404690000" lon="-2.534238000">
        <ele>505.60</ele>
        <time>2016-10-22T07:40:45Z</time>
      </trkpt>
      <trkpt lat="42.404666000" lon="-2.534202000">
        <ele>505.80</ele>
        <time>2016-10-22T07:40:46Z</time>
      </trkpt>
      <trkpt lat="42.404641000" lon="-2.534163000">
        <ele>505.90</ele>
        <time>2016-10-22T07:40:47Z</time>
      </trkpt>
      <trkpt lat="42.404617000" lon="-2.534124000">
        <ele>506.10</ele>
        <time>2016-10-22T07:40:48Z</time>
      </trkpt>
      <trkpt lat="42.404595000" lon="-2.534082000">
        <ele>506.30</ele>
        <time>2016-10-22T07:40:49Z</time>
      </trkpt>
      <trkpt lat="42.404573000" lon="-2.534041000">
        <ele>506.40</ele>
        <time>2016-10-22T07:40:50Z</time>
      </trkpt>
      <trkpt lat="42.404557000" lon="-2.533999000">
        <ele>506.60</ele>
        <time>2016-10-22T07:40:51Z</time>
      </trkpt>
      <trkpt lat="42.404540000" lon="-2.533958000">
        <ele>506.60</ele>
        <time>2016-10-22T07:40:52Z</time>
      </trkpt>
      <trkpt lat="42.404520000" lon="-2.533918000">
        <ele>506.70</ele>
        <time>2016-10-22T07:40:53Z</time>
      </trkpt>
      <trkpt lat="42.404499000" lon="-2.533881000">
        <ele>506.80</ele>
        <time>2016-10-22T07:40:54Z</time>
      </trkpt>
      <trkpt lat="42.404475000" lon="-2.533845000">
        <ele>506.90</ele>
        <time>2016-10-22T07:40:55Z</time>
      </trkpt>
      <trkpt lat="42.404446000" lon="-2.533815000">
        <ele>507.00</ele>
        <time>2016-10-22T07:40:56Z</time>
      </trkpt>
      <trkpt lat="42.404416000" lon="-2.533787000">
        <ele>507.10</ele>
        <time>2016-10-22T07:40:57Z</time>
      </trkpt>
      <trkpt lat="42.404387000" lon="-2.533762000">
        <ele>507.30</ele>
        <time>2016-10-22T07:40:58Z</time>
      </trkpt>
      <trkpt lat="42.404356000" lon="-2.533741000">
        <ele>507.40</ele>
        <time>2016-10-22T07:40:59Z</time>
      </trkpt>
      <trkpt lat="42.404323000" lon="-2.533724000">
        <ele>507.50</ele>
        <time>2016-10-22T07:41:00Z</time>
      </trkpt>
      <trkpt lat="42.404288000" lon="-2.533712000">
        <ele>507.60</ele>
        <time>2016-10-22T07:41:01Z</time>
      </trkpt>
      <trkpt lat="42.404253000" lon="-2.533696000">
        <ele>507.70</ele>
        <time>2016-10-22T07:41:02Z</time>
      </trkpt>
      <trkpt lat="42.404184000" lon="-2.533665000">
        <ele>508.30</ele>
        <time>2016-10-22T07:41:04Z</time>
      </trkpt>
      <trkpt lat="42.404149000" lon="-2.533650000">
        <ele>508.60</ele>
        <time>2016-10-22T07:41:05Z</time>
      </trkpt>
      <trkpt lat="42.404116000" lon="-2.533632000">
        <ele>509.00</ele>
        <time>2016-10-22T07:41:06Z</time>
      </trkpt>
      <trkpt lat="42.404084000" lon="-2.533612000">
        <ele>509.30</ele>
        <time>2016-10-22T07:41:07Z</time>
      </trkpt>
      <trkpt lat="42.404052000" lon="-2.533591000">
        <ele>509.70</ele>
        <time>2016-10-22T07:41:08Z</time>
      </trkpt>
      <trkpt lat="42.404019000" lon="-2.533571000">
        <ele>509.90</ele>
        <time>2016-10-22T07:41:09Z</time>
      </trkpt>
      <trkpt lat="42.403989000" lon="-2.533549000">
        <ele>510.10</ele>
        <time>2016-10-22T07:41:10Z</time>
      </trkpt>
      <trkpt lat="42.403956000" lon="-2.533527000">
        <ele>510.30</ele>
        <time>2016-10-22T07:41:11Z</time>
      </trkpt>
      <trkpt lat="42.403924000" lon="-2.533505000">
        <ele>510.60</ele>
        <time>2016-10-22T07:41:12Z</time>
      </trkpt>
      <trkpt lat="42.403890000" lon="-2.533480000">
        <ele>510.90</ele>
        <time>2016-10-22T07:41:13Z</time>
      </trkpt>
      <trkpt lat="42.403856000" lon="-2.533455000">
        <ele>511.10</ele>
        <time>2016-10-22T07:41:14Z</time>
      </trkpt>
      <trkpt lat="42.403823000" lon="-2.533425000">
        <ele>511.30</ele>
        <time>2016-10-22T07:41:15Z</time>
      </trkpt>
      <trkpt lat="42.403789000" lon="-2.533393000">
        <ele>511.80</ele>
        <time>2016-10-22T07:41:16Z</time>
      </trkpt>
      <trkpt lat="42.403757000" lon="-2.533358000">
        <ele>512.20</ele>
        <time>2016-10-22T07:41:17Z</time>
      </trkpt>
      <trkpt lat="42.403727000" lon="-2.533323000">
        <ele>512.50</ele>
        <time>2016-10-22T07:41:18Z</time>
      </trkpt>
      <trkpt lat="42.403697000" lon="-2.533289000">
        <ele>512.80</ele>
        <time>2016-10-22T07:41:19Z</time>
      </trkpt>
      <trkpt lat="42.403664000" lon="-2.533254000">
        <ele>513.00</ele>
        <time>2016-10-22T07:41:20Z</time>
      </trkpt>
      <trkpt lat="42.403631000" lon="-2.533218000">
        <ele>513.20</ele>
        <time>2016-10-22T07:41:21Z</time>
      </trkpt>
      <trkpt lat="42.403598000" lon="-2.533184000">
        <ele>513.40</ele>
        <time>2016-10-22T07:41:22Z</time>
      </trkpt>
      <trkpt lat="42.403566000" lon="-2.533151000">
        <ele>513.50</ele>
        <time>2016-10-22T07:41:23Z</time>
      </trkpt>
      <trkpt lat="42.403536000" lon="-2.533115000">
        <ele>513.80</ele>
        <time>2016-10-22T07:41:24Z</time>
      </trkpt>
      <trkpt lat="42.403503000" lon="-2.533081000">
        <ele>514.00</ele>
        <time>2016-10-22T07:41:25Z</time>
      </trkpt>
      <trkpt lat="42.403470000" lon="-2.533050000">
        <ele>514.20</ele>
        <time>2016-10-22T07:41:26Z</time>
      </trkpt>
      <trkpt lat="42.403437000" lon="-2.533020000">
        <ele>514.30</ele>
        <time>2016-10-22T07:41:27Z</time>
      </trkpt>
      <trkpt lat="42.403403000" lon="-2.532990000">
        <ele>514.40</ele>
        <time>2016-10-22T07:41:28Z</time>
      </trkpt>
      <trkpt lat="42.403370000" lon="-2.532961000">
        <ele>514.50</ele>
        <time>2016-10-22T07:41:29Z</time>
      </trkpt>
      <trkpt lat="42.403337000" lon="-2.532932000">
        <ele>514.60</ele>
        <time>2016-10-22T07:41:30Z</time>
      </trkpt>
      <trkpt lat="42.403304000" lon="-2.532907000">
        <ele>514.60</ele>
        <time>2016-10-22T07:41:31Z</time>
      </trkpt>
      <trkpt lat="42.403269000" lon="-2.532885000">
        <ele>514.80</ele>
        <time>2016-10-22T07:41:32Z</time>
      </trkpt>
      <trkpt lat="42.403233000" lon="-2.532862000">
        <ele>514.90</ele>
        <time>2016-10-22T07:41:33Z</time>
      </trkpt>
      <trkpt lat="42.403196000" lon="-2.532841000">
        <ele>515.10</ele>
        <time>2016-10-22T07:41:34Z</time>
      </trkpt>
      <trkpt lat="42.403159000" lon="-2.532821000">
        <ele>515.30</ele>
        <time>2016-10-22T07:41:35Z</time>
      </trkpt>
      <trkpt lat="42.403123000" lon="-2.532797000">
        <ele>515.40</ele>
        <time>2016-10-22T07:41:36Z</time>
      </trkpt>
      <trkpt lat="42.403086000" lon="-2.532777000">
        <ele>515.60</ele>
        <time>2016-10-22T07:41:37Z</time>
      </trkpt>
      <trkpt lat="42.403050000" lon="-2.532758000">
        <ele>515.80</ele>
        <time>2016-10-22T07:41:38Z</time>
      </trkpt>
      <trkpt lat="42.403013000" lon="-2.532742000">
        <ele>516.00</ele>
        <time>2016-10-22T07:41:39Z</time>
      </trkpt>
      <trkpt lat="42.402975000" lon="-2.532728000">
        <ele>516.20</ele>
        <time>2016-10-22T07:41:40Z</time>
      </trkpt>
      <trkpt lat="42.402937000" lon="-2.532714000">
        <ele>516.30</ele>
        <time>2016-10-22T07:41:41Z</time>
      </trkpt>
      <trkpt lat="42.402899000" lon="-2.532700000">
        <ele>516.50</ele>
        <time>2016-10-22T07:41:42Z</time>
      </trkpt>
      <trkpt lat="42.402860000" lon="-2.532681000">
        <ele>516.60</ele>
        <time>2016-10-22T07:41:43Z</time>
      </trkpt>
      <trkpt lat="42.402822000" lon="-2.532656000">
        <ele>516.70</ele>
        <time>2016-10-22T07:41:44Z</time>
      </trkpt>
      <trkpt lat="42.402786000" lon="-2.532632000">
        <ele>516.80</ele>
        <time>2016-10-22T07:41:45Z</time>
      </trkpt>
      <trkpt lat="42.402750000" lon="-2.532609000">
        <ele>516.90</ele>
        <time>2016-10-22T07:41:46Z</time>
      </trkpt>
      <trkpt lat="42.402718000" lon="-2.532583000">
        <ele>516.90</ele>
        <time>2016-10-22T07:41:47Z</time>
      </trkpt>
      <trkpt lat="42.402686000" lon="-2.532553000">
        <ele>517.20</ele>
        <time>2016-10-22T07:41:48Z</time>
      </trkpt>
      <trkpt lat="42.402652000" lon="-2.532522000">
        <ele>517.40</ele>
        <time>2016-10-22T07:41:49Z</time>
      </trkpt>
      <trkpt lat="42.402620000" lon="-2.532490000">
        <ele>517.60</ele>
        <time>2016-10-22T07:41:50Z</time>
      </trkpt>
      <trkpt lat="42.402585000" lon="-2.532460000">
        <ele>517.70</ele>
        <time>2016-10-22T07:41:51Z</time>
      </trkpt>
      <trkpt lat="42.402551000" lon="-2.532428000">
        <ele>517.90</ele>
        <time>2016-10-22T07:41:52Z</time>
      </trkpt>
      <trkpt lat="42.402516000" lon="-2.532394000">
        <ele>518.10</ele>
        <time>2016-10-22T07:41:53Z</time>
      </trkpt>
      <trkpt lat="42.402483000" lon="-2.532362000">
        <ele>518.20</ele>
        <time>2016-10-22T07:41:54Z</time>
      </trkpt>
      <trkpt lat="42.402448000" lon="-2.532329000">
        <ele>518.30</ele>
        <time>2016-10-22T07:41:55Z</time>
      </trkpt>
      <trkpt lat="42.402414000" lon="-2.532299000">
        <ele>518.50</ele>
        <time>2016-10-22T07:41:56Z</time>
      </trkpt>
      <trkpt lat="42.402380000" lon="-2.532265000">
        <ele>518.60</ele>
        <time>2016-10-22T07:41:57Z</time>
      </trkpt>
      <trkpt lat="42.402345000" lon="-2.532232000">
        <ele>518.60</ele>
        <time>2016-10-22T07:41:58Z</time>
      </trkpt>
      <trkpt lat="42.402310000" lon="-2.532199000">
        <ele>518.70</ele>
        <time>2016-10-22T07:41:59Z</time>
      </trkpt>
      <trkpt lat="42.402275000" lon="-2.532164000">
        <ele>518.90</ele>
        <time>2016-10-22T07:42:00Z</time>
      </trkpt>
      <trkpt lat="42.402239000" lon="-2.532128000">
        <ele>519.00</ele>
        <time>2016-10-22T07:42:01Z</time>
      </trkpt>
      <trkpt lat="42.402204000" lon="-2.532097000">
        <ele>519.20</ele>
        <time>2016-10-22T07:42:02Z</time>
      </trkpt>
      <trkpt lat="42.402168000" lon="-2.532065000">
        <ele>519.40</ele>
        <time>2016-10-22T07:42:03Z</time>
      </trkpt>
      <trkpt lat="42.402096000" lon="-2.532002000">
        <ele>519.60</ele>
        <time>2016-10-22T07:42:05Z</time>
      </trkpt>
      <trkpt lat="42.402060000" lon="-2.531974000">
        <ele>519.70</ele>
        <time>2016-10-22T07:42:06Z</time>
      </trkpt>
      <trkpt lat="42.402024000" lon="-2.531945000">
        <ele>519.80</ele>
        <time>2016-10-22T07:42:07Z</time>
      </trkpt>
      <trkpt lat="42.401989000" lon="-2.531915000">
        <ele>519.80</ele>
        <time>2016-10-22T07:42:08Z</time>
      </trkpt>
      <trkpt lat="42.401954000" lon="-2.531888000">
        <ele>519.80</ele>
        <time>2016-10-22T07:42:09Z</time>
      </trkpt>
      <trkpt lat="42.401918000" lon="-2.531863000">
        <ele>519.90</ele>
        <time>2016-10-22T07:42:10Z</time>
      </trkpt>
      <trkpt lat="42.401881000" lon="-2.531839000">
        <ele>519.90</ele>
        <time>2016-10-22T07:42:11Z</time>
      </trkpt>
      <trkpt lat="42.401842000" lon="-2.531814000">
        <ele>520.00</ele>
        <time>2016-10-22T07:42:12Z</time>
      </trkpt>
      <trkpt lat="42.401803000" lon="-2.531792000">
        <ele>520.00</ele>
        <time>2016-10-22T07:42:13Z</time>
      </trkpt>
      <trkpt lat="42.401763000" lon="-2.531767000">
        <ele>520.10</ele>
        <time>2016-10-22T07:42:14Z</time>
      </trkpt>
      <trkpt lat="42.401724000" lon="-2.531739000">
        <ele>520.10</ele>
        <time>2016-10-22T07:42:15Z</time>
      </trkpt>
      <trkpt lat="42.401683000" lon="-2.531712000">
        <ele>520.10</ele>
        <time>2016-10-22T07:42:16Z</time>
      </trkpt>
      <trkpt lat="42.401643000" lon="-2.531688000">
        <ele>520.10</ele>
        <time>2016-10-22T07:42:17Z</time>
      </trkpt>
      <trkpt lat="42.401603000" lon="-2.531663000">
        <ele>520.30</ele>
        <time>2016-10-22T07:42:18Z</time>
      </trkpt>
      <trkpt lat="42.401562000" lon="-2.531638000">
        <ele>520.40</ele>
        <time>2016-10-22T07:42:19Z</time>
      </trkpt>
      <trkpt lat="42.401523000" lon="-2.531615000">
        <ele>520.40</ele>
        <time>2016-10-22T07:42:20Z</time>
      </trkpt>
      <trkpt lat="42.401483000" lon="-2.531591000">
        <ele>520.50</ele>
        <time>2016-10-22T07:42:21Z</time>
      </trkpt>
      <trkpt lat="42.401443000" lon="-2.531566000">
        <ele>520.50</ele>
        <time>2016-10-22T07:42:22Z</time>
      </trkpt>
      <trkpt lat="42.401402000" lon="-2.531545000">
        <ele>520.50</ele>
        <time>2016-10-22T07:42:23Z</time>
      </trkpt>
      <trkpt lat="42.401361000" lon="-2.531523000">
        <ele>520.60</ele>
        <time>2016-10-22T07:42:24Z</time>
      </trkpt>
      <trkpt lat="42.401319000" lon="-2.531499000">
        <ele>520.60</ele>
        <time>2016-10-22T07:42:25Z</time>
      </trkpt>
      <trkpt lat="42.401279000" lon="-2.531475000">
        <ele>520.50</ele>
        <time>2016-10-22T07:42:26Z</time>
      </trkpt>
      <trkpt lat="42.401238000" lon="-2.531450000">
        <ele>520.50</ele>
        <time>2016-10-22T07:42:27Z</time>
      </trkpt>
      <trkpt lat="42.401197000" lon="-2.531425000">
        <ele>520.60</ele>
        <time>2016-10-22T07:42:28Z</time>
      </trkpt>
      <trkpt lat="42.401156000" lon="-2.531399000">
        <ele>520.70</ele>
        <time>2016-10-22T07:42:29Z</time>
      </trkpt>
      <trkpt lat="42.401114000" lon="-2.531373000">
        <ele>520.70</ele>
        <time>2016-10-22T07:42:30Z</time>
      </trkpt>
      <trkpt lat="42.401073000" lon="-2.531349000">
        <ele>520.80</ele>
        <time>2016-10-22T07:42:31Z</time>
      </trkpt>
      <trkpt lat="42.401031000" lon="-2.531326000">
        <ele>520.80</ele>
        <time>2016-10-22T07:42:32Z</time>
      </trkpt>
      <trkpt lat="42.400991000" lon="-2.531301000">
        <ele>520.80</ele>
        <time>2016-10-22T07:42:33Z</time>
      </trkpt>
      <trkpt lat="42.400952000" lon="-2.531275000">
        <ele>520.80</ele>
        <time>2016-10-22T07:42:34Z</time>
      </trkpt>
      <trkpt lat="42.400913000" lon="-2.531250000">
        <ele>520.90</ele>
        <time>2016-10-22T07:42:35Z</time>
      </trkpt>
      <trkpt lat="42.400872000" lon="-2.531227000">
        <ele>520.90</ele>
        <time>2016-10-22T07:42:36Z</time>
      </trkpt>
      <trkpt lat="42.400831000" lon="-2.531205000">
        <ele>520.90</ele>
        <time>2016-10-22T07:42:37Z</time>
      </trkpt>
      <trkpt lat="42.400790000" lon="-2.531181000">
        <ele>520.90</ele>
        <time>2016-10-22T07:42:38Z</time>
      </trkpt>
      <trkpt lat="42.400751000" lon="-2.531156000">
        <ele>520.90</ele>
        <time>2016-10-22T07:42:39Z</time>
      </trkpt>
      <trkpt lat="42.400712000" lon="-2.531129000">
        <ele>521.20</ele>
        <time>2016-10-22T07:42:40Z</time>
      </trkpt>
      <trkpt lat="42.400673000" lon="-2.531099000">
        <ele>521.40</ele>
        <time>2016-10-22T07:42:41Z</time>
      </trkpt>
      <trkpt lat="42.400630000" lon="-2.531068000">
        <ele>521.40</ele>
        <time>2016-10-22T07:42:42Z</time>
      </trkpt>
      <trkpt lat="42.400586000" lon="-2.531032000">
        <ele>521.50</ele>
        <time>2016-10-22T07:42:43Z</time>
      </trkpt>
      <trkpt lat="42.400541000" lon="-2.530993000">
        <ele>521.50</ele>
        <time>2016-10-22T07:42:44Z</time>
      </trkpt>
      <trkpt lat="42.400494000" lon="-2.530955000">
        <ele>521.50</ele>
        <time>2016-10-22T07:42:45Z</time>
      </trkpt>
      <trkpt lat="42.400444000" lon="-2.530921000">
        <ele>521.40</ele>
        <time>2016-10-22T07:42:46Z</time>
      </trkpt>
      <trkpt lat="42.400391000" lon="-2.530886000">
        <ele>521.40</ele>
        <time>2016-10-22T07:42:47Z</time>
      </trkpt>
      <trkpt lat="42.400332000" lon="-2.530849000">
        <ele>521.20</ele>
        <time>2016-10-22T07:42:48Z</time>
      </trkpt>
      <trkpt lat="42.400267000" lon="-2.530810000">
        <ele>521.00</ele>
        <time>2016-10-22T07:42:49Z</time>
      </trkpt>
      <trkpt lat="42.400197000" lon="-2.530772000">
        <ele>520.50</ele>
        <time>2016-10-22T07:42:50Z</time>
      </trkpt>
      <trkpt lat="42.400122000" lon="-2.530732000">
        <ele>520.10</ele>
        <time>2016-10-22T07:42:51Z</time>
      </trkpt>
      <trkpt lat="42.400043000" lon="-2.530694000">
        <ele>519.70</ele>
        <time>2016-10-22T07:42:52Z</time>
      </trkpt>
      <trkpt lat="42.399958000" lon="-2.530664000">
        <ele>519.40</ele>
        <time>2016-10-22T07:42:53Z</time>
      </trkpt>
      <trkpt lat="42.399874000" lon="-2.530652000">
        <ele>518.60</ele>
        <time>2016-10-22T07:42:54Z</time>
      </trkpt>
      <trkpt lat="42.399787000" lon="-2.530655000">
        <ele>518.00</ele>
        <time>2016-10-22T07:42:55Z</time>
      </trkpt>
      <trkpt lat="42.399702000" lon="-2.530662000">
        <ele>517.40</ele>
        <time>2016-10-22T07:42:56Z</time>
      </trkpt>
      <trkpt lat="42.399623000" lon="-2.530677000">
        <ele>516.90</ele>
        <time>2016-10-22T07:42:57Z</time>
      </trkpt>
      <trkpt lat="42.399544000" lon="-2.530686000">
        <ele>516.60</ele>
        <time>2016-10-22T07:42:58Z</time>
      </trkpt>
      <trkpt lat="42.399465000" lon="-2.530699000">
        <ele>516.40</ele>
        <time>2016-10-22T07:42:59Z</time>
      </trkpt>
      <trkpt lat="42.399390000" lon="-2.530707000">
        <ele>515.90</ele>
        <time>2016-10-22T07:43:00Z</time>
      </trkpt>
      <trkpt lat="42.399319000" lon="-2.530703000">
        <ele>515.60</ele>
        <time>2016-10-22T07:43:01Z</time>
      </trkpt>
      <trkpt lat="42.399253000" lon="-2.530694000">
        <ele>515.50</ele>
        <time>2016-10-22T07:43:02Z</time>
      </trkpt>
      <trkpt lat="42.399187000" lon="-2.530679000">
        <ele>515.40</ele>
        <time>2016-10-22T07:43:03Z</time>
      </trkpt>
      <trkpt lat="42.399121000" lon="-2.530661000">
        <ele>515.20</ele>
        <time>2016-10-22T07:43:04Z</time>
      </trkpt>
      <trkpt lat="42.398995000" lon="-2.530616000">
        <ele>515.00</ele>
        <time>2016-10-22T07:43:06Z</time>
      </trkpt>
      <trkpt lat="42.398934000" lon="-2.530591000">
        <ele>515.00</ele>
        <time>2016-10-22T07:43:07Z</time>
      </trkpt>
      <trkpt lat="42.398876000" lon="-2.530567000">
        <ele>514.90</ele>
        <time>2016-10-22T07:43:08Z</time>
      </trkpt>
      <trkpt lat="42.398818000" lon="-2.530554000">
        <ele>514.90</ele>
        <time>2016-10-22T07:43:09Z</time>
      </trkpt>
      <trkpt lat="42.398762000" lon="-2.530543000">
        <ele>515.10</ele>
        <time>2016-10-22T07:43:10Z</time>
      </trkpt>
      <trkpt lat="42.398705000" lon="-2.530533000">
        <ele>515.40</ele>
        <time>2016-10-22T07:43:11Z</time>
      </trkpt>
      <trkpt lat="42.398650000" lon="-2.530523000">
        <ele>515.50</ele>
        <time>2016-10-22T07:43:12Z</time>
      </trkpt>
      <trkpt lat="42.398595000" lon="-2.530518000">
        <ele>515.60</ele>
        <time>2016-10-22T07:43:13Z</time>
      </trkpt>
      <trkpt lat="42.398541000" lon="-2.530511000">
        <ele>515.70</ele>
        <time>2016-10-22T07:43:14Z</time>
      </trkpt>
      <trkpt lat="42.398487000" lon="-2.530504000">
        <ele>515.80</ele>
        <time>2016-10-22T07:43:15Z</time>
      </trkpt>
      <trkpt lat="42.398433000" lon="-2.530496000">
        <ele>515.80</ele>
        <time>2016-10-22T07:43:16Z</time>
      </trkpt>
      <trkpt lat="42.398379000" lon="-2.530491000">
        <ele>515.80</ele>
        <time>2016-10-22T07:43:17Z</time>
      </trkpt>
      <trkpt lat="42.398326000" lon="-2.530488000">
        <ele>515.80</ele>
        <time>2016-10-22T07:43:18Z</time>
      </trkpt>
      <trkpt lat="42.398275000" lon="-2.530482000">
        <ele>515.80</ele>
        <time>2016-10-22T07:43:19Z</time>
      </trkpt>
      <trkpt lat="42.398224000" lon="-2.530475000">
        <ele>515.60</ele>
        <time>2016-10-22T07:43:20Z</time>
      </trkpt>
      <trkpt lat="42.398173000" lon="-2.530464000">
        <ele>515.40</ele>
        <time>2016-10-22T07:43:21Z</time>
      </trkpt>
      <trkpt lat="42.398124000" lon="-2.530449000">
        <ele>515.20</ele>
        <time>2016-10-22T07:43:22Z</time>
      </trkpt>
      <trkpt lat="42.398073000" lon="-2.530438000">
        <ele>515.10</ele>
        <time>2016-10-22T07:43:23Z</time>
      </trkpt>
      <trkpt lat="42.398022000" lon="-2.530424000">
        <ele>515.10</ele>
        <time>2016-10-22T07:43:24Z</time>
      </trkpt>
      <trkpt lat="42.397973000" lon="-2.530404000">
        <ele>515.00</ele>
        <time>2016-10-22T07:43:25Z</time>
      </trkpt>
      <trkpt lat="42.397927000" lon="-2.530378000">
        <ele>515.10</ele>
        <time>2016-10-22T07:43:26Z</time>
      </trkpt>
      <trkpt lat="42.397882000" lon="-2.530350000">
        <ele>515.10</ele>
        <time>2016-10-22T07:43:27Z</time>
      </trkpt>
      <trkpt lat="42.397839000" lon="-2.530317000">
        <ele>515.20</ele>
        <time>2016-10-22T07:43:28Z</time>
      </trkpt>
      <trkpt lat="42.397793000" lon="-2.530291000">
        <ele>515.20</ele>
        <time>2016-10-22T07:43:29Z</time>
      </trkpt>
      <trkpt lat="42.397749000" lon="-2.530262000">
        <ele>515.30</ele>
        <time>2016-10-22T07:43:30Z</time>
      </trkpt>
      <trkpt lat="42.397703000" lon="-2.530236000">
        <ele>515.30</ele>
        <time>2016-10-22T07:43:31Z</time>
      </trkpt>
      <trkpt lat="42.397657000" lon="-2.530213000">
        <ele>515.50</ele>
        <time>2016-10-22T07:43:32Z</time>
      </trkpt>
      <trkpt lat="42.397610000" lon="-2.530194000">
        <ele>515.60</ele>
        <time>2016-10-22T07:43:33Z</time>
      </trkpt>
      <trkpt lat="42.397561000" lon="-2.530178000">
        <ele>515.70</ele>
        <time>2016-10-22T07:43:34Z</time>
      </trkpt>
      <trkpt lat="42.397512000" lon="-2.530159000">
        <ele>515.80</ele>
        <time>2016-10-22T07:43:35Z</time>
      </trkpt>
      <trkpt lat="42.397464000" lon="-2.530138000">
        <ele>516.10</ele>
        <time>2016-10-22T07:43:36Z</time>
      </trkpt>
      <trkpt lat="42.397413000" lon="-2.530122000">
        <ele>516.30</ele>
        <time>2016-10-22T07:43:37Z</time>
      </trkpt>
      <trkpt lat="42.397362000" lon="-2.530105000">
        <ele>516.50</ele>
        <time>2016-10-22T07:43:38Z</time>
      </trkpt>
      <trkpt lat="42.397309000" lon="-2.530089000">
        <ele>516.60</ele>
        <time>2016-10-22T07:43:39Z</time>
      </trkpt>
      <trkpt lat="42.397257000" lon="-2.530075000">
        <ele>516.70</ele>
        <time>2016-10-22T07:43:40Z</time>
      </trkpt>
      <trkpt lat="42.397206000" lon="-2.530065000">
        <ele>516.80</ele>
        <time>2016-10-22T07:43:41Z</time>
      </trkpt>
      <trkpt lat="42.397152000" lon="-2.530062000">
        <ele>516.90</ele>
        <time>2016-10-22T07:43:42Z</time>
      </trkpt>
      <trkpt lat="42.397098000" lon="-2.530064000">
        <ele>517.00</ele>
        <time>2016-10-22T07:43:43Z</time>
      </trkpt>
      <trkpt lat="42.397044000" lon="-2.530071000">
        <ele>516.80</ele>
        <time>2016-10-22T07:43:44Z</time>
      </trkpt>
      <trkpt lat="42.396992000" lon="-2.530083000">
        <ele>516.70</ele>
        <time>2016-10-22T07:43:45Z</time>
      </trkpt>
      <trkpt lat="42.396940000" lon="-2.530098000">
        <ele>516.60</ele>
        <time>2016-10-22T07:43:46Z</time>
      </trkpt>
      <trkpt lat="42.396890000" lon="-2.530112000">
        <ele>516.50</ele>
        <time>2016-10-22T07:43:47Z</time>
      </trkpt>
      <trkpt lat="42.396841000" lon="-2.530125000">
        <ele>516.40</ele>
        <time>2016-10-22T07:43:48Z</time>
      </trkpt>
      <trkpt lat="42.396792000" lon="-2.530136000">
        <ele>516.40</ele>
        <time>2016-10-22T07:43:49Z</time>
      </trkpt>
      <trkpt lat="42.396742000" lon="-2.530150000">
        <ele>516.30</ele>
        <time>2016-10-22T07:43:50Z</time>
      </trkpt>
      <trkpt lat="42.396693000" lon="-2.530165000">
        <ele>516.30</ele>
        <time>2016-10-22T07:43:51Z</time>
      </trkpt>
      <trkpt lat="42.396644000" lon="-2.530181000">
        <ele>516.40</ele>
        <time>2016-10-22T07:43:52Z</time>
      </trkpt>
      <trkpt lat="42.396596000" lon="-2.530207000">
        <ele>516.50</ele>
        <time>2016-10-22T07:43:53Z</time>
      </trkpt>
      <trkpt lat="42.396550000" lon="-2.530237000">
        <ele>516.70</ele>
        <time>2016-10-22T07:43:54Z</time>
      </trkpt>
      <trkpt lat="42.396506000" lon="-2.530264000">
        <ele>516.80</ele>
        <time>2016-10-22T07:43:55Z</time>
      </trkpt>
      <trkpt lat="42.396463000" lon="-2.530296000">
        <ele>516.90</ele>
        <time>2016-10-22T07:43:56Z</time>
      </trkpt>
      <trkpt lat="42.396422000" lon="-2.530333000">
        <ele>517.00</ele>
        <time>2016-10-22T07:43:57Z</time>
      </trkpt>
      <trkpt lat="42.396382000" lon="-2.530369000">
        <ele>517.20</ele>
        <time>2016-10-22T07:43:58Z</time>
      </trkpt>
      <trkpt lat="42.396342000" lon="-2.530411000">
        <ele>517.30</ele>
        <time>2016-10-22T07:43:59Z</time>
      </trkpt>
      <trkpt lat="42.396303000" lon="-2.530451000">
        <ele>517.50</ele>
        <time>2016-10-22T07:44:00Z</time>
      </trkpt>
      <trkpt lat="42.396261000" lon="-2.530486000">
        <ele>517.60</ele>
        <time>2016-10-22T07:44:01Z</time>
      </trkpt>
      <trkpt lat="42.396211000" lon="-2.530517000">
        <ele>517.80</ele>
        <time>2016-10-22T07:44:02Z</time>
      </trkpt>
      <trkpt lat="42.396166000" lon="-2.530548000">
        <ele>517.90</ele>
        <time>2016-10-22T07:44:03Z</time>
      </trkpt>
      <trkpt lat="42.396123000" lon="-2.530585000">
        <ele>518.10</ele>
        <time>2016-10-22T07:44:04Z</time>
      </trkpt>
      <trkpt lat="42.396081000" lon="-2.530621000">
        <ele>518.20</ele>
        <time>2016-10-22T07:44:05Z</time>
      </trkpt>
      <trkpt lat="42.395992000" lon="-2.530696000">
        <ele>518.30</ele>
        <time>2016-10-22T07:44:07Z</time>
      </trkpt>
      <trkpt lat="42.395945000" lon="-2.530728000">
        <ele>518.20</ele>
        <time>2016-10-22T07:44:08Z</time>
      </trkpt>
      <trkpt lat="42.395897000" lon="-2.530758000">
        <ele>518.20</ele>
        <time>2016-10-22T07:44:09Z</time>
      </trkpt>
      <trkpt lat="42.395845000" lon="-2.530772000">
        <ele>518.10</ele>
        <time>2016-10-22T07:44:10Z</time>
      </trkpt>
      <trkpt lat="42.395791000" lon="-2.530779000">
        <ele>518.00</ele>
        <time>2016-10-22T07:44:11Z</time>
      </trkpt>
      <trkpt lat="42.395739000" lon="-2.530784000">
        <ele>517.90</ele>
        <time>2016-10-22T07:44:12Z</time>
      </trkpt>
      <trkpt lat="42.395686000" lon="-2.530784000">
        <ele>517.90</ele>
        <time>2016-10-22T07:44:13Z</time>
      </trkpt>
      <trkpt lat="42.395633000" lon="-2.530780000">
        <ele>517.80</ele>
        <time>2016-10-22T07:44:14Z</time>
      </trkpt>
      <trkpt lat="42.395580000" lon="-2.530776000">
        <ele>517.80</ele>
        <time>2016-10-22T07:44:15Z</time>
      </trkpt>
      <trkpt lat="42.395526000" lon="-2.530773000">
        <ele>517.90</ele>
        <time>2016-10-22T07:44:16Z</time>
      </trkpt>
      <trkpt lat="42.395472000" lon="-2.530768000">
        <ele>518.00</ele>
        <time>2016-10-22T07:44:17Z</time>
      </trkpt>
      <trkpt lat="42.395419000" lon="-2.530760000">
        <ele>518.10</ele>
        <time>2016-10-22T07:44:18Z</time>
      </trkpt>
      <trkpt lat="42.395365000" lon="-2.530750000">
        <ele>518.20</ele>
        <time>2016-10-22T07:44:19Z</time>
      </trkpt>
      <trkpt lat="42.395311000" lon="-2.530743000">
        <ele>518.10</ele>
        <time>2016-10-22T07:44:20Z</time>
      </trkpt>
      <trkpt lat="42.395257000" lon="-2.530741000">
        <ele>518.00</ele>
        <time>2016-10-22T07:44:21Z</time>
      </trkpt>
      <trkpt lat="42.395202000" lon="-2.530741000">
        <ele>517.80</ele>
        <time>2016-10-22T07:44:22Z</time>
      </trkpt>
      <trkpt lat="42.395149000" lon="-2.530737000">
        <ele>517.70</ele>
        <time>2016-10-22T07:44:23Z</time>
      </trkpt>
      <trkpt lat="42.395094000" lon="-2.530732000">
        <ele>517.60</ele>
        <time>2016-10-22T07:44:24Z</time>
      </trkpt>
      <trkpt lat="42.395040000" lon="-2.530728000">
        <ele>517.50</ele>
        <time>2016-10-22T07:44:25Z</time>
      </trkpt>
      <trkpt lat="42.394985000" lon="-2.530728000">
        <ele>517.40</ele>
        <time>2016-10-22T07:44:26Z</time>
      </trkpt>
      <trkpt lat="42.394931000" lon="-2.530735000">
        <ele>517.30</ele>
        <time>2016-10-22T07:44:27Z</time>
      </trkpt>
      <trkpt lat="42.394878000" lon="-2.530742000">
        <ele>517.30</ele>
        <time>2016-10-22T07:44:28Z</time>
      </trkpt>
      <trkpt lat="42.394825000" lon="-2.530750000">
        <ele>517.20</ele>
        <time>2016-10-22T07:44:29Z</time>
      </trkpt>
      <trkpt lat="42.394774000" lon="-2.530754000">
        <ele>517.20</ele>
        <time>2016-10-22T07:44:30Z</time>
      </trkpt>
      <trkpt lat="42.394723000" lon="-2.530757000">
        <ele>517.20</ele>
        <time>2016-10-22T07:44:31Z</time>
      </trkpt>
      <trkpt lat="42.394672000" lon="-2.530758000">
        <ele>517.20</ele>
        <time>2016-10-22T07:44:32Z</time>
      </trkpt>
      <trkpt lat="42.394621000" lon="-2.530754000">
        <ele>517.20</ele>
        <time>2016-10-22T07:44:33Z</time>
      </trkpt>
      <trkpt lat="42.394571000" lon="-2.530744000">
        <ele>517.30</ele>
        <time>2016-10-22T07:44:34Z</time>
      </trkpt>
      <trkpt lat="42.394520000" lon="-2.530734000">
        <ele>517.50</ele>
        <time>2016-10-22T07:44:35Z</time>
      </trkpt>
      <trkpt lat="42.394471000" lon="-2.530718000">
        <ele>517.60</ele>
        <time>2016-10-22T07:44:36Z</time>
      </trkpt>
      <trkpt lat="42.394423000" lon="-2.530704000">
        <ele>517.70</ele>
        <time>2016-10-22T07:44:37Z</time>
      </trkpt>
      <trkpt lat="42.394375000" lon="-2.530688000">
        <ele>517.60</ele>
        <time>2016-10-22T07:44:38Z</time>
      </trkpt>
      <trkpt lat="42.394330000" lon="-2.530670000">
        <ele>517.50</ele>
        <time>2016-10-22T07:44:39Z</time>
      </trkpt>
      <trkpt lat="42.394281000" lon="-2.530654000">
        <ele>517.50</ele>
        <time>2016-10-22T07:44:40Z</time>
      </trkpt>
      <trkpt lat="42.394235000" lon="-2.530641000">
        <ele>517.50</ele>
        <time>2016-10-22T07:44:41Z</time>
      </trkpt>
      <trkpt lat="42.394188000" lon="-2.530624000">
        <ele>517.50</ele>
        <time>2016-10-22T07:44:42Z</time>
      </trkpt>
      <trkpt lat="42.394143000" lon="-2.530605000">
        <ele>517.40</ele>
        <time>2016-10-22T07:44:43Z</time>
      </trkpt>
      <trkpt lat="42.394097000" lon="-2.530589000">
        <ele>517.50</ele>
        <time>2016-10-22T07:44:44Z</time>
      </trkpt>
      <trkpt lat="42.394050000" lon="-2.530577000">
        <ele>517.50</ele>
        <time>2016-10-22T07:44:45Z</time>
      </trkpt>
      <trkpt lat="42.394003000" lon="-2.530565000">
        <ele>517.60</ele>
        <time>2016-10-22T07:44:46Z</time>
      </trkpt>
      <trkpt lat="42.393957000" lon="-2.530553000">
        <ele>517.70</ele>
        <time>2016-10-22T07:44:47Z</time>
      </trkpt>
      <trkpt lat="42.393912000" lon="-2.530541000">
        <ele>517.80</ele>
        <time>2016-10-22T07:44:48Z</time>
      </trkpt>
      <trkpt lat="42.393866000" lon="-2.530530000">
        <ele>517.80</ele>
        <time>2016-10-22T07:44:49Z</time>
      </trkpt>
      <trkpt lat="42.393819000" lon="-2.530520000">
        <ele>517.80</ele>
        <time>2016-10-22T07:44:50Z</time>
      </trkpt>
      <trkpt lat="42.393776000" lon="-2.530503000">
        <ele>517.80</ele>
        <time>2016-10-22T07:44:51Z</time>
      </trkpt>
      <trkpt lat="42.393737000" lon="-2.530476000">
        <ele>517.90</ele>
        <time>2016-10-22T07:44:52Z</time>
      </trkpt>
      <trkpt lat="42.393710000" lon="-2.530428000">
        <ele>517.90</ele>
        <time>2016-10-22T07:44:53Z</time>
      </trkpt>
      <trkpt lat="42.393695000" lon="-2.530373000">
        <ele>518.10</ele>
        <time>2016-10-22T07:44:54Z</time>
      </trkpt>
      <trkpt lat="42.393693000" lon="-2.530316000">
        <ele>518.20</ele>
        <time>2016-10-22T07:44:55Z</time>
      </trkpt>
      <trkpt lat="42.393695000" lon="-2.530264000">
        <ele>518.50</ele>
        <time>2016-10-22T07:44:56Z</time>
      </trkpt>
      <trkpt lat="42.393700000" lon="-2.530209000">
        <ele>518.70</ele>
        <time>2016-10-22T07:44:57Z</time>
      </trkpt>
      <trkpt lat="42.393706000" lon="-2.530161000">
        <ele>518.80</ele>
        <time>2016-10-22T07:44:58Z</time>
      </trkpt>
      <trkpt lat="42.393715000" lon="-2.530114000">
        <ele>518.90</ele>
        <time>2016-10-22T07:44:59Z</time>
      </trkpt>
      <trkpt lat="42.393726000" lon="-2.530070000">
        <ele>519.10</ele>
        <time>2016-10-22T07:45:00Z</time>
      </trkpt>
      <trkpt lat="42.393736000" lon="-2.530024000">
        <ele>519.30</ele>
        <time>2016-10-22T07:45:01Z</time>
      </trkpt>
      <trkpt lat="42.393747000" lon="-2.529979000">
        <ele>519.80</ele>
        <time>2016-10-22T07:45:02Z</time>
      </trkpt>
      <trkpt lat="42.393764000" lon="-2.529934000">
        <ele>520.20</ele>
        <time>2016-10-22T07:45:03Z</time>
      </trkpt>
      <trkpt lat="42.393786000" lon="-2.529894000">
        <ele>520.70</ele>
        <time>2016-10-22T07:45:04Z</time>
      </trkpt>
      <trkpt lat="42.393813000" lon="-2.529855000">
        <ele>521.00</ele>
        <time>2016-10-22T07:45:05Z</time>
      </trkpt>
      <trkpt lat="42.393842000" lon="-2.529816000">
        <ele>521.30</ele>
        <time>2016-10-22T07:45:06Z</time>
      </trkpt>
      <trkpt lat="42.393903000" lon="-2.529737000">
        <ele>521.70</ele>
        <time>2016-10-22T07:45:08Z</time>
      </trkpt>
      <trkpt lat="42.393935000" lon="-2.529698000">
        <ele>521.80</ele>
        <time>2016-10-22T07:45:09Z</time>
      </trkpt>
      <trkpt lat="42.393966000" lon="-2.529659000">
        <ele>521.90</ele>
        <time>2016-10-22T07:45:10Z</time>
      </trkpt>
      <trkpt lat="42.393996000" lon="-2.529619000">
        <ele>521.90</ele>
        <time>2016-10-22T07:45:11Z</time>
      </trkpt>
      <trkpt lat="42.394027000" lon="-2.529576000">
        <ele>522.20</ele>
        <time>2016-10-22T07:45:12Z</time>
      </trkpt>
      <trkpt lat="42.394056000" lon="-2.529532000">
        <ele>522.40</ele>
        <time>2016-10-22T07:45:13Z</time>
      </trkpt>
      <trkpt lat="42.394086000" lon="-2.529488000">
        <ele>522.60</ele>
        <time>2016-10-22T07:45:14Z</time>
      </trkpt>
      <trkpt lat="42.394113000" lon="-2.529440000">
        <ele>522.80</ele>
        <time>2016-10-22T07:45:15Z</time>
      </trkpt>
      <trkpt lat="42.394143000" lon="-2.529394000">
        <ele>523.00</ele>
        <time>2016-10-22T07:45:16Z</time>
      </trkpt>
      <trkpt lat="42.394170000" lon="-2.529347000">
        <ele>523.10</ele>
        <time>2016-10-22T07:45:17Z</time>
      </trkpt>
      <trkpt lat="42.394197000" lon="-2.529299000">
        <ele>523.30</ele>
        <time>2016-10-22T07:45:18Z</time>
      </trkpt>
      <trkpt lat="42.394220000" lon="-2.529250000">
        <ele>523.50</ele>
        <time>2016-10-22T07:45:19Z</time>
      </trkpt>
      <trkpt lat="42.394246000" lon="-2.529201000">
        <ele>523.60</ele>
        <time>2016-10-22T07:45:20Z</time>
      </trkpt>
      <trkpt lat="42.394272000" lon="-2.529150000">
        <ele>523.70</ele>
        <time>2016-10-22T07:45:21Z</time>
      </trkpt>
      <trkpt lat="42.394298000" lon="-2.529100000">
        <ele>523.80</ele>
        <time>2016-10-22T07:45:22Z</time>
      </trkpt>
      <trkpt lat="42.394325000" lon="-2.529051000">
        <ele>523.80</ele>
        <time>2016-10-22T07:45:23Z</time>
      </trkpt>
      <trkpt lat="42.394354000" lon="-2.529004000">
        <ele>523.90</ele>
        <time>2016-10-22T07:45:24Z</time>
      </trkpt>
      <trkpt lat="42.394384000" lon="-2.528956000">
        <ele>524.00</ele>
        <time>2016-10-22T07:45:25Z</time>
      </trkpt>
      <trkpt lat="42.394413000" lon="-2.528908000">
        <ele>524.10</ele>
        <time>2016-10-22T07:45:26Z</time>
      </trkpt>
      <trkpt lat="42.394446000" lon="-2.528860000">
        <ele>524.10</ele>
        <time>2016-10-22T07:45:27Z</time>
      </trkpt>
      <trkpt lat="42.394477000" lon="-2.528815000">
        <ele>524.20</ele>
        <time>2016-10-22T07:45:28Z</time>
      </trkpt>
      <trkpt lat="42.394510000" lon="-2.528770000">
        <ele>524.30</ele>
        <time>2016-10-22T07:45:29Z</time>
      </trkpt>
      <trkpt lat="42.394545000" lon="-2.528727000">
        <ele>524.60</ele>
        <time>2016-10-22T07:45:30Z</time>
      </trkpt>
      <trkpt lat="42.394578000" lon="-2.528684000">
        <ele>524.80</ele>
        <time>2016-10-22T07:45:31Z</time>
      </trkpt>
      <trkpt lat="42.394611000" lon="-2.528641000">
        <ele>525.00</ele>
        <time>2016-10-22T07:45:32Z</time>
      </trkpt>
      <trkpt lat="42.394643000" lon="-2.528595000">
        <ele>525.10</ele>
        <time>2016-10-22T07:45:33Z</time>
      </trkpt>
      <trkpt lat="42.394676000" lon="-2.528551000">
        <ele>525.20</ele>
        <time>2016-10-22T07:45:34Z</time>
      </trkpt>
      <trkpt lat="42.394705000" lon="-2.528506000">
        <ele>525.30</ele>
        <time>2016-10-22T07:45:35Z</time>
      </trkpt>
      <trkpt lat="42.394733000" lon="-2.528457000">
        <ele>525.40</ele>
        <time>2016-10-22T07:45:36Z</time>
      </trkpt>
      <trkpt lat="42.394762000" lon="-2.528407000">
        <ele>525.60</ele>
        <time>2016-10-22T07:45:37Z</time>
      </trkpt>
      <trkpt lat="42.394787000" lon="-2.528355000">
        <ele>525.80</ele>
        <time>2016-10-22T07:45:38Z</time>
      </trkpt>
      <trkpt lat="42.394813000" lon="-2.528298000">
        <ele>526.00</ele>
        <time>2016-10-22T07:45:39Z</time>
      </trkpt>
      <trkpt lat="42.394838000" lon="-2.528243000">
        <ele>526.10</ele>
        <time>2016-10-22T07:45:40Z</time>
      </trkpt>
      <trkpt lat="42.394863000" lon="-2.528187000">
        <ele>526.20</ele>
        <time>2016-10-22T07:45:41Z</time>
      </trkpt>
      <trkpt lat="42.394888000" lon="-2.528128000">
        <ele>526.30</ele>
        <time>2016-10-22T07:45:42Z</time>
      </trkpt>
      <trkpt lat="42.394910000" lon="-2.528069000">
        <ele>526.40</ele>
        <time>2016-10-22T07:45:43Z</time>
      </trkpt>
      <trkpt lat="42.394929000" lon="-2.528007000">
        <ele>526.30</ele>
        <time>2016-10-22T07:45:44Z</time>
      </trkpt>
      <trkpt lat="42.394944000" lon="-2.527943000">
        <ele>526.30</ele>
        <time>2016-10-22T07:45:45Z</time>
      </trkpt>
      <trkpt lat="42.394952000" lon="-2.527879000">
        <ele>526.60</ele>
        <time>2016-10-22T07:45:46Z</time>
      </trkpt>
      <trkpt lat="42.394955000" lon="-2.527813000">
        <ele>526.90</ele>
        <time>2016-10-22T07:45:47Z</time>
      </trkpt>
      <trkpt lat="42.394953000" lon="-2.527749000">
        <ele>527.00</ele>
        <time>2016-10-22T07:45:48Z</time>
      </trkpt>
      <trkpt lat="42.394954000" lon="-2.527685000">
        <ele>527.20</ele>
        <time>2016-10-22T07:45:49Z</time>
      </trkpt>
      <trkpt lat="42.394957000" lon="-2.527622000">
        <ele>527.50</ele>
        <time>2016-10-22T07:45:50Z</time>
      </trkpt>
      <trkpt lat="42.394957000" lon="-2.527560000">
        <ele>527.70</ele>
        <time>2016-10-22T07:45:51Z</time>
      </trkpt>
      <trkpt lat="42.394957000" lon="-2.527495000">
        <ele>527.90</ele>
        <time>2016-10-22T07:45:52Z</time>
      </trkpt>
      <trkpt lat="42.394957000" lon="-2.527431000">
        <ele>528.00</ele>
        <time>2016-10-22T07:45:53Z</time>
      </trkpt>
      <trkpt lat="42.394956000" lon="-2.527367000">
        <ele>528.10</ele>
        <time>2016-10-22T07:45:54Z</time>
      </trkpt>
      <trkpt lat="42.394953000" lon="-2.527305000">
        <ele>528.20</ele>
        <time>2016-10-22T07:45:55Z</time>
      </trkpt>
      <trkpt lat="42.394952000" lon="-2.527241000">
        <ele>528.10</ele>
        <time>2016-10-22T07:45:56Z</time>
      </trkpt>
      <trkpt lat="42.394950000" lon="-2.527180000">
        <ele>528.10</ele>
        <time>2016-10-22T07:45:57Z</time>
      </trkpt>
      <trkpt lat="42.394950000" lon="-2.527117000">
        <ele>528.10</ele>
        <time>2016-10-22T07:45:58Z</time>
      </trkpt>
      <trkpt lat="42.394952000" lon="-2.527052000">
        <ele>528.10</ele>
        <time>2016-10-22T07:45:59Z</time>
      </trkpt>
      <trkpt lat="42.394954000" lon="-2.526988000">
        <ele>528.20</ele>
        <time>2016-10-22T07:46:00Z</time>
      </trkpt>
      <trkpt lat="42.394958000" lon="-2.526923000">
        <ele>528.30</ele>
        <time>2016-10-22T07:46:01Z</time>
      </trkpt>
      <trkpt lat="42.394962000" lon="-2.526859000">
        <ele>528.30</ele>
        <time>2016-10-22T07:46:02Z</time>
      </trkpt>
      <trkpt lat="42.394967000" lon="-2.526794000">
        <ele>528.40</ele>
        <time>2016-10-22T07:46:03Z</time>
      </trkpt>
      <trkpt lat="42.394975000" lon="-2.526729000">
        <ele>528.30</ele>
        <time>2016-10-22T07:46:04Z</time>
      </trkpt>
      <trkpt lat="42.394982000" lon="-2.526665000">
        <ele>528.20</ele>
        <time>2016-10-22T07:46:05Z</time>
      </trkpt>
      <trkpt lat="42.394989000" lon="-2.526601000">
        <ele>528.20</ele>
        <time>2016-10-22T07:46:06Z</time>
      </trkpt>
      <trkpt lat="42.394993000" lon="-2.526537000">
        <ele>528.10</ele>
        <time>2016-10-22T07:46:07Z</time>
      </trkpt>
      <trkpt lat="42.395011000" lon="-2.526405000">
        <ele>528.00</ele>
        <time>2016-10-22T07:46:09Z</time>
      </trkpt>
      <trkpt lat="42.395022000" lon="-2.526338000">
        <ele>527.90</ele>
        <time>2016-10-22T07:46:10Z</time>
      </trkpt>
      <trkpt lat="42.395035000" lon="-2.526275000">
        <ele>527.90</ele>
        <time>2016-10-22T07:46:11Z</time>
      </trkpt>
      <trkpt lat="42.395047000" lon="-2.526211000">
        <ele>527.80</ele>
        <time>2016-10-22T07:46:12Z</time>
      </trkpt>
      <trkpt lat="42.395060000" lon="-2.526148000">
        <ele>527.80</ele>
        <time>2016-10-22T07:46:13Z</time>
      </trkpt>
      <trkpt lat="42.395072000" lon="-2.526087000">
        <ele>527.80</ele>
        <time>2016-10-22T07:46:14Z</time>
      </trkpt>
      <trkpt lat="42.395083000" lon="-2.526025000">
        <ele>527.80</ele>
        <time>2016-10-22T07:46:15Z</time>
      </trkpt>
      <trkpt lat="42.395094000" lon="-2.525963000">
        <ele>527.80</ele>
        <time>2016-10-22T07:46:16Z</time>
      </trkpt>
      <trkpt lat="42.395109000" lon="-2.525905000">
        <ele>527.80</ele>
        <time>2016-10-22T07:46:17Z</time>
      </trkpt>
      <trkpt lat="42.395123000" lon="-2.525849000">
        <ele>527.90</ele>
        <time>2016-10-22T07:46:18Z</time>
      </trkpt>
      <trkpt lat="42.395136000" lon="-2.525799000">
        <ele>528.00</ele>
        <time>2016-10-22T07:46:19Z</time>
      </trkpt>
      <trkpt lat="42.395147000" lon="-2.525750000">
        <ele>528.30</ele>
        <time>2016-10-22T07:46:20Z</time>
      </trkpt>
      <trkpt lat="42.395163000" lon="-2.525705000">
        <ele>528.50</ele>
        <time>2016-10-22T07:46:21Z</time>
      </trkpt>
      <trkpt lat="42.395181000" lon="-2.525664000">
        <ele>528.60</ele>
        <time>2016-10-22T07:46:22Z</time>
      </trkpt>
      <trkpt lat="42.395195000" lon="-2.525625000">
        <ele>528.70</ele>
        <time>2016-10-22T07:46:23Z</time>
      </trkpt>
      <trkpt lat="42.395207000" lon="-2.525588000">
        <ele>529.00</ele>
        <time>2016-10-22T07:46:24Z</time>
      </trkpt>
      <trkpt lat="42.395220000" lon="-2.525552000">
        <ele>529.10</ele>
        <time>2016-10-22T07:46:25Z</time>
      </trkpt>
      <trkpt lat="42.395230000" lon="-2.525516000">
        <ele>529.30</ele>
        <time>2016-10-22T07:46:26Z</time>
      </trkpt>
      <trkpt lat="42.395240000" lon="-2.525481000">
        <ele>529.40</ele>
        <time>2016-10-22T07:46:27Z</time>
      </trkpt>
      <trkpt lat="42.395246000" lon="-2.525447000">
        <ele>529.70</ele>
        <time>2016-10-22T07:46:28Z</time>
      </trkpt>
      <trkpt lat="42.395251000" lon="-2.525413000">
        <ele>529.90</ele>
        <time>2016-10-22T07:46:29Z</time>
      </trkpt>
      <trkpt lat="42.395252000" lon="-2.525381000">
        <ele>530.10</ele>
        <time>2016-10-22T07:46:30Z</time>
      </trkpt>
      <trkpt lat="42.395254000" lon="-2.525350000">
        <ele>530.20</ele>
        <time>2016-10-22T07:46:31Z</time>
      </trkpt>
      <trkpt lat="42.395255000" lon="-2.525327000">
        <ele>530.30</ele>
        <time>2016-10-22T07:46:32Z</time>
      </trkpt>
      <trkpt lat="42.395257000" lon="-2.525310000">
        <ele>530.40</ele>
        <time>2016-10-22T07:46:33Z</time>
      </trkpt>
      <trkpt lat="42.395255000" lon="-2.525307000">
        <ele>530.50</ele>
        <time>2016-10-22T07:46:34Z</time>
      </trkpt>
      <trkpt lat="42.395255000" lon="-2.525307000">
        <ele>530.50</ele>
        <time>2016-10-22T07:46:35Z</time>
      </trkpt>
      <trkpt lat="42.395255000" lon="-2.525307000">
        <ele>530.70</ele>
        <time>2016-10-22T07:46:36Z</time>
      </trkpt>
      <trkpt lat="42.395255000" lon="-2.525307000">
        <ele>530.80</ele>
        <time>2016-10-22T07:46:37Z</time>
      </trkpt>
      <trkpt lat="42.395255000" lon="-2.525307000">
        <ele>531.00</ele>
        <time>2016-10-22T07:46:38Z</time>
      </trkpt>
      <trkpt lat="42.395255000" lon="-2.525307000">
        <ele>531.10</ele>
        <time>2016-10-22T07:46:39Z</time>
      </trkpt>
      <trkpt lat="42.395246000" lon="-2.525289000">
        <ele>531.20</ele>
        <time>2016-10-22T07:46:40Z</time>
      </trkpt>
      <trkpt lat="42.395238000" lon="-2.525271000">
        <ele>531.20</ele>
        <time>2016-10-22T07:46:41Z</time>
      </trkpt>
      <trkpt lat="42.395230000" lon="-2.525249000">
        <ele>531.30</ele>
        <time>2016-10-22T07:46:42Z</time>
      </trkpt>
      <trkpt lat="42.395224000" lon="-2.525229000">
        <ele>531.30</ele>
        <time>2016-10-22T07:46:43Z</time>
      </trkpt>
      <trkpt lat="42.395216000" lon="-2.525209000">
        <ele>531.40</ele>
        <time>2016-10-22T07:46:44Z</time>
      </trkpt>
      <trkpt lat="42.395208000" lon="-2.525188000">
        <ele>531.40</ele>
        <time>2016-10-22T07:46:45Z</time>
      </trkpt>
      <trkpt lat="42.395200000" lon="-2.525159000">
        <ele>531.40</ele>
        <time>2016-10-22T07:46:46Z</time>
      </trkpt>
      <trkpt lat="42.395189000" lon="-2.525125000">
        <ele>531.40</ele>
        <time>2016-10-22T07:46:47Z</time>
      </trkpt>
      <trkpt lat="42.395183000" lon="-2.525089000">
        <ele>531.40</ele>
        <time>2016-10-22T07:46:48Z</time>
      </trkpt>
      <trkpt lat="42.395177000" lon="-2.525046000">
        <ele>531.40</ele>
        <time>2016-10-22T07:46:49Z</time>
      </trkpt>
      <trkpt lat="42.395172000" lon="-2.525001000">
        <ele>531.50</ele>
        <time>2016-10-22T07:46:50Z</time>
      </trkpt>
      <trkpt lat="42.395165000" lon="-2.524954000">
        <ele>531.60</ele>
        <time>2016-10-22T07:46:51Z</time>
      </trkpt>
      <trkpt lat="42.395152000" lon="-2.524905000">
        <ele>531.60</ele>
        <time>2016-10-22T07:46:52Z</time>
      </trkpt>
      <trkpt lat="42.395137000" lon="-2.524854000">
        <ele>531.60</ele>
        <time>2016-10-22T07:46:53Z</time>
      </trkpt>
      <trkpt lat="42.395123000" lon="-2.524798000">
        <ele>531.60</ele>
        <time>2016-10-22T07:46:54Z</time>
      </trkpt>
      <trkpt lat="42.395112000" lon="-2.524741000">
        <ele>531.70</ele>
        <time>2016-10-22T07:46:55Z</time>
      </trkpt>
      <trkpt lat="42.395097000" lon="-2.524690000">
        <ele>531.70</ele>
        <time>2016-10-22T07:46:56Z</time>
      </trkpt>
      <trkpt lat="42.395081000" lon="-2.524642000">
        <ele>531.80</ele>
        <time>2016-10-22T07:46:57Z</time>
      </trkpt>
      <trkpt lat="42.395069000" lon="-2.524594000">
        <ele>532.00</ele>
        <time>2016-10-22T07:46:58Z</time>
      </trkpt>
      <trkpt lat="42.395057000" lon="-2.524550000">
        <ele>532.10</ele>
        <time>2016-10-22T07:46:59Z</time>
      </trkpt>
      <trkpt lat="42.395040000" lon="-2.524510000">
        <ele>532.30</ele>
        <time>2016-10-22T07:47:00Z</time>
      </trkpt>
      <trkpt lat="42.395023000" lon="-2.524469000">
        <ele>532.40</ele>
        <time>2016-10-22T07:47:01Z</time>
      </trkpt>
      <trkpt lat="42.395006000" lon="-2.524431000">
        <ele>532.40</ele>
        <time>2016-10-22T07:47:02Z</time>
      </trkpt>
      <trkpt lat="42.394992000" lon="-2.524392000">
        <ele>532.40</ele>
        <time>2016-10-22T07:47:03Z</time>
      </trkpt>
      <trkpt lat="42.394978000" lon="-2.524353000">
        <ele>532.50</ele>
        <time>2016-10-22T07:47:04Z</time>
      </trkpt>
      <trkpt lat="42.394960000" lon="-2.524315000">
        <ele>532.60</ele>
        <time>2016-10-22T07:47:05Z</time>
      </trkpt>
      <trkpt lat="42.394942000" lon="-2.524278000">
        <ele>532.60</ele>
        <time>2016-10-22T07:47:06Z</time>
      </trkpt>
      <trkpt lat="42.394924000" lon="-2.524243000">
        <ele>532.70</ele>
        <time>2016-10-22T07:47:07Z</time>
      </trkpt>
      <trkpt lat="42.394907000" lon="-2.524206000">
        <ele>532.70</ele>
        <time>2016-10-22T07:47:08Z</time>
      </trkpt>
      <trkpt lat="42.394875000" lon="-2.524127000">
        <ele>532.70</ele>
        <time>2016-10-22T07:47:10Z</time>
      </trkpt>
      <trkpt lat="42.394860000" lon="-2.524089000">
        <ele>532.70</ele>
        <time>2016-10-22T07:47:11Z</time>
      </trkpt>
      <trkpt lat="42.394842000" lon="-2.524050000">
        <ele>532.70</ele>
        <time>2016-10-22T07:47:12Z</time>
      </trkpt>
      <trkpt lat="42.394824000" lon="-2.524012000">
        <ele>532.60</ele>
        <time>2016-10-22T07:47:13Z</time>
      </trkpt>
      <trkpt lat="42.394808000" lon="-2.523973000">
        <ele>532.80</ele>
        <time>2016-10-22T07:47:14Z</time>
      </trkpt>
      <trkpt lat="42.394794000" lon="-2.523937000">
        <ele>532.90</ele>
        <time>2016-10-22T07:47:15Z</time>
      </trkpt>
      <trkpt lat="42.394783000" lon="-2.523901000">
        <ele>533.00</ele>
        <time>2016-10-22T07:47:16Z</time>
      </trkpt>
      <trkpt lat="42.394774000" lon="-2.523866000">
        <ele>533.10</ele>
        <time>2016-10-22T07:47:17Z</time>
      </trkpt>
      <trkpt lat="42.394763000" lon="-2.523832000">
        <ele>533.30</ele>
        <time>2016-10-22T07:47:18Z</time>
      </trkpt>
      <trkpt lat="42.394753000" lon="-2.523795000">
        <ele>533.40</ele>
        <time>2016-10-22T07:47:19Z</time>
      </trkpt>
      <trkpt lat="42.394744000" lon="-2.523758000">
        <ele>533.40</ele>
        <time>2016-10-22T07:47:20Z</time>
      </trkpt>
      <trkpt lat="42.394738000" lon="-2.523720000">
        <ele>533.40</ele>
        <time>2016-10-22T07:47:21Z</time>
      </trkpt>
      <trkpt lat="42.394729000" lon="-2.523680000">
        <ele>533.50</ele>
        <time>2016-10-22T07:47:22Z</time>
      </trkpt>
      <trkpt lat="42.394722000" lon="-2.523643000">
        <ele>533.60</ele>
        <time>2016-10-22T07:47:23Z</time>
      </trkpt>
      <trkpt lat="42.394713000" lon="-2.523605000">
        <ele>533.50</ele>
        <time>2016-10-22T07:47:24Z</time>
      </trkpt>
      <trkpt lat="42.394704000" lon="-2.523567000">
        <ele>533.50</ele>
        <time>2016-10-22T07:47:25Z</time>
      </trkpt>
      <trkpt lat="42.394701000" lon="-2.523530000">
        <ele>533.50</ele>
        <time>2016-10-22T07:47:26Z</time>
      </trkpt>
      <trkpt lat="42.394692000" lon="-2.523495000">
        <ele>533.50</ele>
        <time>2016-10-22T07:47:27Z</time>
      </trkpt>
      <trkpt lat="42.394685000" lon="-2.523457000">
        <ele>533.50</ele>
        <time>2016-10-22T07:47:28Z</time>
      </trkpt>
      <trkpt lat="42.394678000" lon="-2.523420000">
        <ele>533.50</ele>
        <time>2016-10-22T07:47:29Z</time>
      </trkpt>
      <trkpt lat="42.394670000" lon="-2.523385000">
        <ele>533.70</ele>
        <time>2016-10-22T07:47:30Z</time>
      </trkpt>
      <trkpt lat="42.394663000" lon="-2.523351000">
        <ele>533.90</ele>
        <time>2016-10-22T07:47:31Z</time>
      </trkpt>
      <trkpt lat="42.394657000" lon="-2.523319000">
        <ele>534.10</ele>
        <time>2016-10-22T07:47:32Z</time>
      </trkpt>
      <trkpt lat="42.394653000" lon="-2.523287000">
        <ele>534.20</ele>
        <time>2016-10-22T07:47:33Z</time>
      </trkpt>
      <trkpt lat="42.394650000" lon="-2.523254000">
        <ele>534.00</ele>
        <time>2016-10-22T07:47:34Z</time>
      </trkpt>
      <trkpt lat="42.394647000" lon="-2.523219000">
        <ele>533.90</ele>
        <time>2016-10-22T07:47:35Z</time>
      </trkpt>
      <trkpt lat="42.394645000" lon="-2.523183000">
        <ele>533.80</ele>
        <time>2016-10-22T07:47:36Z</time>
      </trkpt>
      <trkpt lat="42.394640000" lon="-2.523146000">
        <ele>533.70</ele>
        <time>2016-10-22T07:47:37Z</time>
      </trkpt>
      <trkpt lat="42.394634000" lon="-2.523108000">
        <ele>533.80</ele>
        <time>2016-10-22T07:47:38Z</time>
      </trkpt>
      <trkpt lat="42.394629000" lon="-2.523066000">
        <ele>533.80</ele>
        <time>2016-10-22T07:47:39Z</time>
      </trkpt>
      <trkpt lat="42.394620000" lon="-2.523027000">
        <ele>533.90</ele>
        <time>2016-10-22T07:47:40Z</time>
      </trkpt>
      <trkpt lat="42.394612000" lon="-2.522989000">
        <ele>533.90</ele>
        <time>2016-10-22T07:47:41Z</time>
      </trkpt>
      <trkpt lat="42.394603000" lon="-2.522949000">
        <ele>533.90</ele>
        <time>2016-10-22T07:47:42Z</time>
      </trkpt>
      <trkpt lat="42.394592000" lon="-2.522911000">
        <ele>533.90</ele>
        <time>2016-10-22T07:47:43Z</time>
      </trkpt>
      <trkpt lat="42.394581000" lon="-2.522874000">
        <ele>533.80</ele>
        <time>2016-10-22T07:47:44Z</time>
      </trkpt>
      <trkpt lat="42.394571000" lon="-2.522834000">
        <ele>533.60</ele>
        <time>2016-10-22T07:47:45Z</time>
      </trkpt>
      <trkpt lat="42.394559000" lon="-2.522795000">
        <ele>533.50</ele>
        <time>2016-10-22T07:47:46Z</time>
      </trkpt>
      <trkpt lat="42.394545000" lon="-2.522756000">
        <ele>533.40</ele>
        <time>2016-10-22T07:47:47Z</time>
      </trkpt>
      <trkpt lat="42.394530000" lon="-2.522716000">
        <ele>533.40</ele>
        <time>2016-10-22T07:47:48Z</time>
      </trkpt>
      <trkpt lat="42.394517000" lon="-2.522676000">
        <ele>533.30</ele>
        <time>2016-10-22T07:47:49Z</time>
      </trkpt>
      <trkpt lat="42.394501000" lon="-2.522636000">
        <ele>533.30</ele>
        <time>2016-10-22T07:47:50Z</time>
      </trkpt>
      <trkpt lat="42.394484000" lon="-2.522594000">
        <ele>533.30</ele>
        <time>2016-10-22T07:47:51Z</time>
      </trkpt>
      <trkpt lat="42.394466000" lon="-2.522554000">
        <ele>533.30</ele>
        <time>2016-10-22T07:47:52Z</time>
      </trkpt>
      <trkpt lat="42.394447000" lon="-2.522513000">
        <ele>533.20</ele>
        <time>2016-10-22T07:47:53Z</time>
      </trkpt>
      <trkpt lat="42.394427000" lon="-2.522470000">
        <ele>533.20</ele>
        <time>2016-10-22T07:47:54Z</time>
      </trkpt>
      <trkpt lat="42.394410000" lon="-2.522429000">
        <ele>533.10</ele>
        <time>2016-10-22T07:47:55Z</time>
      </trkpt>
      <trkpt lat="42.394391000" lon="-2.522384000">
        <ele>533.10</ele>
        <time>2016-10-22T07:47:56Z</time>
      </trkpt>
      <trkpt lat="42.394373000" lon="-2.522343000">
        <ele>533.00</ele>
        <time>2016-10-22T07:47:57Z</time>
      </trkpt>
      <trkpt lat="42.394359000" lon="-2.522298000">
        <ele>533.00</ele>
        <time>2016-10-22T07:47:58Z</time>
      </trkpt>
      <trkpt lat="42.394344000" lon="-2.522255000">
        <ele>533.00</ele>
        <time>2016-10-22T07:47:59Z</time>
      </trkpt>
      <trkpt lat="42.394329000" lon="-2.522211000">
        <ele>532.90</ele>
        <time>2016-10-22T07:48:00Z</time>
      </trkpt>
      <trkpt lat="42.394314000" lon="-2.522167000">
        <ele>532.90</ele>
        <time>2016-10-22T07:48:01Z</time>
      </trkpt>
      <trkpt lat="42.394298000" lon="-2.522123000">
        <ele>532.80</ele>
        <time>2016-10-22T07:48:02Z</time>
      </trkpt>
      <trkpt lat="42.394285000" lon="-2.522080000">
        <ele>532.80</ele>
        <time>2016-10-22T07:48:03Z</time>
      </trkpt>
      <trkpt lat="42.394272000" lon="-2.522035000">
        <ele>532.80</ele>
        <time>2016-10-22T07:48:04Z</time>
      </trkpt>
      <trkpt lat="42.394259000" lon="-2.521991000">
        <ele>532.90</ele>
        <time>2016-10-22T07:48:05Z</time>
      </trkpt>
      <trkpt lat="42.394247000" lon="-2.521943000">
        <ele>532.90</ele>
        <time>2016-10-22T07:48:06Z</time>
      </trkpt>
      <trkpt lat="42.394237000" lon="-2.521896000">
        <ele>532.90</ele>
        <time>2016-10-22T07:48:07Z</time>
      </trkpt>
      <trkpt lat="42.394227000" lon="-2.521846000">
        <ele>533.00</ele>
        <time>2016-10-22T07:48:08Z</time>
      </trkpt>
      <trkpt lat="42.394220000" lon="-2.521796000">
        <ele>533.10</ele>
        <time>2016-10-22T07:48:09Z</time>
      </trkpt>
      <trkpt lat="42.394210000" lon="-2.521695000">
        <ele>533.30</ele>
        <time>2016-10-22T07:48:11Z</time>
      </trkpt>
      <trkpt lat="42.394206000" lon="-2.521647000">
        <ele>533.30</ele>
        <time>2016-10-22T07:48:12Z</time>
      </trkpt>
      <trkpt lat="42.394202000" lon="-2.521598000">
        <ele>533.40</ele>
        <time>2016-10-22T07:48:13Z</time>
      </trkpt>
      <trkpt lat="42.394202000" lon="-2.521551000">
        <ele>533.30</ele>
        <time>2016-10-22T07:48:14Z</time>
      </trkpt>
      <trkpt lat="42.394201000" lon="-2.521501000">
        <ele>533.30</ele>
        <time>2016-10-22T07:48:15Z</time>
      </trkpt>
      <trkpt lat="42.394200000" lon="-2.521450000">
        <ele>533.10</ele>
        <time>2016-10-22T07:48:16Z</time>
      </trkpt>
      <trkpt lat="42.394202000" lon="-2.521396000">
        <ele>533.00</ele>
        <time>2016-10-22T07:48:17Z</time>
      </trkpt>
      <trkpt lat="42.394203000" lon="-2.521341000">
        <ele>532.80</ele>
        <time>2016-10-22T07:48:18Z</time>
      </trkpt>
      <trkpt lat="42.394198000" lon="-2.521284000">
        <ele>532.60</ele>
        <time>2016-10-22T07:48:19Z</time>
      </trkpt>
      <trkpt lat="42.394189000" lon="-2.521220000">
        <ele>532.40</ele>
        <time>2016-10-22T07:48:20Z</time>
      </trkpt>
      <trkpt lat="42.394171000" lon="-2.521154000">
        <ele>532.30</ele>
        <time>2016-10-22T07:48:21Z</time>
      </trkpt>
      <trkpt lat="42.394148000" lon="-2.521084000">
        <ele>532.20</ele>
        <time>2016-10-22T07:48:22Z</time>
      </trkpt>
      <trkpt lat="42.394121000" lon="-2.521019000">
        <ele>532.00</ele>
        <time>2016-10-22T07:48:23Z</time>
      </trkpt>
      <trkpt lat="42.394090000" lon="-2.520958000">
        <ele>531.80</ele>
        <time>2016-10-22T07:48:24Z</time>
      </trkpt>
      <trkpt lat="42.394058000" lon="-2.520900000">
        <ele>531.70</ele>
        <time>2016-10-22T07:48:25Z</time>
      </trkpt>
      <trkpt lat="42.394027000" lon="-2.520846000">
        <ele>531.50</ele>
        <time>2016-10-22T07:48:26Z</time>
      </trkpt>
      <trkpt lat="42.393998000" lon="-2.520793000">
        <ele>531.30</ele>
        <time>2016-10-22T07:48:27Z</time>
      </trkpt>
      <trkpt lat="42.393969000" lon="-2.520743000">
        <ele>531.20</ele>
        <time>2016-10-22T07:48:28Z</time>
      </trkpt>
      <trkpt lat="42.393940000" lon="-2.520696000">
        <ele>531.20</ele>
        <time>2016-10-22T07:48:29Z</time>
      </trkpt>
      <trkpt lat="42.393911000" lon="-2.520649000">
        <ele>531.10</ele>
        <time>2016-10-22T07:48:30Z</time>
      </trkpt>
      <trkpt lat="42.393881000" lon="-2.520600000">
        <ele>531.10</ele>
        <time>2016-10-22T07:48:31Z</time>
      </trkpt>
      <trkpt lat="42.393852000" lon="-2.520556000">
        <ele>531.10</ele>
        <time>2016-10-22T07:48:32Z</time>
      </trkpt>
      <trkpt lat="42.393822000" lon="-2.520512000">
        <ele>531.10</ele>
        <time>2016-10-22T07:48:33Z</time>
      </trkpt>
      <trkpt lat="42.393790000" lon="-2.520469000">
        <ele>531.40</ele>
        <time>2016-10-22T07:48:34Z</time>
      </trkpt>
      <trkpt lat="42.393764000" lon="-2.520433000">
        <ele>531.60</ele>
        <time>2016-10-22T07:48:35Z</time>
      </trkpt>
      <trkpt lat="42.393738000" lon="-2.520397000">
        <ele>532.30</ele>
        <time>2016-10-22T07:48:36Z</time>
      </trkpt>
      <trkpt lat="42.393714000" lon="-2.520359000">
        <ele>532.80</ele>
        <time>2016-10-22T07:48:37Z</time>
      </trkpt>
      <trkpt lat="42.393690000" lon="-2.520315000">
        <ele>533.20</ele>
        <time>2016-10-22T07:48:38Z</time>
      </trkpt>
      <trkpt lat="42.393666000" lon="-2.520267000">
        <ele>533.50</ele>
        <time>2016-10-22T07:48:39Z</time>
      </trkpt>
      <trkpt lat="42.393643000" lon="-2.520212000">
        <ele>533.50</ele>
        <time>2016-10-22T07:48:40Z</time>
      </trkpt>
      <trkpt lat="42.393619000" lon="-2.520149000">
        <ele>533.40</ele>
        <time>2016-10-22T07:48:41Z</time>
      </trkpt>
      <trkpt lat="42.393591000" lon="-2.520087000">
        <ele>533.40</ele>
        <time>2016-10-22T07:48:42Z</time>
      </trkpt>
      <trkpt lat="42.393556000" lon="-2.520027000">
        <ele>533.30</ele>
        <time>2016-10-22T07:48:43Z</time>
      </trkpt>
      <trkpt lat="42.393515000" lon="-2.519976000">
        <ele>533.30</ele>
        <time>2016-10-22T07:48:44Z</time>
      </trkpt>
      <trkpt lat="42.393468000" lon="-2.519940000">
        <ele>533.20</ele>
        <time>2016-10-22T07:48:45Z</time>
      </trkpt>
      <trkpt lat="42.393423000" lon="-2.519917000">
        <ele>533.10</ele>
        <time>2016-10-22T07:48:46Z</time>
      </trkpt>
      <trkpt lat="42.393379000" lon="-2.519896000">
        <ele>533.10</ele>
        <time>2016-10-22T07:48:47Z</time>
      </trkpt>
      <trkpt lat="42.393340000" lon="-2.519867000">
        <ele>533.00</ele>
        <time>2016-10-22T07:48:48Z</time>
      </trkpt>
      <trkpt lat="42.393307000" lon="-2.519831000">
        <ele>533.00</ele>
        <time>2016-10-22T07:48:49Z</time>
      </trkpt>
      <trkpt lat="42.393278000" lon="-2.519790000">
        <ele>533.10</ele>
        <time>2016-10-22T07:48:50Z</time>
      </trkpt>
      <trkpt lat="42.393253000" lon="-2.519743000">
        <ele>533.30</ele>
        <time>2016-10-22T07:48:51Z</time>
      </trkpt>
      <trkpt lat="42.393232000" lon="-2.519696000">
        <ele>533.40</ele>
        <time>2016-10-22T07:48:52Z</time>
      </trkpt>
      <trkpt lat="42.393212000" lon="-2.519653000">
        <ele>533.50</ele>
        <time>2016-10-22T07:48:53Z</time>
      </trkpt>
      <trkpt lat="42.393191000" lon="-2.519609000">
        <ele>533.80</ele>
        <time>2016-10-22T07:48:54Z</time>
      </trkpt>
      <trkpt lat="42.393168000" lon="-2.519567000">
        <ele>533.90</ele>
        <time>2016-10-22T07:48:55Z</time>
      </trkpt>
      <trkpt lat="42.393141000" lon="-2.519528000">
        <ele>534.10</ele>
        <time>2016-10-22T07:48:56Z</time>
      </trkpt>
      <trkpt lat="42.393113000" lon="-2.519487000">
        <ele>534.20</ele>
        <time>2016-10-22T07:48:57Z</time>
      </trkpt>
      <trkpt lat="42.393081000" lon="-2.519448000">
        <ele>534.30</ele>
        <time>2016-10-22T07:48:58Z</time>
      </trkpt>
      <trkpt lat="42.393046000" lon="-2.519408000">
        <ele>534.40</ele>
        <time>2016-10-22T07:48:59Z</time>
      </trkpt>
      <trkpt lat="42.393009000" lon="-2.519375000">
        <ele>534.50</ele>
        <time>2016-10-22T07:49:00Z</time>
      </trkpt>
      <trkpt lat="42.392971000" lon="-2.519344000">
        <ele>534.60</ele>
        <time>2016-10-22T07:49:01Z</time>
      </trkpt>
      <trkpt lat="42.392932000" lon="-2.519312000">
        <ele>534.60</ele>
        <time>2016-10-22T07:49:02Z</time>
      </trkpt>
      <trkpt lat="42.392892000" lon="-2.519281000">
        <ele>534.60</ele>
        <time>2016-10-22T07:49:03Z</time>
      </trkpt>
      <trkpt lat="42.392852000" lon="-2.519250000">
        <ele>534.60</ele>
        <time>2016-10-22T07:49:04Z</time>
      </trkpt>
      <trkpt lat="42.392813000" lon="-2.519219000">
        <ele>534.50</ele>
        <time>2016-10-22T07:49:05Z</time>
      </trkpt>
      <trkpt lat="42.392772000" lon="-2.519188000">
        <ele>534.50</ele>
        <time>2016-10-22T07:49:06Z</time>
      </trkpt>
      <trkpt lat="42.392733000" lon="-2.519162000">
        <ele>534.50</ele>
        <time>2016-10-22T07:49:07Z</time>
      </trkpt>
      <trkpt lat="42.392691000" lon="-2.519140000">
        <ele>534.40</ele>
        <time>2016-10-22T07:49:08Z</time>
      </trkpt>
      <trkpt lat="42.392650000" lon="-2.519119000">
        <ele>534.40</ele>
        <time>2016-10-22T07:49:09Z</time>
      </trkpt>
      <trkpt lat="42.392610000" lon="-2.519101000">
        <ele>534.30</ele>
        <time>2016-10-22T07:49:10Z</time>
      </trkpt>
      <trkpt lat="42.392549000" lon="-2.519065000">
        <ele>534.40</ele>
        <time>2016-10-22T07:49:12Z</time>
      </trkpt>
      <trkpt lat="42.392531000" lon="-2.519043000">
        <ele>534.60</ele>
        <time>2016-10-22T07:49:13Z</time>
      </trkpt>
      <trkpt lat="42.392519000" lon="-2.519019000">
        <ele>534.70</ele>
        <time>2016-10-22T07:49:14Z</time>
      </trkpt>
      <trkpt lat="42.392512000" lon="-2.518996000">
        <ele>534.70</ele>
        <time>2016-10-22T07:49:15Z</time>
      </trkpt>
      <trkpt lat="42.392511000" lon="-2.518969000">
        <ele>534.70</ele>
        <time>2016-10-22T07:49:16Z</time>
      </trkpt>
      <trkpt lat="42.392517000" lon="-2.518935000">
        <ele>534.60</ele>
        <time>2016-10-22T07:49:17Z</time>
      </trkpt>
      <trkpt lat="42.392529000" lon="-2.518893000">
        <ele>534.40</ele>
        <time>2016-10-22T07:49:18Z</time>
      </trkpt>
      <trkpt lat="42.392549000" lon="-2.518846000">
        <ele>534.30</ele>
        <time>2016-10-22T07:49:19Z</time>
      </trkpt>
      <trkpt lat="42.392572000" lon="-2.518787000">
        <ele>534.10</ele>
        <time>2016-10-22T07:49:20Z</time>
      </trkpt>
      <trkpt lat="42.392606000" lon="-2.518725000">
        <ele>534.00</ele>
        <time>2016-10-22T07:49:21Z</time>
      </trkpt>
      <trkpt lat="42.392647000" lon="-2.518658000">
        <ele>533.80</ele>
        <time>2016-10-22T07:49:22Z</time>
      </trkpt>
      <trkpt lat="42.392691000" lon="-2.518594000">
        <ele>533.60</ele>
        <time>2016-10-22T07:49:23Z</time>
      </trkpt>
      <trkpt lat="42.392736000" lon="-2.518534000">
        <ele>533.40</ele>
        <time>2016-10-22T07:49:24Z</time>
      </trkpt>
      <trkpt lat="42.392785000" lon="-2.518473000">
        <ele>533.20</ele>
        <time>2016-10-22T07:49:25Z</time>
      </trkpt>
      <trkpt lat="42.392834000" lon="-2.518411000">
        <ele>532.90</ele>
        <time>2016-10-22T07:49:26Z</time>
      </trkpt>
      <trkpt lat="42.392882000" lon="-2.518349000">
        <ele>532.70</ele>
        <time>2016-10-22T07:49:27Z</time>
      </trkpt>
      <trkpt lat="42.392925000" lon="-2.518288000">
        <ele>532.40</ele>
        <time>2016-10-22T07:49:28Z</time>
      </trkpt>
      <trkpt lat="42.392971000" lon="-2.518226000">
        <ele>532.20</ele>
        <time>2016-10-22T07:49:29Z</time>
      </trkpt>
      <trkpt lat="42.393015000" lon="-2.518165000">
        <ele>531.80</ele>
        <time>2016-10-22T07:49:30Z</time>
      </trkpt>
      <trkpt lat="42.393061000" lon="-2.518102000">
        <ele>531.50</ele>
        <time>2016-10-22T07:49:31Z</time>
      </trkpt>
      <trkpt lat="42.393105000" lon="-2.518045000">
        <ele>531.20</ele>
        <time>2016-10-22T07:49:32Z</time>
      </trkpt>
      <trkpt lat="42.393142000" lon="-2.518000000">
        <ele>531.00</ele>
        <time>2016-10-22T07:49:33Z</time>
      </trkpt>
      <trkpt lat="42.393169000" lon="-2.517959000">
        <ele>530.70</ele>
        <time>2016-10-22T07:49:34Z</time>
      </trkpt>
      <trkpt lat="42.393187000" lon="-2.517924000">
        <ele>530.40</ele>
        <time>2016-10-22T07:49:35Z</time>
      </trkpt>
      <trkpt lat="42.393192000" lon="-2.517894000">
        <ele>530.20</ele>
        <time>2016-10-22T07:49:36Z</time>
      </trkpt>
      <trkpt lat="42.393193000" lon="-2.517864000">
        <ele>530.00</ele>
        <time>2016-10-22T07:49:37Z</time>
      </trkpt>
      <trkpt lat="42.393189000" lon="-2.517836000">
        <ele>529.70</ele>
        <time>2016-10-22T07:49:38Z</time>
      </trkpt>
      <trkpt lat="42.393177000" lon="-2.517806000">
        <ele>529.40</ele>
        <time>2016-10-22T07:49:39Z</time>
      </trkpt>
      <trkpt lat="42.393164000" lon="-2.517771000">
        <ele>529.30</ele>
        <time>2016-10-22T07:49:40Z</time>
      </trkpt>
      <trkpt lat="42.393147000" lon="-2.517733000">
        <ele>529.10</ele>
        <time>2016-10-22T07:49:41Z</time>
      </trkpt>
      <trkpt lat="42.393129000" lon="-2.517689000">
        <ele>529.00</ele>
        <time>2016-10-22T07:49:42Z</time>
      </trkpt>
      <trkpt lat="42.393113000" lon="-2.517644000">
        <ele>528.90</ele>
        <time>2016-10-22T07:49:43Z</time>
      </trkpt>
      <trkpt lat="42.393094000" lon="-2.517592000">
        <ele>528.90</ele>
        <time>2016-10-22T07:49:44Z</time>
      </trkpt>
      <trkpt lat="42.393075000" lon="-2.517542000">
        <ele>528.80</ele>
        <time>2016-10-22T07:49:45Z</time>
      </trkpt>
      <trkpt lat="42.393054000" lon="-2.517489000">
        <ele>528.80</ele>
        <time>2016-10-22T07:49:46Z</time>
      </trkpt>
      <trkpt lat="42.393035000" lon="-2.517438000">
        <ele>528.80</ele>
        <time>2016-10-22T07:49:47Z</time>
      </trkpt>
      <trkpt lat="42.393015000" lon="-2.517386000">
        <ele>528.80</ele>
        <time>2016-10-22T07:49:48Z</time>
      </trkpt>
      <trkpt lat="42.392997000" lon="-2.517334000">
        <ele>528.90</ele>
        <time>2016-10-22T07:49:49Z</time>
      </trkpt>
      <trkpt lat="42.392982000" lon="-2.517281000">
        <ele>528.90</ele>
        <time>2016-10-22T07:49:50Z</time>
      </trkpt>
      <trkpt lat="42.392967000" lon="-2.517224000">
        <ele>528.90</ele>
        <time>2016-10-22T07:49:51Z</time>
      </trkpt>
      <trkpt lat="42.392951000" lon="-2.517166000">
        <ele>529.00</ele>
        <time>2016-10-22T07:49:52Z</time>
      </trkpt>
      <trkpt lat="42.392934000" lon="-2.517106000">
        <ele>529.10</ele>
        <time>2016-10-22T07:49:53Z</time>
      </trkpt>
      <trkpt lat="42.392917000" lon="-2.517046000">
        <ele>529.20</ele>
        <time>2016-10-22T07:49:54Z</time>
      </trkpt>
      <trkpt lat="42.392908000" lon="-2.516985000">
        <ele>529.30</ele>
        <time>2016-10-22T07:49:55Z</time>
      </trkpt>
      <trkpt lat="42.392901000" lon="-2.516926000">
        <ele>529.30</ele>
        <time>2016-10-22T07:49:56Z</time>
      </trkpt>
      <trkpt lat="42.392895000" lon="-2.516865000">
        <ele>529.40</ele>
        <time>2016-10-22T07:49:57Z</time>
      </trkpt>
      <trkpt lat="42.392893000" lon="-2.516805000">
        <ele>529.40</ele>
        <time>2016-10-22T07:49:58Z</time>
      </trkpt>
      <trkpt lat="42.392893000" lon="-2.516743000">
        <ele>529.40</ele>
        <time>2016-10-22T07:49:59Z</time>
      </trkpt>
      <trkpt lat="42.392894000" lon="-2.516682000">
        <ele>529.30</ele>
        <time>2016-10-22T07:50:00Z</time>
      </trkpt>
      <trkpt lat="42.392896000" lon="-2.516619000">
        <ele>529.10</ele>
        <time>2016-10-22T07:50:01Z</time>
      </trkpt>
      <trkpt lat="42.392896000" lon="-2.516554000">
        <ele>529.00</ele>
        <time>2016-10-22T07:50:02Z</time>
      </trkpt>
      <trkpt lat="42.392893000" lon="-2.516489000">
        <ele>528.80</ele>
        <time>2016-10-22T07:50:03Z</time>
      </trkpt>
      <trkpt lat="42.392893000" lon="-2.516423000">
        <ele>528.80</ele>
        <time>2016-10-22T07:50:04Z</time>
      </trkpt>
      <trkpt lat="42.392893000" lon="-2.516357000">
        <ele>528.80</ele>
        <time>2016-10-22T07:50:05Z</time>
      </trkpt>
      <trkpt lat="42.392890000" lon="-2.516292000">
        <ele>529.20</ele>
        <time>2016-10-22T07:50:06Z</time>
      </trkpt>
      <trkpt lat="42.392886000" lon="-2.516228000">
        <ele>529.40</ele>
        <time>2016-10-22T07:50:07Z</time>
      </trkpt>
      <trkpt lat="42.392881000" lon="-2.516163000">
        <ele>529.70</ele>
        <time>2016-10-22T07:50:08Z</time>
      </trkpt>
      <trkpt lat="42.392875000" lon="-2.516100000">
        <ele>529.80</ele>
        <time>2016-10-22T07:50:09Z</time>
      </trkpt>
      <trkpt lat="42.392868000" lon="-2.516039000">
        <ele>529.90</ele>
        <time>2016-10-22T07:50:10Z</time>
      </trkpt>
      <trkpt lat="42.392860000" lon="-2.515979000">
        <ele>530.00</ele>
        <time>2016-10-22T07:50:11Z</time>
      </trkpt>
      <trkpt lat="42.392836000" lon="-2.515857000">
        <ele>530.10</ele>
        <time>2016-10-22T07:50:13Z</time>
      </trkpt>
      <trkpt lat="42.392821000" lon="-2.515796000">
        <ele>530.10</ele>
        <time>2016-10-22T07:50:14Z</time>
      </trkpt>
      <trkpt lat="42.392801000" lon="-2.515740000">
        <ele>530.10</ele>
        <time>2016-10-22T07:50:15Z</time>
      </trkpt>
      <trkpt lat="42.392779000" lon="-2.515687000">
        <ele>530.10</ele>
        <time>2016-10-22T07:50:16Z</time>
      </trkpt>
      <trkpt lat="42.392756000" lon="-2.515632000">
        <ele>530.10</ele>
        <time>2016-10-22T07:50:17Z</time>
      </trkpt>
      <trkpt lat="42.392734000" lon="-2.515580000">
        <ele>530.10</ele>
        <time>2016-10-22T07:50:18Z</time>
      </trkpt>
      <trkpt lat="42.392711000" lon="-2.515527000">
        <ele>530.10</ele>
        <time>2016-10-22T07:50:19Z</time>
      </trkpt>
      <trkpt lat="42.392695000" lon="-2.515472000">
        <ele>530.10</ele>
        <time>2016-10-22T07:50:20Z</time>
      </trkpt>
      <trkpt lat="42.392681000" lon="-2.515412000">
        <ele>530.10</ele>
        <time>2016-10-22T07:50:21Z</time>
      </trkpt>
      <trkpt lat="42.392671000" lon="-2.515352000">
        <ele>530.10</ele>
        <time>2016-10-22T07:50:22Z</time>
      </trkpt>
      <trkpt lat="42.392659000" lon="-2.515291000">
        <ele>530.10</ele>
        <time>2016-10-22T07:50:23Z</time>
      </trkpt>
      <trkpt lat="42.392647000" lon="-2.515230000">
        <ele>530.10</ele>
        <time>2016-10-22T07:50:24Z</time>
      </trkpt>
      <trkpt lat="42.392640000" lon="-2.515170000">
        <ele>530.10</ele>
        <time>2016-10-22T07:50:25Z</time>
      </trkpt>
      <trkpt lat="42.392634000" lon="-2.515110000">
        <ele>530.10</ele>
        <time>2016-10-22T07:50:26Z</time>
      </trkpt>
      <trkpt lat="42.392628000" lon="-2.515048000">
        <ele>530.10</ele>
        <time>2016-10-22T07:50:27Z</time>
      </trkpt>
      <trkpt lat="42.392621000" lon="-2.514985000">
        <ele>530.30</ele>
        <time>2016-10-22T07:50:28Z</time>
      </trkpt>
      <trkpt lat="42.392614000" lon="-2.514923000">
        <ele>530.40</ele>
        <time>2016-10-22T07:50:29Z</time>
      </trkpt>
      <trkpt lat="42.392604000" lon="-2.514861000">
        <ele>530.50</ele>
        <time>2016-10-22T07:50:30Z</time>
      </trkpt>
      <trkpt lat="42.392594000" lon="-2.514796000">
        <ele>530.50</ele>
        <time>2016-10-22T07:50:31Z</time>
      </trkpt>
      <trkpt lat="42.392580000" lon="-2.514733000">
        <ele>530.60</ele>
        <time>2016-10-22T07:50:32Z</time>
      </trkpt>
      <trkpt lat="42.392558000" lon="-2.514672000">
        <ele>530.60</ele>
        <time>2016-10-22T07:50:33Z</time>
      </trkpt>
      <trkpt lat="42.392533000" lon="-2.514615000">
        <ele>530.50</ele>
        <time>2016-10-22T07:50:34Z</time>
      </trkpt>
      <trkpt lat="42.392506000" lon="-2.514562000">
        <ele>530.40</ele>
        <time>2016-10-22T07:50:35Z</time>
      </trkpt>
      <trkpt lat="42.392474000" lon="-2.514515000">
        <ele>530.40</ele>
        <time>2016-10-22T07:50:36Z</time>
      </trkpt>
      <trkpt lat="42.392436000" lon="-2.514476000">
        <ele>530.30</ele>
        <time>2016-10-22T07:50:37Z</time>
      </trkpt>
      <trkpt lat="42.392398000" lon="-2.514440000">
        <ele>530.30</ele>
        <time>2016-10-22T07:50:38Z</time>
      </trkpt>
      <trkpt lat="42.392360000" lon="-2.514409000">
        <ele>530.30</ele>
        <time>2016-10-22T07:50:39Z</time>
      </trkpt>
      <trkpt lat="42.392322000" lon="-2.514382000">
        <ele>530.30</ele>
        <time>2016-10-22T07:50:40Z</time>
      </trkpt>
      <trkpt lat="42.392281000" lon="-2.514357000">
        <ele>530.30</ele>
        <time>2016-10-22T07:50:41Z</time>
      </trkpt>
      <trkpt lat="42.392239000" lon="-2.514333000">
        <ele>530.30</ele>
        <time>2016-10-22T07:50:42Z</time>
      </trkpt>
      <trkpt lat="42.392200000" lon="-2.514301000">
        <ele>530.40</ele>
        <time>2016-10-22T07:50:43Z</time>
      </trkpt>
      <trkpt lat="42.392160000" lon="-2.514268000">
        <ele>530.40</ele>
        <time>2016-10-22T07:50:44Z</time>
      </trkpt>
      <trkpt lat="42.392125000" lon="-2.514232000">
        <ele>530.40</ele>
        <time>2016-10-22T07:50:45Z</time>
      </trkpt>
      <trkpt lat="42.392088000" lon="-2.514193000">
        <ele>530.40</ele>
        <time>2016-10-22T07:50:46Z</time>
      </trkpt>
      <trkpt lat="42.392053000" lon="-2.514153000">
        <ele>530.40</ele>
        <time>2016-10-22T07:50:47Z</time>
      </trkpt>
      <trkpt lat="42.392021000" lon="-2.514111000">
        <ele>530.50</ele>
        <time>2016-10-22T07:50:48Z</time>
      </trkpt>
      <trkpt lat="42.391987000" lon="-2.514070000">
        <ele>530.60</ele>
        <time>2016-10-22T07:50:49Z</time>
      </trkpt>
      <trkpt lat="42.391953000" lon="-2.514030000">
        <ele>530.70</ele>
        <time>2016-10-22T07:50:50Z</time>
      </trkpt>
      <trkpt lat="42.391920000" lon="-2.513990000">
        <ele>530.80</ele>
        <time>2016-10-22T07:50:51Z</time>
      </trkpt>
      <trkpt lat="42.391888000" lon="-2.513949000">
        <ele>530.80</ele>
        <time>2016-10-22T07:50:52Z</time>
      </trkpt>
      <trkpt lat="42.391857000" lon="-2.513910000">
        <ele>530.80</ele>
        <time>2016-10-22T07:50:53Z</time>
      </trkpt>
      <trkpt lat="42.391829000" lon="-2.513875000">
        <ele>531.00</ele>
        <time>2016-10-22T07:50:54Z</time>
      </trkpt>
      <trkpt lat="42.391806000" lon="-2.513850000">
        <ele>531.10</ele>
        <time>2016-10-22T07:50:55Z</time>
      </trkpt>
      <trkpt lat="42.391788000" lon="-2.513824000">
        <ele>531.30</ele>
        <time>2016-10-22T07:50:56Z</time>
      </trkpt>
      <trkpt lat="42.391772000" lon="-2.513801000">
        <ele>531.40</ele>
        <time>2016-10-22T07:50:57Z</time>
      </trkpt>
      <trkpt lat="42.391754000" lon="-2.513775000">
        <ele>531.50</ele>
        <time>2016-10-22T07:50:58Z</time>
      </trkpt>
      <trkpt lat="42.391736000" lon="-2.513744000">
        <ele>531.50</ele>
        <time>2016-10-22T07:50:59Z</time>
      </trkpt>
      <trkpt lat="42.391726000" lon="-2.513708000">
        <ele>531.60</ele>
        <time>2016-10-22T07:51:00Z</time>
      </trkpt>
      <trkpt lat="42.391729000" lon="-2.513664000">
        <ele>531.70</ele>
        <time>2016-10-22T07:51:01Z</time>
      </trkpt>
      <trkpt lat="42.391739000" lon="-2.513622000">
        <ele>531.80</ele>
        <time>2016-10-22T07:51:02Z</time>
      </trkpt>
      <trkpt lat="42.391743000" lon="-2.513583000">
        <ele>531.80</ele>
        <time>2016-10-22T07:51:03Z</time>
      </trkpt>
      <trkpt lat="42.391742000" lon="-2.513551000">
        <ele>531.80</ele>
        <time>2016-10-22T07:51:04Z</time>
      </trkpt>
      <trkpt lat="42.391735000" lon="-2.513521000">
        <ele>531.80</ele>
        <time>2016-10-22T07:51:05Z</time>
      </trkpt>
      <trkpt lat="42.391724000" lon="-2.513496000">
        <ele>531.60</ele>
        <time>2016-10-22T07:51:06Z</time>
      </trkpt>
      <trkpt lat="42.391708000" lon="-2.513475000">
        <ele>531.40</ele>
        <time>2016-10-22T07:51:07Z</time>
      </trkpt>
      <trkpt lat="42.391693000" lon="-2.513453000">
        <ele>531.30</ele>
        <time>2016-10-22T07:51:08Z</time>
      </trkpt>
      <trkpt lat="42.391682000" lon="-2.513433000">
        <ele>531.20</ele>
        <time>2016-10-22T07:51:09Z</time>
      </trkpt>
      <trkpt lat="42.391670000" lon="-2.513417000">
        <ele>531.20</ele>
        <time>2016-10-22T07:51:10Z</time>
      </trkpt>
      <trkpt lat="42.391663000" lon="-2.513396000">
        <ele>531.20</ele>
        <time>2016-10-22T07:51:11Z</time>
      </trkpt>
      <trkpt lat="42.391657000" lon="-2.513368000">
        <ele>531.20</ele>
        <time>2016-10-22T07:51:12Z</time>
      </trkpt>
      <trkpt lat="42.391658000" lon="-2.513349000">
        <ele>531.20</ele>
        <time>2016-10-22T07:51:14Z</time>
      </trkpt>
      <trkpt lat="42.391654000" lon="-2.513346000">
        <ele>531.20</ele>
        <time>2016-10-22T07:51:15Z</time>
      </trkpt>
      <trkpt lat="42.391652000" lon="-2.513345000">
        <ele>531.20</ele>
        <time>2016-10-22T07:51:16Z</time>
      </trkpt>
      <trkpt lat="42.391652000" lon="-2.513345000">
        <ele>531.20</ele>
        <time>2016-10-22T07:51:17Z</time>
      </trkpt>
      <trkpt lat="42.391652000" lon="-2.513345000">
        <ele>531.10</ele>
        <time>2016-10-22T07:51:18Z</time>
      </trkpt>
      <trkpt lat="42.391652000" lon="-2.513345000">
        <ele>531.10</ele>
        <time>2016-10-22T07:51:19Z</time>
      </trkpt>
      <trkpt lat="42.391652000" lon="-2.513345000">
        <ele>531.00</ele>
        <time>2016-10-22T07:51:20Z</time>
      </trkpt>
      <trkpt lat="42.391652000" lon="-2.513345000">
        <ele>530.80</ele>
        <time>2016-10-22T07:51:21Z</time>
      </trkpt>
      <trkpt lat="42.391652000" lon="-2.513345000">
        <ele>530.70</ele>
        <time>2016-10-22T07:51:22Z</time>
      </trkpt>
      <trkpt lat="42.391652000" lon="-2.513345000">
        <ele>530.70</ele>
        <time>2016-10-22T07:51:23Z</time>
      </trkpt>
      <trkpt lat="42.391652000" lon="-2.513345000">
        <ele>530.70</ele>
        <time>2016-10-22T07:51:24Z</time>
      </trkpt>
      <trkpt lat="42.391652000" lon="-2.513345000">
        <ele>530.70</ele>
        <time>2016-10-22T07:51:25Z</time>
      </trkpt>
      <trkpt lat="42.391652000" lon="-2.513345000">
        <ele>530.70</ele>
        <time>2016-10-22T07:51:26Z</time>
      </trkpt>
      <trkpt lat="42.391652000" lon="-2.513345000">
        <ele>530.70</ele>
        <time>2016-10-22T07:51:27Z</time>
      </trkpt>
      <trkpt lat="42.391652000" lon="-2.513345000">
        <ele>530.80</ele>
        <time>2016-10-22T07:51:28Z</time>
      </trkpt>
      <trkpt lat="42.391652000" lon="-2.513345000">
        <ele>530.80</ele>
        <time>2016-10-22T07:51:29Z</time>
      </trkpt>
      <trkpt lat="42.391652000" lon="-2.513345000">
        <ele>530.90</ele>
        <time>2016-10-22T07:51:30Z</time>
      </trkpt>
      <trkpt lat="42.391652000" lon="-2.513345000">
        <ele>530.90</ele>
        <time>2016-10-22T07:51:31Z</time>
      </trkpt>
      <trkpt lat="42.391652000" lon="-2.513345000">
        <ele>530.90</ele>
        <time>2016-10-22T07:51:32Z</time>
      </trkpt>
      <trkpt lat="42.391652000" lon="-2.513345000">
        <ele>531.00</ele>
        <time>2016-10-22T07:51:33Z</time>
      </trkpt>
      <trkpt lat="42.391652000" lon="-2.513345000">
        <ele>530.80</ele>
        <time>2016-10-22T07:51:34Z</time>
      </trkpt>
      <trkpt lat="42.391652000" lon="-2.513345000">
        <ele>530.70</ele>
        <time>2016-10-22T07:51:35Z</time>
      </trkpt>
      <trkpt lat="42.391652000" lon="-2.513345000">
        <ele>530.70</ele>
        <time>2016-10-22T07:51:36Z</time>
      </trkpt>
      <trkpt lat="42.391652000" lon="-2.513345000">
        <ele>530.60</ele>
        <time>2016-10-22T07:51:37Z</time>
      </trkpt>
      <trkpt lat="42.391652000" lon="-2.513345000">
        <ele>530.50</ele>
        <time>2016-10-22T07:51:38Z</time>
      </trkpt>
      <trkpt lat="42.391652000" lon="-2.513345000">
        <ele>530.50</ele>
        <time>2016-10-22T07:51:39Z</time>
      </trkpt>
      <trkpt lat="42.391640000" lon="-2.513329000">
        <ele>530.50</ele>
        <time>2016-10-22T07:51:40Z</time>
      </trkpt>
      <trkpt lat="42.391634000" lon="-2.513322000">
        <ele>530.50</ele>
        <time>2016-10-22T07:51:41Z</time>
      </trkpt>
      <trkpt lat="42.391630000" lon="-2.513316000">
        <ele>530.50</ele>
        <time>2016-10-22T07:51:42Z</time>
      </trkpt>
      <trkpt lat="42.391620000" lon="-2.513303000">
        <ele>530.50</ele>
        <time>2016-10-22T07:51:43Z</time>
      </trkpt>
      <trkpt lat="42.391606000" lon="-2.513282000">
        <ele>530.50</ele>
        <time>2016-10-22T07:51:44Z</time>
      </trkpt>
      <trkpt lat="42.391590000" lon="-2.513265000">
        <ele>530.50</ele>
        <time>2016-10-22T07:51:45Z</time>
      </trkpt>
      <trkpt lat="42.391577000" lon="-2.513243000">
        <ele>530.50</ele>
        <time>2016-10-22T07:51:46Z</time>
      </trkpt>
      <trkpt lat="42.391559000" lon="-2.513223000">
        <ele>530.60</ele>
        <time>2016-10-22T07:51:47Z</time>
      </trkpt>
      <trkpt lat="42.391541000" lon="-2.513198000">
        <ele>530.60</ele>
        <time>2016-10-22T07:51:48Z</time>
      </trkpt>
      <trkpt lat="42.391524000" lon="-2.513174000">
        <ele>530.60</ele>
        <time>2016-10-22T07:51:49Z</time>
      </trkpt>
      <trkpt lat="42.391505000" lon="-2.513151000">
        <ele>530.60</ele>
        <time>2016-10-22T07:51:50Z</time>
      </trkpt>
      <trkpt lat="42.391483000" lon="-2.513121000">
        <ele>530.60</ele>
        <time>2016-10-22T07:51:51Z</time>
      </trkpt>
      <trkpt lat="42.391461000" lon="-2.513089000">
        <ele>530.80</ele>
        <time>2016-10-22T07:51:52Z</time>
      </trkpt>
      <trkpt lat="42.391437000" lon="-2.513056000">
        <ele>530.90</ele>
        <time>2016-10-22T07:51:53Z</time>
      </trkpt>
      <trkpt lat="42.391412000" lon="-2.513023000">
        <ele>530.90</ele>
        <time>2016-10-22T07:51:54Z</time>
      </trkpt>
      <trkpt lat="42.391388000" lon="-2.512988000">
        <ele>531.00</ele>
        <time>2016-10-22T07:51:55Z</time>
      </trkpt>
      <trkpt lat="42.391363000" lon="-2.512952000">
        <ele>531.10</ele>
        <time>2016-10-22T07:51:56Z</time>
      </trkpt>
      <trkpt lat="42.391338000" lon="-2.512913000">
        <ele>531.10</ele>
        <time>2016-10-22T07:51:57Z</time>
      </trkpt>
      <trkpt lat="42.391315000" lon="-2.512874000">
        <ele>531.20</ele>
        <time>2016-10-22T07:51:58Z</time>
      </trkpt>
      <trkpt lat="42.391291000" lon="-2.512835000">
        <ele>531.20</ele>
        <time>2016-10-22T07:51:59Z</time>
      </trkpt>
      <trkpt lat="42.391266000" lon="-2.512798000">
        <ele>531.30</ele>
        <time>2016-10-22T07:52:00Z</time>
      </trkpt>
      <trkpt lat="42.391242000" lon="-2.512761000">
        <ele>531.30</ele>
        <time>2016-10-22T07:52:01Z</time>
      </trkpt>
      <trkpt lat="42.391218000" lon="-2.512724000">
        <ele>531.20</ele>
        <time>2016-10-22T07:52:02Z</time>
      </trkpt>
      <trkpt lat="42.391194000" lon="-2.512688000">
        <ele>531.00</ele>
        <time>2016-10-22T07:52:03Z</time>
      </trkpt>
      <trkpt lat="42.391168000" lon="-2.512651000">
        <ele>530.90</ele>
        <time>2016-10-22T07:52:04Z</time>
      </trkpt>
      <trkpt lat="42.391143000" lon="-2.512614000">
        <ele>530.90</ele>
        <time>2016-10-22T07:52:05Z</time>
      </trkpt>
      <trkpt lat="42.391116000" lon="-2.512577000">
        <ele>530.90</ele>
        <time>2016-10-22T07:52:06Z</time>
      </trkpt>
      <trkpt lat="42.391087000" lon="-2.512544000">
        <ele>530.90</ele>
        <time>2016-10-22T07:52:07Z</time>
      </trkpt>
      <trkpt lat="42.391059000" lon="-2.512510000">
        <ele>531.10</ele>
        <time>2016-10-22T07:52:08Z</time>
      </trkpt>
      <trkpt lat="42.391030000" lon="-2.512474000">
        <ele>531.30</ele>
        <time>2016-10-22T07:52:09Z</time>
      </trkpt>
      <trkpt lat="42.390999000" lon="-2.512438000">
        <ele>531.30</ele>
        <time>2016-10-22T07:52:10Z</time>
      </trkpt>
      <trkpt lat="42.390968000" lon="-2.512398000">
        <ele>531.40</ele>
        <time>2016-10-22T07:52:11Z</time>
      </trkpt>
      <trkpt lat="42.390935000" lon="-2.512361000">
        <ele>531.50</ele>
        <time>2016-10-22T07:52:12Z</time>
      </trkpt>
      <trkpt lat="42.390902000" lon="-2.512324000">
        <ele>531.50</ele>
        <time>2016-10-22T07:52:13Z</time>
      </trkpt>
      <trkpt lat="42.390833000" lon="-2.512247000">
        <ele>531.20</ele>
        <time>2016-10-22T07:52:15Z</time>
      </trkpt>
      <trkpt lat="42.390800000" lon="-2.512206000">
        <ele>531.10</ele>
        <time>2016-10-22T07:52:16Z</time>
      </trkpt>
      <trkpt lat="42.390765000" lon="-2.512168000">
        <ele>531.00</ele>
        <time>2016-10-22T07:52:17Z</time>
      </trkpt>
      <trkpt lat="42.390734000" lon="-2.512130000">
        <ele>530.90</ele>
        <time>2016-10-22T07:52:18Z</time>
      </trkpt>
      <trkpt lat="42.390703000" lon="-2.512090000">
        <ele>530.80</ele>
        <time>2016-10-22T07:52:19Z</time>
      </trkpt>
      <trkpt lat="42.390670000" lon="-2.512054000">
        <ele>530.90</ele>
        <time>2016-10-22T07:52:20Z</time>
      </trkpt>
      <trkpt lat="42.390636000" lon="-2.512022000">
        <ele>530.90</ele>
        <time>2016-10-22T07:52:21Z</time>
      </trkpt>
      <trkpt lat="42.390603000" lon="-2.511989000">
        <ele>531.00</ele>
        <time>2016-10-22T07:52:22Z</time>
      </trkpt>
      <trkpt lat="42.390568000" lon="-2.511954000">
        <ele>531.00</ele>
        <time>2016-10-22T07:52:23Z</time>
      </trkpt>
      <trkpt lat="42.390535000" lon="-2.511915000">
        <ele>530.90</ele>
        <time>2016-10-22T07:52:24Z</time>
      </trkpt>
      <trkpt lat="42.390503000" lon="-2.511877000">
        <ele>530.80</ele>
        <time>2016-10-22T07:52:25Z</time>
      </trkpt>
      <trkpt lat="42.390470000" lon="-2.511835000">
        <ele>530.80</ele>
        <time>2016-10-22T07:52:26Z</time>
      </trkpt>
      <trkpt lat="42.390440000" lon="-2.511790000">
        <ele>530.70</ele>
        <time>2016-10-22T07:52:27Z</time>
      </trkpt>
      <trkpt lat="42.390414000" lon="-2.511737000">
        <ele>530.70</ele>
        <time>2016-10-22T07:52:28Z</time>
      </trkpt>
      <trkpt lat="42.390391000" lon="-2.511681000">
        <ele>530.60</ele>
        <time>2016-10-22T07:52:29Z</time>
      </trkpt>
      <trkpt lat="42.390372000" lon="-2.511625000">
        <ele>530.60</ele>
        <time>2016-10-22T07:52:30Z</time>
      </trkpt>
      <trkpt lat="42.390352000" lon="-2.511571000">
        <ele>530.50</ele>
        <time>2016-10-22T07:52:31Z</time>
      </trkpt>
      <trkpt lat="42.390333000" lon="-2.511521000">
        <ele>530.60</ele>
        <time>2016-10-22T07:52:32Z</time>
      </trkpt>
      <trkpt lat="42.390312000" lon="-2.511464000">
        <ele>530.60</ele>
        <time>2016-10-22T07:52:33Z</time>
      </trkpt>
      <trkpt lat="42.390289000" lon="-2.511410000">
        <ele>530.60</ele>
        <time>2016-10-22T07:52:34Z</time>
      </trkpt>
      <trkpt lat="42.390267000" lon="-2.511357000">
        <ele>530.50</ele>
        <time>2016-10-22T07:52:35Z</time>
      </trkpt>
      <trkpt lat="42.390247000" lon="-2.511303000">
        <ele>530.60</ele>
        <time>2016-10-22T07:52:36Z</time>
      </trkpt>
      <trkpt lat="42.390225000" lon="-2.511252000">
        <ele>530.70</ele>
        <time>2016-10-22T07:52:37Z</time>
      </trkpt>
      <trkpt lat="42.390202000" lon="-2.511202000">
        <ele>530.80</ele>
        <time>2016-10-22T07:52:38Z</time>
      </trkpt>
      <trkpt lat="42.390175000" lon="-2.511155000">
        <ele>530.80</ele>
        <time>2016-10-22T07:52:39Z</time>
      </trkpt>
      <trkpt lat="42.390143000" lon="-2.511115000">
        <ele>530.90</ele>
        <time>2016-10-22T07:52:40Z</time>
      </trkpt>
      <trkpt lat="42.390109000" lon="-2.511078000">
        <ele>530.90</ele>
        <time>2016-10-22T07:52:41Z</time>
      </trkpt>
      <trkpt lat="42.390075000" lon="-2.511042000">
        <ele>530.80</ele>
        <time>2016-10-22T07:52:42Z</time>
      </trkpt>
      <trkpt lat="42.390039000" lon="-2.511008000">
        <ele>530.70</ele>
        <time>2016-10-22T07:52:43Z</time>
      </trkpt>
      <trkpt lat="42.390006000" lon="-2.510975000">
        <ele>530.70</ele>
        <time>2016-10-22T07:52:44Z</time>
      </trkpt>
      <trkpt lat="42.389974000" lon="-2.510943000">
        <ele>530.60</ele>
        <time>2016-10-22T07:52:45Z</time>
      </trkpt>
      <trkpt lat="42.389941000" lon="-2.510910000">
        <ele>530.60</ele>
        <time>2016-10-22T07:52:46Z</time>
      </trkpt>
      <trkpt lat="42.389908000" lon="-2.510873000">
        <ele>530.60</ele>
        <time>2016-10-22T07:52:47Z</time>
      </trkpt>
      <trkpt lat="42.389876000" lon="-2.510833000">
        <ele>530.60</ele>
        <time>2016-10-22T07:52:48Z</time>
      </trkpt>
      <trkpt lat="42.389848000" lon="-2.510789000">
        <ele>530.60</ele>
        <time>2016-10-22T07:52:49Z</time>
      </trkpt>
      <trkpt lat="42.389821000" lon="-2.510743000">
        <ele>530.40</ele>
        <time>2016-10-22T07:52:50Z</time>
      </trkpt>
      <trkpt lat="42.389795000" lon="-2.510695000">
        <ele>530.30</ele>
        <time>2016-10-22T07:52:51Z</time>
      </trkpt>
      <trkpt lat="42.389771000" lon="-2.510645000">
        <ele>530.20</ele>
        <time>2016-10-22T07:52:52Z</time>
      </trkpt>
      <trkpt lat="42.389747000" lon="-2.510597000">
        <ele>530.20</ele>
        <time>2016-10-22T07:52:53Z</time>
      </trkpt>
      <trkpt lat="42.389724000" lon="-2.510545000">
        <ele>530.10</ele>
        <time>2016-10-22T07:52:54Z</time>
      </trkpt>
      <trkpt lat="42.389703000" lon="-2.510491000">
        <ele>530.10</ele>
        <time>2016-10-22T07:52:55Z</time>
      </trkpt>
      <trkpt lat="42.389683000" lon="-2.510438000">
        <ele>530.20</ele>
        <time>2016-10-22T07:52:56Z</time>
      </trkpt>
      <trkpt lat="42.389667000" lon="-2.510384000">
        <ele>530.30</ele>
        <time>2016-10-22T07:52:57Z</time>
      </trkpt>
      <trkpt lat="42.389653000" lon="-2.510330000">
        <ele>530.40</ele>
        <time>2016-10-22T07:52:58Z</time>
      </trkpt>
      <trkpt lat="42.389641000" lon="-2.510275000">
        <ele>530.50</ele>
        <time>2016-10-22T07:52:59Z</time>
      </trkpt>
      <trkpt lat="42.389630000" lon="-2.510217000">
        <ele>530.60</ele>
        <time>2016-10-22T07:53:00Z</time>
      </trkpt>
      <trkpt lat="42.389623000" lon="-2.510158000">
        <ele>530.80</ele>
        <time>2016-10-22T07:53:01Z</time>
      </trkpt>
      <trkpt lat="42.389617000" lon="-2.510100000">
        <ele>530.80</ele>
        <time>2016-10-22T07:53:02Z</time>
      </trkpt>
      <trkpt lat="42.389614000" lon="-2.510042000">
        <ele>530.70</ele>
        <time>2016-10-22T07:53:03Z</time>
      </trkpt>
      <trkpt lat="42.389614000" lon="-2.509983000">
        <ele>530.80</ele>
        <time>2016-10-22T07:53:04Z</time>
      </trkpt>
      <trkpt lat="42.389612000" lon="-2.509926000">
        <ele>530.80</ele>
        <time>2016-10-22T07:53:05Z</time>
      </trkpt>
      <trkpt lat="42.389611000" lon="-2.509869000">
        <ele>530.80</ele>
        <time>2016-10-22T07:53:06Z</time>
      </trkpt>
      <trkpt lat="42.389607000" lon="-2.509811000">
        <ele>530.70</ele>
        <time>2016-10-22T07:53:07Z</time>
      </trkpt>
      <trkpt lat="42.389605000" lon="-2.509751000">
        <ele>530.70</ele>
        <time>2016-10-22T07:53:08Z</time>
      </trkpt>
      <trkpt lat="42.389601000" lon="-2.509693000">
        <ele>530.70</ele>
        <time>2016-10-22T07:53:09Z</time>
      </trkpt>
      <trkpt lat="42.389599000" lon="-2.509634000">
        <ele>530.70</ele>
        <time>2016-10-22T07:53:10Z</time>
      </trkpt>
      <trkpt lat="42.389597000" lon="-2.509577000">
        <ele>530.70</ele>
        <time>2016-10-22T07:53:11Z</time>
      </trkpt>
      <trkpt lat="42.389596000" lon="-2.509518000">
        <ele>530.90</ele>
        <time>2016-10-22T07:53:12Z</time>
      </trkpt>
      <trkpt lat="42.389598000" lon="-2.509458000">
        <ele>531.00</ele>
        <time>2016-10-22T07:53:13Z</time>
      </trkpt>
      <trkpt lat="42.389596000" lon="-2.509399000">
        <ele>531.10</ele>
        <time>2016-10-22T07:53:14Z</time>
      </trkpt>
      <trkpt lat="42.389592000" lon="-2.509277000">
        <ele>531.30</ele>
        <time>2016-10-22T07:53:16Z</time>
      </trkpt>
      <trkpt lat="42.389589000" lon="-2.509217000">
        <ele>531.40</ele>
        <time>2016-10-22T07:53:17Z</time>
      </trkpt>
      <trkpt lat="42.389588000" lon="-2.509158000">
        <ele>531.50</ele>
        <time>2016-10-22T07:53:18Z</time>
      </trkpt>
      <trkpt lat="42.389586000" lon="-2.509099000">
        <ele>531.50</ele>
        <time>2016-10-22T07:53:19Z</time>
      </trkpt>
      <trkpt lat="42.389583000" lon="-2.509037000">
        <ele>531.60</ele>
        <time>2016-10-22T07:53:20Z</time>
      </trkpt>
      <trkpt lat="42.389580000" lon="-2.508975000">
        <ele>531.60</ele>
        <time>2016-10-22T07:53:21Z</time>
      </trkpt>
      <trkpt lat="42.389578000" lon="-2.508914000">
        <ele>531.60</ele>
        <time>2016-10-22T07:53:22Z</time>
      </trkpt>
      <trkpt lat="42.389574000" lon="-2.508854000">
        <ele>531.50</ele>
        <time>2016-10-22T07:53:23Z</time>
      </trkpt>
      <trkpt lat="42.389572000" lon="-2.508793000">
        <ele>531.60</ele>
        <time>2016-10-22T07:53:24Z</time>
      </trkpt>
      <trkpt lat="42.389572000" lon="-2.508734000">
        <ele>531.60</ele>
        <time>2016-10-22T07:53:25Z</time>
      </trkpt>
      <trkpt lat="42.389567000" lon="-2.508673000">
        <ele>531.60</ele>
        <time>2016-10-22T07:53:26Z</time>
      </trkpt>
      <trkpt lat="42.389561000" lon="-2.508612000">
        <ele>531.70</ele>
        <time>2016-10-22T07:53:27Z</time>
      </trkpt>
      <trkpt lat="42.389552000" lon="-2.508551000">
        <ele>531.70</ele>
        <time>2016-10-22T07:53:28Z</time>
      </trkpt>
      <trkpt lat="42.389541000" lon="-2.508489000">
        <ele>531.70</ele>
        <time>2016-10-22T07:53:29Z</time>
      </trkpt>
      <trkpt lat="42.389523000" lon="-2.508429000">
        <ele>531.70</ele>
        <time>2016-10-22T07:53:30Z</time>
      </trkpt>
      <trkpt lat="42.389503000" lon="-2.508368000">
        <ele>531.70</ele>
        <time>2016-10-22T07:53:31Z</time>
      </trkpt>
      <trkpt lat="42.389478000" lon="-2.508301000">
        <ele>531.70</ele>
        <time>2016-10-22T07:53:32Z</time>
      </trkpt>
      <trkpt lat="42.389444000" lon="-2.508231000">
        <ele>531.70</ele>
        <time>2016-10-22T07:53:33Z</time>
      </trkpt>
      <trkpt lat="42.389410000" lon="-2.508163000">
        <ele>531.70</ele>
        <time>2016-10-22T07:53:34Z</time>
      </trkpt>
      <trkpt lat="42.389377000" lon="-2.508095000">
        <ele>531.70</ele>
        <time>2016-10-22T07:53:35Z</time>
      </trkpt>
      <trkpt lat="42.389347000" lon="-2.508027000">
        <ele>531.80</ele>
        <time>2016-10-22T07:53:36Z</time>
      </trkpt>
      <trkpt lat="42.389318000" lon="-2.507963000">
        <ele>531.80</ele>
        <time>2016-10-22T07:53:37Z</time>
      </trkpt>
      <trkpt lat="42.389292000" lon="-2.507900000">
        <ele>531.90</ele>
        <time>2016-10-22T07:53:38Z</time>
      </trkpt>
      <trkpt lat="42.389271000" lon="-2.507838000">
        <ele>532.00</ele>
        <time>2016-10-22T07:53:39Z</time>
      </trkpt>
      <trkpt lat="42.389261000" lon="-2.507777000">
        <ele>532.00</ele>
        <time>2016-10-22T07:53:40Z</time>
      </trkpt>
      <trkpt lat="42.389254000" lon="-2.507717000">
        <ele>532.00</ele>
        <time>2016-10-22T07:53:41Z</time>
      </trkpt>
      <trkpt lat="42.389246000" lon="-2.507660000">
        <ele>532.00</ele>
        <time>2016-10-22T07:53:42Z</time>
      </trkpt>
      <trkpt lat="42.389233000" lon="-2.507606000">
        <ele>532.00</ele>
        <time>2016-10-22T07:53:43Z</time>
      </trkpt>
      <trkpt lat="42.389217000" lon="-2.507557000">
        <ele>532.00</ele>
        <time>2016-10-22T07:53:44Z</time>
      </trkpt>
      <trkpt lat="42.389201000" lon="-2.507507000">
        <ele>531.90</ele>
        <time>2016-10-22T07:53:45Z</time>
      </trkpt>
      <trkpt lat="42.389185000" lon="-2.507455000">
        <ele>531.90</ele>
        <time>2016-10-22T07:53:46Z</time>
      </trkpt>
      <trkpt lat="42.389168000" lon="-2.507406000">
        <ele>531.80</ele>
        <time>2016-10-22T07:53:47Z</time>
      </trkpt>
      <trkpt lat="42.389151000" lon="-2.507355000">
        <ele>531.80</ele>
        <time>2016-10-22T07:53:48Z</time>
      </trkpt>
      <trkpt lat="42.389131000" lon="-2.507299000">
        <ele>531.70</ele>
        <time>2016-10-22T07:53:49Z</time>
      </trkpt>
      <trkpt lat="42.389112000" lon="-2.507244000">
        <ele>531.70</ele>
        <time>2016-10-22T07:53:50Z</time>
      </trkpt>
      <trkpt lat="42.389092000" lon="-2.507187000">
        <ele>531.70</ele>
        <time>2016-10-22T07:53:51Z</time>
      </trkpt>
      <trkpt lat="42.389071000" lon="-2.507130000">
        <ele>531.70</ele>
        <time>2016-10-22T07:53:52Z</time>
      </trkpt>
      <trkpt lat="42.389052000" lon="-2.507072000">
        <ele>531.70</ele>
        <time>2016-10-22T07:53:53Z</time>
      </trkpt>
      <trkpt lat="42.389034000" lon="-2.507016000">
        <ele>531.70</ele>
        <time>2016-10-22T07:53:54Z</time>
      </trkpt>
      <trkpt lat="42.389017000" lon="-2.506958000">
        <ele>531.80</ele>
        <time>2016-10-22T07:53:55Z</time>
      </trkpt>
      <trkpt lat="42.388998000" lon="-2.506900000">
        <ele>531.80</ele>
        <time>2016-10-22T07:53:56Z</time>
      </trkpt>
      <trkpt lat="42.388980000" lon="-2.506843000">
        <ele>531.80</ele>
        <time>2016-10-22T07:53:57Z</time>
      </trkpt>
      <trkpt lat="42.388963000" lon="-2.506788000">
        <ele>531.90</ele>
        <time>2016-10-22T07:53:58Z</time>
      </trkpt>
      <trkpt lat="42.388946000" lon="-2.506734000">
        <ele>531.90</ele>
        <time>2016-10-22T07:53:59Z</time>
      </trkpt>
      <trkpt lat="42.388928000" lon="-2.506678000">
        <ele>532.10</ele>
        <time>2016-10-22T07:54:00Z</time>
      </trkpt>
      <trkpt lat="42.388911000" lon="-2.506620000">
        <ele>532.30</ele>
        <time>2016-10-22T07:54:01Z</time>
      </trkpt>
      <trkpt lat="42.388892000" lon="-2.506567000">
        <ele>532.50</ele>
        <time>2016-10-22T07:54:02Z</time>
      </trkpt>
      <trkpt lat="42.388870000" lon="-2.506515000">
        <ele>532.60</ele>
        <time>2016-10-22T07:54:03Z</time>
      </trkpt>
      <trkpt lat="42.388851000" lon="-2.506459000">
        <ele>532.70</ele>
        <time>2016-10-22T07:54:04Z</time>
      </trkpt>
      <trkpt lat="42.388831000" lon="-2.506401000">
        <ele>532.90</ele>
        <time>2016-10-22T07:54:05Z</time>
      </trkpt>
      <trkpt lat="42.388811000" lon="-2.506345000">
        <ele>532.90</ele>
        <time>2016-10-22T07:54:06Z</time>
      </trkpt>
      <trkpt lat="42.388792000" lon="-2.506289000">
        <ele>532.80</ele>
        <time>2016-10-22T07:54:07Z</time>
      </trkpt>
      <trkpt lat="42.388774000" lon="-2.506232000">
        <ele>532.90</ele>
        <time>2016-10-22T07:54:08Z</time>
      </trkpt>
      <trkpt lat="42.388756000" lon="-2.506175000">
        <ele>532.90</ele>
        <time>2016-10-22T07:54:09Z</time>
      </trkpt>
      <trkpt lat="42.388733000" lon="-2.506118000">
        <ele>532.90</ele>
        <time>2016-10-22T07:54:10Z</time>
      </trkpt>
      <trkpt lat="42.388716000" lon="-2.506059000">
        <ele>533.00</ele>
        <time>2016-10-22T07:54:11Z</time>
      </trkpt>
      <trkpt lat="42.388701000" lon="-2.505997000">
        <ele>533.10</ele>
        <time>2016-10-22T07:54:12Z</time>
      </trkpt>
      <trkpt lat="42.388682000" lon="-2.505940000">
        <ele>533.20</ele>
        <time>2016-10-22T07:54:13Z</time>
      </trkpt>
      <trkpt lat="42.388663000" lon="-2.505882000">
        <ele>533.30</ele>
        <time>2016-10-22T07:54:14Z</time>
      </trkpt>
      <trkpt lat="42.388643000" lon="-2.505825000">
        <ele>533.40</ele>
        <time>2016-10-22T07:54:15Z</time>
      </trkpt>
      <trkpt lat="42.388604000" lon="-2.505710000">
        <ele>533.20</ele>
        <time>2016-10-22T07:54:17Z</time>
      </trkpt>
      <trkpt lat="42.388584000" lon="-2.505655000">
        <ele>533.20</ele>
        <time>2016-10-22T07:54:18Z</time>
      </trkpt>
      <trkpt lat="42.388564000" lon="-2.505599000">
        <ele>533.10</ele>
        <time>2016-10-22T07:54:19Z</time>
      </trkpt>
      <trkpt lat="42.388543000" lon="-2.505539000">
        <ele>533.20</ele>
        <time>2016-10-22T07:54:20Z</time>
      </trkpt>
      <trkpt lat="42.388522000" lon="-2.505485000">
        <ele>533.30</ele>
        <time>2016-10-22T07:54:21Z</time>
      </trkpt>
      <trkpt lat="42.388500000" lon="-2.505426000">
        <ele>533.50</ele>
        <time>2016-10-22T07:54:22Z</time>
      </trkpt>
      <trkpt lat="42.388479000" lon="-2.505370000">
        <ele>533.70</ele>
        <time>2016-10-22T07:54:23Z</time>
      </trkpt>
      <trkpt lat="42.388455000" lon="-2.505312000">
        <ele>533.80</ele>
        <time>2016-10-22T07:54:24Z</time>
      </trkpt>
      <trkpt lat="42.388434000" lon="-2.505253000">
        <ele>533.90</ele>
        <time>2016-10-22T07:54:25Z</time>
      </trkpt>
      <trkpt lat="42.388415000" lon="-2.505195000">
        <ele>534.00</ele>
        <time>2016-10-22T07:54:26Z</time>
      </trkpt>
      <trkpt lat="42.388399000" lon="-2.505137000">
        <ele>534.10</ele>
        <time>2016-10-22T07:54:27Z</time>
      </trkpt>
      <trkpt lat="42.388383000" lon="-2.505082000">
        <ele>534.10</ele>
        <time>2016-10-22T07:54:28Z</time>
      </trkpt>
      <trkpt lat="42.388364000" lon="-2.505024000">
        <ele>534.00</ele>
        <time>2016-10-22T07:54:29Z</time>
      </trkpt>
      <trkpt lat="42.388347000" lon="-2.504966000">
        <ele>534.00</ele>
        <time>2016-10-22T07:54:30Z</time>
      </trkpt>
      <trkpt lat="42.388327000" lon="-2.504911000">
        <ele>534.00</ele>
        <time>2016-10-22T07:54:31Z</time>
      </trkpt>
      <trkpt lat="42.388308000" lon="-2.504855000">
        <ele>534.00</ele>
        <time>2016-10-22T07:54:32Z</time>
      </trkpt>
      <trkpt lat="42.388287000" lon="-2.504799000">
        <ele>534.00</ele>
        <time>2016-10-22T07:54:33Z</time>
      </trkpt>
      <trkpt lat="42.388266000" lon="-2.504746000">
        <ele>533.90</ele>
        <time>2016-10-22T07:54:34Z</time>
      </trkpt>
      <trkpt lat="42.388244000" lon="-2.504693000">
        <ele>533.90</ele>
        <time>2016-10-22T07:54:35Z</time>
      </trkpt>
      <trkpt lat="42.388222000" lon="-2.504645000">
        <ele>533.90</ele>
        <time>2016-10-22T07:54:36Z</time>
      </trkpt>
      <trkpt lat="42.388198000" lon="-2.504592000">
        <ele>533.90</ele>
        <time>2016-10-22T07:54:37Z</time>
      </trkpt>
      <trkpt lat="42.388173000" lon="-2.504536000">
        <ele>534.00</ele>
        <time>2016-10-22T07:54:38Z</time>
      </trkpt>
      <trkpt lat="42.388151000" lon="-2.504483000">
        <ele>534.10</ele>
        <time>2016-10-22T07:54:39Z</time>
      </trkpt>
      <trkpt lat="42.388127000" lon="-2.504429000">
        <ele>534.10</ele>
        <time>2016-10-22T07:54:40Z</time>
      </trkpt>
      <trkpt lat="42.388103000" lon="-2.504375000">
        <ele>534.20</ele>
        <time>2016-10-22T07:54:41Z</time>
      </trkpt>
      <trkpt lat="42.388079000" lon="-2.504323000">
        <ele>534.20</ele>
        <time>2016-10-22T07:54:42Z</time>
      </trkpt>
      <trkpt lat="42.388058000" lon="-2.504268000">
        <ele>534.30</ele>
        <time>2016-10-22T07:54:43Z</time>
      </trkpt>
      <trkpt lat="42.388038000" lon="-2.504214000">
        <ele>534.30</ele>
        <time>2016-10-22T07:54:44Z</time>
      </trkpt>
      <trkpt lat="42.388018000" lon="-2.504158000">
        <ele>534.40</ele>
        <time>2016-10-22T07:54:45Z</time>
      </trkpt>
      <trkpt lat="42.387998000" lon="-2.504099000">
        <ele>534.40</ele>
        <time>2016-10-22T07:54:46Z</time>
      </trkpt>
      <trkpt lat="42.387977000" lon="-2.504040000">
        <ele>534.40</ele>
        <time>2016-10-22T07:54:47Z</time>
      </trkpt>
      <trkpt lat="42.387957000" lon="-2.503982000">
        <ele>534.50</ele>
        <time>2016-10-22T07:54:48Z</time>
      </trkpt>
      <trkpt lat="42.387939000" lon="-2.503924000">
        <ele>534.50</ele>
        <time>2016-10-22T07:54:49Z</time>
      </trkpt>
      <trkpt lat="42.387923000" lon="-2.503867000">
        <ele>534.60</ele>
        <time>2016-10-22T07:54:50Z</time>
      </trkpt>
      <trkpt lat="42.387906000" lon="-2.503816000">
        <ele>534.60</ele>
        <time>2016-10-22T07:54:51Z</time>
      </trkpt>
      <trkpt lat="42.387887000" lon="-2.503765000">
        <ele>534.60</ele>
        <time>2016-10-22T07:54:52Z</time>
      </trkpt>
      <trkpt lat="42.387869000" lon="-2.503720000">
        <ele>534.60</ele>
        <time>2016-10-22T07:54:53Z</time>
      </trkpt>
      <trkpt lat="42.387851000" lon="-2.503675000">
        <ele>534.80</ele>
        <time>2016-10-22T07:54:54Z</time>
      </trkpt>
      <trkpt lat="42.387830000" lon="-2.503632000">
        <ele>534.90</ele>
        <time>2016-10-22T07:54:55Z</time>
      </trkpt>
      <trkpt lat="42.387809000" lon="-2.503592000">
        <ele>534.90</ele>
        <time>2016-10-22T07:54:56Z</time>
      </trkpt>
      <trkpt lat="42.387787000" lon="-2.503556000">
        <ele>535.00</ele>
        <time>2016-10-22T07:54:57Z</time>
      </trkpt>
      <trkpt lat="42.387763000" lon="-2.503522000">
        <ele>535.00</ele>
        <time>2016-10-22T07:54:58Z</time>
      </trkpt>
      <trkpt lat="42.387740000" lon="-2.503491000">
        <ele>534.90</ele>
        <time>2016-10-22T07:54:59Z</time>
      </trkpt>
      <trkpt lat="42.387717000" lon="-2.503459000">
        <ele>534.90</ele>
        <time>2016-10-22T07:55:00Z</time>
      </trkpt>
      <trkpt lat="42.387699000" lon="-2.503429000">
        <ele>534.80</ele>
        <time>2016-10-22T07:55:01Z</time>
      </trkpt>
      <trkpt lat="42.387687000" lon="-2.503401000">
        <ele>534.80</ele>
        <time>2016-10-22T07:55:02Z</time>
      </trkpt>
      <trkpt lat="42.387690000" lon="-2.503366000">
        <ele>534.80</ele>
        <time>2016-10-22T07:55:03Z</time>
      </trkpt>
      <trkpt lat="42.387696000" lon="-2.503334000">
        <ele>534.80</ele>
        <time>2016-10-22T07:55:04Z</time>
      </trkpt>
      <trkpt lat="42.387701000" lon="-2.503297000">
        <ele>534.90</ele>
        <time>2016-10-22T07:55:05Z</time>
      </trkpt>
      <trkpt lat="42.387705000" lon="-2.503261000">
        <ele>534.90</ele>
        <time>2016-10-22T07:55:06Z</time>
      </trkpt>
      <trkpt lat="42.387702000" lon="-2.503225000">
        <ele>534.90</ele>
        <time>2016-10-22T07:55:07Z</time>
      </trkpt>
      <trkpt lat="42.387699000" lon="-2.503188000">
        <ele>534.80</ele>
        <time>2016-10-22T07:55:08Z</time>
      </trkpt>
      <trkpt lat="42.387691000" lon="-2.503155000">
        <ele>534.80</ele>
        <time>2016-10-22T07:55:09Z</time>
      </trkpt>
      <trkpt lat="42.387684000" lon="-2.503116000">
        <ele>534.70</ele>
        <time>2016-10-22T07:55:10Z</time>
      </trkpt>
      <trkpt lat="42.387674000" lon="-2.503075000">
        <ele>534.70</ele>
        <time>2016-10-22T07:55:11Z</time>
      </trkpt>
      <trkpt lat="42.387665000" lon="-2.503031000">
        <ele>534.70</ele>
        <time>2016-10-22T07:55:12Z</time>
      </trkpt>
      <trkpt lat="42.387654000" lon="-2.502985000">
        <ele>534.80</ele>
        <time>2016-10-22T07:55:13Z</time>
      </trkpt>
      <trkpt lat="42.387642000" lon="-2.502935000">
        <ele>534.80</ele>
        <time>2016-10-22T07:55:14Z</time>
      </trkpt>
      <trkpt lat="42.387629000" lon="-2.502881000">
        <ele>534.80</ele>
        <time>2016-10-22T07:55:15Z</time>
      </trkpt>
      <trkpt lat="42.387618000" lon="-2.502827000">
        <ele>534.80</ele>
        <time>2016-10-22T07:55:16Z</time>
      </trkpt>
      <trkpt lat="42.387604000" lon="-2.502717000">
        <ele>534.80</ele>
        <time>2016-10-22T07:55:18Z</time>
      </trkpt>
      <trkpt lat="42.387600000" lon="-2.502666000">
        <ele>534.80</ele>
        <time>2016-10-22T07:55:19Z</time>
      </trkpt>
      <trkpt lat="42.387599000" lon="-2.502615000">
        <ele>534.80</ele>
        <time>2016-10-22T07:55:20Z</time>
      </trkpt>
      <trkpt lat="42.387600000" lon="-2.502564000">
        <ele>534.80</ele>
        <time>2016-10-22T07:55:21Z</time>
      </trkpt>
      <trkpt lat="42.387603000" lon="-2.502516000">
        <ele>535.10</ele>
        <time>2016-10-22T07:55:22Z</time>
      </trkpt>
      <trkpt lat="42.387601000" lon="-2.502465000">
        <ele>535.30</ele>
        <time>2016-10-22T07:55:23Z</time>
      </trkpt>
      <trkpt lat="42.387596000" lon="-2.502412000">
        <ele>535.30</ele>
        <time>2016-10-22T07:55:24Z</time>
      </trkpt>
      <trkpt lat="42.387585000" lon="-2.502356000">
        <ele>535.40</ele>
        <time>2016-10-22T07:55:25Z</time>
      </trkpt>
      <trkpt lat="42.387569000" lon="-2.502302000">
        <ele>535.40</ele>
        <time>2016-10-22T07:55:26Z</time>
      </trkpt>
      <trkpt lat="42.387553000" lon="-2.502250000">
        <ele>535.50</ele>
        <time>2016-10-22T07:55:27Z</time>
      </trkpt>
      <trkpt lat="42.387534000" lon="-2.502199000">
        <ele>535.50</ele>
        <time>2016-10-22T07:55:28Z</time>
      </trkpt>
      <trkpt lat="42.387514000" lon="-2.502149000">
        <ele>535.50</ele>
        <time>2016-10-22T07:55:29Z</time>
      </trkpt>
      <trkpt lat="42.387490000" lon="-2.502099000">
        <ele>535.50</ele>
        <time>2016-10-22T07:55:30Z</time>
      </trkpt>
      <trkpt lat="42.387470000" lon="-2.502049000">
        <ele>535.40</ele>
        <time>2016-10-22T07:55:31Z</time>
      </trkpt>
      <trkpt lat="42.387450000" lon="-2.501998000">
        <ele>535.30</ele>
        <time>2016-10-22T07:55:32Z</time>
      </trkpt>
      <trkpt lat="42.387432000" lon="-2.501946000">
        <ele>535.30</ele>
        <time>2016-10-22T07:55:33Z</time>
      </trkpt>
      <trkpt lat="42.387413000" lon="-2.501893000">
        <ele>535.30</ele>
        <time>2016-10-22T07:55:34Z</time>
      </trkpt>
      <trkpt lat="42.387395000" lon="-2.501841000">
        <ele>535.30</ele>
        <time>2016-10-22T07:55:35Z</time>
      </trkpt>
      <trkpt lat="42.387377000" lon="-2.501789000">
        <ele>535.30</ele>
        <time>2016-10-22T07:55:36Z</time>
      </trkpt>
      <trkpt lat="42.387360000" lon="-2.501738000">
        <ele>535.40</ele>
        <time>2016-10-22T07:55:37Z</time>
      </trkpt>
      <trkpt lat="42.387343000" lon="-2.501686000">
        <ele>535.40</ele>
        <time>2016-10-22T07:55:38Z</time>
      </trkpt>
      <trkpt lat="42.387323000" lon="-2.501636000">
        <ele>535.40</ele>
        <time>2016-10-22T07:55:39Z</time>
      </trkpt>
      <trkpt lat="42.387304000" lon="-2.501583000">
        <ele>535.30</ele>
        <time>2016-10-22T07:55:40Z</time>
      </trkpt>
      <trkpt lat="42.387287000" lon="-2.501532000">
        <ele>535.20</ele>
        <time>2016-10-22T07:55:41Z</time>
      </trkpt>
      <trkpt lat="42.387270000" lon="-2.501480000">
        <ele>535.20</ele>
        <time>2016-10-22T07:55:42Z</time>
      </trkpt>
      <trkpt lat="42.387254000" lon="-2.501429000">
        <ele>535.10</ele>
        <time>2016-10-22T07:55:43Z</time>
      </trkpt>
      <trkpt lat="42.387239000" lon="-2.501373000">
        <ele>535.30</ele>
        <time>2016-10-22T07:55:44Z</time>
      </trkpt>
      <trkpt lat="42.387224000" lon="-2.501316000">
        <ele>535.40</ele>
        <time>2016-10-22T07:55:45Z</time>
      </trkpt>
      <trkpt lat="42.387208000" lon="-2.501259000">
        <ele>535.50</ele>
        <time>2016-10-22T07:55:46Z</time>
      </trkpt>
      <trkpt lat="42.387194000" lon="-2.501199000">
        <ele>535.60</ele>
        <time>2016-10-22T07:55:47Z</time>
      </trkpt>
      <trkpt lat="42.387181000" lon="-2.501142000">
        <ele>535.70</ele>
        <time>2016-10-22T07:55:48Z</time>
      </trkpt>
      <trkpt lat="42.387170000" lon="-2.501084000">
        <ele>535.70</ele>
        <time>2016-10-22T07:55:49Z</time>
      </trkpt>
      <trkpt lat="42.387160000" lon="-2.501023000">
        <ele>535.80</ele>
        <time>2016-10-22T07:55:50Z</time>
      </trkpt>
      <trkpt lat="42.387151000" lon="-2.500966000">
        <ele>535.80</ele>
        <time>2016-10-22T07:55:51Z</time>
      </trkpt>
      <trkpt lat="42.387143000" lon="-2.500903000">
        <ele>535.80</ele>
        <time>2016-10-22T07:55:52Z</time>
      </trkpt>
      <trkpt lat="42.387137000" lon="-2.500843000">
        <ele>535.90</ele>
        <time>2016-10-22T07:55:53Z</time>
      </trkpt>
      <trkpt lat="42.387132000" lon="-2.500781000">
        <ele>535.80</ele>
        <time>2016-10-22T07:55:54Z</time>
      </trkpt>
      <trkpt lat="42.387129000" lon="-2.500719000">
        <ele>535.80</ele>
        <time>2016-10-22T07:55:55Z</time>
      </trkpt>
      <trkpt lat="42.387127000" lon="-2.500656000">
        <ele>535.90</ele>
        <time>2016-10-22T07:55:56Z</time>
      </trkpt>
      <trkpt lat="42.387123000" lon="-2.500595000">
        <ele>536.00</ele>
        <time>2016-10-22T07:55:57Z</time>
      </trkpt>
      <trkpt lat="42.387122000" lon="-2.500534000">
        <ele>535.90</ele>
        <time>2016-10-22T07:55:58Z</time>
      </trkpt>
      <trkpt lat="42.387122000" lon="-2.500474000">
        <ele>535.80</ele>
        <time>2016-10-22T07:55:59Z</time>
      </trkpt>
      <trkpt lat="42.387119000" lon="-2.500415000">
        <ele>535.80</ele>
        <time>2016-10-22T07:56:00Z</time>
      </trkpt>
      <trkpt lat="42.387117000" lon="-2.500356000">
        <ele>535.80</ele>
        <time>2016-10-22T07:56:01Z</time>
      </trkpt>
      <trkpt lat="42.387115000" lon="-2.500294000">
        <ele>535.70</ele>
        <time>2016-10-22T07:56:02Z</time>
      </trkpt>
      <trkpt lat="42.387112000" lon="-2.500232000">
        <ele>535.70</ele>
        <time>2016-10-22T07:56:03Z</time>
      </trkpt>
      <trkpt lat="42.387108000" lon="-2.500173000">
        <ele>535.70</ele>
        <time>2016-10-22T07:56:04Z</time>
      </trkpt>
      <trkpt lat="42.387105000" lon="-2.500112000">
        <ele>535.70</ele>
        <time>2016-10-22T07:56:05Z</time>
      </trkpt>
      <trkpt lat="42.387103000" lon="-2.500050000">
        <ele>535.80</ele>
        <time>2016-10-22T07:56:06Z</time>
      </trkpt>
      <trkpt lat="42.387097000" lon="-2.499990000">
        <ele>535.90</ele>
        <time>2016-10-22T07:56:07Z</time>
      </trkpt>
      <trkpt lat="42.387090000" lon="-2.499929000">
        <ele>536.00</ele>
        <time>2016-10-22T07:56:08Z</time>
      </trkpt>
      <trkpt lat="42.387079000" lon="-2.499866000">
        <ele>536.00</ele>
        <time>2016-10-22T07:56:09Z</time>
      </trkpt>
      <trkpt lat="42.387065000" lon="-2.499805000">
        <ele>536.20</ele>
        <time>2016-10-22T07:56:10Z</time>
      </trkpt>
      <trkpt lat="42.387047000" lon="-2.499746000">
        <ele>536.30</ele>
        <time>2016-10-22T07:56:11Z</time>
      </trkpt>
      <trkpt lat="42.387023000" lon="-2.499691000">
        <ele>536.20</ele>
        <time>2016-10-22T07:56:12Z</time>
      </trkpt>
      <trkpt lat="42.386996000" lon="-2.499639000">
        <ele>536.20</ele>
        <time>2016-10-22T07:56:13Z</time>
      </trkpt>
      <trkpt lat="42.386966000" lon="-2.499591000">
        <ele>536.20</ele>
        <time>2016-10-22T07:56:14Z</time>
      </trkpt>
      <trkpt lat="42.386939000" lon="-2.499544000">
        <ele>536.20</ele>
        <time>2016-10-22T07:56:15Z</time>
      </trkpt>
      <trkpt lat="42.386910000" lon="-2.499497000">
        <ele>536.20</ele>
        <time>2016-10-22T07:56:16Z</time>
      </trkpt>
      <trkpt lat="42.386882000" lon="-2.499448000">
        <ele>536.10</ele>
        <time>2016-10-22T07:56:17Z</time>
      </trkpt>
      <trkpt lat="42.386828000" lon="-2.499347000">
        <ele>536.10</ele>
        <time>2016-10-22T07:56:19Z</time>
      </trkpt>
      <trkpt lat="42.386806000" lon="-2.499296000">
        <ele>536.10</ele>
        <time>2016-10-22T07:56:20Z</time>
      </trkpt>
      <trkpt lat="42.386785000" lon="-2.499244000">
        <ele>536.10</ele>
        <time>2016-10-22T07:56:21Z</time>
      </trkpt>
      <trkpt lat="42.386761000" lon="-2.499194000">
        <ele>536.10</ele>
        <time>2016-10-22T07:56:22Z</time>
      </trkpt>
      <trkpt lat="42.386738000" lon="-2.499146000">
        <ele>536.00</ele>
        <time>2016-10-22T07:56:23Z</time>
      </trkpt>
      <trkpt lat="42.386715000" lon="-2.499094000">
        <ele>536.00</ele>
        <time>2016-10-22T07:56:24Z</time>
      </trkpt>
      <trkpt lat="42.386691000" lon="-2.499044000">
        <ele>535.90</ele>
        <time>2016-10-22T07:56:25Z</time>
      </trkpt>
      <trkpt lat="42.386663000" lon="-2.498993000">
        <ele>536.10</ele>
        <time>2016-10-22T07:56:26Z</time>
      </trkpt>
      <trkpt lat="42.386635000" lon="-2.498943000">
        <ele>536.20</ele>
        <time>2016-10-22T07:56:27Z</time>
      </trkpt>
      <trkpt lat="42.386608000" lon="-2.498894000">
        <ele>536.30</ele>
        <time>2016-10-22T07:56:28Z</time>
      </trkpt>
      <trkpt lat="42.386582000" lon="-2.498845000">
        <ele>536.40</ele>
        <time>2016-10-22T07:56:29Z</time>
      </trkpt>
      <trkpt lat="42.386556000" lon="-2.498794000">
        <ele>536.50</ele>
        <time>2016-10-22T07:56:30Z</time>
      </trkpt>
      <trkpt lat="42.386533000" lon="-2.498741000">
        <ele>536.60</ele>
        <time>2016-10-22T07:56:31Z</time>
      </trkpt>
      <trkpt lat="42.386510000" lon="-2.498683000">
        <ele>536.50</ele>
        <time>2016-10-22T07:56:32Z</time>
      </trkpt>
      <trkpt lat="42.386489000" lon="-2.498625000">
        <ele>536.40</ele>
        <time>2016-10-22T07:56:33Z</time>
      </trkpt>
      <trkpt lat="42.386475000" lon="-2.498567000">
        <ele>536.50</ele>
        <time>2016-10-22T07:56:34Z</time>
      </trkpt>
      <trkpt lat="42.386463000" lon="-2.498510000">
        <ele>536.60</ele>
        <time>2016-10-22T07:56:35Z</time>
      </trkpt>
      <trkpt lat="42.386454000" lon="-2.498453000">
        <ele>536.70</ele>
        <time>2016-10-22T07:56:36Z</time>
      </trkpt>
      <trkpt lat="42.386448000" lon="-2.498394000">
        <ele>536.80</ele>
        <time>2016-10-22T07:56:37Z</time>
      </trkpt>
      <trkpt lat="42.386442000" lon="-2.498336000">
        <ele>536.90</ele>
        <time>2016-10-22T07:56:38Z</time>
      </trkpt>
      <trkpt lat="42.386435000" lon="-2.498278000">
        <ele>536.90</ele>
        <time>2016-10-22T07:56:39Z</time>
      </trkpt>
      <trkpt lat="42.386430000" lon="-2.498218000">
        <ele>537.10</ele>
        <time>2016-10-22T07:56:40Z</time>
      </trkpt>
      <trkpt lat="42.386428000" lon="-2.498158000">
        <ele>537.30</ele>
        <time>2016-10-22T07:56:41Z</time>
      </trkpt>
      <trkpt lat="42.386428000" lon="-2.498096000">
        <ele>537.20</ele>
        <time>2016-10-22T07:56:42Z</time>
      </trkpt>
      <trkpt lat="42.386430000" lon="-2.498034000">
        <ele>537.20</ele>
        <time>2016-10-22T07:56:43Z</time>
      </trkpt>
      <trkpt lat="42.386430000" lon="-2.497966000">
        <ele>537.30</ele>
        <time>2016-10-22T07:56:44Z</time>
      </trkpt>
      <trkpt lat="42.386433000" lon="-2.497901000">
        <ele>537.50</ele>
        <time>2016-10-22T07:56:45Z</time>
      </trkpt>
      <trkpt lat="42.386431000" lon="-2.497834000">
        <ele>537.40</ele>
        <time>2016-10-22T07:56:46Z</time>
      </trkpt>
      <trkpt lat="42.386426000" lon="-2.497769000">
        <ele>537.30</ele>
        <time>2016-10-22T07:56:47Z</time>
      </trkpt>
      <trkpt lat="42.386409000" lon="-2.497699000">
        <ele>537.30</ele>
        <time>2016-10-22T07:56:48Z</time>
      </trkpt>
      <trkpt lat="42.386388000" lon="-2.497633000">
        <ele>537.30</ele>
        <time>2016-10-22T07:56:49Z</time>
      </trkpt>
      <trkpt lat="42.386357000" lon="-2.497576000">
        <ele>537.30</ele>
        <time>2016-10-22T07:56:50Z</time>
      </trkpt>
      <trkpt lat="42.386327000" lon="-2.497521000">
        <ele>537.30</ele>
        <time>2016-10-22T07:56:51Z</time>
      </trkpt>
      <trkpt lat="42.386298000" lon="-2.497467000">
        <ele>537.30</ele>
        <time>2016-10-22T07:56:52Z</time>
      </trkpt>
      <trkpt lat="42.386272000" lon="-2.497410000">
        <ele>537.30</ele>
        <time>2016-10-22T07:56:53Z</time>
      </trkpt>
      <trkpt lat="42.386254000" lon="-2.497350000">
        <ele>537.30</ele>
        <time>2016-10-22T07:56:54Z</time>
      </trkpt>
      <trkpt lat="42.386242000" lon="-2.497289000">
        <ele>537.30</ele>
        <time>2016-10-22T07:56:55Z</time>
      </trkpt>
      <trkpt lat="42.386237000" lon="-2.497227000">
        <ele>537.30</ele>
        <time>2016-10-22T07:56:56Z</time>
      </trkpt>
      <trkpt lat="42.386238000" lon="-2.497164000">
        <ele>537.20</ele>
        <time>2016-10-22T07:56:57Z</time>
      </trkpt>
      <trkpt lat="42.386245000" lon="-2.497102000">
        <ele>537.40</ele>
        <time>2016-10-22T07:56:58Z</time>
      </trkpt>
      <trkpt lat="42.386253000" lon="-2.497044000">
        <ele>537.50</ele>
        <time>2016-10-22T07:56:59Z</time>
      </trkpt>
      <trkpt lat="42.386263000" lon="-2.496982000">
        <ele>537.60</ele>
        <time>2016-10-22T07:57:00Z</time>
      </trkpt>
      <trkpt lat="42.386273000" lon="-2.496922000">
        <ele>537.70</ele>
        <time>2016-10-22T07:57:01Z</time>
      </trkpt>
      <trkpt lat="42.386282000" lon="-2.496860000">
        <ele>537.80</ele>
        <time>2016-10-22T07:57:02Z</time>
      </trkpt>
      <trkpt lat="42.386291000" lon="-2.496800000">
        <ele>537.90</ele>
        <time>2016-10-22T07:57:03Z</time>
      </trkpt>
      <trkpt lat="42.386300000" lon="-2.496740000">
        <ele>538.00</ele>
        <time>2016-10-22T07:57:04Z</time>
      </trkpt>
      <trkpt lat="42.386308000" lon="-2.496681000">
        <ele>538.10</ele>
        <time>2016-10-22T07:57:05Z</time>
      </trkpt>
      <trkpt lat="42.386319000" lon="-2.496623000">
        <ele>538.10</ele>
        <time>2016-10-22T07:57:06Z</time>
      </trkpt>
      <trkpt lat="42.386329000" lon="-2.496562000">
        <ele>538.20</ele>
        <time>2016-10-22T07:57:07Z</time>
      </trkpt>
      <trkpt lat="42.386343000" lon="-2.496502000">
        <ele>538.30</ele>
        <time>2016-10-22T07:57:08Z</time>
      </trkpt>
      <trkpt lat="42.386356000" lon="-2.496440000">
        <ele>538.50</ele>
        <time>2016-10-22T07:57:09Z</time>
      </trkpt>
      <trkpt lat="42.386371000" lon="-2.496381000">
        <ele>538.60</ele>
        <time>2016-10-22T07:57:10Z</time>
      </trkpt>
      <trkpt lat="42.386386000" lon="-2.496321000">
        <ele>538.60</ele>
        <time>2016-10-22T07:57:11Z</time>
      </trkpt>
      <trkpt lat="42.386400000" lon="-2.496260000">
        <ele>538.70</ele>
        <time>2016-10-22T07:57:12Z</time>
      </trkpt>
      <trkpt lat="42.386411000" lon="-2.496198000">
        <ele>538.80</ele>
        <time>2016-10-22T07:57:13Z</time>
      </trkpt>
      <trkpt lat="42.386420000" lon="-2.496135000">
        <ele>538.80</ele>
        <time>2016-10-22T07:57:14Z</time>
      </trkpt>
      <trkpt lat="42.386424000" lon="-2.496071000">
        <ele>538.70</ele>
        <time>2016-10-22T07:57:15Z</time>
      </trkpt>
      <trkpt lat="42.386425000" lon="-2.496005000">
        <ele>538.80</ele>
        <time>2016-10-22T07:57:16Z</time>
      </trkpt>
      <trkpt lat="42.386431000" lon="-2.495942000">
        <ele>538.90</ele>
        <time>2016-10-22T07:57:17Z</time>
      </trkpt>
      <trkpt lat="42.386439000" lon="-2.495878000">
        <ele>538.90</ele>
        <time>2016-10-22T07:57:18Z</time>
      </trkpt>
      <trkpt lat="42.386460000" lon="-2.495752000">
        <ele>539.00</ele>
        <time>2016-10-22T07:57:20Z</time>
      </trkpt>
      <trkpt lat="42.386475000" lon="-2.495691000">
        <ele>539.10</ele>
        <time>2016-10-22T07:57:21Z</time>
      </trkpt>
      <trkpt lat="42.386489000" lon="-2.495627000">
        <ele>539.20</ele>
        <time>2016-10-22T07:57:22Z</time>
      </trkpt>
      <trkpt lat="42.386502000" lon="-2.495561000">
        <ele>539.30</ele>
        <time>2016-10-22T07:57:23Z</time>
      </trkpt>
      <trkpt lat="42.386510000" lon="-2.495492000">
        <ele>539.30</ele>
        <time>2016-10-22T07:57:24Z</time>
      </trkpt>
      <trkpt lat="42.386512000" lon="-2.495426000">
        <ele>539.40</ele>
        <time>2016-10-22T07:57:25Z</time>
      </trkpt>
      <trkpt lat="42.386500000" lon="-2.495361000">
        <ele>539.40</ele>
        <time>2016-10-22T07:57:26Z</time>
      </trkpt>
      <trkpt lat="42.386475000" lon="-2.495299000">
        <ele>539.50</ele>
        <time>2016-10-22T07:57:27Z</time>
      </trkpt>
      <trkpt lat="42.386451000" lon="-2.495239000">
        <ele>539.50</ele>
        <time>2016-10-22T07:57:28Z</time>
      </trkpt>
      <trkpt lat="42.386422000" lon="-2.495179000">
        <ele>539.50</ele>
        <time>2016-10-22T07:57:29Z</time>
      </trkpt>
      <trkpt lat="42.386391000" lon="-2.495120000">
        <ele>539.50</ele>
        <time>2016-10-22T07:57:30Z</time>
      </trkpt>
      <trkpt lat="42.386361000" lon="-2.495064000">
        <ele>539.50</ele>
        <time>2016-10-22T07:57:31Z</time>
      </trkpt>
      <trkpt lat="42.386328000" lon="-2.495010000">
        <ele>539.50</ele>
        <time>2016-10-22T07:57:32Z</time>
      </trkpt>
      <trkpt lat="42.386297000" lon="-2.494959000">
        <ele>539.50</ele>
        <time>2016-10-22T07:57:33Z</time>
      </trkpt>
      <trkpt lat="42.386270000" lon="-2.494904000">
        <ele>539.60</ele>
        <time>2016-10-22T07:57:34Z</time>
      </trkpt>
      <trkpt lat="42.386245000" lon="-2.494843000">
        <ele>539.70</ele>
        <time>2016-10-22T07:57:35Z</time>
      </trkpt>
      <trkpt lat="42.386227000" lon="-2.494781000">
        <ele>539.80</ele>
        <time>2016-10-22T07:57:36Z</time>
      </trkpt>
      <trkpt lat="42.386221000" lon="-2.494714000">
        <ele>539.80</ele>
        <time>2016-10-22T07:57:37Z</time>
      </trkpt>
      <trkpt lat="42.386220000" lon="-2.494648000">
        <ele>539.90</ele>
        <time>2016-10-22T07:57:38Z</time>
      </trkpt>
      <trkpt lat="42.386218000" lon="-2.494582000">
        <ele>540.00</ele>
        <time>2016-10-22T07:57:39Z</time>
      </trkpt>
      <trkpt lat="42.386213000" lon="-2.494515000">
        <ele>539.90</ele>
        <time>2016-10-22T07:57:40Z</time>
      </trkpt>
      <trkpt lat="42.386207000" lon="-2.494450000">
        <ele>539.90</ele>
        <time>2016-10-22T07:57:41Z</time>
      </trkpt>
      <trkpt lat="42.386199000" lon="-2.494385000">
        <ele>539.90</ele>
        <time>2016-10-22T07:57:42Z</time>
      </trkpt>
      <trkpt lat="42.386187000" lon="-2.494321000">
        <ele>540.00</ele>
        <time>2016-10-22T07:57:43Z</time>
      </trkpt>
      <trkpt lat="42.386174000" lon="-2.494257000">
        <ele>540.00</ele>
        <time>2016-10-22T07:57:44Z</time>
      </trkpt>
      <trkpt lat="42.386162000" lon="-2.494191000">
        <ele>540.10</ele>
        <time>2016-10-22T07:57:45Z</time>
      </trkpt>
      <trkpt lat="42.386147000" lon="-2.494122000">
        <ele>540.10</ele>
        <time>2016-10-22T07:57:46Z</time>
      </trkpt>
      <trkpt lat="42.386130000" lon="-2.494051000">
        <ele>540.10</ele>
        <time>2016-10-22T07:57:47Z</time>
      </trkpt>
      <trkpt lat="42.386112000" lon="-2.493980000">
        <ele>540.10</ele>
        <time>2016-10-22T07:57:48Z</time>
      </trkpt>
      <trkpt lat="42.386098000" lon="-2.493910000">
        <ele>540.10</ele>
        <time>2016-10-22T07:57:49Z</time>
      </trkpt>
      <trkpt lat="42.386085000" lon="-2.493842000">
        <ele>540.00</ele>
        <time>2016-10-22T07:57:50Z</time>
      </trkpt>
      <trkpt lat="42.386074000" lon="-2.493774000">
        <ele>539.90</ele>
        <time>2016-10-22T07:57:51Z</time>
      </trkpt>
      <trkpt lat="42.386067000" lon="-2.493707000">
        <ele>539.80</ele>
        <time>2016-10-22T07:57:52Z</time>
      </trkpt>
      <trkpt lat="42.386059000" lon="-2.493643000">
        <ele>539.70</ele>
        <time>2016-10-22T07:57:53Z</time>
      </trkpt>
      <trkpt lat="42.386054000" lon="-2.493580000">
        <ele>539.60</ele>
        <time>2016-10-22T07:57:54Z</time>
      </trkpt>
      <trkpt lat="42.386056000" lon="-2.493519000">
        <ele>539.60</ele>
        <time>2016-10-22T07:57:55Z</time>
      </trkpt>
      <trkpt lat="42.386054000" lon="-2.493460000">
        <ele>539.50</ele>
        <time>2016-10-22T07:57:56Z</time>
      </trkpt>
      <trkpt lat="42.386051000" lon="-2.493399000">
        <ele>539.40</ele>
        <time>2016-10-22T07:57:57Z</time>
      </trkpt>
      <trkpt lat="42.386048000" lon="-2.493344000">
        <ele>539.40</ele>
        <time>2016-10-22T07:57:58Z</time>
      </trkpt>
      <trkpt lat="42.386045000" lon="-2.493286000">
        <ele>539.40</ele>
        <time>2016-10-22T07:57:59Z</time>
      </trkpt>
      <trkpt lat="42.386043000" lon="-2.493227000">
        <ele>539.40</ele>
        <time>2016-10-22T07:58:00Z</time>
      </trkpt>
      <trkpt lat="42.386039000" lon="-2.493168000">
        <ele>539.40</ele>
        <time>2016-10-22T07:58:01Z</time>
      </trkpt>
      <trkpt lat="42.386036000" lon="-2.493108000">
        <ele>539.60</ele>
        <time>2016-10-22T07:58:02Z</time>
      </trkpt>
      <trkpt lat="42.386031000" lon="-2.493047000">
        <ele>539.70</ele>
        <time>2016-10-22T07:58:03Z</time>
      </trkpt>
      <trkpt lat="42.386023000" lon="-2.492983000">
        <ele>539.80</ele>
        <time>2016-10-22T07:58:04Z</time>
      </trkpt>
      <trkpt lat="42.386020000" lon="-2.492918000">
        <ele>539.90</ele>
        <time>2016-10-22T07:58:05Z</time>
      </trkpt>
      <trkpt lat="42.386016000" lon="-2.492853000">
        <ele>539.90</ele>
        <time>2016-10-22T07:58:06Z</time>
      </trkpt>
      <trkpt lat="42.386014000" lon="-2.492787000">
        <ele>539.90</ele>
        <time>2016-10-22T07:58:07Z</time>
      </trkpt>
      <trkpt lat="42.386015000" lon="-2.492723000">
        <ele>540.10</ele>
        <time>2016-10-22T07:58:08Z</time>
      </trkpt>
      <trkpt lat="42.386013000" lon="-2.492658000">
        <ele>540.20</ele>
        <time>2016-10-22T07:58:09Z</time>
      </trkpt>
      <trkpt lat="42.386010000" lon="-2.492592000">
        <ele>540.30</ele>
        <time>2016-10-22T07:58:10Z</time>
      </trkpt>
      <trkpt lat="42.386006000" lon="-2.492529000">
        <ele>540.40</ele>
        <time>2016-10-22T07:58:11Z</time>
      </trkpt>
      <trkpt lat="42.386001000" lon="-2.492463000">
        <ele>540.30</ele>
        <time>2016-10-22T07:58:12Z</time>
      </trkpt>
      <trkpt lat="42.385997000" lon="-2.492395000">
        <ele>540.30</ele>
        <time>2016-10-22T07:58:13Z</time>
      </trkpt>
      <trkpt lat="42.385990000" lon="-2.492332000">
        <ele>540.20</ele>
        <time>2016-10-22T07:58:14Z</time>
      </trkpt>
      <trkpt lat="42.385983000" lon="-2.492268000">
        <ele>540.20</ele>
        <time>2016-10-22T07:58:15Z</time>
      </trkpt>
      <trkpt lat="42.385975000" lon="-2.492204000">
        <ele>540.10</ele>
        <time>2016-10-22T07:58:16Z</time>
      </trkpt>
      <trkpt lat="42.385967000" lon="-2.492135000">
        <ele>540.10</ele>
        <time>2016-10-22T07:58:17Z</time>
      </trkpt>
      <trkpt lat="42.385967000" lon="-2.492068000">
        <ele>540.10</ele>
        <time>2016-10-22T07:58:18Z</time>
      </trkpt>
      <trkpt lat="42.385976000" lon="-2.492003000">
        <ele>540.10</ele>
        <time>2016-10-22T07:58:19Z</time>
      </trkpt>
      <trkpt lat="42.386009000" lon="-2.491876000">
        <ele>539.90</ele>
        <time>2016-10-22T07:58:21Z</time>
      </trkpt>
      <trkpt lat="42.386029000" lon="-2.491818000">
        <ele>539.80</ele>
        <time>2016-10-22T07:58:22Z</time>
      </trkpt>
      <trkpt lat="42.386052000" lon="-2.491757000">
        <ele>539.70</ele>
        <time>2016-10-22T07:58:23Z</time>
      </trkpt>
      <trkpt lat="42.386074000" lon="-2.491697000">
        <ele>539.70</ele>
        <time>2016-10-22T07:58:24Z</time>
      </trkpt>
      <trkpt lat="42.386094000" lon="-2.491635000">
        <ele>539.70</ele>
        <time>2016-10-22T07:58:25Z</time>
      </trkpt>
      <trkpt lat="42.386111000" lon="-2.491572000">
        <ele>539.70</ele>
        <time>2016-10-22T07:58:26Z</time>
      </trkpt>
      <trkpt lat="42.386126000" lon="-2.491508000">
        <ele>539.70</ele>
        <time>2016-10-22T07:58:27Z</time>
      </trkpt>
      <trkpt lat="42.386141000" lon="-2.491444000">
        <ele>539.70</ele>
        <time>2016-10-22T07:58:28Z</time>
      </trkpt>
      <trkpt lat="42.386158000" lon="-2.491380000">
        <ele>539.80</ele>
        <time>2016-10-22T07:58:29Z</time>
      </trkpt>
      <trkpt lat="42.386178000" lon="-2.491317000">
        <ele>539.80</ele>
        <time>2016-10-22T07:58:30Z</time>
      </trkpt>
      <trkpt lat="42.386198000" lon="-2.491253000">
        <ele>539.80</ele>
        <time>2016-10-22T07:58:31Z</time>
      </trkpt>
      <trkpt lat="42.386221000" lon="-2.491190000">
        <ele>540.00</ele>
        <time>2016-10-22T07:58:32Z</time>
      </trkpt>
      <trkpt lat="42.386241000" lon="-2.491125000">
        <ele>540.20</ele>
        <time>2016-10-22T07:58:33Z</time>
      </trkpt>
      <trkpt lat="42.386256000" lon="-2.491059000">
        <ele>540.40</ele>
        <time>2016-10-22T07:58:34Z</time>
      </trkpt>
      <trkpt lat="42.386264000" lon="-2.490990000">
        <ele>540.50</ele>
        <time>2016-10-22T07:58:35Z</time>
      </trkpt>
      <trkpt lat="42.386262000" lon="-2.490921000">
        <ele>540.40</ele>
        <time>2016-10-22T07:58:36Z</time>
      </trkpt>
      <trkpt lat="42.386247000" lon="-2.490856000">
        <ele>540.30</ele>
        <time>2016-10-22T07:58:37Z</time>
      </trkpt>
      <trkpt lat="42.386227000" lon="-2.490800000">
        <ele>540.20</ele>
        <time>2016-10-22T07:58:38Z</time>
      </trkpt>
      <trkpt lat="42.386205000" lon="-2.490748000">
        <ele>540.20</ele>
        <time>2016-10-22T07:58:39Z</time>
      </trkpt>
      <trkpt lat="42.386185000" lon="-2.490696000">
        <ele>540.50</ele>
        <time>2016-10-22T07:58:40Z</time>
      </trkpt>
      <trkpt lat="42.386166000" lon="-2.490641000">
        <ele>540.70</ele>
        <time>2016-10-22T07:58:41Z</time>
      </trkpt>
      <trkpt lat="42.386148000" lon="-2.490588000">
        <ele>540.80</ele>
        <time>2016-10-22T07:58:42Z</time>
      </trkpt>
      <trkpt lat="42.386137000" lon="-2.490547000">
        <ele>541.00</ele>
        <time>2016-10-22T07:58:43Z</time>
      </trkpt>
      <trkpt lat="42.386129000" lon="-2.490515000">
        <ele>541.10</ele>
        <time>2016-10-22T07:58:44Z</time>
      </trkpt>
      <trkpt lat="42.386117000" lon="-2.490490000">
        <ele>541.10</ele>
        <time>2016-10-22T07:58:45Z</time>
      </trkpt>
      <trkpt lat="42.386101000" lon="-2.490469000">
        <ele>541.10</ele>
        <time>2016-10-22T07:58:46Z</time>
      </trkpt>
      <trkpt lat="42.386087000" lon="-2.490456000">
        <ele>541.00</ele>
        <time>2016-10-22T07:58:47Z</time>
      </trkpt>
      <trkpt lat="42.386075000" lon="-2.490450000">
        <ele>541.00</ele>
        <time>2016-10-22T07:58:48Z</time>
      </trkpt>
      <trkpt lat="42.386056000" lon="-2.490442000">
        <ele>541.00</ele>
        <time>2016-10-22T07:58:49Z</time>
      </trkpt>
      <trkpt lat="42.386035000" lon="-2.490425000">
        <ele>540.80</ele>
        <time>2016-10-22T07:58:50Z</time>
      </trkpt>
      <trkpt lat="42.386011000" lon="-2.490406000">
        <ele>540.70</ele>
        <time>2016-10-22T07:58:51Z</time>
      </trkpt>
      <trkpt lat="42.385981000" lon="-2.490381000">
        <ele>540.60</ele>
        <time>2016-10-22T07:58:52Z</time>
      </trkpt>
      <trkpt lat="42.385949000" lon="-2.490354000">
        <ele>540.50</ele>
        <time>2016-10-22T07:58:53Z</time>
      </trkpt>
      <trkpt lat="42.385917000" lon="-2.490322000">
        <ele>540.50</ele>
        <time>2016-10-22T07:58:54Z</time>
      </trkpt>
      <trkpt lat="42.385881000" lon="-2.490288000">
        <ele>540.60</ele>
        <time>2016-10-22T07:58:55Z</time>
      </trkpt>
      <trkpt lat="42.385846000" lon="-2.490249000">
        <ele>540.60</ele>
        <time>2016-10-22T07:58:56Z</time>
      </trkpt>
      <trkpt lat="42.385808000" lon="-2.490213000">
        <ele>540.60</ele>
        <time>2016-10-22T07:58:57Z</time>
      </trkpt>
      <trkpt lat="42.385766000" lon="-2.490178000">
        <ele>540.50</ele>
        <time>2016-10-22T07:58:58Z</time>
      </trkpt>
      <trkpt lat="42.385729000" lon="-2.490138000">
        <ele>540.50</ele>
        <time>2016-10-22T07:58:59Z</time>
      </trkpt>
      <trkpt lat="42.385688000" lon="-2.490098000">
        <ele>540.40</ele>
        <time>2016-10-22T07:59:00Z</time>
      </trkpt>
      <trkpt lat="42.385648000" lon="-2.490063000">
        <ele>540.30</ele>
        <time>2016-10-22T07:59:01Z</time>
      </trkpt>
      <trkpt lat="42.385606000" lon="-2.490030000">
        <ele>540.20</ele>
        <time>2016-10-22T07:59:02Z</time>
      </trkpt>
      <trkpt lat="42.385565000" lon="-2.489995000">
        <ele>540.20</ele>
        <time>2016-10-22T07:59:03Z</time>
      </trkpt>
      <trkpt lat="42.385525000" lon="-2.489958000">
        <ele>540.20</ele>
        <time>2016-10-22T07:59:04Z</time>
      </trkpt>
      <trkpt lat="42.385486000" lon="-2.489924000">
        <ele>540.20</ele>
        <time>2016-10-22T07:59:05Z</time>
      </trkpt>
      <trkpt lat="42.385446000" lon="-2.489891000">
        <ele>540.20</ele>
        <time>2016-10-22T07:59:06Z</time>
      </trkpt>
      <trkpt lat="42.385407000" lon="-2.489856000">
        <ele>540.20</ele>
        <time>2016-10-22T07:59:07Z</time>
      </trkpt>
      <trkpt lat="42.385365000" lon="-2.489820000">
        <ele>540.20</ele>
        <time>2016-10-22T07:59:08Z</time>
      </trkpt>
      <trkpt lat="42.385325000" lon="-2.489781000">
        <ele>540.20</ele>
        <time>2016-10-22T07:59:09Z</time>
      </trkpt>
      <trkpt lat="42.385284000" lon="-2.489741000">
        <ele>540.10</ele>
        <time>2016-10-22T07:59:10Z</time>
      </trkpt>
      <trkpt lat="42.385243000" lon="-2.489709000">
        <ele>540.10</ele>
        <time>2016-10-22T07:59:11Z</time>
      </trkpt>
      <trkpt lat="42.385200000" lon="-2.489670000">
        <ele>540.10</ele>
        <time>2016-10-22T07:59:12Z</time>
      </trkpt>
      <trkpt lat="42.385157000" lon="-2.489636000">
        <ele>540.10</ele>
        <time>2016-10-22T07:59:13Z</time>
      </trkpt>
      <trkpt lat="42.385114000" lon="-2.489603000">
        <ele>540.10</ele>
        <time>2016-10-22T07:59:14Z</time>
      </trkpt>
      <trkpt lat="42.385071000" lon="-2.489568000">
        <ele>540.20</ele>
        <time>2016-10-22T07:59:15Z</time>
      </trkpt>
      <trkpt lat="42.385028000" lon="-2.489534000">
        <ele>540.20</ele>
        <time>2016-10-22T07:59:16Z</time>
      </trkpt>
      <trkpt lat="42.384986000" lon="-2.489502000">
        <ele>540.20</ele>
        <time>2016-10-22T07:59:17Z</time>
      </trkpt>
      <trkpt lat="42.384942000" lon="-2.489474000">
        <ele>540.20</ele>
        <time>2016-10-22T07:59:18Z</time>
      </trkpt>
      <trkpt lat="42.384898000" lon="-2.489451000">
        <ele>540.20</ele>
        <time>2016-10-22T07:59:19Z</time>
      </trkpt>
      <trkpt lat="42.384857000" lon="-2.489430000">
        <ele>540.30</ele>
        <time>2016-10-22T07:59:20Z</time>
      </trkpt>
      <trkpt lat="42.384774000" lon="-2.489386000">
        <ele>540.40</ele>
        <time>2016-10-22T07:59:22Z</time>
      </trkpt>
      <trkpt lat="42.384727000" lon="-2.489361000">
        <ele>540.50</ele>
        <time>2016-10-22T07:59:23Z</time>
      </trkpt>
      <trkpt lat="42.384677000" lon="-2.489339000">
        <ele>540.50</ele>
        <time>2016-10-22T07:59:24Z</time>
      </trkpt>
      <trkpt lat="42.384628000" lon="-2.489317000">
        <ele>540.60</ele>
        <time>2016-10-22T07:59:25Z</time>
      </trkpt>
      <trkpt lat="42.384578000" lon="-2.489299000">
        <ele>540.60</ele>
        <time>2016-10-22T07:59:26Z</time>
      </trkpt>
      <trkpt lat="42.384531000" lon="-2.489280000">
        <ele>540.60</ele>
        <time>2016-10-22T07:59:27Z</time>
      </trkpt>
      <trkpt lat="42.384483000" lon="-2.489261000">
        <ele>540.70</ele>
        <time>2016-10-22T07:59:28Z</time>
      </trkpt>
      <trkpt lat="42.384436000" lon="-2.489240000">
        <ele>540.80</ele>
        <time>2016-10-22T07:59:29Z</time>
      </trkpt>
      <trkpt lat="42.384390000" lon="-2.489216000">
        <ele>540.80</ele>
        <time>2016-10-22T07:59:30Z</time>
      </trkpt>
      <trkpt lat="42.384345000" lon="-2.489188000">
        <ele>540.80</ele>
        <time>2016-10-22T07:59:31Z</time>
      </trkpt>
      <trkpt lat="42.384301000" lon="-2.489161000">
        <ele>540.90</ele>
        <time>2016-10-22T07:59:32Z</time>
      </trkpt>
      <trkpt lat="42.384258000" lon="-2.489133000">
        <ele>540.90</ele>
        <time>2016-10-22T07:59:33Z</time>
      </trkpt>
      <trkpt lat="42.384216000" lon="-2.489105000">
        <ele>540.90</ele>
        <time>2016-10-22T07:59:34Z</time>
      </trkpt>
      <trkpt lat="42.384176000" lon="-2.489077000">
        <ele>540.90</ele>
        <time>2016-10-22T07:59:35Z</time>
      </trkpt>
      <trkpt lat="42.384139000" lon="-2.489038000">
        <ele>540.90</ele>
        <time>2016-10-22T07:59:36Z</time>
      </trkpt>
      <trkpt lat="42.384099000" lon="-2.489012000">
        <ele>540.90</ele>
        <time>2016-10-22T07:59:37Z</time>
      </trkpt>
      <trkpt lat="42.384055000" lon="-2.488998000">
        <ele>541.00</ele>
        <time>2016-10-22T07:59:38Z</time>
      </trkpt>
      <trkpt lat="42.384012000" lon="-2.488984000">
        <ele>541.10</ele>
        <time>2016-10-22T07:59:39Z</time>
      </trkpt>
      <trkpt lat="42.383967000" lon="-2.488981000">
        <ele>541.10</ele>
        <time>2016-10-22T07:59:40Z</time>
      </trkpt>
      <trkpt lat="42.383920000" lon="-2.488988000">
        <ele>541.10</ele>
        <time>2016-10-22T07:59:41Z</time>
      </trkpt>
      <trkpt lat="42.383875000" lon="-2.488999000">
        <ele>541.00</ele>
        <time>2016-10-22T07:59:42Z</time>
      </trkpt>
      <trkpt lat="42.383828000" lon="-2.489005000">
        <ele>540.80</ele>
        <time>2016-10-22T07:59:43Z</time>
      </trkpt>
      <trkpt lat="42.383784000" lon="-2.489011000">
        <ele>540.70</ele>
        <time>2016-10-22T07:59:44Z</time>
      </trkpt>
      <trkpt lat="42.383739000" lon="-2.489013000">
        <ele>540.60</ele>
        <time>2016-10-22T07:59:45Z</time>
      </trkpt>
      <trkpt lat="42.383692000" lon="-2.489010000">
        <ele>540.70</ele>
        <time>2016-10-22T07:59:46Z</time>
      </trkpt>
      <trkpt lat="42.383644000" lon="-2.489013000">
        <ele>540.80</ele>
        <time>2016-10-22T07:59:47Z</time>
      </trkpt>
      <trkpt lat="42.383599000" lon="-2.489028000">
        <ele>540.90</ele>
        <time>2016-10-22T07:59:48Z</time>
      </trkpt>
      <trkpt lat="42.383558000" lon="-2.489051000">
        <ele>540.90</ele>
        <time>2016-10-22T07:59:49Z</time>
      </trkpt>
      <trkpt lat="42.383519000" lon="-2.489082000">
        <ele>540.90</ele>
        <time>2016-10-22T07:59:50Z</time>
      </trkpt>
      <trkpt lat="42.383484000" lon="-2.489121000">
        <ele>540.90</ele>
        <time>2016-10-22T07:59:51Z</time>
      </trkpt>
      <trkpt lat="42.383451000" lon="-2.489159000">
        <ele>541.00</ele>
        <time>2016-10-22T07:59:52Z</time>
      </trkpt>
      <trkpt lat="42.383420000" lon="-2.489201000">
        <ele>541.00</ele>
        <time>2016-10-22T07:59:53Z</time>
      </trkpt>
      <trkpt lat="42.383392000" lon="-2.489247000">
        <ele>541.20</ele>
        <time>2016-10-22T07:59:54Z</time>
      </trkpt>
      <trkpt lat="42.383367000" lon="-2.489291000">
        <ele>541.30</ele>
        <time>2016-10-22T07:59:55Z</time>
      </trkpt>
      <trkpt lat="42.383343000" lon="-2.489338000">
        <ele>541.70</ele>
        <time>2016-10-22T07:59:56Z</time>
      </trkpt>
      <trkpt lat="42.383319000" lon="-2.489385000">
        <ele>542.00</ele>
        <time>2016-10-22T07:59:57Z</time>
      </trkpt>
      <trkpt lat="42.383283000" lon="-2.489416000">
        <ele>542.30</ele>
        <time>2016-10-22T07:59:58Z</time>
      </trkpt>
      <trkpt lat="42.383243000" lon="-2.489434000">
        <ele>542.40</ele>
        <time>2016-10-22T07:59:59Z</time>
      </trkpt>
      <trkpt lat="42.383200000" lon="-2.489433000">
        <ele>542.30</ele>
        <time>2016-10-22T08:00:00Z</time>
      </trkpt>
      <trkpt lat="42.383159000" lon="-2.489419000">
        <ele>542.20</ele>
        <time>2016-10-22T08:00:01Z</time>
      </trkpt>
      <trkpt lat="42.383119000" lon="-2.489403000">
        <ele>542.00</ele>
        <time>2016-10-22T08:00:02Z</time>
      </trkpt>
      <trkpt lat="42.383077000" lon="-2.489384000">
        <ele>541.90</ele>
        <time>2016-10-22T08:00:03Z</time>
      </trkpt>
      <trkpt lat="42.383037000" lon="-2.489362000">
        <ele>541.90</ele>
        <time>2016-10-22T08:00:04Z</time>
      </trkpt>
      <trkpt lat="42.382995000" lon="-2.489344000">
        <ele>541.90</ele>
        <time>2016-10-22T08:00:05Z</time>
      </trkpt>
      <trkpt lat="42.382953000" lon="-2.489327000">
        <ele>542.00</ele>
        <time>2016-10-22T08:00:06Z</time>
      </trkpt>
      <trkpt lat="42.382913000" lon="-2.489299000">
        <ele>542.10</ele>
        <time>2016-10-22T08:00:07Z</time>
      </trkpt>
      <trkpt lat="42.382876000" lon="-2.489266000">
        <ele>542.20</ele>
        <time>2016-10-22T08:00:08Z</time>
      </trkpt>
      <trkpt lat="42.382836000" lon="-2.489239000">
        <ele>542.30</ele>
        <time>2016-10-22T08:00:09Z</time>
      </trkpt>
      <trkpt lat="42.382792000" lon="-2.489214000">
        <ele>542.30</ele>
        <time>2016-10-22T08:00:10Z</time>
      </trkpt>
      <trkpt lat="42.382748000" lon="-2.489198000">
        <ele>542.30</ele>
        <time>2016-10-22T08:00:11Z</time>
      </trkpt>
      <trkpt lat="42.382701000" lon="-2.489194000">
        <ele>542.30</ele>
        <time>2016-10-22T08:00:12Z</time>
      </trkpt>
      <trkpt lat="42.382655000" lon="-2.489203000">
        <ele>542.30</ele>
        <time>2016-10-22T08:00:13Z</time>
      </trkpt>
      <trkpt lat="42.382613000" lon="-2.489225000">
        <ele>542.30</ele>
        <time>2016-10-22T08:00:14Z</time>
      </trkpt>
      <trkpt lat="42.382572000" lon="-2.489251000">
        <ele>542.20</ele>
        <time>2016-10-22T08:00:15Z</time>
      </trkpt>
      <trkpt lat="42.382531000" lon="-2.489271000">
        <ele>542.40</ele>
        <time>2016-10-22T08:00:16Z</time>
      </trkpt>
      <trkpt lat="42.382488000" lon="-2.489286000">
        <ele>542.50</ele>
        <time>2016-10-22T08:00:17Z</time>
      </trkpt>
      <trkpt lat="42.382443000" lon="-2.489300000">
        <ele>542.70</ele>
        <time>2016-10-22T08:00:18Z</time>
      </trkpt>
      <trkpt lat="42.382400000" lon="-2.489311000">
        <ele>542.80</ele>
        <time>2016-10-22T08:00:19Z</time>
      </trkpt>
      <trkpt lat="42.382356000" lon="-2.489318000">
        <ele>543.00</ele>
        <time>2016-10-22T08:00:20Z</time>
      </trkpt>
      <trkpt lat="42.382311000" lon="-2.489325000">
        <ele>543.20</ele>
        <time>2016-10-22T08:00:21Z</time>
      </trkpt>
      <trkpt lat="42.382219000" lon="-2.489337000">
        <ele>543.40</ele>
        <time>2016-10-22T08:00:23Z</time>
      </trkpt>
      <trkpt lat="42.382174000" lon="-2.489342000">
        <ele>543.50</ele>
        <time>2016-10-22T08:00:24Z</time>
      </trkpt>
      <trkpt lat="42.382129000" lon="-2.489344000">
        <ele>543.50</ele>
        <time>2016-10-22T08:00:25Z</time>
      </trkpt>
      <trkpt lat="42.382083000" lon="-2.489349000">
        <ele>543.60</ele>
        <time>2016-10-22T08:00:26Z</time>
      </trkpt>
      <trkpt lat="42.382038000" lon="-2.489351000">
        <ele>543.60</ele>
        <time>2016-10-22T08:00:27Z</time>
      </trkpt>
      <trkpt lat="42.381993000" lon="-2.489355000">
        <ele>543.70</ele>
        <time>2016-10-22T08:00:28Z</time>
      </trkpt>
      <trkpt lat="42.381946000" lon="-2.489359000">
        <ele>543.70</ele>
        <time>2016-10-22T08:00:29Z</time>
      </trkpt>
      <trkpt lat="42.381898000" lon="-2.489368000">
        <ele>543.80</ele>
        <time>2016-10-22T08:00:30Z</time>
      </trkpt>
      <trkpt lat="42.381851000" lon="-2.489371000">
        <ele>543.80</ele>
        <time>2016-10-22T08:00:31Z</time>
      </trkpt>
      <trkpt lat="42.381805000" lon="-2.489372000">
        <ele>543.80</ele>
        <time>2016-10-22T08:00:32Z</time>
      </trkpt>
      <trkpt lat="42.381759000" lon="-2.489370000">
        <ele>543.80</ele>
        <time>2016-10-22T08:00:33Z</time>
      </trkpt>
      <trkpt lat="42.381712000" lon="-2.489367000">
        <ele>543.70</ele>
        <time>2016-10-22T08:00:34Z</time>
      </trkpt>
      <trkpt lat="42.381669000" lon="-2.489362000">
        <ele>543.70</ele>
        <time>2016-10-22T08:00:35Z</time>
      </trkpt>
      <trkpt lat="42.381626000" lon="-2.489356000">
        <ele>543.70</ele>
        <time>2016-10-22T08:00:36Z</time>
      </trkpt>
      <trkpt lat="42.381583000" lon="-2.489351000">
        <ele>543.70</ele>
        <time>2016-10-22T08:00:37Z</time>
      </trkpt>
      <trkpt lat="42.381539000" lon="-2.489349000">
        <ele>543.80</ele>
        <time>2016-10-22T08:00:38Z</time>
      </trkpt>
      <trkpt lat="42.381495000" lon="-2.489347000">
        <ele>543.80</ele>
        <time>2016-10-22T08:00:39Z</time>
      </trkpt>
      <trkpt lat="42.381450000" lon="-2.489349000">
        <ele>543.90</ele>
        <time>2016-10-22T08:00:40Z</time>
      </trkpt>
      <trkpt lat="42.381402000" lon="-2.489351000">
        <ele>544.00</ele>
        <time>2016-10-22T08:00:41Z</time>
      </trkpt>
      <trkpt lat="42.381356000" lon="-2.489347000">
        <ele>544.00</ele>
        <time>2016-10-22T08:00:42Z</time>
      </trkpt>
      <trkpt lat="42.381306000" lon="-2.489343000">
        <ele>544.10</ele>
        <time>2016-10-22T08:00:43Z</time>
      </trkpt>
      <trkpt lat="42.381257000" lon="-2.489334000">
        <ele>544.10</ele>
        <time>2016-10-22T08:00:44Z</time>
      </trkpt>
      <trkpt lat="42.381208000" lon="-2.489321000">
        <ele>544.10</ele>
        <time>2016-10-22T08:00:45Z</time>
      </trkpt>
      <trkpt lat="42.381163000" lon="-2.489304000">
        <ele>544.00</ele>
        <time>2016-10-22T08:00:46Z</time>
      </trkpt>
      <trkpt lat="42.381117000" lon="-2.489286000">
        <ele>543.90</ele>
        <time>2016-10-22T08:00:47Z</time>
      </trkpt>
      <trkpt lat="42.381071000" lon="-2.489279000">
        <ele>543.90</ele>
        <time>2016-10-22T08:00:48Z</time>
      </trkpt>
      <trkpt lat="42.381025000" lon="-2.489267000">
        <ele>543.80</ele>
        <time>2016-10-22T08:00:49Z</time>
      </trkpt>
      <trkpt lat="42.380978000" lon="-2.489263000">
        <ele>543.70</ele>
        <time>2016-10-22T08:00:50Z</time>
      </trkpt>
      <trkpt lat="42.380930000" lon="-2.489264000">
        <ele>543.60</ele>
        <time>2016-10-22T08:00:51Z</time>
      </trkpt>
      <trkpt lat="42.380882000" lon="-2.489270000">
        <ele>543.50</ele>
        <time>2016-10-22T08:00:52Z</time>
      </trkpt>
      <trkpt lat="42.380837000" lon="-2.489282000">
        <ele>543.40</ele>
        <time>2016-10-22T08:00:53Z</time>
      </trkpt>
      <trkpt lat="42.380790000" lon="-2.489291000">
        <ele>543.40</ele>
        <time>2016-10-22T08:00:54Z</time>
      </trkpt>
      <trkpt lat="42.380745000" lon="-2.489303000">
        <ele>543.30</ele>
        <time>2016-10-22T08:00:55Z</time>
      </trkpt>
      <trkpt lat="42.380699000" lon="-2.489306000">
        <ele>543.50</ele>
        <time>2016-10-22T08:00:56Z</time>
      </trkpt>
      <trkpt lat="42.380656000" lon="-2.489308000">
        <ele>543.50</ele>
        <time>2016-10-22T08:00:57Z</time>
      </trkpt>
      <trkpt lat="42.380609000" lon="-2.489311000">
        <ele>543.50</ele>
        <time>2016-10-22T08:00:58Z</time>
      </trkpt>
      <trkpt lat="42.380562000" lon="-2.489314000">
        <ele>543.40</ele>
        <time>2016-10-22T08:00:59Z</time>
      </trkpt>
      <trkpt lat="42.380515000" lon="-2.489324000">
        <ele>543.50</ele>
        <time>2016-10-22T08:01:00Z</time>
      </trkpt>
      <trkpt lat="42.380467000" lon="-2.489334000">
        <ele>543.60</ele>
        <time>2016-10-22T08:01:01Z</time>
      </trkpt>
      <trkpt lat="42.380422000" lon="-2.489340000">
        <ele>543.30</ele>
        <time>2016-10-22T08:01:02Z</time>
      </trkpt>
      <trkpt lat="42.380375000" lon="-2.489344000">
        <ele>543.10</ele>
        <time>2016-10-22T08:01:03Z</time>
      </trkpt>
      <trkpt lat="42.380329000" lon="-2.489348000">
        <ele>543.00</ele>
        <time>2016-10-22T08:01:04Z</time>
      </trkpt>
      <trkpt lat="42.380282000" lon="-2.489350000">
        <ele>542.90</ele>
        <time>2016-10-22T08:01:05Z</time>
      </trkpt>
      <trkpt lat="42.380236000" lon="-2.489354000">
        <ele>542.90</ele>
        <time>2016-10-22T08:01:06Z</time>
      </trkpt>
      <trkpt lat="42.380191000" lon="-2.489357000">
        <ele>542.80</ele>
        <time>2016-10-22T08:01:07Z</time>
      </trkpt>
      <trkpt lat="42.380146000" lon="-2.489360000">
        <ele>542.80</ele>
        <time>2016-10-22T08:01:08Z</time>
      </trkpt>
      <trkpt lat="42.380100000" lon="-2.489368000">
        <ele>542.80</ele>
        <time>2016-10-22T08:01:09Z</time>
      </trkpt>
      <trkpt lat="42.380056000" lon="-2.489373000">
        <ele>542.80</ele>
        <time>2016-10-22T08:01:10Z</time>
      </trkpt>
      <trkpt lat="42.380012000" lon="-2.489380000">
        <ele>542.70</ele>
        <time>2016-10-22T08:01:11Z</time>
      </trkpt>
      <trkpt lat="42.379966000" lon="-2.489385000">
        <ele>542.90</ele>
        <time>2016-10-22T08:01:12Z</time>
      </trkpt>
      <trkpt lat="42.379920000" lon="-2.489387000">
        <ele>543.10</ele>
        <time>2016-10-22T08:01:13Z</time>
      </trkpt>
      <trkpt lat="42.379873000" lon="-2.489396000">
        <ele>543.20</ele>
        <time>2016-10-22T08:01:14Z</time>
      </trkpt>
      <trkpt lat="42.379830000" lon="-2.489400000">
        <ele>543.30</ele>
        <time>2016-10-22T08:01:15Z</time>
      </trkpt>
      <trkpt lat="42.379787000" lon="-2.489409000">
        <ele>543.30</ele>
        <time>2016-10-22T08:01:16Z</time>
      </trkpt>
      <trkpt lat="42.379742000" lon="-2.489414000">
        <ele>543.40</ele>
        <time>2016-10-22T08:01:17Z</time>
      </trkpt>
      <trkpt lat="42.379698000" lon="-2.489420000">
        <ele>543.50</ele>
        <time>2016-10-22T08:01:18Z</time>
      </trkpt>
      <trkpt lat="42.379653000" lon="-2.489432000">
        <ele>543.50</ele>
        <time>2016-10-22T08:01:19Z</time>
      </trkpt>
      <trkpt lat="42.379610000" lon="-2.489444000">
        <ele>543.60</ele>
        <time>2016-10-22T08:01:20Z</time>
      </trkpt>
      <trkpt lat="42.379566000" lon="-2.489449000">
        <ele>543.60</ele>
        <time>2016-10-22T08:01:21Z</time>
      </trkpt>
      <trkpt lat="42.379523000" lon="-2.489456000">
        <ele>543.70</ele>
        <time>2016-10-22T08:01:22Z</time>
      </trkpt>
      <trkpt lat="42.379432000" lon="-2.489468000">
        <ele>543.70</ele>
        <time>2016-10-22T08:01:24Z</time>
      </trkpt>
      <trkpt lat="42.379387000" lon="-2.489473000">
        <ele>543.60</ele>
        <time>2016-10-22T08:01:25Z</time>
      </trkpt>
      <trkpt lat="42.379340000" lon="-2.489484000">
        <ele>543.60</ele>
        <time>2016-10-22T08:01:26Z</time>
      </trkpt>
      <trkpt lat="42.379293000" lon="-2.489496000">
        <ele>543.60</ele>
        <time>2016-10-22T08:01:27Z</time>
      </trkpt>
      <trkpt lat="42.379247000" lon="-2.489511000">
        <ele>543.60</ele>
        <time>2016-10-22T08:01:28Z</time>
      </trkpt>
      <trkpt lat="42.379199000" lon="-2.489522000">
        <ele>543.50</ele>
        <time>2016-10-22T08:01:29Z</time>
      </trkpt>
      <trkpt lat="42.379154000" lon="-2.489531000">
        <ele>543.60</ele>
        <time>2016-10-22T08:01:30Z</time>
      </trkpt>
      <trkpt lat="42.379107000" lon="-2.489533000">
        <ele>543.70</ele>
        <time>2016-10-22T08:01:31Z</time>
      </trkpt>
      <trkpt lat="42.379060000" lon="-2.489538000">
        <ele>543.80</ele>
        <time>2016-10-22T08:01:32Z</time>
      </trkpt>
      <trkpt lat="42.379013000" lon="-2.489542000">
        <ele>543.90</ele>
        <time>2016-10-22T08:01:33Z</time>
      </trkpt>
      <trkpt lat="42.378967000" lon="-2.489551000">
        <ele>543.90</ele>
        <time>2016-10-22T08:01:34Z</time>
      </trkpt>
      <trkpt lat="42.378920000" lon="-2.489566000">
        <ele>543.90</ele>
        <time>2016-10-22T08:01:35Z</time>
      </trkpt>
      <trkpt lat="42.378873000" lon="-2.489580000">
        <ele>544.00</ele>
        <time>2016-10-22T08:01:36Z</time>
      </trkpt>
      <trkpt lat="42.378827000" lon="-2.489596000">
        <ele>544.00</ele>
        <time>2016-10-22T08:01:37Z</time>
      </trkpt>
      <trkpt lat="42.378779000" lon="-2.489613000">
        <ele>544.10</ele>
        <time>2016-10-22T08:01:38Z</time>
      </trkpt>
      <trkpt lat="42.378733000" lon="-2.489629000">
        <ele>544.10</ele>
        <time>2016-10-22T08:01:39Z</time>
      </trkpt>
      <trkpt lat="42.378686000" lon="-2.489647000">
        <ele>544.10</ele>
        <time>2016-10-22T08:01:40Z</time>
      </trkpt>
      <trkpt lat="42.378640000" lon="-2.489665000">
        <ele>544.20</ele>
        <time>2016-10-22T08:01:41Z</time>
      </trkpt>
      <trkpt lat="42.378592000" lon="-2.489679000">
        <ele>544.10</ele>
        <time>2016-10-22T08:01:42Z</time>
      </trkpt>
      <trkpt lat="42.378546000" lon="-2.489693000">
        <ele>544.10</ele>
        <time>2016-10-22T08:01:43Z</time>
      </trkpt>
      <trkpt lat="42.378501000" lon="-2.489714000">
        <ele>544.00</ele>
        <time>2016-10-22T08:01:44Z</time>
      </trkpt>
      <trkpt lat="42.378459000" lon="-2.489739000">
        <ele>543.90</ele>
        <time>2016-10-22T08:01:45Z</time>
      </trkpt>
      <trkpt lat="42.378415000" lon="-2.489771000">
        <ele>543.70</ele>
        <time>2016-10-22T08:01:46Z</time>
      </trkpt>
      <trkpt lat="42.378373000" lon="-2.489805000">
        <ele>543.60</ele>
        <time>2016-10-22T08:01:47Z</time>
      </trkpt>
      <trkpt lat="42.378328000" lon="-2.489836000">
        <ele>543.50</ele>
        <time>2016-10-22T08:01:48Z</time>
      </trkpt>
      <trkpt lat="42.378281000" lon="-2.489864000">
        <ele>543.40</ele>
        <time>2016-10-22T08:01:49Z</time>
      </trkpt>
      <trkpt lat="42.378233000" lon="-2.489883000">
        <ele>543.40</ele>
        <time>2016-10-22T08:01:50Z</time>
      </trkpt>
      <trkpt lat="42.378185000" lon="-2.489892000">
        <ele>543.40</ele>
        <time>2016-10-22T08:01:51Z</time>
      </trkpt>
      <trkpt lat="42.378134000" lon="-2.489888000">
        <ele>543.60</ele>
        <time>2016-10-22T08:01:52Z</time>
      </trkpt>
      <trkpt lat="42.378081000" lon="-2.489877000">
        <ele>543.80</ele>
        <time>2016-10-22T08:01:53Z</time>
      </trkpt>
      <trkpt lat="42.378031000" lon="-2.489866000">
        <ele>543.90</ele>
        <time>2016-10-22T08:01:54Z</time>
      </trkpt>
      <trkpt lat="42.377983000" lon="-2.489859000">
        <ele>544.00</ele>
        <time>2016-10-22T08:01:55Z</time>
      </trkpt>
      <trkpt lat="42.377935000" lon="-2.489853000">
        <ele>544.00</ele>
        <time>2016-10-22T08:01:56Z</time>
      </trkpt>
      <trkpt lat="42.377892000" lon="-2.489848000">
        <ele>544.00</ele>
        <time>2016-10-22T08:01:57Z</time>
      </trkpt>
      <trkpt lat="42.377850000" lon="-2.489842000">
        <ele>543.90</ele>
        <time>2016-10-22T08:01:58Z</time>
      </trkpt>
      <trkpt lat="42.377809000" lon="-2.489837000">
        <ele>543.80</ele>
        <time>2016-10-22T08:01:59Z</time>
      </trkpt>
      <trkpt lat="42.377771000" lon="-2.489827000">
        <ele>543.90</ele>
        <time>2016-10-22T08:02:00Z</time>
      </trkpt>
      <trkpt lat="42.377735000" lon="-2.489822000">
        <ele>543.90</ele>
        <time>2016-10-22T08:02:01Z</time>
      </trkpt>
      <trkpt lat="42.377698000" lon="-2.489817000">
        <ele>544.10</ele>
        <time>2016-10-22T08:02:02Z</time>
      </trkpt>
      <trkpt lat="42.377663000" lon="-2.489815000">
        <ele>544.20</ele>
        <time>2016-10-22T08:02:03Z</time>
      </trkpt>
      <trkpt lat="42.377629000" lon="-2.489811000">
        <ele>544.30</ele>
        <time>2016-10-22T08:02:04Z</time>
      </trkpt>
      <trkpt lat="42.377598000" lon="-2.489806000">
        <ele>544.40</ele>
        <time>2016-10-22T08:02:05Z</time>
      </trkpt>
      <trkpt lat="42.377569000" lon="-2.489805000">
        <ele>544.30</ele>
        <time>2016-10-22T08:02:06Z</time>
      </trkpt>
      <trkpt lat="42.377545000" lon="-2.489807000">
        <ele>544.20</ele>
        <time>2016-10-22T08:02:07Z</time>
      </trkpt>
      <trkpt lat="42.377522000" lon="-2.489806000">
        <ele>544.10</ele>
        <time>2016-10-22T08:02:08Z</time>
      </trkpt>
      <trkpt lat="42.377502000" lon="-2.489807000">
        <ele>544.10</ele>
        <time>2016-10-22T08:02:09Z</time>
      </trkpt>
      <trkpt lat="42.377484000" lon="-2.489803000">
        <ele>544.00</ele>
        <time>2016-10-22T08:02:10Z</time>
      </trkpt>
      <trkpt lat="42.377463000" lon="-2.489800000">
        <ele>543.90</ele>
        <time>2016-10-22T08:02:11Z</time>
      </trkpt>
      <trkpt lat="42.377441000" lon="-2.489794000">
        <ele>544.10</ele>
        <time>2016-10-22T08:02:12Z</time>
      </trkpt>
      <trkpt lat="42.377414000" lon="-2.489793000">
        <ele>544.20</ele>
        <time>2016-10-22T08:02:13Z</time>
      </trkpt>
      <trkpt lat="42.377386000" lon="-2.489792000">
        <ele>544.30</ele>
        <time>2016-10-22T08:02:14Z</time>
      </trkpt>
      <trkpt lat="42.377354000" lon="-2.489792000">
        <ele>544.30</ele>
        <time>2016-10-22T08:02:15Z</time>
      </trkpt>
      <trkpt lat="42.377316000" lon="-2.489792000">
        <ele>544.30</ele>
        <time>2016-10-22T08:02:16Z</time>
      </trkpt>
      <trkpt lat="42.377276000" lon="-2.489794000">
        <ele>544.30</ele>
        <time>2016-10-22T08:02:17Z</time>
      </trkpt>
      <trkpt lat="42.377235000" lon="-2.489793000">
        <ele>544.40</ele>
        <time>2016-10-22T08:02:18Z</time>
      </trkpt>
      <trkpt lat="42.377192000" lon="-2.489796000">
        <ele>544.40</ele>
        <time>2016-10-22T08:02:19Z</time>
      </trkpt>
      <trkpt lat="42.377144000" lon="-2.489794000">
        <ele>544.30</ele>
        <time>2016-10-22T08:02:20Z</time>
      </trkpt>
      <trkpt lat="42.377098000" lon="-2.489793000">
        <ele>544.20</ele>
        <time>2016-10-22T08:02:21Z</time>
      </trkpt>
      <trkpt lat="42.377050000" lon="-2.489791000">
        <ele>544.30</ele>
        <time>2016-10-22T08:02:22Z</time>
      </trkpt>
      <trkpt lat="42.377003000" lon="-2.489791000">
        <ele>544.30</ele>
        <time>2016-10-22T08:02:23Z</time>
      </trkpt>
      <trkpt lat="42.376909000" lon="-2.489791000">
        <ele>544.00</ele>
        <time>2016-10-22T08:02:25Z</time>
      </trkpt>
      <trkpt lat="42.376861000" lon="-2.489792000">
        <ele>544.10</ele>
        <time>2016-10-22T08:02:26Z</time>
      </trkpt>
      <trkpt lat="42.376816000" lon="-2.489790000">
        <ele>544.10</ele>
        <time>2016-10-22T08:02:27Z</time>
      </trkpt>
      <trkpt lat="42.376772000" lon="-2.489784000">
        <ele>544.10</ele>
        <time>2016-10-22T08:02:28Z</time>
      </trkpt>
      <trkpt lat="42.376728000" lon="-2.489779000">
        <ele>544.10</ele>
        <time>2016-10-22T08:02:29Z</time>
      </trkpt>
      <trkpt lat="42.376683000" lon="-2.489771000">
        <ele>544.10</ele>
        <time>2016-10-22T08:02:30Z</time>
      </trkpt>
      <trkpt lat="42.376644000" lon="-2.489768000">
        <ele>544.10</ele>
        <time>2016-10-22T08:02:31Z</time>
      </trkpt>
      <trkpt lat="42.376612000" lon="-2.489769000">
        <ele>544.00</ele>
        <time>2016-10-22T08:02:32Z</time>
      </trkpt>
      <trkpt lat="42.376582000" lon="-2.489773000">
        <ele>544.00</ele>
        <time>2016-10-22T08:02:33Z</time>
      </trkpt>
      <trkpt lat="42.376553000" lon="-2.489779000">
        <ele>544.00</ele>
        <time>2016-10-22T08:02:34Z</time>
      </trkpt>
      <trkpt lat="42.376534000" lon="-2.489778000">
        <ele>543.90</ele>
        <time>2016-10-22T08:02:35Z</time>
      </trkpt>
      <trkpt lat="42.376533000" lon="-2.489776000">
        <ele>543.90</ele>
        <time>2016-10-22T08:02:36Z</time>
      </trkpt>
      <trkpt lat="42.376533000" lon="-2.489776000">
        <ele>543.90</ele>
        <time>2016-10-22T08:02:37Z</time>
      </trkpt>
      <trkpt lat="42.376533000" lon="-2.489776000">
        <ele>543.90</ele>
        <time>2016-10-22T08:02:38Z</time>
      </trkpt>
      <trkpt lat="42.376533000" lon="-2.489776000">
        <ele>543.90</ele>
        <time>2016-10-22T08:02:39Z</time>
      </trkpt>
      <trkpt lat="42.376533000" lon="-2.489776000">
        <ele>543.90</ele>
        <time>2016-10-22T08:02:40Z</time>
      </trkpt>
      <trkpt lat="42.376533000" lon="-2.489776000">
        <ele>543.90</ele>
        <time>2016-10-22T08:02:41Z</time>
      </trkpt>
      <trkpt lat="42.376533000" lon="-2.489776000">
        <ele>543.90</ele>
        <time>2016-10-22T08:02:42Z</time>
      </trkpt>
      <trkpt lat="42.376542000" lon="-2.489773000">
        <ele>543.90</ele>
        <time>2016-10-22T08:02:43Z</time>
      </trkpt>
      <trkpt lat="42.376548000" lon="-2.489773000">
        <ele>544.00</ele>
        <time>2016-10-22T08:02:44Z</time>
      </trkpt>
      <trkpt lat="42.376556000" lon="-2.489769000">
        <ele>544.10</ele>
        <time>2016-10-22T08:02:45Z</time>
      </trkpt>
      <trkpt lat="42.376573000" lon="-2.489767000">
        <ele>544.20</ele>
        <time>2016-10-22T08:02:46Z</time>
      </trkpt>
      <trkpt lat="42.376587000" lon="-2.489769000">
        <ele>544.20</ele>
        <time>2016-10-22T08:02:47Z</time>
      </trkpt>
      <trkpt lat="42.376605000" lon="-2.489774000">
        <ele>544.20</ele>
        <time>2016-10-22T08:02:48Z</time>
      </trkpt>
      <trkpt lat="42.376625000" lon="-2.489775000">
        <ele>544.10</ele>
        <time>2016-10-22T08:02:49Z</time>
      </trkpt>
      <trkpt lat="42.376649000" lon="-2.489778000">
        <ele>544.10</ele>
        <time>2016-10-22T08:02:50Z</time>
      </trkpt>
      <trkpt lat="42.376671000" lon="-2.489781000">
        <ele>544.00</ele>
        <time>2016-10-22T08:02:51Z</time>
      </trkpt>
      <trkpt lat="42.376693000" lon="-2.489783000">
        <ele>544.00</ele>
        <time>2016-10-22T08:02:52Z</time>
      </trkpt>
      <trkpt lat="42.376717000" lon="-2.489789000">
        <ele>544.00</ele>
        <time>2016-10-22T08:02:53Z</time>
      </trkpt>
      <trkpt lat="42.376746000" lon="-2.489797000">
        <ele>544.00</ele>
        <time>2016-10-22T08:02:54Z</time>
      </trkpt>
      <trkpt lat="42.376776000" lon="-2.489806000">
        <ele>544.00</ele>
        <time>2016-10-22T08:02:55Z</time>
      </trkpt>
      <trkpt lat="42.376809000" lon="-2.489814000">
        <ele>544.00</ele>
        <time>2016-10-22T08:02:56Z</time>
      </trkpt>
      <trkpt lat="42.376844000" lon="-2.489815000">
        <ele>544.00</ele>
        <time>2016-10-22T08:02:57Z</time>
      </trkpt>
      <trkpt lat="42.376879000" lon="-2.489809000">
        <ele>543.90</ele>
        <time>2016-10-22T08:02:58Z</time>
      </trkpt>
      <trkpt lat="42.376913000" lon="-2.489804000">
        <ele>543.80</ele>
        <time>2016-10-22T08:02:59Z</time>
      </trkpt>
      <trkpt lat="42.376948000" lon="-2.489799000">
        <ele>543.80</ele>
        <time>2016-10-22T08:03:00Z</time>
      </trkpt>
      <trkpt lat="42.376981000" lon="-2.489794000">
        <ele>543.80</ele>
        <time>2016-10-22T08:03:01Z</time>
      </trkpt>
      <trkpt lat="42.377012000" lon="-2.489795000">
        <ele>543.90</ele>
        <time>2016-10-22T08:03:02Z</time>
      </trkpt>
      <trkpt lat="42.377044000" lon="-2.489796000">
        <ele>544.00</ele>
        <time>2016-10-22T08:03:03Z</time>
      </trkpt>
      <trkpt lat="42.377072000" lon="-2.489799000">
        <ele>544.00</ele>
        <time>2016-10-22T08:03:04Z</time>
      </trkpt>
      <trkpt lat="42.377098000" lon="-2.489797000">
        <ele>544.10</ele>
        <time>2016-10-22T08:03:05Z</time>
      </trkpt>
      <trkpt lat="42.377125000" lon="-2.489796000">
        <ele>544.10</ele>
        <time>2016-10-22T08:03:06Z</time>
      </trkpt>
      <trkpt lat="42.377152000" lon="-2.489794000">
        <ele>544.10</ele>
        <time>2016-10-22T08:03:07Z</time>
      </trkpt>
      <trkpt lat="42.377179000" lon="-2.489792000">
        <ele>544.30</ele>
        <time>2016-10-22T08:03:08Z</time>
      </trkpt>
      <trkpt lat="42.377209000" lon="-2.489795000">
        <ele>544.40</ele>
        <time>2016-10-22T08:03:09Z</time>
      </trkpt>
      <trkpt lat="42.377240000" lon="-2.489797000">
        <ele>544.50</ele>
        <time>2016-10-22T08:03:10Z</time>
      </trkpt>
      <trkpt lat="42.377272000" lon="-2.489798000">
        <ele>544.50</ele>
        <time>2016-10-22T08:03:11Z</time>
      </trkpt>
      <trkpt lat="42.377306000" lon="-2.489800000">
        <ele>544.60</ele>
        <time>2016-10-22T08:03:12Z</time>
      </trkpt>
      <trkpt lat="42.377340000" lon="-2.489806000">
        <ele>544.60</ele>
        <time>2016-10-22T08:03:13Z</time>
      </trkpt>
      <trkpt lat="42.377374000" lon="-2.489813000">
        <ele>544.70</ele>
        <time>2016-10-22T08:03:14Z</time>
      </trkpt>
      <trkpt lat="42.377406000" lon="-2.489820000">
        <ele>544.70</ele>
        <time>2016-10-22T08:03:15Z</time>
      </trkpt>
      <trkpt lat="42.377438000" lon="-2.489829000">
        <ele>544.60</ele>
        <time>2016-10-22T08:03:16Z</time>
      </trkpt>
      <trkpt lat="42.377467000" lon="-2.489834000">
        <ele>544.50</ele>
        <time>2016-10-22T08:03:17Z</time>
      </trkpt>
      <trkpt lat="42.377490000" lon="-2.489839000">
        <ele>544.40</ele>
        <time>2016-10-22T08:03:18Z</time>
      </trkpt>
      <trkpt lat="42.377515000" lon="-2.489840000">
        <ele>544.40</ele>
        <time>2016-10-22T08:03:19Z</time>
      </trkpt>
      <trkpt lat="42.377534000" lon="-2.489841000">
        <ele>544.30</ele>
        <time>2016-10-22T08:03:20Z</time>
      </trkpt>
      <trkpt lat="42.377549000" lon="-2.489837000">
        <ele>544.20</ele>
        <time>2016-10-22T08:03:21Z</time>
      </trkpt>
      <trkpt lat="42.377555000" lon="-2.489835000">
        <ele>544.10</ele>
        <time>2016-10-22T08:03:22Z</time>
      </trkpt>
      <trkpt lat="42.377562000" lon="-2.489823000">
        <ele>544.10</ele>
        <time>2016-10-22T08:03:23Z</time>
      </trkpt>
      <trkpt lat="42.377574000" lon="-2.489804000">
        <ele>544.10</ele>
        <time>2016-10-22T08:03:24Z</time>
      </trkpt>
      <trkpt lat="42.377587000" lon="-2.489764000">
        <ele>544.20</ele>
        <time>2016-10-22T08:03:26Z</time>
      </trkpt>
      <trkpt lat="42.377587000" lon="-2.489735000">
        <ele>544.20</ele>
        <time>2016-10-22T08:03:27Z</time>
      </trkpt>
      <trkpt lat="42.377586000" lon="-2.489702000">
        <ele>544.00</ele>
        <time>2016-10-22T08:03:28Z</time>
      </trkpt>
      <trkpt lat="42.377578000" lon="-2.489653000">
        <ele>544.00</ele>
        <time>2016-10-22T08:03:29Z</time>
      </trkpt>
      <trkpt lat="42.377563000" lon="-2.489597000">
        <ele>543.70</ele>
        <time>2016-10-22T08:03:30Z</time>
      </trkpt>
      <trkpt lat="42.377552000" lon="-2.489531000">
        <ele>543.50</ele>
        <time>2016-10-22T08:03:31Z</time>
      </trkpt>
      <trkpt lat="42.377539000" lon="-2.489452000">
        <ele>543.30</ele>
        <time>2016-10-22T08:03:32Z</time>
      </trkpt>
      <trkpt lat="42.377527000" lon="-2.489376000">
        <ele>543.20</ele>
        <time>2016-10-22T08:03:33Z</time>
      </trkpt>
      <trkpt lat="42.377508000" lon="-2.489299000">
        <ele>542.70</ele>
        <time>2016-10-22T08:03:34Z</time>
      </trkpt>
      <trkpt lat="42.377484000" lon="-2.489221000">
        <ele>542.30</ele>
        <time>2016-10-22T08:03:35Z</time>
      </trkpt>
      <trkpt lat="42.377458000" lon="-2.489144000">
        <ele>541.60</ele>
        <time>2016-10-22T08:03:36Z</time>
      </trkpt>
      <trkpt lat="42.377425000" lon="-2.489069000">
        <ele>541.00</ele>
        <time>2016-10-22T08:03:37Z</time>
      </trkpt>
      <trkpt lat="42.377388000" lon="-2.488994000">
        <ele>539.30</ele>
        <time>2016-10-22T08:03:38Z</time>
      </trkpt>
      <trkpt lat="42.377345000" lon="-2.488921000">
        <ele>538.00</ele>
        <time>2016-10-22T08:03:39Z</time>
      </trkpt>
      <trkpt lat="42.377309000" lon="-2.488842000">
        <ele>536.90</ele>
        <time>2016-10-22T08:03:40Z</time>
      </trkpt>
      <trkpt lat="42.377279000" lon="-2.488764000">
        <ele>536.10</ele>
        <time>2016-10-22T08:03:41Z</time>
      </trkpt>
      <trkpt lat="42.377254000" lon="-2.488684000">
        <ele>534.60</ele>
        <time>2016-10-22T08:03:42Z</time>
      </trkpt>
      <trkpt lat="42.377225000" lon="-2.488603000">
        <ele>533.50</ele>
        <time>2016-10-22T08:03:43Z</time>
      </trkpt>
      <trkpt lat="42.377199000" lon="-2.488521000">
        <ele>531.90</ele>
        <time>2016-10-22T08:03:44Z</time>
      </trkpt>
      <trkpt lat="42.377174000" lon="-2.488434000">
        <ele>530.70</ele>
        <time>2016-10-22T08:03:45Z</time>
      </trkpt>
      <trkpt lat="42.377156000" lon="-2.488349000">
        <ele>529.30</ele>
        <time>2016-10-22T08:03:46Z</time>
      </trkpt>
      <trkpt lat="42.377143000" lon="-2.488265000">
        <ele>528.30</ele>
        <time>2016-10-22T08:03:47Z</time>
      </trkpt>
      <trkpt lat="42.377134000" lon="-2.488183000">
        <ele>526.00</ele>
        <time>2016-10-22T08:03:48Z</time>
      </trkpt>
      <trkpt lat="42.377132000" lon="-2.488103000">
        <ele>524.40</ele>
        <time>2016-10-22T08:03:49Z</time>
      </trkpt>
      <trkpt lat="42.377133000" lon="-2.488025000">
        <ele>523.10</ele>
        <time>2016-10-22T08:03:50Z</time>
      </trkpt>
      <trkpt lat="42.377133000" lon="-2.487941000">
        <ele>522.10</ele>
        <time>2016-10-22T08:03:51Z</time>
      </trkpt>
      <trkpt lat="42.377115000" lon="-2.487839000">
        <ele>520.40</ele>
        <time>2016-10-22T08:03:52Z</time>
      </trkpt>
      <trkpt lat="42.377097000" lon="-2.487723000">
        <ele>519.10</ele>
        <time>2016-10-22T08:03:53Z</time>
      </trkpt>
      <trkpt lat="42.377072000" lon="-2.487599000">
        <ele>517.30</ele>
        <time>2016-10-22T08:03:54Z</time>
      </trkpt>
      <trkpt lat="42.377045000" lon="-2.487473000">
        <ele>515.90</ele>
        <time>2016-10-22T08:03:55Z</time>
      </trkpt>
      <trkpt lat="42.377016000" lon="-2.487345000">
        <ele>514.20</ele>
        <time>2016-10-22T08:03:56Z</time>
      </trkpt>
      <trkpt lat="42.376981000" lon="-2.487215000">
        <ele>513.00</ele>
        <time>2016-10-22T08:03:57Z</time>
      </trkpt>
      <trkpt lat="42.376951000" lon="-2.487083000">
        <ele>511.90</ele>
        <time>2016-10-22T08:03:58Z</time>
      </trkpt>
      <trkpt lat="42.376924000" lon="-2.486951000">
        <ele>511.00</ele>
        <time>2016-10-22T08:03:59Z</time>
      </trkpt>
      <trkpt lat="42.376898000" lon="-2.486828000">
        <ele>509.90</ele>
        <time>2016-10-22T08:04:00Z</time>
      </trkpt>
      <trkpt lat="42.376877000" lon="-2.486730000">
        <ele>509.10</ele>
        <time>2016-10-22T08:04:01Z</time>
      </trkpt>
      <trkpt lat="42.376860000" lon="-2.486648000">
        <ele>508.40</ele>
        <time>2016-10-22T08:04:02Z</time>
      </trkpt>
      <trkpt lat="42.376845000" lon="-2.486567000">
        <ele>507.90</ele>
        <time>2016-10-22T08:04:03Z</time>
      </trkpt>
      <trkpt lat="42.376833000" lon="-2.486490000">
        <ele>507.20</ele>
        <time>2016-10-22T08:04:04Z</time>
      </trkpt>
      <trkpt lat="42.376825000" lon="-2.486424000">
        <ele>506.60</ele>
        <time>2016-10-22T08:04:05Z</time>
      </trkpt>
      <trkpt lat="42.376817000" lon="-2.486373000">
        <ele>505.90</ele>
        <time>2016-10-22T08:04:06Z</time>
      </trkpt>
      <trkpt lat="42.376812000" lon="-2.486337000">
        <ele>505.40</ele>
        <time>2016-10-22T08:04:07Z</time>
      </trkpt>
      <trkpt lat="42.376809000" lon="-2.486315000">
        <ele>504.80</ele>
        <time>2016-10-22T08:04:08Z</time>
      </trkpt>
      <trkpt lat="42.376804000" lon="-2.486296000">
        <ele>504.30</ele>
        <time>2016-10-22T08:04:09Z</time>
      </trkpt>
      <trkpt lat="42.376799000" lon="-2.486262000">
        <ele>504.00</ele>
        <time>2016-10-22T08:04:10Z</time>
      </trkpt>
      <trkpt lat="42.376790000" lon="-2.486238000">
        <ele>503.70</ele>
        <time>2016-10-22T08:04:11Z</time>
      </trkpt>
      <trkpt lat="42.376785000" lon="-2.486224000">
        <ele>503.40</ele>
        <time>2016-10-22T08:04:12Z</time>
      </trkpt>
      <trkpt lat="42.376792000" lon="-2.486222000">
        <ele>503.20</ele>
        <time>2016-10-22T08:04:13Z</time>
      </trkpt>
      <trkpt lat="42.376796000" lon="-2.486219000">
        <ele>503.00</ele>
        <time>2016-10-22T08:04:14Z</time>
      </trkpt>
      <trkpt lat="42.376796000" lon="-2.486219000">
        <ele>502.90</ele>
        <time>2016-10-22T08:04:15Z</time>
      </trkpt>
      <trkpt lat="42.376800000" lon="-2.486217000">
        <ele>502.70</ele>
        <time>2016-10-22T08:04:16Z</time>
      </trkpt>
      <trkpt lat="42.376806000" lon="-2.486197000">
        <ele>502.60</ele>
        <time>2016-10-22T08:04:17Z</time>
      </trkpt>
      <trkpt lat="42.376806000" lon="-2.486161000">
        <ele>502.40</ele>
        <time>2016-10-22T08:04:18Z</time>
      </trkpt>
      <trkpt lat="42.376797000" lon="-2.486112000">
        <ele>502.30</ele>
        <time>2016-10-22T08:04:19Z</time>
      </trkpt>
      <trkpt lat="42.376780000" lon="-2.486054000">
        <ele>502.10</ele>
        <time>2016-10-22T08:04:20Z</time>
      </trkpt>
      <trkpt lat="42.376757000" lon="-2.485990000">
        <ele>501.90</ele>
        <time>2016-10-22T08:04:21Z</time>
      </trkpt>
      <trkpt lat="42.376737000" lon="-2.485918000">
        <ele>501.50</ele>
        <time>2016-10-22T08:04:22Z</time>
      </trkpt>
      <trkpt lat="42.376714000" lon="-2.485832000">
        <ele>501.20</ele>
        <time>2016-10-22T08:04:23Z</time>
      </trkpt>
      <trkpt lat="42.376688000" lon="-2.485738000">
        <ele>500.60</ele>
        <time>2016-10-22T08:04:24Z</time>
      </trkpt>
      <trkpt lat="42.376663000" lon="-2.485644000">
        <ele>500.30</ele>
        <time>2016-10-22T08:04:25Z</time>
      </trkpt>
      <trkpt lat="42.376609000" lon="-2.485444000">
        <ele>499.50</ele>
        <time>2016-10-22T08:04:27Z</time>
      </trkpt>
      <trkpt lat="42.376582000" lon="-2.485343000">
        <ele>499.10</ele>
        <time>2016-10-22T08:04:28Z</time>
      </trkpt>
      <trkpt lat="42.376555000" lon="-2.485247000">
        <ele>498.80</ele>
        <time>2016-10-22T08:04:29Z</time>
      </trkpt>
      <trkpt lat="42.376532000" lon="-2.485169000">
        <ele>498.10</ele>
        <time>2016-10-22T08:04:30Z</time>
      </trkpt>
      <trkpt lat="42.376493000" lon="-2.485105000">
        <ele>497.60</ele>
        <time>2016-10-22T08:04:31Z</time>
      </trkpt>
      <trkpt lat="42.376445000" lon="-2.485052000">
        <ele>496.90</ele>
        <time>2016-10-22T08:04:32Z</time>
      </trkpt>
      <trkpt lat="42.376396000" lon="-2.485000000">
        <ele>496.40</ele>
        <time>2016-10-22T08:04:33Z</time>
      </trkpt>
      <trkpt lat="42.376353000" lon="-2.484938000">
        <ele>496.00</ele>
        <time>2016-10-22T08:04:34Z</time>
      </trkpt>
      <trkpt lat="42.376319000" lon="-2.484870000">
        <ele>495.70</ele>
        <time>2016-10-22T08:04:35Z</time>
      </trkpt>
      <trkpt lat="42.376293000" lon="-2.484795000">
        <ele>495.60</ele>
        <time>2016-10-22T08:04:36Z</time>
      </trkpt>
      <trkpt lat="42.376271000" lon="-2.484724000">
        <ele>495.40</ele>
        <time>2016-10-22T08:04:37Z</time>
      </trkpt>
      <trkpt lat="42.376250000" lon="-2.484657000">
        <ele>495.40</ele>
        <time>2016-10-22T08:04:38Z</time>
      </trkpt>
      <trkpt lat="42.376231000" lon="-2.484597000">
        <ele>495.30</ele>
        <time>2016-10-22T08:04:39Z</time>
      </trkpt>
      <trkpt lat="42.376219000" lon="-2.484533000">
        <ele>495.20</ele>
        <time>2016-10-22T08:04:40Z</time>
      </trkpt>
      <trkpt lat="42.376208000" lon="-2.484472000">
        <ele>495.20</ele>
        <time>2016-10-22T08:04:41Z</time>
      </trkpt>
      <trkpt lat="42.376197000" lon="-2.484412000">
        <ele>495.10</ele>
        <time>2016-10-22T08:04:42Z</time>
      </trkpt>
      <trkpt lat="42.376177000" lon="-2.484351000">
        <ele>495.10</ele>
        <time>2016-10-22T08:04:43Z</time>
      </trkpt>
      <trkpt lat="42.376157000" lon="-2.484281000">
        <ele>495.10</ele>
        <time>2016-10-22T08:04:44Z</time>
      </trkpt>
      <trkpt lat="42.376134000" lon="-2.484205000">
        <ele>495.10</ele>
        <time>2016-10-22T08:04:45Z</time>
      </trkpt>
      <trkpt lat="42.376110000" lon="-2.484123000">
        <ele>495.00</ele>
        <time>2016-10-22T08:04:46Z</time>
      </trkpt>
      <trkpt lat="42.376083000" lon="-2.484036000">
        <ele>495.00</ele>
        <time>2016-10-22T08:04:47Z</time>
      </trkpt>
      <trkpt lat="42.376054000" lon="-2.483944000">
        <ele>494.40</ele>
        <time>2016-10-22T08:04:48Z</time>
      </trkpt>
      <trkpt lat="42.376027000" lon="-2.483848000">
        <ele>494.00</ele>
        <time>2016-10-22T08:04:49Z</time>
      </trkpt>
      <trkpt lat="42.375996000" lon="-2.483747000">
        <ele>493.50</ele>
        <time>2016-10-22T08:04:50Z</time>
      </trkpt>
      <trkpt lat="42.375960000" lon="-2.483642000">
        <ele>493.10</ele>
        <time>2016-10-22T08:04:51Z</time>
      </trkpt>
      <trkpt lat="42.375928000" lon="-2.483538000">
        <ele>492.70</ele>
        <time>2016-10-22T08:04:52Z</time>
      </trkpt>
      <trkpt lat="42.375903000" lon="-2.483435000">
        <ele>492.30</ele>
        <time>2016-10-22T08:04:53Z</time>
      </trkpt>
      <trkpt lat="42.375862000" lon="-2.483366000">
        <ele>491.90</ele>
        <time>2016-10-22T08:04:54Z</time>
      </trkpt>
      <trkpt lat="42.375836000" lon="-2.483296000">
        <ele>491.60</ele>
        <time>2016-10-22T08:04:55Z</time>
      </trkpt>
      <trkpt lat="42.375822000" lon="-2.483222000">
        <ele>491.40</ele>
        <time>2016-10-22T08:04:56Z</time>
      </trkpt>
      <trkpt lat="42.375800000" lon="-2.483149000">
        <ele>491.20</ele>
        <time>2016-10-22T08:04:57Z</time>
      </trkpt>
      <trkpt lat="42.375772000" lon="-2.483077000">
        <ele>491.70</ele>
        <time>2016-10-22T08:04:58Z</time>
      </trkpt>
      <trkpt lat="42.375743000" lon="-2.483012000">
        <ele>492.00</ele>
        <time>2016-10-22T08:04:59Z</time>
      </trkpt>
      <trkpt lat="42.375714000" lon="-2.482946000">
        <ele>492.50</ele>
        <time>2016-10-22T08:05:00Z</time>
      </trkpt>
      <trkpt lat="42.375688000" lon="-2.482890000">
        <ele>492.90</ele>
        <time>2016-10-22T08:05:01Z</time>
      </trkpt>
      <trkpt lat="42.375658000" lon="-2.482845000">
        <ele>493.40</ele>
        <time>2016-10-22T08:05:02Z</time>
      </trkpt>
      <trkpt lat="42.375630000" lon="-2.482812000">
        <ele>493.70</ele>
        <time>2016-10-22T08:05:03Z</time>
      </trkpt>
      <trkpt lat="42.375600000" lon="-2.482788000">
        <ele>494.00</ele>
        <time>2016-10-22T08:05:04Z</time>
      </trkpt>
      <trkpt lat="42.375573000" lon="-2.482764000">
        <ele>494.20</ele>
        <time>2016-10-22T08:05:05Z</time>
      </trkpt>
      <trkpt lat="42.375545000" lon="-2.482747000">
        <ele>494.40</ele>
        <time>2016-10-22T08:05:06Z</time>
      </trkpt>
      <trkpt lat="42.375522000" lon="-2.482727000">
        <ele>494.50</ele>
        <time>2016-10-22T08:05:07Z</time>
      </trkpt>
      <trkpt lat="42.375502000" lon="-2.482707000">
        <ele>494.50</ele>
        <time>2016-10-22T08:05:08Z</time>
      </trkpt>
      <trkpt lat="42.375488000" lon="-2.482687000">
        <ele>494.50</ele>
        <time>2016-10-22T08:05:09Z</time>
      </trkpt>
      <trkpt lat="42.375471000" lon="-2.482670000">
        <ele>494.60</ele>
        <time>2016-10-22T08:05:10Z</time>
      </trkpt>
      <trkpt lat="42.375459000" lon="-2.482653000">
        <ele>494.60</ele>
        <time>2016-10-22T08:05:11Z</time>
      </trkpt>
      <trkpt lat="42.375447000" lon="-2.482631000">
        <ele>494.60</ele>
        <time>2016-10-22T08:05:12Z</time>
      </trkpt>
      <trkpt lat="42.375445000" lon="-2.482613000">
        <ele>494.60</ele>
        <time>2016-10-22T08:05:13Z</time>
      </trkpt>
      <trkpt lat="42.375446000" lon="-2.482605000">
        <ele>494.50</ele>
        <time>2016-10-22T08:05:14Z</time>
      </trkpt>
      <trkpt lat="42.375446000" lon="-2.482605000">
        <ele>494.50</ele>
        <time>2016-10-22T08:05:15Z</time>
      </trkpt>
      <trkpt lat="42.375446000" lon="-2.482605000">
        <ele>494.50</ele>
        <time>2016-10-22T08:05:16Z</time>
      </trkpt>
      <trkpt lat="42.375446000" lon="-2.482605000">
        <ele>494.50</ele>
        <time>2016-10-22T08:05:17Z</time>
      </trkpt>
      <trkpt lat="42.375446000" lon="-2.482605000">
        <ele>494.50</ele>
        <time>2016-10-22T08:05:18Z</time>
      </trkpt>
      <trkpt lat="42.375446000" lon="-2.482605000">
        <ele>494.50</ele>
        <time>2016-10-22T08:05:19Z</time>
      </trkpt>
      <trkpt lat="42.375429000" lon="-2.482605000">
        <ele>494.60</ele>
        <time>2016-10-22T08:05:20Z</time>
      </trkpt>
      <trkpt lat="42.375415000" lon="-2.482602000">
        <ele>494.60</ele>
        <time>2016-10-22T08:05:21Z</time>
      </trkpt>
      <trkpt lat="42.375404000" lon="-2.482594000">
        <ele>494.60</ele>
        <time>2016-10-22T08:05:22Z</time>
      </trkpt>
      <trkpt lat="42.375384000" lon="-2.482590000">
        <ele>494.60</ele>
        <time>2016-10-22T08:05:23Z</time>
      </trkpt>
      <trkpt lat="42.375370000" lon="-2.482590000">
        <ele>494.60</ele>
        <time>2016-10-22T08:05:24Z</time>
      </trkpt>
      <trkpt lat="42.375353000" lon="-2.482594000">
        <ele>494.60</ele>
        <time>2016-10-22T08:05:25Z</time>
      </trkpt>
      <trkpt lat="42.375334000" lon="-2.482596000">
        <ele>494.70</ele>
        <time>2016-10-22T08:05:26Z</time>
      </trkpt>
      <trkpt lat="42.375283000" lon="-2.482612000">
        <ele>494.80</ele>
        <time>2016-10-22T08:05:28Z</time>
      </trkpt>
      <trkpt lat="42.375260000" lon="-2.482620000">
        <ele>494.80</ele>
        <time>2016-10-22T08:05:29Z</time>
      </trkpt>
      <trkpt lat="42.375238000" lon="-2.482632000">
        <ele>494.90</ele>
        <time>2016-10-22T08:05:30Z</time>
      </trkpt>
      <trkpt lat="42.375219000" lon="-2.482644000">
        <ele>495.00</ele>
        <time>2016-10-22T08:05:31Z</time>
      </trkpt>
      <trkpt lat="42.375196000" lon="-2.482654000">
        <ele>495.00</ele>
        <time>2016-10-22T08:05:32Z</time>
      </trkpt>
      <trkpt lat="42.375175000" lon="-2.482664000">
        <ele>495.10</ele>
        <time>2016-10-22T08:05:33Z</time>
      </trkpt>
      <trkpt lat="42.375155000" lon="-2.482675000">
        <ele>495.20</ele>
        <time>2016-10-22T08:05:34Z</time>
      </trkpt>
      <trkpt lat="42.375132000" lon="-2.482684000">
        <ele>495.30</ele>
        <time>2016-10-22T08:05:35Z</time>
      </trkpt>
      <trkpt lat="42.375112000" lon="-2.482692000">
        <ele>495.30</ele>
        <time>2016-10-22T08:05:36Z</time>
      </trkpt>
      <trkpt lat="42.375091000" lon="-2.482697000">
        <ele>495.30</ele>
        <time>2016-10-22T08:05:37Z</time>
      </trkpt>
      <trkpt lat="42.375068000" lon="-2.482707000">
        <ele>495.30</ele>
        <time>2016-10-22T08:05:38Z</time>
      </trkpt>
      <trkpt lat="42.375044000" lon="-2.482718000">
        <ele>495.30</ele>
        <time>2016-10-22T08:05:39Z</time>
      </trkpt>
      <trkpt lat="42.375018000" lon="-2.482730000">
        <ele>495.30</ele>
        <time>2016-10-22T08:05:40Z</time>
      </trkpt>
      <trkpt lat="42.374991000" lon="-2.482745000">
        <ele>495.30</ele>
        <time>2016-10-22T08:05:41Z</time>
      </trkpt>
      <trkpt lat="42.374964000" lon="-2.482759000">
        <ele>495.30</ele>
        <time>2016-10-22T08:05:42Z</time>
      </trkpt>
      <trkpt lat="42.374936000" lon="-2.482773000">
        <ele>495.30</ele>
        <time>2016-10-22T08:05:43Z</time>
      </trkpt>
      <trkpt lat="42.374908000" lon="-2.482787000">
        <ele>495.30</ele>
        <time>2016-10-22T08:05:44Z</time>
      </trkpt>
      <trkpt lat="42.374878000" lon="-2.482796000">
        <ele>495.40</ele>
        <time>2016-10-22T08:05:45Z</time>
      </trkpt>
      <trkpt lat="42.374847000" lon="-2.482806000">
        <ele>495.50</ele>
        <time>2016-10-22T08:05:46Z</time>
      </trkpt>
      <trkpt lat="42.374818000" lon="-2.482821000">
        <ele>495.60</ele>
        <time>2016-10-22T08:05:47Z</time>
      </trkpt>
      <trkpt lat="42.374789000" lon="-2.482833000">
        <ele>495.70</ele>
        <time>2016-10-22T08:05:48Z</time>
      </trkpt>
      <trkpt lat="42.374760000" lon="-2.482845000">
        <ele>495.70</ele>
        <time>2016-10-22T08:05:49Z</time>
      </trkpt>
      <trkpt lat="42.374733000" lon="-2.482851000">
        <ele>495.80</ele>
        <time>2016-10-22T08:05:50Z</time>
      </trkpt>
      <trkpt lat="42.374706000" lon="-2.482850000">
        <ele>495.80</ele>
        <time>2016-10-22T08:05:51Z</time>
      </trkpt>
      <trkpt lat="42.374680000" lon="-2.482840000">
        <ele>495.80</ele>
        <time>2016-10-22T08:05:52Z</time>
      </trkpt>
      <trkpt lat="42.374652000" lon="-2.482817000">
        <ele>495.80</ele>
        <time>2016-10-22T08:05:53Z</time>
      </trkpt>
      <trkpt lat="42.374628000" lon="-2.482785000">
        <ele>495.80</ele>
        <time>2016-10-22T08:05:54Z</time>
      </trkpt>
      <trkpt lat="42.374606000" lon="-2.482749000">
        <ele>495.90</ele>
        <time>2016-10-22T08:05:55Z</time>
      </trkpt>
      <trkpt lat="42.374584000" lon="-2.482712000">
        <ele>495.90</ele>
        <time>2016-10-22T08:05:56Z</time>
      </trkpt>
      <trkpt lat="42.374560000" lon="-2.482676000">
        <ele>495.90</ele>
        <time>2016-10-22T08:05:57Z</time>
      </trkpt>
      <trkpt lat="42.374535000" lon="-2.482640000">
        <ele>495.90</ele>
        <time>2016-10-22T08:05:58Z</time>
      </trkpt>
      <trkpt lat="42.374511000" lon="-2.482602000">
        <ele>495.90</ele>
        <time>2016-10-22T08:05:59Z</time>
      </trkpt>
      <trkpt lat="42.374484000" lon="-2.482567000">
        <ele>495.80</ele>
        <time>2016-10-22T08:06:00Z</time>
      </trkpt>
      <trkpt lat="42.374460000" lon="-2.482532000">
        <ele>495.80</ele>
        <time>2016-10-22T08:06:01Z</time>
      </trkpt>
      <trkpt lat="42.374436000" lon="-2.482495000">
        <ele>495.80</ele>
        <time>2016-10-22T08:06:02Z</time>
      </trkpt>
      <trkpt lat="42.374415000" lon="-2.482460000">
        <ele>495.80</ele>
        <time>2016-10-22T08:06:03Z</time>
      </trkpt>
      <trkpt lat="42.374391000" lon="-2.482424000">
        <ele>495.80</ele>
        <time>2016-10-22T08:06:04Z</time>
      </trkpt>
      <trkpt lat="42.374368000" lon="-2.482390000">
        <ele>495.80</ele>
        <time>2016-10-22T08:06:05Z</time>
      </trkpt>
      <trkpt lat="42.374345000" lon="-2.482356000">
        <ele>495.90</ele>
        <time>2016-10-22T08:06:06Z</time>
      </trkpt>
      <trkpt lat="42.374321000" lon="-2.482322000">
        <ele>496.00</ele>
        <time>2016-10-22T08:06:07Z</time>
      </trkpt>
      <trkpt lat="42.374295000" lon="-2.482291000">
        <ele>496.10</ele>
        <time>2016-10-22T08:06:08Z</time>
      </trkpt>
      <trkpt lat="42.374269000" lon="-2.482255000">
        <ele>496.20</ele>
        <time>2016-10-22T08:06:09Z</time>
      </trkpt>
      <trkpt lat="42.374243000" lon="-2.482218000">
        <ele>496.20</ele>
        <time>2016-10-22T08:06:10Z</time>
      </trkpt>
      <trkpt lat="42.374218000" lon="-2.482182000">
        <ele>496.30</ele>
        <time>2016-10-22T08:06:11Z</time>
      </trkpt>
      <trkpt lat="42.374192000" lon="-2.482148000">
        <ele>496.30</ele>
        <time>2016-10-22T08:06:12Z</time>
      </trkpt>
      <trkpt lat="42.374167000" lon="-2.482115000">
        <ele>496.30</ele>
        <time>2016-10-22T08:06:13Z</time>
      </trkpt>
      <trkpt lat="42.374142000" lon="-2.482083000">
        <ele>496.40</ele>
        <time>2016-10-22T08:06:14Z</time>
      </trkpt>
      <trkpt lat="42.374120000" lon="-2.482046000">
        <ele>496.50</ele>
        <time>2016-10-22T08:06:15Z</time>
      </trkpt>
      <trkpt lat="42.374100000" lon="-2.482008000">
        <ele>496.60</ele>
        <time>2016-10-22T08:06:16Z</time>
      </trkpt>
      <trkpt lat="42.374078000" lon="-2.481974000">
        <ele>496.70</ele>
        <time>2016-10-22T08:06:17Z</time>
      </trkpt>
      <trkpt lat="42.374060000" lon="-2.481939000">
        <ele>496.70</ele>
        <time>2016-10-22T08:06:18Z</time>
      </trkpt>
      <trkpt lat="42.374043000" lon="-2.481905000">
        <ele>496.80</ele>
        <time>2016-10-22T08:06:19Z</time>
      </trkpt>
      <trkpt lat="42.374024000" lon="-2.481872000">
        <ele>496.60</ele>
        <time>2016-10-22T08:06:20Z</time>
      </trkpt>
      <trkpt lat="42.374005000" lon="-2.481840000">
        <ele>496.40</ele>
        <time>2016-10-22T08:06:21Z</time>
      </trkpt>
      <trkpt lat="42.373985000" lon="-2.481806000">
        <ele>496.30</ele>
        <time>2016-10-22T08:06:22Z</time>
      </trkpt>
      <trkpt lat="42.373964000" lon="-2.481773000">
        <ele>496.20</ele>
        <time>2016-10-22T08:06:23Z</time>
      </trkpt>
      <trkpt lat="42.373938000" lon="-2.481741000">
        <ele>496.30</ele>
        <time>2016-10-22T08:06:24Z</time>
      </trkpt>
      <trkpt lat="42.373908000" lon="-2.481711000">
        <ele>496.30</ele>
        <time>2016-10-22T08:06:25Z</time>
      </trkpt>
      <trkpt lat="42.373873000" lon="-2.481686000">
        <ele>496.50</ele>
        <time>2016-10-22T08:06:26Z</time>
      </trkpt>
      <trkpt lat="42.373837000" lon="-2.481667000">
        <ele>496.60</ele>
        <time>2016-10-22T08:06:27Z</time>
      </trkpt>
      <trkpt lat="42.373753000" lon="-2.481670000">
        <ele>496.50</ele>
        <time>2016-10-22T08:06:29Z</time>
      </trkpt>
      <trkpt lat="42.373713000" lon="-2.481686000">
        <ele>496.40</ele>
        <time>2016-10-22T08:06:30Z</time>
      </trkpt>
      <trkpt lat="42.373679000" lon="-2.481702000">
        <ele>496.30</ele>
        <time>2016-10-22T08:06:31Z</time>
      </trkpt>
      <trkpt lat="42.373655000" lon="-2.481715000">
        <ele>496.20</ele>
        <time>2016-10-22T08:06:32Z</time>
      </trkpt>
      <trkpt lat="42.373641000" lon="-2.481736000">
        <ele>496.20</ele>
        <time>2016-10-22T08:06:33Z</time>
      </trkpt>
      <trkpt lat="42.373623000" lon="-2.481760000">
        <ele>496.10</ele>
        <time>2016-10-22T08:06:34Z</time>
      </trkpt>
      <trkpt lat="42.373601000" lon="-2.481785000">
        <ele>496.10</ele>
        <time>2016-10-22T08:06:35Z</time>
      </trkpt>
      <trkpt lat="42.373578000" lon="-2.481814000">
        <ele>496.20</ele>
        <time>2016-10-22T08:06:36Z</time>
      </trkpt>
      <trkpt lat="42.373553000" lon="-2.481841000">
        <ele>496.40</ele>
        <time>2016-10-22T08:06:37Z</time>
      </trkpt>
      <trkpt lat="42.373524000" lon="-2.481870000">
        <ele>496.50</ele>
        <time>2016-10-22T08:06:38Z</time>
      </trkpt>
      <trkpt lat="42.373494000" lon="-2.481898000">
        <ele>496.50</ele>
        <time>2016-10-22T08:06:39Z</time>
      </trkpt>
      <trkpt lat="42.373463000" lon="-2.481924000">
        <ele>496.40</ele>
        <time>2016-10-22T08:06:40Z</time>
      </trkpt>
      <trkpt lat="42.373431000" lon="-2.481949000">
        <ele>496.20</ele>
        <time>2016-10-22T08:06:41Z</time>
      </trkpt>
      <trkpt lat="42.373400000" lon="-2.481973000">
        <ele>496.10</ele>
        <time>2016-10-22T08:06:42Z</time>
      </trkpt>
      <trkpt lat="42.373367000" lon="-2.481999000">
        <ele>496.00</ele>
        <time>2016-10-22T08:06:43Z</time>
      </trkpt>
      <trkpt lat="42.373337000" lon="-2.482026000">
        <ele>496.20</ele>
        <time>2016-10-22T08:06:44Z</time>
      </trkpt>
      <trkpt lat="42.373303000" lon="-2.482052000">
        <ele>496.30</ele>
        <time>2016-10-22T08:06:45Z</time>
      </trkpt>
      <trkpt lat="42.373265000" lon="-2.482079000">
        <ele>496.40</ele>
        <time>2016-10-22T08:06:46Z</time>
      </trkpt>
      <trkpt lat="42.373232000" lon="-2.482106000">
        <ele>496.40</ele>
        <time>2016-10-22T08:06:47Z</time>
      </trkpt>
      <trkpt lat="42.373199000" lon="-2.482130000">
        <ele>496.50</ele>
        <time>2016-10-22T08:06:48Z</time>
      </trkpt>
      <trkpt lat="42.373164000" lon="-2.482153000">
        <ele>496.60</ele>
        <time>2016-10-22T08:06:49Z</time>
      </trkpt>
      <trkpt lat="42.373129000" lon="-2.482179000">
        <ele>496.70</ele>
        <time>2016-10-22T08:06:50Z</time>
      </trkpt>
      <trkpt lat="42.373093000" lon="-2.482203000">
        <ele>496.80</ele>
        <time>2016-10-22T08:06:51Z</time>
      </trkpt>
      <trkpt lat="42.373056000" lon="-2.482224000">
        <ele>496.80</ele>
        <time>2016-10-22T08:06:52Z</time>
      </trkpt>
      <trkpt lat="42.373018000" lon="-2.482248000">
        <ele>496.80</ele>
        <time>2016-10-22T08:06:53Z</time>
      </trkpt>
      <trkpt lat="42.372981000" lon="-2.482276000">
        <ele>496.90</ele>
        <time>2016-10-22T08:06:54Z</time>
      </trkpt>
      <trkpt lat="42.372943000" lon="-2.482304000">
        <ele>497.00</ele>
        <time>2016-10-22T08:06:55Z</time>
      </trkpt>
      <trkpt lat="42.372904000" lon="-2.482331000">
        <ele>497.00</ele>
        <time>2016-10-22T08:06:56Z</time>
      </trkpt>
      <trkpt lat="42.372864000" lon="-2.482359000">
        <ele>497.10</ele>
        <time>2016-10-22T08:06:57Z</time>
      </trkpt>
      <trkpt lat="42.372826000" lon="-2.482385000">
        <ele>497.20</ele>
        <time>2016-10-22T08:06:58Z</time>
      </trkpt>
      <trkpt lat="42.372788000" lon="-2.482410000">
        <ele>497.30</ele>
        <time>2016-10-22T08:06:59Z</time>
      </trkpt>
      <trkpt lat="42.372749000" lon="-2.482434000">
        <ele>497.50</ele>
        <time>2016-10-22T08:07:00Z</time>
      </trkpt>
      <trkpt lat="42.372711000" lon="-2.482457000">
        <ele>497.60</ele>
        <time>2016-10-22T08:07:01Z</time>
      </trkpt>
      <trkpt lat="42.372672000" lon="-2.482477000">
        <ele>497.70</ele>
        <time>2016-10-22T08:07:02Z</time>
      </trkpt>
      <trkpt lat="42.372632000" lon="-2.482495000">
        <ele>497.80</ele>
        <time>2016-10-22T08:07:03Z</time>
      </trkpt>
      <trkpt lat="42.372595000" lon="-2.482511000">
        <ele>497.90</ele>
        <time>2016-10-22T08:07:04Z</time>
      </trkpt>
      <trkpt lat="42.372555000" lon="-2.482528000">
        <ele>497.90</ele>
        <time>2016-10-22T08:07:05Z</time>
      </trkpt>
      <trkpt lat="42.372515000" lon="-2.482546000">
        <ele>498.00</ele>
        <time>2016-10-22T08:07:06Z</time>
      </trkpt>
      <trkpt lat="42.372477000" lon="-2.482564000">
        <ele>498.00</ele>
        <time>2016-10-22T08:07:07Z</time>
      </trkpt>
      <trkpt lat="42.372436000" lon="-2.482585000">
        <ele>498.10</ele>
        <time>2016-10-22T08:07:08Z</time>
      </trkpt>
      <trkpt lat="42.372397000" lon="-2.482604000">
        <ele>498.10</ele>
        <time>2016-10-22T08:07:09Z</time>
      </trkpt>
      <trkpt lat="42.372358000" lon="-2.482621000">
        <ele>498.20</ele>
        <time>2016-10-22T08:07:10Z</time>
      </trkpt>
      <trkpt lat="42.372318000" lon="-2.482639000">
        <ele>498.30</ele>
        <time>2016-10-22T08:07:11Z</time>
      </trkpt>
      <trkpt lat="42.372278000" lon="-2.482654000">
        <ele>498.40</ele>
        <time>2016-10-22T08:07:12Z</time>
      </trkpt>
      <trkpt lat="42.372238000" lon="-2.482673000">
        <ele>498.50</ele>
        <time>2016-10-22T08:07:13Z</time>
      </trkpt>
      <trkpt lat="42.372198000" lon="-2.482691000">
        <ele>498.60</ele>
        <time>2016-10-22T08:07:14Z</time>
      </trkpt>
      <trkpt lat="42.372159000" lon="-2.482712000">
        <ele>498.60</ele>
        <time>2016-10-22T08:07:15Z</time>
      </trkpt>
      <trkpt lat="42.372118000" lon="-2.482732000">
        <ele>498.80</ele>
        <time>2016-10-22T08:07:16Z</time>
      </trkpt>
      <trkpt lat="42.372076000" lon="-2.482753000">
        <ele>499.00</ele>
        <time>2016-10-22T08:07:17Z</time>
      </trkpt>
      <trkpt lat="42.372035000" lon="-2.482772000">
        <ele>499.10</ele>
        <time>2016-10-22T08:07:18Z</time>
      </trkpt>
      <trkpt lat="42.371995000" lon="-2.482791000">
        <ele>499.20</ele>
        <time>2016-10-22T08:07:19Z</time>
      </trkpt>
      <trkpt lat="42.371954000" lon="-2.482809000">
        <ele>499.50</ele>
        <time>2016-10-22T08:07:20Z</time>
      </trkpt>
      <trkpt lat="42.371912000" lon="-2.482827000">
        <ele>499.70</ele>
        <time>2016-10-22T08:07:21Z</time>
      </trkpt>
      <trkpt lat="42.371872000" lon="-2.482843000">
        <ele>499.90</ele>
        <time>2016-10-22T08:07:22Z</time>
      </trkpt>
      <trkpt lat="42.371830000" lon="-2.482857000">
        <ele>500.00</ele>
        <time>2016-10-22T08:07:23Z</time>
      </trkpt>
      <trkpt lat="42.371790000" lon="-2.482872000">
        <ele>500.00</ele>
        <time>2016-10-22T08:07:24Z</time>
      </trkpt>
      <trkpt lat="42.371750000" lon="-2.482888000">
        <ele>500.00</ele>
        <time>2016-10-22T08:07:25Z</time>
      </trkpt>
      <trkpt lat="42.371711000" lon="-2.482905000">
        <ele>499.90</ele>
        <time>2016-10-22T08:07:26Z</time>
      </trkpt>
      <trkpt lat="42.371668000" lon="-2.482923000">
        <ele>499.80</ele>
        <time>2016-10-22T08:07:27Z</time>
      </trkpt>
      <trkpt lat="42.371627000" lon="-2.482942000">
        <ele>499.80</ele>
        <time>2016-10-22T08:07:28Z</time>
      </trkpt>
      <trkpt lat="42.371545000" lon="-2.482983000">
        <ele>499.80</ele>
        <time>2016-10-22T08:07:30Z</time>
      </trkpt>
      <trkpt lat="42.371504000" lon="-2.483002000">
        <ele>499.80</ele>
        <time>2016-10-22T08:07:31Z</time>
      </trkpt>
      <trkpt lat="42.371465000" lon="-2.483021000">
        <ele>499.80</ele>
        <time>2016-10-22T08:07:32Z</time>
      </trkpt>
      <trkpt lat="42.371425000" lon="-2.483037000">
        <ele>499.80</ele>
        <time>2016-10-22T08:07:33Z</time>
      </trkpt>
      <trkpt lat="42.371385000" lon="-2.483053000">
        <ele>499.80</ele>
        <time>2016-10-22T08:07:34Z</time>
      </trkpt>
      <trkpt lat="42.371344000" lon="-2.483070000">
        <ele>499.90</ele>
        <time>2016-10-22T08:07:35Z</time>
      </trkpt>
      <trkpt lat="42.371303000" lon="-2.483087000">
        <ele>500.00</ele>
        <time>2016-10-22T08:07:36Z</time>
      </trkpt>
      <trkpt lat="42.371261000" lon="-2.483102000">
        <ele>500.20</ele>
        <time>2016-10-22T08:07:37Z</time>
      </trkpt>
      <trkpt lat="42.371220000" lon="-2.483116000">
        <ele>500.30</ele>
        <time>2016-10-22T08:07:38Z</time>
      </trkpt>
      <trkpt lat="42.371179000" lon="-2.483129000">
        <ele>500.30</ele>
        <time>2016-10-22T08:07:39Z</time>
      </trkpt>
      <trkpt lat="42.371138000" lon="-2.483140000">
        <ele>500.30</ele>
        <time>2016-10-22T08:07:40Z</time>
      </trkpt>
      <trkpt lat="42.371096000" lon="-2.483149000">
        <ele>500.30</ele>
        <time>2016-10-22T08:07:41Z</time>
      </trkpt>
      <trkpt lat="42.371057000" lon="-2.483157000">
        <ele>500.30</ele>
        <time>2016-10-22T08:07:42Z</time>
      </trkpt>
      <trkpt lat="42.371017000" lon="-2.483165000">
        <ele>500.30</ele>
        <time>2016-10-22T08:07:43Z</time>
      </trkpt>
      <trkpt lat="42.370977000" lon="-2.483172000">
        <ele>500.30</ele>
        <time>2016-10-22T08:07:44Z</time>
      </trkpt>
      <trkpt lat="42.370935000" lon="-2.483176000">
        <ele>500.30</ele>
        <time>2016-10-22T08:07:45Z</time>
      </trkpt>
      <trkpt lat="42.370894000" lon="-2.483176000">
        <ele>500.40</ele>
        <time>2016-10-22T08:07:46Z</time>
      </trkpt>
      <trkpt lat="42.370855000" lon="-2.483175000">
        <ele>500.50</ele>
        <time>2016-10-22T08:07:47Z</time>
      </trkpt>
      <trkpt lat="42.370815000" lon="-2.483175000">
        <ele>500.50</ele>
        <time>2016-10-22T08:07:48Z</time>
      </trkpt>
      <trkpt lat="42.370775000" lon="-2.483174000">
        <ele>500.50</ele>
        <time>2016-10-22T08:07:49Z</time>
      </trkpt>
      <trkpt lat="42.370735000" lon="-2.483174000">
        <ele>500.50</ele>
        <time>2016-10-22T08:07:50Z</time>
      </trkpt>
      <trkpt lat="42.370695000" lon="-2.483171000">
        <ele>500.60</ele>
        <time>2016-10-22T08:07:51Z</time>
      </trkpt>
      <trkpt lat="42.370657000" lon="-2.483167000">
        <ele>500.70</ele>
        <time>2016-10-22T08:07:52Z</time>
      </trkpt>
      <trkpt lat="42.370618000" lon="-2.483164000">
        <ele>500.80</ele>
        <time>2016-10-22T08:07:53Z</time>
      </trkpt>
      <trkpt lat="42.370579000" lon="-2.483162000">
        <ele>501.00</ele>
        <time>2016-10-22T08:07:54Z</time>
      </trkpt>
      <trkpt lat="42.370538000" lon="-2.483159000">
        <ele>501.10</ele>
        <time>2016-10-22T08:07:55Z</time>
      </trkpt>
      <trkpt lat="42.370499000" lon="-2.483160000">
        <ele>501.40</ele>
        <time>2016-10-22T08:07:56Z</time>
      </trkpt>
      <trkpt lat="42.370458000" lon="-2.483164000">
        <ele>501.60</ele>
        <time>2016-10-22T08:07:57Z</time>
      </trkpt>
      <trkpt lat="42.370414000" lon="-2.483170000">
        <ele>501.70</ele>
        <time>2016-10-22T08:07:58Z</time>
      </trkpt>
      <trkpt lat="42.370371000" lon="-2.483178000">
        <ele>501.80</ele>
        <time>2016-10-22T08:07:59Z</time>
      </trkpt>
      <trkpt lat="42.370331000" lon="-2.483190000">
        <ele>501.80</ele>
        <time>2016-10-22T08:08:00Z</time>
      </trkpt>
      <trkpt lat="42.370291000" lon="-2.483204000">
        <ele>501.70</ele>
        <time>2016-10-22T08:08:01Z</time>
      </trkpt>
      <trkpt lat="42.370253000" lon="-2.483220000">
        <ele>501.60</ele>
        <time>2016-10-22T08:08:02Z</time>
      </trkpt>
      <trkpt lat="42.370213000" lon="-2.483237000">
        <ele>501.60</ele>
        <time>2016-10-22T08:08:03Z</time>
      </trkpt>
      <trkpt lat="42.370172000" lon="-2.483251000">
        <ele>501.60</ele>
        <time>2016-10-22T08:08:04Z</time>
      </trkpt>
      <trkpt lat="42.370131000" lon="-2.483264000">
        <ele>501.70</ele>
        <time>2016-10-22T08:08:05Z</time>
      </trkpt>
      <trkpt lat="42.370090000" lon="-2.483280000">
        <ele>501.80</ele>
        <time>2016-10-22T08:08:06Z</time>
      </trkpt>
      <trkpt lat="42.370050000" lon="-2.483294000">
        <ele>501.80</ele>
        <time>2016-10-22T08:08:07Z</time>
      </trkpt>
      <trkpt lat="42.370011000" lon="-2.483312000">
        <ele>501.90</ele>
        <time>2016-10-22T08:08:08Z</time>
      </trkpt>
      <trkpt lat="42.369972000" lon="-2.483326000">
        <ele>502.00</ele>
        <time>2016-10-22T08:08:09Z</time>
      </trkpt>
      <trkpt lat="42.369933000" lon="-2.483341000">
        <ele>502.10</ele>
        <time>2016-10-22T08:08:10Z</time>
      </trkpt>
      <trkpt lat="42.369895000" lon="-2.483357000">
        <ele>502.20</ele>
        <time>2016-10-22T08:08:11Z</time>
      </trkpt>
      <trkpt lat="42.369858000" lon="-2.483374000">
        <ele>502.30</ele>
        <time>2016-10-22T08:08:12Z</time>
      </trkpt>
      <trkpt lat="42.369820000" lon="-2.483391000">
        <ele>502.40</ele>
        <time>2016-10-22T08:08:13Z</time>
      </trkpt>
      <trkpt lat="42.369781000" lon="-2.483407000">
        <ele>502.50</ele>
        <time>2016-10-22T08:08:14Z</time>
      </trkpt>
      <trkpt lat="42.369743000" lon="-2.483427000">
        <ele>502.50</ele>
        <time>2016-10-22T08:08:15Z</time>
      </trkpt>
      <trkpt lat="42.369703000" lon="-2.483440000">
        <ele>502.50</ele>
        <time>2016-10-22T08:08:16Z</time>
      </trkpt>
      <trkpt lat="42.369662000" lon="-2.483455000">
        <ele>502.60</ele>
        <time>2016-10-22T08:08:17Z</time>
      </trkpt>
      <trkpt lat="42.369621000" lon="-2.483466000">
        <ele>502.70</ele>
        <time>2016-10-22T08:08:18Z</time>
      </trkpt>
      <trkpt lat="42.369583000" lon="-2.483476000">
        <ele>502.80</ele>
        <time>2016-10-22T08:08:19Z</time>
      </trkpt>
      <trkpt lat="42.369544000" lon="-2.483486000">
        <ele>502.90</ele>
        <time>2016-10-22T08:08:20Z</time>
      </trkpt>
      <trkpt lat="42.369505000" lon="-2.483491000">
        <ele>503.00</ele>
        <time>2016-10-22T08:08:21Z</time>
      </trkpt>
      <trkpt lat="42.369468000" lon="-2.483501000">
        <ele>503.00</ele>
        <time>2016-10-22T08:08:22Z</time>
      </trkpt>
      <trkpt lat="42.369429000" lon="-2.483514000">
        <ele>503.10</ele>
        <time>2016-10-22T08:08:23Z</time>
      </trkpt>
      <trkpt lat="42.369389000" lon="-2.483523000">
        <ele>503.10</ele>
        <time>2016-10-22T08:08:24Z</time>
      </trkpt>
      <trkpt lat="42.369351000" lon="-2.483540000">
        <ele>503.10</ele>
        <time>2016-10-22T08:08:25Z</time>
      </trkpt>
      <trkpt lat="42.369311000" lon="-2.483554000">
        <ele>503.20</ele>
        <time>2016-10-22T08:08:26Z</time>
      </trkpt>
      <trkpt lat="42.369273000" lon="-2.483572000">
        <ele>503.30</ele>
        <time>2016-10-22T08:08:27Z</time>
      </trkpt>
      <trkpt lat="42.369236000" lon="-2.483591000">
        <ele>503.30</ele>
        <time>2016-10-22T08:08:28Z</time>
      </trkpt>
      <trkpt lat="42.369197000" lon="-2.483611000">
        <ele>503.40</ele>
        <time>2016-10-22T08:08:29Z</time>
      </trkpt>
      <trkpt lat="42.369116000" lon="-2.483660000">
        <ele>503.40</ele>
        <time>2016-10-22T08:08:31Z</time>
      </trkpt>
      <trkpt lat="42.369081000" lon="-2.483663000">
        <ele>503.50</ele>
        <time>2016-10-22T08:08:32Z</time>
      </trkpt>
      <trkpt lat="42.369055000" lon="-2.483646000">
        <ele>503.50</ele>
        <time>2016-10-22T08:08:33Z</time>
      </trkpt>
      <trkpt lat="42.369040000" lon="-2.483612000">
        <ele>503.60</ele>
        <time>2016-10-22T08:08:34Z</time>
      </trkpt>
      <trkpt lat="42.369032000" lon="-2.483574000">
        <ele>503.70</ele>
        <time>2016-10-22T08:08:35Z</time>
      </trkpt>
      <trkpt lat="42.369024000" lon="-2.483532000">
        <ele>503.70</ele>
        <time>2016-10-22T08:08:36Z</time>
      </trkpt>
      <trkpt lat="42.369013000" lon="-2.483493000">
        <ele>503.60</ele>
        <time>2016-10-22T08:08:37Z</time>
      </trkpt>
      <trkpt lat="42.369001000" lon="-2.483449000">
        <ele>503.70</ele>
        <time>2016-10-22T08:08:38Z</time>
      </trkpt>
      <trkpt lat="42.368988000" lon="-2.483401000">
        <ele>503.80</ele>
        <time>2016-10-22T08:08:39Z</time>
      </trkpt>
      <trkpt lat="42.368975000" lon="-2.483353000">
        <ele>503.90</ele>
        <time>2016-10-22T08:08:40Z</time>
      </trkpt>
      <trkpt lat="42.368963000" lon="-2.483306000">
        <ele>504.00</ele>
        <time>2016-10-22T08:08:41Z</time>
      </trkpt>
      <trkpt lat="42.368949000" lon="-2.483258000">
        <ele>504.10</ele>
        <time>2016-10-22T08:08:42Z</time>
      </trkpt>
      <trkpt lat="42.368936000" lon="-2.483208000">
        <ele>504.20</ele>
        <time>2016-10-22T08:08:43Z</time>
      </trkpt>
      <trkpt lat="42.368922000" lon="-2.483160000">
        <ele>504.20</ele>
        <time>2016-10-22T08:08:44Z</time>
      </trkpt>
      <trkpt lat="42.368909000" lon="-2.483109000">
        <ele>504.30</ele>
        <time>2016-10-22T08:08:45Z</time>
      </trkpt>
      <trkpt lat="42.368897000" lon="-2.483059000">
        <ele>504.10</ele>
        <time>2016-10-22T08:08:46Z</time>
      </trkpt>
      <trkpt lat="42.368883000" lon="-2.483003000">
        <ele>504.00</ele>
        <time>2016-10-22T08:08:47Z</time>
      </trkpt>
      <trkpt lat="42.368869000" lon="-2.482950000">
        <ele>503.90</ele>
        <time>2016-10-22T08:08:48Z</time>
      </trkpt>
      <trkpt lat="42.368855000" lon="-2.482896000">
        <ele>503.80</ele>
        <time>2016-10-22T08:08:49Z</time>
      </trkpt>
      <trkpt lat="42.368841000" lon="-2.482843000">
        <ele>503.80</ele>
        <time>2016-10-22T08:08:50Z</time>
      </trkpt>
      <trkpt lat="42.368828000" lon="-2.482790000">
        <ele>503.80</ele>
        <time>2016-10-22T08:08:51Z</time>
      </trkpt>
      <trkpt lat="42.368815000" lon="-2.482738000">
        <ele>503.90</ele>
        <time>2016-10-22T08:08:52Z</time>
      </trkpt>
      <trkpt lat="42.368801000" lon="-2.482685000">
        <ele>504.00</ele>
        <time>2016-10-22T08:08:53Z</time>
      </trkpt>
      <trkpt lat="42.368788000" lon="-2.482633000">
        <ele>504.00</ele>
        <time>2016-10-22T08:08:54Z</time>
      </trkpt>
      <trkpt lat="42.368777000" lon="-2.482582000">
        <ele>504.10</ele>
        <time>2016-10-22T08:08:55Z</time>
      </trkpt>
      <trkpt lat="42.368764000" lon="-2.482530000">
        <ele>504.10</ele>
        <time>2016-10-22T08:08:56Z</time>
      </trkpt>
      <trkpt lat="42.368751000" lon="-2.482475000">
        <ele>504.10</ele>
        <time>2016-10-22T08:08:57Z</time>
      </trkpt>
      <trkpt lat="42.368738000" lon="-2.482418000">
        <ele>504.20</ele>
        <time>2016-10-22T08:08:58Z</time>
      </trkpt>
      <trkpt lat="42.368726000" lon="-2.482361000">
        <ele>504.30</ele>
        <time>2016-10-22T08:08:59Z</time>
      </trkpt>
      <trkpt lat="42.368714000" lon="-2.482304000">
        <ele>504.50</ele>
        <time>2016-10-22T08:09:00Z</time>
      </trkpt>
      <trkpt lat="42.368701000" lon="-2.482248000">
        <ele>504.60</ele>
        <time>2016-10-22T08:09:01Z</time>
      </trkpt>
      <trkpt lat="42.368692000" lon="-2.482193000">
        <ele>504.80</ele>
        <time>2016-10-22T08:09:02Z</time>
      </trkpt>
      <trkpt lat="42.368681000" lon="-2.482136000">
        <ele>504.80</ele>
        <time>2016-10-22T08:09:03Z</time>
      </trkpt>
      <trkpt lat="42.368667000" lon="-2.482083000">
        <ele>504.60</ele>
        <time>2016-10-22T08:09:04Z</time>
      </trkpt>
      <trkpt lat="42.368654000" lon="-2.482028000">
        <ele>504.40</ele>
        <time>2016-10-22T08:09:05Z</time>
      </trkpt>
      <trkpt lat="42.368644000" lon="-2.481969000">
        <ele>504.20</ele>
        <time>2016-10-22T08:09:06Z</time>
      </trkpt>
      <trkpt lat="42.368631000" lon="-2.481913000">
        <ele>504.10</ele>
        <time>2016-10-22T08:09:07Z</time>
      </trkpt>
      <trkpt lat="42.368615000" lon="-2.481857000">
        <ele>504.00</ele>
        <time>2016-10-22T08:09:08Z</time>
      </trkpt>
      <trkpt lat="42.368598000" lon="-2.481800000">
        <ele>503.90</ele>
        <time>2016-10-22T08:09:09Z</time>
      </trkpt>
      <trkpt lat="42.368583000" lon="-2.481745000">
        <ele>503.80</ele>
        <time>2016-10-22T08:09:10Z</time>
      </trkpt>
      <trkpt lat="42.368566000" lon="-2.481691000">
        <ele>503.80</ele>
        <time>2016-10-22T08:09:11Z</time>
      </trkpt>
      <trkpt lat="42.368549000" lon="-2.481637000">
        <ele>503.70</ele>
        <time>2016-10-22T08:09:12Z</time>
      </trkpt>
      <trkpt lat="42.368530000" lon="-2.481587000">
        <ele>503.70</ele>
        <time>2016-10-22T08:09:13Z</time>
      </trkpt>
      <trkpt lat="42.368512000" lon="-2.481536000">
        <ele>503.70</ele>
        <time>2016-10-22T08:09:14Z</time>
      </trkpt>
      <trkpt lat="42.368494000" lon="-2.481487000">
        <ele>503.70</ele>
        <time>2016-10-22T08:09:15Z</time>
      </trkpt>
      <trkpt lat="42.368476000" lon="-2.481440000">
        <ele>503.70</ele>
        <time>2016-10-22T08:09:16Z</time>
      </trkpt>
      <trkpt lat="42.368460000" lon="-2.481389000">
        <ele>503.70</ele>
        <time>2016-10-22T08:09:17Z</time>
      </trkpt>
      <trkpt lat="42.368444000" lon="-2.481340000">
        <ele>503.80</ele>
        <time>2016-10-22T08:09:18Z</time>
      </trkpt>
      <trkpt lat="42.368427000" lon="-2.481291000">
        <ele>503.80</ele>
        <time>2016-10-22T08:09:19Z</time>
      </trkpt>
      <trkpt lat="42.368406000" lon="-2.481240000">
        <ele>503.80</ele>
        <time>2016-10-22T08:09:20Z</time>
      </trkpt>
      <trkpt lat="42.368388000" lon="-2.481186000">
        <ele>503.70</ele>
        <time>2016-10-22T08:09:21Z</time>
      </trkpt>
      <trkpt lat="42.368369000" lon="-2.481134000">
        <ele>503.70</ele>
        <time>2016-10-22T08:09:22Z</time>
      </trkpt>
      <trkpt lat="42.368348000" lon="-2.481081000">
        <ele>503.70</ele>
        <time>2016-10-22T08:09:23Z</time>
      </trkpt>
      <trkpt lat="42.368326000" lon="-2.481025000">
        <ele>503.50</ele>
        <time>2016-10-22T08:09:24Z</time>
      </trkpt>
      <trkpt lat="42.368305000" lon="-2.480972000">
        <ele>503.40</ele>
        <time>2016-10-22T08:09:25Z</time>
      </trkpt>
      <trkpt lat="42.368284000" lon="-2.480918000">
        <ele>503.60</ele>
        <time>2016-10-22T08:09:26Z</time>
      </trkpt>
      <trkpt lat="42.368263000" lon="-2.480862000">
        <ele>503.70</ele>
        <time>2016-10-22T08:09:27Z</time>
      </trkpt>
      <trkpt lat="42.368240000" lon="-2.480807000">
        <ele>503.80</ele>
        <time>2016-10-22T08:09:28Z</time>
      </trkpt>
      <trkpt lat="42.368216000" lon="-2.480748000">
        <ele>503.90</ele>
        <time>2016-10-22T08:09:29Z</time>
      </trkpt>
      <trkpt lat="42.368193000" lon="-2.480694000">
        <ele>504.00</ele>
        <time>2016-10-22T08:09:30Z</time>
      </trkpt>
      <trkpt lat="42.368149000" lon="-2.480580000">
        <ele>504.00</ele>
        <time>2016-10-22T08:09:32Z</time>
      </trkpt>
      <trkpt lat="42.368126000" lon="-2.480522000">
        <ele>503.90</ele>
        <time>2016-10-22T08:09:33Z</time>
      </trkpt>
      <trkpt lat="42.368103000" lon="-2.480464000">
        <ele>503.90</ele>
        <time>2016-10-22T08:09:34Z</time>
      </trkpt>
      <trkpt lat="42.368082000" lon="-2.480408000">
        <ele>503.80</ele>
        <time>2016-10-22T08:09:35Z</time>
      </trkpt>
      <trkpt lat="42.368059000" lon="-2.480353000">
        <ele>503.70</ele>
        <time>2016-10-22T08:09:36Z</time>
      </trkpt>
      <trkpt lat="42.368040000" lon="-2.480294000">
        <ele>503.60</ele>
        <time>2016-10-22T08:09:37Z</time>
      </trkpt>
      <trkpt lat="42.368019000" lon="-2.480236000">
        <ele>503.50</ele>
        <time>2016-10-22T08:09:38Z</time>
      </trkpt>
      <trkpt lat="42.367995000" lon="-2.480179000">
        <ele>503.50</ele>
        <time>2016-10-22T08:09:39Z</time>
      </trkpt>
      <trkpt lat="42.367972000" lon="-2.480123000">
        <ele>503.40</ele>
        <time>2016-10-22T08:09:40Z</time>
      </trkpt>
      <trkpt lat="42.367949000" lon="-2.480064000">
        <ele>503.40</ele>
        <time>2016-10-22T08:09:41Z</time>
      </trkpt>
      <trkpt lat="42.367927000" lon="-2.480005000">
        <ele>503.40</ele>
        <time>2016-10-22T08:09:42Z</time>
      </trkpt>
      <trkpt lat="42.367904000" lon="-2.479946000">
        <ele>503.40</ele>
        <time>2016-10-22T08:09:43Z</time>
      </trkpt>
      <trkpt lat="42.367880000" lon="-2.479887000">
        <ele>503.60</ele>
        <time>2016-10-22T08:09:44Z</time>
      </trkpt>
      <trkpt lat="42.367855000" lon="-2.479830000">
        <ele>503.70</ele>
        <time>2016-10-22T08:09:45Z</time>
      </trkpt>
      <trkpt lat="42.367832000" lon="-2.479773000">
        <ele>503.60</ele>
        <time>2016-10-22T08:09:46Z</time>
      </trkpt>
      <trkpt lat="42.367807000" lon="-2.479717000">
        <ele>503.50</ele>
        <time>2016-10-22T08:09:47Z</time>
      </trkpt>
      <trkpt lat="42.367783000" lon="-2.479660000">
        <ele>503.40</ele>
        <time>2016-10-22T08:09:48Z</time>
      </trkpt>
      <trkpt lat="42.367760000" lon="-2.479602000">
        <ele>503.20</ele>
        <time>2016-10-22T08:09:49Z</time>
      </trkpt>
      <trkpt lat="42.367737000" lon="-2.479544000">
        <ele>503.10</ele>
        <time>2016-10-22T08:09:50Z</time>
      </trkpt>
      <trkpt lat="42.367713000" lon="-2.479486000">
        <ele>503.00</ele>
        <time>2016-10-22T08:09:51Z</time>
      </trkpt>
      <trkpt lat="42.367690000" lon="-2.479430000">
        <ele>503.20</ele>
        <time>2016-10-22T08:09:52Z</time>
      </trkpt>
      <trkpt lat="42.367668000" lon="-2.479374000">
        <ele>503.30</ele>
        <time>2016-10-22T08:09:53Z</time>
      </trkpt>
      <trkpt lat="42.367645000" lon="-2.479319000">
        <ele>503.40</ele>
        <time>2016-10-22T08:09:54Z</time>
      </trkpt>
      <trkpt lat="42.367624000" lon="-2.479263000">
        <ele>503.40</ele>
        <time>2016-10-22T08:09:55Z</time>
      </trkpt>
      <trkpt lat="42.367600000" lon="-2.479207000">
        <ele>503.30</ele>
        <time>2016-10-22T08:09:56Z</time>
      </trkpt>
      <trkpt lat="42.367575000" lon="-2.479154000">
        <ele>503.30</ele>
        <time>2016-10-22T08:09:57Z</time>
      </trkpt>
      <trkpt lat="42.367550000" lon="-2.479100000">
        <ele>503.20</ele>
        <time>2016-10-22T08:09:58Z</time>
      </trkpt>
      <trkpt lat="42.367523000" lon="-2.479049000">
        <ele>503.20</ele>
        <time>2016-10-22T08:09:59Z</time>
      </trkpt>
      <trkpt lat="42.367499000" lon="-2.478999000">
        <ele>503.00</ele>
        <time>2016-10-22T08:10:00Z</time>
      </trkpt>
      <trkpt lat="42.367477000" lon="-2.478948000">
        <ele>502.90</ele>
        <time>2016-10-22T08:10:01Z</time>
      </trkpt>
      <trkpt lat="42.367453000" lon="-2.478900000">
        <ele>502.80</ele>
        <time>2016-10-22T08:10:02Z</time>
      </trkpt>
      <trkpt lat="42.367430000" lon="-2.478850000">
        <ele>502.80</ele>
        <time>2016-10-22T08:10:03Z</time>
      </trkpt>
      <trkpt lat="42.367408000" lon="-2.478804000">
        <ele>502.70</ele>
        <time>2016-10-22T08:10:04Z</time>
      </trkpt>
      <trkpt lat="42.367385000" lon="-2.478755000">
        <ele>502.70</ele>
        <time>2016-10-22T08:10:05Z</time>
      </trkpt>
      <trkpt lat="42.367362000" lon="-2.478705000">
        <ele>502.70</ele>
        <time>2016-10-22T08:10:06Z</time>
      </trkpt>
      <trkpt lat="42.367339000" lon="-2.478655000">
        <ele>502.70</ele>
        <time>2016-10-22T08:10:07Z</time>
      </trkpt>
      <trkpt lat="42.367317000" lon="-2.478602000">
        <ele>502.80</ele>
        <time>2016-10-22T08:10:08Z</time>
      </trkpt>
      <trkpt lat="42.367293000" lon="-2.478549000">
        <ele>502.90</ele>
        <time>2016-10-22T08:10:09Z</time>
      </trkpt>
      <trkpt lat="42.367271000" lon="-2.478496000">
        <ele>503.00</ele>
        <time>2016-10-22T08:10:10Z</time>
      </trkpt>
      <trkpt lat="42.367243000" lon="-2.478447000">
        <ele>503.10</ele>
        <time>2016-10-22T08:10:11Z</time>
      </trkpt>
      <trkpt lat="42.367218000" lon="-2.478397000">
        <ele>503.20</ele>
        <time>2016-10-22T08:10:12Z</time>
      </trkpt>
      <trkpt lat="42.367192000" lon="-2.478347000">
        <ele>503.20</ele>
        <time>2016-10-22T08:10:13Z</time>
      </trkpt>
      <trkpt lat="42.367161000" lon="-2.478302000">
        <ele>503.10</ele>
        <time>2016-10-22T08:10:14Z</time>
      </trkpt>
      <trkpt lat="42.367122000" lon="-2.478267000">
        <ele>503.10</ele>
        <time>2016-10-22T08:10:15Z</time>
      </trkpt>
      <trkpt lat="42.367082000" lon="-2.478241000">
        <ele>503.00</ele>
        <time>2016-10-22T08:10:16Z</time>
      </trkpt>
      <trkpt lat="42.367038000" lon="-2.478224000">
        <ele>503.00</ele>
        <time>2016-10-22T08:10:17Z</time>
      </trkpt>
      <trkpt lat="42.366994000" lon="-2.478210000">
        <ele>503.00</ele>
        <time>2016-10-22T08:10:18Z</time>
      </trkpt>
      <trkpt lat="42.366951000" lon="-2.478198000">
        <ele>503.00</ele>
        <time>2016-10-22T08:10:19Z</time>
      </trkpt>
      <trkpt lat="42.366907000" lon="-2.478193000">
        <ele>503.10</ele>
        <time>2016-10-22T08:10:20Z</time>
      </trkpt>
      <trkpt lat="42.366863000" lon="-2.478189000">
        <ele>503.30</ele>
        <time>2016-10-22T08:10:21Z</time>
      </trkpt>
      <trkpt lat="42.366821000" lon="-2.478187000">
        <ele>503.40</ele>
        <time>2016-10-22T08:10:22Z</time>
      </trkpt>
      <trkpt lat="42.366779000" lon="-2.478189000">
        <ele>503.50</ele>
        <time>2016-10-22T08:10:23Z</time>
      </trkpt>
      <trkpt lat="42.366736000" lon="-2.478188000">
        <ele>503.50</ele>
        <time>2016-10-22T08:10:24Z</time>
      </trkpt>
      <trkpt lat="42.366693000" lon="-2.478190000">
        <ele>503.60</ele>
        <time>2016-10-22T08:10:25Z</time>
      </trkpt>
      <trkpt lat="42.366653000" lon="-2.478196000">
        <ele>503.50</ele>
        <time>2016-10-22T08:10:26Z</time>
      </trkpt>
      <trkpt lat="42.366610000" lon="-2.478201000">
        <ele>503.40</ele>
        <time>2016-10-22T08:10:27Z</time>
      </trkpt>
      <trkpt lat="42.366568000" lon="-2.478205000">
        <ele>503.30</ele>
        <time>2016-10-22T08:10:28Z</time>
      </trkpt>
      <trkpt lat="42.366527000" lon="-2.478204000">
        <ele>503.30</ele>
        <time>2016-10-22T08:10:29Z</time>
      </trkpt>
      <trkpt lat="42.366484000" lon="-2.478206000">
        <ele>503.30</ele>
        <time>2016-10-22T08:10:30Z</time>
      </trkpt>
      <trkpt lat="42.366440000" lon="-2.478201000">
        <ele>503.20</ele>
        <time>2016-10-22T08:10:31Z</time>
      </trkpt>
      <trkpt lat="42.366356000" lon="-2.478174000">
        <ele>503.90</ele>
        <time>2016-10-22T08:10:33Z</time>
      </trkpt>
      <trkpt lat="42.366315000" lon="-2.478155000">
        <ele>504.10</ele>
        <time>2016-10-22T08:10:34Z</time>
      </trkpt>
      <trkpt lat="42.366272000" lon="-2.478132000">
        <ele>504.30</ele>
        <time>2016-10-22T08:10:35Z</time>
      </trkpt>
      <trkpt lat="42.366232000" lon="-2.478102000">
        <ele>504.40</ele>
        <time>2016-10-22T08:10:36Z</time>
      </trkpt>
      <trkpt lat="42.366189000" lon="-2.478074000">
        <ele>504.50</ele>
        <time>2016-10-22T08:10:37Z</time>
      </trkpt>
      <trkpt lat="42.366148000" lon="-2.478043000">
        <ele>504.70</ele>
        <time>2016-10-22T08:10:38Z</time>
      </trkpt>
      <trkpt lat="42.366107000" lon="-2.478015000">
        <ele>504.80</ele>
        <time>2016-10-22T08:10:39Z</time>
      </trkpt>
      <trkpt lat="42.366066000" lon="-2.477986000">
        <ele>504.70</ele>
        <time>2016-10-22T08:10:40Z</time>
      </trkpt>
      <trkpt lat="42.366024000" lon="-2.477960000">
        <ele>504.70</ele>
        <time>2016-10-22T08:10:41Z</time>
      </trkpt>
      <trkpt lat="42.365984000" lon="-2.477936000">
        <ele>504.60</ele>
        <time>2016-10-22T08:10:42Z</time>
      </trkpt>
      <trkpt lat="42.365942000" lon="-2.477913000">
        <ele>504.60</ele>
        <time>2016-10-22T08:10:43Z</time>
      </trkpt>
      <trkpt lat="42.365900000" lon="-2.477889000">
        <ele>504.50</ele>
        <time>2016-10-22T08:10:44Z</time>
      </trkpt>
      <trkpt lat="42.365858000" lon="-2.477869000">
        <ele>504.40</ele>
        <time>2016-10-22T08:10:45Z</time>
      </trkpt>
      <trkpt lat="42.365816000" lon="-2.477848000">
        <ele>504.40</ele>
        <time>2016-10-22T08:10:46Z</time>
      </trkpt>
      <trkpt lat="42.365775000" lon="-2.477827000">
        <ele>504.40</ele>
        <time>2016-10-22T08:10:47Z</time>
      </trkpt>
      <trkpt lat="42.365735000" lon="-2.477807000">
        <ele>504.40</ele>
        <time>2016-10-22T08:10:48Z</time>
      </trkpt>
      <trkpt lat="42.365697000" lon="-2.477790000">
        <ele>504.30</ele>
        <time>2016-10-22T08:10:49Z</time>
      </trkpt>
      <trkpt lat="42.365659000" lon="-2.477774000">
        <ele>504.40</ele>
        <time>2016-10-22T08:10:50Z</time>
      </trkpt>
      <trkpt lat="42.365620000" lon="-2.477756000">
        <ele>504.40</ele>
        <time>2016-10-22T08:10:51Z</time>
      </trkpt>
      <trkpt lat="42.365583000" lon="-2.477738000">
        <ele>504.40</ele>
        <time>2016-10-22T08:10:52Z</time>
      </trkpt>
      <trkpt lat="42.365547000" lon="-2.477713000">
        <ele>504.30</ele>
        <time>2016-10-22T08:10:53Z</time>
      </trkpt>
      <trkpt lat="42.365512000" lon="-2.477690000">
        <ele>504.30</ele>
        <time>2016-10-22T08:10:54Z</time>
      </trkpt>
      <trkpt lat="42.365478000" lon="-2.477663000">
        <ele>504.30</ele>
        <time>2016-10-22T08:10:55Z</time>
      </trkpt>
      <trkpt lat="42.365444000" lon="-2.477635000">
        <ele>504.20</ele>
        <time>2016-10-22T08:10:56Z</time>
      </trkpt>
      <trkpt lat="42.365413000" lon="-2.477603000">
        <ele>504.10</ele>
        <time>2016-10-22T08:10:57Z</time>
      </trkpt>
      <trkpt lat="42.365389000" lon="-2.477574000">
        <ele>504.10</ele>
        <time>2016-10-22T08:10:58Z</time>
      </trkpt>
      <trkpt lat="42.365378000" lon="-2.477540000">
        <ele>504.10</ele>
        <time>2016-10-22T08:10:59Z</time>
      </trkpt>
      <trkpt lat="42.365382000" lon="-2.477504000">
        <ele>504.00</ele>
        <time>2016-10-22T08:11:00Z</time>
      </trkpt>
      <trkpt lat="42.365401000" lon="-2.477472000">
        <ele>504.00</ele>
        <time>2016-10-22T08:11:01Z</time>
      </trkpt>
      <trkpt lat="42.365430000" lon="-2.477450000">
        <ele>503.90</ele>
        <time>2016-10-22T08:11:02Z</time>
      </trkpt>
      <trkpt lat="42.365463000" lon="-2.477429000">
        <ele>503.90</ele>
        <time>2016-10-22T08:11:03Z</time>
      </trkpt>
      <trkpt lat="42.365499000" lon="-2.477416000">
        <ele>503.80</ele>
        <time>2016-10-22T08:11:04Z</time>
      </trkpt>
      <trkpt lat="42.365535000" lon="-2.477398000">
        <ele>503.80</ele>
        <time>2016-10-22T08:11:05Z</time>
      </trkpt>
      <trkpt lat="42.365573000" lon="-2.477382000">
        <ele>503.80</ele>
        <time>2016-10-22T08:11:06Z</time>
      </trkpt>
      <trkpt lat="42.365610000" lon="-2.477364000">
        <ele>503.70</ele>
        <time>2016-10-22T08:11:07Z</time>
      </trkpt>
      <trkpt lat="42.365645000" lon="-2.477346000">
        <ele>503.80</ele>
        <time>2016-10-22T08:11:08Z</time>
      </trkpt>
      <trkpt lat="42.365681000" lon="-2.477329000">
        <ele>503.80</ele>
        <time>2016-10-22T08:11:09Z</time>
      </trkpt>
      <trkpt lat="42.365719000" lon="-2.477310000">
        <ele>503.60</ele>
        <time>2016-10-22T08:11:10Z</time>
      </trkpt>
      <trkpt lat="42.365760000" lon="-2.477286000">
        <ele>503.40</ele>
        <time>2016-10-22T08:11:11Z</time>
      </trkpt>
      <trkpt lat="42.365803000" lon="-2.477267000">
        <ele>503.30</ele>
        <time>2016-10-22T08:11:12Z</time>
      </trkpt>
      <trkpt lat="42.365844000" lon="-2.477248000">
        <ele>503.20</ele>
        <time>2016-10-22T08:11:13Z</time>
      </trkpt>
      <trkpt lat="42.365885000" lon="-2.477227000">
        <ele>503.10</ele>
        <time>2016-10-22T08:11:14Z</time>
      </trkpt>
      <trkpt lat="42.365924000" lon="-2.477203000">
        <ele>503.10</ele>
        <time>2016-10-22T08:11:15Z</time>
      </trkpt>
      <trkpt lat="42.365963000" lon="-2.477182000">
        <ele>503.00</ele>
        <time>2016-10-22T08:11:16Z</time>
      </trkpt>
      <trkpt lat="42.366004000" lon="-2.477155000">
        <ele>502.90</ele>
        <time>2016-10-22T08:11:17Z</time>
      </trkpt>
      <trkpt lat="42.366043000" lon="-2.477125000">
        <ele>503.10</ele>
        <time>2016-10-22T08:11:18Z</time>
      </trkpt>
      <trkpt lat="42.366080000" lon="-2.477092000">
        <ele>503.20</ele>
        <time>2016-10-22T08:11:19Z</time>
      </trkpt>
      <trkpt lat="42.366115000" lon="-2.477053000">
        <ele>503.40</ele>
        <time>2016-10-22T08:11:20Z</time>
      </trkpt>
      <trkpt lat="42.366147000" lon="-2.477008000">
        <ele>503.50</ele>
        <time>2016-10-22T08:11:21Z</time>
      </trkpt>
      <trkpt lat="42.366173000" lon="-2.476957000">
        <ele>503.70</ele>
        <time>2016-10-22T08:11:22Z</time>
      </trkpt>
      <trkpt lat="42.366194000" lon="-2.476904000">
        <ele>503.70</ele>
        <time>2016-10-22T08:11:23Z</time>
      </trkpt>
      <trkpt lat="42.366212000" lon="-2.476850000">
        <ele>503.70</ele>
        <time>2016-10-22T08:11:24Z</time>
      </trkpt>
      <trkpt lat="42.366226000" lon="-2.476795000">
        <ele>503.70</ele>
        <time>2016-10-22T08:11:25Z</time>
      </trkpt>
      <trkpt lat="42.366241000" lon="-2.476737000">
        <ele>503.70</ele>
        <time>2016-10-22T08:11:26Z</time>
      </trkpt>
      <trkpt lat="42.366257000" lon="-2.476678000">
        <ele>503.70</ele>
        <time>2016-10-22T08:11:27Z</time>
      </trkpt>
      <trkpt lat="42.366273000" lon="-2.476619000">
        <ele>503.60</ele>
        <time>2016-10-22T08:11:28Z</time>
      </trkpt>
      <trkpt lat="42.366291000" lon="-2.476561000">
        <ele>503.60</ele>
        <time>2016-10-22T08:11:29Z</time>
      </trkpt>
      <trkpt lat="42.366310000" lon="-2.476507000">
        <ele>503.60</ele>
        <time>2016-10-22T08:11:30Z</time>
      </trkpt>
      <trkpt lat="42.366335000" lon="-2.476455000">
        <ele>503.60</ele>
        <time>2016-10-22T08:11:31Z</time>
      </trkpt>
      <trkpt lat="42.366362000" lon="-2.476403000">
        <ele>503.70</ele>
        <time>2016-10-22T08:11:32Z</time>
      </trkpt>
      <trkpt lat="42.366425000" lon="-2.476309000">
        <ele>503.80</ele>
        <time>2016-10-22T08:11:34Z</time>
      </trkpt>
      <trkpt lat="42.366460000" lon="-2.476264000">
        <ele>503.80</ele>
        <time>2016-10-22T08:11:35Z</time>
      </trkpt>
      <trkpt lat="42.366497000" lon="-2.476216000">
        <ele>503.80</ele>
        <time>2016-10-22T08:11:36Z</time>
      </trkpt>
      <trkpt lat="42.366535000" lon="-2.476171000">
        <ele>503.80</ele>
        <time>2016-10-22T08:11:37Z</time>
      </trkpt>
      <trkpt lat="42.366573000" lon="-2.476124000">
        <ele>503.50</ele>
        <time>2016-10-22T08:11:38Z</time>
      </trkpt>
      <trkpt lat="42.366610000" lon="-2.476075000">
        <ele>503.30</ele>
        <time>2016-10-22T08:11:39Z</time>
      </trkpt>
      <trkpt lat="42.366648000" lon="-2.476025000">
        <ele>503.10</ele>
        <time>2016-10-22T08:11:40Z</time>
      </trkpt>
      <trkpt lat="42.366689000" lon="-2.475975000">
        <ele>503.00</ele>
        <time>2016-10-22T08:11:41Z</time>
      </trkpt>
      <trkpt lat="42.366725000" lon="-2.475926000">
        <ele>503.00</ele>
        <time>2016-10-22T08:11:42Z</time>
      </trkpt>
      <trkpt lat="42.366764000" lon="-2.475874000">
        <ele>503.00</ele>
        <time>2016-10-22T08:11:43Z</time>
      </trkpt>
      <trkpt lat="42.366803000" lon="-2.475822000">
        <ele>503.00</ele>
        <time>2016-10-22T08:11:44Z</time>
      </trkpt>
      <trkpt lat="42.366842000" lon="-2.475774000">
        <ele>503.10</ele>
        <time>2016-10-22T08:11:45Z</time>
      </trkpt>
      <trkpt lat="42.366882000" lon="-2.475723000">
        <ele>503.00</ele>
        <time>2016-10-22T08:11:46Z</time>
      </trkpt>
      <trkpt lat="42.366922000" lon="-2.475668000">
        <ele>503.00</ele>
        <time>2016-10-22T08:11:47Z</time>
      </trkpt>
      <trkpt lat="42.366962000" lon="-2.475612000">
        <ele>502.80</ele>
        <time>2016-10-22T08:11:48Z</time>
      </trkpt>
      <trkpt lat="42.367000000" lon="-2.475556000">
        <ele>502.70</ele>
        <time>2016-10-22T08:11:49Z</time>
      </trkpt>
      <trkpt lat="42.367035000" lon="-2.475497000">
        <ele>502.50</ele>
        <time>2016-10-22T08:11:50Z</time>
      </trkpt>
      <trkpt lat="42.367072000" lon="-2.475440000">
        <ele>502.30</ele>
        <time>2016-10-22T08:11:51Z</time>
      </trkpt>
      <trkpt lat="42.367111000" lon="-2.475386000">
        <ele>502.20</ele>
        <time>2016-10-22T08:11:52Z</time>
      </trkpt>
      <trkpt lat="42.367154000" lon="-2.475341000">
        <ele>502.10</ele>
        <time>2016-10-22T08:11:53Z</time>
      </trkpt>
      <trkpt lat="42.367196000" lon="-2.475297000">
        <ele>502.10</ele>
        <time>2016-10-22T08:11:54Z</time>
      </trkpt>
      <trkpt lat="42.367240000" lon="-2.475256000">
        <ele>502.00</ele>
        <time>2016-10-22T08:11:55Z</time>
      </trkpt>
      <trkpt lat="42.367287000" lon="-2.475217000">
        <ele>501.90</ele>
        <time>2016-10-22T08:11:56Z</time>
      </trkpt>
      <trkpt lat="42.367333000" lon="-2.475181000">
        <ele>501.70</ele>
        <time>2016-10-22T08:11:57Z</time>
      </trkpt>
      <trkpt lat="42.367383000" lon="-2.475148000">
        <ele>501.70</ele>
        <time>2016-10-22T08:11:58Z</time>
      </trkpt>
      <trkpt lat="42.367431000" lon="-2.475116000">
        <ele>501.60</ele>
        <time>2016-10-22T08:11:59Z</time>
      </trkpt>
      <trkpt lat="42.367480000" lon="-2.475083000">
        <ele>501.50</ele>
        <time>2016-10-22T08:12:00Z</time>
      </trkpt>
      <trkpt lat="42.367525000" lon="-2.475048000">
        <ele>501.50</ele>
        <time>2016-10-22T08:12:01Z</time>
      </trkpt>
      <trkpt lat="42.367570000" lon="-2.475014000">
        <ele>501.30</ele>
        <time>2016-10-22T08:12:02Z</time>
      </trkpt>
      <trkpt lat="42.367616000" lon="-2.474981000">
        <ele>501.20</ele>
        <time>2016-10-22T08:12:03Z</time>
      </trkpt>
      <trkpt lat="42.367662000" lon="-2.474946000">
        <ele>501.20</ele>
        <time>2016-10-22T08:12:04Z</time>
      </trkpt>
      <trkpt lat="42.367710000" lon="-2.474914000">
        <ele>501.20</ele>
        <time>2016-10-22T08:12:05Z</time>
      </trkpt>
      <trkpt lat="42.367756000" lon="-2.474884000">
        <ele>501.30</ele>
        <time>2016-10-22T08:12:06Z</time>
      </trkpt>
      <trkpt lat="42.367805000" lon="-2.474860000">
        <ele>501.30</ele>
        <time>2016-10-22T08:12:07Z</time>
      </trkpt>
      <trkpt lat="42.367855000" lon="-2.474842000">
        <ele>501.30</ele>
        <time>2016-10-22T08:12:08Z</time>
      </trkpt>
      <trkpt lat="42.367906000" lon="-2.474826000">
        <ele>501.30</ele>
        <time>2016-10-22T08:12:09Z</time>
      </trkpt>
      <trkpt lat="42.367958000" lon="-2.474810000">
        <ele>501.40</ele>
        <time>2016-10-22T08:12:10Z</time>
      </trkpt>
      <trkpt lat="42.368010000" lon="-2.474798000">
        <ele>501.40</ele>
        <time>2016-10-22T08:12:11Z</time>
      </trkpt>
      <trkpt lat="42.368062000" lon="-2.474786000">
        <ele>501.40</ele>
        <time>2016-10-22T08:12:12Z</time>
      </trkpt>
      <trkpt lat="42.368115000" lon="-2.474773000">
        <ele>501.40</ele>
        <time>2016-10-22T08:12:13Z</time>
      </trkpt>
      <trkpt lat="42.368171000" lon="-2.474766000">
        <ele>501.40</ele>
        <time>2016-10-22T08:12:14Z</time>
      </trkpt>
      <trkpt lat="42.368225000" lon="-2.474761000">
        <ele>501.40</ele>
        <time>2016-10-22T08:12:15Z</time>
      </trkpt>
      <trkpt lat="42.368280000" lon="-2.474759000">
        <ele>501.30</ele>
        <time>2016-10-22T08:12:16Z</time>
      </trkpt>
      <trkpt lat="42.368334000" lon="-2.474758000">
        <ele>501.30</ele>
        <time>2016-10-22T08:12:17Z</time>
      </trkpt>
      <trkpt lat="42.368390000" lon="-2.474760000">
        <ele>501.20</ele>
        <time>2016-10-22T08:12:18Z</time>
      </trkpt>
      <trkpt lat="42.368447000" lon="-2.474763000">
        <ele>501.10</ele>
        <time>2016-10-22T08:12:19Z</time>
      </trkpt>
      <trkpt lat="42.368505000" lon="-2.474765000">
        <ele>501.00</ele>
        <time>2016-10-22T08:12:20Z</time>
      </trkpt>
      <trkpt lat="42.368563000" lon="-2.474768000">
        <ele>501.00</ele>
        <time>2016-10-22T08:12:21Z</time>
      </trkpt>
      <trkpt lat="42.368624000" lon="-2.474771000">
        <ele>500.70</ele>
        <time>2016-10-22T08:12:22Z</time>
      </trkpt>
      <trkpt lat="42.368680000" lon="-2.474770000">
        <ele>500.40</ele>
        <time>2016-10-22T08:12:23Z</time>
      </trkpt>
      <trkpt lat="42.368735000" lon="-2.474765000">
        <ele>500.30</ele>
        <time>2016-10-22T08:12:24Z</time>
      </trkpt>
      <trkpt lat="42.368791000" lon="-2.474762000">
        <ele>500.10</ele>
        <time>2016-10-22T08:12:25Z</time>
      </trkpt>
      <trkpt lat="42.368844000" lon="-2.474757000">
        <ele>500.10</ele>
        <time>2016-10-22T08:12:26Z</time>
      </trkpt>
      <trkpt lat="42.368899000" lon="-2.474750000">
        <ele>500.10</ele>
        <time>2016-10-22T08:12:27Z</time>
      </trkpt>
      <trkpt lat="42.368954000" lon="-2.474738000">
        <ele>500.30</ele>
        <time>2016-10-22T08:12:28Z</time>
      </trkpt>
      <trkpt lat="42.369008000" lon="-2.474726000">
        <ele>500.40</ele>
        <time>2016-10-22T08:12:29Z</time>
      </trkpt>
      <trkpt lat="42.369064000" lon="-2.474709000">
        <ele>500.30</ele>
        <time>2016-10-22T08:12:30Z</time>
      </trkpt>
      <trkpt lat="42.369117000" lon="-2.474689000">
        <ele>500.20</ele>
        <time>2016-10-22T08:12:31Z</time>
      </trkpt>
      <trkpt lat="42.369170000" lon="-2.474665000">
        <ele>500.20</ele>
        <time>2016-10-22T08:12:32Z</time>
      </trkpt>
      <trkpt lat="42.369220000" lon="-2.474636000">
        <ele>500.10</ele>
        <time>2016-10-22T08:12:33Z</time>
      </trkpt>
      <trkpt lat="42.369320000" lon="-2.474575000">
        <ele>499.80</ele>
        <time>2016-10-22T08:12:35Z</time>
      </trkpt>
      <trkpt lat="42.369371000" lon="-2.474542000">
        <ele>499.70</ele>
        <time>2016-10-22T08:12:36Z</time>
      </trkpt>
      <trkpt lat="42.369421000" lon="-2.474509000">
        <ele>499.60</ele>
        <time>2016-10-22T08:12:37Z</time>
      </trkpt>
      <trkpt lat="42.369469000" lon="-2.474476000">
        <ele>499.40</ele>
        <time>2016-10-22T08:12:38Z</time>
      </trkpt>
      <trkpt lat="42.369518000" lon="-2.474443000">
        <ele>499.30</ele>
        <time>2016-10-22T08:12:39Z</time>
      </trkpt>
      <trkpt lat="42.369567000" lon="-2.474411000">
        <ele>499.20</ele>
        <time>2016-10-22T08:12:40Z</time>
      </trkpt>
      <trkpt lat="42.369615000" lon="-2.474380000">
        <ele>499.20</ele>
        <time>2016-10-22T08:12:41Z</time>
      </trkpt>
      <trkpt lat="42.369665000" lon="-2.474352000">
        <ele>499.10</ele>
        <time>2016-10-22T08:12:42Z</time>
      </trkpt>
      <trkpt lat="42.369717000" lon="-2.474322000">
        <ele>499.10</ele>
        <time>2016-10-22T08:12:43Z</time>
      </trkpt>
      <trkpt lat="42.369770000" lon="-2.474300000">
        <ele>499.00</ele>
        <time>2016-10-22T08:12:44Z</time>
      </trkpt>
      <trkpt lat="42.369826000" lon="-2.474281000">
        <ele>499.00</ele>
        <time>2016-10-22T08:12:45Z</time>
      </trkpt>
      <trkpt lat="42.369883000" lon="-2.474267000">
        <ele>499.00</ele>
        <time>2016-10-22T08:12:46Z</time>
      </trkpt>
      <trkpt lat="42.369938000" lon="-2.474249000">
        <ele>499.00</ele>
        <time>2016-10-22T08:12:47Z</time>
      </trkpt>
      <trkpt lat="42.369993000" lon="-2.474231000">
        <ele>498.80</ele>
        <time>2016-10-22T08:12:48Z</time>
      </trkpt>
      <trkpt lat="42.370048000" lon="-2.474210000">
        <ele>498.70</ele>
        <time>2016-10-22T08:12:49Z</time>
      </trkpt>
      <trkpt lat="42.370101000" lon="-2.474186000">
        <ele>498.50</ele>
        <time>2016-10-22T08:12:50Z</time>
      </trkpt>
      <trkpt lat="42.370154000" lon="-2.474160000">
        <ele>498.40</ele>
        <time>2016-10-22T08:12:51Z</time>
      </trkpt>
      <trkpt lat="42.370206000" lon="-2.474136000">
        <ele>498.30</ele>
        <time>2016-10-22T08:12:52Z</time>
      </trkpt>
      <trkpt lat="42.370258000" lon="-2.474111000">
        <ele>498.20</ele>
        <time>2016-10-22T08:12:53Z</time>
      </trkpt>
      <trkpt lat="42.370310000" lon="-2.474087000">
        <ele>498.30</ele>
        <time>2016-10-22T08:12:54Z</time>
      </trkpt>
      <trkpt lat="42.370363000" lon="-2.474063000">
        <ele>498.30</ele>
        <time>2016-10-22T08:12:55Z</time>
      </trkpt>
      <trkpt lat="42.370417000" lon="-2.474041000">
        <ele>498.40</ele>
        <time>2016-10-22T08:12:56Z</time>
      </trkpt>
      <trkpt lat="42.370473000" lon="-2.474022000">
        <ele>498.40</ele>
        <time>2016-10-22T08:12:57Z</time>
      </trkpt>
      <trkpt lat="42.370530000" lon="-2.474003000">
        <ele>498.30</ele>
        <time>2016-10-22T08:12:58Z</time>
      </trkpt>
      <trkpt lat="42.370587000" lon="-2.473985000">
        <ele>498.20</ele>
        <time>2016-10-22T08:12:59Z</time>
      </trkpt>
      <trkpt lat="42.370643000" lon="-2.473964000">
        <ele>498.20</ele>
        <time>2016-10-22T08:13:00Z</time>
      </trkpt>
      <trkpt lat="42.370701000" lon="-2.473941000">
        <ele>498.10</ele>
        <time>2016-10-22T08:13:01Z</time>
      </trkpt>
      <trkpt lat="42.370759000" lon="-2.473920000">
        <ele>497.80</ele>
        <time>2016-10-22T08:13:02Z</time>
      </trkpt>
      <trkpt lat="42.370818000" lon="-2.473899000">
        <ele>497.50</ele>
        <time>2016-10-22T08:13:03Z</time>
      </trkpt>
      <trkpt lat="42.370876000" lon="-2.473880000">
        <ele>497.20</ele>
        <time>2016-10-22T08:13:04Z</time>
      </trkpt>
      <trkpt lat="42.370933000" lon="-2.473862000">
        <ele>497.00</ele>
        <time>2016-10-22T08:13:05Z</time>
      </trkpt>
      <trkpt lat="42.370990000" lon="-2.473841000">
        <ele>496.90</ele>
        <time>2016-10-22T08:13:06Z</time>
      </trkpt>
      <trkpt lat="42.371046000" lon="-2.473821000">
        <ele>496.80</ele>
        <time>2016-10-22T08:13:07Z</time>
      </trkpt>
      <trkpt lat="42.371102000" lon="-2.473800000">
        <ele>496.70</ele>
        <time>2016-10-22T08:13:08Z</time>
      </trkpt>
      <trkpt lat="42.371160000" lon="-2.473778000">
        <ele>496.70</ele>
        <time>2016-10-22T08:13:09Z</time>
      </trkpt>
      <trkpt lat="42.371217000" lon="-2.473758000">
        <ele>496.80</ele>
        <time>2016-10-22T08:13:10Z</time>
      </trkpt>
      <trkpt lat="42.371276000" lon="-2.473735000">
        <ele>496.90</ele>
        <time>2016-10-22T08:13:11Z</time>
      </trkpt>
      <trkpt lat="42.371333000" lon="-2.473714000">
        <ele>496.90</ele>
        <time>2016-10-22T08:13:12Z</time>
      </trkpt>
      <trkpt lat="42.371390000" lon="-2.473691000">
        <ele>496.80</ele>
        <time>2016-10-22T08:13:13Z</time>
      </trkpt>
      <trkpt lat="42.371445000" lon="-2.473670000">
        <ele>496.80</ele>
        <time>2016-10-22T08:13:14Z</time>
      </trkpt>
      <trkpt lat="42.371499000" lon="-2.473648000">
        <ele>496.80</ele>
        <time>2016-10-22T08:13:15Z</time>
      </trkpt>
      <trkpt lat="42.371553000" lon="-2.473624000">
        <ele>496.70</ele>
        <time>2016-10-22T08:13:16Z</time>
      </trkpt>
      <trkpt lat="42.371606000" lon="-2.473597000">
        <ele>496.60</ele>
        <time>2016-10-22T08:13:17Z</time>
      </trkpt>
      <trkpt lat="42.371658000" lon="-2.473568000">
        <ele>496.60</ele>
        <time>2016-10-22T08:13:18Z</time>
      </trkpt>
      <trkpt lat="42.371713000" lon="-2.473541000">
        <ele>496.50</ele>
        <time>2016-10-22T08:13:19Z</time>
      </trkpt>
      <trkpt lat="42.371765000" lon="-2.473515000">
        <ele>496.50</ele>
        <time>2016-10-22T08:13:20Z</time>
      </trkpt>
      <trkpt lat="42.371816000" lon="-2.473487000">
        <ele>496.50</ele>
        <time>2016-10-22T08:13:21Z</time>
      </trkpt>
      <trkpt lat="42.371865000" lon="-2.473460000">
        <ele>496.40</ele>
        <time>2016-10-22T08:13:22Z</time>
      </trkpt>
      <trkpt lat="42.371912000" lon="-2.473431000">
        <ele>496.30</ele>
        <time>2016-10-22T08:13:23Z</time>
      </trkpt>
      <trkpt lat="42.371959000" lon="-2.473407000">
        <ele>496.10</ele>
        <time>2016-10-22T08:13:24Z</time>
      </trkpt>
      <trkpt lat="42.372004000" lon="-2.473387000">
        <ele>495.90</ele>
        <time>2016-10-22T08:13:25Z</time>
      </trkpt>
      <trkpt lat="42.372049000" lon="-2.473370000">
        <ele>495.80</ele>
        <time>2016-10-22T08:13:26Z</time>
      </trkpt>
      <trkpt lat="42.372095000" lon="-2.473350000">
        <ele>495.70</ele>
        <time>2016-10-22T08:13:27Z</time>
      </trkpt>
      <trkpt lat="42.372143000" lon="-2.473334000">
        <ele>495.60</ele>
        <time>2016-10-22T08:13:28Z</time>
      </trkpt>
      <trkpt lat="42.372190000" lon="-2.473318000">
        <ele>495.50</ele>
        <time>2016-10-22T08:13:29Z</time>
      </trkpt>
      <trkpt lat="42.372238000" lon="-2.473304000">
        <ele>495.50</ele>
        <time>2016-10-22T08:13:30Z</time>
      </trkpt>
      <trkpt lat="42.372288000" lon="-2.473287000">
        <ele>495.40</ele>
        <time>2016-10-22T08:13:31Z</time>
      </trkpt>
      <trkpt lat="42.372337000" lon="-2.473273000">
        <ele>495.40</ele>
        <time>2016-10-22T08:13:32Z</time>
      </trkpt>
      <trkpt lat="42.372389000" lon="-2.473260000">
        <ele>495.40</ele>
        <time>2016-10-22T08:13:33Z</time>
      </trkpt>
      <trkpt lat="42.372443000" lon="-2.473245000">
        <ele>495.30</ele>
        <time>2016-10-22T08:13:34Z</time>
      </trkpt>
      <trkpt lat="42.372554000" lon="-2.473216000">
        <ele>495.30</ele>
        <time>2016-10-22T08:13:36Z</time>
      </trkpt>
      <trkpt lat="42.372607000" lon="-2.473195000">
        <ele>495.30</ele>
        <time>2016-10-22T08:13:37Z</time>
      </trkpt>
      <trkpt lat="42.372660000" lon="-2.473169000">
        <ele>495.30</ele>
        <time>2016-10-22T08:13:38Z</time>
      </trkpt>
      <trkpt lat="42.372709000" lon="-2.473138000">
        <ele>495.30</ele>
        <time>2016-10-22T08:13:39Z</time>
      </trkpt>
      <trkpt lat="42.372764000" lon="-2.473112000">
        <ele>495.30</ele>
        <time>2016-10-22T08:13:40Z</time>
      </trkpt>
      <trkpt lat="42.372817000" lon="-2.473085000">
        <ele>495.30</ele>
        <time>2016-10-22T08:13:41Z</time>
      </trkpt>
      <trkpt lat="42.372870000" lon="-2.473054000">
        <ele>495.30</ele>
        <time>2016-10-22T08:13:42Z</time>
      </trkpt>
      <trkpt lat="42.372922000" lon="-2.473020000">
        <ele>495.30</ele>
        <time>2016-10-22T08:13:43Z</time>
      </trkpt>
      <trkpt lat="42.372974000" lon="-2.472986000">
        <ele>495.10</ele>
        <time>2016-10-22T08:13:44Z</time>
      </trkpt>
      <trkpt lat="42.373025000" lon="-2.472952000">
        <ele>495.00</ele>
        <time>2016-10-22T08:13:45Z</time>
      </trkpt>
      <trkpt lat="42.373078000" lon="-2.472918000">
        <ele>494.90</ele>
        <time>2016-10-22T08:13:46Z</time>
      </trkpt>
      <trkpt lat="42.373130000" lon="-2.472880000">
        <ele>494.80</ele>
        <time>2016-10-22T08:13:47Z</time>
      </trkpt>
      <trkpt lat="42.373181000" lon="-2.472837000">
        <ele>494.70</ele>
        <time>2016-10-22T08:13:48Z</time>
      </trkpt>
      <trkpt lat="42.373229000" lon="-2.472792000">
        <ele>494.70</ele>
        <time>2016-10-22T08:13:49Z</time>
      </trkpt>
      <trkpt lat="42.373276000" lon="-2.472745000">
        <ele>494.60</ele>
        <time>2016-10-22T08:13:50Z</time>
      </trkpt>
      <trkpt lat="42.373325000" lon="-2.472701000">
        <ele>494.60</ele>
        <time>2016-10-22T08:13:51Z</time>
      </trkpt>
      <trkpt lat="42.373376000" lon="-2.472663000">
        <ele>494.60</ele>
        <time>2016-10-22T08:13:52Z</time>
      </trkpt>
      <trkpt lat="42.373427000" lon="-2.472627000">
        <ele>494.50</ele>
        <time>2016-10-22T08:13:53Z</time>
      </trkpt>
      <trkpt lat="42.373479000" lon="-2.472595000">
        <ele>494.50</ele>
        <time>2016-10-22T08:13:54Z</time>
      </trkpt>
      <trkpt lat="42.373534000" lon="-2.472568000">
        <ele>494.50</ele>
        <time>2016-10-22T08:13:55Z</time>
      </trkpt>
      <trkpt lat="42.373587000" lon="-2.472543000">
        <ele>494.50</ele>
        <time>2016-10-22T08:13:56Z</time>
      </trkpt>
      <trkpt lat="42.373641000" lon="-2.472514000">
        <ele>494.40</ele>
        <time>2016-10-22T08:13:57Z</time>
      </trkpt>
      <trkpt lat="42.373695000" lon="-2.472491000">
        <ele>494.40</ele>
        <time>2016-10-22T08:13:58Z</time>
      </trkpt>
      <trkpt lat="42.373750000" lon="-2.472470000">
        <ele>494.40</ele>
        <time>2016-10-22T08:13:59Z</time>
      </trkpt>
      <trkpt lat="42.373803000" lon="-2.472447000">
        <ele>494.50</ele>
        <time>2016-10-22T08:14:00Z</time>
      </trkpt>
      <trkpt lat="42.373854000" lon="-2.472420000">
        <ele>494.60</ele>
        <time>2016-10-22T08:14:01Z</time>
      </trkpt>
      <trkpt lat="42.373911000" lon="-2.472390000">
        <ele>494.50</ele>
        <time>2016-10-22T08:14:02Z</time>
      </trkpt>
      <trkpt lat="42.373959000" lon="-2.472354000">
        <ele>494.40</ele>
        <time>2016-10-22T08:14:03Z</time>
      </trkpt>
      <trkpt lat="42.374007000" lon="-2.472315000">
        <ele>494.50</ele>
        <time>2016-10-22T08:14:04Z</time>
      </trkpt>
      <trkpt lat="42.374054000" lon="-2.472278000">
        <ele>494.50</ele>
        <time>2016-10-22T08:14:05Z</time>
      </trkpt>
      <trkpt lat="42.374102000" lon="-2.472240000">
        <ele>494.40</ele>
        <time>2016-10-22T08:14:06Z</time>
      </trkpt>
      <trkpt lat="42.374149000" lon="-2.472202000">
        <ele>494.20</ele>
        <time>2016-10-22T08:14:07Z</time>
      </trkpt>
      <trkpt lat="42.374196000" lon="-2.472164000">
        <ele>494.00</ele>
        <time>2016-10-22T08:14:08Z</time>
      </trkpt>
      <trkpt lat="42.374244000" lon="-2.472127000">
        <ele>493.80</ele>
        <time>2016-10-22T08:14:09Z</time>
      </trkpt>
      <trkpt lat="42.374290000" lon="-2.472089000">
        <ele>493.70</ele>
        <time>2016-10-22T08:14:10Z</time>
      </trkpt>
      <trkpt lat="42.374337000" lon="-2.472055000">
        <ele>493.50</ele>
        <time>2016-10-22T08:14:11Z</time>
      </trkpt>
      <trkpt lat="42.374387000" lon="-2.472017000">
        <ele>493.50</ele>
        <time>2016-10-22T08:14:12Z</time>
      </trkpt>
      <trkpt lat="42.374433000" lon="-2.471982000">
        <ele>493.40</ele>
        <time>2016-10-22T08:14:13Z</time>
      </trkpt>
      <trkpt lat="42.374476000" lon="-2.471944000">
        <ele>493.30</ele>
        <time>2016-10-22T08:14:14Z</time>
      </trkpt>
      <trkpt lat="42.374524000" lon="-2.471909000">
        <ele>493.30</ele>
        <time>2016-10-22T08:14:15Z</time>
      </trkpt>
      <trkpt lat="42.374570000" lon="-2.471873000">
        <ele>493.20</ele>
        <time>2016-10-22T08:14:16Z</time>
      </trkpt>
      <trkpt lat="42.374617000" lon="-2.471841000">
        <ele>493.10</ele>
        <time>2016-10-22T08:14:17Z</time>
      </trkpt>
      <trkpt lat="42.374663000" lon="-2.471802000">
        <ele>493.00</ele>
        <time>2016-10-22T08:14:18Z</time>
      </trkpt>
      <trkpt lat="42.374709000" lon="-2.471760000">
        <ele>493.00</ele>
        <time>2016-10-22T08:14:19Z</time>
      </trkpt>
      <trkpt lat="42.374753000" lon="-2.471719000">
        <ele>492.80</ele>
        <time>2016-10-22T08:14:20Z</time>
      </trkpt>
      <trkpt lat="42.374802000" lon="-2.471679000">
        <ele>492.70</ele>
        <time>2016-10-22T08:14:21Z</time>
      </trkpt>
      <trkpt lat="42.374850000" lon="-2.471637000">
        <ele>492.80</ele>
        <time>2016-10-22T08:14:22Z</time>
      </trkpt>
      <trkpt lat="42.374900000" lon="-2.471600000">
        <ele>492.80</ele>
        <time>2016-10-22T08:14:23Z</time>
      </trkpt>
      <trkpt lat="42.374952000" lon="-2.471562000">
        <ele>492.90</ele>
        <time>2016-10-22T08:14:24Z</time>
      </trkpt>
      <trkpt lat="42.375006000" lon="-2.471520000">
        <ele>492.90</ele>
        <time>2016-10-22T08:14:25Z</time>
      </trkpt>
      <trkpt lat="42.375058000" lon="-2.471479000">
        <ele>492.90</ele>
        <time>2016-10-22T08:14:26Z</time>
      </trkpt>
      <trkpt lat="42.375113000" lon="-2.471438000">
        <ele>492.90</ele>
        <time>2016-10-22T08:14:27Z</time>
      </trkpt>
      <trkpt lat="42.375167000" lon="-2.471391000">
        <ele>492.70</ele>
        <time>2016-10-22T08:14:28Z</time>
      </trkpt>
      <trkpt lat="42.375220000" lon="-2.471342000">
        <ele>492.50</ele>
        <time>2016-10-22T08:14:29Z</time>
      </trkpt>
      <trkpt lat="42.375273000" lon="-2.471291000">
        <ele>492.40</ele>
        <time>2016-10-22T08:14:30Z</time>
      </trkpt>
      <trkpt lat="42.375328000" lon="-2.471239000">
        <ele>492.20</ele>
        <time>2016-10-22T08:14:31Z</time>
      </trkpt>
      <trkpt lat="42.375380000" lon="-2.471187000">
        <ele>492.10</ele>
        <time>2016-10-22T08:14:32Z</time>
      </trkpt>
      <trkpt lat="42.375430000" lon="-2.471129000">
        <ele>492.00</ele>
        <time>2016-10-22T08:14:33Z</time>
      </trkpt>
      <trkpt lat="42.375479000" lon="-2.471070000">
        <ele>492.00</ele>
        <time>2016-10-22T08:14:34Z</time>
      </trkpt>
      <trkpt lat="42.375526000" lon="-2.471018000">
        <ele>491.90</ele>
        <time>2016-10-22T08:14:35Z</time>
      </trkpt>
      <trkpt lat="42.375623000" lon="-2.470910000">
        <ele>491.30</ele>
        <time>2016-10-22T08:14:37Z</time>
      </trkpt>
      <trkpt lat="42.375673000" lon="-2.470856000">
        <ele>491.10</ele>
        <time>2016-10-22T08:14:38Z</time>
      </trkpt>
      <trkpt lat="42.375723000" lon="-2.470800000">
        <ele>490.90</ele>
        <time>2016-10-22T08:14:39Z</time>
      </trkpt>
      <trkpt lat="42.375773000" lon="-2.470744000">
        <ele>490.80</ele>
        <time>2016-10-22T08:14:40Z</time>
      </trkpt>
      <trkpt lat="42.375824000" lon="-2.470686000">
        <ele>490.70</ele>
        <time>2016-10-22T08:14:41Z</time>
      </trkpt>
      <trkpt lat="42.375873000" lon="-2.470627000">
        <ele>490.80</ele>
        <time>2016-10-22T08:14:42Z</time>
      </trkpt>
      <trkpt lat="42.375924000" lon="-2.470568000">
        <ele>490.90</ele>
        <time>2016-10-22T08:14:43Z</time>
      </trkpt>
      <trkpt lat="42.375974000" lon="-2.470510000">
        <ele>490.80</ele>
        <time>2016-10-22T08:14:44Z</time>
      </trkpt>
      <trkpt lat="42.376024000" lon="-2.470454000">
        <ele>490.60</ele>
        <time>2016-10-22T08:14:45Z</time>
      </trkpt>
      <trkpt lat="42.376075000" lon="-2.470398000">
        <ele>490.60</ele>
        <time>2016-10-22T08:14:46Z</time>
      </trkpt>
      <trkpt lat="42.376127000" lon="-2.470341000">
        <ele>490.50</ele>
        <time>2016-10-22T08:14:47Z</time>
      </trkpt>
      <trkpt lat="42.376176000" lon="-2.470286000">
        <ele>490.50</ele>
        <time>2016-10-22T08:14:48Z</time>
      </trkpt>
      <trkpt lat="42.376225000" lon="-2.470232000">
        <ele>490.40</ele>
        <time>2016-10-22T08:14:49Z</time>
      </trkpt>
      <trkpt lat="42.376276000" lon="-2.470182000">
        <ele>490.30</ele>
        <time>2016-10-22T08:14:50Z</time>
      </trkpt>
      <trkpt lat="42.376329000" lon="-2.470135000">
        <ele>490.20</ele>
        <time>2016-10-22T08:14:51Z</time>
      </trkpt>
      <trkpt lat="42.376385000" lon="-2.470091000">
        <ele>490.10</ele>
        <time>2016-10-22T08:14:52Z</time>
      </trkpt>
      <trkpt lat="42.376447000" lon="-2.470058000">
        <ele>490.10</ele>
        <time>2016-10-22T08:14:53Z</time>
      </trkpt>
      <trkpt lat="42.376516000" lon="-2.470031000">
        <ele>490.00</ele>
        <time>2016-10-22T08:14:54Z</time>
      </trkpt>
      <trkpt lat="42.376583000" lon="-2.470009000">
        <ele>489.90</ele>
        <time>2016-10-22T08:14:55Z</time>
      </trkpt>
      <trkpt lat="42.376651000" lon="-2.469989000">
        <ele>489.80</ele>
        <time>2016-10-22T08:14:56Z</time>
      </trkpt>
      <trkpt lat="42.376720000" lon="-2.469969000">
        <ele>489.80</ele>
        <time>2016-10-22T08:14:57Z</time>
      </trkpt>
      <trkpt lat="42.376790000" lon="-2.469948000">
        <ele>489.60</ele>
        <time>2016-10-22T08:14:58Z</time>
      </trkpt>
      <trkpt lat="42.376860000" lon="-2.469923000">
        <ele>489.50</ele>
        <time>2016-10-22T08:14:59Z</time>
      </trkpt>
      <trkpt lat="42.376929000" lon="-2.469896000">
        <ele>489.30</ele>
        <time>2016-10-22T08:15:00Z</time>
      </trkpt>
      <trkpt lat="42.377000000" lon="-2.469865000">
        <ele>489.10</ele>
        <time>2016-10-22T08:15:01Z</time>
      </trkpt>
      <trkpt lat="42.377069000" lon="-2.469834000">
        <ele>489.00</ele>
        <time>2016-10-22T08:15:02Z</time>
      </trkpt>
      <trkpt lat="42.377137000" lon="-2.469804000">
        <ele>488.90</ele>
        <time>2016-10-22T08:15:03Z</time>
      </trkpt>
      <trkpt lat="42.377205000" lon="-2.469777000">
        <ele>488.70</ele>
        <time>2016-10-22T08:15:04Z</time>
      </trkpt>
      <trkpt lat="42.377274000" lon="-2.469757000">
        <ele>488.50</ele>
        <time>2016-10-22T08:15:05Z</time>
      </trkpt>
      <trkpt lat="42.377343000" lon="-2.469742000">
        <ele>488.40</ele>
        <time>2016-10-22T08:15:06Z</time>
      </trkpt>
      <trkpt lat="42.377412000" lon="-2.469736000">
        <ele>488.30</ele>
        <time>2016-10-22T08:15:07Z</time>
      </trkpt>
      <trkpt lat="42.377480000" lon="-2.469733000">
        <ele>488.20</ele>
        <time>2016-10-22T08:15:08Z</time>
      </trkpt>
      <trkpt lat="42.377546000" lon="-2.469732000">
        <ele>488.10</ele>
        <time>2016-10-22T08:15:09Z</time>
      </trkpt>
      <trkpt lat="42.377611000" lon="-2.469733000">
        <ele>487.80</ele>
        <time>2016-10-22T08:15:10Z</time>
      </trkpt>
      <trkpt lat="42.377677000" lon="-2.469731000">
        <ele>487.70</ele>
        <time>2016-10-22T08:15:11Z</time>
      </trkpt>
      <trkpt lat="42.377741000" lon="-2.469723000">
        <ele>487.50</ele>
        <time>2016-10-22T08:15:12Z</time>
      </trkpt>
      <trkpt lat="42.377807000" lon="-2.469711000">
        <ele>487.40</ele>
        <time>2016-10-22T08:15:13Z</time>
      </trkpt>
      <trkpt lat="42.377871000" lon="-2.469695000">
        <ele>487.30</ele>
        <time>2016-10-22T08:15:14Z</time>
      </trkpt>
      <trkpt lat="42.377933000" lon="-2.469674000">
        <ele>487.20</ele>
        <time>2016-10-22T08:15:15Z</time>
      </trkpt>
      <trkpt lat="42.377995000" lon="-2.469649000">
        <ele>487.30</ele>
        <time>2016-10-22T08:15:16Z</time>
      </trkpt>
      <trkpt lat="42.378057000" lon="-2.469616000">
        <ele>487.30</ele>
        <time>2016-10-22T08:15:17Z</time>
      </trkpt>
      <trkpt lat="42.378118000" lon="-2.469578000">
        <ele>487.40</ele>
        <time>2016-10-22T08:15:18Z</time>
      </trkpt>
      <trkpt lat="42.378179000" lon="-2.469540000">
        <ele>487.40</ele>
        <time>2016-10-22T08:15:19Z</time>
      </trkpt>
      <trkpt lat="42.378241000" lon="-2.469504000">
        <ele>487.10</ele>
        <time>2016-10-22T08:15:20Z</time>
      </trkpt>
      <trkpt lat="42.378303000" lon="-2.469465000">
        <ele>486.80</ele>
        <time>2016-10-22T08:15:21Z</time>
      </trkpt>
      <trkpt lat="42.378366000" lon="-2.469425000">
        <ele>486.70</ele>
        <time>2016-10-22T08:15:22Z</time>
      </trkpt>
      <trkpt lat="42.378428000" lon="-2.469386000">
        <ele>486.50</ele>
        <time>2016-10-22T08:15:23Z</time>
      </trkpt>
      <trkpt lat="42.378490000" lon="-2.469348000">
        <ele>486.50</ele>
        <time>2016-10-22T08:15:24Z</time>
      </trkpt>
      <trkpt lat="42.378553000" lon="-2.469311000">
        <ele>486.50</ele>
        <time>2016-10-22T08:15:25Z</time>
      </trkpt>
      <trkpt lat="42.378615000" lon="-2.469278000">
        <ele>486.50</ele>
        <time>2016-10-22T08:15:26Z</time>
      </trkpt>
      <trkpt lat="42.378676000" lon="-2.469247000">
        <ele>486.60</ele>
        <time>2016-10-22T08:15:27Z</time>
      </trkpt>
      <trkpt lat="42.378736000" lon="-2.469217000">
        <ele>486.60</ele>
        <time>2016-10-22T08:15:28Z</time>
      </trkpt>
      <trkpt lat="42.378797000" lon="-2.469184000">
        <ele>486.60</ele>
        <time>2016-10-22T08:15:29Z</time>
      </trkpt>
      <trkpt lat="42.378858000" lon="-2.469144000">
        <ele>486.60</ele>
        <time>2016-10-22T08:15:30Z</time>
      </trkpt>
      <trkpt lat="42.378916000" lon="-2.469097000">
        <ele>486.70</ele>
        <time>2016-10-22T08:15:31Z</time>
      </trkpt>
      <trkpt lat="42.378974000" lon="-2.469044000">
        <ele>486.60</ele>
        <time>2016-10-22T08:15:32Z</time>
      </trkpt>
      <trkpt lat="42.379031000" lon="-2.468988000">
        <ele>486.60</ele>
        <time>2016-10-22T08:15:33Z</time>
      </trkpt>
      <trkpt lat="42.379085000" lon="-2.468928000">
        <ele>486.30</ele>
        <time>2016-10-22T08:15:34Z</time>
      </trkpt>
      <trkpt lat="42.379140000" lon="-2.468868000">
        <ele>486.20</ele>
        <time>2016-10-22T08:15:35Z</time>
      </trkpt>
      <trkpt lat="42.379191000" lon="-2.468804000">
        <ele>485.90</ele>
        <time>2016-10-22T08:15:36Z</time>
      </trkpt>
      <trkpt lat="42.379288000" lon="-2.468668000">
        <ele>485.50</ele>
        <time>2016-10-22T08:15:38Z</time>
      </trkpt>
      <trkpt lat="42.379338000" lon="-2.468600000">
        <ele>485.40</ele>
        <time>2016-10-22T08:15:39Z</time>
      </trkpt>
      <trkpt lat="42.379384000" lon="-2.468531000">
        <ele>485.40</ele>
        <time>2016-10-22T08:15:40Z</time>
      </trkpt>
      <trkpt lat="42.379434000" lon="-2.468467000">
        <ele>485.30</ele>
        <time>2016-10-22T08:15:41Z</time>
      </trkpt>
      <trkpt lat="42.379485000" lon="-2.468406000">
        <ele>485.40</ele>
        <time>2016-10-22T08:15:42Z</time>
      </trkpt>
      <trkpt lat="42.379537000" lon="-2.468350000">
        <ele>485.40</ele>
        <time>2016-10-22T08:15:43Z</time>
      </trkpt>
      <trkpt lat="42.379591000" lon="-2.468298000">
        <ele>485.60</ele>
        <time>2016-10-22T08:15:44Z</time>
      </trkpt>
      <trkpt lat="42.379647000" lon="-2.468251000">
        <ele>485.80</ele>
        <time>2016-10-22T08:15:45Z</time>
      </trkpt>
      <trkpt lat="42.379703000" lon="-2.468208000">
        <ele>485.90</ele>
        <time>2016-10-22T08:15:46Z</time>
      </trkpt>
      <trkpt lat="42.379763000" lon="-2.468170000">
        <ele>485.90</ele>
        <time>2016-10-22T08:15:47Z</time>
      </trkpt>
      <trkpt lat="42.379824000" lon="-2.468131000">
        <ele>485.90</ele>
        <time>2016-10-22T08:15:48Z</time>
      </trkpt>
      <trkpt lat="42.379885000" lon="-2.468093000">
        <ele>485.80</ele>
        <time>2016-10-22T08:15:49Z</time>
      </trkpt>
      <trkpt lat="42.379948000" lon="-2.468055000">
        <ele>485.80</ele>
        <time>2016-10-22T08:15:50Z</time>
      </trkpt>
      <trkpt lat="42.380008000" lon="-2.468019000">
        <ele>485.70</ele>
        <time>2016-10-22T08:15:51Z</time>
      </trkpt>
      <trkpt lat="42.380072000" lon="-2.467980000">
        <ele>485.70</ele>
        <time>2016-10-22T08:15:52Z</time>
      </trkpt>
      <trkpt lat="42.380133000" lon="-2.467939000">
        <ele>485.70</ele>
        <time>2016-10-22T08:15:53Z</time>
      </trkpt>
      <trkpt lat="42.380194000" lon="-2.467902000">
        <ele>485.70</ele>
        <time>2016-10-22T08:15:54Z</time>
      </trkpt>
      <trkpt lat="42.380257000" lon="-2.467862000">
        <ele>485.70</ele>
        <time>2016-10-22T08:15:55Z</time>
      </trkpt>
      <trkpt lat="42.380319000" lon="-2.467825000">
        <ele>485.60</ele>
        <time>2016-10-22T08:15:56Z</time>
      </trkpt>
      <trkpt lat="42.380383000" lon="-2.467788000">
        <ele>485.60</ele>
        <time>2016-10-22T08:15:57Z</time>
      </trkpt>
      <trkpt lat="42.380447000" lon="-2.467749000">
        <ele>485.30</ele>
        <time>2016-10-22T08:15:58Z</time>
      </trkpt>
      <trkpt lat="42.380511000" lon="-2.467709000">
        <ele>485.10</ele>
        <time>2016-10-22T08:15:59Z</time>
      </trkpt>
      <trkpt lat="42.380575000" lon="-2.467672000">
        <ele>484.90</ele>
        <time>2016-10-22T08:16:00Z</time>
      </trkpt>
      <trkpt lat="42.380641000" lon="-2.467637000">
        <ele>484.80</ele>
        <time>2016-10-22T08:16:01Z</time>
      </trkpt>
      <trkpt lat="42.380707000" lon="-2.467605000">
        <ele>484.70</ele>
        <time>2016-10-22T08:16:02Z</time>
      </trkpt>
      <trkpt lat="42.380772000" lon="-2.467579000">
        <ele>484.60</ele>
        <time>2016-10-22T08:16:03Z</time>
      </trkpt>
      <trkpt lat="42.380839000" lon="-2.467551000">
        <ele>484.60</ele>
        <time>2016-10-22T08:16:04Z</time>
      </trkpt>
      <trkpt lat="42.380906000" lon="-2.467529000">
        <ele>484.50</ele>
        <time>2016-10-22T08:16:05Z</time>
      </trkpt>
      <trkpt lat="42.380973000" lon="-2.467503000">
        <ele>484.30</ele>
        <time>2016-10-22T08:16:06Z</time>
      </trkpt>
      <trkpt lat="42.381039000" lon="-2.467468000">
        <ele>484.10</ele>
        <time>2016-10-22T08:16:07Z</time>
      </trkpt>
      <trkpt lat="42.381106000" lon="-2.467434000">
        <ele>483.90</ele>
        <time>2016-10-22T08:16:08Z</time>
      </trkpt>
      <trkpt lat="42.381170000" lon="-2.467395000">
        <ele>483.80</ele>
        <time>2016-10-22T08:16:09Z</time>
      </trkpt>
      <trkpt lat="42.381232000" lon="-2.467356000">
        <ele>483.60</ele>
        <time>2016-10-22T08:16:10Z</time>
      </trkpt>
      <trkpt lat="42.381295000" lon="-2.467317000">
        <ele>483.40</ele>
        <time>2016-10-22T08:16:11Z</time>
      </trkpt>
      <trkpt lat="42.381354000" lon="-2.467277000">
        <ele>483.40</ele>
        <time>2016-10-22T08:16:12Z</time>
      </trkpt>
      <trkpt lat="42.381414000" lon="-2.467235000">
        <ele>483.40</ele>
        <time>2016-10-22T08:16:13Z</time>
      </trkpt>
      <trkpt lat="42.381471000" lon="-2.467190000">
        <ele>483.40</ele>
        <time>2016-10-22T08:16:14Z</time>
      </trkpt>
      <trkpt lat="42.381527000" lon="-2.467144000">
        <ele>483.40</ele>
        <time>2016-10-22T08:16:15Z</time>
      </trkpt>
      <trkpt lat="42.381581000" lon="-2.467086000">
        <ele>483.40</ele>
        <time>2016-10-22T08:16:16Z</time>
      </trkpt>
      <trkpt lat="42.381632000" lon="-2.467026000">
        <ele>483.40</ele>
        <time>2016-10-22T08:16:17Z</time>
      </trkpt>
      <trkpt lat="42.381684000" lon="-2.466965000">
        <ele>483.20</ele>
        <time>2016-10-22T08:16:18Z</time>
      </trkpt>
      <trkpt lat="42.381735000" lon="-2.466899000">
        <ele>483.10</ele>
        <time>2016-10-22T08:16:19Z</time>
      </trkpt>
      <trkpt lat="42.381789000" lon="-2.466833000">
        <ele>483.00</ele>
        <time>2016-10-22T08:16:20Z</time>
      </trkpt>
      <trkpt lat="42.381839000" lon="-2.466768000">
        <ele>482.90</ele>
        <time>2016-10-22T08:16:21Z</time>
      </trkpt>
      <trkpt lat="42.381889000" lon="-2.466703000">
        <ele>482.80</ele>
        <time>2016-10-22T08:16:22Z</time>
      </trkpt>
      <trkpt lat="42.381940000" lon="-2.466636000">
        <ele>482.80</ele>
        <time>2016-10-22T08:16:23Z</time>
      </trkpt>
      <trkpt lat="42.381993000" lon="-2.466572000">
        <ele>482.60</ele>
        <time>2016-10-22T08:16:24Z</time>
      </trkpt>
      <trkpt lat="42.382048000" lon="-2.466515000">
        <ele>482.40</ele>
        <time>2016-10-22T08:16:25Z</time>
      </trkpt>
      <trkpt lat="42.382105000" lon="-2.466456000">
        <ele>482.20</ele>
        <time>2016-10-22T08:16:26Z</time>
      </trkpt>
      <trkpt lat="42.382160000" lon="-2.466402000">
        <ele>482.00</ele>
        <time>2016-10-22T08:16:27Z</time>
      </trkpt>
      <trkpt lat="42.382214000" lon="-2.466350000">
        <ele>482.00</ele>
        <time>2016-10-22T08:16:28Z</time>
      </trkpt>
      <trkpt lat="42.382266000" lon="-2.466292000">
        <ele>482.00</ele>
        <time>2016-10-22T08:16:29Z</time>
      </trkpt>
      <trkpt lat="42.382318000" lon="-2.466237000">
        <ele>482.00</ele>
        <time>2016-10-22T08:16:30Z</time>
      </trkpt>
      <trkpt lat="42.382370000" lon="-2.466182000">
        <ele>482.00</ele>
        <time>2016-10-22T08:16:31Z</time>
      </trkpt>
      <trkpt lat="42.382427000" lon="-2.466133000">
        <ele>482.10</ele>
        <time>2016-10-22T08:16:32Z</time>
      </trkpt>
      <trkpt lat="42.382492000" lon="-2.466096000">
        <ele>482.10</ele>
        <time>2016-10-22T08:16:33Z</time>
      </trkpt>
      <trkpt lat="42.382557000" lon="-2.466063000">
        <ele>482.10</ele>
        <time>2016-10-22T08:16:34Z</time>
      </trkpt>
      <trkpt lat="42.382623000" lon="-2.466036000">
        <ele>482.10</ele>
        <time>2016-10-22T08:16:35Z</time>
      </trkpt>
      <trkpt lat="42.382691000" lon="-2.466010000">
        <ele>482.10</ele>
        <time>2016-10-22T08:16:36Z</time>
      </trkpt>
      <trkpt lat="42.382760000" lon="-2.465988000">
        <ele>482.10</ele>
        <time>2016-10-22T08:16:37Z</time>
      </trkpt>
      <trkpt lat="42.382899000" lon="-2.465938000">
        <ele>481.70</ele>
        <time>2016-10-22T08:16:39Z</time>
      </trkpt>
      <trkpt lat="42.382966000" lon="-2.465902000">
        <ele>481.50</ele>
        <time>2016-10-22T08:16:40Z</time>
      </trkpt>
      <trkpt lat="42.383031000" lon="-2.465862000">
        <ele>481.40</ele>
        <time>2016-10-22T08:16:41Z</time>
      </trkpt>
      <trkpt lat="42.383090000" lon="-2.465815000">
        <ele>481.30</ele>
        <time>2016-10-22T08:16:42Z</time>
      </trkpt>
      <trkpt lat="42.383145000" lon="-2.465763000">
        <ele>481.30</ele>
        <time>2016-10-22T08:16:43Z</time>
      </trkpt>
      <trkpt lat="42.383194000" lon="-2.465708000">
        <ele>481.30</ele>
        <time>2016-10-22T08:16:44Z</time>
      </trkpt>
      <trkpt lat="42.383241000" lon="-2.465651000">
        <ele>481.30</ele>
        <time>2016-10-22T08:16:45Z</time>
      </trkpt>
      <trkpt lat="42.383286000" lon="-2.465604000">
        <ele>481.20</ele>
        <time>2016-10-22T08:16:46Z</time>
      </trkpt>
      <trkpt lat="42.383324000" lon="-2.465558000">
        <ele>481.10</ele>
        <time>2016-10-22T08:16:47Z</time>
      </trkpt>
      <trkpt lat="42.383353000" lon="-2.465504000">
        <ele>481.00</ele>
        <time>2016-10-22T08:16:48Z</time>
      </trkpt>
      <trkpt lat="42.383367000" lon="-2.465442000">
        <ele>480.90</ele>
        <time>2016-10-22T08:16:49Z</time>
      </trkpt>
      <trkpt lat="42.383371000" lon="-2.465376000">
        <ele>480.80</ele>
        <time>2016-10-22T08:16:50Z</time>
      </trkpt>
      <trkpt lat="42.383375000" lon="-2.465306000">
        <ele>480.70</ele>
        <time>2016-10-22T08:16:51Z</time>
      </trkpt>
      <trkpt lat="42.383386000" lon="-2.465231000">
        <ele>480.70</ele>
        <time>2016-10-22T08:16:52Z</time>
      </trkpt>
      <trkpt lat="42.383415000" lon="-2.465163000">
        <ele>480.70</ele>
        <time>2016-10-22T08:16:53Z</time>
      </trkpt>
      <trkpt lat="42.383460000" lon="-2.465106000">
        <ele>480.50</ele>
        <time>2016-10-22T08:16:54Z</time>
      </trkpt>
      <trkpt lat="42.383508000" lon="-2.465055000">
        <ele>480.40</ele>
        <time>2016-10-22T08:16:55Z</time>
      </trkpt>
      <trkpt lat="42.383560000" lon="-2.465004000">
        <ele>480.30</ele>
        <time>2016-10-22T08:16:56Z</time>
      </trkpt>
      <trkpt lat="42.383614000" lon="-2.464954000">
        <ele>480.20</ele>
        <time>2016-10-22T08:16:57Z</time>
      </trkpt>
      <trkpt lat="42.383667000" lon="-2.464908000">
        <ele>480.10</ele>
        <time>2016-10-22T08:16:58Z</time>
      </trkpt>
      <trkpt lat="42.383717000" lon="-2.464862000">
        <ele>480.00</ele>
        <time>2016-10-22T08:16:59Z</time>
      </trkpt>
      <trkpt lat="42.383768000" lon="-2.464811000">
        <ele>479.70</ele>
        <time>2016-10-22T08:17:00Z</time>
      </trkpt>
      <trkpt lat="42.383819000" lon="-2.464762000">
        <ele>479.40</ele>
        <time>2016-10-22T08:17:01Z</time>
      </trkpt>
      <trkpt lat="42.383870000" lon="-2.464717000">
        <ele>479.20</ele>
        <time>2016-10-22T08:17:02Z</time>
      </trkpt>
      <trkpt lat="42.383922000" lon="-2.464671000">
        <ele>479.10</ele>
        <time>2016-10-22T08:17:03Z</time>
      </trkpt>
      <trkpt lat="42.383979000" lon="-2.464629000">
        <ele>479.00</ele>
        <time>2016-10-22T08:17:04Z</time>
      </trkpt>
      <trkpt lat="42.384036000" lon="-2.464591000">
        <ele>478.90</ele>
        <time>2016-10-22T08:17:05Z</time>
      </trkpt>
      <trkpt lat="42.384097000" lon="-2.464559000">
        <ele>478.90</ele>
        <time>2016-10-22T08:17:06Z</time>
      </trkpt>
      <trkpt lat="42.384159000" lon="-2.464533000">
        <ele>478.90</ele>
        <time>2016-10-22T08:17:07Z</time>
      </trkpt>
      <trkpt lat="42.384227000" lon="-2.464509000">
        <ele>479.00</ele>
        <time>2016-10-22T08:17:08Z</time>
      </trkpt>
      <trkpt lat="42.384293000" lon="-2.464494000">
        <ele>479.00</ele>
        <time>2016-10-22T08:17:09Z</time>
      </trkpt>
      <trkpt lat="42.384358000" lon="-2.464482000">
        <ele>479.10</ele>
        <time>2016-10-22T08:17:10Z</time>
      </trkpt>
      <trkpt lat="42.384424000" lon="-2.464475000">
        <ele>479.20</ele>
        <time>2016-10-22T08:17:11Z</time>
      </trkpt>
      <trkpt lat="42.384490000" lon="-2.464467000">
        <ele>479.20</ele>
        <time>2016-10-22T08:17:12Z</time>
      </trkpt>
      <trkpt lat="42.384555000" lon="-2.464460000">
        <ele>479.30</ele>
        <time>2016-10-22T08:17:13Z</time>
      </trkpt>
      <trkpt lat="42.384618000" lon="-2.464461000">
        <ele>479.30</ele>
        <time>2016-10-22T08:17:14Z</time>
      </trkpt>
      <trkpt lat="42.384682000" lon="-2.464464000">
        <ele>479.30</ele>
        <time>2016-10-22T08:17:15Z</time>
      </trkpt>
      <trkpt lat="42.384748000" lon="-2.464475000">
        <ele>479.40</ele>
        <time>2016-10-22T08:17:16Z</time>
      </trkpt>
      <trkpt lat="42.384815000" lon="-2.464494000">
        <ele>479.40</ele>
        <time>2016-10-22T08:17:17Z</time>
      </trkpt>
      <trkpt lat="42.384879000" lon="-2.464521000">
        <ele>479.10</ele>
        <time>2016-10-22T08:17:18Z</time>
      </trkpt>
      <trkpt lat="42.384941000" lon="-2.464545000">
        <ele>478.90</ele>
        <time>2016-10-22T08:17:19Z</time>
      </trkpt>
      <trkpt lat="42.385004000" lon="-2.464568000">
        <ele>478.70</ele>
        <time>2016-10-22T08:17:20Z</time>
      </trkpt>
      <trkpt lat="42.385070000" lon="-2.464593000">
        <ele>478.60</ele>
        <time>2016-10-22T08:17:21Z</time>
      </trkpt>
      <trkpt lat="42.385135000" lon="-2.464616000">
        <ele>478.50</ele>
        <time>2016-10-22T08:17:22Z</time>
      </trkpt>
      <trkpt lat="42.385200000" lon="-2.464638000">
        <ele>478.40</ele>
        <time>2016-10-22T08:17:23Z</time>
      </trkpt>
      <trkpt lat="42.385262000" lon="-2.464664000">
        <ele>478.20</ele>
        <time>2016-10-22T08:17:24Z</time>
      </trkpt>
      <trkpt lat="42.385323000" lon="-2.464693000">
        <ele>478.00</ele>
        <time>2016-10-22T08:17:25Z</time>
      </trkpt>
      <trkpt lat="42.385385000" lon="-2.464718000">
        <ele>478.20</ele>
        <time>2016-10-22T08:17:26Z</time>
      </trkpt>
      <trkpt lat="42.385447000" lon="-2.464741000">
        <ele>478.30</ele>
        <time>2016-10-22T08:17:27Z</time>
      </trkpt>
      <trkpt lat="42.385511000" lon="-2.464760000">
        <ele>478.20</ele>
        <time>2016-10-22T08:17:28Z</time>
      </trkpt>
      <trkpt lat="42.385576000" lon="-2.464778000">
        <ele>478.10</ele>
        <time>2016-10-22T08:17:29Z</time>
      </trkpt>
      <trkpt lat="42.385641000" lon="-2.464792000">
        <ele>478.00</ele>
        <time>2016-10-22T08:17:30Z</time>
      </trkpt>
      <trkpt lat="42.385706000" lon="-2.464802000">
        <ele>478.00</ele>
        <time>2016-10-22T08:17:31Z</time>
      </trkpt>
      <trkpt lat="42.385776000" lon="-2.464810000">
        <ele>478.00</ele>
        <time>2016-10-22T08:17:32Z</time>
      </trkpt>
      <trkpt lat="42.385842000" lon="-2.464814000">
        <ele>477.90</ele>
        <time>2016-10-22T08:17:33Z</time>
      </trkpt>
      <trkpt lat="42.385908000" lon="-2.464818000">
        <ele>477.70</ele>
        <time>2016-10-22T08:17:34Z</time>
      </trkpt>
      <trkpt lat="42.385975000" lon="-2.464816000">
        <ele>477.50</ele>
        <time>2016-10-22T08:17:35Z</time>
      </trkpt>
      <trkpt lat="42.386040000" lon="-2.464815000">
        <ele>477.20</ele>
        <time>2016-10-22T08:17:36Z</time>
      </trkpt>
      <trkpt lat="42.386103000" lon="-2.464817000">
        <ele>477.00</ele>
        <time>2016-10-22T08:17:37Z</time>
      </trkpt>
      <trkpt lat="42.386165000" lon="-2.464819000">
        <ele>476.80</ele>
        <time>2016-10-22T08:17:38Z</time>
      </trkpt>
      <trkpt lat="42.386291000" lon="-2.464822000">
        <ele>476.60</ele>
        <time>2016-10-22T08:17:40Z</time>
      </trkpt>
      <trkpt lat="42.386350000" lon="-2.464824000">
        <ele>476.50</ele>
        <time>2016-10-22T08:17:41Z</time>
      </trkpt>
      <trkpt lat="42.386410000" lon="-2.464825000">
        <ele>476.40</ele>
        <time>2016-10-22T08:17:42Z</time>
      </trkpt>
      <trkpt lat="42.386471000" lon="-2.464827000">
        <ele>476.40</ele>
        <time>2016-10-22T08:17:43Z</time>
      </trkpt>
      <trkpt lat="42.386535000" lon="-2.464828000">
        <ele>476.40</ele>
        <time>2016-10-22T08:17:44Z</time>
      </trkpt>
      <trkpt lat="42.386597000" lon="-2.464828000">
        <ele>476.30</ele>
        <time>2016-10-22T08:17:45Z</time>
      </trkpt>
      <trkpt lat="42.386663000" lon="-2.464831000">
        <ele>476.30</ele>
        <time>2016-10-22T08:17:46Z</time>
      </trkpt>
      <trkpt lat="42.386728000" lon="-2.464832000">
        <ele>476.30</ele>
        <time>2016-10-22T08:17:47Z</time>
      </trkpt>
      <trkpt lat="42.386793000" lon="-2.464834000">
        <ele>476.30</ele>
        <time>2016-10-22T08:17:48Z</time>
      </trkpt>
      <trkpt lat="42.386859000" lon="-2.464838000">
        <ele>476.30</ele>
        <time>2016-10-22T08:17:49Z</time>
      </trkpt>
      <trkpt lat="42.386925000" lon="-2.464837000">
        <ele>476.20</ele>
        <time>2016-10-22T08:17:50Z</time>
      </trkpt>
      <trkpt lat="42.386992000" lon="-2.464835000">
        <ele>476.10</ele>
        <time>2016-10-22T08:17:51Z</time>
      </trkpt>
      <trkpt lat="42.387060000" lon="-2.464830000">
        <ele>476.00</ele>
        <time>2016-10-22T08:17:52Z</time>
      </trkpt>
      <trkpt lat="42.387126000" lon="-2.464826000">
        <ele>475.90</ele>
        <time>2016-10-22T08:17:53Z</time>
      </trkpt>
      <trkpt lat="42.387193000" lon="-2.464819000">
        <ele>475.90</ele>
        <time>2016-10-22T08:17:54Z</time>
      </trkpt>
      <trkpt lat="42.387259000" lon="-2.464813000">
        <ele>475.80</ele>
        <time>2016-10-22T08:17:55Z</time>
      </trkpt>
      <trkpt lat="42.387323000" lon="-2.464808000">
        <ele>475.90</ele>
        <time>2016-10-22T08:17:56Z</time>
      </trkpt>
      <trkpt lat="42.387384000" lon="-2.464808000">
        <ele>475.90</ele>
        <time>2016-10-22T08:17:57Z</time>
      </trkpt>
      <trkpt lat="42.387440000" lon="-2.464807000">
        <ele>475.80</ele>
        <time>2016-10-22T08:17:58Z</time>
      </trkpt>
      <trkpt lat="42.387494000" lon="-2.464804000">
        <ele>475.70</ele>
        <time>2016-10-22T08:17:59Z</time>
      </trkpt>
      <trkpt lat="42.387549000" lon="-2.464803000">
        <ele>475.50</ele>
        <time>2016-10-22T08:18:00Z</time>
      </trkpt>
      <trkpt lat="42.387599000" lon="-2.464781000">
        <ele>475.40</ele>
        <time>2016-10-22T08:18:01Z</time>
      </trkpt>
      <trkpt lat="42.387638000" lon="-2.464744000">
        <ele>475.30</ele>
        <time>2016-10-22T08:18:02Z</time>
      </trkpt>
      <trkpt lat="42.387673000" lon="-2.464698000">
        <ele>475.20</ele>
        <time>2016-10-22T08:18:03Z</time>
      </trkpt>
      <trkpt lat="42.387706000" lon="-2.464642000">
        <ele>475.00</ele>
        <time>2016-10-22T08:18:04Z</time>
      </trkpt>
      <trkpt lat="42.387744000" lon="-2.464590000">
        <ele>474.90</ele>
        <time>2016-10-22T08:18:05Z</time>
      </trkpt>
      <trkpt lat="42.387782000" lon="-2.464541000">
        <ele>474.80</ele>
        <time>2016-10-22T08:18:06Z</time>
      </trkpt>
      <trkpt lat="42.387823000" lon="-2.464494000">
        <ele>474.70</ele>
        <time>2016-10-22T08:18:07Z</time>
      </trkpt>
      <trkpt lat="42.387866000" lon="-2.464448000">
        <ele>474.60</ele>
        <time>2016-10-22T08:18:08Z</time>
      </trkpt>
      <trkpt lat="42.387910000" lon="-2.464400000">
        <ele>474.60</ele>
        <time>2016-10-22T08:18:09Z</time>
      </trkpt>
      <trkpt lat="42.387955000" lon="-2.464356000">
        <ele>474.40</ele>
        <time>2016-10-22T08:18:10Z</time>
      </trkpt>
      <trkpt lat="42.387999000" lon="-2.464312000">
        <ele>474.30</ele>
        <time>2016-10-22T08:18:11Z</time>
      </trkpt>
      <trkpt lat="42.388047000" lon="-2.464276000">
        <ele>474.20</ele>
        <time>2016-10-22T08:18:12Z</time>
      </trkpt>
      <trkpt lat="42.388097000" lon="-2.464241000">
        <ele>474.10</ele>
        <time>2016-10-22T08:18:13Z</time>
      </trkpt>
      <trkpt lat="42.388148000" lon="-2.464212000">
        <ele>474.10</ele>
        <time>2016-10-22T08:18:14Z</time>
      </trkpt>
      <trkpt lat="42.388200000" lon="-2.464180000">
        <ele>474.00</ele>
        <time>2016-10-22T08:18:15Z</time>
      </trkpt>
      <trkpt lat="42.388251000" lon="-2.464145000">
        <ele>474.00</ele>
        <time>2016-10-22T08:18:16Z</time>
      </trkpt>
      <trkpt lat="42.388297000" lon="-2.464104000">
        <ele>474.00</ele>
        <time>2016-10-22T08:18:17Z</time>
      </trkpt>
      <trkpt lat="42.388335000" lon="-2.464062000">
        <ele>474.00</ele>
        <time>2016-10-22T08:18:18Z</time>
      </trkpt>
      <trkpt lat="42.388371000" lon="-2.464014000">
        <ele>473.90</ele>
        <time>2016-10-22T08:18:19Z</time>
      </trkpt>
      <trkpt lat="42.388402000" lon="-2.463960000">
        <ele>473.90</ele>
        <time>2016-10-22T08:18:20Z</time>
      </trkpt>
      <trkpt lat="42.388430000" lon="-2.463901000">
        <ele>473.90</ele>
        <time>2016-10-22T08:18:21Z</time>
      </trkpt>
      <trkpt lat="42.388458000" lon="-2.463843000">
        <ele>473.90</ele>
        <time>2016-10-22T08:18:22Z</time>
      </trkpt>
      <trkpt lat="42.388483000" lon="-2.463782000">
        <ele>473.80</ele>
        <time>2016-10-22T08:18:23Z</time>
      </trkpt>
      <trkpt lat="42.388511000" lon="-2.463730000">
        <ele>473.60</ele>
        <time>2016-10-22T08:18:24Z</time>
      </trkpt>
      <trkpt lat="42.388553000" lon="-2.463693000">
        <ele>473.40</ele>
        <time>2016-10-22T08:18:25Z</time>
      </trkpt>
      <trkpt lat="42.388604000" lon="-2.463662000">
        <ele>473.30</ele>
        <time>2016-10-22T08:18:26Z</time>
      </trkpt>
      <trkpt lat="42.388657000" lon="-2.463634000">
        <ele>473.20</ele>
        <time>2016-10-22T08:18:27Z</time>
      </trkpt>
      <trkpt lat="42.388713000" lon="-2.463604000">
        <ele>473.10</ele>
        <time>2016-10-22T08:18:28Z</time>
      </trkpt>
      <trkpt lat="42.388768000" lon="-2.463577000">
        <ele>473.00</ele>
        <time>2016-10-22T08:18:29Z</time>
      </trkpt>
      <trkpt lat="42.388823000" lon="-2.463551000">
        <ele>473.00</ele>
        <time>2016-10-22T08:18:30Z</time>
      </trkpt>
      <trkpt lat="42.388877000" lon="-2.463523000">
        <ele>473.00</ele>
        <time>2016-10-22T08:18:31Z</time>
      </trkpt>
      <trkpt lat="42.388931000" lon="-2.463495000">
        <ele>472.90</ele>
        <time>2016-10-22T08:18:32Z</time>
      </trkpt>
      <trkpt lat="42.388983000" lon="-2.463466000">
        <ele>472.90</ele>
        <time>2016-10-22T08:18:33Z</time>
      </trkpt>
      <trkpt lat="42.389025000" lon="-2.463437000">
        <ele>472.80</ele>
        <time>2016-10-22T08:18:34Z</time>
      </trkpt>
      <trkpt lat="42.389055000" lon="-2.463412000">
        <ele>472.70</ele>
        <time>2016-10-22T08:18:35Z</time>
      </trkpt>
      <trkpt lat="42.389075000" lon="-2.463391000">
        <ele>472.60</ele>
        <time>2016-10-22T08:18:36Z</time>
      </trkpt>
      <trkpt lat="42.389099000" lon="-2.463378000">
        <ele>472.50</ele>
        <time>2016-10-22T08:18:37Z</time>
      </trkpt>
      <trkpt lat="42.389131000" lon="-2.463373000">
        <ele>472.80</ele>
        <time>2016-10-22T08:18:38Z</time>
      </trkpt>
      <trkpt lat="42.389161000" lon="-2.463382000">
        <ele>472.90</ele>
        <time>2016-10-22T08:18:39Z</time>
      </trkpt>
      <trkpt lat="42.389221000" lon="-2.463425000">
        <ele>473.20</ele>
        <time>2016-10-22T08:18:41Z</time>
      </trkpt>
      <trkpt lat="42.389252000" lon="-2.463449000">
        <ele>473.10</ele>
        <time>2016-10-22T08:18:42Z</time>
      </trkpt>
      <trkpt lat="42.389282000" lon="-2.463470000">
        <ele>473.10</ele>
        <time>2016-10-22T08:18:43Z</time>
      </trkpt>
      <trkpt lat="42.389313000" lon="-2.463489000">
        <ele>473.00</ele>
        <time>2016-10-22T08:18:44Z</time>
      </trkpt>
      <trkpt lat="42.389342000" lon="-2.463507000">
        <ele>472.90</ele>
        <time>2016-10-22T08:18:45Z</time>
      </trkpt>
      <trkpt lat="42.389371000" lon="-2.463527000">
        <ele>472.60</ele>
        <time>2016-10-22T08:18:46Z</time>
      </trkpt>
      <trkpt lat="42.389400000" lon="-2.463549000">
        <ele>472.40</ele>
        <time>2016-10-22T08:18:47Z</time>
      </trkpt>
      <trkpt lat="42.389429000" lon="-2.463572000">
        <ele>472.20</ele>
        <time>2016-10-22T08:18:48Z</time>
      </trkpt>
      <trkpt lat="42.389457000" lon="-2.463596000">
        <ele>472.00</ele>
        <time>2016-10-22T08:18:49Z</time>
      </trkpt>
      <trkpt lat="42.389487000" lon="-2.463620000">
        <ele>471.90</ele>
        <time>2016-10-22T08:18:50Z</time>
      </trkpt>
      <trkpt lat="42.389518000" lon="-2.463645000">
        <ele>471.80</ele>
        <time>2016-10-22T08:18:51Z</time>
      </trkpt>
      <trkpt lat="42.389548000" lon="-2.463667000">
        <ele>471.70</ele>
        <time>2016-10-22T08:18:52Z</time>
      </trkpt>
      <trkpt lat="42.389578000" lon="-2.463685000">
        <ele>471.60</ele>
        <time>2016-10-22T08:18:53Z</time>
      </trkpt>
      <trkpt lat="42.389609000" lon="-2.463700000">
        <ele>471.60</ele>
        <time>2016-10-22T08:18:54Z</time>
      </trkpt>
      <trkpt lat="42.389637000" lon="-2.463719000">
        <ele>471.60</ele>
        <time>2016-10-22T08:18:55Z</time>
      </trkpt>
      <trkpt lat="42.389655000" lon="-2.463756000">
        <ele>471.50</ele>
        <time>2016-10-22T08:18:56Z</time>
      </trkpt>
      <trkpt lat="42.389669000" lon="-2.463798000">
        <ele>471.40</ele>
        <time>2016-10-22T08:18:57Z</time>
      </trkpt>
      <trkpt lat="42.389680000" lon="-2.463847000">
        <ele>471.50</ele>
        <time>2016-10-22T08:18:58Z</time>
      </trkpt>
      <trkpt lat="42.389687000" lon="-2.463901000">
        <ele>471.70</ele>
        <time>2016-10-22T08:18:59Z</time>
      </trkpt>
      <trkpt lat="42.389687000" lon="-2.463959000">
        <ele>471.70</ele>
        <time>2016-10-22T08:19:00Z</time>
      </trkpt>
      <trkpt lat="42.389686000" lon="-2.464019000">
        <ele>471.80</ele>
        <time>2016-10-22T08:19:01Z</time>
      </trkpt>
      <trkpt lat="42.389690000" lon="-2.464082000">
        <ele>471.80</ele>
        <time>2016-10-22T08:19:02Z</time>
      </trkpt>
      <trkpt lat="42.389695000" lon="-2.464142000">
        <ele>471.90</ele>
        <time>2016-10-22T08:19:03Z</time>
      </trkpt>
      <trkpt lat="42.389700000" lon="-2.464203000">
        <ele>471.90</ele>
        <time>2016-10-22T08:19:04Z</time>
      </trkpt>
      <trkpt lat="42.389706000" lon="-2.464266000">
        <ele>471.90</ele>
        <time>2016-10-22T08:19:05Z</time>
      </trkpt>
      <trkpt lat="42.389713000" lon="-2.464328000">
        <ele>471.90</ele>
        <time>2016-10-22T08:19:06Z</time>
      </trkpt>
      <trkpt lat="42.389724000" lon="-2.464391000">
        <ele>472.00</ele>
        <time>2016-10-22T08:19:07Z</time>
      </trkpt>
      <trkpt lat="42.389740000" lon="-2.464450000">
        <ele>472.00</ele>
        <time>2016-10-22T08:19:08Z</time>
      </trkpt>
      <trkpt lat="42.389767000" lon="-2.464498000">
        <ele>472.00</ele>
        <time>2016-10-22T08:19:09Z</time>
      </trkpt>
      <trkpt lat="42.389801000" lon="-2.464530000">
        <ele>472.00</ele>
        <time>2016-10-22T08:19:10Z</time>
      </trkpt>
      <trkpt lat="42.389843000" lon="-2.464539000">
        <ele>472.10</ele>
        <time>2016-10-22T08:19:11Z</time>
      </trkpt>
      <trkpt lat="42.389886000" lon="-2.464544000">
        <ele>472.10</ele>
        <time>2016-10-22T08:19:12Z</time>
      </trkpt>
      <trkpt lat="42.389929000" lon="-2.464547000">
        <ele>472.20</ele>
        <time>2016-10-22T08:19:13Z</time>
      </trkpt>
      <trkpt lat="42.389973000" lon="-2.464542000">
        <ele>472.30</ele>
        <time>2016-10-22T08:19:14Z</time>
      </trkpt>
      <trkpt lat="42.390018000" lon="-2.464530000">
        <ele>472.40</ele>
        <time>2016-10-22T08:19:15Z</time>
      </trkpt>
      <trkpt lat="42.390062000" lon="-2.464511000">
        <ele>472.50</ele>
        <time>2016-10-22T08:19:16Z</time>
      </trkpt>
      <trkpt lat="42.390107000" lon="-2.464491000">
        <ele>472.50</ele>
        <time>2016-10-22T08:19:17Z</time>
      </trkpt>
      <trkpt lat="42.390150000" lon="-2.464474000">
        <ele>472.60</ele>
        <time>2016-10-22T08:19:18Z</time>
      </trkpt>
      <trkpt lat="42.390198000" lon="-2.464463000">
        <ele>472.60</ele>
        <time>2016-10-22T08:19:19Z</time>
      </trkpt>
      <trkpt lat="42.390247000" lon="-2.464455000">
        <ele>472.50</ele>
        <time>2016-10-22T08:19:20Z</time>
      </trkpt>
      <trkpt lat="42.390294000" lon="-2.464443000">
        <ele>472.40</ele>
        <time>2016-10-22T08:19:21Z</time>
      </trkpt>
      <trkpt lat="42.390343000" lon="-2.464430000">
        <ele>472.30</ele>
        <time>2016-10-22T08:19:22Z</time>
      </trkpt>
      <trkpt lat="42.390394000" lon="-2.464418000">
        <ele>472.10</ele>
        <time>2016-10-22T08:19:23Z</time>
      </trkpt>
      <trkpt lat="42.390444000" lon="-2.464396000">
        <ele>472.10</ele>
        <time>2016-10-22T08:19:24Z</time>
      </trkpt>
      <trkpt lat="42.390489000" lon="-2.464363000">
        <ele>472.00</ele>
        <time>2016-10-22T08:19:25Z</time>
      </trkpt>
      <trkpt lat="42.390533000" lon="-2.464325000">
        <ele>472.00</ele>
        <time>2016-10-22T08:19:26Z</time>
      </trkpt>
      <trkpt lat="42.390576000" lon="-2.464285000">
        <ele>471.90</ele>
        <time>2016-10-22T08:19:27Z</time>
      </trkpt>
      <trkpt lat="42.390621000" lon="-2.464250000">
        <ele>471.90</ele>
        <time>2016-10-22T08:19:28Z</time>
      </trkpt>
      <trkpt lat="42.390665000" lon="-2.464215000">
        <ele>471.90</ele>
        <time>2016-10-22T08:19:29Z</time>
      </trkpt>
      <trkpt lat="42.390709000" lon="-2.464179000">
        <ele>471.70</ele>
        <time>2016-10-22T08:19:30Z</time>
      </trkpt>
      <trkpt lat="42.390755000" lon="-2.464141000">
        <ele>471.60</ele>
        <time>2016-10-22T08:19:31Z</time>
      </trkpt>
      <trkpt lat="42.390800000" lon="-2.464100000">
        <ele>471.50</ele>
        <time>2016-10-22T08:19:32Z</time>
      </trkpt>
      <trkpt lat="42.390848000" lon="-2.464060000">
        <ele>471.50</ele>
        <time>2016-10-22T08:19:33Z</time>
      </trkpt>
      <trkpt lat="42.390896000" lon="-2.464014000">
        <ele>471.40</ele>
        <time>2016-10-22T08:19:34Z</time>
      </trkpt>
      <trkpt lat="42.390942000" lon="-2.463967000">
        <ele>471.30</ele>
        <time>2016-10-22T08:19:35Z</time>
      </trkpt>
      <trkpt lat="42.390987000" lon="-2.463922000">
        <ele>471.20</ele>
        <time>2016-10-22T08:19:36Z</time>
      </trkpt>
      <trkpt lat="42.391033000" lon="-2.463873000">
        <ele>471.10</ele>
        <time>2016-10-22T08:19:37Z</time>
      </trkpt>
      <trkpt lat="42.391075000" lon="-2.463826000">
        <ele>471.10</ele>
        <time>2016-10-22T08:19:38Z</time>
      </trkpt>
      <trkpt lat="42.391117000" lon="-2.463783000">
        <ele>471.00</ele>
        <time>2016-10-22T08:19:39Z</time>
      </trkpt>
      <trkpt lat="42.391159000" lon="-2.463741000">
        <ele>470.80</ele>
        <time>2016-10-22T08:19:40Z</time>
      </trkpt>
      <trkpt lat="42.391253000" lon="-2.463670000">
        <ele>470.60</ele>
        <time>2016-10-22T08:19:42Z</time>
      </trkpt>
      <trkpt lat="42.391304000" lon="-2.463640000">
        <ele>470.60</ele>
        <time>2016-10-22T08:19:43Z</time>
      </trkpt>
      <trkpt lat="42.391352000" lon="-2.463607000">
        <ele>470.60</ele>
        <time>2016-10-22T08:19:44Z</time>
      </trkpt>
      <trkpt lat="42.391404000" lon="-2.463578000">
        <ele>470.60</ele>
        <time>2016-10-22T08:19:45Z</time>
      </trkpt>
      <trkpt lat="42.391456000" lon="-2.463553000">
        <ele>470.50</ele>
        <time>2016-10-22T08:19:46Z</time>
      </trkpt>
      <trkpt lat="42.391507000" lon="-2.463534000">
        <ele>470.50</ele>
        <time>2016-10-22T08:19:47Z</time>
      </trkpt>
      <trkpt lat="42.391559000" lon="-2.463507000">
        <ele>470.20</ele>
        <time>2016-10-22T08:19:48Z</time>
      </trkpt>
      <trkpt lat="42.391609000" lon="-2.463472000">
        <ele>470.00</ele>
        <time>2016-10-22T08:19:49Z</time>
      </trkpt>
      <trkpt lat="42.391651000" lon="-2.463424000">
        <ele>469.80</ele>
        <time>2016-10-22T08:19:50Z</time>
      </trkpt>
      <trkpt lat="42.391688000" lon="-2.463372000">
        <ele>469.70</ele>
        <time>2016-10-22T08:19:51Z</time>
      </trkpt>
      <trkpt lat="42.391719000" lon="-2.463321000">
        <ele>469.60</ele>
        <time>2016-10-22T08:19:52Z</time>
      </trkpt>
      <trkpt lat="42.391732000" lon="-2.463270000">
        <ele>469.50</ele>
        <time>2016-10-22T08:19:53Z</time>
      </trkpt>
      <trkpt lat="42.391724000" lon="-2.463222000">
        <ele>469.40</ele>
        <time>2016-10-22T08:19:54Z</time>
      </trkpt>
      <trkpt lat="42.391701000" lon="-2.463184000">
        <ele>469.40</ele>
        <time>2016-10-22T08:19:55Z</time>
      </trkpt>
      <trkpt lat="42.391670000" lon="-2.463157000">
        <ele>469.30</ele>
        <time>2016-10-22T08:19:56Z</time>
      </trkpt>
      <trkpt lat="42.391641000" lon="-2.463128000">
        <ele>469.20</ele>
        <time>2016-10-22T08:19:57Z</time>
      </trkpt>
      <trkpt lat="42.391613000" lon="-2.463093000">
        <ele>469.20</ele>
        <time>2016-10-22T08:19:58Z</time>
      </trkpt>
      <trkpt lat="42.391585000" lon="-2.463054000">
        <ele>469.20</ele>
        <time>2016-10-22T08:19:59Z</time>
      </trkpt>
      <trkpt lat="42.391558000" lon="-2.463016000">
        <ele>469.50</ele>
        <time>2016-10-22T08:20:00Z</time>
      </trkpt>
      <trkpt lat="42.391528000" lon="-2.462975000">
        <ele>469.70</ele>
        <time>2016-10-22T08:20:01Z</time>
      </trkpt>
      <trkpt lat="42.391502000" lon="-2.462929000">
        <ele>469.80</ele>
        <time>2016-10-22T08:20:02Z</time>
      </trkpt>
      <trkpt lat="42.391479000" lon="-2.462875000">
        <ele>469.90</ele>
        <time>2016-10-22T08:20:03Z</time>
      </trkpt>
      <trkpt lat="42.391457000" lon="-2.462819000">
        <ele>470.10</ele>
        <time>2016-10-22T08:20:04Z</time>
      </trkpt>
      <trkpt lat="42.391434000" lon="-2.462761000">
        <ele>470.20</ele>
        <time>2016-10-22T08:20:05Z</time>
      </trkpt>
      <trkpt lat="42.391413000" lon="-2.462701000">
        <ele>470.30</ele>
        <time>2016-10-22T08:20:06Z</time>
      </trkpt>
      <trkpt lat="42.391391000" lon="-2.462643000">
        <ele>470.40</ele>
        <time>2016-10-22T08:20:07Z</time>
      </trkpt>
      <trkpt lat="42.391369000" lon="-2.462582000">
        <ele>470.40</ele>
        <time>2016-10-22T08:20:08Z</time>
      </trkpt>
      <trkpt lat="42.391346000" lon="-2.462521000">
        <ele>470.50</ele>
        <time>2016-10-22T08:20:09Z</time>
      </trkpt>
      <trkpt lat="42.391321000" lon="-2.462465000">
        <ele>470.50</ele>
        <time>2016-10-22T08:20:10Z</time>
      </trkpt>
      <trkpt lat="42.391291000" lon="-2.462407000">
        <ele>470.50</ele>
        <time>2016-10-22T08:20:11Z</time>
      </trkpt>
      <trkpt lat="42.391262000" lon="-2.462348000">
        <ele>470.70</ele>
        <time>2016-10-22T08:20:12Z</time>
      </trkpt>
      <trkpt lat="42.391229000" lon="-2.462295000">
        <ele>470.80</ele>
        <time>2016-10-22T08:20:13Z</time>
      </trkpt>
      <trkpt lat="42.391193000" lon="-2.462245000">
        <ele>470.90</ele>
        <time>2016-10-22T08:20:14Z</time>
      </trkpt>
      <trkpt lat="42.391155000" lon="-2.462198000">
        <ele>470.90</ele>
        <time>2016-10-22T08:20:15Z</time>
      </trkpt>
      <trkpt lat="42.391117000" lon="-2.462157000">
        <ele>471.00</ele>
        <time>2016-10-22T08:20:16Z</time>
      </trkpt>
      <trkpt lat="42.391078000" lon="-2.462114000">
        <ele>471.00</ele>
        <time>2016-10-22T08:20:17Z</time>
      </trkpt>
      <trkpt lat="42.391040000" lon="-2.462079000">
        <ele>471.00</ele>
        <time>2016-10-22T08:20:18Z</time>
      </trkpt>
      <trkpt lat="42.391001000" lon="-2.462045000">
        <ele>471.00</ele>
        <time>2016-10-22T08:20:19Z</time>
      </trkpt>
      <trkpt lat="42.390962000" lon="-2.462010000">
        <ele>471.20</ele>
        <time>2016-10-22T08:20:20Z</time>
      </trkpt>
      <trkpt lat="42.390925000" lon="-2.461971000">
        <ele>471.20</ele>
        <time>2016-10-22T08:20:21Z</time>
      </trkpt>
      <trkpt lat="42.390890000" lon="-2.461933000">
        <ele>471.30</ele>
        <time>2016-10-22T08:20:22Z</time>
      </trkpt>
      <trkpt lat="42.390851000" lon="-2.461897000">
        <ele>471.30</ele>
        <time>2016-10-22T08:20:23Z</time>
      </trkpt>
      <trkpt lat="42.390812000" lon="-2.461861000">
        <ele>471.20</ele>
        <time>2016-10-22T08:20:24Z</time>
      </trkpt>
      <trkpt lat="42.390769000" lon="-2.461829000">
        <ele>471.20</ele>
        <time>2016-10-22T08:20:25Z</time>
      </trkpt>
      <trkpt lat="42.390728000" lon="-2.461792000">
        <ele>471.10</ele>
        <time>2016-10-22T08:20:26Z</time>
      </trkpt>
      <trkpt lat="42.390691000" lon="-2.461751000">
        <ele>471.10</ele>
        <time>2016-10-22T08:20:27Z</time>
      </trkpt>
      <trkpt lat="42.390655000" lon="-2.461707000">
        <ele>471.00</ele>
        <time>2016-10-22T08:20:28Z</time>
      </trkpt>
      <trkpt lat="42.390619000" lon="-2.461663000">
        <ele>470.90</ele>
        <time>2016-10-22T08:20:29Z</time>
      </trkpt>
      <trkpt lat="42.390584000" lon="-2.461617000">
        <ele>471.00</ele>
        <time>2016-10-22T08:20:30Z</time>
      </trkpt>
      <trkpt lat="42.390549000" lon="-2.461575000">
        <ele>471.10</ele>
        <time>2016-10-22T08:20:31Z</time>
      </trkpt>
      <trkpt lat="42.390517000" lon="-2.461532000">
        <ele>471.10</ele>
        <time>2016-10-22T08:20:32Z</time>
      </trkpt>
      <trkpt lat="42.390485000" lon="-2.461487000">
        <ele>471.10</ele>
        <time>2016-10-22T08:20:33Z</time>
      </trkpt>
      <trkpt lat="42.390453000" lon="-2.461441000">
        <ele>471.10</ele>
        <time>2016-10-22T08:20:34Z</time>
      </trkpt>
      <trkpt lat="42.390425000" lon="-2.461394000">
        <ele>471.10</ele>
        <time>2016-10-22T08:20:35Z</time>
      </trkpt>
      <trkpt lat="42.390397000" lon="-2.461345000">
        <ele>471.10</ele>
        <time>2016-10-22T08:20:36Z</time>
      </trkpt>
      <trkpt lat="42.390369000" lon="-2.461297000">
        <ele>471.20</ele>
        <time>2016-10-22T08:20:37Z</time>
      </trkpt>
      <trkpt lat="42.390344000" lon="-2.461251000">
        <ele>471.20</ele>
        <time>2016-10-22T08:20:38Z</time>
      </trkpt>
      <trkpt lat="42.390317000" lon="-2.461210000">
        <ele>471.20</ele>
        <time>2016-10-22T08:20:39Z</time>
      </trkpt>
      <trkpt lat="42.390293000" lon="-2.461167000">
        <ele>471.20</ele>
        <time>2016-10-22T08:20:40Z</time>
      </trkpt>
      <trkpt lat="42.390264000" lon="-2.461129000">
        <ele>471.30</ele>
        <time>2016-10-22T08:20:41Z</time>
      </trkpt>
      <trkpt lat="42.390206000" lon="-2.461052000">
        <ele>471.10</ele>
        <time>2016-10-22T08:20:43Z</time>
      </trkpt>
      <trkpt lat="42.390178000" lon="-2.461012000">
        <ele>471.30</ele>
        <time>2016-10-22T08:20:44Z</time>
      </trkpt>
      <trkpt lat="42.390149000" lon="-2.460968000">
        <ele>471.40</ele>
        <time>2016-10-22T08:20:45Z</time>
      </trkpt>
      <trkpt lat="42.390124000" lon="-2.460923000">
        <ele>471.30</ele>
        <time>2016-10-22T08:20:46Z</time>
      </trkpt>
      <trkpt lat="42.390098000" lon="-2.460876000">
        <ele>471.20</ele>
        <time>2016-10-22T08:20:47Z</time>
      </trkpt>
      <trkpt lat="42.390073000" lon="-2.460828000">
        <ele>471.30</ele>
        <time>2016-10-22T08:20:48Z</time>
      </trkpt>
      <trkpt lat="42.390048000" lon="-2.460778000">
        <ele>471.40</ele>
        <time>2016-10-22T08:20:49Z</time>
      </trkpt>
      <trkpt lat="42.390028000" lon="-2.460726000">
        <ele>471.50</ele>
        <time>2016-10-22T08:20:50Z</time>
      </trkpt>
      <trkpt lat="42.390009000" lon="-2.460673000">
        <ele>471.60</ele>
        <time>2016-10-22T08:20:51Z</time>
      </trkpt>
      <trkpt lat="42.389988000" lon="-2.460623000">
        <ele>471.60</ele>
        <time>2016-10-22T08:20:52Z</time>
      </trkpt>
      <trkpt lat="42.389967000" lon="-2.460568000">
        <ele>471.60</ele>
        <time>2016-10-22T08:20:53Z</time>
      </trkpt>
      <trkpt lat="42.389942000" lon="-2.460515000">
        <ele>471.70</ele>
        <time>2016-10-22T08:20:54Z</time>
      </trkpt>
      <trkpt lat="42.389918000" lon="-2.460462000">
        <ele>471.70</ele>
        <time>2016-10-22T08:20:55Z</time>
      </trkpt>
      <trkpt lat="42.389892000" lon="-2.460410000">
        <ele>471.70</ele>
        <time>2016-10-22T08:20:56Z</time>
      </trkpt>
      <trkpt lat="42.389869000" lon="-2.460353000">
        <ele>471.70</ele>
        <time>2016-10-22T08:20:57Z</time>
      </trkpt>
      <trkpt lat="42.389852000" lon="-2.460293000">
        <ele>471.80</ele>
        <time>2016-10-22T08:20:58Z</time>
      </trkpt>
      <trkpt lat="42.389847000" lon="-2.460230000">
        <ele>471.80</ele>
        <time>2016-10-22T08:20:59Z</time>
      </trkpt>
      <trkpt lat="42.389852000" lon="-2.460168000">
        <ele>471.80</ele>
        <time>2016-10-22T08:21:00Z</time>
      </trkpt>
      <trkpt lat="42.389873000" lon="-2.460115000">
        <ele>471.80</ele>
        <time>2016-10-22T08:21:01Z</time>
      </trkpt>
      <trkpt lat="42.389906000" lon="-2.460075000">
        <ele>471.60</ele>
        <time>2016-10-22T08:21:02Z</time>
      </trkpt>
      <trkpt lat="42.389944000" lon="-2.460040000">
        <ele>471.50</ele>
        <time>2016-10-22T08:21:03Z</time>
      </trkpt>
      <trkpt lat="42.389986000" lon="-2.460010000">
        <ele>471.20</ele>
        <time>2016-10-22T08:21:04Z</time>
      </trkpt>
      <trkpt lat="42.390032000" lon="-2.459981000">
        <ele>471.00</ele>
        <time>2016-10-22T08:21:05Z</time>
      </trkpt>
      <trkpt lat="42.390078000" lon="-2.459950000">
        <ele>470.90</ele>
        <time>2016-10-22T08:21:06Z</time>
      </trkpt>
      <trkpt lat="42.390125000" lon="-2.459921000">
        <ele>470.80</ele>
        <time>2016-10-22T08:21:07Z</time>
      </trkpt>
      <trkpt lat="42.390174000" lon="-2.459893000">
        <ele>470.50</ele>
        <time>2016-10-22T08:21:08Z</time>
      </trkpt>
      <trkpt lat="42.390222000" lon="-2.459866000">
        <ele>470.40</ele>
        <time>2016-10-22T08:21:09Z</time>
      </trkpt>
      <trkpt lat="42.390268000" lon="-2.459840000">
        <ele>470.60</ele>
        <time>2016-10-22T08:21:10Z</time>
      </trkpt>
      <trkpt lat="42.390315000" lon="-2.459816000">
        <ele>470.70</ele>
        <time>2016-10-22T08:21:11Z</time>
      </trkpt>
      <trkpt lat="42.390364000" lon="-2.459790000">
        <ele>470.50</ele>
        <time>2016-10-22T08:21:12Z</time>
      </trkpt>
      <trkpt lat="42.390408000" lon="-2.459771000">
        <ele>470.20</ele>
        <time>2016-10-22T08:21:13Z</time>
      </trkpt>
      <trkpt lat="42.390459000" lon="-2.459748000">
        <ele>470.30</ele>
        <time>2016-10-22T08:21:14Z</time>
      </trkpt>
      <trkpt lat="42.390511000" lon="-2.459728000">
        <ele>470.30</ele>
        <time>2016-10-22T08:21:15Z</time>
      </trkpt>
      <trkpt lat="42.390565000" lon="-2.459714000">
        <ele>470.30</ele>
        <time>2016-10-22T08:21:16Z</time>
      </trkpt>
      <trkpt lat="42.390619000" lon="-2.459707000">
        <ele>470.40</ele>
        <time>2016-10-22T08:21:17Z</time>
      </trkpt>
      <trkpt lat="42.390678000" lon="-2.459703000">
        <ele>470.40</ele>
        <time>2016-10-22T08:21:18Z</time>
      </trkpt>
      <trkpt lat="42.390735000" lon="-2.459708000">
        <ele>470.40</ele>
        <time>2016-10-22T08:21:19Z</time>
      </trkpt>
      <trkpt lat="42.390794000" lon="-2.459722000">
        <ele>470.30</ele>
        <time>2016-10-22T08:21:20Z</time>
      </trkpt>
      <trkpt lat="42.390852000" lon="-2.459737000">
        <ele>470.20</ele>
        <time>2016-10-22T08:21:21Z</time>
      </trkpt>
      <trkpt lat="42.390911000" lon="-2.459755000">
        <ele>470.00</ele>
        <time>2016-10-22T08:21:22Z</time>
      </trkpt>
      <trkpt lat="42.390968000" lon="-2.459769000">
        <ele>469.90</ele>
        <time>2016-10-22T08:21:23Z</time>
      </trkpt>
      <trkpt lat="42.391026000" lon="-2.459777000">
        <ele>469.90</ele>
        <time>2016-10-22T08:21:24Z</time>
      </trkpt>
      <trkpt lat="42.391085000" lon="-2.459782000">
        <ele>469.90</ele>
        <time>2016-10-22T08:21:25Z</time>
      </trkpt>
      <trkpt lat="42.391145000" lon="-2.459781000">
        <ele>469.80</ele>
        <time>2016-10-22T08:21:26Z</time>
      </trkpt>
      <trkpt lat="42.391203000" lon="-2.459775000">
        <ele>469.70</ele>
        <time>2016-10-22T08:21:27Z</time>
      </trkpt>
      <trkpt lat="42.391260000" lon="-2.459762000">
        <ele>469.70</ele>
        <time>2016-10-22T08:21:28Z</time>
      </trkpt>
      <trkpt lat="42.391319000" lon="-2.459750000">
        <ele>469.70</ele>
        <time>2016-10-22T08:21:29Z</time>
      </trkpt>
      <trkpt lat="42.391378000" lon="-2.459734000">
        <ele>469.70</ele>
        <time>2016-10-22T08:21:30Z</time>
      </trkpt>
      <trkpt lat="42.391436000" lon="-2.459716000">
        <ele>469.70</ele>
        <time>2016-10-22T08:21:31Z</time>
      </trkpt>
      <trkpt lat="42.391493000" lon="-2.459697000">
        <ele>469.60</ele>
        <time>2016-10-22T08:21:32Z</time>
      </trkpt>
      <trkpt lat="42.391549000" lon="-2.459676000">
        <ele>469.60</ele>
        <time>2016-10-22T08:21:33Z</time>
      </trkpt>
      <trkpt lat="42.391608000" lon="-2.459652000">
        <ele>469.50</ele>
        <time>2016-10-22T08:21:34Z</time>
      </trkpt>
      <trkpt lat="42.391666000" lon="-2.459625000">
        <ele>469.40</ele>
        <time>2016-10-22T08:21:35Z</time>
      </trkpt>
      <trkpt lat="42.391724000" lon="-2.459591000">
        <ele>469.40</ele>
        <time>2016-10-22T08:21:36Z</time>
      </trkpt>
      <trkpt lat="42.391782000" lon="-2.459560000">
        <ele>469.30</ele>
        <time>2016-10-22T08:21:37Z</time>
      </trkpt>
      <trkpt lat="42.391841000" lon="-2.459528000">
        <ele>469.20</ele>
        <time>2016-10-22T08:21:38Z</time>
      </trkpt>
      <trkpt lat="42.391904000" lon="-2.459496000">
        <ele>469.20</ele>
        <time>2016-10-22T08:21:39Z</time>
      </trkpt>
      <trkpt lat="42.391968000" lon="-2.459465000">
        <ele>469.10</ele>
        <time>2016-10-22T08:21:40Z</time>
      </trkpt>
      <trkpt lat="42.392032000" lon="-2.459435000">
        <ele>469.10</ele>
        <time>2016-10-22T08:21:41Z</time>
      </trkpt>
      <trkpt lat="42.392097000" lon="-2.459404000">
        <ele>469.00</ele>
        <time>2016-10-22T08:21:42Z</time>
      </trkpt>
      <trkpt lat="42.392224000" lon="-2.459349000">
        <ele>468.80</ele>
        <time>2016-10-22T08:21:44Z</time>
      </trkpt>
      <trkpt lat="42.392288000" lon="-2.459321000">
        <ele>468.60</ele>
        <time>2016-10-22T08:21:45Z</time>
      </trkpt>
      <trkpt lat="42.392351000" lon="-2.459298000">
        <ele>468.50</ele>
        <time>2016-10-22T08:21:46Z</time>
      </trkpt>
      <trkpt lat="42.392415000" lon="-2.459277000">
        <ele>468.40</ele>
        <time>2016-10-22T08:21:47Z</time>
      </trkpt>
      <trkpt lat="42.392480000" lon="-2.459263000">
        <ele>468.30</ele>
        <time>2016-10-22T08:21:48Z</time>
      </trkpt>
      <trkpt lat="42.392544000" lon="-2.459252000">
        <ele>468.20</ele>
        <time>2016-10-22T08:21:49Z</time>
      </trkpt>
      <trkpt lat="42.392609000" lon="-2.459241000">
        <ele>468.10</ele>
        <time>2016-10-22T08:21:50Z</time>
      </trkpt>
      <trkpt lat="42.392674000" lon="-2.459231000">
        <ele>468.00</ele>
        <time>2016-10-22T08:21:51Z</time>
      </trkpt>
      <trkpt lat="42.392741000" lon="-2.459216000">
        <ele>468.00</ele>
        <time>2016-10-22T08:21:52Z</time>
      </trkpt>
      <trkpt lat="42.392806000" lon="-2.459193000">
        <ele>467.90</ele>
        <time>2016-10-22T08:21:53Z</time>
      </trkpt>
      <trkpt lat="42.392873000" lon="-2.459169000">
        <ele>467.90</ele>
        <time>2016-10-22T08:21:54Z</time>
      </trkpt>
      <trkpt lat="42.392935000" lon="-2.459138000">
        <ele>467.90</ele>
        <time>2016-10-22T08:21:55Z</time>
      </trkpt>
      <trkpt lat="42.392997000" lon="-2.459101000">
        <ele>467.50</ele>
        <time>2016-10-22T08:21:56Z</time>
      </trkpt>
      <trkpt lat="42.393056000" lon="-2.459061000">
        <ele>467.20</ele>
        <time>2016-10-22T08:21:57Z</time>
      </trkpt>
      <trkpt lat="42.393118000" lon="-2.459024000">
        <ele>467.00</ele>
        <time>2016-10-22T08:21:58Z</time>
      </trkpt>
      <trkpt lat="42.393180000" lon="-2.458994000">
        <ele>466.80</ele>
        <time>2016-10-22T08:21:59Z</time>
      </trkpt>
      <trkpt lat="42.393243000" lon="-2.458965000">
        <ele>466.70</ele>
        <time>2016-10-22T08:22:00Z</time>
      </trkpt>
      <trkpt lat="42.393306000" lon="-2.458942000">
        <ele>466.60</ele>
        <time>2016-10-22T08:22:01Z</time>
      </trkpt>
      <trkpt lat="42.393369000" lon="-2.458921000">
        <ele>466.60</ele>
        <time>2016-10-22T08:22:02Z</time>
      </trkpt>
      <trkpt lat="42.393431000" lon="-2.458908000">
        <ele>466.50</ele>
        <time>2016-10-22T08:22:03Z</time>
      </trkpt>
      <trkpt lat="42.393494000" lon="-2.458893000">
        <ele>466.50</ele>
        <time>2016-10-22T08:22:04Z</time>
      </trkpt>
      <trkpt lat="42.393560000" lon="-2.458876000">
        <ele>466.50</ele>
        <time>2016-10-22T08:22:05Z</time>
      </trkpt>
      <trkpt lat="42.393623000" lon="-2.458855000">
        <ele>466.40</ele>
        <time>2016-10-22T08:22:06Z</time>
      </trkpt>
      <trkpt lat="42.393688000" lon="-2.458830000">
        <ele>466.40</ele>
        <time>2016-10-22T08:22:07Z</time>
      </trkpt>
      <trkpt lat="42.393752000" lon="-2.458802000">
        <ele>466.30</ele>
        <time>2016-10-22T08:22:08Z</time>
      </trkpt>
      <trkpt lat="42.393814000" lon="-2.458774000">
        <ele>466.30</ele>
        <time>2016-10-22T08:22:09Z</time>
      </trkpt>
      <trkpt lat="42.393872000" lon="-2.458736000">
        <ele>466.30</ele>
        <time>2016-10-22T08:22:10Z</time>
      </trkpt>
      <trkpt lat="42.393932000" lon="-2.458701000">
        <ele>466.30</ele>
        <time>2016-10-22T08:22:11Z</time>
      </trkpt>
      <trkpt lat="42.393993000" lon="-2.458668000">
        <ele>466.10</ele>
        <time>2016-10-22T08:22:12Z</time>
      </trkpt>
      <trkpt lat="42.394055000" lon="-2.458634000">
        <ele>466.00</ele>
        <time>2016-10-22T08:22:13Z</time>
      </trkpt>
      <trkpt lat="42.394113000" lon="-2.458598000">
        <ele>465.90</ele>
        <time>2016-10-22T08:22:14Z</time>
      </trkpt>
      <trkpt lat="42.394172000" lon="-2.458558000">
        <ele>465.90</ele>
        <time>2016-10-22T08:22:15Z</time>
      </trkpt>
      <trkpt lat="42.394228000" lon="-2.458520000">
        <ele>465.80</ele>
        <time>2016-10-22T08:22:16Z</time>
      </trkpt>
      <trkpt lat="42.394282000" lon="-2.458478000">
        <ele>465.80</ele>
        <time>2016-10-22T08:22:17Z</time>
      </trkpt>
      <trkpt lat="42.394332000" lon="-2.458430000">
        <ele>465.80</ele>
        <time>2016-10-22T08:22:18Z</time>
      </trkpt>
      <trkpt lat="42.394378000" lon="-2.458379000">
        <ele>465.70</ele>
        <time>2016-10-22T08:22:19Z</time>
      </trkpt>
      <trkpt lat="42.394422000" lon="-2.458328000">
        <ele>465.70</ele>
        <time>2016-10-22T08:22:20Z</time>
      </trkpt>
      <trkpt lat="42.394466000" lon="-2.458274000">
        <ele>465.70</ele>
        <time>2016-10-22T08:22:21Z</time>
      </trkpt>
      <trkpt lat="42.394508000" lon="-2.458218000">
        <ele>465.60</ele>
        <time>2016-10-22T08:22:22Z</time>
      </trkpt>
      <trkpt lat="42.394549000" lon="-2.458157000">
        <ele>465.60</ele>
        <time>2016-10-22T08:22:23Z</time>
      </trkpt>
      <trkpt lat="42.394594000" lon="-2.458099000">
        <ele>465.50</ele>
        <time>2016-10-22T08:22:24Z</time>
      </trkpt>
      <trkpt lat="42.394642000" lon="-2.458041000">
        <ele>465.40</ele>
        <time>2016-10-22T08:22:25Z</time>
      </trkpt>
      <trkpt lat="42.394692000" lon="-2.457986000">
        <ele>465.30</ele>
        <time>2016-10-22T08:22:26Z</time>
      </trkpt>
      <trkpt lat="42.394745000" lon="-2.457929000">
        <ele>465.20</ele>
        <time>2016-10-22T08:22:27Z</time>
      </trkpt>
      <trkpt lat="42.394799000" lon="-2.457876000">
        <ele>465.20</ele>
        <time>2016-10-22T08:22:28Z</time>
      </trkpt>
      <trkpt lat="42.394852000" lon="-2.457825000">
        <ele>465.20</ele>
        <time>2016-10-22T08:22:29Z</time>
      </trkpt>
      <trkpt lat="42.394906000" lon="-2.457771000">
        <ele>465.10</ele>
        <time>2016-10-22T08:22:30Z</time>
      </trkpt>
      <trkpt lat="42.394965000" lon="-2.457724000">
        <ele>465.00</ele>
        <time>2016-10-22T08:22:31Z</time>
      </trkpt>
      <trkpt lat="42.395026000" lon="-2.457687000">
        <ele>465.00</ele>
        <time>2016-10-22T08:22:32Z</time>
      </trkpt>
      <trkpt lat="42.395088000" lon="-2.457652000">
        <ele>464.90</ele>
        <time>2016-10-22T08:22:33Z</time>
      </trkpt>
      <trkpt lat="42.395150000" lon="-2.457616000">
        <ele>464.90</ele>
        <time>2016-10-22T08:22:34Z</time>
      </trkpt>
      <trkpt lat="42.395209000" lon="-2.457570000">
        <ele>464.90</ele>
        <time>2016-10-22T08:22:35Z</time>
      </trkpt>
      <trkpt lat="42.395269000" lon="-2.457521000">
        <ele>464.90</ele>
        <time>2016-10-22T08:22:36Z</time>
      </trkpt>
      <trkpt lat="42.395330000" lon="-2.457478000">
        <ele>464.90</ele>
        <time>2016-10-22T08:22:37Z</time>
      </trkpt>
      <trkpt lat="42.395388000" lon="-2.457440000">
        <ele>464.90</ele>
        <time>2016-10-22T08:22:38Z</time>
      </trkpt>
      <trkpt lat="42.395454000" lon="-2.457409000">
        <ele>465.00</ele>
        <time>2016-10-22T08:22:39Z</time>
      </trkpt>
      <trkpt lat="42.395520000" lon="-2.457390000">
        <ele>464.90</ele>
        <time>2016-10-22T08:22:40Z</time>
      </trkpt>
      <trkpt lat="42.395588000" lon="-2.457377000">
        <ele>464.90</ele>
        <time>2016-10-22T08:22:41Z</time>
      </trkpt>
      <trkpt lat="42.395656000" lon="-2.457359000">
        <ele>464.80</ele>
        <time>2016-10-22T08:22:42Z</time>
      </trkpt>
      <trkpt lat="42.395719000" lon="-2.457333000">
        <ele>464.70</ele>
        <time>2016-10-22T08:22:43Z</time>
      </trkpt>
      <trkpt lat="42.395837000" lon="-2.457253000">
        <ele>464.50</ele>
        <time>2016-10-22T08:22:45Z</time>
      </trkpt>
      <trkpt lat="42.395896000" lon="-2.457210000">
        <ele>464.50</ele>
        <time>2016-10-22T08:22:46Z</time>
      </trkpt>
      <trkpt lat="42.395954000" lon="-2.457170000">
        <ele>464.50</ele>
        <time>2016-10-22T08:22:47Z</time>
      </trkpt>
      <trkpt lat="42.396015000" lon="-2.457133000">
        <ele>464.50</ele>
        <time>2016-10-22T08:22:48Z</time>
      </trkpt>
      <trkpt lat="42.396075000" lon="-2.457094000">
        <ele>464.40</ele>
        <time>2016-10-22T08:22:49Z</time>
      </trkpt>
      <trkpt lat="42.396135000" lon="-2.457052000">
        <ele>464.30</ele>
        <time>2016-10-22T08:22:50Z</time>
      </trkpt>
      <trkpt lat="42.396194000" lon="-2.457013000">
        <ele>464.10</ele>
        <time>2016-10-22T08:22:51Z</time>
      </trkpt>
      <trkpt lat="42.396258000" lon="-2.456993000">
        <ele>464.00</ele>
        <time>2016-10-22T08:22:52Z</time>
      </trkpt>
      <trkpt lat="42.396323000" lon="-2.456991000">
        <ele>463.90</ele>
        <time>2016-10-22T08:22:53Z</time>
      </trkpt>
      <trkpt lat="42.396387000" lon="-2.457001000">
        <ele>463.40</ele>
        <time>2016-10-22T08:22:54Z</time>
      </trkpt>
      <trkpt lat="42.396450000" lon="-2.457012000">
        <ele>463.10</ele>
        <time>2016-10-22T08:22:55Z</time>
      </trkpt>
      <trkpt lat="42.396511000" lon="-2.457009000">
        <ele>462.80</ele>
        <time>2016-10-22T08:22:56Z</time>
      </trkpt>
      <trkpt lat="42.396573000" lon="-2.456996000">
        <ele>462.60</ele>
        <time>2016-10-22T08:22:57Z</time>
      </trkpt>
      <trkpt lat="42.396634000" lon="-2.456976000">
        <ele>462.40</ele>
        <time>2016-10-22T08:22:58Z</time>
      </trkpt>
      <trkpt lat="42.396690000" lon="-2.456947000">
        <ele>462.30</ele>
        <time>2016-10-22T08:22:59Z</time>
      </trkpt>
      <trkpt lat="42.396744000" lon="-2.456915000">
        <ele>462.20</ele>
        <time>2016-10-22T08:23:00Z</time>
      </trkpt>
      <trkpt lat="42.396799000" lon="-2.456875000">
        <ele>462.10</ele>
        <time>2016-10-22T08:23:01Z</time>
      </trkpt>
      <trkpt lat="42.396849000" lon="-2.456828000">
        <ele>462.10</ele>
        <time>2016-10-22T08:23:02Z</time>
      </trkpt>
      <trkpt lat="42.396898000" lon="-2.456785000">
        <ele>462.10</ele>
        <time>2016-10-22T08:23:03Z</time>
      </trkpt>
      <trkpt lat="42.396950000" lon="-2.456741000">
        <ele>462.00</ele>
        <time>2016-10-22T08:23:04Z</time>
      </trkpt>
      <trkpt lat="42.396995000" lon="-2.456687000">
        <ele>461.90</ele>
        <time>2016-10-22T08:23:05Z</time>
      </trkpt>
      <trkpt lat="42.397039000" lon="-2.456634000">
        <ele>461.90</ele>
        <time>2016-10-22T08:23:06Z</time>
      </trkpt>
      <trkpt lat="42.397086000" lon="-2.456580000">
        <ele>461.90</ele>
        <time>2016-10-22T08:23:07Z</time>
      </trkpt>
      <trkpt lat="42.397135000" lon="-2.456537000">
        <ele>461.70</ele>
        <time>2016-10-22T08:23:08Z</time>
      </trkpt>
      <trkpt lat="42.397189000" lon="-2.456504000">
        <ele>461.60</ele>
        <time>2016-10-22T08:23:09Z</time>
      </trkpt>
      <trkpt lat="42.397245000" lon="-2.456478000">
        <ele>461.40</ele>
        <time>2016-10-22T08:23:10Z</time>
      </trkpt>
      <trkpt lat="42.397304000" lon="-2.456460000">
        <ele>461.30</ele>
        <time>2016-10-22T08:23:11Z</time>
      </trkpt>
      <trkpt lat="42.397361000" lon="-2.456443000">
        <ele>461.20</ele>
        <time>2016-10-22T08:23:12Z</time>
      </trkpt>
      <trkpt lat="42.397420000" lon="-2.456433000">
        <ele>461.10</ele>
        <time>2016-10-22T08:23:13Z</time>
      </trkpt>
      <trkpt lat="42.397482000" lon="-2.456424000">
        <ele>461.10</ele>
        <time>2016-10-22T08:23:14Z</time>
      </trkpt>
      <trkpt lat="42.397543000" lon="-2.456409000">
        <ele>461.10</ele>
        <time>2016-10-22T08:23:15Z</time>
      </trkpt>
      <trkpt lat="42.397602000" lon="-2.456384000">
        <ele>461.10</ele>
        <time>2016-10-22T08:23:16Z</time>
      </trkpt>
      <trkpt lat="42.397656000" lon="-2.456349000">
        <ele>461.20</ele>
        <time>2016-10-22T08:23:17Z</time>
      </trkpt>
      <trkpt lat="42.397707000" lon="-2.456306000">
        <ele>461.20</ele>
        <time>2016-10-22T08:23:18Z</time>
      </trkpt>
      <trkpt lat="42.397756000" lon="-2.456253000">
        <ele>461.10</ele>
        <time>2016-10-22T08:23:19Z</time>
      </trkpt>
      <trkpt lat="42.397801000" lon="-2.456197000">
        <ele>461.20</ele>
        <time>2016-10-22T08:23:20Z</time>
      </trkpt>
      <trkpt lat="42.397850000" lon="-2.456151000">
        <ele>461.20</ele>
        <time>2016-10-22T08:23:21Z</time>
      </trkpt>
      <trkpt lat="42.397905000" lon="-2.456114000">
        <ele>461.20</ele>
        <time>2016-10-22T08:23:22Z</time>
      </trkpt>
      <trkpt lat="42.397960000" lon="-2.456086000">
        <ele>461.10</ele>
        <time>2016-10-22T08:23:23Z</time>
      </trkpt>
      <trkpt lat="42.398021000" lon="-2.456069000">
        <ele>461.20</ele>
        <time>2016-10-22T08:23:24Z</time>
      </trkpt>
      <trkpt lat="42.398082000" lon="-2.456050000">
        <ele>461.20</ele>
        <time>2016-10-22T08:23:25Z</time>
      </trkpt>
      <trkpt lat="42.398141000" lon="-2.456034000">
        <ele>461.40</ele>
        <time>2016-10-22T08:23:26Z</time>
      </trkpt>
      <trkpt lat="42.398201000" lon="-2.456017000">
        <ele>461.50</ele>
        <time>2016-10-22T08:23:27Z</time>
      </trkpt>
      <trkpt lat="42.398259000" lon="-2.455997000">
        <ele>461.50</ele>
        <time>2016-10-22T08:23:28Z</time>
      </trkpt>
      <trkpt lat="42.398317000" lon="-2.455973000">
        <ele>461.60</ele>
        <time>2016-10-22T08:23:29Z</time>
      </trkpt>
      <trkpt lat="42.398372000" lon="-2.455949000">
        <ele>461.50</ele>
        <time>2016-10-22T08:23:30Z</time>
      </trkpt>
      <trkpt lat="42.398429000" lon="-2.455922000">
        <ele>461.40</ele>
        <time>2016-10-22T08:23:31Z</time>
      </trkpt>
      <trkpt lat="42.398489000" lon="-2.455895000">
        <ele>461.30</ele>
        <time>2016-10-22T08:23:32Z</time>
      </trkpt>
      <trkpt lat="42.398549000" lon="-2.455864000">
        <ele>461.10</ele>
        <time>2016-10-22T08:23:33Z</time>
      </trkpt>
      <trkpt lat="42.398611000" lon="-2.455828000">
        <ele>460.80</ele>
        <time>2016-10-22T08:23:34Z</time>
      </trkpt>
      <trkpt lat="42.398676000" lon="-2.455791000">
        <ele>460.50</ele>
        <time>2016-10-22T08:23:35Z</time>
      </trkpt>
      <trkpt lat="42.398741000" lon="-2.455757000">
        <ele>460.20</ele>
        <time>2016-10-22T08:23:36Z</time>
      </trkpt>
      <trkpt lat="42.398811000" lon="-2.455732000">
        <ele>460.00</ele>
        <time>2016-10-22T08:23:37Z</time>
      </trkpt>
      <trkpt lat="42.398881000" lon="-2.455707000">
        <ele>459.60</ele>
        <time>2016-10-22T08:23:38Z</time>
      </trkpt>
      <trkpt lat="42.398950000" lon="-2.455679000">
        <ele>459.40</ele>
        <time>2016-10-22T08:23:39Z</time>
      </trkpt>
      <trkpt lat="42.399019000" lon="-2.455657000">
        <ele>459.20</ele>
        <time>2016-10-22T08:23:40Z</time>
      </trkpt>
      <trkpt lat="42.399088000" lon="-2.455633000">
        <ele>459.10</ele>
        <time>2016-10-22T08:23:41Z</time>
      </trkpt>
      <trkpt lat="42.399151000" lon="-2.455602000">
        <ele>458.80</ele>
        <time>2016-10-22T08:23:42Z</time>
      </trkpt>
      <trkpt lat="42.399212000" lon="-2.455559000">
        <ele>458.60</ele>
        <time>2016-10-22T08:23:43Z</time>
      </trkpt>
      <trkpt lat="42.399270000" lon="-2.455520000">
        <ele>458.40</ele>
        <time>2016-10-22T08:23:44Z</time>
      </trkpt>
      <trkpt lat="42.399384000" lon="-2.455434000">
        <ele>457.80</ele>
        <time>2016-10-22T08:23:46Z</time>
      </trkpt>
      <trkpt lat="42.399442000" lon="-2.455394000">
        <ele>457.60</ele>
        <time>2016-10-22T08:23:47Z</time>
      </trkpt>
      <trkpt lat="42.399498000" lon="-2.455353000">
        <ele>457.50</ele>
        <time>2016-10-22T08:23:48Z</time>
      </trkpt>
      <trkpt lat="42.399558000" lon="-2.455313000">
        <ele>457.50</ele>
        <time>2016-10-22T08:23:49Z</time>
      </trkpt>
      <trkpt lat="42.399613000" lon="-2.455268000">
        <ele>457.40</ele>
        <time>2016-10-22T08:23:50Z</time>
      </trkpt>
      <trkpt lat="42.399667000" lon="-2.455217000">
        <ele>457.40</ele>
        <time>2016-10-22T08:23:51Z</time>
      </trkpt>
      <trkpt lat="42.399721000" lon="-2.455163000">
        <ele>457.40</ele>
        <time>2016-10-22T08:23:52Z</time>
      </trkpt>
      <trkpt lat="42.399771000" lon="-2.455108000">
        <ele>457.40</ele>
        <time>2016-10-22T08:23:53Z</time>
      </trkpt>
      <trkpt lat="42.399821000" lon="-2.455053000">
        <ele>457.40</ele>
        <time>2016-10-22T08:23:54Z</time>
      </trkpt>
      <trkpt lat="42.399874000" lon="-2.455002000">
        <ele>457.40</ele>
        <time>2016-10-22T08:23:55Z</time>
      </trkpt>
      <trkpt lat="42.399929000" lon="-2.454955000">
        <ele>457.40</ele>
        <time>2016-10-22T08:23:56Z</time>
      </trkpt>
      <trkpt lat="42.399986000" lon="-2.454913000">
        <ele>457.40</ele>
        <time>2016-10-22T08:23:57Z</time>
      </trkpt>
      <trkpt lat="42.400043000" lon="-2.454872000">
        <ele>457.30</ele>
        <time>2016-10-22T08:23:58Z</time>
      </trkpt>
      <trkpt lat="42.400102000" lon="-2.454839000">
        <ele>457.20</ele>
        <time>2016-10-22T08:23:59Z</time>
      </trkpt>
      <trkpt lat="42.400160000" lon="-2.454805000">
        <ele>457.10</ele>
        <time>2016-10-22T08:24:00Z</time>
      </trkpt>
      <trkpt lat="42.400218000" lon="-2.454770000">
        <ele>457.10</ele>
        <time>2016-10-22T08:24:01Z</time>
      </trkpt>
      <trkpt lat="42.400274000" lon="-2.454736000">
        <ele>456.90</ele>
        <time>2016-10-22T08:24:02Z</time>
      </trkpt>
      <trkpt lat="42.400332000" lon="-2.454703000">
        <ele>456.80</ele>
        <time>2016-10-22T08:24:03Z</time>
      </trkpt>
      <trkpt lat="42.400388000" lon="-2.454670000">
        <ele>456.70</ele>
        <time>2016-10-22T08:24:04Z</time>
      </trkpt>
      <trkpt lat="42.400444000" lon="-2.454636000">
        <ele>456.60</ele>
        <time>2016-10-22T08:24:05Z</time>
      </trkpt>
      <trkpt lat="42.400501000" lon="-2.454601000">
        <ele>456.40</ele>
        <time>2016-10-22T08:24:06Z</time>
      </trkpt>
      <trkpt lat="42.400560000" lon="-2.454566000">
        <ele>456.40</ele>
        <time>2016-10-22T08:24:07Z</time>
      </trkpt>
      <trkpt lat="42.400617000" lon="-2.454530000">
        <ele>456.40</ele>
        <time>2016-10-22T08:24:08Z</time>
      </trkpt>
      <trkpt lat="42.400676000" lon="-2.454495000">
        <ele>456.40</ele>
        <time>2016-10-22T08:24:09Z</time>
      </trkpt>
      <trkpt lat="42.400736000" lon="-2.454464000">
        <ele>456.30</ele>
        <time>2016-10-22T08:24:10Z</time>
      </trkpt>
      <trkpt lat="42.400796000" lon="-2.454430000">
        <ele>456.20</ele>
        <time>2016-10-22T08:24:11Z</time>
      </trkpt>
      <trkpt lat="42.400854000" lon="-2.454395000">
        <ele>456.30</ele>
        <time>2016-10-22T08:24:12Z</time>
      </trkpt>
      <trkpt lat="42.400912000" lon="-2.454356000">
        <ele>456.30</ele>
        <time>2016-10-22T08:24:13Z</time>
      </trkpt>
      <trkpt lat="42.400969000" lon="-2.454313000">
        <ele>456.10</ele>
        <time>2016-10-22T08:24:14Z</time>
      </trkpt>
      <trkpt lat="42.401025000" lon="-2.454267000">
        <ele>456.00</ele>
        <time>2016-10-22T08:24:15Z</time>
      </trkpt>
      <trkpt lat="42.401077000" lon="-2.454217000">
        <ele>455.80</ele>
        <time>2016-10-22T08:24:16Z</time>
      </trkpt>
      <trkpt lat="42.401129000" lon="-2.454164000">
        <ele>455.60</ele>
        <time>2016-10-22T08:24:17Z</time>
      </trkpt>
      <trkpt lat="42.401181000" lon="-2.454108000">
        <ele>455.50</ele>
        <time>2016-10-22T08:24:18Z</time>
      </trkpt>
      <trkpt lat="42.401231000" lon="-2.454053000">
        <ele>455.40</ele>
        <time>2016-10-22T08:24:19Z</time>
      </trkpt>
      <trkpt lat="42.401281000" lon="-2.453998000">
        <ele>455.40</ele>
        <time>2016-10-22T08:24:20Z</time>
      </trkpt>
      <trkpt lat="42.401330000" lon="-2.453943000">
        <ele>455.30</ele>
        <time>2016-10-22T08:24:21Z</time>
      </trkpt>
      <trkpt lat="42.401376000" lon="-2.453886000">
        <ele>455.30</ele>
        <time>2016-10-22T08:24:22Z</time>
      </trkpt>
      <trkpt lat="42.401422000" lon="-2.453830000">
        <ele>455.30</ele>
        <time>2016-10-22T08:24:23Z</time>
      </trkpt>
      <trkpt lat="42.401469000" lon="-2.453772000">
        <ele>455.40</ele>
        <time>2016-10-22T08:24:24Z</time>
      </trkpt>
      <trkpt lat="42.401518000" lon="-2.453715000">
        <ele>455.50</ele>
        <time>2016-10-22T08:24:25Z</time>
      </trkpt>
      <trkpt lat="42.401572000" lon="-2.453662000">
        <ele>455.30</ele>
        <time>2016-10-22T08:24:26Z</time>
      </trkpt>
      <trkpt lat="42.401627000" lon="-2.453611000">
        <ele>455.10</ele>
        <time>2016-10-22T08:24:27Z</time>
      </trkpt>
      <trkpt lat="42.401682000" lon="-2.453564000">
        <ele>454.80</ele>
        <time>2016-10-22T08:24:28Z</time>
      </trkpt>
      <trkpt lat="42.401738000" lon="-2.453520000">
        <ele>454.60</ele>
        <time>2016-10-22T08:24:29Z</time>
      </trkpt>
      <trkpt lat="42.401799000" lon="-2.453479000">
        <ele>454.40</ele>
        <time>2016-10-22T08:24:30Z</time>
      </trkpt>
      <trkpt lat="42.401856000" lon="-2.453441000">
        <ele>454.30</ele>
        <time>2016-10-22T08:24:31Z</time>
      </trkpt>
      <trkpt lat="42.401912000" lon="-2.453399000">
        <ele>454.20</ele>
        <time>2016-10-22T08:24:32Z</time>
      </trkpt>
      <trkpt lat="42.401964000" lon="-2.453356000">
        <ele>454.10</ele>
        <time>2016-10-22T08:24:33Z</time>
      </trkpt>
      <trkpt lat="42.402015000" lon="-2.453310000">
        <ele>453.90</ele>
        <time>2016-10-22T08:24:34Z</time>
      </trkpt>
      <trkpt lat="42.402067000" lon="-2.453264000">
        <ele>453.80</ele>
        <time>2016-10-22T08:24:35Z</time>
      </trkpt>
      <trkpt lat="42.402118000" lon="-2.453218000">
        <ele>453.60</ele>
        <time>2016-10-22T08:24:36Z</time>
      </trkpt>
      <trkpt lat="42.402168000" lon="-2.453170000">
        <ele>453.40</ele>
        <time>2016-10-22T08:24:37Z</time>
      </trkpt>
      <trkpt lat="42.402217000" lon="-2.453125000">
        <ele>453.40</ele>
        <time>2016-10-22T08:24:38Z</time>
      </trkpt>
      <trkpt lat="42.402263000" lon="-2.453082000">
        <ele>453.80</ele>
        <time>2016-10-22T08:24:39Z</time>
      </trkpt>
      <trkpt lat="42.402307000" lon="-2.453038000">
        <ele>454.10</ele>
        <time>2016-10-22T08:24:40Z</time>
      </trkpt>
      <trkpt lat="42.402350000" lon="-2.452991000">
        <ele>454.30</ele>
        <time>2016-10-22T08:24:41Z</time>
      </trkpt>
      <trkpt lat="42.402393000" lon="-2.452945000">
        <ele>454.40</ele>
        <time>2016-10-22T08:24:42Z</time>
      </trkpt>
      <trkpt lat="42.402435000" lon="-2.452893000">
        <ele>454.40</ele>
        <time>2016-10-22T08:24:43Z</time>
      </trkpt>
      <trkpt lat="42.402476000" lon="-2.452846000">
        <ele>454.30</ele>
        <time>2016-10-22T08:24:44Z</time>
      </trkpt>
      <trkpt lat="42.402519000" lon="-2.452794000">
        <ele>454.20</ele>
        <time>2016-10-22T08:24:45Z</time>
      </trkpt>
      <trkpt lat="42.402600000" lon="-2.452683000">
        <ele>453.90</ele>
        <time>2016-10-22T08:24:47Z</time>
      </trkpt>
      <trkpt lat="42.402640000" lon="-2.452625000">
        <ele>453.90</ele>
        <time>2016-10-22T08:24:48Z</time>
      </trkpt>
      <trkpt lat="42.402681000" lon="-2.452567000">
        <ele>453.80</ele>
        <time>2016-10-22T08:24:49Z</time>
      </trkpt>
      <trkpt lat="42.402727000" lon="-2.452514000">
        <ele>453.80</ele>
        <time>2016-10-22T08:24:50Z</time>
      </trkpt>
      <trkpt lat="42.402776000" lon="-2.452465000">
        <ele>453.50</ele>
        <time>2016-10-22T08:24:51Z</time>
      </trkpt>
      <trkpt lat="42.402826000" lon="-2.452423000">
        <ele>453.30</ele>
        <time>2016-10-22T08:24:52Z</time>
      </trkpt>
      <trkpt lat="42.402878000" lon="-2.452389000">
        <ele>453.10</ele>
        <time>2016-10-22T08:24:53Z</time>
      </trkpt>
      <trkpt lat="42.402932000" lon="-2.452363000">
        <ele>453.00</ele>
        <time>2016-10-22T08:24:54Z</time>
      </trkpt>
      <trkpt lat="42.402980000" lon="-2.452334000">
        <ele>452.90</ele>
        <time>2016-10-22T08:24:55Z</time>
      </trkpt>
      <trkpt lat="42.403024000" lon="-2.452301000">
        <ele>452.90</ele>
        <time>2016-10-22T08:24:56Z</time>
      </trkpt>
      <trkpt lat="42.403066000" lon="-2.452266000">
        <ele>452.80</ele>
        <time>2016-10-22T08:24:57Z</time>
      </trkpt>
      <trkpt lat="42.403108000" lon="-2.452228000">
        <ele>452.80</ele>
        <time>2016-10-22T08:24:58Z</time>
      </trkpt>
      <trkpt lat="42.403144000" lon="-2.452190000">
        <ele>452.70</ele>
        <time>2016-10-22T08:24:59Z</time>
      </trkpt>
      <trkpt lat="42.403177000" lon="-2.452153000">
        <ele>452.60</ele>
        <time>2016-10-22T08:25:00Z</time>
      </trkpt>
      <trkpt lat="42.403209000" lon="-2.452121000">
        <ele>452.50</ele>
        <time>2016-10-22T08:25:01Z</time>
      </trkpt>
      <trkpt lat="42.403240000" lon="-2.452090000">
        <ele>452.40</ele>
        <time>2016-10-22T08:25:02Z</time>
      </trkpt>
      <trkpt lat="42.403272000" lon="-2.452059000">
        <ele>452.30</ele>
        <time>2016-10-22T08:25:03Z</time>
      </trkpt>
      <trkpt lat="42.403305000" lon="-2.452028000">
        <ele>452.30</ele>
        <time>2016-10-22T08:25:04Z</time>
      </trkpt>
      <trkpt lat="42.403336000" lon="-2.452004000">
        <ele>452.30</ele>
        <time>2016-10-22T08:25:05Z</time>
      </trkpt>
      <trkpt lat="42.403367000" lon="-2.451988000">
        <ele>452.30</ele>
        <time>2016-10-22T08:25:06Z</time>
      </trkpt>
      <trkpt lat="42.403398000" lon="-2.451972000">
        <ele>452.40</ele>
        <time>2016-10-22T08:25:07Z</time>
      </trkpt>
      <trkpt lat="42.403428000" lon="-2.451956000">
        <ele>452.50</ele>
        <time>2016-10-22T08:25:08Z</time>
      </trkpt>
      <trkpt lat="42.403460000" lon="-2.451938000">
        <ele>452.40</ele>
        <time>2016-10-22T08:25:09Z</time>
      </trkpt>
      <trkpt lat="42.403489000" lon="-2.451916000">
        <ele>452.40</ele>
        <time>2016-10-22T08:25:10Z</time>
      </trkpt>
      <trkpt lat="42.403515000" lon="-2.451893000">
        <ele>452.40</ele>
        <time>2016-10-22T08:25:11Z</time>
      </trkpt>
      <trkpt lat="42.403540000" lon="-2.451872000">
        <ele>452.40</ele>
        <time>2016-10-22T08:25:12Z</time>
      </trkpt>
      <trkpt lat="42.403565000" lon="-2.451848000">
        <ele>452.40</ele>
        <time>2016-10-22T08:25:13Z</time>
      </trkpt>
      <trkpt lat="42.403589000" lon="-2.451829000">
        <ele>452.40</ele>
        <time>2016-10-22T08:25:14Z</time>
      </trkpt>
      <trkpt lat="42.403610000" lon="-2.451814000">
        <ele>452.40</ele>
        <time>2016-10-22T08:25:15Z</time>
      </trkpt>
      <trkpt lat="42.403622000" lon="-2.451811000">
        <ele>452.30</ele>
        <time>2016-10-22T08:25:16Z</time>
      </trkpt>
      <trkpt lat="42.403632000" lon="-2.451804000">
        <ele>452.20</ele>
        <time>2016-10-22T08:25:17Z</time>
      </trkpt>
      <trkpt lat="42.403646000" lon="-2.451794000">
        <ele>452.10</ele>
        <time>2016-10-22T08:25:18Z</time>
      </trkpt>
      <trkpt lat="42.403657000" lon="-2.451785000">
        <ele>452.00</ele>
        <time>2016-10-22T08:25:19Z</time>
      </trkpt>
      <trkpt lat="42.403667000" lon="-2.451780000">
        <ele>452.00</ele>
        <time>2016-10-22T08:25:20Z</time>
      </trkpt>
      <trkpt lat="42.403676000" lon="-2.451781000">
        <ele>451.90</ele>
        <time>2016-10-22T08:25:21Z</time>
      </trkpt>
      <trkpt lat="42.403678000" lon="-2.451786000">
        <ele>451.90</ele>
        <time>2016-10-22T08:25:22Z</time>
      </trkpt>
      <trkpt lat="42.403679000" lon="-2.451787000">
        <ele>451.90</ele>
        <time>2016-10-22T08:25:23Z</time>
      </trkpt>
      <trkpt lat="42.403679000" lon="-2.451787000">
        <ele>451.90</ele>
        <time>2016-10-22T08:25:24Z</time>
      </trkpt>
      <trkpt lat="42.403679000" lon="-2.451787000">
        <ele>452.00</ele>
        <time>2016-10-22T08:25:25Z</time>
      </trkpt>
      <trkpt lat="42.403679000" lon="-2.451787000">
        <ele>452.10</ele>
        <time>2016-10-22T08:25:26Z</time>
      </trkpt>
      <trkpt lat="42.403679000" lon="-2.451787000">
        <ele>452.00</ele>
        <time>2016-10-22T08:25:27Z</time>
      </trkpt>
      <trkpt lat="42.403679000" lon="-2.451787000">
        <ele>451.90</ele>
        <time>2016-10-22T08:25:28Z</time>
      </trkpt>
      <trkpt lat="42.403679000" lon="-2.451787000">
        <ele>451.90</ele>
        <time>2016-10-22T08:25:29Z</time>
      </trkpt>
      <trkpt lat="42.403679000" lon="-2.451787000">
        <ele>451.90</ele>
        <time>2016-10-22T08:25:30Z</time>
      </trkpt>
      <trkpt lat="42.403679000" lon="-2.451787000">
        <ele>451.90</ele>
        <time>2016-10-22T08:25:31Z</time>
      </trkpt>
      <trkpt lat="42.403679000" lon="-2.451787000">
        <ele>451.80</ele>
        <time>2016-10-22T08:25:32Z</time>
      </trkpt>
      <trkpt lat="42.403679000" lon="-2.451787000">
        <ele>452.00</ele>
        <time>2016-10-22T08:25:33Z</time>
      </trkpt>
      <trkpt lat="42.403679000" lon="-2.451787000">
        <ele>452.10</ele>
        <time>2016-10-22T08:25:34Z</time>
      </trkpt>
      <trkpt lat="42.403679000" lon="-2.451787000">
        <ele>452.10</ele>
        <time>2016-10-22T08:25:35Z</time>
      </trkpt>
      <trkpt lat="42.403679000" lon="-2.451787000">
        <ele>452.20</ele>
        <time>2016-10-22T08:25:36Z</time>
      </trkpt>
      <trkpt lat="42.403679000" lon="-2.451787000">
        <ele>452.30</ele>
        <time>2016-10-22T08:25:37Z</time>
      </trkpt>
      <trkpt lat="42.403679000" lon="-2.451787000">
        <ele>452.40</ele>
        <time>2016-10-22T08:25:38Z</time>
      </trkpt>
      <trkpt lat="42.403679000" lon="-2.451787000">
        <ele>452.40</ele>
        <time>2016-10-22T08:25:39Z</time>
      </trkpt>
      <trkpt lat="42.403679000" lon="-2.451787000">
        <ele>452.50</ele>
        <time>2016-10-22T08:25:40Z</time>
      </trkpt>
      <trkpt lat="42.403686000" lon="-2.451766000">
        <ele>452.40</ele>
        <time>2016-10-22T08:25:41Z</time>
      </trkpt>
      <trkpt lat="42.403691000" lon="-2.451747000">
        <ele>452.40</ele>
        <time>2016-10-22T08:25:42Z</time>
      </trkpt>
      <trkpt lat="42.403699000" lon="-2.451729000">
        <ele>452.30</ele>
        <time>2016-10-22T08:25:43Z</time>
      </trkpt>
      <trkpt lat="42.403704000" lon="-2.451725000">
        <ele>452.30</ele>
        <time>2016-10-22T08:25:44Z</time>
      </trkpt>
      <trkpt lat="42.403704000" lon="-2.451725000">
        <ele>452.20</ele>
        <time>2016-10-22T08:25:45Z</time>
      </trkpt>
      <trkpt lat="42.403704000" lon="-2.451725000">
        <ele>452.20</ele>
        <time>2016-10-22T08:25:46Z</time>
      </trkpt>
      <trkpt lat="42.403704000" lon="-2.451725000">
        <ele>452.10</ele>
        <time>2016-10-22T08:25:48Z</time>
      </trkpt>
      <trkpt lat="42.403704000" lon="-2.451725000">
        <ele>452.20</ele>
        <time>2016-10-22T08:25:49Z</time>
      </trkpt>
      <trkpt lat="42.403704000" lon="-2.451725000">
        <ele>452.20</ele>
        <time>2016-10-22T08:25:50Z</time>
      </trkpt>
      <trkpt lat="42.403704000" lon="-2.451725000">
        <ele>452.20</ele>
        <time>2016-10-22T08:25:51Z</time>
      </trkpt>
      <trkpt lat="42.403704000" lon="-2.451725000">
        <ele>452.30</ele>
        <time>2016-10-22T08:25:52Z</time>
      </trkpt>
      <trkpt lat="42.403704000" lon="-2.451725000">
        <ele>452.30</ele>
        <time>2016-10-22T08:25:53Z</time>
      </trkpt>
      <trkpt lat="42.403704000" lon="-2.451725000">
        <ele>452.30</ele>
        <time>2016-10-22T08:25:54Z</time>
      </trkpt>
      <trkpt lat="42.403704000" lon="-2.451725000">
        <ele>452.20</ele>
        <time>2016-10-22T08:25:55Z</time>
      </trkpt>
      <trkpt lat="42.403704000" lon="-2.451725000">
        <ele>452.20</ele>
        <time>2016-10-22T08:25:56Z</time>
      </trkpt>
      <trkpt lat="42.403704000" lon="-2.451725000">
        <ele>452.20</ele>
        <time>2016-10-22T08:25:57Z</time>
      </trkpt>
      <trkpt lat="42.403704000" lon="-2.451725000">
        <ele>452.10</ele>
        <time>2016-10-22T08:25:58Z</time>
      </trkpt>
      <trkpt lat="42.403704000" lon="-2.451725000">
        <ele>452.10</ele>
        <time>2016-10-22T08:25:59Z</time>
      </trkpt>
      <trkpt lat="42.403704000" lon="-2.451725000">
        <ele>452.10</ele>
        <time>2016-10-22T08:26:00Z</time>
      </trkpt>
      <trkpt lat="42.403704000" lon="-2.451725000">
        <ele>452.00</ele>
        <time>2016-10-22T08:26:01Z</time>
      </trkpt>
      <trkpt lat="42.403704000" lon="-2.451725000">
        <ele>452.00</ele>
        <time>2016-10-22T08:26:02Z</time>
      </trkpt>
      <trkpt lat="42.403704000" lon="-2.451725000">
        <ele>452.00</ele>
        <time>2016-10-22T08:26:03Z</time>
      </trkpt>
      <trkpt lat="42.403704000" lon="-2.451725000">
        <ele>452.00</ele>
        <time>2016-10-22T08:26:04Z</time>
      </trkpt>
      <trkpt lat="42.403704000" lon="-2.451725000">
        <ele>452.00</ele>
        <time>2016-10-22T08:26:05Z</time>
      </trkpt>
      <trkpt lat="42.403704000" lon="-2.451725000">
        <ele>452.00</ele>
        <time>2016-10-22T08:26:06Z</time>
      </trkpt>
      <trkpt lat="42.403704000" lon="-2.451725000">
        <ele>452.00</ele>
        <time>2016-10-22T08:26:07Z</time>
      </trkpt>
      <trkpt lat="42.403704000" lon="-2.451725000">
        <ele>452.00</ele>
        <time>2016-10-22T08:26:08Z</time>
      </trkpt>
      <trkpt lat="42.403704000" lon="-2.451725000">
        <ele>452.20</ele>
        <time>2016-10-22T08:26:09Z</time>
      </trkpt>
      <trkpt lat="42.403704000" lon="-2.451725000">
        <ele>452.30</ele>
        <time>2016-10-22T08:26:10Z</time>
      </trkpt>
      <trkpt lat="42.403704000" lon="-2.451725000">
        <ele>452.40</ele>
        <time>2016-10-22T08:26:11Z</time>
      </trkpt>
      <trkpt lat="42.403704000" lon="-2.451725000">
        <ele>452.40</ele>
        <time>2016-10-22T08:26:12Z</time>
      </trkpt>
      <trkpt lat="42.403704000" lon="-2.451725000">
        <ele>452.40</ele>
        <time>2016-10-22T08:26:13Z</time>
      </trkpt>
      <trkpt lat="42.403704000" lon="-2.451725000">
        <ele>452.40</ele>
        <time>2016-10-22T08:26:14Z</time>
      </trkpt>
      <trkpt lat="42.403704000" lon="-2.451725000">
        <ele>452.40</ele>
        <time>2016-10-22T08:26:15Z</time>
      </trkpt>
      <trkpt lat="42.403704000" lon="-2.451725000">
        <ele>452.40</ele>
        <time>2016-10-22T08:26:16Z</time>
      </trkpt>
      <trkpt lat="42.403704000" lon="-2.451725000">
        <ele>452.30</ele>
        <time>2016-10-22T08:26:17Z</time>
      </trkpt>
      <trkpt lat="42.403704000" lon="-2.451725000">
        <ele>452.30</ele>
        <time>2016-10-22T08:26:18Z</time>
      </trkpt>
      <trkpt lat="42.403704000" lon="-2.451725000">
        <ele>452.20</ele>
        <time>2016-10-22T08:26:19Z</time>
      </trkpt>
      <trkpt lat="42.403704000" lon="-2.451725000">
        <ele>452.10</ele>
        <time>2016-10-22T08:26:20Z</time>
      </trkpt>
      <trkpt lat="42.403704000" lon="-2.451725000">
        <ele>452.00</ele>
        <time>2016-10-22T08:26:21Z</time>
      </trkpt>
      <trkpt lat="42.403704000" lon="-2.451725000">
        <ele>451.90</ele>
        <time>2016-10-22T08:26:22Z</time>
      </trkpt>
      <trkpt lat="42.403704000" lon="-2.451725000">
        <ele>451.80</ele>
        <time>2016-10-22T08:26:23Z</time>
      </trkpt>
      <trkpt lat="42.403706000" lon="-2.451721000">
        <ele>451.80</ele>
        <time>2016-10-22T08:26:24Z</time>
      </trkpt>
      <trkpt lat="42.403706000" lon="-2.451721000">
        <ele>451.90</ele>
        <time>2016-10-22T08:26:25Z</time>
      </trkpt>
      <trkpt lat="42.403706000" lon="-2.451721000">
        <ele>451.90</ele>
        <time>2016-10-22T08:26:26Z</time>
      </trkpt>
      <trkpt lat="42.403706000" lon="-2.451721000">
        <ele>452.00</ele>
        <time>2016-10-22T08:26:27Z</time>
      </trkpt>
      <trkpt lat="42.403706000" lon="-2.451721000">
        <ele>452.00</ele>
        <time>2016-10-22T08:26:28Z</time>
      </trkpt>
      <trkpt lat="42.403706000" lon="-2.451721000">
        <ele>452.00</ele>
        <time>2016-10-22T08:26:29Z</time>
      </trkpt>
      <trkpt lat="42.403706000" lon="-2.451721000">
        <ele>452.00</ele>
        <time>2016-10-22T08:26:30Z</time>
      </trkpt>
      <trkpt lat="42.403706000" lon="-2.451721000">
        <ele>452.10</ele>
        <time>2016-10-22T08:26:31Z</time>
      </trkpt>
      <trkpt lat="42.403706000" lon="-2.451721000">
        <ele>452.20</ele>
        <time>2016-10-22T08:26:32Z</time>
      </trkpt>
      <trkpt lat="42.403706000" lon="-2.451721000">
        <ele>452.20</ele>
        <time>2016-10-22T08:26:33Z</time>
      </trkpt>
      <trkpt lat="42.403706000" lon="-2.451721000">
        <ele>452.20</ele>
        <time>2016-10-22T08:26:34Z</time>
      </trkpt>
      <trkpt lat="42.403706000" lon="-2.451721000">
        <ele>452.20</ele>
        <time>2016-10-22T08:26:35Z</time>
      </trkpt>
      <trkpt lat="42.403706000" lon="-2.451721000">
        <ele>452.20</ele>
        <time>2016-10-22T08:26:36Z</time>
      </trkpt>
      <trkpt lat="42.403706000" lon="-2.451721000">
        <ele>452.10</ele>
        <time>2016-10-22T08:26:37Z</time>
      </trkpt>
      <trkpt lat="42.403706000" lon="-2.451721000">
        <ele>452.10</ele>
        <time>2016-10-22T08:26:38Z</time>
      </trkpt>
      <trkpt lat="42.403706000" lon="-2.451721000">
        <ele>452.00</ele>
        <time>2016-10-22T08:26:39Z</time>
      </trkpt>
      <trkpt lat="42.403706000" lon="-2.451721000">
        <ele>452.00</ele>
        <time>2016-10-22T08:26:40Z</time>
      </trkpt>
      <trkpt lat="42.403706000" lon="-2.451721000">
        <ele>451.90</ele>
        <time>2016-10-22T08:26:41Z</time>
      </trkpt>
      <trkpt lat="42.403706000" lon="-2.451721000">
        <ele>451.90</ele>
        <time>2016-10-22T08:26:42Z</time>
      </trkpt>
      <trkpt lat="42.403706000" lon="-2.451721000">
        <ele>451.90</ele>
        <time>2016-10-22T08:26:43Z</time>
      </trkpt>
      <trkpt lat="42.403706000" lon="-2.451721000">
        <ele>451.90</ele>
        <time>2016-10-22T08:26:44Z</time>
      </trkpt>
      <trkpt lat="42.403706000" lon="-2.451721000">
        <ele>452.00</ele>
        <time>2016-10-22T08:26:45Z</time>
      </trkpt>
      <trkpt lat="42.403706000" lon="-2.451721000">
        <ele>452.10</ele>
        <time>2016-10-22T08:26:46Z</time>
      </trkpt>
      <trkpt lat="42.403706000" lon="-2.451721000">
        <ele>452.10</ele>
        <time>2016-10-22T08:26:47Z</time>
      </trkpt>
      <trkpt lat="42.403706000" lon="-2.451721000">
        <ele>452.10</ele>
        <time>2016-10-22T08:26:49Z</time>
      </trkpt>
      <trkpt lat="42.403706000" lon="-2.451721000">
        <ele>452.10</ele>
        <time>2016-10-22T08:26:50Z</time>
      </trkpt>
      <trkpt lat="42.403706000" lon="-2.451721000">
        <ele>452.10</ele>
        <time>2016-10-22T08:26:51Z</time>
      </trkpt>
      <trkpt lat="42.403706000" lon="-2.451721000">
        <ele>452.10</ele>
        <time>2016-10-22T08:26:52Z</time>
      </trkpt>
      <trkpt lat="42.403706000" lon="-2.451721000">
        <ele>452.10</ele>
        <time>2016-10-22T08:26:53Z</time>
      </trkpt>
      <trkpt lat="42.403706000" lon="-2.451721000">
        <ele>452.10</ele>
        <time>2016-10-22T08:26:54Z</time>
      </trkpt>
      <trkpt lat="42.403706000" lon="-2.451721000">
        <ele>452.10</ele>
        <time>2016-10-22T08:26:55Z</time>
      </trkpt>
      <trkpt lat="42.403706000" lon="-2.451721000">
        <ele>452.20</ele>
        <time>2016-10-22T08:26:56Z</time>
      </trkpt>
      <trkpt lat="42.403706000" lon="-2.451721000">
        <ele>452.20</ele>
        <time>2016-10-22T08:26:57Z</time>
      </trkpt>
      <trkpt lat="42.403706000" lon="-2.451721000">
        <ele>452.20</ele>
        <time>2016-10-22T08:26:58Z</time>
      </trkpt>
      <trkpt lat="42.403706000" lon="-2.451721000">
        <ele>452.30</ele>
        <time>2016-10-22T08:26:59Z</time>
      </trkpt>
      <trkpt lat="42.403706000" lon="-2.451721000">
        <ele>452.30</ele>
        <time>2016-10-22T08:27:00Z</time>
      </trkpt>
      <trkpt lat="42.403706000" lon="-2.451721000">
        <ele>452.30</ele>
        <time>2016-10-22T08:27:01Z</time>
      </trkpt>
      <trkpt lat="42.403706000" lon="-2.451721000">
        <ele>452.30</ele>
        <time>2016-10-22T08:27:02Z</time>
      </trkpt>
      <trkpt lat="42.403706000" lon="-2.451721000">
        <ele>452.40</ele>
        <time>2016-10-22T08:27:03Z</time>
      </trkpt>
      <trkpt lat="42.403708000" lon="-2.451719000">
        <ele>452.40</ele>
        <time>2016-10-22T08:27:04Z</time>
      </trkpt>
      <trkpt lat="42.403708000" lon="-2.451719000">
        <ele>452.50</ele>
        <time>2016-10-22T08:27:05Z</time>
      </trkpt>
      <trkpt lat="42.403708000" lon="-2.451719000">
        <ele>452.50</ele>
        <time>2016-10-22T08:27:06Z</time>
      </trkpt>
      <trkpt lat="42.403708000" lon="-2.451719000">
        <ele>452.50</ele>
        <time>2016-10-22T08:27:07Z</time>
      </trkpt>
      <trkpt lat="42.403708000" lon="-2.451719000">
        <ele>452.40</ele>
        <time>2016-10-22T08:27:08Z</time>
      </trkpt>
      <trkpt lat="42.403708000" lon="-2.451719000">
        <ele>452.30</ele>
        <time>2016-10-22T08:27:09Z</time>
      </trkpt>
      <trkpt lat="42.403708000" lon="-2.451719000">
        <ele>452.30</ele>
        <time>2016-10-22T08:27:10Z</time>
      </trkpt>
      <trkpt lat="42.403710000" lon="-2.451718000">
        <ele>452.20</ele>
        <time>2016-10-22T08:27:11Z</time>
      </trkpt>
      <trkpt lat="42.403710000" lon="-2.451718000">
        <ele>452.20</ele>
        <time>2016-10-22T08:27:12Z</time>
      </trkpt>
      <trkpt lat="42.403710000" lon="-2.451718000">
        <ele>452.10</ele>
        <time>2016-10-22T08:27:13Z</time>
      </trkpt>
      <trkpt lat="42.403710000" lon="-2.451718000">
        <ele>452.00</ele>
        <time>2016-10-22T08:27:14Z</time>
      </trkpt>
      <trkpt lat="42.403710000" lon="-2.451718000">
        <ele>451.90</ele>
        <time>2016-10-22T08:27:15Z</time>
      </trkpt>
      <trkpt lat="42.403710000" lon="-2.451718000">
        <ele>451.80</ele>
        <time>2016-10-22T08:27:16Z</time>
      </trkpt>
      <trkpt lat="42.403710000" lon="-2.451718000">
        <ele>451.70</ele>
        <time>2016-10-22T08:27:17Z</time>
      </trkpt>
      <trkpt lat="42.403710000" lon="-2.451718000">
        <ele>451.70</ele>
        <time>2016-10-22T08:27:18Z</time>
      </trkpt>
      <trkpt lat="42.403710000" lon="-2.451718000">
        <ele>451.70</ele>
        <time>2016-10-22T08:27:19Z</time>
      </trkpt>
      <trkpt lat="42.403710000" lon="-2.451718000">
        <ele>451.60</ele>
        <time>2016-10-22T08:27:20Z</time>
      </trkpt>
      <trkpt lat="42.403710000" lon="-2.451718000">
        <ele>451.60</ele>
        <time>2016-10-22T08:27:21Z</time>
      </trkpt>
      <trkpt lat="42.403710000" lon="-2.451718000">
        <ele>451.60</ele>
        <time>2016-10-22T08:27:22Z</time>
      </trkpt>
      <trkpt lat="42.403710000" lon="-2.451718000">
        <ele>451.60</ele>
        <time>2016-10-22T08:27:23Z</time>
      </trkpt>
      <trkpt lat="42.403710000" lon="-2.451718000">
        <ele>451.60</ele>
        <time>2016-10-22T08:27:24Z</time>
      </trkpt>
      <trkpt lat="42.403710000" lon="-2.451718000">
        <ele>451.60</ele>
        <time>2016-10-22T08:27:25Z</time>
      </trkpt>
      <trkpt lat="42.403710000" lon="-2.451718000">
        <ele>451.70</ele>
        <time>2016-10-22T08:27:26Z</time>
      </trkpt>
      <trkpt lat="42.403710000" lon="-2.451718000">
        <ele>451.90</ele>
        <time>2016-10-22T08:27:27Z</time>
      </trkpt>
      <trkpt lat="42.403710000" lon="-2.451718000">
        <ele>452.10</ele>
        <time>2016-10-22T08:27:28Z</time>
      </trkpt>
      <trkpt lat="42.403710000" lon="-2.451718000">
        <ele>452.20</ele>
        <time>2016-10-22T08:27:29Z</time>
      </trkpt>
      <trkpt lat="42.403710000" lon="-2.451718000">
        <ele>452.30</ele>
        <time>2016-10-22T08:27:30Z</time>
      </trkpt>
      <trkpt lat="42.403710000" lon="-2.451718000">
        <ele>452.40</ele>
        <time>2016-10-22T08:27:31Z</time>
      </trkpt>
      <trkpt lat="42.403710000" lon="-2.451718000">
        <ele>452.40</ele>
        <time>2016-10-22T08:27:32Z</time>
      </trkpt>
      <trkpt lat="42.403710000" lon="-2.451718000">
        <ele>452.50</ele>
        <time>2016-10-22T08:27:33Z</time>
      </trkpt>
      <trkpt lat="42.403710000" lon="-2.451718000">
        <ele>452.50</ele>
        <time>2016-10-22T08:27:34Z</time>
      </trkpt>
      <trkpt lat="42.403710000" lon="-2.451718000">
        <ele>452.40</ele>
        <time>2016-10-22T08:27:35Z</time>
      </trkpt>
      <trkpt lat="42.403710000" lon="-2.451718000">
        <ele>452.30</ele>
        <time>2016-10-22T08:27:36Z</time>
      </trkpt>
      <trkpt lat="42.403710000" lon="-2.451718000">
        <ele>452.30</ele>
        <time>2016-10-22T08:27:37Z</time>
      </trkpt>
      <trkpt lat="42.403710000" lon="-2.451718000">
        <ele>452.30</ele>
        <time>2016-10-22T08:27:38Z</time>
      </trkpt>
      <trkpt lat="42.403710000" lon="-2.451718000">
        <ele>452.40</ele>
        <time>2016-10-22T08:27:39Z</time>
      </trkpt>
      <trkpt lat="42.403710000" lon="-2.451718000">
        <ele>452.50</ele>
        <time>2016-10-22T08:27:40Z</time>
      </trkpt>
      <trkpt lat="42.403713000" lon="-2.451714000">
        <ele>452.60</ele>
        <time>2016-10-22T08:27:41Z</time>
      </trkpt>
      <trkpt lat="42.403717000" lon="-2.451709000">
        <ele>452.70</ele>
        <time>2016-10-22T08:27:42Z</time>
      </trkpt>
      <trkpt lat="42.403719000" lon="-2.451707000">
        <ele>452.50</ele>
        <time>2016-10-22T08:27:43Z</time>
      </trkpt>
      <trkpt lat="42.403719000" lon="-2.451707000">
        <ele>452.40</ele>
        <time>2016-10-22T08:27:44Z</time>
      </trkpt>
      <trkpt lat="42.403719000" lon="-2.451707000">
        <ele>452.40</ele>
        <time>2016-10-22T08:27:45Z</time>
      </trkpt>
      <trkpt lat="42.403719000" lon="-2.451707000">
        <ele>452.30</ele>
        <time>2016-10-22T08:27:46Z</time>
      </trkpt>
      <trkpt lat="42.403726000" lon="-2.451704000">
        <ele>452.30</ele>
        <time>2016-10-22T08:27:47Z</time>
      </trkpt>
      <trkpt lat="42.403726000" lon="-2.451698000">
        <ele>452.40</ele>
        <time>2016-10-22T08:27:48Z</time>
      </trkpt>
      <trkpt lat="42.403726000" lon="-2.451698000">
        <ele>452.50</ele>
        <time>2016-10-22T08:27:50Z</time>
      </trkpt>
      <trkpt lat="42.403726000" lon="-2.451698000">
        <ele>452.50</ele>
        <time>2016-10-22T08:27:51Z</time>
      </trkpt>
      <trkpt lat="42.403726000" lon="-2.451698000">
        <ele>452.60</ele>
        <time>2016-10-22T08:27:52Z</time>
      </trkpt>
      <trkpt lat="42.403739000" lon="-2.451675000">
        <ele>452.60</ele>
        <time>2016-10-22T08:27:53Z</time>
      </trkpt>
      <trkpt lat="42.403755000" lon="-2.451654000">
        <ele>452.60</ele>
        <time>2016-10-22T08:27:54Z</time>
      </trkpt>
      <trkpt lat="42.403769000" lon="-2.451633000">
        <ele>452.60</ele>
        <time>2016-10-22T08:27:55Z</time>
      </trkpt>
      <trkpt lat="42.403783000" lon="-2.451614000">
        <ele>452.60</ele>
        <time>2016-10-22T08:27:56Z</time>
      </trkpt>
      <trkpt lat="42.403799000" lon="-2.451589000">
        <ele>452.60</ele>
        <time>2016-10-22T08:27:57Z</time>
      </trkpt>
      <trkpt lat="42.403820000" lon="-2.451568000">
        <ele>452.50</ele>
        <time>2016-10-22T08:27:58Z</time>
      </trkpt>
      <trkpt lat="42.403839000" lon="-2.451540000">
        <ele>452.50</ele>
        <time>2016-10-22T08:27:59Z</time>
      </trkpt>
      <trkpt lat="42.403860000" lon="-2.451513000">
        <ele>452.50</ele>
        <time>2016-10-22T08:28:00Z</time>
      </trkpt>
      <trkpt lat="42.403882000" lon="-2.451480000">
        <ele>452.50</ele>
        <time>2016-10-22T08:28:01Z</time>
      </trkpt>
      <trkpt lat="42.403905000" lon="-2.451444000">
        <ele>452.50</ele>
        <time>2016-10-22T08:28:02Z</time>
      </trkpt>
      <trkpt lat="42.403932000" lon="-2.451409000">
        <ele>452.40</ele>
        <time>2016-10-22T08:28:03Z</time>
      </trkpt>
      <trkpt lat="42.403960000" lon="-2.451375000">
        <ele>452.40</ele>
        <time>2016-10-22T08:28:04Z</time>
      </trkpt>
      <trkpt lat="42.403988000" lon="-2.451341000">
        <ele>452.50</ele>
        <time>2016-10-22T08:28:05Z</time>
      </trkpt>
      <trkpt lat="42.404014000" lon="-2.451306000">
        <ele>452.50</ele>
        <time>2016-10-22T08:28:06Z</time>
      </trkpt>
      <trkpt lat="42.404040000" lon="-2.451275000">
        <ele>452.40</ele>
        <time>2016-10-22T08:28:07Z</time>
      </trkpt>
      <trkpt lat="42.404064000" lon="-2.451244000">
        <ele>452.40</ele>
        <time>2016-10-22T08:28:08Z</time>
      </trkpt>
      <trkpt lat="42.404089000" lon="-2.451213000">
        <ele>452.40</ele>
        <time>2016-10-22T08:28:09Z</time>
      </trkpt>
      <trkpt lat="42.404115000" lon="-2.451185000">
        <ele>452.50</ele>
        <time>2016-10-22T08:28:10Z</time>
      </trkpt>
      <trkpt lat="42.404143000" lon="-2.451151000">
        <ele>452.40</ele>
        <time>2016-10-22T08:28:11Z</time>
      </trkpt>
      <trkpt lat="42.404173000" lon="-2.451118000">
        <ele>452.30</ele>
        <time>2016-10-22T08:28:12Z</time>
      </trkpt>
      <trkpt lat="42.404204000" lon="-2.451085000">
        <ele>452.30</ele>
        <time>2016-10-22T08:28:13Z</time>
      </trkpt>
      <trkpt lat="42.404235000" lon="-2.451055000">
        <ele>452.20</ele>
        <time>2016-10-22T08:28:14Z</time>
      </trkpt>
      <trkpt lat="42.404266000" lon="-2.451023000">
        <ele>452.10</ele>
        <time>2016-10-22T08:28:15Z</time>
      </trkpt>
      <trkpt lat="42.404298000" lon="-2.450993000">
        <ele>452.10</ele>
        <time>2016-10-22T08:28:16Z</time>
      </trkpt>
      <trkpt lat="42.404328000" lon="-2.450962000">
        <ele>452.10</ele>
        <time>2016-10-22T08:28:17Z</time>
      </trkpt>
      <trkpt lat="42.404357000" lon="-2.450932000">
        <ele>452.00</ele>
        <time>2016-10-22T08:28:18Z</time>
      </trkpt>
      <trkpt lat="42.404385000" lon="-2.450898000">
        <ele>452.20</ele>
        <time>2016-10-22T08:28:19Z</time>
      </trkpt>
      <trkpt lat="42.404409000" lon="-2.450866000">
        <ele>452.20</ele>
        <time>2016-10-22T08:28:20Z</time>
      </trkpt>
      <trkpt lat="42.404434000" lon="-2.450833000">
        <ele>452.20</ele>
        <time>2016-10-22T08:28:21Z</time>
      </trkpt>
      <trkpt lat="42.404458000" lon="-2.450799000">
        <ele>452.10</ele>
        <time>2016-10-22T08:28:22Z</time>
      </trkpt>
      <trkpt lat="42.404480000" lon="-2.450763000">
        <ele>452.10</ele>
        <time>2016-10-22T08:28:23Z</time>
      </trkpt>
      <trkpt lat="42.404501000" lon="-2.450729000">
        <ele>452.10</ele>
        <time>2016-10-22T08:28:24Z</time>
      </trkpt>
      <trkpt lat="42.404525000" lon="-2.450694000">
        <ele>452.00</ele>
        <time>2016-10-22T08:28:25Z</time>
      </trkpt>
      <trkpt lat="42.404547000" lon="-2.450654000">
        <ele>452.00</ele>
        <time>2016-10-22T08:28:26Z</time>
      </trkpt>
      <trkpt lat="42.404571000" lon="-2.450614000">
        <ele>452.00</ele>
        <time>2016-10-22T08:28:27Z</time>
      </trkpt>
      <trkpt lat="42.404592000" lon="-2.450571000">
        <ele>452.00</ele>
        <time>2016-10-22T08:28:28Z</time>
      </trkpt>
      <trkpt lat="42.404615000" lon="-2.450528000">
        <ele>452.00</ele>
        <time>2016-10-22T08:28:29Z</time>
      </trkpt>
      <trkpt lat="42.404639000" lon="-2.450491000">
        <ele>452.00</ele>
        <time>2016-10-22T08:28:30Z</time>
      </trkpt>
      <trkpt lat="42.404665000" lon="-2.450454000">
        <ele>451.70</ele>
        <time>2016-10-22T08:28:31Z</time>
      </trkpt>
      <trkpt lat="42.404690000" lon="-2.450415000">
        <ele>451.60</ele>
        <time>2016-10-22T08:28:32Z</time>
      </trkpt>
      <trkpt lat="42.404714000" lon="-2.450373000">
        <ele>451.40</ele>
        <time>2016-10-22T08:28:33Z</time>
      </trkpt>
      <trkpt lat="42.404736000" lon="-2.450323000">
        <ele>451.30</ele>
        <time>2016-10-22T08:28:34Z</time>
      </trkpt>
      <trkpt lat="42.404757000" lon="-2.450273000">
        <ele>451.20</ele>
        <time>2016-10-22T08:28:35Z</time>
      </trkpt>
      <trkpt lat="42.404788000" lon="-2.450234000">
        <ele>451.10</ele>
        <time>2016-10-22T08:28:36Z</time>
      </trkpt>
      <trkpt lat="42.404823000" lon="-2.450203000">
        <ele>451.00</ele>
        <time>2016-10-22T08:28:37Z</time>
      </trkpt>
      <trkpt lat="42.404861000" lon="-2.450176000">
        <ele>450.90</ele>
        <time>2016-10-22T08:28:38Z</time>
      </trkpt>
      <trkpt lat="42.404901000" lon="-2.450146000">
        <ele>451.00</ele>
        <time>2016-10-22T08:28:39Z</time>
      </trkpt>
      <trkpt lat="42.404940000" lon="-2.450115000">
        <ele>451.00</ele>
        <time>2016-10-22T08:28:40Z</time>
      </trkpt>
      <trkpt lat="42.404979000" lon="-2.450082000">
        <ele>451.00</ele>
        <time>2016-10-22T08:28:41Z</time>
      </trkpt>
      <trkpt lat="42.405018000" lon="-2.450051000">
        <ele>451.00</ele>
        <time>2016-10-22T08:28:42Z</time>
      </trkpt>
      <trkpt lat="42.405056000" lon="-2.450017000">
        <ele>450.90</ele>
        <time>2016-10-22T08:28:43Z</time>
      </trkpt>
      <trkpt lat="42.405095000" lon="-2.449982000">
        <ele>450.90</ele>
        <time>2016-10-22T08:28:44Z</time>
      </trkpt>
      <trkpt lat="42.405136000" lon="-2.449949000">
        <ele>450.70</ele>
        <time>2016-10-22T08:28:45Z</time>
      </trkpt>
      <trkpt lat="42.405179000" lon="-2.449918000">
        <ele>450.50</ele>
        <time>2016-10-22T08:28:46Z</time>
      </trkpt>
      <trkpt lat="42.405225000" lon="-2.449891000">
        <ele>450.60</ele>
        <time>2016-10-22T08:28:47Z</time>
      </trkpt>
      <trkpt lat="42.405270000" lon="-2.449864000">
        <ele>450.60</ele>
        <time>2016-10-22T08:28:48Z</time>
      </trkpt>
      <trkpt lat="42.405315000" lon="-2.449835000">
        <ele>450.50</ele>
        <time>2016-10-22T08:28:49Z</time>
      </trkpt>
      <trkpt lat="42.405403000" lon="-2.449780000">
        <ele>450.40</ele>
        <time>2016-10-22T08:28:51Z</time>
      </trkpt>
      <trkpt lat="42.405448000" lon="-2.449749000">
        <ele>450.30</ele>
        <time>2016-10-22T08:28:52Z</time>
      </trkpt>
      <trkpt lat="42.405493000" lon="-2.449715000">
        <ele>450.30</ele>
        <time>2016-10-22T08:28:53Z</time>
      </trkpt>
      <trkpt lat="42.405539000" lon="-2.449683000">
        <ele>450.30</ele>
        <time>2016-10-22T08:28:54Z</time>
      </trkpt>
      <trkpt lat="42.405585000" lon="-2.449652000">
        <ele>450.30</ele>
        <time>2016-10-22T08:28:55Z</time>
      </trkpt>
      <trkpt lat="42.405631000" lon="-2.449623000">
        <ele>450.30</ele>
        <time>2016-10-22T08:28:56Z</time>
      </trkpt>
      <trkpt lat="42.405679000" lon="-2.449592000">
        <ele>450.30</ele>
        <time>2016-10-22T08:28:57Z</time>
      </trkpt>
      <trkpt lat="42.405727000" lon="-2.449562000">
        <ele>450.40</ele>
        <time>2016-10-22T08:28:58Z</time>
      </trkpt>
      <trkpt lat="42.405776000" lon="-2.449534000">
        <ele>450.40</ele>
        <time>2016-10-22T08:28:59Z</time>
      </trkpt>
      <trkpt lat="42.405825000" lon="-2.449503000">
        <ele>450.40</ele>
        <time>2016-10-22T08:29:00Z</time>
      </trkpt>
      <trkpt lat="42.405875000" lon="-2.449475000">
        <ele>450.40</ele>
        <time>2016-10-22T08:29:01Z</time>
      </trkpt>
      <trkpt lat="42.405924000" lon="-2.449451000">
        <ele>450.50</ele>
        <time>2016-10-22T08:29:02Z</time>
      </trkpt>
      <trkpt lat="42.405973000" lon="-2.449424000">
        <ele>450.40</ele>
        <time>2016-10-22T08:29:03Z</time>
      </trkpt>
      <trkpt lat="42.406022000" lon="-2.449395000">
        <ele>450.30</ele>
        <time>2016-10-22T08:29:04Z</time>
      </trkpt>
      <trkpt lat="42.406068000" lon="-2.449366000">
        <ele>450.20</ele>
        <time>2016-10-22T08:29:05Z</time>
      </trkpt>
      <trkpt lat="42.406115000" lon="-2.449337000">
        <ele>450.20</ele>
        <time>2016-10-22T08:29:06Z</time>
      </trkpt>
      <trkpt lat="42.406160000" lon="-2.449306000">
        <ele>450.00</ele>
        <time>2016-10-22T08:29:07Z</time>
      </trkpt>
      <trkpt lat="42.406204000" lon="-2.449272000">
        <ele>449.90</ele>
        <time>2016-10-22T08:29:08Z</time>
      </trkpt>
      <trkpt lat="42.406248000" lon="-2.449241000">
        <ele>449.90</ele>
        <time>2016-10-22T08:29:09Z</time>
      </trkpt>
      <trkpt lat="42.406289000" lon="-2.449203000">
        <ele>450.00</ele>
        <time>2016-10-22T08:29:10Z</time>
      </trkpt>
      <trkpt lat="42.406333000" lon="-2.449163000">
        <ele>449.90</ele>
        <time>2016-10-22T08:29:11Z</time>
      </trkpt>
      <trkpt lat="42.406374000" lon="-2.449119000">
        <ele>449.90</ele>
        <time>2016-10-22T08:29:12Z</time>
      </trkpt>
      <trkpt lat="42.406416000" lon="-2.449073000">
        <ele>449.90</ele>
        <time>2016-10-22T08:29:13Z</time>
      </trkpt>
      <trkpt lat="42.406458000" lon="-2.449027000">
        <ele>449.80</ele>
        <time>2016-10-22T08:29:14Z</time>
      </trkpt>
      <trkpt lat="42.406503000" lon="-2.448983000">
        <ele>449.80</ele>
        <time>2016-10-22T08:29:15Z</time>
      </trkpt>
      <trkpt lat="42.406548000" lon="-2.448935000">
        <ele>449.80</ele>
        <time>2016-10-22T08:29:16Z</time>
      </trkpt>
      <trkpt lat="42.406594000" lon="-2.448886000">
        <ele>449.80</ele>
        <time>2016-10-22T08:29:17Z</time>
      </trkpt>
      <trkpt lat="42.406640000" lon="-2.448838000">
        <ele>449.80</ele>
        <time>2016-10-22T08:29:18Z</time>
      </trkpt>
      <trkpt lat="42.406685000" lon="-2.448786000">
        <ele>449.70</ele>
        <time>2016-10-22T08:29:19Z</time>
      </trkpt>
      <trkpt lat="42.406731000" lon="-2.448736000">
        <ele>449.60</ele>
        <time>2016-10-22T08:29:20Z</time>
      </trkpt>
      <trkpt lat="42.406776000" lon="-2.448691000">
        <ele>449.40</ele>
        <time>2016-10-22T08:29:21Z</time>
      </trkpt>
      <trkpt lat="42.406822000" lon="-2.448650000">
        <ele>449.30</ele>
        <time>2016-10-22T08:29:22Z</time>
      </trkpt>
      <trkpt lat="42.406868000" lon="-2.448612000">
        <ele>449.30</ele>
        <time>2016-10-22T08:29:23Z</time>
      </trkpt>
      <trkpt lat="42.406911000" lon="-2.448573000">
        <ele>449.30</ele>
        <time>2016-10-22T08:29:24Z</time>
      </trkpt>
      <trkpt lat="42.406957000" lon="-2.448535000">
        <ele>449.20</ele>
        <time>2016-10-22T08:29:25Z</time>
      </trkpt>
      <trkpt lat="42.407004000" lon="-2.448494000">
        <ele>449.20</ele>
        <time>2016-10-22T08:29:26Z</time>
      </trkpt>
      <trkpt lat="42.407046000" lon="-2.448448000">
        <ele>449.10</ele>
        <time>2016-10-22T08:29:27Z</time>
      </trkpt>
      <trkpt lat="42.407087000" lon="-2.448398000">
        <ele>449.10</ele>
        <time>2016-10-22T08:29:28Z</time>
      </trkpt>
      <trkpt lat="42.407120000" lon="-2.448336000">
        <ele>448.80</ele>
        <time>2016-10-22T08:29:29Z</time>
      </trkpt>
      <trkpt lat="42.407142000" lon="-2.448261000">
        <ele>448.60</ele>
        <time>2016-10-22T08:29:30Z</time>
      </trkpt>
      <trkpt lat="42.407147000" lon="-2.448178000">
        <ele>448.10</ele>
        <time>2016-10-22T08:29:31Z</time>
      </trkpt>
      <trkpt lat="42.407135000" lon="-2.448088000">
        <ele>447.80</ele>
        <time>2016-10-22T08:29:32Z</time>
      </trkpt>
      <trkpt lat="42.407117000" lon="-2.448005000">
        <ele>447.50</ele>
        <time>2016-10-22T08:29:33Z</time>
      </trkpt>
      <trkpt lat="42.407101000" lon="-2.447920000">
        <ele>447.20</ele>
        <time>2016-10-22T08:29:34Z</time>
      </trkpt>
      <trkpt lat="42.407084000" lon="-2.447835000">
        <ele>447.00</ele>
        <time>2016-10-22T08:29:35Z</time>
      </trkpt>
      <trkpt lat="42.407064000" lon="-2.447753000">
        <ele>446.90</ele>
        <time>2016-10-22T08:29:36Z</time>
      </trkpt>
      <trkpt lat="42.407048000" lon="-2.447668000">
        <ele>446.80</ele>
        <time>2016-10-22T08:29:37Z</time>
      </trkpt>
      <trkpt lat="42.407032000" lon="-2.447587000">
        <ele>446.70</ele>
        <time>2016-10-22T08:29:38Z</time>
      </trkpt>
      <trkpt lat="42.407016000" lon="-2.447501000">
        <ele>446.70</ele>
        <time>2016-10-22T08:29:39Z</time>
      </trkpt>
      <trkpt lat="42.407001000" lon="-2.447417000">
        <ele>446.60</ele>
        <time>2016-10-22T08:29:40Z</time>
      </trkpt>
      <trkpt lat="42.406984000" lon="-2.447333000">
        <ele>446.30</ele>
        <time>2016-10-22T08:29:41Z</time>
      </trkpt>
      <trkpt lat="42.406967000" lon="-2.447248000">
        <ele>446.00</ele>
        <time>2016-10-22T08:29:42Z</time>
      </trkpt>
      <trkpt lat="42.406952000" lon="-2.447163000">
        <ele>445.80</ele>
        <time>2016-10-22T08:29:43Z</time>
      </trkpt>
      <trkpt lat="42.406939000" lon="-2.447077000">
        <ele>445.60</ele>
        <time>2016-10-22T08:29:44Z</time>
      </trkpt>
      <trkpt lat="42.406930000" lon="-2.446995000">
        <ele>445.40</ele>
        <time>2016-10-22T08:29:45Z</time>
      </trkpt>
      <trkpt lat="42.406919000" lon="-2.446915000">
        <ele>445.30</ele>
        <time>2016-10-22T08:29:46Z</time>
      </trkpt>
      <trkpt lat="42.406907000" lon="-2.446839000">
        <ele>445.20</ele>
        <time>2016-10-22T08:29:47Z</time>
      </trkpt>
      <trkpt lat="42.406891000" lon="-2.446766000">
        <ele>445.10</ele>
        <time>2016-10-22T08:29:48Z</time>
      </trkpt>
      <trkpt lat="42.406871000" lon="-2.446695000">
        <ele>445.10</ele>
        <time>2016-10-22T08:29:49Z</time>
      </trkpt>
      <trkpt lat="42.406852000" lon="-2.446624000">
        <ele>445.00</ele>
        <time>2016-10-22T08:29:50Z</time>
      </trkpt>
      <trkpt lat="42.406853000" lon="-2.446479000">
        <ele>444.90</ele>
        <time>2016-10-22T08:29:52Z</time>
      </trkpt>
      <trkpt lat="42.406881000" lon="-2.446415000">
        <ele>444.80</ele>
        <time>2016-10-22T08:29:53Z</time>
      </trkpt>
      <trkpt lat="42.406915000" lon="-2.446358000">
        <ele>444.70</ele>
        <time>2016-10-22T08:29:54Z</time>
      </trkpt>
      <trkpt lat="42.406954000" lon="-2.446301000">
        <ele>444.30</ele>
        <time>2016-10-22T08:29:55Z</time>
      </trkpt>
      <trkpt lat="42.406997000" lon="-2.446240000">
        <ele>443.90</ele>
        <time>2016-10-22T08:29:56Z</time>
      </trkpt>
      <trkpt lat="42.407035000" lon="-2.446174000">
        <ele>443.70</ele>
        <time>2016-10-22T08:29:57Z</time>
      </trkpt>
      <trkpt lat="42.407068000" lon="-2.446105000">
        <ele>443.50</ele>
        <time>2016-10-22T08:29:58Z</time>
      </trkpt>
      <trkpt lat="42.407101000" lon="-2.446032000">
        <ele>443.30</ele>
        <time>2016-10-22T08:29:59Z</time>
      </trkpt>
      <trkpt lat="42.407132000" lon="-2.445955000">
        <ele>443.20</ele>
        <time>2016-10-22T08:30:00Z</time>
      </trkpt>
      <trkpt lat="42.407159000" lon="-2.445879000">
        <ele>443.30</ele>
        <time>2016-10-22T08:30:01Z</time>
      </trkpt>
      <trkpt lat="42.407182000" lon="-2.445801000">
        <ele>443.30</ele>
        <time>2016-10-22T08:30:02Z</time>
      </trkpt>
      <trkpt lat="42.407206000" lon="-2.445720000">
        <ele>443.20</ele>
        <time>2016-10-22T08:30:03Z</time>
      </trkpt>
      <trkpt lat="42.407230000" lon="-2.445642000">
        <ele>443.20</ele>
        <time>2016-10-22T08:30:04Z</time>
      </trkpt>
      <trkpt lat="42.407256000" lon="-2.445567000">
        <ele>443.20</ele>
        <time>2016-10-22T08:30:05Z</time>
      </trkpt>
      <trkpt lat="42.407280000" lon="-2.445493000">
        <ele>443.10</ele>
        <time>2016-10-22T08:30:06Z</time>
      </trkpt>
      <trkpt lat="42.407301000" lon="-2.445419000">
        <ele>442.90</ele>
        <time>2016-10-22T08:30:07Z</time>
      </trkpt>
      <trkpt lat="42.407318000" lon="-2.445345000">
        <ele>442.70</ele>
        <time>2016-10-22T08:30:08Z</time>
      </trkpt>
      <trkpt lat="42.407337000" lon="-2.445279000">
        <ele>442.60</ele>
        <time>2016-10-22T08:30:09Z</time>
      </trkpt>
      <trkpt lat="42.407356000" lon="-2.445218000">
        <ele>442.50</ele>
        <time>2016-10-22T08:30:10Z</time>
      </trkpt>
      <trkpt lat="42.407375000" lon="-2.445163000">
        <ele>442.40</ele>
        <time>2016-10-22T08:30:11Z</time>
      </trkpt>
      <trkpt lat="42.407392000" lon="-2.445115000">
        <ele>442.40</ele>
        <time>2016-10-22T08:30:12Z</time>
      </trkpt>
      <trkpt lat="42.407404000" lon="-2.445070000">
        <ele>442.60</ele>
        <time>2016-10-22T08:30:13Z</time>
      </trkpt>
      <trkpt lat="42.407415000" lon="-2.445031000">
        <ele>442.80</ele>
        <time>2016-10-22T08:30:14Z</time>
      </trkpt>
      <trkpt lat="42.407424000" lon="-2.445000000">
        <ele>442.80</ele>
        <time>2016-10-22T08:30:15Z</time>
      </trkpt>
      <trkpt lat="42.407434000" lon="-2.444975000">
        <ele>442.70</ele>
        <time>2016-10-22T08:30:16Z</time>
      </trkpt>
      <trkpt lat="42.407445000" lon="-2.444952000">
        <ele>442.90</ele>
        <time>2016-10-22T08:30:17Z</time>
      </trkpt>
      <trkpt lat="42.407451000" lon="-2.444927000">
        <ele>443.00</ele>
        <time>2016-10-22T08:30:18Z</time>
      </trkpt>
      <trkpt lat="42.407458000" lon="-2.444903000">
        <ele>443.20</ele>
        <time>2016-10-22T08:30:19Z</time>
      </trkpt>
      <trkpt lat="42.407463000" lon="-2.444877000">
        <ele>443.40</ele>
        <time>2016-10-22T08:30:20Z</time>
      </trkpt>
      <trkpt lat="42.407468000" lon="-2.444872000">
        <ele>443.50</ele>
        <time>2016-10-22T08:30:21Z</time>
      </trkpt>
      <trkpt lat="42.407468000" lon="-2.444872000">
        <ele>443.60</ele>
        <time>2016-10-22T08:30:22Z</time>
      </trkpt>
      <trkpt lat="42.407468000" lon="-2.444872000">
        <ele>443.70</ele>
        <time>2016-10-22T08:30:23Z</time>
      </trkpt>
      <trkpt lat="42.407468000" lon="-2.444872000">
        <ele>443.70</ele>
        <time>2016-10-22T08:30:24Z</time>
      </trkpt>
      <trkpt lat="42.407468000" lon="-2.444872000">
        <ele>443.70</ele>
        <time>2016-10-22T08:30:25Z</time>
      </trkpt>
      <trkpt lat="42.407468000" lon="-2.444872000">
        <ele>443.80</ele>
        <time>2016-10-22T08:30:26Z</time>
      </trkpt>
      <trkpt lat="42.407468000" lon="-2.444872000">
        <ele>443.90</ele>
        <time>2016-10-22T08:30:27Z</time>
      </trkpt>
      <trkpt lat="42.407468000" lon="-2.444872000">
        <ele>443.90</ele>
        <time>2016-10-22T08:30:28Z</time>
      </trkpt>
      <trkpt lat="42.407468000" lon="-2.444872000">
        <ele>444.00</ele>
        <time>2016-10-22T08:30:29Z</time>
      </trkpt>
      <trkpt lat="42.407468000" lon="-2.444872000">
        <ele>444.10</ele>
        <time>2016-10-22T08:30:30Z</time>
      </trkpt>
      <trkpt lat="42.407468000" lon="-2.444872000">
        <ele>444.10</ele>
        <time>2016-10-22T08:30:31Z</time>
      </trkpt>
      <trkpt lat="42.407468000" lon="-2.444872000">
        <ele>444.10</ele>
        <time>2016-10-22T08:30:32Z</time>
      </trkpt>
      <trkpt lat="42.407468000" lon="-2.444872000">
        <ele>444.10</ele>
        <time>2016-10-22T08:30:33Z</time>
      </trkpt>
      <trkpt lat="42.407468000" lon="-2.444872000">
        <ele>444.10</ele>
        <time>2016-10-22T08:30:34Z</time>
      </trkpt>
      <trkpt lat="42.407468000" lon="-2.444872000">
        <ele>444.10</ele>
        <time>2016-10-22T08:30:35Z</time>
      </trkpt>
      <trkpt lat="42.407468000" lon="-2.444872000">
        <ele>444.10</ele>
        <time>2016-10-22T08:30:36Z</time>
      </trkpt>
      <trkpt lat="42.407468000" lon="-2.444872000">
        <ele>444.10</ele>
        <time>2016-10-22T08:30:37Z</time>
      </trkpt>
      <trkpt lat="42.407468000" lon="-2.444872000">
        <ele>444.10</ele>
        <time>2016-10-22T08:30:38Z</time>
      </trkpt>
      <trkpt lat="42.407468000" lon="-2.444872000">
        <ele>444.10</ele>
        <time>2016-10-22T08:30:39Z</time>
      </trkpt>
      <trkpt lat="42.407468000" lon="-2.444872000">
        <ele>444.10</ele>
        <time>2016-10-22T08:30:40Z</time>
      </trkpt>
      <trkpt lat="42.407468000" lon="-2.444872000">
        <ele>444.00</ele>
        <time>2016-10-22T08:30:41Z</time>
      </trkpt>
      <trkpt lat="42.407468000" lon="-2.444872000">
        <ele>443.90</ele>
        <time>2016-10-22T08:30:42Z</time>
      </trkpt>
      <trkpt lat="42.407468000" lon="-2.444872000">
        <ele>443.90</ele>
        <time>2016-10-22T08:30:43Z</time>
      </trkpt>
      <trkpt lat="42.407468000" lon="-2.444872000">
        <ele>443.90</ele>
        <time>2016-10-22T08:30:44Z</time>
      </trkpt>
      <trkpt lat="42.407468000" lon="-2.444872000">
        <ele>443.90</ele>
        <time>2016-10-22T08:30:45Z</time>
      </trkpt>
      <trkpt lat="42.407468000" lon="-2.444872000">
        <ele>443.90</ele>
        <time>2016-10-22T08:30:46Z</time>
      </trkpt>
      <trkpt lat="42.407468000" lon="-2.444872000">
        <ele>443.90</ele>
        <time>2016-10-22T08:30:47Z</time>
      </trkpt>
      <trkpt lat="42.407468000" lon="-2.444872000">
        <ele>444.00</ele>
        <time>2016-10-22T08:30:48Z</time>
      </trkpt>
      <trkpt lat="42.407468000" lon="-2.444872000">
        <ele>444.00</ele>
        <time>2016-10-22T08:30:49Z</time>
      </trkpt>
      <trkpt lat="42.407468000" lon="-2.444872000">
        <ele>444.00</ele>
        <time>2016-10-22T08:30:50Z</time>
      </trkpt>
      <trkpt lat="42.407468000" lon="-2.444872000">
        <ele>444.10</ele>
        <time>2016-10-22T08:30:51Z</time>
      </trkpt>
      <trkpt lat="42.407468000" lon="-2.444872000">
        <ele>444.10</ele>
        <time>2016-10-22T08:30:53Z</time>
      </trkpt>
      <trkpt lat="42.407468000" lon="-2.444872000">
        <ele>444.10</ele>
        <time>2016-10-22T08:30:54Z</time>
      </trkpt>
      <trkpt lat="42.407468000" lon="-2.444872000">
        <ele>444.10</ele>
        <time>2016-10-22T08:30:55Z</time>
      </trkpt>
      <trkpt lat="42.407468000" lon="-2.444872000">
        <ele>444.10</ele>
        <time>2016-10-22T08:30:56Z</time>
      </trkpt>
      <trkpt lat="42.407468000" lon="-2.444872000">
        <ele>444.10</ele>
        <time>2016-10-22T08:30:57Z</time>
      </trkpt>
      <trkpt lat="42.407468000" lon="-2.444872000">
        <ele>444.10</ele>
        <time>2016-10-22T08:30:58Z</time>
      </trkpt>
      <trkpt lat="42.407468000" lon="-2.444872000">
        <ele>444.10</ele>
        <time>2016-10-22T08:30:59Z</time>
      </trkpt>
      <trkpt lat="42.407468000" lon="-2.444872000">
        <ele>444.10</ele>
        <time>2016-10-22T08:31:00Z</time>
      </trkpt>
      <trkpt lat="42.407468000" lon="-2.444867000">
        <ele>444.10</ele>
        <time>2016-10-22T08:31:01Z</time>
      </trkpt>
      <trkpt lat="42.407476000" lon="-2.444838000">
        <ele>444.10</ele>
        <time>2016-10-22T08:31:02Z</time>
      </trkpt>
      <trkpt lat="42.407486000" lon="-2.444810000">
        <ele>444.10</ele>
        <time>2016-10-22T08:31:03Z</time>
      </trkpt>
      <trkpt lat="42.407498000" lon="-2.444773000">
        <ele>444.10</ele>
        <time>2016-10-22T08:31:04Z</time>
      </trkpt>
      <trkpt lat="42.407515000" lon="-2.444735000">
        <ele>444.10</ele>
        <time>2016-10-22T08:31:05Z</time>
      </trkpt>
      <trkpt lat="42.407539000" lon="-2.444692000">
        <ele>444.00</ele>
        <time>2016-10-22T08:31:06Z</time>
      </trkpt>
      <trkpt lat="42.407562000" lon="-2.444648000">
        <ele>443.80</ele>
        <time>2016-10-22T08:31:07Z</time>
      </trkpt>
      <trkpt lat="42.407588000" lon="-2.444595000">
        <ele>443.70</ele>
        <time>2016-10-22T08:31:08Z</time>
      </trkpt>
      <trkpt lat="42.407618000" lon="-2.444539000">
        <ele>443.40</ele>
        <time>2016-10-22T08:31:09Z</time>
      </trkpt>
      <trkpt lat="42.407648000" lon="-2.444483000">
        <ele>443.20</ele>
        <time>2016-10-22T08:31:10Z</time>
      </trkpt>
      <trkpt lat="42.407680000" lon="-2.444426000">
        <ele>443.00</ele>
        <time>2016-10-22T08:31:11Z</time>
      </trkpt>
      <trkpt lat="42.407714000" lon="-2.444369000">
        <ele>442.90</ele>
        <time>2016-10-22T08:31:12Z</time>
      </trkpt>
      <trkpt lat="42.407748000" lon="-2.444314000">
        <ele>442.80</ele>
        <time>2016-10-22T08:31:13Z</time>
      </trkpt>
      <trkpt lat="42.407777000" lon="-2.444259000">
        <ele>442.80</ele>
        <time>2016-10-22T08:31:14Z</time>
      </trkpt>
      <trkpt lat="42.407811000" lon="-2.444208000">
        <ele>442.70</ele>
        <time>2016-10-22T08:31:15Z</time>
      </trkpt>
      <trkpt lat="42.407846000" lon="-2.444156000">
        <ele>442.70</ele>
        <time>2016-10-22T08:31:16Z</time>
      </trkpt>
      <trkpt lat="42.407879000" lon="-2.444109000">
        <ele>442.40</ele>
        <time>2016-10-22T08:31:17Z</time>
      </trkpt>
      <trkpt lat="42.407911000" lon="-2.444062000">
        <ele>442.20</ele>
        <time>2016-10-22T08:31:18Z</time>
      </trkpt>
      <trkpt lat="42.407941000" lon="-2.444018000">
        <ele>442.10</ele>
        <time>2016-10-22T08:31:19Z</time>
      </trkpt>
      <trkpt lat="42.407968000" lon="-2.443973000">
        <ele>442.10</ele>
        <time>2016-10-22T08:31:20Z</time>
      </trkpt>
      <trkpt lat="42.407993000" lon="-2.443929000">
        <ele>441.90</ele>
        <time>2016-10-22T08:31:21Z</time>
      </trkpt>
      <trkpt lat="42.408017000" lon="-2.443883000">
        <ele>441.70</ele>
        <time>2016-10-22T08:31:22Z</time>
      </trkpt>
      <trkpt lat="42.408039000" lon="-2.443836000">
        <ele>441.60</ele>
        <time>2016-10-22T08:31:23Z</time>
      </trkpt>
      <trkpt lat="42.408064000" lon="-2.443795000">
        <ele>441.60</ele>
        <time>2016-10-22T08:31:24Z</time>
      </trkpt>
      <trkpt lat="42.408087000" lon="-2.443750000">
        <ele>441.50</ele>
        <time>2016-10-22T08:31:25Z</time>
      </trkpt>
      <trkpt lat="42.408113000" lon="-2.443703000">
        <ele>441.50</ele>
        <time>2016-10-22T08:31:26Z</time>
      </trkpt>
      <trkpt lat="42.408139000" lon="-2.443658000">
        <ele>441.30</ele>
        <time>2016-10-22T08:31:27Z</time>
      </trkpt>
      <trkpt lat="42.408172000" lon="-2.443609000">
        <ele>441.20</ele>
        <time>2016-10-22T08:31:28Z</time>
      </trkpt>
      <trkpt lat="42.408205000" lon="-2.443552000">
        <ele>441.20</ele>
        <time>2016-10-22T08:31:29Z</time>
      </trkpt>
      <trkpt lat="42.408239000" lon="-2.443494000">
        <ele>441.10</ele>
        <time>2016-10-22T08:31:30Z</time>
      </trkpt>
      <trkpt lat="42.408275000" lon="-2.443437000">
        <ele>441.00</ele>
        <time>2016-10-22T08:31:31Z</time>
      </trkpt>
      <trkpt lat="42.408310000" lon="-2.443378000">
        <ele>440.90</ele>
        <time>2016-10-22T08:31:32Z</time>
      </trkpt>
      <trkpt lat="42.408349000" lon="-2.443322000">
        <ele>440.70</ele>
        <time>2016-10-22T08:31:33Z</time>
      </trkpt>
      <trkpt lat="42.408387000" lon="-2.443269000">
        <ele>440.60</ele>
        <time>2016-10-22T08:31:34Z</time>
      </trkpt>
      <trkpt lat="42.408424000" lon="-2.443221000">
        <ele>440.10</ele>
        <time>2016-10-22T08:31:35Z</time>
      </trkpt>
      <trkpt lat="42.408461000" lon="-2.443179000">
        <ele>439.80</ele>
        <time>2016-10-22T08:31:36Z</time>
      </trkpt>
      <trkpt lat="42.408497000" lon="-2.443138000">
        <ele>439.50</ele>
        <time>2016-10-22T08:31:37Z</time>
      </trkpt>
      <trkpt lat="42.408540000" lon="-2.443116000">
        <ele>439.30</ele>
        <time>2016-10-22T08:31:38Z</time>
      </trkpt>
      <trkpt lat="42.408578000" lon="-2.443099000">
        <ele>439.10</ele>
        <time>2016-10-22T08:31:39Z</time>
      </trkpt>
      <trkpt lat="42.408616000" lon="-2.443075000">
        <ele>439.00</ele>
        <time>2016-10-22T08:31:40Z</time>
      </trkpt>
      <trkpt lat="42.408655000" lon="-2.443041000">
        <ele>438.90</ele>
        <time>2016-10-22T08:31:41Z</time>
      </trkpt>
      <trkpt lat="42.408698000" lon="-2.443003000">
        <ele>438.80</ele>
        <time>2016-10-22T08:31:42Z</time>
      </trkpt>
      <trkpt lat="42.408741000" lon="-2.442964000">
        <ele>438.70</ele>
        <time>2016-10-22T08:31:43Z</time>
      </trkpt>
      <trkpt lat="42.408783000" lon="-2.442928000">
        <ele>438.70</ele>
        <time>2016-10-22T08:31:44Z</time>
      </trkpt>
      <trkpt lat="42.408825000" lon="-2.442896000">
        <ele>438.60</ele>
        <time>2016-10-22T08:31:45Z</time>
      </trkpt>
      <trkpt lat="42.408871000" lon="-2.442861000">
        <ele>438.60</ele>
        <time>2016-10-22T08:31:46Z</time>
      </trkpt>
      <trkpt lat="42.408918000" lon="-2.442830000">
        <ele>438.50</ele>
        <time>2016-10-22T08:31:47Z</time>
      </trkpt>
      <trkpt lat="42.408964000" lon="-2.442795000">
        <ele>438.50</ele>
        <time>2016-10-22T08:31:48Z</time>
      </trkpt>
      <trkpt lat="42.409010000" lon="-2.442760000">
        <ele>438.50</ele>
        <time>2016-10-22T08:31:49Z</time>
      </trkpt>
      <trkpt lat="42.409052000" lon="-2.442722000">
        <ele>438.50</ele>
        <time>2016-10-22T08:31:50Z</time>
      </trkpt>
      <trkpt lat="42.409092000" lon="-2.442675000">
        <ele>438.60</ele>
        <time>2016-10-22T08:31:51Z</time>
      </trkpt>
      <trkpt lat="42.409131000" lon="-2.442629000">
        <ele>438.60</ele>
        <time>2016-10-22T08:31:52Z</time>
      </trkpt>
      <trkpt lat="42.409220000" lon="-2.442551000">
        <ele>438.70</ele>
        <time>2016-10-22T08:31:54Z</time>
      </trkpt>
      <trkpt lat="42.409270000" lon="-2.442518000">
        <ele>438.70</ele>
        <time>2016-10-22T08:31:55Z</time>
      </trkpt>
      <trkpt lat="42.409322000" lon="-2.442486000">
        <ele>438.80</ele>
        <time>2016-10-22T08:31:56Z</time>
      </trkpt>
      <trkpt lat="42.409375000" lon="-2.442451000">
        <ele>438.70</ele>
        <time>2016-10-22T08:31:57Z</time>
      </trkpt>
      <trkpt lat="42.409429000" lon="-2.442416000">
        <ele>438.70</ele>
        <time>2016-10-22T08:31:58Z</time>
      </trkpt>
      <trkpt lat="42.409487000" lon="-2.442384000">
        <ele>438.60</ele>
        <time>2016-10-22T08:31:59Z</time>
      </trkpt>
      <trkpt lat="42.409545000" lon="-2.442354000">
        <ele>438.60</ele>
        <time>2016-10-22T08:32:00Z</time>
      </trkpt>
      <trkpt lat="42.409603000" lon="-2.442327000">
        <ele>438.60</ele>
        <time>2016-10-22T08:32:01Z</time>
      </trkpt>
      <trkpt lat="42.409659000" lon="-2.442303000">
        <ele>438.60</ele>
        <time>2016-10-22T08:32:02Z</time>
      </trkpt>
      <trkpt lat="42.409716000" lon="-2.442278000">
        <ele>438.60</ele>
        <time>2016-10-22T08:32:03Z</time>
      </trkpt>
      <trkpt lat="42.409773000" lon="-2.442252000">
        <ele>438.60</ele>
        <time>2016-10-22T08:32:04Z</time>
      </trkpt>
      <trkpt lat="42.409829000" lon="-2.442224000">
        <ele>438.40</ele>
        <time>2016-10-22T08:32:05Z</time>
      </trkpt>
      <trkpt lat="42.409887000" lon="-2.442197000">
        <ele>438.30</ele>
        <time>2016-10-22T08:32:06Z</time>
      </trkpt>
      <trkpt lat="42.409941000" lon="-2.442163000">
        <ele>438.10</ele>
        <time>2016-10-22T08:32:07Z</time>
      </trkpt>
      <trkpt lat="42.409994000" lon="-2.442128000">
        <ele>438.00</ele>
        <time>2016-10-22T08:32:08Z</time>
      </trkpt>
      <trkpt lat="42.410048000" lon="-2.442094000">
        <ele>437.80</ele>
        <time>2016-10-22T08:32:09Z</time>
      </trkpt>
      <trkpt lat="42.410104000" lon="-2.442061000">
        <ele>437.80</ele>
        <time>2016-10-22T08:32:10Z</time>
      </trkpt>
      <trkpt lat="42.410160000" lon="-2.442025000">
        <ele>437.70</ele>
        <time>2016-10-22T08:32:11Z</time>
      </trkpt>
      <trkpt lat="42.410213000" lon="-2.441991000">
        <ele>437.60</ele>
        <time>2016-10-22T08:32:12Z</time>
      </trkpt>
      <trkpt lat="42.410266000" lon="-2.441954000">
        <ele>437.60</ele>
        <time>2016-10-22T08:32:13Z</time>
      </trkpt>
      <trkpt lat="42.410321000" lon="-2.441922000">
        <ele>437.60</ele>
        <time>2016-10-22T08:32:14Z</time>
      </trkpt>
      <trkpt lat="42.410374000" lon="-2.441890000">
        <ele>437.40</ele>
        <time>2016-10-22T08:32:15Z</time>
      </trkpt>
      <trkpt lat="42.410424000" lon="-2.441860000">
        <ele>437.20</ele>
        <time>2016-10-22T08:32:16Z</time>
      </trkpt>
      <trkpt lat="42.410478000" lon="-2.441833000">
        <ele>437.30</ele>
        <time>2016-10-22T08:32:17Z</time>
      </trkpt>
      <trkpt lat="42.410531000" lon="-2.441808000">
        <ele>437.40</ele>
        <time>2016-10-22T08:32:18Z</time>
      </trkpt>
      <trkpt lat="42.410587000" lon="-2.441785000">
        <ele>437.20</ele>
        <time>2016-10-22T08:32:19Z</time>
      </trkpt>
      <trkpt lat="42.410636000" lon="-2.441760000">
        <ele>437.10</ele>
        <time>2016-10-22T08:32:20Z</time>
      </trkpt>
      <trkpt lat="42.410684000" lon="-2.441737000">
        <ele>437.00</ele>
        <time>2016-10-22T08:32:21Z</time>
      </trkpt>
      <trkpt lat="42.410734000" lon="-2.441712000">
        <ele>437.00</ele>
        <time>2016-10-22T08:32:22Z</time>
      </trkpt>
      <trkpt lat="42.410784000" lon="-2.441684000">
        <ele>437.00</ele>
        <time>2016-10-22T08:32:23Z</time>
      </trkpt>
      <trkpt lat="42.410831000" lon="-2.441653000">
        <ele>437.00</ele>
        <time>2016-10-22T08:32:24Z</time>
      </trkpt>
      <trkpt lat="42.410876000" lon="-2.441611000">
        <ele>437.00</ele>
        <time>2016-10-22T08:32:25Z</time>
      </trkpt>
      <trkpt lat="42.410915000" lon="-2.441563000">
        <ele>437.00</ele>
        <time>2016-10-22T08:32:26Z</time>
      </trkpt>
      <trkpt lat="42.410948000" lon="-2.441511000">
        <ele>436.90</ele>
        <time>2016-10-22T08:32:27Z</time>
      </trkpt>
      <trkpt lat="42.410976000" lon="-2.441458000">
        <ele>436.80</ele>
        <time>2016-10-22T08:32:28Z</time>
      </trkpt>
      <trkpt lat="42.411007000" lon="-2.441414000">
        <ele>436.70</ele>
        <time>2016-10-22T08:32:29Z</time>
      </trkpt>
      <trkpt lat="42.411038000" lon="-2.441364000">
        <ele>436.60</ele>
        <time>2016-10-22T08:32:30Z</time>
      </trkpt>
      <trkpt lat="42.411068000" lon="-2.441317000">
        <ele>436.50</ele>
        <time>2016-10-22T08:32:31Z</time>
      </trkpt>
      <trkpt lat="42.411101000" lon="-2.441270000">
        <ele>436.40</ele>
        <time>2016-10-22T08:32:32Z</time>
      </trkpt>
      <trkpt lat="42.411138000" lon="-2.441223000">
        <ele>436.40</ele>
        <time>2016-10-22T08:32:33Z</time>
      </trkpt>
      <trkpt lat="42.411173000" lon="-2.441181000">
        <ele>436.40</ele>
        <time>2016-10-22T08:32:34Z</time>
      </trkpt>
      <trkpt lat="42.411214000" lon="-2.441139000">
        <ele>436.40</ele>
        <time>2016-10-22T08:32:35Z</time>
      </trkpt>
      <trkpt lat="42.411259000" lon="-2.441103000">
        <ele>436.40</ele>
        <time>2016-10-22T08:32:36Z</time>
      </trkpt>
      <trkpt lat="42.411301000" lon="-2.441072000">
        <ele>436.40</ele>
        <time>2016-10-22T08:32:37Z</time>
      </trkpt>
      <trkpt lat="42.411347000" lon="-2.441038000">
        <ele>436.40</ele>
        <time>2016-10-22T08:32:38Z</time>
      </trkpt>
      <trkpt lat="42.411389000" lon="-2.441017000">
        <ele>436.30</ele>
        <time>2016-10-22T08:32:39Z</time>
      </trkpt>
      <trkpt lat="42.411432000" lon="-2.441010000">
        <ele>436.20</ele>
        <time>2016-10-22T08:32:40Z</time>
      </trkpt>
      <trkpt lat="42.411473000" lon="-2.441021000">
        <ele>436.10</ele>
        <time>2016-10-22T08:32:41Z</time>
      </trkpt>
      <trkpt lat="42.411515000" lon="-2.441030000">
        <ele>436.00</ele>
        <time>2016-10-22T08:32:42Z</time>
      </trkpt>
      <trkpt lat="42.411560000" lon="-2.441028000">
        <ele>435.90</ele>
        <time>2016-10-22T08:32:43Z</time>
      </trkpt>
      <trkpt lat="42.411607000" lon="-2.441015000">
        <ele>435.80</ele>
        <time>2016-10-22T08:32:44Z</time>
      </trkpt>
      <trkpt lat="42.411652000" lon="-2.440985000">
        <ele>435.80</ele>
        <time>2016-10-22T08:32:45Z</time>
      </trkpt>
      <trkpt lat="42.411694000" lon="-2.440944000">
        <ele>435.80</ele>
        <time>2016-10-22T08:32:46Z</time>
      </trkpt>
      <trkpt lat="42.411731000" lon="-2.440894000">
        <ele>435.70</ele>
        <time>2016-10-22T08:32:47Z</time>
      </trkpt>
      <trkpt lat="42.411770000" lon="-2.440841000">
        <ele>435.70</ele>
        <time>2016-10-22T08:32:48Z</time>
      </trkpt>
      <trkpt lat="42.411809000" lon="-2.440786000">
        <ele>435.50</ele>
        <time>2016-10-22T08:32:49Z</time>
      </trkpt>
      <trkpt lat="42.411846000" lon="-2.440735000">
        <ele>435.40</ele>
        <time>2016-10-22T08:32:50Z</time>
      </trkpt>
      <trkpt lat="42.411880000" lon="-2.440685000">
        <ele>435.40</ele>
        <time>2016-10-22T08:32:51Z</time>
      </trkpt>
      <trkpt lat="42.411912000" lon="-2.440639000">
        <ele>435.40</ele>
        <time>2016-10-22T08:32:52Z</time>
      </trkpt>
      <trkpt lat="42.411947000" lon="-2.440594000">
        <ele>435.30</ele>
        <time>2016-10-22T08:32:53Z</time>
      </trkpt>
      <trkpt lat="42.412023000" lon="-2.440508000">
        <ele>435.10</ele>
        <time>2016-10-22T08:32:55Z</time>
      </trkpt>
      <trkpt lat="42.412067000" lon="-2.440469000">
        <ele>434.90</ele>
        <time>2016-10-22T08:32:56Z</time>
      </trkpt>
      <trkpt lat="42.412114000" lon="-2.440427000">
        <ele>434.80</ele>
        <time>2016-10-22T08:32:57Z</time>
      </trkpt>
      <trkpt lat="42.412163000" lon="-2.440383000">
        <ele>434.80</ele>
        <time>2016-10-22T08:32:58Z</time>
      </trkpt>
      <trkpt lat="42.412213000" lon="-2.440340000">
        <ele>434.70</ele>
        <time>2016-10-22T08:32:59Z</time>
      </trkpt>
      <trkpt lat="42.412264000" lon="-2.440299000">
        <ele>434.70</ele>
        <time>2016-10-22T08:33:00Z</time>
      </trkpt>
      <trkpt lat="42.412318000" lon="-2.440257000">
        <ele>434.70</ele>
        <time>2016-10-22T08:33:01Z</time>
      </trkpt>
      <trkpt lat="42.412374000" lon="-2.440217000">
        <ele>434.70</ele>
        <time>2016-10-22T08:33:02Z</time>
      </trkpt>
      <trkpt lat="42.412426000" lon="-2.440178000">
        <ele>434.70</ele>
        <time>2016-10-22T08:33:03Z</time>
      </trkpt>
      <trkpt lat="42.412476000" lon="-2.440140000">
        <ele>434.80</ele>
        <time>2016-10-22T08:33:04Z</time>
      </trkpt>
      <trkpt lat="42.412522000" lon="-2.440102000">
        <ele>435.00</ele>
        <time>2016-10-22T08:33:05Z</time>
      </trkpt>
      <trkpt lat="42.412567000" lon="-2.440062000">
        <ele>435.20</ele>
        <time>2016-10-22T08:33:06Z</time>
      </trkpt>
      <trkpt lat="42.412613000" lon="-2.440026000">
        <ele>435.40</ele>
        <time>2016-10-22T08:33:07Z</time>
      </trkpt>
      <trkpt lat="42.412659000" lon="-2.439988000">
        <ele>435.50</ele>
        <time>2016-10-22T08:33:08Z</time>
      </trkpt>
      <trkpt lat="42.412703000" lon="-2.439949000">
        <ele>435.50</ele>
        <time>2016-10-22T08:33:09Z</time>
      </trkpt>
      <trkpt lat="42.412749000" lon="-2.439910000">
        <ele>435.40</ele>
        <time>2016-10-22T08:33:10Z</time>
      </trkpt>
      <trkpt lat="42.412795000" lon="-2.439872000">
        <ele>435.40</ele>
        <time>2016-10-22T08:33:11Z</time>
      </trkpt>
      <trkpt lat="42.412840000" lon="-2.439831000">
        <ele>435.40</ele>
        <time>2016-10-22T08:33:12Z</time>
      </trkpt>
      <trkpt lat="42.412885000" lon="-2.439791000">
        <ele>435.20</ele>
        <time>2016-10-22T08:33:13Z</time>
      </trkpt>
      <trkpt lat="42.412933000" lon="-2.439752000">
        <ele>435.10</ele>
        <time>2016-10-22T08:33:14Z</time>
      </trkpt>
      <trkpt lat="42.412979000" lon="-2.439714000">
        <ele>435.00</ele>
        <time>2016-10-22T08:33:15Z</time>
      </trkpt>
      <trkpt lat="42.413020000" lon="-2.439680000">
        <ele>435.00</ele>
        <time>2016-10-22T08:33:16Z</time>
      </trkpt>
      <trkpt lat="42.413060000" lon="-2.439644000">
        <ele>434.90</ele>
        <time>2016-10-22T08:33:17Z</time>
      </trkpt>
      <trkpt lat="42.413097000" lon="-2.439610000">
        <ele>434.90</ele>
        <time>2016-10-22T08:33:18Z</time>
      </trkpt>
      <trkpt lat="42.413135000" lon="-2.439577000">
        <ele>434.90</ele>
        <time>2016-10-22T08:33:19Z</time>
      </trkpt>
      <trkpt lat="42.413173000" lon="-2.439548000">
        <ele>434.90</ele>
        <time>2016-10-22T08:33:20Z</time>
      </trkpt>
      <trkpt lat="42.413209000" lon="-2.439519000">
        <ele>434.90</ele>
        <time>2016-10-22T08:33:21Z</time>
      </trkpt>
      <trkpt lat="42.413240000" lon="-2.439495000">
        <ele>434.90</ele>
        <time>2016-10-22T08:33:22Z</time>
      </trkpt>
      <trkpt lat="42.413269000" lon="-2.439477000">
        <ele>434.70</ele>
        <time>2016-10-22T08:33:23Z</time>
      </trkpt>
      <trkpt lat="42.413297000" lon="-2.439464000">
        <ele>434.60</ele>
        <time>2016-10-22T08:33:24Z</time>
      </trkpt>
      <trkpt lat="42.413320000" lon="-2.439456000">
        <ele>434.40</ele>
        <time>2016-10-22T08:33:25Z</time>
      </trkpt>
      <trkpt lat="42.413337000" lon="-2.439453000">
        <ele>434.30</ele>
        <time>2016-10-22T08:33:26Z</time>
      </trkpt>
      <trkpt lat="42.413357000" lon="-2.439445000">
        <ele>434.10</ele>
        <time>2016-10-22T08:33:27Z</time>
      </trkpt>
      <trkpt lat="42.413375000" lon="-2.439441000">
        <ele>433.90</ele>
        <time>2016-10-22T08:33:28Z</time>
      </trkpt>
      <trkpt lat="42.413400000" lon="-2.439437000">
        <ele>433.80</ele>
        <time>2016-10-22T08:33:29Z</time>
      </trkpt>
      <trkpt lat="42.413432000" lon="-2.439435000">
        <ele>433.70</ele>
        <time>2016-10-22T08:33:30Z</time>
      </trkpt>
      <trkpt lat="42.413471000" lon="-2.439432000">
        <ele>433.70</ele>
        <time>2016-10-22T08:33:31Z</time>
      </trkpt>
      <trkpt lat="42.413515000" lon="-2.439423000">
        <ele>433.60</ele>
        <time>2016-10-22T08:33:32Z</time>
      </trkpt>
      <trkpt lat="42.413565000" lon="-2.439413000">
        <ele>433.70</ele>
        <time>2016-10-22T08:33:33Z</time>
      </trkpt>
      <trkpt lat="42.413615000" lon="-2.439392000">
        <ele>433.70</ele>
        <time>2016-10-22T08:33:34Z</time>
      </trkpt>
      <trkpt lat="42.413663000" lon="-2.439365000">
        <ele>433.50</ele>
        <time>2016-10-22T08:33:35Z</time>
      </trkpt>
      <trkpt lat="42.413712000" lon="-2.439336000">
        <ele>433.40</ele>
        <time>2016-10-22T08:33:36Z</time>
      </trkpt>
      <trkpt lat="42.413762000" lon="-2.439309000">
        <ele>433.30</ele>
        <time>2016-10-22T08:33:37Z</time>
      </trkpt>
      <trkpt lat="42.413812000" lon="-2.439286000">
        <ele>433.20</ele>
        <time>2016-10-22T08:33:38Z</time>
      </trkpt>
      <trkpt lat="42.413863000" lon="-2.439260000">
        <ele>433.10</ele>
        <time>2016-10-22T08:33:39Z</time>
      </trkpt>
      <trkpt lat="42.413917000" lon="-2.439232000">
        <ele>433.00</ele>
        <time>2016-10-22T08:33:40Z</time>
      </trkpt>
      <trkpt lat="42.413970000" lon="-2.439214000">
        <ele>432.90</ele>
        <time>2016-10-22T08:33:41Z</time>
      </trkpt>
      <trkpt lat="42.414027000" lon="-2.439195000">
        <ele>432.90</ele>
        <time>2016-10-22T08:33:42Z</time>
      </trkpt>
      <trkpt lat="42.414088000" lon="-2.439185000">
        <ele>432.70</ele>
        <time>2016-10-22T08:33:43Z</time>
      </trkpt>
      <trkpt lat="42.414145000" lon="-2.439179000">
        <ele>432.60</ele>
        <time>2016-10-22T08:33:44Z</time>
      </trkpt>
      <trkpt lat="42.414201000" lon="-2.439171000">
        <ele>432.60</ele>
        <time>2016-10-22T08:33:45Z</time>
      </trkpt>
      <trkpt lat="42.414261000" lon="-2.439160000">
        <ele>432.60</ele>
        <time>2016-10-22T08:33:46Z</time>
      </trkpt>
      <trkpt lat="42.414324000" lon="-2.439148000">
        <ele>432.70</ele>
        <time>2016-10-22T08:33:47Z</time>
      </trkpt>
      <trkpt lat="42.414391000" lon="-2.439132000">
        <ele>432.70</ele>
        <time>2016-10-22T08:33:48Z</time>
      </trkpt>
      <trkpt lat="42.414458000" lon="-2.439112000">
        <ele>432.80</ele>
        <time>2016-10-22T08:33:49Z</time>
      </trkpt>
      <trkpt lat="42.414527000" lon="-2.439092000">
        <ele>432.80</ele>
        <time>2016-10-22T08:33:50Z</time>
      </trkpt>
      <trkpt lat="42.414599000" lon="-2.439073000">
        <ele>432.60</ele>
        <time>2016-10-22T08:33:51Z</time>
      </trkpt>
      <trkpt lat="42.414668000" lon="-2.439058000">
        <ele>432.50</ele>
        <time>2016-10-22T08:33:52Z</time>
      </trkpt>
      <trkpt lat="42.414738000" lon="-2.439056000">
        <ele>432.40</ele>
        <time>2016-10-22T08:33:53Z</time>
      </trkpt>
      <trkpt lat="42.414807000" lon="-2.439064000">
        <ele>432.30</ele>
        <time>2016-10-22T08:33:54Z</time>
      </trkpt>
      <trkpt lat="42.414938000" lon="-2.439109000">
        <ele>432.20</ele>
        <time>2016-10-22T08:33:56Z</time>
      </trkpt>
      <trkpt lat="42.415002000" lon="-2.439138000">
        <ele>432.30</ele>
        <time>2016-10-22T08:33:57Z</time>
      </trkpt>
      <trkpt lat="42.415066000" lon="-2.439169000">
        <ele>432.30</ele>
        <time>2016-10-22T08:33:58Z</time>
      </trkpt>
      <trkpt lat="42.415131000" lon="-2.439199000">
        <ele>432.00</ele>
        <time>2016-10-22T08:33:59Z</time>
      </trkpt>
      <trkpt lat="42.415196000" lon="-2.439233000">
        <ele>431.90</ele>
        <time>2016-10-22T08:34:00Z</time>
      </trkpt>
      <trkpt lat="42.415260000" lon="-2.439267000">
        <ele>431.80</ele>
        <time>2016-10-22T08:34:01Z</time>
      </trkpt>
      <trkpt lat="42.415323000" lon="-2.439303000">
        <ele>431.70</ele>
        <time>2016-10-22T08:34:02Z</time>
      </trkpt>
      <trkpt lat="42.415387000" lon="-2.439339000">
        <ele>431.60</ele>
        <time>2016-10-22T08:34:03Z</time>
      </trkpt>
      <trkpt lat="42.415451000" lon="-2.439372000">
        <ele>431.50</ele>
        <time>2016-10-22T08:34:04Z</time>
      </trkpt>
      <trkpt lat="42.415518000" lon="-2.439391000">
        <ele>431.60</ele>
        <time>2016-10-22T08:34:05Z</time>
      </trkpt>
      <trkpt lat="42.415584000" lon="-2.439397000">
        <ele>431.60</ele>
        <time>2016-10-22T08:34:06Z</time>
      </trkpt>
      <trkpt lat="42.415649000" lon="-2.439403000">
        <ele>431.50</ele>
        <time>2016-10-22T08:34:07Z</time>
      </trkpt>
      <trkpt lat="42.415713000" lon="-2.439419000">
        <ele>431.50</ele>
        <time>2016-10-22T08:34:08Z</time>
      </trkpt>
      <trkpt lat="42.415770000" lon="-2.439445000">
        <ele>431.40</ele>
        <time>2016-10-22T08:34:09Z</time>
      </trkpt>
      <trkpt lat="42.415820000" lon="-2.439469000">
        <ele>431.40</ele>
        <time>2016-10-22T08:34:10Z</time>
      </trkpt>
      <trkpt lat="42.415869000" lon="-2.439492000">
        <ele>431.20</ele>
        <time>2016-10-22T08:34:11Z</time>
      </trkpt>
      <trkpt lat="42.415916000" lon="-2.439507000">
        <ele>431.10</ele>
        <time>2016-10-22T08:34:12Z</time>
      </trkpt>
      <trkpt lat="42.415962000" lon="-2.439510000">
        <ele>431.00</ele>
        <time>2016-10-22T08:34:13Z</time>
      </trkpt>
      <trkpt lat="42.416015000" lon="-2.439506000">
        <ele>431.00</ele>
        <time>2016-10-22T08:34:14Z</time>
      </trkpt>
      <trkpt lat="42.416071000" lon="-2.439500000">
        <ele>430.90</ele>
        <time>2016-10-22T08:34:15Z</time>
      </trkpt>
      <trkpt lat="42.416127000" lon="-2.439489000">
        <ele>430.90</ele>
        <time>2016-10-22T08:34:16Z</time>
      </trkpt>
      <trkpt lat="42.416185000" lon="-2.439479000">
        <ele>430.90</ele>
        <time>2016-10-22T08:34:17Z</time>
      </trkpt>
      <trkpt lat="42.416245000" lon="-2.439469000">
        <ele>430.80</ele>
        <time>2016-10-22T08:34:18Z</time>
      </trkpt>
      <trkpt lat="42.416306000" lon="-2.439464000">
        <ele>430.80</ele>
        <time>2016-10-22T08:34:19Z</time>
      </trkpt>
      <trkpt lat="42.416367000" lon="-2.439454000">
        <ele>430.80</ele>
        <time>2016-10-22T08:34:20Z</time>
      </trkpt>
      <trkpt lat="42.416426000" lon="-2.439444000">
        <ele>430.70</ele>
        <time>2016-10-22T08:34:21Z</time>
      </trkpt>
      <trkpt lat="42.416483000" lon="-2.439435000">
        <ele>430.50</ele>
        <time>2016-10-22T08:34:22Z</time>
      </trkpt>
      <trkpt lat="42.416540000" lon="-2.439428000">
        <ele>430.40</ele>
        <time>2016-10-22T08:34:23Z</time>
      </trkpt>
      <trkpt lat="42.416595000" lon="-2.439422000">
        <ele>430.30</ele>
        <time>2016-10-22T08:34:24Z</time>
      </trkpt>
      <trkpt lat="42.416657000" lon="-2.439424000">
        <ele>430.20</ele>
        <time>2016-10-22T08:34:25Z</time>
      </trkpt>
      <trkpt lat="42.416720000" lon="-2.439431000">
        <ele>430.10</ele>
        <time>2016-10-22T08:34:26Z</time>
      </trkpt>
      <trkpt lat="42.416780000" lon="-2.439435000">
        <ele>430.10</ele>
        <time>2016-10-22T08:34:27Z</time>
      </trkpt>
      <trkpt lat="42.416840000" lon="-2.439438000">
        <ele>430.00</ele>
        <time>2016-10-22T08:34:28Z</time>
      </trkpt>
      <trkpt lat="42.416897000" lon="-2.439437000">
        <ele>430.00</ele>
        <time>2016-10-22T08:34:29Z</time>
      </trkpt>
      <trkpt lat="42.416948000" lon="-2.439434000">
        <ele>430.00</ele>
        <time>2016-10-22T08:34:30Z</time>
      </trkpt>
      <trkpt lat="42.417001000" lon="-2.439428000">
        <ele>430.00</ele>
        <time>2016-10-22T08:34:31Z</time>
      </trkpt>
      <trkpt lat="42.417051000" lon="-2.439417000">
        <ele>430.00</ele>
        <time>2016-10-22T08:34:32Z</time>
      </trkpt>
      <trkpt lat="42.417108000" lon="-2.439404000">
        <ele>429.80</ele>
        <time>2016-10-22T08:34:33Z</time>
      </trkpt>
      <trkpt lat="42.417161000" lon="-2.439385000">
        <ele>429.60</ele>
        <time>2016-10-22T08:34:34Z</time>
      </trkpt>
      <trkpt lat="42.417214000" lon="-2.439360000">
        <ele>429.40</ele>
        <time>2016-10-22T08:34:35Z</time>
      </trkpt>
      <trkpt lat="42.417269000" lon="-2.439323000">
        <ele>429.20</ele>
        <time>2016-10-22T08:34:36Z</time>
      </trkpt>
      <trkpt lat="42.417319000" lon="-2.439272000">
        <ele>429.10</ele>
        <time>2016-10-22T08:34:37Z</time>
      </trkpt>
      <trkpt lat="42.417368000" lon="-2.439215000">
        <ele>429.00</ele>
        <time>2016-10-22T08:34:38Z</time>
      </trkpt>
      <trkpt lat="42.417413000" lon="-2.439155000">
        <ele>428.90</ele>
        <time>2016-10-22T08:34:39Z</time>
      </trkpt>
      <trkpt lat="42.417465000" lon="-2.439109000">
        <ele>428.90</ele>
        <time>2016-10-22T08:34:40Z</time>
      </trkpt>
      <trkpt lat="42.417518000" lon="-2.439065000">
        <ele>428.80</ele>
        <time>2016-10-22T08:34:41Z</time>
      </trkpt>
      <trkpt lat="42.417575000" lon="-2.439032000">
        <ele>428.70</ele>
        <time>2016-10-22T08:34:42Z</time>
      </trkpt>
      <trkpt lat="42.417635000" lon="-2.439004000">
        <ele>428.70</ele>
        <time>2016-10-22T08:34:43Z</time>
      </trkpt>
      <trkpt lat="42.417692000" lon="-2.438977000">
        <ele>428.70</ele>
        <time>2016-10-22T08:34:44Z</time>
      </trkpt>
      <trkpt lat="42.417752000" lon="-2.438955000">
        <ele>428.60</ele>
        <time>2016-10-22T08:34:45Z</time>
      </trkpt>
      <trkpt lat="42.417812000" lon="-2.438932000">
        <ele>428.60</ele>
        <time>2016-10-22T08:34:46Z</time>
      </trkpt>
      <trkpt lat="42.417871000" lon="-2.438909000">
        <ele>428.50</ele>
        <time>2016-10-22T08:34:47Z</time>
      </trkpt>
      <trkpt lat="42.417931000" lon="-2.438887000">
        <ele>428.40</ele>
        <time>2016-10-22T08:34:48Z</time>
      </trkpt>
      <trkpt lat="42.417995000" lon="-2.438869000">
        <ele>428.20</ele>
        <time>2016-10-22T08:34:49Z</time>
      </trkpt>
      <trkpt lat="42.418061000" lon="-2.438851000">
        <ele>428.00</ele>
        <time>2016-10-22T08:34:50Z</time>
      </trkpt>
      <trkpt lat="42.418123000" lon="-2.438832000">
        <ele>427.80</ele>
        <time>2016-10-22T08:34:51Z</time>
      </trkpt>
      <trkpt lat="42.418186000" lon="-2.438809000">
        <ele>427.70</ele>
        <time>2016-10-22T08:34:52Z</time>
      </trkpt>
      <trkpt lat="42.418249000" lon="-2.438782000">
        <ele>427.60</ele>
        <time>2016-10-22T08:34:53Z</time>
      </trkpt>
      <trkpt lat="42.418312000" lon="-2.438754000">
        <ele>427.60</ele>
        <time>2016-10-22T08:34:54Z</time>
      </trkpt>
      <trkpt lat="42.418371000" lon="-2.438724000">
        <ele>427.40</ele>
        <time>2016-10-22T08:34:55Z</time>
      </trkpt>
      <trkpt lat="42.418483000" lon="-2.438669000">
        <ele>427.20</ele>
        <time>2016-10-22T08:34:57Z</time>
      </trkpt>
      <trkpt lat="42.418535000" lon="-2.438633000">
        <ele>427.20</ele>
        <time>2016-10-22T08:34:58Z</time>
      </trkpt>
      <trkpt lat="42.418584000" lon="-2.438595000">
        <ele>427.00</ele>
        <time>2016-10-22T08:34:59Z</time>
      </trkpt>
      <trkpt lat="42.418628000" lon="-2.438555000">
        <ele>426.80</ele>
        <time>2016-10-22T08:35:00Z</time>
      </trkpt>
      <trkpt lat="42.418674000" lon="-2.438511000">
        <ele>426.70</ele>
        <time>2016-10-22T08:35:01Z</time>
      </trkpt>
      <trkpt lat="42.418712000" lon="-2.438473000">
        <ele>426.60</ele>
        <time>2016-10-22T08:35:02Z</time>
      </trkpt>
      <trkpt lat="42.418752000" lon="-2.438429000">
        <ele>426.50</ele>
        <time>2016-10-22T08:35:03Z</time>
      </trkpt>
      <trkpt lat="42.418792000" lon="-2.438380000">
        <ele>426.40</ele>
        <time>2016-10-22T08:35:04Z</time>
      </trkpt>
      <trkpt lat="42.418833000" lon="-2.438333000">
        <ele>426.60</ele>
        <time>2016-10-22T08:35:05Z</time>
      </trkpt>
      <trkpt lat="42.418873000" lon="-2.438285000">
        <ele>426.70</ele>
        <time>2016-10-22T08:35:06Z</time>
      </trkpt>
      <trkpt lat="42.418914000" lon="-2.438235000">
        <ele>426.90</ele>
        <time>2016-10-22T08:35:07Z</time>
      </trkpt>
      <trkpt lat="42.418955000" lon="-2.438194000">
        <ele>427.10</ele>
        <time>2016-10-22T08:35:08Z</time>
      </trkpt>
      <trkpt lat="42.419007000" lon="-2.438172000">
        <ele>427.20</ele>
        <time>2016-10-22T08:35:09Z</time>
      </trkpt>
      <trkpt lat="42.419060000" lon="-2.438167000">
        <ele>427.30</ele>
        <time>2016-10-22T08:35:10Z</time>
      </trkpt>
      <trkpt lat="42.419116000" lon="-2.438168000">
        <ele>427.10</ele>
        <time>2016-10-22T08:35:11Z</time>
      </trkpt>
      <trkpt lat="42.419171000" lon="-2.438176000">
        <ele>427.00</ele>
        <time>2016-10-22T08:35:12Z</time>
      </trkpt>
      <trkpt lat="42.419225000" lon="-2.438186000">
        <ele>426.80</ele>
        <time>2016-10-22T08:35:13Z</time>
      </trkpt>
      <trkpt lat="42.419281000" lon="-2.438200000">
        <ele>426.80</ele>
        <time>2016-10-22T08:35:14Z</time>
      </trkpt>
      <trkpt lat="42.419334000" lon="-2.438212000">
        <ele>426.70</ele>
        <time>2016-10-22T08:35:15Z</time>
      </trkpt>
      <trkpt lat="42.419388000" lon="-2.438226000">
        <ele>426.70</ele>
        <time>2016-10-22T08:35:16Z</time>
      </trkpt>
      <trkpt lat="42.419441000" lon="-2.438237000">
        <ele>426.60</ele>
        <time>2016-10-22T08:35:17Z</time>
      </trkpt>
      <trkpt lat="42.419495000" lon="-2.438241000">
        <ele>426.60</ele>
        <time>2016-10-22T08:35:18Z</time>
      </trkpt>
      <trkpt lat="42.419549000" lon="-2.438241000">
        <ele>426.60</ele>
        <time>2016-10-22T08:35:19Z</time>
      </trkpt>
      <trkpt lat="42.419602000" lon="-2.438238000">
        <ele>426.60</ele>
        <time>2016-10-22T08:35:20Z</time>
      </trkpt>
      <trkpt lat="42.419655000" lon="-2.438229000">
        <ele>426.60</ele>
        <time>2016-10-22T08:35:21Z</time>
      </trkpt>
      <trkpt lat="42.419707000" lon="-2.438220000">
        <ele>426.50</ele>
        <time>2016-10-22T08:35:22Z</time>
      </trkpt>
      <trkpt lat="42.419760000" lon="-2.438213000">
        <ele>426.70</ele>
        <time>2016-10-22T08:35:23Z</time>
      </trkpt>
      <trkpt lat="42.419813000" lon="-2.438201000">
        <ele>426.90</ele>
        <time>2016-10-22T08:35:24Z</time>
      </trkpt>
      <trkpt lat="42.419867000" lon="-2.438189000">
        <ele>427.00</ele>
        <time>2016-10-22T08:35:25Z</time>
      </trkpt>
      <trkpt lat="42.419924000" lon="-2.438176000">
        <ele>427.10</ele>
        <time>2016-10-22T08:35:26Z</time>
      </trkpt>
      <trkpt lat="42.419982000" lon="-2.438162000">
        <ele>427.00</ele>
        <time>2016-10-22T08:35:27Z</time>
      </trkpt>
      <trkpt lat="42.420039000" lon="-2.438145000">
        <ele>426.90</ele>
        <time>2016-10-22T08:35:28Z</time>
      </trkpt>
      <trkpt lat="42.420099000" lon="-2.438127000">
        <ele>426.80</ele>
        <time>2016-10-22T08:35:29Z</time>
      </trkpt>
      <trkpt lat="42.420157000" lon="-2.438106000">
        <ele>426.60</ele>
        <time>2016-10-22T08:35:30Z</time>
      </trkpt>
      <trkpt lat="42.420216000" lon="-2.438087000">
        <ele>426.40</ele>
        <time>2016-10-22T08:35:31Z</time>
      </trkpt>
      <trkpt lat="42.420275000" lon="-2.438063000">
        <ele>426.20</ele>
        <time>2016-10-22T08:35:32Z</time>
      </trkpt>
      <trkpt lat="42.420335000" lon="-2.438044000">
        <ele>426.10</ele>
        <time>2016-10-22T08:35:33Z</time>
      </trkpt>
      <trkpt lat="42.420395000" lon="-2.438021000">
        <ele>426.00</ele>
        <time>2016-10-22T08:35:34Z</time>
      </trkpt>
      <trkpt lat="42.420452000" lon="-2.437998000">
        <ele>426.00</ele>
        <time>2016-10-22T08:35:35Z</time>
      </trkpt>
      <trkpt lat="42.420507000" lon="-2.437974000">
        <ele>425.90</ele>
        <time>2016-10-22T08:35:36Z</time>
      </trkpt>
      <trkpt lat="42.420565000" lon="-2.437948000">
        <ele>425.70</ele>
        <time>2016-10-22T08:35:37Z</time>
      </trkpt>
      <trkpt lat="42.420623000" lon="-2.437921000">
        <ele>425.50</ele>
        <time>2016-10-22T08:35:38Z</time>
      </trkpt>
      <trkpt lat="42.420679000" lon="-2.437892000">
        <ele>425.30</ele>
        <time>2016-10-22T08:35:39Z</time>
      </trkpt>
      <trkpt lat="42.420733000" lon="-2.437866000">
        <ele>425.10</ele>
        <time>2016-10-22T08:35:40Z</time>
      </trkpt>
      <trkpt lat="42.420784000" lon="-2.437833000">
        <ele>424.90</ele>
        <time>2016-10-22T08:35:41Z</time>
      </trkpt>
      <trkpt lat="42.420836000" lon="-2.437801000">
        <ele>424.80</ele>
        <time>2016-10-22T08:35:42Z</time>
      </trkpt>
      <trkpt lat="42.420887000" lon="-2.437765000">
        <ele>424.90</ele>
        <time>2016-10-22T08:35:43Z</time>
      </trkpt>
      <trkpt lat="42.420935000" lon="-2.437727000">
        <ele>424.90</ele>
        <time>2016-10-22T08:35:44Z</time>
      </trkpt>
      <trkpt lat="42.420985000" lon="-2.437687000">
        <ele>425.00</ele>
        <time>2016-10-22T08:35:45Z</time>
      </trkpt>
      <trkpt lat="42.421037000" lon="-2.437650000">
        <ele>425.10</ele>
        <time>2016-10-22T08:35:46Z</time>
      </trkpt>
      <trkpt lat="42.421090000" lon="-2.437615000">
        <ele>425.10</ele>
        <time>2016-10-22T08:35:47Z</time>
      </trkpt>
      <trkpt lat="42.421142000" lon="-2.437577000">
        <ele>425.10</ele>
        <time>2016-10-22T08:35:48Z</time>
      </trkpt>
      <trkpt lat="42.421198000" lon="-2.437538000">
        <ele>425.00</ele>
        <time>2016-10-22T08:35:49Z</time>
      </trkpt>
      <trkpt lat="42.421255000" lon="-2.437498000">
        <ele>424.90</ele>
        <time>2016-10-22T08:35:50Z</time>
      </trkpt>
      <trkpt lat="42.421311000" lon="-2.437459000">
        <ele>424.50</ele>
        <time>2016-10-22T08:35:51Z</time>
      </trkpt>
      <trkpt lat="42.421368000" lon="-2.437417000">
        <ele>424.30</ele>
        <time>2016-10-22T08:35:52Z</time>
      </trkpt>
      <trkpt lat="42.421427000" lon="-2.437378000">
        <ele>424.00</ele>
        <time>2016-10-22T08:35:53Z</time>
      </trkpt>
      <trkpt lat="42.421484000" lon="-2.437337000">
        <ele>423.90</ele>
        <time>2016-10-22T08:35:54Z</time>
      </trkpt>
      <trkpt lat="42.421540000" lon="-2.437294000">
        <ele>423.70</ele>
        <time>2016-10-22T08:35:55Z</time>
      </trkpt>
      <trkpt lat="42.421596000" lon="-2.437253000">
        <ele>423.50</ele>
        <time>2016-10-22T08:35:56Z</time>
      </trkpt>
      <trkpt lat="42.421707000" lon="-2.437179000">
        <ele>423.30</ele>
        <time>2016-10-22T08:35:58Z</time>
      </trkpt>
      <trkpt lat="42.421758000" lon="-2.437133000">
        <ele>423.00</ele>
        <time>2016-10-22T08:35:59Z</time>
      </trkpt>
      <trkpt lat="42.421809000" lon="-2.437085000">
        <ele>422.90</ele>
        <time>2016-10-22T08:36:00Z</time>
      </trkpt>
      <trkpt lat="42.421861000" lon="-2.437034000">
        <ele>422.80</ele>
        <time>2016-10-22T08:36:01Z</time>
      </trkpt>
      <trkpt lat="42.421910000" lon="-2.436980000">
        <ele>422.70</ele>
        <time>2016-10-22T08:36:02Z</time>
      </trkpt>
      <trkpt lat="42.421959000" lon="-2.436926000">
        <ele>422.60</ele>
        <time>2016-10-22T08:36:03Z</time>
      </trkpt>
      <trkpt lat="42.422007000" lon="-2.436870000">
        <ele>422.60</ele>
        <time>2016-10-22T08:36:04Z</time>
      </trkpt>
      <trkpt lat="42.422055000" lon="-2.436817000">
        <ele>422.60</ele>
        <time>2016-10-22T08:36:05Z</time>
      </trkpt>
      <trkpt lat="42.422102000" lon="-2.436765000">
        <ele>422.60</ele>
        <time>2016-10-22T08:36:06Z</time>
      </trkpt>
      <trkpt lat="42.422145000" lon="-2.436714000">
        <ele>422.60</ele>
        <time>2016-10-22T08:36:07Z</time>
      </trkpt>
      <trkpt lat="42.422185000" lon="-2.436669000">
        <ele>422.60</ele>
        <time>2016-10-22T08:36:08Z</time>
      </trkpt>
      <trkpt lat="42.422217000" lon="-2.436620000">
        <ele>422.60</ele>
        <time>2016-10-22T08:36:09Z</time>
      </trkpt>
      <trkpt lat="42.422233000" lon="-2.436564000">
        <ele>422.60</ele>
        <time>2016-10-22T08:36:10Z</time>
      </trkpt>
      <trkpt lat="42.422232000" lon="-2.436497000">
        <ele>422.40</ele>
        <time>2016-10-22T08:36:11Z</time>
      </trkpt>
      <trkpt lat="42.422215000" lon="-2.436430000">
        <ele>422.30</ele>
        <time>2016-10-22T08:36:12Z</time>
      </trkpt>
      <trkpt lat="42.422182000" lon="-2.436376000">
        <ele>422.10</ele>
        <time>2016-10-22T08:36:13Z</time>
      </trkpt>
      <trkpt lat="42.422145000" lon="-2.436327000">
        <ele>422.10</ele>
        <time>2016-10-22T08:36:14Z</time>
      </trkpt>
      <trkpt lat="42.422113000" lon="-2.436273000">
        <ele>422.00</ele>
        <time>2016-10-22T08:36:15Z</time>
      </trkpt>
      <trkpt lat="42.422086000" lon="-2.436216000">
        <ele>422.00</ele>
        <time>2016-10-22T08:36:16Z</time>
      </trkpt>
      <trkpt lat="42.422073000" lon="-2.436157000">
        <ele>421.90</ele>
        <time>2016-10-22T08:36:17Z</time>
      </trkpt>
      <trkpt lat="42.422074000" lon="-2.436097000">
        <ele>421.90</ele>
        <time>2016-10-22T08:36:18Z</time>
      </trkpt>
      <trkpt lat="42.422093000" lon="-2.436046000">
        <ele>421.90</ele>
        <time>2016-10-22T08:36:19Z</time>
      </trkpt>
      <trkpt lat="42.422120000" lon="-2.436002000">
        <ele>421.90</ele>
        <time>2016-10-22T08:36:20Z</time>
      </trkpt>
      <trkpt lat="42.422155000" lon="-2.435964000">
        <ele>421.60</ele>
        <time>2016-10-22T08:36:21Z</time>
      </trkpt>
      <trkpt lat="42.422189000" lon="-2.435936000">
        <ele>421.40</ele>
        <time>2016-10-22T08:36:22Z</time>
      </trkpt>
      <trkpt lat="42.422226000" lon="-2.435902000">
        <ele>421.20</ele>
        <time>2016-10-22T08:36:23Z</time>
      </trkpt>
      <trkpt lat="42.422266000" lon="-2.435869000">
        <ele>421.10</ele>
        <time>2016-10-22T08:36:24Z</time>
      </trkpt>
      <trkpt lat="42.422308000" lon="-2.435838000">
        <ele>421.00</ele>
        <time>2016-10-22T08:36:25Z</time>
      </trkpt>
      <trkpt lat="42.422353000" lon="-2.435811000">
        <ele>421.00</ele>
        <time>2016-10-22T08:36:26Z</time>
      </trkpt>
      <trkpt lat="42.422401000" lon="-2.435790000">
        <ele>421.10</ele>
        <time>2016-10-22T08:36:27Z</time>
      </trkpt>
      <trkpt lat="42.422448000" lon="-2.435771000">
        <ele>421.20</ele>
        <time>2016-10-22T08:36:28Z</time>
      </trkpt>
      <trkpt lat="42.422498000" lon="-2.435755000">
        <ele>421.30</ele>
        <time>2016-10-22T08:36:29Z</time>
      </trkpt>
      <trkpt lat="42.422552000" lon="-2.435742000">
        <ele>421.40</ele>
        <time>2016-10-22T08:36:30Z</time>
      </trkpt>
      <trkpt lat="42.422608000" lon="-2.435729000">
        <ele>421.20</ele>
        <time>2016-10-22T08:36:31Z</time>
      </trkpt>
      <trkpt lat="42.422665000" lon="-2.435718000">
        <ele>421.10</ele>
        <time>2016-10-22T08:36:32Z</time>
      </trkpt>
      <trkpt lat="42.422722000" lon="-2.435703000">
        <ele>421.00</ele>
        <time>2016-10-22T08:36:33Z</time>
      </trkpt>
      <trkpt lat="42.422775000" lon="-2.435689000">
        <ele>420.90</ele>
        <time>2016-10-22T08:36:34Z</time>
      </trkpt>
      <trkpt lat="42.422830000" lon="-2.435672000">
        <ele>420.70</ele>
        <time>2016-10-22T08:36:35Z</time>
      </trkpt>
      <trkpt lat="42.422884000" lon="-2.435649000">
        <ele>420.60</ele>
        <time>2016-10-22T08:36:36Z</time>
      </trkpt>
      <trkpt lat="42.422940000" lon="-2.435628000">
        <ele>420.50</ele>
        <time>2016-10-22T08:36:37Z</time>
      </trkpt>
      <trkpt lat="42.422998000" lon="-2.435611000">
        <ele>420.40</ele>
        <time>2016-10-22T08:36:38Z</time>
      </trkpt>
      <trkpt lat="42.423057000" lon="-2.435598000">
        <ele>420.50</ele>
        <time>2016-10-22T08:36:39Z</time>
      </trkpt>
      <trkpt lat="42.423118000" lon="-2.435588000">
        <ele>420.60</ele>
        <time>2016-10-22T08:36:40Z</time>
      </trkpt>
      <trkpt lat="42.423179000" lon="-2.435585000">
        <ele>420.70</ele>
        <time>2016-10-22T08:36:41Z</time>
      </trkpt>
      <trkpt lat="42.423239000" lon="-2.435585000">
        <ele>420.80</ele>
        <time>2016-10-22T08:36:42Z</time>
      </trkpt>
      <trkpt lat="42.423295000" lon="-2.435589000">
        <ele>420.80</ele>
        <time>2016-10-22T08:36:43Z</time>
      </trkpt>
      <trkpt lat="42.423354000" lon="-2.435597000">
        <ele>420.80</ele>
        <time>2016-10-22T08:36:44Z</time>
      </trkpt>
      <trkpt lat="42.423411000" lon="-2.435610000">
        <ele>420.60</ele>
        <time>2016-10-22T08:36:45Z</time>
      </trkpt>
      <trkpt lat="42.423464000" lon="-2.435618000">
        <ele>420.60</ele>
        <time>2016-10-22T08:36:46Z</time>
      </trkpt>
      <trkpt lat="42.423515000" lon="-2.435611000">
        <ele>420.30</ele>
        <time>2016-10-22T08:36:47Z</time>
      </trkpt>
      <trkpt lat="42.423564000" lon="-2.435589000">
        <ele>420.20</ele>
        <time>2016-10-22T08:36:48Z</time>
      </trkpt>
      <trkpt lat="42.423611000" lon="-2.435558000">
        <ele>420.20</ele>
        <time>2016-10-22T08:36:49Z</time>
      </trkpt>
      <trkpt lat="42.423658000" lon="-2.435523000">
        <ele>420.20</ele>
        <time>2016-10-22T08:36:50Z</time>
      </trkpt>
      <trkpt lat="42.423710000" lon="-2.435487000">
        <ele>420.00</ele>
        <time>2016-10-22T08:36:51Z</time>
      </trkpt>
      <trkpt lat="42.423762000" lon="-2.435452000">
        <ele>419.80</ele>
        <time>2016-10-22T08:36:52Z</time>
      </trkpt>
      <trkpt lat="42.423809000" lon="-2.435420000">
        <ele>419.70</ele>
        <time>2016-10-22T08:36:53Z</time>
      </trkpt>
      <trkpt lat="42.423843000" lon="-2.435397000">
        <ele>419.70</ele>
        <time>2016-10-22T08:36:54Z</time>
      </trkpt>
      <trkpt lat="42.423870000" lon="-2.435378000">
        <ele>419.70</ele>
        <time>2016-10-22T08:36:55Z</time>
      </trkpt>
      <trkpt lat="42.423892000" lon="-2.435360000">
        <ele>419.60</ele>
        <time>2016-10-22T08:36:56Z</time>
      </trkpt>
      <trkpt lat="42.423902000" lon="-2.435353000">
        <ele>419.60</ele>
        <time>2016-10-22T08:36:57Z</time>
      </trkpt>
      <trkpt lat="42.423907000" lon="-2.435349000">
        <ele>419.60</ele>
        <time>2016-10-22T08:36:59Z</time>
      </trkpt>
      <trkpt lat="42.423907000" lon="-2.435349000">
        <ele>419.60</ele>
        <time>2016-10-22T08:37:00Z</time>
      </trkpt>
      <trkpt lat="42.423907000" lon="-2.435349000">
        <ele>419.60</ele>
        <time>2016-10-22T08:37:01Z</time>
      </trkpt>
      <trkpt lat="42.423907000" lon="-2.435349000">
        <ele>419.60</ele>
        <time>2016-10-22T08:37:02Z</time>
      </trkpt>
      <trkpt lat="42.423907000" lon="-2.435349000">
        <ele>419.60</ele>
        <time>2016-10-22T08:37:03Z</time>
      </trkpt>
      <trkpt lat="42.423907000" lon="-2.435349000">
        <ele>419.60</ele>
        <time>2016-10-22T08:37:04Z</time>
      </trkpt>
      <trkpt lat="42.423907000" lon="-2.435349000">
        <ele>419.60</ele>
        <time>2016-10-22T08:37:05Z</time>
      </trkpt>
      <trkpt lat="42.423907000" lon="-2.435349000">
        <ele>419.60</ele>
        <time>2016-10-22T08:37:06Z</time>
      </trkpt>
      <trkpt lat="42.423907000" lon="-2.435349000">
        <ele>419.70</ele>
        <time>2016-10-22T08:37:07Z</time>
      </trkpt>
      <trkpt lat="42.423907000" lon="-2.435349000">
        <ele>419.80</ele>
        <time>2016-10-22T08:37:08Z</time>
      </trkpt>
      <trkpt lat="42.423907000" lon="-2.435349000">
        <ele>419.90</ele>
        <time>2016-10-22T08:37:09Z</time>
      </trkpt>
      <trkpt lat="42.423907000" lon="-2.435349000">
        <ele>419.90</ele>
        <time>2016-10-22T08:37:10Z</time>
      </trkpt>
      <trkpt lat="42.423907000" lon="-2.435349000">
        <ele>420.00</ele>
        <time>2016-10-22T08:37:11Z</time>
      </trkpt>
      <trkpt lat="42.423907000" lon="-2.435349000">
        <ele>420.00</ele>
        <time>2016-10-22T08:37:12Z</time>
      </trkpt>
      <trkpt lat="42.423907000" lon="-2.435349000">
        <ele>419.90</ele>
        <time>2016-10-22T08:37:13Z</time>
      </trkpt>
      <trkpt lat="42.423907000" lon="-2.435349000">
        <ele>419.80</ele>
        <time>2016-10-22T08:37:14Z</time>
      </trkpt>
      <trkpt lat="42.423907000" lon="-2.435349000">
        <ele>419.70</ele>
        <time>2016-10-22T08:37:15Z</time>
      </trkpt>
      <trkpt lat="42.423907000" lon="-2.435349000">
        <ele>419.60</ele>
        <time>2016-10-22T08:37:16Z</time>
      </trkpt>
      <trkpt lat="42.423907000" lon="-2.435349000">
        <ele>419.50</ele>
        <time>2016-10-22T08:37:17Z</time>
      </trkpt>
      <trkpt lat="42.423907000" lon="-2.435349000">
        <ele>419.50</ele>
        <time>2016-10-22T08:37:18Z</time>
      </trkpt>
      <trkpt lat="42.423907000" lon="-2.435349000">
        <ele>419.40</ele>
        <time>2016-10-22T08:37:19Z</time>
      </trkpt>
      <trkpt lat="42.423907000" lon="-2.435349000">
        <ele>419.40</ele>
        <time>2016-10-22T08:37:20Z</time>
      </trkpt>
      <trkpt lat="42.423907000" lon="-2.435349000">
        <ele>419.40</ele>
        <time>2016-10-22T08:37:21Z</time>
      </trkpt>
      <trkpt lat="42.423907000" lon="-2.435349000">
        <ele>419.30</ele>
        <time>2016-10-22T08:37:22Z</time>
      </trkpt>
      <trkpt lat="42.423907000" lon="-2.435349000">
        <ele>419.20</ele>
        <time>2016-10-22T08:37:23Z</time>
      </trkpt>
      <trkpt lat="42.423907000" lon="-2.435349000">
        <ele>419.10</ele>
        <time>2016-10-22T08:37:24Z</time>
      </trkpt>
      <trkpt lat="42.423907000" lon="-2.435349000">
        <ele>419.00</ele>
        <time>2016-10-22T08:37:25Z</time>
      </trkpt>
      <trkpt lat="42.423907000" lon="-2.435349000">
        <ele>418.80</ele>
        <time>2016-10-22T08:37:26Z</time>
      </trkpt>
      <trkpt lat="42.423907000" lon="-2.435349000">
        <ele>418.80</ele>
        <time>2016-10-22T08:37:27Z</time>
      </trkpt>
      <trkpt lat="42.423907000" lon="-2.435349000">
        <ele>418.70</ele>
        <time>2016-10-22T08:37:28Z</time>
      </trkpt>
      <trkpt lat="42.423907000" lon="-2.435349000">
        <ele>418.70</ele>
        <time>2016-10-22T08:37:29Z</time>
      </trkpt>
      <trkpt lat="42.423907000" lon="-2.435349000">
        <ele>418.60</ele>
        <time>2016-10-22T08:37:30Z</time>
      </trkpt>
      <trkpt lat="42.423907000" lon="-2.435349000">
        <ele>418.60</ele>
        <time>2016-10-22T08:37:31Z</time>
      </trkpt>
      <trkpt lat="42.423907000" lon="-2.435349000">
        <ele>418.60</ele>
        <time>2016-10-22T08:37:32Z</time>
      </trkpt>
      <trkpt lat="42.423907000" lon="-2.435349000">
        <ele>418.60</ele>
        <time>2016-10-22T08:37:33Z</time>
      </trkpt>
      <trkpt lat="42.423907000" lon="-2.435349000">
        <ele>418.70</ele>
        <time>2016-10-22T08:37:34Z</time>
      </trkpt>
      <trkpt lat="42.423907000" lon="-2.435349000">
        <ele>418.60</ele>
        <time>2016-10-22T08:37:35Z</time>
      </trkpt>
      <trkpt lat="42.423907000" lon="-2.435349000">
        <ele>418.60</ele>
        <time>2016-10-22T08:37:36Z</time>
      </trkpt>
      <trkpt lat="42.423907000" lon="-2.435349000">
        <ele>418.60</ele>
        <time>2016-10-22T08:37:37Z</time>
      </trkpt>
      <trkpt lat="42.423912000" lon="-2.435339000">
        <ele>418.70</ele>
        <time>2016-10-22T08:37:38Z</time>
      </trkpt>
      <trkpt lat="42.423912000" lon="-2.435339000">
        <ele>418.70</ele>
        <time>2016-10-22T08:37:39Z</time>
      </trkpt>
      <trkpt lat="42.423912000" lon="-2.435339000">
        <ele>418.70</ele>
        <time>2016-10-22T08:37:40Z</time>
      </trkpt>
      <trkpt lat="42.423912000" lon="-2.435339000">
        <ele>418.70</ele>
        <time>2016-10-22T08:37:41Z</time>
      </trkpt>
      <trkpt lat="42.423912000" lon="-2.435339000">
        <ele>418.70</ele>
        <time>2016-10-22T08:37:42Z</time>
      </trkpt>
      <trkpt lat="42.423912000" lon="-2.435339000">
        <ele>418.80</ele>
        <time>2016-10-22T08:37:43Z</time>
      </trkpt>
      <trkpt lat="42.423912000" lon="-2.435339000">
        <ele>418.80</ele>
        <time>2016-10-22T08:37:44Z</time>
      </trkpt>
      <trkpt lat="42.423912000" lon="-2.435339000">
        <ele>418.70</ele>
        <time>2016-10-22T08:37:45Z</time>
      </trkpt>
      <trkpt lat="42.423912000" lon="-2.435339000">
        <ele>418.70</ele>
        <time>2016-10-22T08:37:46Z</time>
      </trkpt>
      <trkpt lat="42.423912000" lon="-2.435339000">
        <ele>418.70</ele>
        <time>2016-10-22T08:37:47Z</time>
      </trkpt>
      <trkpt lat="42.423912000" lon="-2.435339000">
        <ele>418.70</ele>
        <time>2016-10-22T08:37:48Z</time>
      </trkpt>
      <trkpt lat="42.423912000" lon="-2.435339000">
        <ele>418.80</ele>
        <time>2016-10-22T08:37:49Z</time>
      </trkpt>
      <trkpt lat="42.423912000" lon="-2.435339000">
        <ele>418.90</ele>
        <time>2016-10-22T08:37:50Z</time>
      </trkpt>
      <trkpt lat="42.423912000" lon="-2.435339000">
        <ele>418.90</ele>
        <time>2016-10-22T08:37:51Z</time>
      </trkpt>
      <trkpt lat="42.423912000" lon="-2.435339000">
        <ele>418.90</ele>
        <time>2016-10-22T08:37:52Z</time>
      </trkpt>
      <trkpt lat="42.423912000" lon="-2.435339000">
        <ele>419.00</ele>
        <time>2016-10-22T08:37:53Z</time>
      </trkpt>
      <trkpt lat="42.423912000" lon="-2.435339000">
        <ele>419.00</ele>
        <time>2016-10-22T08:37:54Z</time>
      </trkpt>
      <trkpt lat="42.423912000" lon="-2.435339000">
        <ele>418.90</ele>
        <time>2016-10-22T08:37:55Z</time>
      </trkpt>
      <trkpt lat="42.423912000" lon="-2.435339000">
        <ele>418.80</ele>
        <time>2016-10-22T08:37:56Z</time>
      </trkpt>
      <trkpt lat="42.423912000" lon="-2.435339000">
        <ele>418.70</ele>
        <time>2016-10-22T08:37:57Z</time>
      </trkpt>
      <trkpt lat="42.423912000" lon="-2.435339000">
        <ele>418.70</ele>
        <time>2016-10-22T08:37:58Z</time>
      </trkpt>
      <trkpt lat="42.423912000" lon="-2.435339000">
        <ele>418.60</ele>
        <time>2016-10-22T08:38:00Z</time>
      </trkpt>
      <trkpt lat="42.423912000" lon="-2.435339000">
        <ele>418.60</ele>
        <time>2016-10-22T08:38:01Z</time>
      </trkpt>
      <trkpt lat="42.423912000" lon="-2.435339000">
        <ele>418.60</ele>
        <time>2016-10-22T08:38:02Z</time>
      </trkpt>
      <trkpt lat="42.423912000" lon="-2.435339000">
        <ele>418.60</ele>
        <time>2016-10-22T08:38:03Z</time>
      </trkpt>
      <trkpt lat="42.423912000" lon="-2.435339000">
        <ele>418.70</ele>
        <time>2016-10-22T08:38:04Z</time>
      </trkpt>
      <trkpt lat="42.423912000" lon="-2.435339000">
        <ele>418.70</ele>
        <time>2016-10-22T08:38:05Z</time>
      </trkpt>
      <trkpt lat="42.423912000" lon="-2.435339000">
        <ele>418.70</ele>
        <time>2016-10-22T08:38:06Z</time>
      </trkpt>
      <trkpt lat="42.423912000" lon="-2.435339000">
        <ele>418.70</ele>
        <time>2016-10-22T08:38:07Z</time>
      </trkpt>
      <trkpt lat="42.423912000" lon="-2.435339000">
        <ele>418.70</ele>
        <time>2016-10-22T08:38:08Z</time>
      </trkpt>
      <trkpt lat="42.423912000" lon="-2.435339000">
        <ele>418.80</ele>
        <time>2016-10-22T08:38:09Z</time>
      </trkpt>
      <trkpt lat="42.423912000" lon="-2.435339000">
        <ele>418.80</ele>
        <time>2016-10-22T08:38:10Z</time>
      </trkpt>
      <trkpt lat="42.423912000" lon="-2.435339000">
        <ele>418.90</ele>
        <time>2016-10-22T08:38:11Z</time>
      </trkpt>
      <trkpt lat="42.423912000" lon="-2.435339000">
        <ele>418.90</ele>
        <time>2016-10-22T08:38:12Z</time>
      </trkpt>
      <trkpt lat="42.423912000" lon="-2.435339000">
        <ele>418.80</ele>
        <time>2016-10-22T08:38:13Z</time>
      </trkpt>
      <trkpt lat="42.423912000" lon="-2.435339000">
        <ele>418.80</ele>
        <time>2016-10-22T08:38:14Z</time>
      </trkpt>
      <trkpt lat="42.423912000" lon="-2.435339000">
        <ele>418.80</ele>
        <time>2016-10-22T08:38:15Z</time>
      </trkpt>
      <trkpt lat="42.423912000" lon="-2.435339000">
        <ele>418.80</ele>
        <time>2016-10-22T08:38:16Z</time>
      </trkpt>
      <trkpt lat="42.423912000" lon="-2.435339000">
        <ele>418.70</ele>
        <time>2016-10-22T08:38:17Z</time>
      </trkpt>
      <trkpt lat="42.423918000" lon="-2.435341000">
        <ele>418.70</ele>
        <time>2016-10-22T08:38:18Z</time>
      </trkpt>
      <trkpt lat="42.423918000" lon="-2.435341000">
        <ele>418.80</ele>
        <time>2016-10-22T08:38:19Z</time>
      </trkpt>
      <trkpt lat="42.423918000" lon="-2.435341000">
        <ele>418.80</ele>
        <time>2016-10-22T08:38:20Z</time>
      </trkpt>
      <trkpt lat="42.423918000" lon="-2.435341000">
        <ele>418.90</ele>
        <time>2016-10-22T08:38:21Z</time>
      </trkpt>
      <trkpt lat="42.423918000" lon="-2.435341000">
        <ele>418.90</ele>
        <time>2016-10-22T08:38:22Z</time>
      </trkpt>
      <trkpt lat="42.423918000" lon="-2.435341000">
        <ele>418.80</ele>
        <time>2016-10-22T08:38:23Z</time>
      </trkpt>
      <trkpt lat="42.423918000" lon="-2.435341000">
        <ele>418.70</ele>
        <time>2016-10-22T08:38:24Z</time>
      </trkpt>
      <trkpt lat="42.423918000" lon="-2.435341000">
        <ele>418.60</ele>
        <time>2016-10-22T08:38:25Z</time>
      </trkpt>
      <trkpt lat="42.423918000" lon="-2.435341000">
        <ele>418.60</ele>
        <time>2016-10-22T08:38:26Z</time>
      </trkpt>
      <trkpt lat="42.423918000" lon="-2.435341000">
        <ele>418.50</ele>
        <time>2016-10-22T08:38:27Z</time>
      </trkpt>
      <trkpt lat="42.423918000" lon="-2.435341000">
        <ele>418.50</ele>
        <time>2016-10-22T08:38:28Z</time>
      </trkpt>
      <trkpt lat="42.423918000" lon="-2.435341000">
        <ele>418.50</ele>
        <time>2016-10-22T08:38:29Z</time>
      </trkpt>
      <trkpt lat="42.423918000" lon="-2.435341000">
        <ele>418.50</ele>
        <time>2016-10-22T08:38:30Z</time>
      </trkpt>
      <trkpt lat="42.423918000" lon="-2.435341000">
        <ele>418.40</ele>
        <time>2016-10-22T08:38:31Z</time>
      </trkpt>
      <trkpt lat="42.423918000" lon="-2.435341000">
        <ele>418.40</ele>
        <time>2016-10-22T08:38:32Z</time>
      </trkpt>
      <trkpt lat="42.423918000" lon="-2.435341000">
        <ele>418.30</ele>
        <time>2016-10-22T08:38:33Z</time>
      </trkpt>
      <trkpt lat="42.423918000" lon="-2.435341000">
        <ele>418.30</ele>
        <time>2016-10-22T08:38:34Z</time>
      </trkpt>
      <trkpt lat="42.423918000" lon="-2.435341000">
        <ele>418.40</ele>
        <time>2016-10-22T08:38:35Z</time>
      </trkpt>
      <trkpt lat="42.423918000" lon="-2.435341000">
        <ele>418.50</ele>
        <time>2016-10-22T08:38:36Z</time>
      </trkpt>
      <trkpt lat="42.423918000" lon="-2.435341000">
        <ele>418.50</ele>
        <time>2016-10-22T08:38:37Z</time>
      </trkpt>
      <trkpt lat="42.423918000" lon="-2.435341000">
        <ele>418.60</ele>
        <time>2016-10-22T08:38:38Z</time>
      </trkpt>
      <trkpt lat="42.423918000" lon="-2.435341000">
        <ele>418.60</ele>
        <time>2016-10-22T08:38:39Z</time>
      </trkpt>
      <trkpt lat="42.423918000" lon="-2.435341000">
        <ele>418.60</ele>
        <time>2016-10-22T08:38:40Z</time>
      </trkpt>
      <trkpt lat="42.423918000" lon="-2.435341000">
        <ele>418.60</ele>
        <time>2016-10-22T08:38:41Z</time>
      </trkpt>
      <trkpt lat="42.423918000" lon="-2.435341000">
        <ele>418.70</ele>
        <time>2016-10-22T08:38:42Z</time>
      </trkpt>
      <trkpt lat="42.423918000" lon="-2.435341000">
        <ele>418.60</ele>
        <time>2016-10-22T08:38:43Z</time>
      </trkpt>
      <trkpt lat="42.423918000" lon="-2.435341000">
        <ele>418.60</ele>
        <time>2016-10-22T08:38:44Z</time>
      </trkpt>
      <trkpt lat="42.423918000" lon="-2.435341000">
        <ele>418.60</ele>
        <time>2016-10-22T08:38:45Z</time>
      </trkpt>
      <trkpt lat="42.423918000" lon="-2.435341000">
        <ele>418.60</ele>
        <time>2016-10-22T08:38:46Z</time>
      </trkpt>
      <trkpt lat="42.423918000" lon="-2.435341000">
        <ele>418.70</ele>
        <time>2016-10-22T08:38:47Z</time>
      </trkpt>
      <trkpt lat="42.423918000" lon="-2.435341000">
        <ele>418.70</ele>
        <time>2016-10-22T08:38:48Z</time>
      </trkpt>
      <trkpt lat="42.423918000" lon="-2.435341000">
        <ele>418.80</ele>
        <time>2016-10-22T08:38:49Z</time>
      </trkpt>
      <trkpt lat="42.423918000" lon="-2.435341000">
        <ele>418.80</ele>
        <time>2016-10-22T08:38:50Z</time>
      </trkpt>
      <trkpt lat="42.423918000" lon="-2.435341000">
        <ele>418.80</ele>
        <time>2016-10-22T08:38:51Z</time>
      </trkpt>
      <trkpt lat="42.423918000" lon="-2.435341000">
        <ele>418.80</ele>
        <time>2016-10-22T08:38:52Z</time>
      </trkpt>
      <trkpt lat="42.423918000" lon="-2.435341000">
        <ele>418.70</ele>
        <time>2016-10-22T08:38:53Z</time>
      </trkpt>
      <trkpt lat="42.423918000" lon="-2.435341000">
        <ele>418.70</ele>
        <time>2016-10-22T08:38:54Z</time>
      </trkpt>
      <trkpt lat="42.423918000" lon="-2.435341000">
        <ele>418.80</ele>
        <time>2016-10-22T08:38:55Z</time>
      </trkpt>
      <trkpt lat="42.423918000" lon="-2.435341000">
        <ele>418.90</ele>
        <time>2016-10-22T08:38:56Z</time>
      </trkpt>
      <trkpt lat="42.423918000" lon="-2.435341000">
        <ele>418.90</ele>
        <time>2016-10-22T08:38:57Z</time>
      </trkpt>
      <trkpt lat="42.423917000" lon="-2.435332000">
        <ele>418.90</ele>
        <time>2016-10-22T08:38:58Z</time>
      </trkpt>
      <trkpt lat="42.423917000" lon="-2.435332000">
        <ele>419.00</ele>
        <time>2016-10-22T08:38:59Z</time>
      </trkpt>
      <trkpt lat="42.423917000" lon="-2.435332000">
        <ele>418.90</ele>
        <time>2016-10-22T08:39:01Z</time>
      </trkpt>
      <trkpt lat="42.423917000" lon="-2.435332000">
        <ele>418.80</ele>
        <time>2016-10-22T08:39:02Z</time>
      </trkpt>
      <trkpt lat="42.423917000" lon="-2.435332000">
        <ele>418.70</ele>
        <time>2016-10-22T08:39:03Z</time>
      </trkpt>
      <trkpt lat="42.423917000" lon="-2.435332000">
        <ele>418.70</ele>
        <time>2016-10-22T08:39:04Z</time>
      </trkpt>
      <trkpt lat="42.423917000" lon="-2.435332000">
        <ele>418.60</ele>
        <time>2016-10-22T08:39:05Z</time>
      </trkpt>
      <trkpt lat="42.423917000" lon="-2.435332000">
        <ele>418.60</ele>
        <time>2016-10-22T08:39:06Z</time>
      </trkpt>
      <trkpt lat="42.423917000" lon="-2.435332000">
        <ele>418.60</ele>
        <time>2016-10-22T08:39:07Z</time>
      </trkpt>
      <trkpt lat="42.423917000" lon="-2.435332000">
        <ele>418.60</ele>
        <time>2016-10-22T08:39:08Z</time>
      </trkpt>
      <trkpt lat="42.423917000" lon="-2.435332000">
        <ele>418.50</ele>
        <time>2016-10-22T08:39:09Z</time>
      </trkpt>
      <trkpt lat="42.423917000" lon="-2.435332000">
        <ele>418.50</ele>
        <time>2016-10-22T08:39:10Z</time>
      </trkpt>
      <trkpt lat="42.423917000" lon="-2.435332000">
        <ele>418.60</ele>
        <time>2016-10-22T08:39:11Z</time>
      </trkpt>
      <trkpt lat="42.423917000" lon="-2.435332000">
        <ele>418.60</ele>
        <time>2016-10-22T08:39:12Z</time>
      </trkpt>
      <trkpt lat="42.423917000" lon="-2.435332000">
        <ele>418.70</ele>
        <time>2016-10-22T08:39:13Z</time>
      </trkpt>
      <trkpt lat="42.423917000" lon="-2.435332000">
        <ele>418.70</ele>
        <time>2016-10-22T08:39:14Z</time>
      </trkpt>
      <trkpt lat="42.423917000" lon="-2.435332000">
        <ele>418.70</ele>
        <time>2016-10-22T08:39:15Z</time>
      </trkpt>
      <trkpt lat="42.423917000" lon="-2.435332000">
        <ele>418.70</ele>
        <time>2016-10-22T08:39:16Z</time>
      </trkpt>
      <trkpt lat="42.423917000" lon="-2.435332000">
        <ele>418.70</ele>
        <time>2016-10-22T08:39:17Z</time>
      </trkpt>
      <trkpt lat="42.423917000" lon="-2.435332000">
        <ele>418.80</ele>
        <time>2016-10-22T08:39:18Z</time>
      </trkpt>
      <trkpt lat="42.423917000" lon="-2.435332000">
        <ele>418.80</ele>
        <time>2016-10-22T08:39:19Z</time>
      </trkpt>
      <trkpt lat="42.423917000" lon="-2.435332000">
        <ele>418.90</ele>
        <time>2016-10-22T08:39:20Z</time>
      </trkpt>
      <trkpt lat="42.423917000" lon="-2.435332000">
        <ele>418.90</ele>
        <time>2016-10-22T08:39:21Z</time>
      </trkpt>
      <trkpt lat="42.423917000" lon="-2.435332000">
        <ele>418.90</ele>
        <time>2016-10-22T08:39:22Z</time>
      </trkpt>
      <trkpt lat="42.423917000" lon="-2.435332000">
        <ele>419.00</ele>
        <time>2016-10-22T08:39:23Z</time>
      </trkpt>
      <trkpt lat="42.423917000" lon="-2.435332000">
        <ele>419.10</ele>
        <time>2016-10-22T08:39:24Z</time>
      </trkpt>
      <trkpt lat="42.423917000" lon="-2.435332000">
        <ele>419.20</ele>
        <time>2016-10-22T08:39:25Z</time>
      </trkpt>
      <trkpt lat="42.423917000" lon="-2.435332000">
        <ele>419.30</ele>
        <time>2016-10-22T08:39:26Z</time>
      </trkpt>
      <trkpt lat="42.423917000" lon="-2.435332000">
        <ele>419.40</ele>
        <time>2016-10-22T08:39:27Z</time>
      </trkpt>
      <trkpt lat="42.423917000" lon="-2.435332000">
        <ele>419.40</ele>
        <time>2016-10-22T08:39:28Z</time>
      </trkpt>
      <trkpt lat="42.423917000" lon="-2.435332000">
        <ele>419.10</ele>
        <time>2016-10-22T08:39:29Z</time>
      </trkpt>
      <trkpt lat="42.423917000" lon="-2.435332000">
        <ele>418.90</ele>
        <time>2016-10-22T08:39:30Z</time>
      </trkpt>
      <trkpt lat="42.423917000" lon="-2.435332000">
        <ele>418.70</ele>
        <time>2016-10-22T08:39:31Z</time>
      </trkpt>
      <trkpt lat="42.423917000" lon="-2.435332000">
        <ele>418.60</ele>
        <time>2016-10-22T08:39:32Z</time>
      </trkpt>
      <trkpt lat="42.423917000" lon="-2.435332000">
        <ele>418.70</ele>
        <time>2016-10-22T08:39:33Z</time>
      </trkpt>
      <trkpt lat="42.423917000" lon="-2.435332000">
        <ele>418.70</ele>
        <time>2016-10-22T08:39:34Z</time>
      </trkpt>
      <trkpt lat="42.423917000" lon="-2.435332000">
        <ele>418.70</ele>
        <time>2016-10-22T08:39:35Z</time>
      </trkpt>
      <trkpt lat="42.423917000" lon="-2.435332000">
        <ele>418.70</ele>
        <time>2016-10-22T08:39:36Z</time>
      </trkpt>
      <trkpt lat="42.423917000" lon="-2.435332000">
        <ele>418.70</ele>
        <time>2016-10-22T08:39:37Z</time>
      </trkpt>
      <trkpt lat="42.423913000" lon="-2.435321000">
        <ele>418.70</ele>
        <time>2016-10-22T08:39:38Z</time>
      </trkpt>
      <trkpt lat="42.423913000" lon="-2.435321000">
        <ele>418.70</ele>
        <time>2016-10-22T08:39:39Z</time>
      </trkpt>
      <trkpt lat="42.423913000" lon="-2.435321000">
        <ele>418.70</ele>
        <time>2016-10-22T08:39:40Z</time>
      </trkpt>
      <trkpt lat="42.423913000" lon="-2.435321000">
        <ele>418.70</ele>
        <time>2016-10-22T08:39:41Z</time>
      </trkpt>
      <trkpt lat="42.423913000" lon="-2.435321000">
        <ele>418.60</ele>
        <time>2016-10-22T08:39:42Z</time>
      </trkpt>
      <trkpt lat="42.423913000" lon="-2.435321000">
        <ele>418.60</ele>
        <time>2016-10-22T08:39:43Z</time>
      </trkpt>
      <trkpt lat="42.423913000" lon="-2.435321000">
        <ele>418.60</ele>
        <time>2016-10-22T08:39:44Z</time>
      </trkpt>
      <trkpt lat="42.423913000" lon="-2.435321000">
        <ele>418.80</ele>
        <time>2016-10-22T08:39:45Z</time>
      </trkpt>
      <trkpt lat="42.423913000" lon="-2.435321000">
        <ele>418.80</ele>
        <time>2016-10-22T08:39:46Z</time>
      </trkpt>
      <trkpt lat="42.423913000" lon="-2.435321000">
        <ele>419.00</ele>
        <time>2016-10-22T08:39:47Z</time>
      </trkpt>
      <trkpt lat="42.423913000" lon="-2.435321000">
        <ele>419.00</ele>
        <time>2016-10-22T08:39:48Z</time>
      </trkpt>
      <trkpt lat="42.423913000" lon="-2.435321000">
        <ele>419.10</ele>
        <time>2016-10-22T08:39:49Z</time>
      </trkpt>
      <trkpt lat="42.423913000" lon="-2.435321000">
        <ele>419.10</ele>
        <time>2016-10-22T08:39:50Z</time>
      </trkpt>
      <trkpt lat="42.423913000" lon="-2.435321000">
        <ele>419.20</ele>
        <time>2016-10-22T08:39:51Z</time>
      </trkpt>
      <trkpt lat="42.423913000" lon="-2.435321000">
        <ele>419.20</ele>
        <time>2016-10-22T08:39:52Z</time>
      </trkpt>
      <trkpt lat="42.423913000" lon="-2.435321000">
        <ele>419.20</ele>
        <time>2016-10-22T08:39:53Z</time>
      </trkpt>
      <trkpt lat="42.423913000" lon="-2.435321000">
        <ele>419.20</ele>
        <time>2016-10-22T08:39:54Z</time>
      </trkpt>
      <trkpt lat="42.423913000" lon="-2.435321000">
        <ele>419.20</ele>
        <time>2016-10-22T08:39:55Z</time>
      </trkpt>
      <trkpt lat="42.423913000" lon="-2.435321000">
        <ele>419.30</ele>
        <time>2016-10-22T08:39:56Z</time>
      </trkpt>
      <trkpt lat="42.423913000" lon="-2.435321000">
        <ele>419.20</ele>
        <time>2016-10-22T08:39:57Z</time>
      </trkpt>
      <trkpt lat="42.423913000" lon="-2.435321000">
        <ele>419.20</ele>
        <time>2016-10-22T08:39:58Z</time>
      </trkpt>
      <trkpt lat="42.423913000" lon="-2.435321000">
        <ele>419.20</ele>
        <time>2016-10-22T08:39:59Z</time>
      </trkpt>
      <trkpt lat="42.423913000" lon="-2.435321000">
        <ele>419.20</ele>
        <time>2016-10-22T08:40:00Z</time>
      </trkpt>
      <trkpt lat="42.423913000" lon="-2.435321000">
        <ele>419.10</ele>
        <time>2016-10-22T08:40:02Z</time>
      </trkpt>
      <trkpt lat="42.423913000" lon="-2.435321000">
        <ele>419.10</ele>
        <time>2016-10-22T08:40:03Z</time>
      </trkpt>
      <trkpt lat="42.423913000" lon="-2.435321000">
        <ele>419.10</ele>
        <time>2016-10-22T08:40:04Z</time>
      </trkpt>
      <trkpt lat="42.423913000" lon="-2.435321000">
        <ele>419.10</ele>
        <time>2016-10-22T08:40:05Z</time>
      </trkpt>
      <trkpt lat="42.423913000" lon="-2.435321000">
        <ele>419.10</ele>
        <time>2016-10-22T08:40:06Z</time>
      </trkpt>
      <trkpt lat="42.423913000" lon="-2.435321000">
        <ele>419.10</ele>
        <time>2016-10-22T08:40:07Z</time>
      </trkpt>
      <trkpt lat="42.423913000" lon="-2.435321000">
        <ele>419.10</ele>
        <time>2016-10-22T08:40:08Z</time>
      </trkpt>
      <trkpt lat="42.423913000" lon="-2.435321000">
        <ele>419.10</ele>
        <time>2016-10-22T08:40:09Z</time>
      </trkpt>
      <trkpt lat="42.423913000" lon="-2.435321000">
        <ele>419.10</ele>
        <time>2016-10-22T08:40:10Z</time>
      </trkpt>
      <trkpt lat="42.423913000" lon="-2.435321000">
        <ele>419.10</ele>
        <time>2016-10-22T08:40:11Z</time>
      </trkpt>
      <trkpt lat="42.423913000" lon="-2.435321000">
        <ele>419.10</ele>
        <time>2016-10-22T08:40:12Z</time>
      </trkpt>
      <trkpt lat="42.423913000" lon="-2.435321000">
        <ele>419.10</ele>
        <time>2016-10-22T08:40:13Z</time>
      </trkpt>
      <trkpt lat="42.423913000" lon="-2.435321000">
        <ele>419.00</ele>
        <time>2016-10-22T08:40:14Z</time>
      </trkpt>
      <trkpt lat="42.423913000" lon="-2.435321000">
        <ele>419.00</ele>
        <time>2016-10-22T08:40:15Z</time>
      </trkpt>
      <trkpt lat="42.423913000" lon="-2.435321000">
        <ele>418.90</ele>
        <time>2016-10-22T08:40:16Z</time>
      </trkpt>
      <trkpt lat="42.423913000" lon="-2.435321000">
        <ele>418.90</ele>
        <time>2016-10-22T08:40:17Z</time>
      </trkpt>
      <trkpt lat="42.423915000" lon="-2.435317000">
        <ele>418.90</ele>
        <time>2016-10-22T08:40:18Z</time>
      </trkpt>
      <trkpt lat="42.423915000" lon="-2.435317000">
        <ele>418.90</ele>
        <time>2016-10-22T08:40:19Z</time>
      </trkpt>
      <trkpt lat="42.423915000" lon="-2.435317000">
        <ele>418.90</ele>
        <time>2016-10-22T08:40:20Z</time>
      </trkpt>
      <trkpt lat="42.423915000" lon="-2.435317000">
        <ele>418.90</ele>
        <time>2016-10-22T08:40:21Z</time>
      </trkpt>
      <trkpt lat="42.423915000" lon="-2.435317000">
        <ele>418.90</ele>
        <time>2016-10-22T08:40:22Z</time>
      </trkpt>
      <trkpt lat="42.423915000" lon="-2.435317000">
        <ele>419.00</ele>
        <time>2016-10-22T08:40:23Z</time>
      </trkpt>
      <trkpt lat="42.423915000" lon="-2.435317000">
        <ele>419.00</ele>
        <time>2016-10-22T08:40:24Z</time>
      </trkpt>
      <trkpt lat="42.423915000" lon="-2.435317000">
        <ele>419.10</ele>
        <time>2016-10-22T08:40:25Z</time>
      </trkpt>
      <trkpt lat="42.423915000" lon="-2.435317000">
        <ele>419.20</ele>
        <time>2016-10-22T08:40:26Z</time>
      </trkpt>
      <trkpt lat="42.423915000" lon="-2.435317000">
        <ele>419.20</ele>
        <time>2016-10-22T08:40:27Z</time>
      </trkpt>
      <trkpt lat="42.423915000" lon="-2.435317000">
        <ele>419.30</ele>
        <time>2016-10-22T08:40:28Z</time>
      </trkpt>
      <trkpt lat="42.423915000" lon="-2.435317000">
        <ele>419.30</ele>
        <time>2016-10-22T08:40:29Z</time>
      </trkpt>
      <trkpt lat="42.423915000" lon="-2.435317000">
        <ele>419.40</ele>
        <time>2016-10-22T08:40:30Z</time>
      </trkpt>
      <trkpt lat="42.423915000" lon="-2.435317000">
        <ele>419.30</ele>
        <time>2016-10-22T08:40:31Z</time>
      </trkpt>
      <trkpt lat="42.423915000" lon="-2.435317000">
        <ele>419.30</ele>
        <time>2016-10-22T08:40:32Z</time>
      </trkpt>
      <trkpt lat="42.423915000" lon="-2.435317000">
        <ele>419.20</ele>
        <time>2016-10-22T08:40:33Z</time>
      </trkpt>
      <trkpt lat="42.423915000" lon="-2.435317000">
        <ele>419.10</ele>
        <time>2016-10-22T08:40:34Z</time>
      </trkpt>
      <trkpt lat="42.423915000" lon="-2.435317000">
        <ele>419.10</ele>
        <time>2016-10-22T08:40:35Z</time>
      </trkpt>
      <trkpt lat="42.423915000" lon="-2.435317000">
        <ele>419.10</ele>
        <time>2016-10-22T08:40:36Z</time>
      </trkpt>
      <trkpt lat="42.423915000" lon="-2.435317000">
        <ele>419.10</ele>
        <time>2016-10-22T08:40:37Z</time>
      </trkpt>
      <trkpt lat="42.423915000" lon="-2.435317000">
        <ele>419.10</ele>
        <time>2016-10-22T08:40:38Z</time>
      </trkpt>
      <trkpt lat="42.423915000" lon="-2.435317000">
        <ele>419.20</ele>
        <time>2016-10-22T08:40:39Z</time>
      </trkpt>
      <trkpt lat="42.423915000" lon="-2.435317000">
        <ele>419.30</ele>
        <time>2016-10-22T08:40:40Z</time>
      </trkpt>
      <trkpt lat="42.423915000" lon="-2.435317000">
        <ele>419.30</ele>
        <time>2016-10-22T08:40:41Z</time>
      </trkpt>
      <trkpt lat="42.423915000" lon="-2.435317000">
        <ele>419.20</ele>
        <time>2016-10-22T08:40:42Z</time>
      </trkpt>
      <trkpt lat="42.423915000" lon="-2.435317000">
        <ele>419.30</ele>
        <time>2016-10-22T08:40:43Z</time>
      </trkpt>
      <trkpt lat="42.423915000" lon="-2.435317000">
        <ele>419.30</ele>
        <time>2016-10-22T08:40:44Z</time>
      </trkpt>
      <trkpt lat="42.423915000" lon="-2.435317000">
        <ele>419.30</ele>
        <time>2016-10-22T08:40:45Z</time>
      </trkpt>
      <trkpt lat="42.423915000" lon="-2.435317000">
        <ele>419.30</ele>
        <time>2016-10-22T08:40:46Z</time>
      </trkpt>
      <trkpt lat="42.423915000" lon="-2.435317000">
        <ele>419.30</ele>
        <time>2016-10-22T08:40:47Z</time>
      </trkpt>
      <trkpt lat="42.423915000" lon="-2.435317000">
        <ele>419.40</ele>
        <time>2016-10-22T08:40:48Z</time>
      </trkpt>
      <trkpt lat="42.423915000" lon="-2.435317000">
        <ele>419.30</ele>
        <time>2016-10-22T08:40:49Z</time>
      </trkpt>
      <trkpt lat="42.423915000" lon="-2.435317000">
        <ele>419.30</ele>
        <time>2016-10-22T08:40:50Z</time>
      </trkpt>
      <trkpt lat="42.423915000" lon="-2.435317000">
        <ele>419.30</ele>
        <time>2016-10-22T08:40:51Z</time>
      </trkpt>
      <trkpt lat="42.423915000" lon="-2.435317000">
        <ele>419.40</ele>
        <time>2016-10-22T08:40:52Z</time>
      </trkpt>
      <trkpt lat="42.423915000" lon="-2.435317000">
        <ele>419.30</ele>
        <time>2016-10-22T08:40:53Z</time>
      </trkpt>
      <trkpt lat="42.423915000" lon="-2.435317000">
        <ele>419.30</ele>
        <time>2016-10-22T08:40:54Z</time>
      </trkpt>
      <trkpt lat="42.423915000" lon="-2.435317000">
        <ele>419.30</ele>
        <time>2016-10-22T08:40:55Z</time>
      </trkpt>
      <trkpt lat="42.423915000" lon="-2.435317000">
        <ele>419.30</ele>
        <time>2016-10-22T08:40:56Z</time>
      </trkpt>
      <trkpt lat="42.423915000" lon="-2.435317000">
        <ele>419.20</ele>
        <time>2016-10-22T08:40:57Z</time>
      </trkpt>
      <trkpt lat="42.423913000" lon="-2.435319000">
        <ele>419.20</ele>
        <time>2016-10-22T08:40:58Z</time>
      </trkpt>
      <trkpt lat="42.423913000" lon="-2.435319000">
        <ele>419.20</ele>
        <time>2016-10-22T08:40:59Z</time>
      </trkpt>
      <trkpt lat="42.423913000" lon="-2.435319000">
        <ele>419.20</ele>
        <time>2016-10-22T08:41:00Z</time>
      </trkpt>
      <trkpt lat="42.423913000" lon="-2.435319000">
        <ele>419.30</ele>
        <time>2016-10-22T08:41:01Z</time>
      </trkpt>
      <trkpt lat="42.423913000" lon="-2.435319000">
        <ele>419.40</ele>
        <time>2016-10-22T08:41:03Z</time>
      </trkpt>
      <trkpt lat="42.423913000" lon="-2.435319000">
        <ele>419.40</ele>
        <time>2016-10-22T08:41:04Z</time>
      </trkpt>
      <trkpt lat="42.423913000" lon="-2.435319000">
        <ele>419.40</ele>
        <time>2016-10-22T08:41:05Z</time>
      </trkpt>
      <trkpt lat="42.423913000" lon="-2.435319000">
        <ele>419.40</ele>
        <time>2016-10-22T08:41:06Z</time>
      </trkpt>
      <trkpt lat="42.423913000" lon="-2.435319000">
        <ele>419.40</ele>
        <time>2016-10-22T08:41:07Z</time>
      </trkpt>
      <trkpt lat="42.423913000" lon="-2.435319000">
        <ele>419.40</ele>
        <time>2016-10-22T08:41:08Z</time>
      </trkpt>
      <trkpt lat="42.423913000" lon="-2.435319000">
        <ele>419.50</ele>
        <time>2016-10-22T08:41:09Z</time>
      </trkpt>
      <trkpt lat="42.423913000" lon="-2.435319000">
        <ele>419.60</ele>
        <time>2016-10-22T08:41:10Z</time>
      </trkpt>
      <trkpt lat="42.423913000" lon="-2.435319000">
        <ele>419.50</ele>
        <time>2016-10-22T08:41:11Z</time>
      </trkpt>
      <trkpt lat="42.423913000" lon="-2.435319000">
        <ele>419.40</ele>
        <time>2016-10-22T08:41:12Z</time>
      </trkpt>
      <trkpt lat="42.423913000" lon="-2.435319000">
        <ele>419.40</ele>
        <time>2016-10-22T08:41:13Z</time>
      </trkpt>
      <trkpt lat="42.423913000" lon="-2.435319000">
        <ele>419.40</ele>
        <time>2016-10-22T08:41:14Z</time>
      </trkpt>
      <trkpt lat="42.423913000" lon="-2.435319000">
        <ele>419.30</ele>
        <time>2016-10-22T08:41:15Z</time>
      </trkpt>
      <trkpt lat="42.423913000" lon="-2.435319000">
        <ele>419.20</ele>
        <time>2016-10-22T08:41:16Z</time>
      </trkpt>
      <trkpt lat="42.423913000" lon="-2.435319000">
        <ele>419.20</ele>
        <time>2016-10-22T08:41:17Z</time>
      </trkpt>
      <trkpt lat="42.423913000" lon="-2.435319000">
        <ele>419.10</ele>
        <time>2016-10-22T08:41:18Z</time>
      </trkpt>
      <trkpt lat="42.423913000" lon="-2.435319000">
        <ele>419.10</ele>
        <time>2016-10-22T08:41:19Z</time>
      </trkpt>
      <trkpt lat="42.423913000" lon="-2.435319000">
        <ele>419.10</ele>
        <time>2016-10-22T08:41:20Z</time>
      </trkpt>
      <trkpt lat="42.423913000" lon="-2.435319000">
        <ele>419.20</ele>
        <time>2016-10-22T08:41:21Z</time>
      </trkpt>
      <trkpt lat="42.423913000" lon="-2.435319000">
        <ele>419.30</ele>
        <time>2016-10-22T08:41:22Z</time>
      </trkpt>
      <trkpt lat="42.423913000" lon="-2.435319000">
        <ele>419.40</ele>
        <time>2016-10-22T08:41:23Z</time>
      </trkpt>
      <trkpt lat="42.423913000" lon="-2.435319000">
        <ele>419.40</ele>
        <time>2016-10-22T08:41:24Z</time>
      </trkpt>
      <trkpt lat="42.423913000" lon="-2.435319000">
        <ele>419.40</ele>
        <time>2016-10-22T08:41:25Z</time>
      </trkpt>
      <trkpt lat="42.423913000" lon="-2.435319000">
        <ele>419.50</ele>
        <time>2016-10-22T08:41:26Z</time>
      </trkpt>
      <trkpt lat="42.423913000" lon="-2.435319000">
        <ele>419.50</ele>
        <time>2016-10-22T08:41:27Z</time>
      </trkpt>
      <trkpt lat="42.423913000" lon="-2.435319000">
        <ele>419.50</ele>
        <time>2016-10-22T08:41:28Z</time>
      </trkpt>
      <trkpt lat="42.423913000" lon="-2.435319000">
        <ele>419.40</ele>
        <time>2016-10-22T08:41:29Z</time>
      </trkpt>
      <trkpt lat="42.423913000" lon="-2.435319000">
        <ele>419.30</ele>
        <time>2016-10-22T08:41:30Z</time>
      </trkpt>
      <trkpt lat="42.423913000" lon="-2.435319000">
        <ele>419.20</ele>
        <time>2016-10-22T08:41:31Z</time>
      </trkpt>
      <trkpt lat="42.423913000" lon="-2.435319000">
        <ele>419.10</ele>
        <time>2016-10-22T08:41:32Z</time>
      </trkpt>
      <trkpt lat="42.423913000" lon="-2.435319000">
        <ele>419.00</ele>
        <time>2016-10-22T08:41:33Z</time>
      </trkpt>
      <trkpt lat="42.423913000" lon="-2.435319000">
        <ele>418.90</ele>
        <time>2016-10-22T08:41:34Z</time>
      </trkpt>
      <trkpt lat="42.423913000" lon="-2.435319000">
        <ele>418.90</ele>
        <time>2016-10-22T08:41:35Z</time>
      </trkpt>
      <trkpt lat="42.423913000" lon="-2.435319000">
        <ele>418.90</ele>
        <time>2016-10-22T08:41:36Z</time>
      </trkpt>
      <trkpt lat="42.423913000" lon="-2.435319000">
        <ele>418.80</ele>
        <time>2016-10-22T08:41:37Z</time>
      </trkpt>
      <trkpt lat="42.423916000" lon="-2.435322000">
        <ele>418.80</ele>
        <time>2016-10-22T08:41:38Z</time>
      </trkpt>
      <trkpt lat="42.423916000" lon="-2.435322000">
        <ele>418.80</ele>
        <time>2016-10-22T08:41:39Z</time>
      </trkpt>
      <trkpt lat="42.423916000" lon="-2.435322000">
        <ele>418.80</ele>
        <time>2016-10-22T08:41:40Z</time>
      </trkpt>
      <trkpt lat="42.423916000" lon="-2.435322000">
        <ele>418.90</ele>
        <time>2016-10-22T08:41:41Z</time>
      </trkpt>
      <trkpt lat="42.423916000" lon="-2.435322000">
        <ele>419.00</ele>
        <time>2016-10-22T08:41:42Z</time>
      </trkpt>
      <trkpt lat="42.423916000" lon="-2.435322000">
        <ele>419.10</ele>
        <time>2016-10-22T08:41:43Z</time>
      </trkpt>
      <trkpt lat="42.423916000" lon="-2.435322000">
        <ele>419.10</ele>
        <time>2016-10-22T08:41:44Z</time>
      </trkpt>
      <trkpt lat="42.423916000" lon="-2.435322000">
        <ele>419.20</ele>
        <time>2016-10-22T08:41:45Z</time>
      </trkpt>
      <trkpt lat="42.423916000" lon="-2.435322000">
        <ele>419.20</ele>
        <time>2016-10-22T08:41:46Z</time>
      </trkpt>
      <trkpt lat="42.423916000" lon="-2.435322000">
        <ele>419.20</ele>
        <time>2016-10-22T08:41:47Z</time>
      </trkpt>
      <trkpt lat="42.423916000" lon="-2.435322000">
        <ele>419.20</ele>
        <time>2016-10-22T08:41:48Z</time>
      </trkpt>
      <trkpt lat="42.423916000" lon="-2.435322000">
        <ele>419.30</ele>
        <time>2016-10-22T08:41:49Z</time>
      </trkpt>
      <trkpt lat="42.423916000" lon="-2.435322000">
        <ele>419.30</ele>
        <time>2016-10-22T08:41:50Z</time>
      </trkpt>
      <trkpt lat="42.423916000" lon="-2.435322000">
        <ele>419.20</ele>
        <time>2016-10-22T08:41:51Z</time>
      </trkpt>
      <trkpt lat="42.423916000" lon="-2.435322000">
        <ele>419.20</ele>
        <time>2016-10-22T08:41:52Z</time>
      </trkpt>
      <trkpt lat="42.423916000" lon="-2.435322000">
        <ele>419.30</ele>
        <time>2016-10-22T08:41:53Z</time>
      </trkpt>
      <trkpt lat="42.423916000" lon="-2.435322000">
        <ele>419.30</ele>
        <time>2016-10-22T08:41:54Z</time>
      </trkpt>
      <trkpt lat="42.423916000" lon="-2.435322000">
        <ele>419.30</ele>
        <time>2016-10-22T08:41:55Z</time>
      </trkpt>
      <trkpt lat="42.423916000" lon="-2.435322000">
        <ele>419.30</ele>
        <time>2016-10-22T08:41:56Z</time>
      </trkpt>
      <trkpt lat="42.423916000" lon="-2.435322000">
        <ele>419.40</ele>
        <time>2016-10-22T08:41:57Z</time>
      </trkpt>
      <trkpt lat="42.423916000" lon="-2.435322000">
        <ele>419.50</ele>
        <time>2016-10-22T08:41:58Z</time>
      </trkpt>
      <trkpt lat="42.423916000" lon="-2.435322000">
        <ele>419.50</ele>
        <time>2016-10-22T08:41:59Z</time>
      </trkpt>
      <trkpt lat="42.423916000" lon="-2.435322000">
        <ele>419.50</ele>
        <time>2016-10-22T08:42:00Z</time>
      </trkpt>
      <trkpt lat="42.423916000" lon="-2.435322000">
        <ele>419.50</ele>
        <time>2016-10-22T08:42:01Z</time>
      </trkpt>
      <trkpt lat="42.423916000" lon="-2.435322000">
        <ele>419.50</ele>
        <time>2016-10-22T08:42:02Z</time>
      </trkpt>
      <trkpt lat="42.423916000" lon="-2.435322000">
        <ele>419.40</ele>
        <time>2016-10-22T08:42:04Z</time>
      </trkpt>
      <trkpt lat="42.423916000" lon="-2.435322000">
        <ele>419.30</ele>
        <time>2016-10-22T08:42:05Z</time>
      </trkpt>
      <trkpt lat="42.423916000" lon="-2.435322000">
        <ele>419.20</ele>
        <time>2016-10-22T08:42:06Z</time>
      </trkpt>
      <trkpt lat="42.423916000" lon="-2.435322000">
        <ele>419.20</ele>
        <time>2016-10-22T08:42:07Z</time>
      </trkpt>
      <trkpt lat="42.423916000" lon="-2.435322000">
        <ele>419.30</ele>
        <time>2016-10-22T08:42:08Z</time>
      </trkpt>
      <trkpt lat="42.423916000" lon="-2.435322000">
        <ele>419.20</ele>
        <time>2016-10-22T08:42:09Z</time>
      </trkpt>
      <trkpt lat="42.423916000" lon="-2.435322000">
        <ele>419.20</ele>
        <time>2016-10-22T08:42:10Z</time>
      </trkpt>
      <trkpt lat="42.423916000" lon="-2.435322000">
        <ele>419.20</ele>
        <time>2016-10-22T08:42:11Z</time>
      </trkpt>
      <trkpt lat="42.423916000" lon="-2.435322000">
        <ele>419.20</ele>
        <time>2016-10-22T08:42:12Z</time>
      </trkpt>
      <trkpt lat="42.423916000" lon="-2.435322000">
        <ele>419.20</ele>
        <time>2016-10-22T08:42:13Z</time>
      </trkpt>
      <trkpt lat="42.423916000" lon="-2.435322000">
        <ele>419.20</ele>
        <time>2016-10-22T08:42:14Z</time>
      </trkpt>
      <trkpt lat="42.423916000" lon="-2.435322000">
        <ele>419.10</ele>
        <time>2016-10-22T08:42:15Z</time>
      </trkpt>
      <trkpt lat="42.423916000" lon="-2.435322000">
        <ele>419.00</ele>
        <time>2016-10-22T08:42:16Z</time>
      </trkpt>
      <trkpt lat="42.423916000" lon="-2.435322000">
        <ele>419.00</ele>
        <time>2016-10-22T08:42:17Z</time>
      </trkpt>
      <trkpt lat="42.423917000" lon="-2.435324000">
        <ele>419.10</ele>
        <time>2016-10-22T08:42:18Z</time>
      </trkpt>
      <trkpt lat="42.423917000" lon="-2.435324000">
        <ele>419.10</ele>
        <time>2016-10-22T08:42:19Z</time>
      </trkpt>
      <trkpt lat="42.423917000" lon="-2.435324000">
        <ele>419.10</ele>
        <time>2016-10-22T08:42:20Z</time>
      </trkpt>
      <trkpt lat="42.423917000" lon="-2.435324000">
        <ele>419.10</ele>
        <time>2016-10-22T08:42:21Z</time>
      </trkpt>
      <trkpt lat="42.423917000" lon="-2.435324000">
        <ele>419.10</ele>
        <time>2016-10-22T08:42:22Z</time>
      </trkpt>
      <trkpt lat="42.423917000" lon="-2.435324000">
        <ele>419.20</ele>
        <time>2016-10-22T08:42:23Z</time>
      </trkpt>
      <trkpt lat="42.423917000" lon="-2.435324000">
        <ele>419.20</ele>
        <time>2016-10-22T08:42:24Z</time>
      </trkpt>
      <trkpt lat="42.423917000" lon="-2.435324000">
        <ele>419.30</ele>
        <time>2016-10-22T08:42:25Z</time>
      </trkpt>
      <trkpt lat="42.423917000" lon="-2.435324000">
        <ele>419.30</ele>
        <time>2016-10-22T08:42:26Z</time>
      </trkpt>
      <trkpt lat="42.423917000" lon="-2.435324000">
        <ele>419.30</ele>
        <time>2016-10-22T08:42:27Z</time>
      </trkpt>
      <trkpt lat="42.423917000" lon="-2.435324000">
        <ele>419.40</ele>
        <time>2016-10-22T08:42:28Z</time>
      </trkpt>
      <trkpt lat="42.423917000" lon="-2.435324000">
        <ele>419.40</ele>
        <time>2016-10-22T08:42:29Z</time>
      </trkpt>
      <trkpt lat="42.423917000" lon="-2.435324000">
        <ele>419.40</ele>
        <time>2016-10-22T08:42:30Z</time>
      </trkpt>
      <trkpt lat="42.423917000" lon="-2.435324000">
        <ele>419.40</ele>
        <time>2016-10-22T08:42:31Z</time>
      </trkpt>
      <trkpt lat="42.423917000" lon="-2.435324000">
        <ele>419.40</ele>
        <time>2016-10-22T08:42:32Z</time>
      </trkpt>
      <trkpt lat="42.423917000" lon="-2.435324000">
        <ele>419.40</ele>
        <time>2016-10-22T08:42:33Z</time>
      </trkpt>
      <trkpt lat="42.423917000" lon="-2.435324000">
        <ele>419.30</ele>
        <time>2016-10-22T08:42:34Z</time>
      </trkpt>
      <trkpt lat="42.423917000" lon="-2.435324000">
        <ele>419.30</ele>
        <time>2016-10-22T08:42:35Z</time>
      </trkpt>
      <trkpt lat="42.423917000" lon="-2.435324000">
        <ele>419.30</ele>
        <time>2016-10-22T08:42:36Z</time>
      </trkpt>
      <trkpt lat="42.423917000" lon="-2.435324000">
        <ele>419.30</ele>
        <time>2016-10-22T08:42:37Z</time>
      </trkpt>
      <trkpt lat="42.423917000" lon="-2.435324000">
        <ele>419.30</ele>
        <time>2016-10-22T08:42:38Z</time>
      </trkpt>
      <trkpt lat="42.423917000" lon="-2.435324000">
        <ele>419.20</ele>
        <time>2016-10-22T08:42:39Z</time>
      </trkpt>
      <trkpt lat="42.423917000" lon="-2.435324000">
        <ele>419.10</ele>
        <time>2016-10-22T08:42:40Z</time>
      </trkpt>
      <trkpt lat="42.423917000" lon="-2.435324000">
        <ele>419.10</ele>
        <time>2016-10-22T08:42:41Z</time>
      </trkpt>
      <trkpt lat="42.423917000" lon="-2.435324000">
        <ele>419.20</ele>
        <time>2016-10-22T08:42:42Z</time>
      </trkpt>
      <trkpt lat="42.423917000" lon="-2.435324000">
        <ele>419.10</ele>
        <time>2016-10-22T08:42:43Z</time>
      </trkpt>
      <trkpt lat="42.423917000" lon="-2.435324000">
        <ele>419.10</ele>
        <time>2016-10-22T08:42:44Z</time>
      </trkpt>
      <trkpt lat="42.423917000" lon="-2.435324000">
        <ele>419.10</ele>
        <time>2016-10-22T08:42:45Z</time>
      </trkpt>
      <trkpt lat="42.423917000" lon="-2.435324000">
        <ele>419.10</ele>
        <time>2016-10-22T08:42:46Z</time>
      </trkpt>
      <trkpt lat="42.423917000" lon="-2.435324000">
        <ele>419.20</ele>
        <time>2016-10-22T08:42:47Z</time>
      </trkpt>
      <trkpt lat="42.423917000" lon="-2.435324000">
        <ele>419.20</ele>
        <time>2016-10-22T08:42:48Z</time>
      </trkpt>
      <trkpt lat="42.423917000" lon="-2.435324000">
        <ele>419.20</ele>
        <time>2016-10-22T08:42:49Z</time>
      </trkpt>
      <trkpt lat="42.423917000" lon="-2.435324000">
        <ele>419.20</ele>
        <time>2016-10-22T08:42:50Z</time>
      </trkpt>
      <trkpt lat="42.423917000" lon="-2.435324000">
        <ele>419.20</ele>
        <time>2016-10-22T08:42:51Z</time>
      </trkpt>
      <trkpt lat="42.423917000" lon="-2.435324000">
        <ele>419.20</ele>
        <time>2016-10-22T08:42:52Z</time>
      </trkpt>
      <trkpt lat="42.423917000" lon="-2.435324000">
        <ele>419.20</ele>
        <time>2016-10-22T08:42:53Z</time>
      </trkpt>
      <trkpt lat="42.423917000" lon="-2.435324000">
        <ele>419.20</ele>
        <time>2016-10-22T08:42:54Z</time>
      </trkpt>
      <trkpt lat="42.423917000" lon="-2.435324000">
        <ele>419.20</ele>
        <time>2016-10-22T08:42:55Z</time>
      </trkpt>
      <trkpt lat="42.423917000" lon="-2.435324000">
        <ele>419.20</ele>
        <time>2016-10-22T08:42:56Z</time>
      </trkpt>
      <trkpt lat="42.423917000" lon="-2.435324000">
        <ele>419.10</ele>
        <time>2016-10-22T08:42:57Z</time>
      </trkpt>
      <trkpt lat="42.423909000" lon="-2.435336000">
        <ele>419.10</ele>
        <time>2016-10-22T08:42:58Z</time>
      </trkpt>
      <trkpt lat="42.423909000" lon="-2.435336000">
        <ele>419.10</ele>
        <time>2016-10-22T08:42:59Z</time>
      </trkpt>
      <trkpt lat="42.423909000" lon="-2.435336000">
        <ele>419.00</ele>
        <time>2016-10-22T08:43:00Z</time>
      </trkpt>
      <trkpt lat="42.423909000" lon="-2.435336000">
        <ele>419.10</ele>
        <time>2016-10-22T08:43:01Z</time>
      </trkpt>
      <trkpt lat="42.423909000" lon="-2.435336000">
        <ele>419.10</ele>
        <time>2016-10-22T08:43:02Z</time>
      </trkpt>
      <trkpt lat="42.423909000" lon="-2.435336000">
        <ele>419.30</ele>
        <time>2016-10-22T08:43:03Z</time>
      </trkpt>
      <trkpt lat="42.423909000" lon="-2.435336000">
        <ele>419.40</ele>
        <time>2016-10-22T08:43:05Z</time>
      </trkpt>
      <trkpt lat="42.423909000" lon="-2.435336000">
        <ele>419.50</ele>
        <time>2016-10-22T08:43:06Z</time>
      </trkpt>
      <trkpt lat="42.423909000" lon="-2.435336000">
        <ele>419.50</ele>
        <time>2016-10-22T08:43:07Z</time>
      </trkpt>
      <trkpt lat="42.423909000" lon="-2.435336000">
        <ele>419.50</ele>
        <time>2016-10-22T08:43:08Z</time>
      </trkpt>
      <trkpt lat="42.423909000" lon="-2.435336000">
        <ele>419.50</ele>
        <time>2016-10-22T08:43:09Z</time>
      </trkpt>
      <trkpt lat="42.423909000" lon="-2.435336000">
        <ele>419.50</ele>
        <time>2016-10-22T08:43:10Z</time>
      </trkpt>
      <trkpt lat="42.423909000" lon="-2.435336000">
        <ele>419.50</ele>
        <time>2016-10-22T08:43:11Z</time>
      </trkpt>
      <trkpt lat="42.423909000" lon="-2.435336000">
        <ele>419.50</ele>
        <time>2016-10-22T08:43:12Z</time>
      </trkpt>
      <trkpt lat="42.423909000" lon="-2.435336000">
        <ele>419.70</ele>
        <time>2016-10-22T08:43:13Z</time>
      </trkpt>
      <trkpt lat="42.423909000" lon="-2.435336000">
        <ele>419.90</ele>
        <time>2016-10-22T08:43:14Z</time>
      </trkpt>
      <trkpt lat="42.423909000" lon="-2.435336000">
        <ele>420.00</ele>
        <time>2016-10-22T08:43:15Z</time>
      </trkpt>
      <trkpt lat="42.423909000" lon="-2.435336000">
        <ele>420.10</ele>
        <time>2016-10-22T08:43:16Z</time>
      </trkpt>
      <trkpt lat="42.423909000" lon="-2.435336000">
        <ele>420.20</ele>
        <time>2016-10-22T08:43:17Z</time>
      </trkpt>
      <trkpt lat="42.423909000" lon="-2.435336000">
        <ele>420.20</ele>
        <time>2016-10-22T08:43:18Z</time>
      </trkpt>
      <trkpt lat="42.423909000" lon="-2.435336000">
        <ele>420.10</ele>
        <time>2016-10-22T08:43:19Z</time>
      </trkpt>
      <trkpt lat="42.423909000" lon="-2.435336000">
        <ele>420.00</ele>
        <time>2016-10-22T08:43:20Z</time>
      </trkpt>
      <trkpt lat="42.423909000" lon="-2.435336000">
        <ele>420.00</ele>
        <time>2016-10-22T08:43:21Z</time>
      </trkpt>
      <trkpt lat="42.423909000" lon="-2.435336000">
        <ele>419.90</ele>
        <time>2016-10-22T08:43:22Z</time>
      </trkpt>
      <trkpt lat="42.423909000" lon="-2.435336000">
        <ele>419.90</ele>
        <time>2016-10-22T08:43:23Z</time>
      </trkpt>
      <trkpt lat="42.423909000" lon="-2.435336000">
        <ele>419.90</ele>
        <time>2016-10-22T08:43:24Z</time>
      </trkpt>
      <trkpt lat="42.423909000" lon="-2.435336000">
        <ele>419.90</ele>
        <time>2016-10-22T08:43:25Z</time>
      </trkpt>
      <trkpt lat="42.423909000" lon="-2.435336000">
        <ele>419.90</ele>
        <time>2016-10-22T08:43:26Z</time>
      </trkpt>
      <trkpt lat="42.423909000" lon="-2.435336000">
        <ele>419.80</ele>
        <time>2016-10-22T08:43:27Z</time>
      </trkpt>
      <trkpt lat="42.423909000" lon="-2.435336000">
        <ele>419.80</ele>
        <time>2016-10-22T08:43:28Z</time>
      </trkpt>
      <trkpt lat="42.423909000" lon="-2.435336000">
        <ele>419.80</ele>
        <time>2016-10-22T08:43:29Z</time>
      </trkpt>
      <trkpt lat="42.423909000" lon="-2.435336000">
        <ele>419.80</ele>
        <time>2016-10-22T08:43:30Z</time>
      </trkpt>
      <trkpt lat="42.423909000" lon="-2.435336000">
        <ele>419.80</ele>
        <time>2016-10-22T08:43:31Z</time>
      </trkpt>
      <trkpt lat="42.423909000" lon="-2.435336000">
        <ele>419.70</ele>
        <time>2016-10-22T08:43:32Z</time>
      </trkpt>
      <trkpt lat="42.423909000" lon="-2.435336000">
        <ele>419.70</ele>
        <time>2016-10-22T08:43:33Z</time>
      </trkpt>
      <trkpt lat="42.423909000" lon="-2.435336000">
        <ele>419.60</ele>
        <time>2016-10-22T08:43:34Z</time>
      </trkpt>
      <trkpt lat="42.423909000" lon="-2.435336000">
        <ele>419.60</ele>
        <time>2016-10-22T08:43:35Z</time>
      </trkpt>
      <trkpt lat="42.423909000" lon="-2.435336000">
        <ele>419.60</ele>
        <time>2016-10-22T08:43:36Z</time>
      </trkpt>
      <trkpt lat="42.423909000" lon="-2.435336000">
        <ele>419.70</ele>
        <time>2016-10-22T08:43:37Z</time>
      </trkpt>
      <trkpt lat="42.423902000" lon="-2.435322000">
        <ele>419.80</ele>
        <time>2016-10-22T08:43:38Z</time>
      </trkpt>
      <trkpt lat="42.423902000" lon="-2.435322000">
        <ele>419.70</ele>
        <time>2016-10-22T08:43:39Z</time>
      </trkpt>
      <trkpt lat="42.423902000" lon="-2.435322000">
        <ele>419.70</ele>
        <time>2016-10-22T08:43:40Z</time>
      </trkpt>
      <trkpt lat="42.423902000" lon="-2.435322000">
        <ele>419.80</ele>
        <time>2016-10-22T08:43:41Z</time>
      </trkpt>
      <trkpt lat="42.423902000" lon="-2.435322000">
        <ele>419.80</ele>
        <time>2016-10-22T08:43:42Z</time>
      </trkpt>
      <trkpt lat="42.423902000" lon="-2.435322000">
        <ele>419.80</ele>
        <time>2016-10-22T08:43:43Z</time>
      </trkpt>
      <trkpt lat="42.423902000" lon="-2.435322000">
        <ele>419.80</ele>
        <time>2016-10-22T08:43:44Z</time>
      </trkpt>
      <trkpt lat="42.423902000" lon="-2.435322000">
        <ele>419.90</ele>
        <time>2016-10-22T08:43:45Z</time>
      </trkpt>
      <trkpt lat="42.423902000" lon="-2.435322000">
        <ele>419.90</ele>
        <time>2016-10-22T08:43:46Z</time>
      </trkpt>
      <trkpt lat="42.423902000" lon="-2.435322000">
        <ele>419.90</ele>
        <time>2016-10-22T08:43:47Z</time>
      </trkpt>
      <trkpt lat="42.423902000" lon="-2.435322000">
        <ele>420.00</ele>
        <time>2016-10-22T08:43:48Z</time>
      </trkpt>
      <trkpt lat="42.423902000" lon="-2.435322000">
        <ele>419.90</ele>
        <time>2016-10-22T08:43:49Z</time>
      </trkpt>
      <trkpt lat="42.423902000" lon="-2.435322000">
        <ele>419.80</ele>
        <time>2016-10-22T08:43:50Z</time>
      </trkpt>
      <trkpt lat="42.423902000" lon="-2.435322000">
        <ele>419.80</ele>
        <time>2016-10-22T08:43:51Z</time>
      </trkpt>
      <trkpt lat="42.423902000" lon="-2.435322000">
        <ele>419.80</ele>
        <time>2016-10-22T08:43:52Z</time>
      </trkpt>
      <trkpt lat="42.423902000" lon="-2.435322000">
        <ele>419.70</ele>
        <time>2016-10-22T08:43:53Z</time>
      </trkpt>
      <trkpt lat="42.423902000" lon="-2.435322000">
        <ele>419.70</ele>
        <time>2016-10-22T08:43:54Z</time>
      </trkpt>
      <trkpt lat="42.423902000" lon="-2.435322000">
        <ele>419.60</ele>
        <time>2016-10-22T08:43:55Z</time>
      </trkpt>
      <trkpt lat="42.423902000" lon="-2.435322000">
        <ele>419.60</ele>
        <time>2016-10-22T08:43:56Z</time>
      </trkpt>
      <trkpt lat="42.423902000" lon="-2.435322000">
        <ele>419.70</ele>
        <time>2016-10-22T08:43:57Z</time>
      </trkpt>
      <trkpt lat="42.423902000" lon="-2.435322000">
        <ele>419.80</ele>
        <time>2016-10-22T08:43:58Z</time>
      </trkpt>
      <trkpt lat="42.423902000" lon="-2.435322000">
        <ele>419.90</ele>
        <time>2016-10-22T08:43:59Z</time>
      </trkpt>
      <trkpt lat="42.423902000" lon="-2.435322000">
        <ele>420.00</ele>
        <time>2016-10-22T08:44:00Z</time>
      </trkpt>
      <trkpt lat="42.423902000" lon="-2.435322000">
        <ele>420.00</ele>
        <time>2016-10-22T08:44:01Z</time>
      </trkpt>
      <trkpt lat="42.423902000" lon="-2.435322000">
        <ele>420.10</ele>
        <time>2016-10-22T08:44:02Z</time>
      </trkpt>
      <trkpt lat="42.423902000" lon="-2.435322000">
        <ele>420.00</ele>
        <time>2016-10-22T08:44:03Z</time>
      </trkpt>
      <trkpt lat="42.423902000" lon="-2.435322000">
        <ele>420.00</ele>
        <time>2016-10-22T08:44:04Z</time>
      </trkpt>
      <trkpt lat="42.423902000" lon="-2.435322000">
        <ele>420.00</ele>
        <time>2016-10-22T08:44:06Z</time>
      </trkpt>
      <trkpt lat="42.423902000" lon="-2.435322000">
        <ele>419.90</ele>
        <time>2016-10-22T08:44:07Z</time>
      </trkpt>
      <trkpt lat="42.423902000" lon="-2.435322000">
        <ele>419.90</ele>
        <time>2016-10-22T08:44:08Z</time>
      </trkpt>
      <trkpt lat="42.423902000" lon="-2.435322000">
        <ele>419.90</ele>
        <time>2016-10-22T08:44:09Z</time>
      </trkpt>
      <trkpt lat="42.423902000" lon="-2.435322000">
        <ele>419.80</ele>
        <time>2016-10-22T08:44:10Z</time>
      </trkpt>
      <trkpt lat="42.423902000" lon="-2.435322000">
        <ele>419.70</ele>
        <time>2016-10-22T08:44:11Z</time>
      </trkpt>
      <trkpt lat="42.423902000" lon="-2.435322000">
        <ele>419.70</ele>
        <time>2016-10-22T08:44:12Z</time>
      </trkpt>
      <trkpt lat="42.423902000" lon="-2.435322000">
        <ele>419.60</ele>
        <time>2016-10-22T08:44:13Z</time>
      </trkpt>
      <trkpt lat="42.423902000" lon="-2.435322000">
        <ele>419.60</ele>
        <time>2016-10-22T08:44:14Z</time>
      </trkpt>
      <trkpt lat="42.423902000" lon="-2.435322000">
        <ele>419.60</ele>
        <time>2016-10-22T08:44:15Z</time>
      </trkpt>
      <trkpt lat="42.423902000" lon="-2.435322000">
        <ele>419.60</ele>
        <time>2016-10-22T08:44:16Z</time>
      </trkpt>
      <trkpt lat="42.423902000" lon="-2.435322000">
        <ele>419.70</ele>
        <time>2016-10-22T08:44:17Z</time>
      </trkpt>
      <trkpt lat="42.423894000" lon="-2.435334000">
        <ele>419.80</ele>
        <time>2016-10-22T08:44:18Z</time>
      </trkpt>
      <trkpt lat="42.423894000" lon="-2.435334000">
        <ele>419.90</ele>
        <time>2016-10-22T08:44:19Z</time>
      </trkpt>
      <trkpt lat="42.423894000" lon="-2.435334000">
        <ele>420.00</ele>
        <time>2016-10-22T08:44:20Z</time>
      </trkpt>
      <trkpt lat="42.423894000" lon="-2.435334000">
        <ele>420.00</ele>
        <time>2016-10-22T08:44:21Z</time>
      </trkpt>
      <trkpt lat="42.423894000" lon="-2.435334000">
        <ele>420.00</ele>
        <time>2016-10-22T08:44:22Z</time>
      </trkpt>
      <trkpt lat="42.423894000" lon="-2.435334000">
        <ele>420.00</ele>
        <time>2016-10-22T08:44:23Z</time>
      </trkpt>
      <trkpt lat="42.423894000" lon="-2.435334000">
        <ele>420.00</ele>
        <time>2016-10-22T08:44:24Z</time>
      </trkpt>
      <trkpt lat="42.423894000" lon="-2.435334000">
        <ele>420.00</ele>
        <time>2016-10-22T08:44:25Z</time>
      </trkpt>
      <trkpt lat="42.423894000" lon="-2.435334000">
        <ele>420.00</ele>
        <time>2016-10-22T08:44:26Z</time>
      </trkpt>
      <trkpt lat="42.423894000" lon="-2.435334000">
        <ele>419.90</ele>
        <time>2016-10-22T08:44:27Z</time>
      </trkpt>
      <trkpt lat="42.423894000" lon="-2.435334000">
        <ele>419.80</ele>
        <time>2016-10-22T08:44:28Z</time>
      </trkpt>
      <trkpt lat="42.423894000" lon="-2.435334000">
        <ele>419.90</ele>
        <time>2016-10-22T08:44:29Z</time>
      </trkpt>
      <trkpt lat="42.423894000" lon="-2.435334000">
        <ele>420.00</ele>
        <time>2016-10-22T08:44:30Z</time>
      </trkpt>
      <trkpt lat="42.423894000" lon="-2.435334000">
        <ele>420.00</ele>
        <time>2016-10-22T08:44:31Z</time>
      </trkpt>
      <trkpt lat="42.423894000" lon="-2.435334000">
        <ele>420.10</ele>
        <time>2016-10-22T08:44:32Z</time>
      </trkpt>
      <trkpt lat="42.423894000" lon="-2.435334000">
        <ele>420.10</ele>
        <time>2016-10-22T08:44:33Z</time>
      </trkpt>
      <trkpt lat="42.423894000" lon="-2.435334000">
        <ele>420.20</ele>
        <time>2016-10-22T08:44:34Z</time>
      </trkpt>
      <trkpt lat="42.423894000" lon="-2.435334000">
        <ele>420.10</ele>
        <time>2016-10-22T08:44:35Z</time>
      </trkpt>
      <trkpt lat="42.423894000" lon="-2.435334000">
        <ele>420.10</ele>
        <time>2016-10-22T08:44:36Z</time>
      </trkpt>
      <trkpt lat="42.423894000" lon="-2.435334000">
        <ele>420.00</ele>
        <time>2016-10-22T08:44:37Z</time>
      </trkpt>
      <trkpt lat="42.423894000" lon="-2.435334000">
        <ele>420.00</ele>
        <time>2016-10-22T08:44:38Z</time>
      </trkpt>
      <trkpt lat="42.423894000" lon="-2.435334000">
        <ele>420.00</ele>
        <time>2016-10-22T08:44:39Z</time>
      </trkpt>
      <trkpt lat="42.423894000" lon="-2.435334000">
        <ele>420.00</ele>
        <time>2016-10-22T08:44:40Z</time>
      </trkpt>
      <trkpt lat="42.423894000" lon="-2.435334000">
        <ele>420.10</ele>
        <time>2016-10-22T08:44:41Z</time>
      </trkpt>
      <trkpt lat="42.423894000" lon="-2.435334000">
        <ele>420.10</ele>
        <time>2016-10-22T08:44:42Z</time>
      </trkpt>
      <trkpt lat="42.423894000" lon="-2.435334000">
        <ele>420.30</ele>
        <time>2016-10-22T08:44:43Z</time>
      </trkpt>
      <trkpt lat="42.423894000" lon="-2.435334000">
        <ele>420.40</ele>
        <time>2016-10-22T08:44:44Z</time>
      </trkpt>
      <trkpt lat="42.423894000" lon="-2.435334000">
        <ele>420.50</ele>
        <time>2016-10-22T08:44:45Z</time>
      </trkpt>
      <trkpt lat="42.423894000" lon="-2.435334000">
        <ele>420.50</ele>
        <time>2016-10-22T08:44:46Z</time>
      </trkpt>
      <trkpt lat="42.423894000" lon="-2.435334000">
        <ele>420.50</ele>
        <time>2016-10-22T08:44:47Z</time>
      </trkpt>
      <trkpt lat="42.423894000" lon="-2.435334000">
        <ele>420.50</ele>
        <time>2016-10-22T08:44:48Z</time>
      </trkpt>
      <trkpt lat="42.423894000" lon="-2.435334000">
        <ele>420.50</ele>
        <time>2016-10-22T08:44:49Z</time>
      </trkpt>
      <trkpt lat="42.423894000" lon="-2.435334000">
        <ele>420.50</ele>
        <time>2016-10-22T08:44:50Z</time>
      </trkpt>
      <trkpt lat="42.423894000" lon="-2.435334000">
        <ele>420.20</ele>
        <time>2016-10-22T08:44:51Z</time>
      </trkpt>
      <trkpt lat="42.423894000" lon="-2.435334000">
        <ele>419.90</ele>
        <time>2016-10-22T08:44:52Z</time>
      </trkpt>
      <trkpt lat="42.423894000" lon="-2.435334000">
        <ele>419.80</ele>
        <time>2016-10-22T08:44:53Z</time>
      </trkpt>
      <trkpt lat="42.423894000" lon="-2.435334000">
        <ele>419.70</ele>
        <time>2016-10-22T08:44:54Z</time>
      </trkpt>
      <trkpt lat="42.423894000" lon="-2.435334000">
        <ele>419.80</ele>
        <time>2016-10-22T08:44:55Z</time>
      </trkpt>
      <trkpt lat="42.423894000" lon="-2.435334000">
        <ele>419.80</ele>
        <time>2016-10-22T08:44:56Z</time>
      </trkpt>
      <trkpt lat="42.423894000" lon="-2.435334000">
        <ele>419.90</ele>
        <time>2016-10-22T08:44:57Z</time>
      </trkpt>
      <trkpt lat="42.423897000" lon="-2.435332000">
        <ele>419.90</ele>
        <time>2016-10-22T08:44:58Z</time>
      </trkpt>
      <trkpt lat="42.423897000" lon="-2.435332000">
        <ele>420.00</ele>
        <time>2016-10-22T08:44:59Z</time>
      </trkpt>
      <trkpt lat="42.423897000" lon="-2.435332000">
        <ele>420.00</ele>
        <time>2016-10-22T08:45:00Z</time>
      </trkpt>
      <trkpt lat="42.423897000" lon="-2.435332000">
        <ele>420.00</ele>
        <time>2016-10-22T08:45:01Z</time>
      </trkpt>
      <trkpt lat="42.423897000" lon="-2.435332000">
        <ele>419.90</ele>
        <time>2016-10-22T08:45:02Z</time>
      </trkpt>
      <trkpt lat="42.423897000" lon="-2.435332000">
        <ele>420.00</ele>
        <time>2016-10-22T08:45:03Z</time>
      </trkpt>
      <trkpt lat="42.423897000" lon="-2.435332000">
        <ele>420.00</ele>
        <time>2016-10-22T08:45:04Z</time>
      </trkpt>
      <trkpt lat="42.423897000" lon="-2.435332000">
        <ele>419.90</ele>
        <time>2016-10-22T08:45:05Z</time>
      </trkpt>
      <trkpt lat="42.423897000" lon="-2.435332000">
        <ele>419.80</ele>
        <time>2016-10-22T08:45:07Z</time>
      </trkpt>
      <trkpt lat="42.423897000" lon="-2.435332000">
        <ele>419.80</ele>
        <time>2016-10-22T08:45:08Z</time>
      </trkpt>
      <trkpt lat="42.423897000" lon="-2.435332000">
        <ele>419.70</ele>
        <time>2016-10-22T08:45:09Z</time>
      </trkpt>
      <trkpt lat="42.423897000" lon="-2.435332000">
        <ele>419.70</ele>
        <time>2016-10-22T08:45:10Z</time>
      </trkpt>
      <trkpt lat="42.423897000" lon="-2.435332000">
        <ele>419.70</ele>
        <time>2016-10-22T08:45:11Z</time>
      </trkpt>
      <trkpt lat="42.423897000" lon="-2.435332000">
        <ele>419.70</ele>
        <time>2016-10-22T08:45:12Z</time>
      </trkpt>
      <trkpt lat="42.423897000" lon="-2.435332000">
        <ele>419.80</ele>
        <time>2016-10-22T08:45:13Z</time>
      </trkpt>
      <trkpt lat="42.423897000" lon="-2.435332000">
        <ele>419.80</ele>
        <time>2016-10-22T08:45:14Z</time>
      </trkpt>
      <trkpt lat="42.423897000" lon="-2.435332000">
        <ele>419.80</ele>
        <time>2016-10-22T08:45:15Z</time>
      </trkpt>
      <trkpt lat="42.423897000" lon="-2.435332000">
        <ele>419.80</ele>
        <time>2016-10-22T08:45:16Z</time>
      </trkpt>
      <trkpt lat="42.423897000" lon="-2.435332000">
        <ele>419.90</ele>
        <time>2016-10-22T08:45:17Z</time>
      </trkpt>
      <trkpt lat="42.423897000" lon="-2.435332000">
        <ele>419.90</ele>
        <time>2016-10-22T08:45:18Z</time>
      </trkpt>
      <trkpt lat="42.423897000" lon="-2.435332000">
        <ele>420.00</ele>
        <time>2016-10-22T08:45:19Z</time>
      </trkpt>
      <trkpt lat="42.423897000" lon="-2.435332000">
        <ele>420.10</ele>
        <time>2016-10-22T08:45:20Z</time>
      </trkpt>
      <trkpt lat="42.423897000" lon="-2.435332000">
        <ele>420.20</ele>
        <time>2016-10-22T08:45:21Z</time>
      </trkpt>
      <trkpt lat="42.423897000" lon="-2.435332000">
        <ele>420.20</ele>
        <time>2016-10-22T08:45:22Z</time>
      </trkpt>
      <trkpt lat="42.423897000" lon="-2.435332000">
        <ele>420.20</ele>
        <time>2016-10-22T08:45:23Z</time>
      </trkpt>
      <trkpt lat="42.423897000" lon="-2.435332000">
        <ele>420.30</ele>
        <time>2016-10-22T08:45:24Z</time>
      </trkpt>
      <trkpt lat="42.423897000" lon="-2.435332000">
        <ele>420.30</ele>
        <time>2016-10-22T08:45:25Z</time>
      </trkpt>
      <trkpt lat="42.423897000" lon="-2.435332000">
        <ele>420.30</ele>
        <time>2016-10-22T08:45:26Z</time>
      </trkpt>
      <trkpt lat="42.423897000" lon="-2.435332000">
        <ele>420.40</ele>
        <time>2016-10-22T08:45:27Z</time>
      </trkpt>
      <trkpt lat="42.423897000" lon="-2.435332000">
        <ele>420.40</ele>
        <time>2016-10-22T08:45:28Z</time>
      </trkpt>
      <trkpt lat="42.423897000" lon="-2.435332000">
        <ele>420.40</ele>
        <time>2016-10-22T08:45:29Z</time>
      </trkpt>
      <trkpt lat="42.423897000" lon="-2.435332000">
        <ele>420.40</ele>
        <time>2016-10-22T08:45:30Z</time>
      </trkpt>
      <trkpt lat="42.423897000" lon="-2.435332000">
        <ele>420.50</ele>
        <time>2016-10-22T08:45:31Z</time>
      </trkpt>
      <trkpt lat="42.423897000" lon="-2.435332000">
        <ele>420.60</ele>
        <time>2016-10-22T08:45:32Z</time>
      </trkpt>
      <trkpt lat="42.423897000" lon="-2.435332000">
        <ele>420.70</ele>
        <time>2016-10-22T08:45:33Z</time>
      </trkpt>
      <trkpt lat="42.423897000" lon="-2.435332000">
        <ele>420.80</ele>
        <time>2016-10-22T08:45:34Z</time>
      </trkpt>
      <trkpt lat="42.423897000" lon="-2.435332000">
        <ele>420.90</ele>
        <time>2016-10-22T08:45:35Z</time>
      </trkpt>
      <trkpt lat="42.423897000" lon="-2.435332000">
        <ele>421.00</ele>
        <time>2016-10-22T08:45:36Z</time>
      </trkpt>
      <trkpt lat="42.423897000" lon="-2.435332000">
        <ele>421.00</ele>
        <time>2016-10-22T08:45:37Z</time>
      </trkpt>
      <trkpt lat="42.423904000" lon="-2.435331000">
        <ele>421.10</ele>
        <time>2016-10-22T08:45:38Z</time>
      </trkpt>
      <trkpt lat="42.423904000" lon="-2.435331000">
        <ele>421.00</ele>
        <time>2016-10-22T08:45:39Z</time>
      </trkpt>
      <trkpt lat="42.423922000" lon="-2.435326000">
        <ele>420.90</ele>
        <time>2016-10-22T08:45:40Z</time>
      </trkpt>
      <trkpt lat="42.423935000" lon="-2.435319000">
        <ele>420.90</ele>
        <time>2016-10-22T08:45:41Z</time>
      </trkpt>
      <trkpt lat="42.423935000" lon="-2.435319000">
        <ele>420.80</ele>
        <time>2016-10-22T08:45:42Z</time>
      </trkpt>
      <trkpt lat="42.423945000" lon="-2.435309000">
        <ele>420.80</ele>
        <time>2016-10-22T08:45:43Z</time>
      </trkpt>
      <trkpt lat="42.423954000" lon="-2.435301000">
        <ele>420.90</ele>
        <time>2016-10-22T08:45:44Z</time>
      </trkpt>
      <trkpt lat="42.423966000" lon="-2.435290000">
        <ele>420.90</ele>
        <time>2016-10-22T08:45:45Z</time>
      </trkpt>
      <trkpt lat="42.423973000" lon="-2.435294000">
        <ele>420.90</ele>
        <time>2016-10-22T08:45:46Z</time>
      </trkpt>
      <trkpt lat="42.423972000" lon="-2.435293000">
        <ele>420.90</ele>
        <time>2016-10-22T08:45:47Z</time>
      </trkpt>
      <trkpt lat="42.423972000" lon="-2.435293000">
        <ele>420.80</ele>
        <time>2016-10-22T08:45:48Z</time>
      </trkpt>
      <trkpt lat="42.423972000" lon="-2.435293000">
        <ele>420.80</ele>
        <time>2016-10-22T08:45:49Z</time>
      </trkpt>
      <trkpt lat="42.423972000" lon="-2.435293000">
        <ele>420.70</ele>
        <time>2016-10-22T08:45:50Z</time>
      </trkpt>
      <trkpt lat="42.423975000" lon="-2.435288000">
        <ele>420.70</ele>
        <time>2016-10-22T08:45:51Z</time>
      </trkpt>
      <trkpt lat="42.423975000" lon="-2.435288000">
        <ele>420.60</ele>
        <time>2016-10-22T08:45:52Z</time>
      </trkpt>
      <trkpt lat="42.423975000" lon="-2.435288000">
        <ele>420.50</ele>
        <time>2016-10-22T08:45:53Z</time>
      </trkpt>
      <trkpt lat="42.423978000" lon="-2.435274000">
        <ele>420.50</ele>
        <time>2016-10-22T08:45:54Z</time>
      </trkpt>
      <trkpt lat="42.423981000" lon="-2.435271000">
        <ele>420.30</ele>
        <time>2016-10-22T08:45:55Z</time>
      </trkpt>
      <trkpt lat="42.423981000" lon="-2.435271000">
        <ele>420.10</ele>
        <time>2016-10-22T08:45:56Z</time>
      </trkpt>
      <trkpt lat="42.423981000" lon="-2.435271000">
        <ele>420.00</ele>
        <time>2016-10-22T08:45:57Z</time>
      </trkpt>
      <trkpt lat="42.423981000" lon="-2.435271000">
        <ele>419.90</ele>
        <time>2016-10-22T08:45:58Z</time>
      </trkpt>
      <trkpt lat="42.423981000" lon="-2.435271000">
        <ele>419.70</ele>
        <time>2016-10-22T08:45:59Z</time>
      </trkpt>
      <trkpt lat="42.423981000" lon="-2.435271000">
        <ele>419.60</ele>
        <time>2016-10-22T08:46:00Z</time>
      </trkpt>
      <trkpt lat="42.423981000" lon="-2.435271000">
        <ele>419.60</ele>
        <time>2016-10-22T08:46:01Z</time>
      </trkpt>
      <trkpt lat="42.423981000" lon="-2.435271000">
        <ele>419.60</ele>
        <time>2016-10-22T08:46:02Z</time>
      </trkpt>
      <trkpt lat="42.423981000" lon="-2.435271000">
        <ele>419.50</ele>
        <time>2016-10-22T08:46:03Z</time>
      </trkpt>
      <trkpt lat="42.423981000" lon="-2.435271000">
        <ele>419.40</ele>
        <time>2016-10-22T08:46:04Z</time>
      </trkpt>
      <trkpt lat="42.423981000" lon="-2.435271000">
        <ele>419.50</ele>
        <time>2016-10-22T08:46:05Z</time>
      </trkpt>
      <trkpt lat="42.423981000" lon="-2.435271000">
        <ele>419.60</ele>
        <time>2016-10-22T08:46:06Z</time>
      </trkpt>
      <trkpt lat="42.423981000" lon="-2.435271000">
        <ele>419.30</ele>
        <time>2016-10-22T08:46:08Z</time>
      </trkpt>
      <trkpt lat="42.423981000" lon="-2.435271000">
        <ele>419.40</ele>
        <time>2016-10-22T08:46:09Z</time>
      </trkpt>
      <trkpt lat="42.423981000" lon="-2.435271000">
        <ele>419.40</ele>
        <time>2016-10-22T08:46:10Z</time>
      </trkpt>
      <trkpt lat="42.423981000" lon="-2.435271000">
        <ele>419.50</ele>
        <time>2016-10-22T08:46:11Z</time>
      </trkpt>
      <trkpt lat="42.423981000" lon="-2.435271000">
        <ele>419.50</ele>
        <time>2016-10-22T08:46:12Z</time>
      </trkpt>
      <trkpt lat="42.423981000" lon="-2.435271000">
        <ele>419.50</ele>
        <time>2016-10-22T08:46:13Z</time>
      </trkpt>
      <trkpt lat="42.423981000" lon="-2.435271000">
        <ele>419.50</ele>
        <time>2016-10-22T08:46:14Z</time>
      </trkpt>
      <trkpt lat="42.423981000" lon="-2.435271000">
        <ele>419.50</ele>
        <time>2016-10-22T08:46:15Z</time>
      </trkpt>
      <trkpt lat="42.423981000" lon="-2.435271000">
        <ele>419.50</ele>
        <time>2016-10-22T08:46:16Z</time>
      </trkpt>
      <trkpt lat="42.423981000" lon="-2.435271000">
        <ele>419.50</ele>
        <time>2016-10-22T08:46:17Z</time>
      </trkpt>
      <trkpt lat="42.423981000" lon="-2.435271000">
        <ele>419.50</ele>
        <time>2016-10-22T08:46:18Z</time>
      </trkpt>
      <trkpt lat="42.423981000" lon="-2.435271000">
        <ele>419.50</ele>
        <time>2016-10-22T08:46:19Z</time>
      </trkpt>
      <trkpt lat="42.423981000" lon="-2.435271000">
        <ele>419.60</ele>
        <time>2016-10-22T08:46:20Z</time>
      </trkpt>
      <trkpt lat="42.423981000" lon="-2.435271000">
        <ele>419.60</ele>
        <time>2016-10-22T08:46:21Z</time>
      </trkpt>
      <trkpt lat="42.423981000" lon="-2.435271000">
        <ele>419.60</ele>
        <time>2016-10-22T08:46:22Z</time>
      </trkpt>
      <trkpt lat="42.423981000" lon="-2.435271000">
        <ele>419.60</ele>
        <time>2016-10-22T08:46:23Z</time>
      </trkpt>
      <trkpt lat="42.423981000" lon="-2.435271000">
        <ele>419.60</ele>
        <time>2016-10-22T08:46:24Z</time>
      </trkpt>
      <trkpt lat="42.423981000" lon="-2.435271000">
        <ele>419.70</ele>
        <time>2016-10-22T08:46:25Z</time>
      </trkpt>
      <trkpt lat="42.423981000" lon="-2.435271000">
        <ele>419.80</ele>
        <time>2016-10-22T08:46:26Z</time>
      </trkpt>
      <trkpt lat="42.423981000" lon="-2.435271000">
        <ele>419.70</ele>
        <time>2016-10-22T08:46:27Z</time>
      </trkpt>
      <trkpt lat="42.423981000" lon="-2.435271000">
        <ele>419.70</ele>
        <time>2016-10-22T08:46:28Z</time>
      </trkpt>
      <trkpt lat="42.423981000" lon="-2.435271000">
        <ele>419.80</ele>
        <time>2016-10-22T08:46:29Z</time>
      </trkpt>
      <trkpt lat="42.423981000" lon="-2.435271000">
        <ele>419.90</ele>
        <time>2016-10-22T08:46:30Z</time>
      </trkpt>
      <trkpt lat="42.423981000" lon="-2.435271000">
        <ele>419.80</ele>
        <time>2016-10-22T08:46:31Z</time>
      </trkpt>
      <trkpt lat="42.423981000" lon="-2.435271000">
        <ele>419.70</ele>
        <time>2016-10-22T08:46:32Z</time>
      </trkpt>
      <trkpt lat="42.423981000" lon="-2.435271000">
        <ele>419.80</ele>
        <time>2016-10-22T08:46:33Z</time>
      </trkpt>
      <trkpt lat="42.423981000" lon="-2.435271000">
        <ele>419.80</ele>
        <time>2016-10-22T08:46:34Z</time>
      </trkpt>
      <trkpt lat="42.423987000" lon="-2.435268000">
        <ele>419.80</ele>
        <time>2016-10-22T08:46:35Z</time>
      </trkpt>
      <trkpt lat="42.423987000" lon="-2.435268000">
        <ele>419.80</ele>
        <time>2016-10-22T08:46:36Z</time>
      </trkpt>
      <trkpt lat="42.423987000" lon="-2.435268000">
        <ele>419.80</ele>
        <time>2016-10-22T08:46:37Z</time>
      </trkpt>
      <trkpt lat="42.423987000" lon="-2.435268000">
        <ele>419.80</ele>
        <time>2016-10-22T08:46:38Z</time>
      </trkpt>
      <trkpt lat="42.423987000" lon="-2.435268000">
        <ele>419.90</ele>
        <time>2016-10-22T08:46:39Z</time>
      </trkpt>
      <trkpt lat="42.423987000" lon="-2.435268000">
        <ele>419.90</ele>
        <time>2016-10-22T08:46:40Z</time>
      </trkpt>
      <trkpt lat="42.423987000" lon="-2.435268000">
        <ele>419.80</ele>
        <time>2016-10-22T08:46:41Z</time>
      </trkpt>
      <trkpt lat="42.423987000" lon="-2.435268000">
        <ele>419.80</ele>
        <time>2016-10-22T08:46:42Z</time>
      </trkpt>
      <trkpt lat="42.423987000" lon="-2.435268000">
        <ele>419.70</ele>
        <time>2016-10-22T08:46:43Z</time>
      </trkpt>
      <trkpt lat="42.423987000" lon="-2.435268000">
        <ele>419.70</ele>
        <time>2016-10-22T08:46:44Z</time>
      </trkpt>
      <trkpt lat="42.423987000" lon="-2.435268000">
        <ele>419.70</ele>
        <time>2016-10-22T08:46:45Z</time>
      </trkpt>
      <trkpt lat="42.423987000" lon="-2.435268000">
        <ele>419.70</ele>
        <time>2016-10-22T08:46:46Z</time>
      </trkpt>
      <trkpt lat="42.423987000" lon="-2.435268000">
        <ele>419.70</ele>
        <time>2016-10-22T08:46:47Z</time>
      </trkpt>
      <trkpt lat="42.423987000" lon="-2.435268000">
        <ele>419.70</ele>
        <time>2016-10-22T08:46:48Z</time>
      </trkpt>
      <trkpt lat="42.423987000" lon="-2.435268000">
        <ele>419.60</ele>
        <time>2016-10-22T08:46:49Z</time>
      </trkpt>
      <trkpt lat="42.423987000" lon="-2.435268000">
        <ele>419.50</ele>
        <time>2016-10-22T08:46:50Z</time>
      </trkpt>
      <trkpt lat="42.423987000" lon="-2.435268000">
        <ele>419.50</ele>
        <time>2016-10-22T08:46:51Z</time>
      </trkpt>
      <trkpt lat="42.423987000" lon="-2.435268000">
        <ele>419.50</ele>
        <time>2016-10-22T08:46:52Z</time>
      </trkpt>
      <trkpt lat="42.423987000" lon="-2.435268000">
        <ele>419.60</ele>
        <time>2016-10-22T08:46:53Z</time>
      </trkpt>
      <trkpt lat="42.423987000" lon="-2.435268000">
        <ele>419.80</ele>
        <time>2016-10-22T08:46:54Z</time>
      </trkpt>
      <trkpt lat="42.423987000" lon="-2.435268000">
        <ele>419.90</ele>
        <time>2016-10-22T08:46:55Z</time>
      </trkpt>
      <trkpt lat="42.423987000" lon="-2.435268000">
        <ele>420.10</ele>
        <time>2016-10-22T08:46:56Z</time>
      </trkpt>
      <trkpt lat="42.423987000" lon="-2.435268000">
        <ele>420.10</ele>
        <time>2016-10-22T08:46:57Z</time>
      </trkpt>
      <trkpt lat="42.423987000" lon="-2.435268000">
        <ele>420.10</ele>
        <time>2016-10-22T08:46:58Z</time>
      </trkpt>
      <trkpt lat="42.423987000" lon="-2.435268000">
        <ele>420.20</ele>
        <time>2016-10-22T08:46:59Z</time>
      </trkpt>
      <trkpt lat="42.423987000" lon="-2.435268000">
        <ele>420.20</ele>
        <time>2016-10-22T08:47:00Z</time>
      </trkpt>
      <trkpt lat="42.423987000" lon="-2.435268000">
        <ele>420.20</ele>
        <time>2016-10-22T08:47:01Z</time>
      </trkpt>
      <trkpt lat="42.423987000" lon="-2.435268000">
        <ele>420.10</ele>
        <time>2016-10-22T08:47:02Z</time>
      </trkpt>
      <trkpt lat="42.423987000" lon="-2.435268000">
        <ele>420.20</ele>
        <time>2016-10-22T08:47:03Z</time>
      </trkpt>
      <trkpt lat="42.423987000" lon="-2.435268000">
        <ele>420.40</ele>
        <time>2016-10-22T08:47:04Z</time>
      </trkpt>
      <trkpt lat="42.423987000" lon="-2.435268000">
        <ele>420.40</ele>
        <time>2016-10-22T08:47:05Z</time>
      </trkpt>
      <trkpt lat="42.423987000" lon="-2.435268000">
        <ele>420.50</ele>
        <time>2016-10-22T08:47:06Z</time>
      </trkpt>
      <trkpt lat="42.423987000" lon="-2.435268000">
        <ele>420.50</ele>
        <time>2016-10-22T08:47:07Z</time>
      </trkpt>
      <trkpt lat="42.423987000" lon="-2.435268000">
        <ele>420.70</ele>
        <time>2016-10-22T08:47:09Z</time>
      </trkpt>
      <trkpt lat="42.423987000" lon="-2.435268000">
        <ele>420.70</ele>
        <time>2016-10-22T08:47:10Z</time>
      </trkpt>
      <trkpt lat="42.423987000" lon="-2.435268000">
        <ele>420.60</ele>
        <time>2016-10-22T08:47:11Z</time>
      </trkpt>
      <trkpt lat="42.423987000" lon="-2.435268000">
        <ele>420.50</ele>
        <time>2016-10-22T08:47:12Z</time>
      </trkpt>
      <trkpt lat="42.423987000" lon="-2.435268000">
        <ele>420.40</ele>
        <time>2016-10-22T08:47:13Z</time>
      </trkpt>
      <trkpt lat="42.423987000" lon="-2.435268000">
        <ele>420.40</ele>
        <time>2016-10-22T08:47:14Z</time>
      </trkpt>
      <trkpt lat="42.423989000" lon="-2.435260000">
        <ele>420.30</ele>
        <time>2016-10-22T08:47:15Z</time>
      </trkpt>
      <trkpt lat="42.423989000" lon="-2.435260000">
        <ele>420.30</ele>
        <time>2016-10-22T08:47:16Z</time>
      </trkpt>
      <trkpt lat="42.423989000" lon="-2.435260000">
        <ele>420.40</ele>
        <time>2016-10-22T08:47:17Z</time>
      </trkpt>
      <trkpt lat="42.423989000" lon="-2.435260000">
        <ele>420.50</ele>
        <time>2016-10-22T08:47:18Z</time>
      </trkpt>
      <trkpt lat="42.423989000" lon="-2.435260000">
        <ele>420.50</ele>
        <time>2016-10-22T08:47:19Z</time>
      </trkpt>
      <trkpt lat="42.424020000" lon="-2.435244000">
        <ele>420.60</ele>
        <time>2016-10-22T08:47:20Z</time>
      </trkpt>
      <trkpt lat="42.424044000" lon="-2.435229000">
        <ele>420.70</ele>
        <time>2016-10-22T08:47:21Z</time>
      </trkpt>
      <trkpt lat="42.424068000" lon="-2.435211000">
        <ele>420.70</ele>
        <time>2016-10-22T08:47:22Z</time>
      </trkpt>
      <trkpt lat="42.424092000" lon="-2.435192000">
        <ele>420.80</ele>
        <time>2016-10-22T08:47:23Z</time>
      </trkpt>
      <trkpt lat="42.424116000" lon="-2.435173000">
        <ele>420.80</ele>
        <time>2016-10-22T08:47:24Z</time>
      </trkpt>
      <trkpt lat="42.424141000" lon="-2.435154000">
        <ele>420.70</ele>
        <time>2016-10-22T08:47:25Z</time>
      </trkpt>
      <trkpt lat="42.424165000" lon="-2.435140000">
        <ele>420.70</ele>
        <time>2016-10-22T08:47:26Z</time>
      </trkpt>
      <trkpt lat="42.424191000" lon="-2.435134000">
        <ele>420.50</ele>
        <time>2016-10-22T08:47:27Z</time>
      </trkpt>
      <trkpt lat="42.424215000" lon="-2.435124000">
        <ele>420.40</ele>
        <time>2016-10-22T08:47:28Z</time>
      </trkpt>
      <trkpt lat="42.424242000" lon="-2.435110000">
        <ele>420.40</ele>
        <time>2016-10-22T08:47:29Z</time>
      </trkpt>
      <trkpt lat="42.424270000" lon="-2.435091000">
        <ele>420.30</ele>
        <time>2016-10-22T08:47:30Z</time>
      </trkpt>
      <trkpt lat="42.424301000" lon="-2.435074000">
        <ele>420.30</ele>
        <time>2016-10-22T08:47:31Z</time>
      </trkpt>
      <trkpt lat="42.424333000" lon="-2.435054000">
        <ele>420.40</ele>
        <time>2016-10-22T08:47:32Z</time>
      </trkpt>
      <trkpt lat="42.424366000" lon="-2.435034000">
        <ele>420.40</ele>
        <time>2016-10-22T08:47:33Z</time>
      </trkpt>
      <trkpt lat="42.424401000" lon="-2.435015000">
        <ele>420.40</ele>
        <time>2016-10-22T08:47:34Z</time>
      </trkpt>
      <trkpt lat="42.424440000" lon="-2.434996000">
        <ele>420.40</ele>
        <time>2016-10-22T08:47:35Z</time>
      </trkpt>
      <trkpt lat="42.424477000" lon="-2.434976000">
        <ele>420.30</ele>
        <time>2016-10-22T08:47:36Z</time>
      </trkpt>
      <trkpt lat="42.424516000" lon="-2.434957000">
        <ele>420.20</ele>
        <time>2016-10-22T08:47:37Z</time>
      </trkpt>
      <trkpt lat="42.424555000" lon="-2.434933000">
        <ele>420.10</ele>
        <time>2016-10-22T08:47:38Z</time>
      </trkpt>
      <trkpt lat="42.424591000" lon="-2.434910000">
        <ele>420.00</ele>
        <time>2016-10-22T08:47:39Z</time>
      </trkpt>
      <trkpt lat="42.424627000" lon="-2.434888000">
        <ele>419.90</ele>
        <time>2016-10-22T08:47:40Z</time>
      </trkpt>
      <trkpt lat="42.424660000" lon="-2.434867000">
        <ele>419.90</ele>
        <time>2016-10-22T08:47:41Z</time>
      </trkpt>
      <trkpt lat="42.424691000" lon="-2.434847000">
        <ele>420.00</ele>
        <time>2016-10-22T08:47:42Z</time>
      </trkpt>
      <trkpt lat="42.424720000" lon="-2.434825000">
        <ele>420.00</ele>
        <time>2016-10-22T08:47:43Z</time>
      </trkpt>
      <trkpt lat="42.424749000" lon="-2.434801000">
        <ele>420.00</ele>
        <time>2016-10-22T08:47:44Z</time>
      </trkpt>
      <trkpt lat="42.424779000" lon="-2.434780000">
        <ele>419.90</ele>
        <time>2016-10-22T08:47:45Z</time>
      </trkpt>
      <trkpt lat="42.424806000" lon="-2.434764000">
        <ele>419.90</ele>
        <time>2016-10-22T08:47:46Z</time>
      </trkpt>
      <trkpt lat="42.424832000" lon="-2.434744000">
        <ele>419.80</ele>
        <time>2016-10-22T08:47:47Z</time>
      </trkpt>
      <trkpt lat="42.424854000" lon="-2.434728000">
        <ele>419.70</ele>
        <time>2016-10-22T08:47:48Z</time>
      </trkpt>
      <trkpt lat="42.424875000" lon="-2.434712000">
        <ele>419.60</ele>
        <time>2016-10-22T08:47:49Z</time>
      </trkpt>
      <trkpt lat="42.424895000" lon="-2.434690000">
        <ele>419.60</ele>
        <time>2016-10-22T08:47:50Z</time>
      </trkpt>
      <trkpt lat="42.424922000" lon="-2.434671000">
        <ele>419.60</ele>
        <time>2016-10-22T08:47:51Z</time>
      </trkpt>
      <trkpt lat="42.424949000" lon="-2.434646000">
        <ele>419.50</ele>
        <time>2016-10-22T08:47:52Z</time>
      </trkpt>
      <trkpt lat="42.424978000" lon="-2.434618000">
        <ele>419.60</ele>
        <time>2016-10-22T08:47:53Z</time>
      </trkpt>
      <trkpt lat="42.425008000" lon="-2.434590000">
        <ele>419.60</ele>
        <time>2016-10-22T08:47:54Z</time>
      </trkpt>
      <trkpt lat="42.425044000" lon="-2.434567000">
        <ele>419.50</ele>
        <time>2016-10-22T08:47:55Z</time>
      </trkpt>
      <trkpt lat="42.425081000" lon="-2.434543000">
        <ele>419.40</ele>
        <time>2016-10-22T08:47:56Z</time>
      </trkpt>
      <trkpt lat="42.425121000" lon="-2.434521000">
        <ele>419.30</ele>
        <time>2016-10-22T08:47:57Z</time>
      </trkpt>
      <trkpt lat="42.425162000" lon="-2.434501000">
        <ele>419.10</ele>
        <time>2016-10-22T08:47:58Z</time>
      </trkpt>
      <trkpt lat="42.425205000" lon="-2.434483000">
        <ele>418.90</ele>
        <time>2016-10-22T08:47:59Z</time>
      </trkpt>
      <trkpt lat="42.425247000" lon="-2.434468000">
        <ele>418.70</ele>
        <time>2016-10-22T08:48:00Z</time>
      </trkpt>
      <trkpt lat="42.425288000" lon="-2.434452000">
        <ele>418.60</ele>
        <time>2016-10-22T08:48:01Z</time>
      </trkpt>
      <trkpt lat="42.425325000" lon="-2.434435000">
        <ele>418.50</ele>
        <time>2016-10-22T08:48:02Z</time>
      </trkpt>
      <trkpt lat="42.425361000" lon="-2.434419000">
        <ele>418.40</ele>
        <time>2016-10-22T08:48:03Z</time>
      </trkpt>
      <trkpt lat="42.425395000" lon="-2.434400000">
        <ele>418.30</ele>
        <time>2016-10-22T08:48:04Z</time>
      </trkpt>
      <trkpt lat="42.425429000" lon="-2.434381000">
        <ele>418.40</ele>
        <time>2016-10-22T08:48:05Z</time>
      </trkpt>
      <trkpt lat="42.425463000" lon="-2.434359000">
        <ele>418.50</ele>
        <time>2016-10-22T08:48:06Z</time>
      </trkpt>
      <trkpt lat="42.425497000" lon="-2.434340000">
        <ele>418.60</ele>
        <time>2016-10-22T08:48:07Z</time>
      </trkpt>
      <trkpt lat="42.425529000" lon="-2.434320000">
        <ele>418.70</ele>
        <time>2016-10-22T08:48:08Z</time>
      </trkpt>
      <trkpt lat="42.425602000" lon="-2.434273000">
        <ele>418.80</ele>
        <time>2016-10-22T08:48:10Z</time>
      </trkpt>
      <trkpt lat="42.425642000" lon="-2.434250000">
        <ele>418.80</ele>
        <time>2016-10-22T08:48:11Z</time>
      </trkpt>
      <trkpt lat="42.425684000" lon="-2.434227000">
        <ele>418.90</ele>
        <time>2016-10-22T08:48:12Z</time>
      </trkpt>
      <trkpt lat="42.425726000" lon="-2.434202000">
        <ele>419.10</ele>
        <time>2016-10-22T08:48:13Z</time>
      </trkpt>
      <trkpt lat="42.425771000" lon="-2.434180000">
        <ele>419.20</ele>
        <time>2016-10-22T08:48:14Z</time>
      </trkpt>
      <trkpt lat="42.425817000" lon="-2.434158000">
        <ele>419.40</ele>
        <time>2016-10-22T08:48:15Z</time>
      </trkpt>
      <trkpt lat="42.425864000" lon="-2.434140000">
        <ele>419.50</ele>
        <time>2016-10-22T08:48:16Z</time>
      </trkpt>
      <trkpt lat="42.425909000" lon="-2.434120000">
        <ele>419.30</ele>
        <time>2016-10-22T08:48:17Z</time>
      </trkpt>
      <trkpt lat="42.425954000" lon="-2.434102000">
        <ele>419.20</ele>
        <time>2016-10-22T08:48:18Z</time>
      </trkpt>
      <trkpt lat="42.425999000" lon="-2.434087000">
        <ele>419.00</ele>
        <time>2016-10-22T08:48:19Z</time>
      </trkpt>
      <trkpt lat="42.426044000" lon="-2.434070000">
        <ele>418.90</ele>
        <time>2016-10-22T08:48:20Z</time>
      </trkpt>
      <trkpt lat="42.426089000" lon="-2.434050000">
        <ele>418.80</ele>
        <time>2016-10-22T08:48:21Z</time>
      </trkpt>
      <trkpt lat="42.426133000" lon="-2.434029000">
        <ele>418.80</ele>
        <time>2016-10-22T08:48:22Z</time>
      </trkpt>
      <trkpt lat="42.426174000" lon="-2.434008000">
        <ele>418.80</ele>
        <time>2016-10-22T08:48:23Z</time>
      </trkpt>
      <trkpt lat="42.426216000" lon="-2.433989000">
        <ele>418.80</ele>
        <time>2016-10-22T08:48:24Z</time>
      </trkpt>
      <trkpt lat="42.426260000" lon="-2.433969000">
        <ele>418.70</ele>
        <time>2016-10-22T08:48:25Z</time>
      </trkpt>
      <trkpt lat="42.426304000" lon="-2.433946000">
        <ele>418.70</ele>
        <time>2016-10-22T08:48:26Z</time>
      </trkpt>
      <trkpt lat="42.426350000" lon="-2.433924000">
        <ele>418.80</ele>
        <time>2016-10-22T08:48:27Z</time>
      </trkpt>
      <trkpt lat="42.426396000" lon="-2.433904000">
        <ele>418.90</ele>
        <time>2016-10-22T08:48:28Z</time>
      </trkpt>
      <trkpt lat="42.426441000" lon="-2.433886000">
        <ele>418.90</ele>
        <time>2016-10-22T08:48:29Z</time>
      </trkpt>
      <trkpt lat="42.426485000" lon="-2.433869000">
        <ele>418.80</ele>
        <time>2016-10-22T08:48:30Z</time>
      </trkpt>
      <trkpt lat="42.426528000" lon="-2.433850000">
        <ele>418.90</ele>
        <time>2016-10-22T08:48:31Z</time>
      </trkpt>
      <trkpt lat="42.426574000" lon="-2.433833000">
        <ele>418.90</ele>
        <time>2016-10-22T08:48:32Z</time>
      </trkpt>
      <trkpt lat="42.426620000" lon="-2.433816000">
        <ele>418.80</ele>
        <time>2016-10-22T08:48:33Z</time>
      </trkpt>
      <trkpt lat="42.426666000" lon="-2.433800000">
        <ele>418.80</ele>
        <time>2016-10-22T08:48:34Z</time>
      </trkpt>
      <trkpt lat="42.426712000" lon="-2.433779000">
        <ele>418.70</ele>
        <time>2016-10-22T08:48:35Z</time>
      </trkpt>
      <trkpt lat="42.426761000" lon="-2.433759000">
        <ele>418.60</ele>
        <time>2016-10-22T08:48:36Z</time>
      </trkpt>
      <trkpt lat="42.426810000" lon="-2.433740000">
        <ele>418.60</ele>
        <time>2016-10-22T08:48:37Z</time>
      </trkpt>
      <trkpt lat="42.426859000" lon="-2.433721000">
        <ele>418.50</ele>
        <time>2016-10-22T08:48:38Z</time>
      </trkpt>
      <trkpt lat="42.426909000" lon="-2.433702000">
        <ele>418.60</ele>
        <time>2016-10-22T08:48:39Z</time>
      </trkpt>
      <trkpt lat="42.426960000" lon="-2.433680000">
        <ele>418.60</ele>
        <time>2016-10-22T08:48:40Z</time>
      </trkpt>
      <trkpt lat="42.427010000" lon="-2.433656000">
        <ele>418.60</ele>
        <time>2016-10-22T08:48:41Z</time>
      </trkpt>
      <trkpt lat="42.427060000" lon="-2.433631000">
        <ele>418.60</ele>
        <time>2016-10-22T08:48:42Z</time>
      </trkpt>
      <trkpt lat="42.427109000" lon="-2.433601000">
        <ele>418.30</ele>
        <time>2016-10-22T08:48:43Z</time>
      </trkpt>
      <trkpt lat="42.427155000" lon="-2.433564000">
        <ele>418.00</ele>
        <time>2016-10-22T08:48:44Z</time>
      </trkpt>
      <trkpt lat="42.427200000" lon="-2.433524000">
        <ele>417.80</ele>
        <time>2016-10-22T08:48:45Z</time>
      </trkpt>
      <trkpt lat="42.427243000" lon="-2.433481000">
        <ele>417.60</ele>
        <time>2016-10-22T08:48:46Z</time>
      </trkpt>
      <trkpt lat="42.427287000" lon="-2.433437000">
        <ele>417.60</ele>
        <time>2016-10-22T08:48:47Z</time>
      </trkpt>
      <trkpt lat="42.427333000" lon="-2.433393000">
        <ele>417.60</ele>
        <time>2016-10-22T08:48:48Z</time>
      </trkpt>
      <trkpt lat="42.427380000" lon="-2.433354000">
        <ele>417.60</ele>
        <time>2016-10-22T08:48:49Z</time>
      </trkpt>
      <trkpt lat="42.427429000" lon="-2.433319000">
        <ele>417.60</ele>
        <time>2016-10-22T08:48:50Z</time>
      </trkpt>
      <trkpt lat="42.427485000" lon="-2.433302000">
        <ele>417.50</ele>
        <time>2016-10-22T08:48:51Z</time>
      </trkpt>
      <trkpt lat="42.427542000" lon="-2.433287000">
        <ele>417.40</ele>
        <time>2016-10-22T08:48:52Z</time>
      </trkpt>
      <trkpt lat="42.427605000" lon="-2.433278000">
        <ele>417.10</ele>
        <time>2016-10-22T08:48:53Z</time>
      </trkpt>
      <trkpt lat="42.427667000" lon="-2.433265000">
        <ele>416.90</ele>
        <time>2016-10-22T08:48:54Z</time>
      </trkpt>
      <trkpt lat="42.427730000" lon="-2.433247000">
        <ele>416.70</ele>
        <time>2016-10-22T08:48:55Z</time>
      </trkpt>
      <trkpt lat="42.427792000" lon="-2.433226000">
        <ele>416.60</ele>
        <time>2016-10-22T08:48:56Z</time>
      </trkpt>
      <trkpt lat="42.427851000" lon="-2.433207000">
        <ele>416.40</ele>
        <time>2016-10-22T08:48:57Z</time>
      </trkpt>
      <trkpt lat="42.427912000" lon="-2.433186000">
        <ele>416.40</ele>
        <time>2016-10-22T08:48:58Z</time>
      </trkpt>
      <trkpt lat="42.427973000" lon="-2.433165000">
        <ele>416.30</ele>
        <time>2016-10-22T08:48:59Z</time>
      </trkpt>
      <trkpt lat="42.428034000" lon="-2.433144000">
        <ele>416.20</ele>
        <time>2016-10-22T08:49:00Z</time>
      </trkpt>
      <trkpt lat="42.428096000" lon="-2.433123000">
        <ele>416.20</ele>
        <time>2016-10-22T08:49:01Z</time>
      </trkpt>
      <trkpt lat="42.428159000" lon="-2.433097000">
        <ele>416.20</ele>
        <time>2016-10-22T08:49:02Z</time>
      </trkpt>
      <trkpt lat="42.428220000" lon="-2.433066000">
        <ele>416.00</ele>
        <time>2016-10-22T08:49:03Z</time>
      </trkpt>
      <trkpt lat="42.428277000" lon="-2.433038000">
        <ele>415.90</ele>
        <time>2016-10-22T08:49:04Z</time>
      </trkpt>
      <trkpt lat="42.428334000" lon="-2.433013000">
        <ele>415.70</ele>
        <time>2016-10-22T08:49:05Z</time>
      </trkpt>
      <trkpt lat="42.428390000" lon="-2.432990000">
        <ele>415.60</ele>
        <time>2016-10-22T08:49:06Z</time>
      </trkpt>
      <trkpt lat="42.428446000" lon="-2.432966000">
        <ele>415.40</ele>
        <time>2016-10-22T08:49:07Z</time>
      </trkpt>
      <trkpt lat="42.428504000" lon="-2.432942000">
        <ele>415.30</ele>
        <time>2016-10-22T08:49:08Z</time>
      </trkpt>
      <trkpt lat="42.428560000" lon="-2.432918000">
        <ele>415.10</ele>
        <time>2016-10-22T08:49:09Z</time>
      </trkpt>
      <trkpt lat="42.428673000" lon="-2.432880000">
        <ele>414.90</ele>
        <time>2016-10-22T08:49:11Z</time>
      </trkpt>
      <trkpt lat="42.428730000" lon="-2.432867000">
        <ele>414.80</ele>
        <time>2016-10-22T08:49:12Z</time>
      </trkpt>
      <trkpt lat="42.428789000" lon="-2.432858000">
        <ele>414.80</ele>
        <time>2016-10-22T08:49:13Z</time>
      </trkpt>
      <trkpt lat="42.428847000" lon="-2.432853000">
        <ele>414.70</ele>
        <time>2016-10-22T08:49:14Z</time>
      </trkpt>
      <trkpt lat="42.428907000" lon="-2.432845000">
        <ele>414.80</ele>
        <time>2016-10-22T08:49:15Z</time>
      </trkpt>
      <trkpt lat="42.428966000" lon="-2.432835000">
        <ele>414.90</ele>
        <time>2016-10-22T08:49:16Z</time>
      </trkpt>
      <trkpt lat="42.429025000" lon="-2.432821000">
        <ele>415.00</ele>
        <time>2016-10-22T08:49:17Z</time>
      </trkpt>
      <trkpt lat="42.429084000" lon="-2.432805000">
        <ele>415.00</ele>
        <time>2016-10-22T08:49:18Z</time>
      </trkpt>
      <trkpt lat="42.429145000" lon="-2.432794000">
        <ele>415.00</ele>
        <time>2016-10-22T08:49:19Z</time>
      </trkpt>
      <trkpt lat="42.429206000" lon="-2.432783000">
        <ele>415.10</ele>
        <time>2016-10-22T08:49:20Z</time>
      </trkpt>
      <trkpt lat="42.429269000" lon="-2.432773000">
        <ele>415.10</ele>
        <time>2016-10-22T08:49:21Z</time>
      </trkpt>
      <trkpt lat="42.429331000" lon="-2.432760000">
        <ele>415.10</ele>
        <time>2016-10-22T08:49:22Z</time>
      </trkpt>
      <trkpt lat="42.429390000" lon="-2.432741000">
        <ele>415.00</ele>
        <time>2016-10-22T08:49:23Z</time>
      </trkpt>
      <trkpt lat="42.429448000" lon="-2.432717000">
        <ele>415.00</ele>
        <time>2016-10-22T08:49:24Z</time>
      </trkpt>
      <trkpt lat="42.429506000" lon="-2.432684000">
        <ele>414.90</ele>
        <time>2016-10-22T08:49:25Z</time>
      </trkpt>
      <trkpt lat="42.429562000" lon="-2.432647000">
        <ele>414.80</ele>
        <time>2016-10-22T08:49:26Z</time>
      </trkpt>
      <trkpt lat="42.429616000" lon="-2.432603000">
        <ele>414.80</ele>
        <time>2016-10-22T08:49:27Z</time>
      </trkpt>
      <trkpt lat="42.429671000" lon="-2.432561000">
        <ele>414.70</ele>
        <time>2016-10-22T08:49:28Z</time>
      </trkpt>
      <trkpt lat="42.429727000" lon="-2.432521000">
        <ele>414.70</ele>
        <time>2016-10-22T08:49:29Z</time>
      </trkpt>
      <trkpt lat="42.429786000" lon="-2.432489000">
        <ele>414.70</ele>
        <time>2016-10-22T08:49:30Z</time>
      </trkpt>
      <trkpt lat="42.429852000" lon="-2.432472000">
        <ele>414.60</ele>
        <time>2016-10-22T08:49:31Z</time>
      </trkpt>
      <trkpt lat="42.429915000" lon="-2.432456000">
        <ele>414.50</ele>
        <time>2016-10-22T08:49:32Z</time>
      </trkpt>
      <trkpt lat="42.429978000" lon="-2.432434000">
        <ele>414.10</ele>
        <time>2016-10-22T08:49:33Z</time>
      </trkpt>
      <trkpt lat="42.430035000" lon="-2.432403000">
        <ele>413.80</ele>
        <time>2016-10-22T08:49:34Z</time>
      </trkpt>
      <trkpt lat="42.430088000" lon="-2.432361000">
        <ele>413.60</ele>
        <time>2016-10-22T08:49:35Z</time>
      </trkpt>
      <trkpt lat="42.430136000" lon="-2.432308000">
        <ele>413.40</ele>
        <time>2016-10-22T08:49:36Z</time>
      </trkpt>
      <trkpt lat="42.430179000" lon="-2.432246000">
        <ele>413.30</ele>
        <time>2016-10-22T08:49:37Z</time>
      </trkpt>
      <trkpt lat="42.430221000" lon="-2.432180000">
        <ele>413.10</ele>
        <time>2016-10-22T08:49:38Z</time>
      </trkpt>
      <trkpt lat="42.430262000" lon="-2.432115000">
        <ele>413.10</ele>
        <time>2016-10-22T08:49:39Z</time>
      </trkpt>
      <trkpt lat="42.430304000" lon="-2.432054000">
        <ele>413.00</ele>
        <time>2016-10-22T08:49:40Z</time>
      </trkpt>
      <trkpt lat="42.430343000" lon="-2.431995000">
        <ele>413.20</ele>
        <time>2016-10-22T08:49:41Z</time>
      </trkpt>
      <trkpt lat="42.430383000" lon="-2.431937000">
        <ele>413.30</ele>
        <time>2016-10-22T08:49:42Z</time>
      </trkpt>
      <trkpt lat="42.430425000" lon="-2.431875000">
        <ele>413.40</ele>
        <time>2016-10-22T08:49:43Z</time>
      </trkpt>
      <trkpt lat="42.430462000" lon="-2.431814000">
        <ele>413.50</ele>
        <time>2016-10-22T08:49:44Z</time>
      </trkpt>
      <trkpt lat="42.430500000" lon="-2.431748000">
        <ele>413.50</ele>
        <time>2016-10-22T08:49:45Z</time>
      </trkpt>
      <trkpt lat="42.430539000" lon="-2.431681000">
        <ele>413.50</ele>
        <time>2016-10-22T08:49:46Z</time>
      </trkpt>
      <trkpt lat="42.430581000" lon="-2.431618000">
        <ele>413.20</ele>
        <time>2016-10-22T08:49:47Z</time>
      </trkpt>
      <trkpt lat="42.430631000" lon="-2.431559000">
        <ele>413.00</ele>
        <time>2016-10-22T08:49:48Z</time>
      </trkpt>
      <trkpt lat="42.430684000" lon="-2.431503000">
        <ele>413.10</ele>
        <time>2016-10-22T08:49:49Z</time>
      </trkpt>
      <trkpt lat="42.430740000" lon="-2.431452000">
        <ele>413.20</ele>
        <time>2016-10-22T08:49:50Z</time>
      </trkpt>
      <trkpt lat="42.430800000" lon="-2.431409000">
        <ele>413.00</ele>
        <time>2016-10-22T08:49:51Z</time>
      </trkpt>
      <trkpt lat="42.430861000" lon="-2.431378000">
        <ele>412.90</ele>
        <time>2016-10-22T08:49:52Z</time>
      </trkpt>
      <trkpt lat="42.430921000" lon="-2.431357000">
        <ele>412.80</ele>
        <time>2016-10-22T08:49:53Z</time>
      </trkpt>
      <trkpt lat="42.430978000" lon="-2.431333000">
        <ele>412.70</ele>
        <time>2016-10-22T08:49:54Z</time>
      </trkpt>
      <trkpt lat="42.431032000" lon="-2.431301000">
        <ele>412.30</ele>
        <time>2016-10-22T08:49:55Z</time>
      </trkpt>
      <trkpt lat="42.431082000" lon="-2.431257000">
        <ele>412.00</ele>
        <time>2016-10-22T08:49:56Z</time>
      </trkpt>
      <trkpt lat="42.431129000" lon="-2.431207000">
        <ele>411.80</ele>
        <time>2016-10-22T08:49:57Z</time>
      </trkpt>
      <trkpt lat="42.431177000" lon="-2.431153000">
        <ele>411.60</ele>
        <time>2016-10-22T08:49:58Z</time>
      </trkpt>
      <trkpt lat="42.431228000" lon="-2.431101000">
        <ele>411.50</ele>
        <time>2016-10-22T08:49:59Z</time>
      </trkpt>
      <trkpt lat="42.431280000" lon="-2.431056000">
        <ele>411.40</ele>
        <time>2016-10-22T08:50:00Z</time>
      </trkpt>
      <trkpt lat="42.431333000" lon="-2.431006000">
        <ele>411.50</ele>
        <time>2016-10-22T08:50:01Z</time>
      </trkpt>
      <trkpt lat="42.431385000" lon="-2.430960000">
        <ele>411.60</ele>
        <time>2016-10-22T08:50:02Z</time>
      </trkpt>
      <trkpt lat="42.431438000" lon="-2.430910000">
        <ele>411.50</ele>
        <time>2016-10-22T08:50:03Z</time>
      </trkpt>
      <trkpt lat="42.431494000" lon="-2.430861000">
        <ele>411.40</ele>
        <time>2016-10-22T08:50:04Z</time>
      </trkpt>
      <trkpt lat="42.431551000" lon="-2.430817000">
        <ele>411.50</ele>
        <time>2016-10-22T08:50:05Z</time>
      </trkpt>
      <trkpt lat="42.431609000" lon="-2.430777000">
        <ele>411.60</ele>
        <time>2016-10-22T08:50:06Z</time>
      </trkpt>
      <trkpt lat="42.431668000" lon="-2.430747000">
        <ele>411.60</ele>
        <time>2016-10-22T08:50:07Z</time>
      </trkpt>
      <trkpt lat="42.431732000" lon="-2.430720000">
        <ele>411.60</ele>
        <time>2016-10-22T08:50:08Z</time>
      </trkpt>
      <trkpt lat="42.431796000" lon="-2.430686000">
        <ele>411.60</ele>
        <time>2016-10-22T08:50:09Z</time>
      </trkpt>
      <trkpt lat="42.431860000" lon="-2.430647000">
        <ele>411.60</ele>
        <time>2016-10-22T08:50:10Z</time>
      </trkpt>
      <trkpt lat="42.431980000" lon="-2.430553000">
        <ele>411.10</ele>
        <time>2016-10-22T08:50:12Z</time>
      </trkpt>
      <trkpt lat="42.432037000" lon="-2.430502000">
        <ele>410.80</ele>
        <time>2016-10-22T08:50:13Z</time>
      </trkpt>
      <trkpt lat="42.432096000" lon="-2.430452000">
        <ele>410.60</ele>
        <time>2016-10-22T08:50:14Z</time>
      </trkpt>
      <trkpt lat="42.432157000" lon="-2.430408000">
        <ele>410.20</ele>
        <time>2016-10-22T08:50:15Z</time>
      </trkpt>
      <trkpt lat="42.432219000" lon="-2.430362000">
        <ele>409.90</ele>
        <time>2016-10-22T08:50:16Z</time>
      </trkpt>
      <trkpt lat="42.432280000" lon="-2.430324000">
        <ele>409.50</ele>
        <time>2016-10-22T08:50:17Z</time>
      </trkpt>
      <trkpt lat="42.432345000" lon="-2.430286000">
        <ele>409.20</ele>
        <time>2016-10-22T08:50:18Z</time>
      </trkpt>
      <trkpt lat="42.432409000" lon="-2.430250000">
        <ele>409.00</ele>
        <time>2016-10-22T08:50:19Z</time>
      </trkpt>
      <trkpt lat="42.432474000" lon="-2.430213000">
        <ele>408.80</ele>
        <time>2016-10-22T08:50:20Z</time>
      </trkpt>
      <trkpt lat="42.432539000" lon="-2.430182000">
        <ele>408.80</ele>
        <time>2016-10-22T08:50:21Z</time>
      </trkpt>
      <trkpt lat="42.432603000" lon="-2.430146000">
        <ele>408.70</ele>
        <time>2016-10-22T08:50:22Z</time>
      </trkpt>
      <trkpt lat="42.432666000" lon="-2.430112000">
        <ele>408.90</ele>
        <time>2016-10-22T08:50:23Z</time>
      </trkpt>
      <trkpt lat="42.432728000" lon="-2.430076000">
        <ele>408.90</ele>
        <time>2016-10-22T08:50:24Z</time>
      </trkpt>
      <trkpt lat="42.432790000" lon="-2.430040000">
        <ele>408.90</ele>
        <time>2016-10-22T08:50:25Z</time>
      </trkpt>
      <trkpt lat="42.432850000" lon="-2.430000000">
        <ele>408.80</ele>
        <time>2016-10-22T08:50:26Z</time>
      </trkpt>
      <trkpt lat="42.432912000" lon="-2.429960000">
        <ele>408.80</ele>
        <time>2016-10-22T08:50:27Z</time>
      </trkpt>
      <trkpt lat="42.432973000" lon="-2.429921000">
        <ele>408.80</ele>
        <time>2016-10-22T08:50:28Z</time>
      </trkpt>
      <trkpt lat="42.433034000" lon="-2.429881000">
        <ele>408.70</ele>
        <time>2016-10-22T08:50:29Z</time>
      </trkpt>
      <trkpt lat="42.433095000" lon="-2.429841000">
        <ele>408.60</ele>
        <time>2016-10-22T08:50:30Z</time>
      </trkpt>
      <trkpt lat="42.433158000" lon="-2.429801000">
        <ele>408.60</ele>
        <time>2016-10-22T08:50:31Z</time>
      </trkpt>
      <trkpt lat="42.433220000" lon="-2.429764000">
        <ele>408.50</ele>
        <time>2016-10-22T08:50:32Z</time>
      </trkpt>
      <trkpt lat="42.433283000" lon="-2.429726000">
        <ele>408.50</ele>
        <time>2016-10-22T08:50:33Z</time>
      </trkpt>
      <trkpt lat="42.433345000" lon="-2.429687000">
        <ele>408.50</ele>
        <time>2016-10-22T08:50:34Z</time>
      </trkpt>
      <trkpt lat="42.433406000" lon="-2.429647000">
        <ele>408.50</ele>
        <time>2016-10-22T08:50:35Z</time>
      </trkpt>
      <trkpt lat="42.433467000" lon="-2.429606000">
        <ele>408.50</ele>
        <time>2016-10-22T08:50:36Z</time>
      </trkpt>
      <trkpt lat="42.433530000" lon="-2.429566000">
        <ele>408.10</ele>
        <time>2016-10-22T08:50:37Z</time>
      </trkpt>
      <trkpt lat="42.433593000" lon="-2.429528000">
        <ele>407.80</ele>
        <time>2016-10-22T08:50:38Z</time>
      </trkpt>
      <trkpt lat="42.433652000" lon="-2.429491000">
        <ele>407.50</ele>
        <time>2016-10-22T08:50:39Z</time>
      </trkpt>
      <trkpt lat="42.433706000" lon="-2.429460000">
        <ele>407.40</ele>
        <time>2016-10-22T08:50:40Z</time>
      </trkpt>
      <trkpt lat="42.433758000" lon="-2.429425000">
        <ele>407.20</ele>
        <time>2016-10-22T08:50:41Z</time>
      </trkpt>
      <trkpt lat="42.433812000" lon="-2.429394000">
        <ele>407.10</ele>
        <time>2016-10-22T08:50:42Z</time>
      </trkpt>
      <trkpt lat="42.433869000" lon="-2.429363000">
        <ele>407.10</ele>
        <time>2016-10-22T08:50:43Z</time>
      </trkpt>
      <trkpt lat="42.433927000" lon="-2.429332000">
        <ele>407.10</ele>
        <time>2016-10-22T08:50:44Z</time>
      </trkpt>
      <trkpt lat="42.433983000" lon="-2.429301000">
        <ele>407.10</ele>
        <time>2016-10-22T08:50:45Z</time>
      </trkpt>
      <trkpt lat="42.434037000" lon="-2.429272000">
        <ele>407.10</ele>
        <time>2016-10-22T08:50:46Z</time>
      </trkpt>
      <trkpt lat="42.434090000" lon="-2.429255000">
        <ele>407.10</ele>
        <time>2016-10-22T08:50:47Z</time>
      </trkpt>
      <trkpt lat="42.434140000" lon="-2.429246000">
        <ele>407.10</ele>
        <time>2016-10-22T08:50:48Z</time>
      </trkpt>
      <trkpt lat="42.434191000" lon="-2.429246000">
        <ele>407.40</ele>
        <time>2016-10-22T08:50:49Z</time>
      </trkpt>
      <trkpt lat="42.434240000" lon="-2.429251000">
        <ele>407.50</ele>
        <time>2016-10-22T08:50:50Z</time>
      </trkpt>
      <trkpt lat="42.434292000" lon="-2.429262000">
        <ele>407.80</ele>
        <time>2016-10-22T08:50:51Z</time>
      </trkpt>
      <trkpt lat="42.434349000" lon="-2.429276000">
        <ele>408.00</ele>
        <time>2016-10-22T08:50:52Z</time>
      </trkpt>
      <trkpt lat="42.434407000" lon="-2.429293000">
        <ele>408.20</ele>
        <time>2016-10-22T08:50:53Z</time>
      </trkpt>
      <trkpt lat="42.434468000" lon="-2.429307000">
        <ele>408.30</ele>
        <time>2016-10-22T08:50:54Z</time>
      </trkpt>
      <trkpt lat="42.434531000" lon="-2.429317000">
        <ele>408.40</ele>
        <time>2016-10-22T08:50:55Z</time>
      </trkpt>
      <trkpt lat="42.434596000" lon="-2.429322000">
        <ele>408.40</ele>
        <time>2016-10-22T08:50:56Z</time>
      </trkpt>
      <trkpt lat="42.434662000" lon="-2.429318000">
        <ele>408.10</ele>
        <time>2016-10-22T08:50:57Z</time>
      </trkpt>
      <trkpt lat="42.434729000" lon="-2.429302000">
        <ele>407.80</ele>
        <time>2016-10-22T08:50:58Z</time>
      </trkpt>
      <trkpt lat="42.434793000" lon="-2.429277000">
        <ele>407.50</ele>
        <time>2016-10-22T08:50:59Z</time>
      </trkpt>
      <trkpt lat="42.434857000" lon="-2.429246000">
        <ele>407.20</ele>
        <time>2016-10-22T08:51:00Z</time>
      </trkpt>
      <trkpt lat="42.434922000" lon="-2.429221000">
        <ele>407.20</ele>
        <time>2016-10-22T08:51:01Z</time>
      </trkpt>
      <trkpt lat="42.434987000" lon="-2.429202000">
        <ele>407.20</ele>
        <time>2016-10-22T08:51:02Z</time>
      </trkpt>
      <trkpt lat="42.435050000" lon="-2.429185000">
        <ele>406.90</ele>
        <time>2016-10-22T08:51:03Z</time>
      </trkpt>
      <trkpt lat="42.435113000" lon="-2.429173000">
        <ele>406.80</ele>
        <time>2016-10-22T08:51:04Z</time>
      </trkpt>
      <trkpt lat="42.435174000" lon="-2.429162000">
        <ele>406.60</ele>
        <time>2016-10-22T08:51:05Z</time>
      </trkpt>
      <trkpt lat="42.435237000" lon="-2.429147000">
        <ele>406.50</ele>
        <time>2016-10-22T08:51:06Z</time>
      </trkpt>
      <trkpt lat="42.435299000" lon="-2.429123000">
        <ele>406.50</ele>
        <time>2016-10-22T08:51:07Z</time>
      </trkpt>
      <trkpt lat="42.435358000" lon="-2.429086000">
        <ele>406.40</ele>
        <time>2016-10-22T08:51:08Z</time>
      </trkpt>
      <trkpt lat="42.435414000" lon="-2.429042000">
        <ele>406.40</ele>
        <time>2016-10-22T08:51:09Z</time>
      </trkpt>
      <trkpt lat="42.435469000" lon="-2.428994000">
        <ele>406.30</ele>
        <time>2016-10-22T08:51:10Z</time>
      </trkpt>
      <trkpt lat="42.435521000" lon="-2.428941000">
        <ele>406.30</ele>
        <time>2016-10-22T08:51:11Z</time>
      </trkpt>
      <trkpt lat="42.435620000" lon="-2.428835000">
        <ele>406.30</ele>
        <time>2016-10-22T08:51:13Z</time>
      </trkpt>
      <trkpt lat="42.435665000" lon="-2.428782000">
        <ele>406.30</ele>
        <time>2016-10-22T08:51:14Z</time>
      </trkpt>
      <trkpt lat="42.435703000" lon="-2.428728000">
        <ele>406.20</ele>
        <time>2016-10-22T08:51:15Z</time>
      </trkpt>
      <trkpt lat="42.435739000" lon="-2.428672000">
        <ele>406.20</ele>
        <time>2016-10-22T08:51:16Z</time>
      </trkpt>
      <trkpt lat="42.435779000" lon="-2.428620000">
        <ele>406.20</ele>
        <time>2016-10-22T08:51:17Z</time>
      </trkpt>
      <trkpt lat="42.435817000" lon="-2.428571000">
        <ele>406.20</ele>
        <time>2016-10-22T08:51:18Z</time>
      </trkpt>
      <trkpt lat="42.435857000" lon="-2.428523000">
        <ele>406.00</ele>
        <time>2016-10-22T08:51:19Z</time>
      </trkpt>
      <trkpt lat="42.435898000" lon="-2.428476000">
        <ele>405.90</ele>
        <time>2016-10-22T08:51:20Z</time>
      </trkpt>
      <trkpt lat="42.435939000" lon="-2.428428000">
        <ele>406.20</ele>
        <time>2016-10-22T08:51:21Z</time>
      </trkpt>
      <trkpt lat="42.435977000" lon="-2.428380000">
        <ele>406.50</ele>
        <time>2016-10-22T08:51:22Z</time>
      </trkpt>
      <trkpt lat="42.436015000" lon="-2.428334000">
        <ele>406.20</ele>
        <time>2016-10-22T08:51:23Z</time>
      </trkpt>
      <trkpt lat="42.436054000" lon="-2.428290000">
        <ele>406.00</ele>
        <time>2016-10-22T08:51:24Z</time>
      </trkpt>
      <trkpt lat="42.436092000" lon="-2.428244000">
        <ele>406.10</ele>
        <time>2016-10-22T08:51:25Z</time>
      </trkpt>
      <trkpt lat="42.436127000" lon="-2.428201000">
        <ele>406.20</ele>
        <time>2016-10-22T08:51:26Z</time>
      </trkpt>
      <trkpt lat="42.436161000" lon="-2.428158000">
        <ele>406.10</ele>
        <time>2016-10-22T08:51:27Z</time>
      </trkpt>
      <trkpt lat="42.436196000" lon="-2.428115000">
        <ele>406.10</ele>
        <time>2016-10-22T08:51:28Z</time>
      </trkpt>
      <trkpt lat="42.436233000" lon="-2.428072000">
        <ele>406.00</ele>
        <time>2016-10-22T08:51:29Z</time>
      </trkpt>
      <trkpt lat="42.436271000" lon="-2.428029000">
        <ele>406.00</ele>
        <time>2016-10-22T08:51:30Z</time>
      </trkpt>
      <trkpt lat="42.436308000" lon="-2.427985000">
        <ele>406.00</ele>
        <time>2016-10-22T08:51:31Z</time>
      </trkpt>
      <trkpt lat="42.436348000" lon="-2.427939000">
        <ele>406.00</ele>
        <time>2016-10-22T08:51:32Z</time>
      </trkpt>
      <trkpt lat="42.436390000" lon="-2.427892000">
        <ele>405.80</ele>
        <time>2016-10-22T08:51:33Z</time>
      </trkpt>
      <trkpt lat="42.436437000" lon="-2.427844000">
        <ele>405.70</ele>
        <time>2016-10-22T08:51:34Z</time>
      </trkpt>
      <trkpt lat="42.436492000" lon="-2.427798000">
        <ele>405.40</ele>
        <time>2016-10-22T08:51:35Z</time>
      </trkpt>
      <trkpt lat="42.436556000" lon="-2.427764000">
        <ele>405.10</ele>
        <time>2016-10-22T08:51:36Z</time>
      </trkpt>
      <trkpt lat="42.436624000" lon="-2.427737000">
        <ele>404.40</ele>
        <time>2016-10-22T08:51:37Z</time>
      </trkpt>
      <trkpt lat="42.436691000" lon="-2.427718000">
        <ele>403.90</ele>
        <time>2016-10-22T08:51:38Z</time>
      </trkpt>
      <trkpt lat="42.436754000" lon="-2.427700000">
        <ele>403.60</ele>
        <time>2016-10-22T08:51:39Z</time>
      </trkpt>
      <trkpt lat="42.436811000" lon="-2.427691000">
        <ele>403.30</ele>
        <time>2016-10-22T08:51:40Z</time>
      </trkpt>
      <trkpt lat="42.436865000" lon="-2.427680000">
        <ele>402.90</ele>
        <time>2016-10-22T08:51:41Z</time>
      </trkpt>
      <trkpt lat="42.436926000" lon="-2.427678000">
        <ele>402.70</ele>
        <time>2016-10-22T08:51:42Z</time>
      </trkpt>
      <trkpt lat="42.436979000" lon="-2.427679000">
        <ele>402.70</ele>
        <time>2016-10-22T08:51:43Z</time>
      </trkpt>
      <trkpt lat="42.437027000" lon="-2.427702000">
        <ele>402.70</ele>
        <time>2016-10-22T08:51:44Z</time>
      </trkpt>
      <trkpt lat="42.437073000" lon="-2.427733000">
        <ele>402.80</ele>
        <time>2016-10-22T08:51:45Z</time>
      </trkpt>
      <trkpt lat="42.437112000" lon="-2.427778000">
        <ele>402.90</ele>
        <time>2016-10-22T08:51:46Z</time>
      </trkpt>
      <trkpt lat="42.437144000" lon="-2.427842000">
        <ele>403.10</ele>
        <time>2016-10-22T08:51:47Z</time>
      </trkpt>
      <trkpt lat="42.437167000" lon="-2.427914000">
        <ele>403.20</ele>
        <time>2016-10-22T08:51:48Z</time>
      </trkpt>
      <trkpt lat="42.437185000" lon="-2.427990000">
        <ele>403.20</ele>
        <time>2016-10-22T08:51:49Z</time>
      </trkpt>
      <trkpt lat="42.437211000" lon="-2.428059000">
        <ele>403.20</ele>
        <time>2016-10-22T08:51:50Z</time>
      </trkpt>
      <trkpt lat="42.437254000" lon="-2.428104000">
        <ele>402.90</ele>
        <time>2016-10-22T08:51:51Z</time>
      </trkpt>
      <trkpt lat="42.437308000" lon="-2.428120000">
        <ele>402.60</ele>
        <time>2016-10-22T08:51:52Z</time>
      </trkpt>
      <trkpt lat="42.437361000" lon="-2.428110000">
        <ele>402.40</ele>
        <time>2016-10-22T08:51:53Z</time>
      </trkpt>
      <trkpt lat="42.437416000" lon="-2.428092000">
        <ele>402.30</ele>
        <time>2016-10-22T08:51:54Z</time>
      </trkpt>
      <trkpt lat="42.437474000" lon="-2.428069000">
        <ele>402.20</ele>
        <time>2016-10-22T08:51:55Z</time>
      </trkpt>
      <trkpt lat="42.437531000" lon="-2.428046000">
        <ele>402.20</ele>
        <time>2016-10-22T08:51:56Z</time>
      </trkpt>
      <trkpt lat="42.437588000" lon="-2.428025000">
        <ele>402.10</ele>
        <time>2016-10-22T08:51:57Z</time>
      </trkpt>
      <trkpt lat="42.437647000" lon="-2.428002000">
        <ele>402.10</ele>
        <time>2016-10-22T08:51:58Z</time>
      </trkpt>
      <trkpt lat="42.437707000" lon="-2.427979000">
        <ele>402.00</ele>
        <time>2016-10-22T08:51:59Z</time>
      </trkpt>
      <trkpt lat="42.437769000" lon="-2.427958000">
        <ele>401.90</ele>
        <time>2016-10-22T08:52:00Z</time>
      </trkpt>
      <trkpt lat="42.437830000" lon="-2.427939000">
        <ele>401.90</ele>
        <time>2016-10-22T08:52:01Z</time>
      </trkpt>
      <trkpt lat="42.437891000" lon="-2.427920000">
        <ele>401.90</ele>
        <time>2016-10-22T08:52:02Z</time>
      </trkpt>
      <trkpt lat="42.437951000" lon="-2.427898000">
        <ele>401.60</ele>
        <time>2016-10-22T08:52:03Z</time>
      </trkpt>
      <trkpt lat="42.438012000" lon="-2.427877000">
        <ele>401.40</ele>
        <time>2016-10-22T08:52:04Z</time>
      </trkpt>
      <trkpt lat="42.438071000" lon="-2.427854000">
        <ele>401.20</ele>
        <time>2016-10-22T08:52:05Z</time>
      </trkpt>
      <trkpt lat="42.438128000" lon="-2.427830000">
        <ele>401.10</ele>
        <time>2016-10-22T08:52:06Z</time>
      </trkpt>
      <trkpt lat="42.438188000" lon="-2.427810000">
        <ele>401.00</ele>
        <time>2016-10-22T08:52:07Z</time>
      </trkpt>
      <trkpt lat="42.438250000" lon="-2.427789000">
        <ele>400.90</ele>
        <time>2016-10-22T08:52:08Z</time>
      </trkpt>
      <trkpt lat="42.438312000" lon="-2.427767000">
        <ele>400.80</ele>
        <time>2016-10-22T08:52:09Z</time>
      </trkpt>
      <trkpt lat="42.438373000" lon="-2.427748000">
        <ele>400.70</ele>
        <time>2016-10-22T08:52:10Z</time>
      </trkpt>
      <trkpt lat="42.438437000" lon="-2.427729000">
        <ele>400.60</ele>
        <time>2016-10-22T08:52:11Z</time>
      </trkpt>
      <trkpt lat="42.438499000" lon="-2.427708000">
        <ele>400.50</ele>
        <time>2016-10-22T08:52:12Z</time>
      </trkpt>
      <trkpt lat="42.438627000" lon="-2.427670000">
        <ele>400.40</ele>
        <time>2016-10-22T08:52:14Z</time>
      </trkpt>
      <trkpt lat="42.438690000" lon="-2.427652000">
        <ele>400.50</ele>
        <time>2016-10-22T08:52:15Z</time>
      </trkpt>
      <trkpt lat="42.438752000" lon="-2.427633000">
        <ele>400.60</ele>
        <time>2016-10-22T08:52:16Z</time>
      </trkpt>
      <trkpt lat="42.438814000" lon="-2.427613000">
        <ele>400.70</ele>
        <time>2016-10-22T08:52:17Z</time>
      </trkpt>
      <trkpt lat="42.438877000" lon="-2.427591000">
        <ele>400.80</ele>
        <time>2016-10-22T08:52:18Z</time>
      </trkpt>
      <trkpt lat="42.438940000" lon="-2.427569000">
        <ele>400.80</ele>
        <time>2016-10-22T08:52:19Z</time>
      </trkpt>
      <trkpt lat="42.439003000" lon="-2.427544000">
        <ele>400.80</ele>
        <time>2016-10-22T08:52:20Z</time>
      </trkpt>
      <trkpt lat="42.439066000" lon="-2.427522000">
        <ele>400.80</ele>
        <time>2016-10-22T08:52:21Z</time>
      </trkpt>
      <trkpt lat="42.439129000" lon="-2.427500000">
        <ele>400.80</ele>
        <time>2016-10-22T08:52:22Z</time>
      </trkpt>
      <trkpt lat="42.439192000" lon="-2.427481000">
        <ele>400.70</ele>
        <time>2016-10-22T08:52:23Z</time>
      </trkpt>
      <trkpt lat="42.439254000" lon="-2.427461000">
        <ele>400.70</ele>
        <time>2016-10-22T08:52:24Z</time>
      </trkpt>
      <trkpt lat="42.439316000" lon="-2.427441000">
        <ele>400.60</ele>
        <time>2016-10-22T08:52:25Z</time>
      </trkpt>
      <trkpt lat="42.439377000" lon="-2.427421000">
        <ele>400.50</ele>
        <time>2016-10-22T08:52:26Z</time>
      </trkpt>
      <trkpt lat="42.439440000" lon="-2.427397000">
        <ele>400.40</ele>
        <time>2016-10-22T08:52:27Z</time>
      </trkpt>
      <trkpt lat="42.439498000" lon="-2.427377000">
        <ele>400.30</ele>
        <time>2016-10-22T08:52:28Z</time>
      </trkpt>
      <trkpt lat="42.439561000" lon="-2.427357000">
        <ele>399.90</ele>
        <time>2016-10-22T08:52:29Z</time>
      </trkpt>
      <trkpt lat="42.439623000" lon="-2.427336000">
        <ele>399.60</ele>
        <time>2016-10-22T08:52:30Z</time>
      </trkpt>
      <trkpt lat="42.439685000" lon="-2.427315000">
        <ele>399.40</ele>
        <time>2016-10-22T08:52:31Z</time>
      </trkpt>
      <trkpt lat="42.439746000" lon="-2.427296000">
        <ele>399.30</ele>
        <time>2016-10-22T08:52:32Z</time>
      </trkpt>
      <trkpt lat="42.439808000" lon="-2.427278000">
        <ele>399.20</ele>
        <time>2016-10-22T08:52:33Z</time>
      </trkpt>
      <trkpt lat="42.439871000" lon="-2.427255000">
        <ele>399.10</ele>
        <time>2016-10-22T08:52:34Z</time>
      </trkpt>
      <trkpt lat="42.439932000" lon="-2.427233000">
        <ele>399.10</ele>
        <time>2016-10-22T08:52:35Z</time>
      </trkpt>
      <trkpt lat="42.439994000" lon="-2.427211000">
        <ele>399.10</ele>
        <time>2016-10-22T08:52:36Z</time>
      </trkpt>
      <trkpt lat="42.440056000" lon="-2.427189000">
        <ele>399.10</ele>
        <time>2016-10-22T08:52:37Z</time>
      </trkpt>
      <trkpt lat="42.440121000" lon="-2.427175000">
        <ele>399.10</ele>
        <time>2016-10-22T08:52:38Z</time>
      </trkpt>
      <trkpt lat="42.440186000" lon="-2.427165000">
        <ele>399.00</ele>
        <time>2016-10-22T08:52:39Z</time>
      </trkpt>
      <trkpt lat="42.440256000" lon="-2.427167000">
        <ele>398.90</ele>
        <time>2016-10-22T08:52:40Z</time>
      </trkpt>
      <trkpt lat="42.440324000" lon="-2.427185000">
        <ele>398.80</ele>
        <time>2016-10-22T08:52:41Z</time>
      </trkpt>
      <trkpt lat="42.440391000" lon="-2.427207000">
        <ele>398.70</ele>
        <time>2016-10-22T08:52:42Z</time>
      </trkpt>
      <trkpt lat="42.440460000" lon="-2.427228000">
        <ele>398.70</ele>
        <time>2016-10-22T08:52:43Z</time>
      </trkpt>
      <trkpt lat="42.440529000" lon="-2.427243000">
        <ele>398.60</ele>
        <time>2016-10-22T08:52:44Z</time>
      </trkpt>
      <trkpt lat="42.440600000" lon="-2.427248000">
        <ele>398.60</ele>
        <time>2016-10-22T08:52:45Z</time>
      </trkpt>
      <trkpt lat="42.440670000" lon="-2.427247000">
        <ele>398.60</ele>
        <time>2016-10-22T08:52:46Z</time>
      </trkpt>
      <trkpt lat="42.440739000" lon="-2.427244000">
        <ele>398.40</ele>
        <time>2016-10-22T08:52:47Z</time>
      </trkpt>
      <trkpt lat="42.440809000" lon="-2.427243000">
        <ele>398.30</ele>
        <time>2016-10-22T08:52:48Z</time>
      </trkpt>
      <trkpt lat="42.440877000" lon="-2.427248000">
        <ele>398.00</ele>
        <time>2016-10-22T08:52:49Z</time>
      </trkpt>
      <trkpt lat="42.440945000" lon="-2.427261000">
        <ele>397.80</ele>
        <time>2016-10-22T08:52:50Z</time>
      </trkpt>
      <trkpt lat="42.441011000" lon="-2.427280000">
        <ele>397.60</ele>
        <time>2016-10-22T08:52:51Z</time>
      </trkpt>
      <trkpt lat="42.441074000" lon="-2.427305000">
        <ele>397.40</ele>
        <time>2016-10-22T08:52:52Z</time>
      </trkpt>
      <trkpt lat="42.441141000" lon="-2.427327000">
        <ele>397.30</ele>
        <time>2016-10-22T08:52:53Z</time>
      </trkpt>
      <trkpt lat="42.441208000" lon="-2.427348000">
        <ele>397.10</ele>
        <time>2016-10-22T08:52:54Z</time>
      </trkpt>
      <trkpt lat="42.441278000" lon="-2.427369000">
        <ele>397.00</ele>
        <time>2016-10-22T08:52:55Z</time>
      </trkpt>
      <trkpt lat="42.441347000" lon="-2.427387000">
        <ele>396.90</ele>
        <time>2016-10-22T08:52:56Z</time>
      </trkpt>
      <trkpt lat="42.441415000" lon="-2.427403000">
        <ele>396.80</ele>
        <time>2016-10-22T08:52:57Z</time>
      </trkpt>
      <trkpt lat="42.441483000" lon="-2.427417000">
        <ele>396.70</ele>
        <time>2016-10-22T08:52:58Z</time>
      </trkpt>
      <trkpt lat="42.441552000" lon="-2.427427000">
        <ele>396.60</ele>
        <time>2016-10-22T08:52:59Z</time>
      </trkpt>
      <trkpt lat="42.441621000" lon="-2.427420000">
        <ele>396.50</ele>
        <time>2016-10-22T08:53:00Z</time>
      </trkpt>
      <trkpt lat="42.441687000" lon="-2.427405000">
        <ele>396.40</ele>
        <time>2016-10-22T08:53:01Z</time>
      </trkpt>
      <trkpt lat="42.441752000" lon="-2.427390000">
        <ele>396.30</ele>
        <time>2016-10-22T08:53:02Z</time>
      </trkpt>
      <trkpt lat="42.441817000" lon="-2.427370000">
        <ele>396.30</ele>
        <time>2016-10-22T08:53:03Z</time>
      </trkpt>
      <trkpt lat="42.441882000" lon="-2.427345000">
        <ele>396.30</ele>
        <time>2016-10-22T08:53:04Z</time>
      </trkpt>
      <trkpt lat="42.441948000" lon="-2.427321000">
        <ele>396.30</ele>
        <time>2016-10-22T08:53:05Z</time>
      </trkpt>
      <trkpt lat="42.442014000" lon="-2.427299000">
        <ele>396.20</ele>
        <time>2016-10-22T08:53:06Z</time>
      </trkpt>
      <trkpt lat="42.442079000" lon="-2.427276000">
        <ele>396.40</ele>
        <time>2016-10-22T08:53:07Z</time>
      </trkpt>
      <trkpt lat="42.442145000" lon="-2.427253000">
        <ele>396.40</ele>
        <time>2016-10-22T08:53:08Z</time>
      </trkpt>
      <trkpt lat="42.442212000" lon="-2.427233000">
        <ele>396.50</ele>
        <time>2016-10-22T08:53:09Z</time>
      </trkpt>
      <trkpt lat="42.442278000" lon="-2.427211000">
        <ele>396.60</ele>
        <time>2016-10-22T08:53:10Z</time>
      </trkpt>
      <trkpt lat="42.442344000" lon="-2.427187000">
        <ele>396.30</ele>
        <time>2016-10-22T08:53:11Z</time>
      </trkpt>
      <trkpt lat="42.442407000" lon="-2.427164000">
        <ele>396.20</ele>
        <time>2016-10-22T08:53:12Z</time>
      </trkpt>
      <trkpt lat="42.442471000" lon="-2.427140000">
        <ele>396.00</ele>
        <time>2016-10-22T08:53:13Z</time>
      </trkpt>
      <trkpt lat="42.442598000" lon="-2.427097000">
        <ele>395.90</ele>
        <time>2016-10-22T08:53:15Z</time>
      </trkpt>
      <trkpt lat="42.442662000" lon="-2.427076000">
        <ele>395.80</ele>
        <time>2016-10-22T08:53:16Z</time>
      </trkpt>
      <trkpt lat="42.442729000" lon="-2.427053000">
        <ele>395.60</ele>
        <time>2016-10-22T08:53:17Z</time>
      </trkpt>
      <trkpt lat="42.442794000" lon="-2.427032000">
        <ele>395.50</ele>
        <time>2016-10-22T08:53:18Z</time>
      </trkpt>
      <trkpt lat="42.442861000" lon="-2.427010000">
        <ele>395.30</ele>
        <time>2016-10-22T08:53:19Z</time>
      </trkpt>
      <trkpt lat="42.442929000" lon="-2.426989000">
        <ele>395.20</ele>
        <time>2016-10-22T08:53:20Z</time>
      </trkpt>
      <trkpt lat="42.442997000" lon="-2.426965000">
        <ele>394.80</ele>
        <time>2016-10-22T08:53:21Z</time>
      </trkpt>
      <trkpt lat="42.443065000" lon="-2.426944000">
        <ele>394.60</ele>
        <time>2016-10-22T08:53:22Z</time>
      </trkpt>
      <trkpt lat="42.443133000" lon="-2.426919000">
        <ele>394.50</ele>
        <time>2016-10-22T08:53:23Z</time>
      </trkpt>
      <trkpt lat="42.443200000" lon="-2.426894000">
        <ele>394.40</ele>
        <time>2016-10-22T08:53:24Z</time>
      </trkpt>
      <trkpt lat="42.443267000" lon="-2.426870000">
        <ele>394.30</ele>
        <time>2016-10-22T08:53:25Z</time>
      </trkpt>
      <trkpt lat="42.443331000" lon="-2.426846000">
        <ele>394.10</ele>
        <time>2016-10-22T08:53:26Z</time>
      </trkpt>
      <trkpt lat="42.443394000" lon="-2.426825000">
        <ele>393.90</ele>
        <time>2016-10-22T08:53:27Z</time>
      </trkpt>
      <trkpt lat="42.443456000" lon="-2.426804000">
        <ele>393.70</ele>
        <time>2016-10-22T08:53:28Z</time>
      </trkpt>
      <trkpt lat="42.443517000" lon="-2.426785000">
        <ele>393.60</ele>
        <time>2016-10-22T08:53:29Z</time>
      </trkpt>
      <trkpt lat="42.443579000" lon="-2.426764000">
        <ele>393.50</ele>
        <time>2016-10-22T08:53:30Z</time>
      </trkpt>
      <trkpt lat="42.443641000" lon="-2.426745000">
        <ele>393.60</ele>
        <time>2016-10-22T08:53:31Z</time>
      </trkpt>
      <trkpt lat="42.443700000" lon="-2.426731000">
        <ele>393.70</ele>
        <time>2016-10-22T08:53:32Z</time>
      </trkpt>
      <trkpt lat="42.443758000" lon="-2.426717000">
        <ele>393.80</ele>
        <time>2016-10-22T08:53:33Z</time>
      </trkpt>
      <trkpt lat="42.443814000" lon="-2.426700000">
        <ele>393.90</ele>
        <time>2016-10-22T08:53:34Z</time>
      </trkpt>
      <trkpt lat="42.443870000" lon="-2.426679000">
        <ele>393.70</ele>
        <time>2016-10-22T08:53:35Z</time>
      </trkpt>
      <trkpt lat="42.443924000" lon="-2.426656000">
        <ele>393.60</ele>
        <time>2016-10-22T08:53:36Z</time>
      </trkpt>
      <trkpt lat="42.443978000" lon="-2.426629000">
        <ele>393.40</ele>
        <time>2016-10-22T08:53:37Z</time>
      </trkpt>
      <trkpt lat="42.444028000" lon="-2.426589000">
        <ele>393.20</ele>
        <time>2016-10-22T08:53:38Z</time>
      </trkpt>
      <trkpt lat="42.444071000" lon="-2.426534000">
        <ele>393.20</ele>
        <time>2016-10-22T08:53:39Z</time>
      </trkpt>
      <trkpt lat="42.444108000" lon="-2.426469000">
        <ele>393.20</ele>
        <time>2016-10-22T08:53:40Z</time>
      </trkpt>
      <trkpt lat="42.444145000" lon="-2.426405000">
        <ele>393.20</ele>
        <time>2016-10-22T08:53:41Z</time>
      </trkpt>
      <trkpt lat="42.444181000" lon="-2.426340000">
        <ele>393.10</ele>
        <time>2016-10-22T08:53:42Z</time>
      </trkpt>
      <trkpt lat="42.444217000" lon="-2.426275000">
        <ele>393.10</ele>
        <time>2016-10-22T08:53:43Z</time>
      </trkpt>
      <trkpt lat="42.444251000" lon="-2.426209000">
        <ele>393.00</ele>
        <time>2016-10-22T08:53:44Z</time>
      </trkpt>
      <trkpt lat="42.444283000" lon="-2.426145000">
        <ele>393.00</ele>
        <time>2016-10-22T08:53:45Z</time>
      </trkpt>
      <trkpt lat="42.444302000" lon="-2.426076000">
        <ele>393.00</ele>
        <time>2016-10-22T08:53:46Z</time>
      </trkpt>
      <trkpt lat="42.444327000" lon="-2.426012000">
        <ele>392.90</ele>
        <time>2016-10-22T08:53:47Z</time>
      </trkpt>
      <trkpt lat="42.444353000" lon="-2.425948000">
        <ele>392.80</ele>
        <time>2016-10-22T08:53:48Z</time>
      </trkpt>
      <trkpt lat="42.444386000" lon="-2.425889000">
        <ele>392.70</ele>
        <time>2016-10-22T08:53:49Z</time>
      </trkpt>
      <trkpt lat="42.444426000" lon="-2.425835000">
        <ele>392.60</ele>
        <time>2016-10-22T08:53:50Z</time>
      </trkpt>
      <trkpt lat="42.444471000" lon="-2.425783000">
        <ele>392.60</ele>
        <time>2016-10-22T08:53:51Z</time>
      </trkpt>
      <trkpt lat="42.444518000" lon="-2.425732000">
        <ele>392.50</ele>
        <time>2016-10-22T08:53:52Z</time>
      </trkpt>
      <trkpt lat="42.444565000" lon="-2.425677000">
        <ele>392.40</ele>
        <time>2016-10-22T08:53:53Z</time>
      </trkpt>
      <trkpt lat="42.444612000" lon="-2.425621000">
        <ele>392.40</ele>
        <time>2016-10-22T08:53:54Z</time>
      </trkpt>
      <trkpt lat="42.444657000" lon="-2.425563000">
        <ele>392.10</ele>
        <time>2016-10-22T08:53:55Z</time>
      </trkpt>
      <trkpt lat="42.444704000" lon="-2.425504000">
        <ele>391.90</ele>
        <time>2016-10-22T08:53:56Z</time>
      </trkpt>
      <trkpt lat="42.444752000" lon="-2.425448000">
        <ele>391.70</ele>
        <time>2016-10-22T08:53:57Z</time>
      </trkpt>
      <trkpt lat="42.444809000" lon="-2.425409000">
        <ele>391.60</ele>
        <time>2016-10-22T08:53:58Z</time>
      </trkpt>
      <trkpt lat="42.444874000" lon="-2.425399000">
        <ele>391.40</ele>
        <time>2016-10-22T08:53:59Z</time>
      </trkpt>
      <trkpt lat="42.444931000" lon="-2.425400000">
        <ele>391.30</ele>
        <time>2016-10-22T08:54:00Z</time>
      </trkpt>
      <trkpt lat="42.444992000" lon="-2.425395000">
        <ele>391.30</ele>
        <time>2016-10-22T08:54:01Z</time>
      </trkpt>
      <trkpt lat="42.445051000" lon="-2.425387000">
        <ele>391.30</ele>
        <time>2016-10-22T08:54:02Z</time>
      </trkpt>
      <trkpt lat="42.445110000" lon="-2.425373000">
        <ele>391.30</ele>
        <time>2016-10-22T08:54:03Z</time>
      </trkpt>
      <trkpt lat="42.445169000" lon="-2.425355000">
        <ele>391.30</ele>
        <time>2016-10-22T08:54:04Z</time>
      </trkpt>
      <trkpt lat="42.445227000" lon="-2.425336000">
        <ele>391.30</ele>
        <time>2016-10-22T08:54:05Z</time>
      </trkpt>
      <trkpt lat="42.445283000" lon="-2.425314000">
        <ele>391.30</ele>
        <time>2016-10-22T08:54:06Z</time>
      </trkpt>
      <trkpt lat="42.445338000" lon="-2.425294000">
        <ele>391.50</ele>
        <time>2016-10-22T08:54:07Z</time>
      </trkpt>
      <trkpt lat="42.445395000" lon="-2.425271000">
        <ele>391.50</ele>
        <time>2016-10-22T08:54:08Z</time>
      </trkpt>
      <trkpt lat="42.445451000" lon="-2.425254000">
        <ele>391.60</ele>
        <time>2016-10-22T08:54:09Z</time>
      </trkpt>
      <trkpt lat="42.445507000" lon="-2.425236000">
        <ele>391.70</ele>
        <time>2016-10-22T08:54:10Z</time>
      </trkpt>
      <trkpt lat="42.445562000" lon="-2.425215000">
        <ele>391.70</ele>
        <time>2016-10-22T08:54:11Z</time>
      </trkpt>
      <trkpt lat="42.445620000" lon="-2.425194000">
        <ele>391.70</ele>
        <time>2016-10-22T08:54:12Z</time>
      </trkpt>
      <trkpt lat="42.445677000" lon="-2.425168000">
        <ele>391.70</ele>
        <time>2016-10-22T08:54:13Z</time>
      </trkpt>
      <trkpt lat="42.445734000" lon="-2.425139000">
        <ele>391.70</ele>
        <time>2016-10-22T08:54:14Z</time>
      </trkpt>
      <trkpt lat="42.445848000" lon="-2.425078000">
        <ele>391.60</ele>
        <time>2016-10-22T08:54:16Z</time>
      </trkpt>
      <trkpt lat="42.445903000" lon="-2.425048000">
        <ele>391.70</ele>
        <time>2016-10-22T08:54:17Z</time>
      </trkpt>
      <trkpt lat="42.445959000" lon="-2.425019000">
        <ele>391.80</ele>
        <time>2016-10-22T08:54:18Z</time>
      </trkpt>
      <trkpt lat="42.446015000" lon="-2.424989000">
        <ele>391.90</ele>
        <time>2016-10-22T08:54:19Z</time>
      </trkpt>
      <trkpt lat="42.446070000" lon="-2.424961000">
        <ele>392.00</ele>
        <time>2016-10-22T08:54:20Z</time>
      </trkpt>
      <trkpt lat="42.446125000" lon="-2.424937000">
        <ele>392.00</ele>
        <time>2016-10-22T08:54:21Z</time>
      </trkpt>
      <trkpt lat="42.446181000" lon="-2.424915000">
        <ele>392.00</ele>
        <time>2016-10-22T08:54:22Z</time>
      </trkpt>
      <trkpt lat="42.446239000" lon="-2.424894000">
        <ele>391.80</ele>
        <time>2016-10-22T08:54:23Z</time>
      </trkpt>
      <trkpt lat="42.446298000" lon="-2.424870000">
        <ele>391.70</ele>
        <time>2016-10-22T08:54:24Z</time>
      </trkpt>
      <trkpt lat="42.446355000" lon="-2.424849000">
        <ele>391.60</ele>
        <time>2016-10-22T08:54:25Z</time>
      </trkpt>
      <trkpt lat="42.446418000" lon="-2.424825000">
        <ele>391.50</ele>
        <time>2016-10-22T08:54:26Z</time>
      </trkpt>
      <trkpt lat="42.446479000" lon="-2.424797000">
        <ele>391.40</ele>
        <time>2016-10-22T08:54:27Z</time>
      </trkpt>
      <trkpt lat="42.446539000" lon="-2.424767000">
        <ele>391.30</ele>
        <time>2016-10-22T08:54:28Z</time>
      </trkpt>
      <trkpt lat="42.446595000" lon="-2.424737000">
        <ele>391.30</ele>
        <time>2016-10-22T08:54:29Z</time>
      </trkpt>
      <trkpt lat="42.446650000" lon="-2.424704000">
        <ele>391.20</ele>
        <time>2016-10-22T08:54:30Z</time>
      </trkpt>
      <trkpt lat="42.446708000" lon="-2.424667000">
        <ele>390.90</ele>
        <time>2016-10-22T08:54:31Z</time>
      </trkpt>
      <trkpt lat="42.446768000" lon="-2.424635000">
        <ele>390.70</ele>
        <time>2016-10-22T08:54:32Z</time>
      </trkpt>
      <trkpt lat="42.446833000" lon="-2.424609000">
        <ele>390.10</ele>
        <time>2016-10-22T08:54:33Z</time>
      </trkpt>
      <trkpt lat="42.446899000" lon="-2.424582000">
        <ele>389.70</ele>
        <time>2016-10-22T08:54:34Z</time>
      </trkpt>
      <trkpt lat="42.446965000" lon="-2.424557000">
        <ele>389.30</ele>
        <time>2016-10-22T08:54:35Z</time>
      </trkpt>
      <trkpt lat="42.447030000" lon="-2.424534000">
        <ele>389.10</ele>
        <time>2016-10-22T08:54:36Z</time>
      </trkpt>
      <trkpt lat="42.447093000" lon="-2.424521000">
        <ele>389.10</ele>
        <time>2016-10-22T08:54:37Z</time>
      </trkpt>
      <trkpt lat="42.447159000" lon="-2.424522000">
        <ele>389.10</ele>
        <time>2016-10-22T08:54:38Z</time>
      </trkpt>
      <trkpt lat="42.447224000" lon="-2.424541000">
        <ele>389.10</ele>
        <time>2016-10-22T08:54:39Z</time>
      </trkpt>
      <trkpt lat="42.447285000" lon="-2.424560000">
        <ele>389.10</ele>
        <time>2016-10-22T08:54:40Z</time>
      </trkpt>
      <trkpt lat="42.447347000" lon="-2.424567000">
        <ele>389.00</ele>
        <time>2016-10-22T08:54:41Z</time>
      </trkpt>
      <trkpt lat="42.447409000" lon="-2.424565000">
        <ele>389.00</ele>
        <time>2016-10-22T08:54:42Z</time>
      </trkpt>
      <trkpt lat="42.447473000" lon="-2.424556000">
        <ele>388.80</ele>
        <time>2016-10-22T08:54:43Z</time>
      </trkpt>
      <trkpt lat="42.447542000" lon="-2.424545000">
        <ele>388.70</ele>
        <time>2016-10-22T08:54:44Z</time>
      </trkpt>
      <trkpt lat="42.447612000" lon="-2.424530000">
        <ele>388.60</ele>
        <time>2016-10-22T08:54:45Z</time>
      </trkpt>
      <trkpt lat="42.447680000" lon="-2.424513000">
        <ele>388.60</ele>
        <time>2016-10-22T08:54:46Z</time>
      </trkpt>
      <trkpt lat="42.447745000" lon="-2.424490000">
        <ele>388.30</ele>
        <time>2016-10-22T08:54:47Z</time>
      </trkpt>
      <trkpt lat="42.447810000" lon="-2.424465000">
        <ele>388.10</ele>
        <time>2016-10-22T08:54:48Z</time>
      </trkpt>
      <trkpt lat="42.447881000" lon="-2.424446000">
        <ele>388.00</ele>
        <time>2016-10-22T08:54:49Z</time>
      </trkpt>
      <trkpt lat="42.447950000" lon="-2.424426000">
        <ele>387.90</ele>
        <time>2016-10-22T08:54:50Z</time>
      </trkpt>
      <trkpt lat="42.448018000" lon="-2.424397000">
        <ele>387.90</ele>
        <time>2016-10-22T08:54:51Z</time>
      </trkpt>
      <trkpt lat="42.448072000" lon="-2.424358000">
        <ele>387.90</ele>
        <time>2016-10-22T08:54:52Z</time>
      </trkpt>
      <trkpt lat="42.448122000" lon="-2.424314000">
        <ele>387.90</ele>
        <time>2016-10-22T08:54:53Z</time>
      </trkpt>
      <trkpt lat="42.448171000" lon="-2.424289000">
        <ele>387.90</ele>
        <time>2016-10-22T08:54:54Z</time>
      </trkpt>
      <trkpt lat="42.448222000" lon="-2.424264000">
        <ele>387.80</ele>
        <time>2016-10-22T08:54:55Z</time>
      </trkpt>
      <trkpt lat="42.448273000" lon="-2.424238000">
        <ele>387.80</ele>
        <time>2016-10-22T08:54:56Z</time>
      </trkpt>
      <trkpt lat="42.448326000" lon="-2.424204000">
        <ele>387.80</ele>
        <time>2016-10-22T08:54:57Z</time>
      </trkpt>
      <trkpt lat="42.448380000" lon="-2.424167000">
        <ele>387.80</ele>
        <time>2016-10-22T08:54:58Z</time>
      </trkpt>
      <trkpt lat="42.448440000" lon="-2.424129000">
        <ele>387.80</ele>
        <time>2016-10-22T08:54:59Z</time>
      </trkpt>
      <trkpt lat="42.448504000" lon="-2.424092000">
        <ele>387.80</ele>
        <time>2016-10-22T08:55:00Z</time>
      </trkpt>
      <trkpt lat="42.448568000" lon="-2.424065000">
        <ele>387.80</ele>
        <time>2016-10-22T08:55:01Z</time>
      </trkpt>
      <trkpt lat="42.448631000" lon="-2.424043000">
        <ele>387.80</ele>
        <time>2016-10-22T08:55:02Z</time>
      </trkpt>
      <trkpt lat="42.448695000" lon="-2.424020000">
        <ele>387.70</ele>
        <time>2016-10-22T08:55:03Z</time>
      </trkpt>
      <trkpt lat="42.448750000" lon="-2.424000000">
        <ele>387.70</ele>
        <time>2016-10-22T08:55:04Z</time>
      </trkpt>
      <trkpt lat="42.448788000" lon="-2.423981000">
        <ele>387.60</ele>
        <time>2016-10-22T08:55:05Z</time>
      </trkpt>
      <trkpt lat="42.448835000" lon="-2.423954000">
        <ele>387.60</ele>
        <time>2016-10-22T08:55:06Z</time>
      </trkpt>
      <trkpt lat="42.448885000" lon="-2.423929000">
        <ele>387.40</ele>
        <time>2016-10-22T08:55:07Z</time>
      </trkpt>
      <trkpt lat="42.448932000" lon="-2.423906000">
        <ele>387.20</ele>
        <time>2016-10-22T08:55:08Z</time>
      </trkpt>
      <trkpt lat="42.448986000" lon="-2.423884000">
        <ele>387.10</ele>
        <time>2016-10-22T08:55:09Z</time>
      </trkpt>
      <trkpt lat="42.449044000" lon="-2.423860000">
        <ele>387.00</ele>
        <time>2016-10-22T08:55:10Z</time>
      </trkpt>
      <trkpt lat="42.449102000" lon="-2.423833000">
        <ele>387.00</ele>
        <time>2016-10-22T08:55:11Z</time>
      </trkpt>
      <trkpt lat="42.449159000" lon="-2.423805000">
        <ele>387.00</ele>
        <time>2016-10-22T08:55:12Z</time>
      </trkpt>
      <trkpt lat="42.449219000" lon="-2.423769000">
        <ele>387.10</ele>
        <time>2016-10-22T08:55:13Z</time>
      </trkpt>
      <trkpt lat="42.449272000" lon="-2.423728000">
        <ele>387.10</ele>
        <time>2016-10-22T08:55:14Z</time>
      </trkpt>
      <trkpt lat="42.449326000" lon="-2.423674000">
        <ele>387.10</ele>
        <time>2016-10-22T08:55:15Z</time>
      </trkpt>
      <trkpt lat="42.449422000" lon="-2.423566000">
        <ele>387.20</ele>
        <time>2016-10-22T08:55:17Z</time>
      </trkpt>
      <trkpt lat="42.449468000" lon="-2.423510000">
        <ele>387.20</ele>
        <time>2016-10-22T08:55:18Z</time>
      </trkpt>
      <trkpt lat="42.449516000" lon="-2.423454000">
        <ele>387.10</ele>
        <time>2016-10-22T08:55:19Z</time>
      </trkpt>
      <trkpt lat="42.449565000" lon="-2.423401000">
        <ele>387.10</ele>
        <time>2016-10-22T08:55:20Z</time>
      </trkpt>
      <trkpt lat="42.449618000" lon="-2.423347000">
        <ele>387.10</ele>
        <time>2016-10-22T08:55:21Z</time>
      </trkpt>
      <trkpt lat="42.449674000" lon="-2.423294000">
        <ele>387.00</ele>
        <time>2016-10-22T08:55:22Z</time>
      </trkpt>
      <trkpt lat="42.449734000" lon="-2.423250000">
        <ele>387.00</ele>
        <time>2016-10-22T08:55:23Z</time>
      </trkpt>
      <trkpt lat="42.449790000" lon="-2.423210000">
        <ele>386.90</ele>
        <time>2016-10-22T08:55:24Z</time>
      </trkpt>
      <trkpt lat="42.449849000" lon="-2.423168000">
        <ele>386.90</ele>
        <time>2016-10-22T08:55:25Z</time>
      </trkpt>
      <trkpt lat="42.449905000" lon="-2.423128000">
        <ele>386.80</ele>
        <time>2016-10-22T08:55:26Z</time>
      </trkpt>
      <trkpt lat="42.449962000" lon="-2.423084000">
        <ele>386.80</ele>
        <time>2016-10-22T08:55:27Z</time>
      </trkpt>
      <trkpt lat="42.450020000" lon="-2.423045000">
        <ele>386.80</ele>
        <time>2016-10-22T08:55:28Z</time>
      </trkpt>
      <trkpt lat="42.450077000" lon="-2.423002000">
        <ele>386.80</ele>
        <time>2016-10-22T08:55:29Z</time>
      </trkpt>
      <trkpt lat="42.450132000" lon="-2.422960000">
        <ele>386.80</ele>
        <time>2016-10-22T08:55:30Z</time>
      </trkpt>
      <trkpt lat="42.450189000" lon="-2.422920000">
        <ele>386.70</ele>
        <time>2016-10-22T08:55:31Z</time>
      </trkpt>
      <trkpt lat="42.450245000" lon="-2.422881000">
        <ele>386.60</ele>
        <time>2016-10-22T08:55:32Z</time>
      </trkpt>
      <trkpt lat="42.450302000" lon="-2.422846000">
        <ele>386.60</ele>
        <time>2016-10-22T08:55:33Z</time>
      </trkpt>
      <trkpt lat="42.450354000" lon="-2.422810000">
        <ele>386.60</ele>
        <time>2016-10-22T08:55:34Z</time>
      </trkpt>
      <trkpt lat="42.450401000" lon="-2.422763000">
        <ele>386.60</ele>
        <time>2016-10-22T08:55:35Z</time>
      </trkpt>
      <trkpt lat="42.450439000" lon="-2.422708000">
        <ele>386.60</ele>
        <time>2016-10-22T08:55:36Z</time>
      </trkpt>
      <trkpt lat="42.450472000" lon="-2.422647000">
        <ele>386.70</ele>
        <time>2016-10-22T08:55:37Z</time>
      </trkpt>
      <trkpt lat="42.450506000" lon="-2.422577000">
        <ele>386.70</ele>
        <time>2016-10-22T08:55:38Z</time>
      </trkpt>
      <trkpt lat="42.450547000" lon="-2.422511000">
        <ele>386.20</ele>
        <time>2016-10-22T08:55:39Z</time>
      </trkpt>
      <trkpt lat="42.450599000" lon="-2.422458000">
        <ele>385.90</ele>
        <time>2016-10-22T08:55:40Z</time>
      </trkpt>
      <trkpt lat="42.450658000" lon="-2.422413000">
        <ele>385.50</ele>
        <time>2016-10-22T08:55:41Z</time>
      </trkpt>
      <trkpt lat="42.450720000" lon="-2.422376000">
        <ele>385.10</ele>
        <time>2016-10-22T08:55:42Z</time>
      </trkpt>
      <trkpt lat="42.450784000" lon="-2.422340000">
        <ele>384.90</ele>
        <time>2016-10-22T08:55:43Z</time>
      </trkpt>
      <trkpt lat="42.450843000" lon="-2.422300000">
        <ele>384.70</ele>
        <time>2016-10-22T08:55:44Z</time>
      </trkpt>
      <trkpt lat="42.450900000" lon="-2.422247000">
        <ele>384.70</ele>
        <time>2016-10-22T08:55:45Z</time>
      </trkpt>
      <trkpt lat="42.450950000" lon="-2.422187000">
        <ele>384.80</ele>
        <time>2016-10-22T08:55:46Z</time>
      </trkpt>
      <trkpt lat="42.450990000" lon="-2.422120000">
        <ele>384.80</ele>
        <time>2016-10-22T08:55:47Z</time>
      </trkpt>
      <trkpt lat="42.451028000" lon="-2.422061000">
        <ele>384.80</ele>
        <time>2016-10-22T08:55:48Z</time>
      </trkpt>
      <trkpt lat="42.451051000" lon="-2.421997000">
        <ele>384.80</ele>
        <time>2016-10-22T08:55:49Z</time>
      </trkpt>
      <trkpt lat="42.451080000" lon="-2.421939000">
        <ele>384.90</ele>
        <time>2016-10-22T08:55:50Z</time>
      </trkpt>
      <trkpt lat="42.451119000" lon="-2.421878000">
        <ele>384.90</ele>
        <time>2016-10-22T08:55:51Z</time>
      </trkpt>
      <trkpt lat="42.451170000" lon="-2.421825000">
        <ele>384.90</ele>
        <time>2016-10-22T08:55:52Z</time>
      </trkpt>
      <trkpt lat="42.451226000" lon="-2.421779000">
        <ele>384.80</ele>
        <time>2016-10-22T08:55:53Z</time>
      </trkpt>
      <trkpt lat="42.451280000" lon="-2.421733000">
        <ele>384.70</ele>
        <time>2016-10-22T08:55:54Z</time>
      </trkpt>
      <trkpt lat="42.451328000" lon="-2.421674000">
        <ele>384.30</ele>
        <time>2016-10-22T08:55:55Z</time>
      </trkpt>
      <trkpt lat="42.451372000" lon="-2.421614000">
        <ele>383.90</ele>
        <time>2016-10-22T08:55:56Z</time>
      </trkpt>
      <trkpt lat="42.451413000" lon="-2.421545000">
        <ele>383.60</ele>
        <time>2016-10-22T08:55:57Z</time>
      </trkpt>
      <trkpt lat="42.451454000" lon="-2.421468000">
        <ele>383.40</ele>
        <time>2016-10-22T08:55:58Z</time>
      </trkpt>
      <trkpt lat="42.451497000" lon="-2.421386000">
        <ele>383.30</ele>
        <time>2016-10-22T08:55:59Z</time>
      </trkpt>
      <trkpt lat="42.451542000" lon="-2.421307000">
        <ele>383.20</ele>
        <time>2016-10-22T08:56:00Z</time>
      </trkpt>
      <trkpt lat="42.451589000" lon="-2.421234000">
        <ele>383.10</ele>
        <time>2016-10-22T08:56:01Z</time>
      </trkpt>
      <trkpt lat="42.451634000" lon="-2.421159000">
        <ele>383.00</ele>
        <time>2016-10-22T08:56:02Z</time>
      </trkpt>
      <trkpt lat="42.451677000" lon="-2.421085000">
        <ele>383.00</ele>
        <time>2016-10-22T08:56:03Z</time>
      </trkpt>
      <trkpt lat="42.451716000" lon="-2.421009000">
        <ele>382.50</ele>
        <time>2016-10-22T08:56:04Z</time>
      </trkpt>
      <trkpt lat="42.451745000" lon="-2.420946000">
        <ele>382.10</ele>
        <time>2016-10-22T08:56:05Z</time>
      </trkpt>
      <trkpt lat="42.451764000" lon="-2.420895000">
        <ele>381.80</ele>
        <time>2016-10-22T08:56:06Z</time>
      </trkpt>
      <trkpt lat="42.451777000" lon="-2.420853000">
        <ele>381.60</ele>
        <time>2016-10-22T08:56:07Z</time>
      </trkpt>
      <trkpt lat="42.451784000" lon="-2.420811000">
        <ele>381.70</ele>
        <time>2016-10-22T08:56:08Z</time>
      </trkpt>
      <trkpt lat="42.451795000" lon="-2.420774000">
        <ele>381.80</ele>
        <time>2016-10-22T08:56:09Z</time>
      </trkpt>
      <trkpt lat="42.451804000" lon="-2.420748000">
        <ele>381.80</ele>
        <time>2016-10-22T08:56:10Z</time>
      </trkpt>
      <trkpt lat="42.451829000" lon="-2.420729000">
        <ele>381.80</ele>
        <time>2016-10-22T08:56:11Z</time>
      </trkpt>
      <trkpt lat="42.451863000" lon="-2.420718000">
        <ele>381.90</ele>
        <time>2016-10-22T08:56:12Z</time>
      </trkpt>
      <trkpt lat="42.451898000" lon="-2.420712000">
        <ele>381.90</ele>
        <time>2016-10-22T08:56:13Z</time>
      </trkpt>
      <trkpt lat="42.451939000" lon="-2.420718000">
        <ele>381.80</ele>
        <time>2016-10-22T08:56:14Z</time>
      </trkpt>
      <trkpt lat="42.451974000" lon="-2.420728000">
        <ele>381.80</ele>
        <time>2016-10-22T08:56:15Z</time>
      </trkpt>
      <trkpt lat="42.452010000" lon="-2.420733000">
        <ele>381.80</ele>
        <time>2016-10-22T08:56:16Z</time>
      </trkpt>
      <trkpt lat="42.452048000" lon="-2.420729000">
        <ele>381.70</ele>
        <time>2016-10-22T08:56:18Z</time>
      </trkpt>
      <trkpt lat="42.452059000" lon="-2.420730000">
        <ele>381.70</ele>
        <time>2016-10-22T08:56:19Z</time>
      </trkpt>
      <trkpt lat="42.452076000" lon="-2.420727000">
        <ele>381.70</ele>
        <time>2016-10-22T08:56:20Z</time>
      </trkpt>
      <trkpt lat="42.452088000" lon="-2.420728000">
        <ele>381.70</ele>
        <time>2016-10-22T08:56:21Z</time>
      </trkpt>
      <trkpt lat="42.452105000" lon="-2.420731000">
        <ele>381.70</ele>
        <time>2016-10-22T08:56:22Z</time>
      </trkpt>
      <trkpt lat="42.452119000" lon="-2.420740000">
        <ele>381.70</ele>
        <time>2016-10-22T08:56:23Z</time>
      </trkpt>
      <trkpt lat="42.452138000" lon="-2.420749000">
        <ele>381.80</ele>
        <time>2016-10-22T08:56:24Z</time>
      </trkpt>
      <trkpt lat="42.452156000" lon="-2.420759000">
        <ele>381.80</ele>
        <time>2016-10-22T08:56:25Z</time>
      </trkpt>
      <trkpt lat="42.452173000" lon="-2.420770000">
        <ele>381.80</ele>
        <time>2016-10-22T08:56:26Z</time>
      </trkpt>
      <trkpt lat="42.452187000" lon="-2.420779000">
        <ele>381.90</ele>
        <time>2016-10-22T08:56:27Z</time>
      </trkpt>
      <trkpt lat="42.452203000" lon="-2.420791000">
        <ele>381.90</ele>
        <time>2016-10-22T08:56:28Z</time>
      </trkpt>
      <trkpt lat="42.452227000" lon="-2.420792000">
        <ele>381.90</ele>
        <time>2016-10-22T08:56:29Z</time>
      </trkpt>
      <trkpt lat="42.452255000" lon="-2.420779000">
        <ele>381.90</ele>
        <time>2016-10-22T08:56:30Z</time>
      </trkpt>
      <trkpt lat="42.452287000" lon="-2.420767000">
        <ele>381.90</ele>
        <time>2016-10-22T08:56:31Z</time>
      </trkpt>
      <trkpt lat="42.452326000" lon="-2.420753000">
        <ele>381.90</ele>
        <time>2016-10-22T08:56:32Z</time>
      </trkpt>
      <trkpt lat="42.452370000" lon="-2.420740000">
        <ele>382.00</ele>
        <time>2016-10-22T08:56:33Z</time>
      </trkpt>
      <trkpt lat="42.452416000" lon="-2.420725000">
        <ele>382.00</ele>
        <time>2016-10-22T08:56:34Z</time>
      </trkpt>
      <trkpt lat="42.452462000" lon="-2.420710000">
        <ele>381.90</ele>
        <time>2016-10-22T08:56:35Z</time>
      </trkpt>
      <trkpt lat="42.452510000" lon="-2.420699000">
        <ele>381.80</ele>
        <time>2016-10-22T08:56:36Z</time>
      </trkpt>
      <trkpt lat="42.452557000" lon="-2.420688000">
        <ele>381.70</ele>
        <time>2016-10-22T08:56:37Z</time>
      </trkpt>
      <trkpt lat="42.452606000" lon="-2.420676000">
        <ele>381.50</ele>
        <time>2016-10-22T08:56:38Z</time>
      </trkpt>
      <trkpt lat="42.452656000" lon="-2.420668000">
        <ele>381.40</ele>
        <time>2016-10-22T08:56:39Z</time>
      </trkpt>
      <trkpt lat="42.452705000" lon="-2.420672000">
        <ele>381.40</ele>
        <time>2016-10-22T08:56:40Z</time>
      </trkpt>
      <trkpt lat="42.452748000" lon="-2.420673000">
        <ele>381.40</ele>
        <time>2016-10-22T08:56:41Z</time>
      </trkpt>
      <trkpt lat="42.452793000" lon="-2.420669000">
        <ele>381.40</ele>
        <time>2016-10-22T08:56:42Z</time>
      </trkpt>
      <trkpt lat="42.452842000" lon="-2.420661000">
        <ele>381.40</ele>
        <time>2016-10-22T08:56:43Z</time>
      </trkpt>
      <trkpt lat="42.452886000" lon="-2.420645000">
        <ele>381.40</ele>
        <time>2016-10-22T08:56:44Z</time>
      </trkpt>
      <trkpt lat="42.452931000" lon="-2.420623000">
        <ele>381.50</ele>
        <time>2016-10-22T08:56:45Z</time>
      </trkpt>
      <trkpt lat="42.452974000" lon="-2.420606000">
        <ele>381.40</ele>
        <time>2016-10-22T08:56:46Z</time>
      </trkpt>
      <trkpt lat="42.453018000" lon="-2.420578000">
        <ele>381.40</ele>
        <time>2016-10-22T08:56:47Z</time>
      </trkpt>
      <trkpt lat="42.453063000" lon="-2.420550000">
        <ele>381.20</ele>
        <time>2016-10-22T08:56:48Z</time>
      </trkpt>
      <trkpt lat="42.453107000" lon="-2.420521000">
        <ele>381.00</ele>
        <time>2016-10-22T08:56:49Z</time>
      </trkpt>
      <trkpt lat="42.453147000" lon="-2.420489000">
        <ele>380.80</ele>
        <time>2016-10-22T08:56:50Z</time>
      </trkpt>
      <trkpt lat="42.453184000" lon="-2.420458000">
        <ele>380.60</ele>
        <time>2016-10-22T08:56:51Z</time>
      </trkpt>
      <trkpt lat="42.453222000" lon="-2.420426000">
        <ele>380.50</ele>
        <time>2016-10-22T08:56:52Z</time>
      </trkpt>
      <trkpt lat="42.453261000" lon="-2.420393000">
        <ele>380.40</ele>
        <time>2016-10-22T08:56:53Z</time>
      </trkpt>
      <trkpt lat="42.453296000" lon="-2.420349000">
        <ele>380.20</ele>
        <time>2016-10-22T08:56:54Z</time>
      </trkpt>
      <trkpt lat="42.453331000" lon="-2.420309000">
        <ele>380.10</ele>
        <time>2016-10-22T08:56:55Z</time>
      </trkpt>
      <trkpt lat="42.453368000" lon="-2.420267000">
        <ele>380.00</ele>
        <time>2016-10-22T08:56:56Z</time>
      </trkpt>
      <trkpt lat="42.453404000" lon="-2.420220000">
        <ele>379.80</ele>
        <time>2016-10-22T08:56:57Z</time>
      </trkpt>
      <trkpt lat="42.453444000" lon="-2.420176000">
        <ele>379.70</ele>
        <time>2016-10-22T08:56:58Z</time>
      </trkpt>
      <trkpt lat="42.453483000" lon="-2.420128000">
        <ele>379.50</ele>
        <time>2016-10-22T08:56:59Z</time>
      </trkpt>
      <trkpt lat="42.453522000" lon="-2.420080000">
        <ele>379.30</ele>
        <time>2016-10-22T08:57:00Z</time>
      </trkpt>
      <trkpt lat="42.453561000" lon="-2.420030000">
        <ele>379.10</ele>
        <time>2016-10-22T08:57:01Z</time>
      </trkpt>
      <trkpt lat="42.453599000" lon="-2.419978000">
        <ele>379.00</ele>
        <time>2016-10-22T08:57:02Z</time>
      </trkpt>
      <trkpt lat="42.453634000" lon="-2.419922000">
        <ele>379.00</ele>
        <time>2016-10-22T08:57:03Z</time>
      </trkpt>
      <trkpt lat="42.453664000" lon="-2.419863000">
        <ele>379.00</ele>
        <time>2016-10-22T08:57:04Z</time>
      </trkpt>
      <trkpt lat="42.453692000" lon="-2.419804000">
        <ele>379.10</ele>
        <time>2016-10-22T08:57:05Z</time>
      </trkpt>
      <trkpt lat="42.453720000" lon="-2.419744000">
        <ele>379.10</ele>
        <time>2016-10-22T08:57:06Z</time>
      </trkpt>
      <trkpt lat="42.453747000" lon="-2.419685000">
        <ele>379.20</ele>
        <time>2016-10-22T08:57:07Z</time>
      </trkpt>
      <trkpt lat="42.453781000" lon="-2.419630000">
        <ele>379.20</ele>
        <time>2016-10-22T08:57:08Z</time>
      </trkpt>
      <trkpt lat="42.453815000" lon="-2.419576000">
        <ele>379.20</ele>
        <time>2016-10-22T08:57:09Z</time>
      </trkpt>
      <trkpt lat="42.453856000" lon="-2.419535000">
        <ele>379.20</ele>
        <time>2016-10-22T08:57:10Z</time>
      </trkpt>
      <trkpt lat="42.453901000" lon="-2.419508000">
        <ele>379.30</ele>
        <time>2016-10-22T08:57:11Z</time>
      </trkpt>
      <trkpt lat="42.453950000" lon="-2.419486000">
        <ele>379.40</ele>
        <time>2016-10-22T08:57:12Z</time>
      </trkpt>
      <trkpt lat="42.453999000" lon="-2.419464000">
        <ele>379.30</ele>
        <time>2016-10-22T08:57:13Z</time>
      </trkpt>
      <trkpt lat="42.454048000" lon="-2.419449000">
        <ele>379.30</ele>
        <time>2016-10-22T08:57:14Z</time>
      </trkpt>
      <trkpt lat="42.454099000" lon="-2.419433000">
        <ele>379.20</ele>
        <time>2016-10-22T08:57:15Z</time>
      </trkpt>
      <trkpt lat="42.454152000" lon="-2.419415000">
        <ele>379.10</ele>
        <time>2016-10-22T08:57:16Z</time>
      </trkpt>
      <trkpt lat="42.454204000" lon="-2.419393000">
        <ele>379.00</ele>
        <time>2016-10-22T08:57:17Z</time>
      </trkpt>
      <trkpt lat="42.454307000" lon="-2.419355000">
        <ele>378.90</ele>
        <time>2016-10-22T08:57:19Z</time>
      </trkpt>
      <trkpt lat="42.454358000" lon="-2.419337000">
        <ele>378.80</ele>
        <time>2016-10-22T08:57:20Z</time>
      </trkpt>
      <trkpt lat="42.454409000" lon="-2.419317000">
        <ele>379.00</ele>
        <time>2016-10-22T08:57:21Z</time>
      </trkpt>
      <trkpt lat="42.454461000" lon="-2.419298000">
        <ele>379.00</ele>
        <time>2016-10-22T08:57:22Z</time>
      </trkpt>
      <trkpt lat="42.454510000" lon="-2.419277000">
        <ele>379.10</ele>
        <time>2016-10-22T08:57:23Z</time>
      </trkpt>
      <trkpt lat="42.454561000" lon="-2.419253000">
        <ele>379.10</ele>
        <time>2016-10-22T08:57:24Z</time>
      </trkpt>
      <trkpt lat="42.454610000" lon="-2.419227000">
        <ele>379.20</ele>
        <time>2016-10-22T08:57:25Z</time>
      </trkpt>
      <trkpt lat="42.454657000" lon="-2.419196000">
        <ele>379.00</ele>
        <time>2016-10-22T08:57:26Z</time>
      </trkpt>
      <trkpt lat="42.454704000" lon="-2.419164000">
        <ele>378.90</ele>
        <time>2016-10-22T08:57:27Z</time>
      </trkpt>
      <trkpt lat="42.454750000" lon="-2.419129000">
        <ele>378.70</ele>
        <time>2016-10-22T08:57:28Z</time>
      </trkpt>
      <trkpt lat="42.454794000" lon="-2.419090000">
        <ele>378.60</ele>
        <time>2016-10-22T08:57:29Z</time>
      </trkpt>
      <trkpt lat="42.454837000" lon="-2.419048000">
        <ele>378.40</ele>
        <time>2016-10-22T08:57:30Z</time>
      </trkpt>
      <trkpt lat="42.454875000" lon="-2.419000000">
        <ele>378.30</ele>
        <time>2016-10-22T08:57:31Z</time>
      </trkpt>
      <trkpt lat="42.454908000" lon="-2.418945000">
        <ele>378.20</ele>
        <time>2016-10-22T08:57:32Z</time>
      </trkpt>
      <trkpt lat="42.454941000" lon="-2.418889000">
        <ele>378.20</ele>
        <time>2016-10-22T08:57:33Z</time>
      </trkpt>
      <trkpt lat="42.454980000" lon="-2.418835000">
        <ele>378.00</ele>
        <time>2016-10-22T08:57:34Z</time>
      </trkpt>
      <trkpt lat="42.455025000" lon="-2.418791000">
        <ele>378.00</ele>
        <time>2016-10-22T08:57:35Z</time>
      </trkpt>
      <trkpt lat="42.455072000" lon="-2.418753000">
        <ele>377.80</ele>
        <time>2016-10-22T08:57:36Z</time>
      </trkpt>
      <trkpt lat="42.455125000" lon="-2.418728000">
        <ele>377.60</ele>
        <time>2016-10-22T08:57:37Z</time>
      </trkpt>
      <trkpt lat="42.455177000" lon="-2.418694000">
        <ele>377.50</ele>
        <time>2016-10-22T08:57:38Z</time>
      </trkpt>
      <trkpt lat="42.455227000" lon="-2.418656000">
        <ele>377.40</ele>
        <time>2016-10-22T08:57:39Z</time>
      </trkpt>
      <trkpt lat="42.455275000" lon="-2.418623000">
        <ele>377.40</ele>
        <time>2016-10-22T08:57:40Z</time>
      </trkpt>
      <trkpt lat="42.455318000" lon="-2.418591000">
        <ele>377.30</ele>
        <time>2016-10-22T08:57:41Z</time>
      </trkpt>
      <trkpt lat="42.455361000" lon="-2.418563000">
        <ele>377.30</ele>
        <time>2016-10-22T08:57:42Z</time>
      </trkpt>
      <trkpt lat="42.455405000" lon="-2.418532000">
        <ele>377.30</ele>
        <time>2016-10-22T08:57:43Z</time>
      </trkpt>
      <trkpt lat="42.455447000" lon="-2.418496000">
        <ele>377.20</ele>
        <time>2016-10-22T08:57:44Z</time>
      </trkpt>
      <trkpt lat="42.455488000" lon="-2.418460000">
        <ele>377.20</ele>
        <time>2016-10-22T08:57:45Z</time>
      </trkpt>
      <trkpt lat="42.455532000" lon="-2.418425000">
        <ele>377.20</ele>
        <time>2016-10-22T08:57:46Z</time>
      </trkpt>
      <trkpt lat="42.455578000" lon="-2.418398000">
        <ele>377.20</ele>
        <time>2016-10-22T08:57:47Z</time>
      </trkpt>
      <trkpt lat="42.455624000" lon="-2.418381000">
        <ele>377.30</ele>
        <time>2016-10-22T08:57:48Z</time>
      </trkpt>
      <trkpt lat="42.455662000" lon="-2.418377000">
        <ele>377.40</ele>
        <time>2016-10-22T08:57:49Z</time>
      </trkpt>
      <trkpt lat="42.455692000" lon="-2.418374000">
        <ele>377.40</ele>
        <time>2016-10-22T08:57:50Z</time>
      </trkpt>
      <trkpt lat="42.455724000" lon="-2.418376000">
        <ele>377.50</ele>
        <time>2016-10-22T08:57:51Z</time>
      </trkpt>
      <trkpt lat="42.455766000" lon="-2.418368000">
        <ele>377.50</ele>
        <time>2016-10-22T08:57:52Z</time>
      </trkpt>
      <trkpt lat="42.455807000" lon="-2.418345000">
        <ele>377.50</ele>
        <time>2016-10-22T08:57:53Z</time>
      </trkpt>
      <trkpt lat="42.455852000" lon="-2.418312000">
        <ele>377.40</ele>
        <time>2016-10-22T08:57:54Z</time>
      </trkpt>
      <trkpt lat="42.455900000" lon="-2.418277000">
        <ele>377.20</ele>
        <time>2016-10-22T08:57:55Z</time>
      </trkpt>
      <trkpt lat="42.455949000" lon="-2.418241000">
        <ele>377.10</ele>
        <time>2016-10-22T08:57:56Z</time>
      </trkpt>
      <trkpt lat="42.456002000" lon="-2.418215000">
        <ele>376.90</ele>
        <time>2016-10-22T08:57:57Z</time>
      </trkpt>
      <trkpt lat="42.456060000" lon="-2.418196000">
        <ele>376.90</ele>
        <time>2016-10-22T08:57:58Z</time>
      </trkpt>
      <trkpt lat="42.456117000" lon="-2.418177000">
        <ele>376.90</ele>
        <time>2016-10-22T08:57:59Z</time>
      </trkpt>
      <trkpt lat="42.456171000" lon="-2.418158000">
        <ele>376.90</ele>
        <time>2016-10-22T08:58:00Z</time>
      </trkpt>
      <trkpt lat="42.456223000" lon="-2.418141000">
        <ele>376.90</ele>
        <time>2016-10-22T08:58:01Z</time>
      </trkpt>
      <trkpt lat="42.456276000" lon="-2.418121000">
        <ele>376.90</ele>
        <time>2016-10-22T08:58:02Z</time>
      </trkpt>
      <trkpt lat="42.456328000" lon="-2.418102000">
        <ele>377.00</ele>
        <time>2016-10-22T08:58:03Z</time>
      </trkpt>
      <trkpt lat="42.456379000" lon="-2.418083000">
        <ele>376.90</ele>
        <time>2016-10-22T08:58:04Z</time>
      </trkpt>
      <trkpt lat="42.456425000" lon="-2.418065000">
        <ele>376.90</ele>
        <time>2016-10-22T08:58:05Z</time>
      </trkpt>
      <trkpt lat="42.456469000" lon="-2.418044000">
        <ele>376.90</ele>
        <time>2016-10-22T08:58:06Z</time>
      </trkpt>
      <trkpt lat="42.456517000" lon="-2.418021000">
        <ele>376.90</ele>
        <time>2016-10-22T08:58:07Z</time>
      </trkpt>
      <trkpt lat="42.456564000" lon="-2.417996000">
        <ele>376.80</ele>
        <time>2016-10-22T08:58:08Z</time>
      </trkpt>
      <trkpt lat="42.456615000" lon="-2.417969000">
        <ele>376.80</ele>
        <time>2016-10-22T08:58:09Z</time>
      </trkpt>
      <trkpt lat="42.456666000" lon="-2.417939000">
        <ele>376.60</ele>
        <time>2016-10-22T08:58:10Z</time>
      </trkpt>
      <trkpt lat="42.456715000" lon="-2.417902000">
        <ele>376.50</ele>
        <time>2016-10-22T08:58:11Z</time>
      </trkpt>
      <trkpt lat="42.456762000" lon="-2.417863000">
        <ele>376.60</ele>
        <time>2016-10-22T08:58:12Z</time>
      </trkpt>
      <trkpt lat="42.456809000" lon="-2.417821000">
        <ele>376.60</ele>
        <time>2016-10-22T08:58:13Z</time>
      </trkpt>
      <trkpt lat="42.456856000" lon="-2.417780000">
        <ele>376.40</ele>
        <time>2016-10-22T08:58:14Z</time>
      </trkpt>
      <trkpt lat="42.456902000" lon="-2.417743000">
        <ele>376.30</ele>
        <time>2016-10-22T08:58:15Z</time>
      </trkpt>
      <trkpt lat="42.456947000" lon="-2.417711000">
        <ele>376.10</ele>
        <time>2016-10-22T08:58:16Z</time>
      </trkpt>
      <trkpt lat="42.456991000" lon="-2.417675000">
        <ele>376.00</ele>
        <time>2016-10-22T08:58:17Z</time>
      </trkpt>
      <trkpt lat="42.457032000" lon="-2.417640000">
        <ele>375.90</ele>
        <time>2016-10-22T08:58:18Z</time>
      </trkpt>
      <trkpt lat="42.457107000" lon="-2.417559000">
        <ele>375.80</ele>
        <time>2016-10-22T08:58:20Z</time>
      </trkpt>
      <trkpt lat="42.457145000" lon="-2.417513000">
        <ele>375.80</ele>
        <time>2016-10-22T08:58:21Z</time>
      </trkpt>
      <trkpt lat="42.457181000" lon="-2.417466000">
        <ele>375.70</ele>
        <time>2016-10-22T08:58:22Z</time>
      </trkpt>
      <trkpt lat="42.457218000" lon="-2.417410000">
        <ele>375.70</ele>
        <time>2016-10-22T08:58:23Z</time>
      </trkpt>
      <trkpt lat="42.457251000" lon="-2.417353000">
        <ele>375.60</ele>
        <time>2016-10-22T08:58:24Z</time>
      </trkpt>
      <trkpt lat="42.457283000" lon="-2.417288000">
        <ele>375.60</ele>
        <time>2016-10-22T08:58:25Z</time>
      </trkpt>
      <trkpt lat="42.457312000" lon="-2.417224000">
        <ele>375.40</ele>
        <time>2016-10-22T08:58:26Z</time>
      </trkpt>
      <trkpt lat="42.457336000" lon="-2.417157000">
        <ele>375.30</ele>
        <time>2016-10-22T08:58:27Z</time>
      </trkpt>
      <trkpt lat="42.457362000" lon="-2.417093000">
        <ele>375.10</ele>
        <time>2016-10-22T08:58:28Z</time>
      </trkpt>
      <trkpt lat="42.457390000" lon="-2.417029000">
        <ele>375.00</ele>
        <time>2016-10-22T08:58:29Z</time>
      </trkpt>
      <trkpt lat="42.457419000" lon="-2.416960000">
        <ele>374.90</ele>
        <time>2016-10-22T08:58:30Z</time>
      </trkpt>
      <trkpt lat="42.457449000" lon="-2.416895000">
        <ele>374.90</ele>
        <time>2016-10-22T08:58:31Z</time>
      </trkpt>
      <trkpt lat="42.457482000" lon="-2.416828000">
        <ele>374.90</ele>
        <time>2016-10-22T08:58:32Z</time>
      </trkpt>
      <trkpt lat="42.457511000" lon="-2.416765000">
        <ele>374.90</ele>
        <time>2016-10-22T08:58:33Z</time>
      </trkpt>
      <trkpt lat="42.457542000" lon="-2.416708000">
        <ele>374.90</ele>
        <time>2016-10-22T08:58:34Z</time>
      </trkpt>
      <trkpt lat="42.457577000" lon="-2.416655000">
        <ele>374.90</ele>
        <time>2016-10-22T08:58:35Z</time>
      </trkpt>
      <trkpt lat="42.457614000" lon="-2.416601000">
        <ele>374.90</ele>
        <time>2016-10-22T08:58:36Z</time>
      </trkpt>
      <trkpt lat="42.457650000" lon="-2.416553000">
        <ele>374.80</ele>
        <time>2016-10-22T08:58:37Z</time>
      </trkpt>
      <trkpt lat="42.457691000" lon="-2.416506000">
        <ele>374.80</ele>
        <time>2016-10-22T08:58:38Z</time>
      </trkpt>
      <trkpt lat="42.457739000" lon="-2.416467000">
        <ele>374.70</ele>
        <time>2016-10-22T08:58:39Z</time>
      </trkpt>
      <trkpt lat="42.457791000" lon="-2.416431000">
        <ele>374.70</ele>
        <time>2016-10-22T08:58:40Z</time>
      </trkpt>
      <trkpt lat="42.457845000" lon="-2.416392000">
        <ele>374.70</ele>
        <time>2016-10-22T08:58:41Z</time>
      </trkpt>
      <trkpt lat="42.457898000" lon="-2.416347000">
        <ele>374.70</ele>
        <time>2016-10-22T08:58:42Z</time>
      </trkpt>
      <trkpt lat="42.457942000" lon="-2.416306000">
        <ele>374.70</ele>
        <time>2016-10-22T08:58:43Z</time>
      </trkpt>
      <trkpt lat="42.457982000" lon="-2.416264000">
        <ele>374.60</ele>
        <time>2016-10-22T08:58:44Z</time>
      </trkpt>
      <trkpt lat="42.458021000" lon="-2.416218000">
        <ele>374.60</ele>
        <time>2016-10-22T08:58:45Z</time>
      </trkpt>
      <trkpt lat="42.458054000" lon="-2.416170000">
        <ele>374.60</ele>
        <time>2016-10-22T08:58:46Z</time>
      </trkpt>
      <trkpt lat="42.458085000" lon="-2.416121000">
        <ele>374.50</ele>
        <time>2016-10-22T08:58:47Z</time>
      </trkpt>
      <trkpt lat="42.458114000" lon="-2.416070000">
        <ele>374.50</ele>
        <time>2016-10-22T08:58:48Z</time>
      </trkpt>
      <trkpt lat="42.458144000" lon="-2.416019000">
        <ele>374.40</ele>
        <time>2016-10-22T08:58:49Z</time>
      </trkpt>
      <trkpt lat="42.458176000" lon="-2.415965000">
        <ele>374.40</ele>
        <time>2016-10-22T08:58:50Z</time>
      </trkpt>
      <trkpt lat="42.458204000" lon="-2.415904000">
        <ele>374.40</ele>
        <time>2016-10-22T08:58:51Z</time>
      </trkpt>
      <trkpt lat="42.458232000" lon="-2.415839000">
        <ele>374.30</ele>
        <time>2016-10-22T08:58:52Z</time>
      </trkpt>
      <trkpt lat="42.458263000" lon="-2.415774000">
        <ele>374.20</ele>
        <time>2016-10-22T08:58:53Z</time>
      </trkpt>
      <trkpt lat="42.458295000" lon="-2.415712000">
        <ele>374.10</ele>
        <time>2016-10-22T08:58:54Z</time>
      </trkpt>
      <trkpt lat="42.458330000" lon="-2.415646000">
        <ele>374.00</ele>
        <time>2016-10-22T08:58:55Z</time>
      </trkpt>
      <trkpt lat="42.458371000" lon="-2.415591000">
        <ele>374.00</ele>
        <time>2016-10-22T08:58:56Z</time>
      </trkpt>
      <trkpt lat="42.458415000" lon="-2.415540000">
        <ele>374.00</ele>
        <time>2016-10-22T08:58:57Z</time>
      </trkpt>
      <trkpt lat="42.458462000" lon="-2.415494000">
        <ele>373.80</ele>
        <time>2016-10-22T08:58:58Z</time>
      </trkpt>
      <trkpt lat="42.458513000" lon="-2.415454000">
        <ele>373.70</ele>
        <time>2016-10-22T08:58:59Z</time>
      </trkpt>
      <trkpt lat="42.458570000" lon="-2.415419000">
        <ele>373.60</ele>
        <time>2016-10-22T08:59:00Z</time>
      </trkpt>
      <trkpt lat="42.458624000" lon="-2.415390000">
        <ele>373.60</ele>
        <time>2016-10-22T08:59:01Z</time>
      </trkpt>
      <trkpt lat="42.458678000" lon="-2.415361000">
        <ele>373.50</ele>
        <time>2016-10-22T08:59:02Z</time>
      </trkpt>
      <trkpt lat="42.458735000" lon="-2.415335000">
        <ele>373.50</ele>
        <time>2016-10-22T08:59:03Z</time>
      </trkpt>
      <trkpt lat="42.458792000" lon="-2.415305000">
        <ele>373.50</ele>
        <time>2016-10-22T08:59:04Z</time>
      </trkpt>
      <trkpt lat="42.458849000" lon="-2.415277000">
        <ele>373.40</ele>
        <time>2016-10-22T08:59:05Z</time>
      </trkpt>
      <trkpt lat="42.458902000" lon="-2.415246000">
        <ele>373.20</ele>
        <time>2016-10-22T08:59:06Z</time>
      </trkpt>
      <trkpt lat="42.458955000" lon="-2.415215000">
        <ele>373.10</ele>
        <time>2016-10-22T08:59:07Z</time>
      </trkpt>
      <trkpt lat="42.459008000" lon="-2.415191000">
        <ele>373.10</ele>
        <time>2016-10-22T08:59:08Z</time>
      </trkpt>
      <trkpt lat="42.459062000" lon="-2.415165000">
        <ele>373.00</ele>
        <time>2016-10-22T08:59:09Z</time>
      </trkpt>
      <trkpt lat="42.459116000" lon="-2.415138000">
        <ele>373.00</ele>
        <time>2016-10-22T08:59:10Z</time>
      </trkpt>
      <trkpt lat="42.459170000" lon="-2.415111000">
        <ele>372.90</ele>
        <time>2016-10-22T08:59:11Z</time>
      </trkpt>
      <trkpt lat="42.459224000" lon="-2.415083000">
        <ele>373.00</ele>
        <time>2016-10-22T08:59:12Z</time>
      </trkpt>
      <trkpt lat="42.459278000" lon="-2.415055000">
        <ele>373.00</ele>
        <time>2016-10-22T08:59:13Z</time>
      </trkpt>
      <trkpt lat="42.459331000" lon="-2.415028000">
        <ele>372.90</ele>
        <time>2016-10-22T08:59:14Z</time>
      </trkpt>
      <trkpt lat="42.459384000" lon="-2.415002000">
        <ele>372.90</ele>
        <time>2016-10-22T08:59:15Z</time>
      </trkpt>
      <trkpt lat="42.459429000" lon="-2.414978000">
        <ele>372.80</ele>
        <time>2016-10-22T08:59:16Z</time>
      </trkpt>
      <trkpt lat="42.459480000" lon="-2.414953000">
        <ele>372.70</ele>
        <time>2016-10-22T08:59:17Z</time>
      </trkpt>
      <trkpt lat="42.459529000" lon="-2.414925000">
        <ele>372.70</ele>
        <time>2016-10-22T08:59:18Z</time>
      </trkpt>
      <trkpt lat="42.459575000" lon="-2.414897000">
        <ele>372.60</ele>
        <time>2016-10-22T08:59:19Z</time>
      </trkpt>
      <trkpt lat="42.459665000" lon="-2.414865000">
        <ele>372.60</ele>
        <time>2016-10-22T08:59:21Z</time>
      </trkpt>
      <trkpt lat="42.459719000" lon="-2.414843000">
        <ele>372.40</ele>
        <time>2016-10-22T08:59:22Z</time>
      </trkpt>
      <trkpt lat="42.459773000" lon="-2.414818000">
        <ele>372.30</ele>
        <time>2016-10-22T08:59:23Z</time>
      </trkpt>
      <trkpt lat="42.459825000" lon="-2.414800000">
        <ele>372.20</ele>
        <time>2016-10-22T08:59:24Z</time>
      </trkpt>
      <trkpt lat="42.459879000" lon="-2.414794000">
        <ele>372.10</ele>
        <time>2016-10-22T08:59:25Z</time>
      </trkpt>
      <trkpt lat="42.459937000" lon="-2.414787000">
        <ele>372.00</ele>
        <time>2016-10-22T08:59:26Z</time>
      </trkpt>
      <trkpt lat="42.459995000" lon="-2.414781000">
        <ele>371.90</ele>
        <time>2016-10-22T08:59:27Z</time>
      </trkpt>
      <trkpt lat="42.460053000" lon="-2.414777000">
        <ele>371.90</ele>
        <time>2016-10-22T08:59:28Z</time>
      </trkpt>
      <trkpt lat="42.460110000" lon="-2.414772000">
        <ele>371.80</ele>
        <time>2016-10-22T08:59:29Z</time>
      </trkpt>
      <trkpt lat="42.460167000" lon="-2.414767000">
        <ele>371.90</ele>
        <time>2016-10-22T08:59:30Z</time>
      </trkpt>
      <trkpt lat="42.460222000" lon="-2.414759000">
        <ele>371.90</ele>
        <time>2016-10-22T08:59:31Z</time>
      </trkpt>
      <trkpt lat="42.460277000" lon="-2.414749000">
        <ele>371.90</ele>
        <time>2016-10-22T08:59:32Z</time>
      </trkpt>
      <trkpt lat="42.460332000" lon="-2.414739000">
        <ele>371.90</ele>
        <time>2016-10-22T08:59:33Z</time>
      </trkpt>
      <trkpt lat="42.460388000" lon="-2.414730000">
        <ele>371.80</ele>
        <time>2016-10-22T08:59:34Z</time>
      </trkpt>
      <trkpt lat="42.460443000" lon="-2.414721000">
        <ele>371.70</ele>
        <time>2016-10-22T08:59:35Z</time>
      </trkpt>
      <trkpt lat="42.460495000" lon="-2.414710000">
        <ele>371.70</ele>
        <time>2016-10-22T08:59:36Z</time>
      </trkpt>
      <trkpt lat="42.460544000" lon="-2.414699000">
        <ele>371.60</ele>
        <time>2016-10-22T08:59:37Z</time>
      </trkpt>
      <trkpt lat="42.460590000" lon="-2.414689000">
        <ele>371.60</ele>
        <time>2016-10-22T08:59:38Z</time>
      </trkpt>
      <trkpt lat="42.460637000" lon="-2.414679000">
        <ele>371.60</ele>
        <time>2016-10-22T08:59:39Z</time>
      </trkpt>
      <trkpt lat="42.460683000" lon="-2.414670000">
        <ele>371.40</ele>
        <time>2016-10-22T08:59:40Z</time>
      </trkpt>
      <trkpt lat="42.460728000" lon="-2.414658000">
        <ele>371.20</ele>
        <time>2016-10-22T08:59:41Z</time>
      </trkpt>
      <trkpt lat="42.460774000" lon="-2.414644000">
        <ele>371.30</ele>
        <time>2016-10-22T08:59:42Z</time>
      </trkpt>
      <trkpt lat="42.460820000" lon="-2.414629000">
        <ele>371.40</ele>
        <time>2016-10-22T08:59:43Z</time>
      </trkpt>
      <trkpt lat="42.460864000" lon="-2.414617000">
        <ele>371.30</ele>
        <time>2016-10-22T08:59:44Z</time>
      </trkpt>
      <trkpt lat="42.460909000" lon="-2.414606000">
        <ele>371.20</ele>
        <time>2016-10-22T08:59:45Z</time>
      </trkpt>
      <trkpt lat="42.460954000" lon="-2.414593000">
        <ele>370.90</ele>
        <time>2016-10-22T08:59:46Z</time>
      </trkpt>
      <trkpt lat="42.460997000" lon="-2.414580000">
        <ele>370.70</ele>
        <time>2016-10-22T08:59:47Z</time>
      </trkpt>
      <trkpt lat="42.461038000" lon="-2.414570000">
        <ele>370.50</ele>
        <time>2016-10-22T08:59:48Z</time>
      </trkpt>
      <trkpt lat="42.461077000" lon="-2.414560000">
        <ele>370.40</ele>
        <time>2016-10-22T08:59:49Z</time>
      </trkpt>
      <trkpt lat="42.461116000" lon="-2.414544000">
        <ele>370.30</ele>
        <time>2016-10-22T08:59:50Z</time>
      </trkpt>
      <trkpt lat="42.461156000" lon="-2.414523000">
        <ele>370.30</ele>
        <time>2016-10-22T08:59:51Z</time>
      </trkpt>
      <trkpt lat="42.461196000" lon="-2.414500000">
        <ele>370.20</ele>
        <time>2016-10-22T08:59:52Z</time>
      </trkpt>
      <trkpt lat="42.461242000" lon="-2.414479000">
        <ele>370.20</ele>
        <time>2016-10-22T08:59:53Z</time>
      </trkpt>
      <trkpt lat="42.461286000" lon="-2.414451000">
        <ele>370.10</ele>
        <time>2016-10-22T08:59:54Z</time>
      </trkpt>
      <trkpt lat="42.461332000" lon="-2.414424000">
        <ele>370.00</ele>
        <time>2016-10-22T08:59:55Z</time>
      </trkpt>
      <trkpt lat="42.461378000" lon="-2.414393000">
        <ele>370.00</ele>
        <time>2016-10-22T08:59:56Z</time>
      </trkpt>
      <trkpt lat="42.461427000" lon="-2.414363000">
        <ele>369.90</ele>
        <time>2016-10-22T08:59:57Z</time>
      </trkpt>
      <trkpt lat="42.461475000" lon="-2.414331000">
        <ele>369.90</ele>
        <time>2016-10-22T08:59:58Z</time>
      </trkpt>
      <trkpt lat="42.461524000" lon="-2.414302000">
        <ele>369.90</ele>
        <time>2016-10-22T08:59:59Z</time>
      </trkpt>
      <trkpt lat="42.461576000" lon="-2.414274000">
        <ele>369.80</ele>
        <time>2016-10-22T09:00:00Z</time>
      </trkpt>
      <trkpt lat="42.461628000" lon="-2.414248000">
        <ele>369.70</ele>
        <time>2016-10-22T09:00:01Z</time>
      </trkpt>
      <trkpt lat="42.461682000" lon="-2.414223000">
        <ele>369.80</ele>
        <time>2016-10-22T09:00:02Z</time>
      </trkpt>
      <trkpt lat="42.461736000" lon="-2.414198000">
        <ele>369.80</ele>
        <time>2016-10-22T09:00:03Z</time>
      </trkpt>
      <trkpt lat="42.461790000" lon="-2.414167000">
        <ele>369.70</ele>
        <time>2016-10-22T09:00:04Z</time>
      </trkpt>
      <trkpt lat="42.461844000" lon="-2.414137000">
        <ele>369.70</ele>
        <time>2016-10-22T09:00:05Z</time>
      </trkpt>
      <trkpt lat="42.461900000" lon="-2.414110000">
        <ele>369.70</ele>
        <time>2016-10-22T09:00:06Z</time>
      </trkpt>
      <trkpt lat="42.461958000" lon="-2.414082000">
        <ele>369.60</ele>
        <time>2016-10-22T09:00:07Z</time>
      </trkpt>
      <trkpt lat="42.462015000" lon="-2.414054000">
        <ele>369.60</ele>
        <time>2016-10-22T09:00:08Z</time>
      </trkpt>
      <trkpt lat="42.462074000" lon="-2.414026000">
        <ele>369.60</ele>
        <time>2016-10-22T09:00:09Z</time>
      </trkpt>
      <trkpt lat="42.462133000" lon="-2.413999000">
        <ele>369.60</ele>
        <time>2016-10-22T09:00:10Z</time>
      </trkpt>
      <trkpt lat="42.462196000" lon="-2.413974000">
        <ele>369.60</ele>
        <time>2016-10-22T09:00:11Z</time>
      </trkpt>
      <trkpt lat="42.462257000" lon="-2.413952000">
        <ele>369.70</ele>
        <time>2016-10-22T09:00:12Z</time>
      </trkpt>
      <trkpt lat="42.462319000" lon="-2.413939000">
        <ele>369.80</ele>
        <time>2016-10-22T09:00:13Z</time>
      </trkpt>
      <trkpt lat="42.462384000" lon="-2.413932000">
        <ele>369.90</ele>
        <time>2016-10-22T09:00:14Z</time>
      </trkpt>
      <trkpt lat="42.462447000" lon="-2.413925000">
        <ele>369.90</ele>
        <time>2016-10-22T09:00:15Z</time>
      </trkpt>
      <trkpt lat="42.462511000" lon="-2.413922000">
        <ele>370.00</ele>
        <time>2016-10-22T09:00:16Z</time>
      </trkpt>
      <trkpt lat="42.462571000" lon="-2.413918000">
        <ele>370.00</ele>
        <time>2016-10-22T09:00:17Z</time>
      </trkpt>
      <trkpt lat="42.462631000" lon="-2.413910000">
        <ele>369.80</ele>
        <time>2016-10-22T09:00:18Z</time>
      </trkpt>
      <trkpt lat="42.462690000" lon="-2.413900000">
        <ele>369.60</ele>
        <time>2016-10-22T09:00:19Z</time>
      </trkpt>
      <trkpt lat="42.462751000" lon="-2.413887000">
        <ele>369.40</ele>
        <time>2016-10-22T09:00:20Z</time>
      </trkpt>
      <trkpt lat="42.462862000" lon="-2.413836000">
        <ele>369.20</ele>
        <time>2016-10-22T09:00:22Z</time>
      </trkpt>
      <trkpt lat="42.462917000" lon="-2.413809000">
        <ele>369.10</ele>
        <time>2016-10-22T09:00:23Z</time>
      </trkpt>
      <trkpt lat="42.462973000" lon="-2.413787000">
        <ele>369.00</ele>
        <time>2016-10-22T09:00:24Z</time>
      </trkpt>
      <trkpt lat="42.463029000" lon="-2.413770000">
        <ele>368.80</ele>
        <time>2016-10-22T09:00:25Z</time>
      </trkpt>
      <trkpt lat="42.463088000" lon="-2.413762000">
        <ele>368.70</ele>
        <time>2016-10-22T09:00:26Z</time>
      </trkpt>
      <trkpt lat="42.463144000" lon="-2.413766000">
        <ele>368.70</ele>
        <time>2016-10-22T09:00:27Z</time>
      </trkpt>
      <trkpt lat="42.463201000" lon="-2.413778000">
        <ele>368.60</ele>
        <time>2016-10-22T09:00:28Z</time>
      </trkpt>
      <trkpt lat="42.463256000" lon="-2.413793000">
        <ele>368.60</ele>
        <time>2016-10-22T09:00:29Z</time>
      </trkpt>
      <trkpt lat="42.463305000" lon="-2.413818000">
        <ele>368.40</ele>
        <time>2016-10-22T09:00:30Z</time>
      </trkpt>
      <trkpt lat="42.463354000" lon="-2.413851000">
        <ele>368.30</ele>
        <time>2016-10-22T09:00:31Z</time>
      </trkpt>
      <trkpt lat="42.463404000" lon="-2.413888000">
        <ele>368.10</ele>
        <time>2016-10-22T09:00:32Z</time>
      </trkpt>
      <trkpt lat="42.463453000" lon="-2.413927000">
        <ele>368.00</ele>
        <time>2016-10-22T09:00:33Z</time>
      </trkpt>
      <trkpt lat="42.463504000" lon="-2.413965000">
        <ele>367.90</ele>
        <time>2016-10-22T09:00:34Z</time>
      </trkpt>
      <trkpt lat="42.463554000" lon="-2.413999000">
        <ele>367.90</ele>
        <time>2016-10-22T09:00:35Z</time>
      </trkpt>
      <trkpt lat="42.463605000" lon="-2.414027000">
        <ele>367.80</ele>
        <time>2016-10-22T09:00:36Z</time>
      </trkpt>
      <trkpt lat="42.463657000" lon="-2.414054000">
        <ele>367.80</ele>
        <time>2016-10-22T09:00:37Z</time>
      </trkpt>
      <trkpt lat="42.463705000" lon="-2.414084000">
        <ele>367.80</ele>
        <time>2016-10-22T09:00:38Z</time>
      </trkpt>
      <trkpt lat="42.463751000" lon="-2.414111000">
        <ele>367.80</ele>
        <time>2016-10-22T09:00:39Z</time>
      </trkpt>
      <trkpt lat="42.463796000" lon="-2.414132000">
        <ele>367.70</ele>
        <time>2016-10-22T09:00:40Z</time>
      </trkpt>
      <trkpt lat="42.463842000" lon="-2.414150000">
        <ele>367.60</ele>
        <time>2016-10-22T09:00:41Z</time>
      </trkpt>
      <trkpt lat="42.463885000" lon="-2.414167000">
        <ele>367.50</ele>
        <time>2016-10-22T09:00:42Z</time>
      </trkpt>
      <trkpt lat="42.463926000" lon="-2.414178000">
        <ele>367.50</ele>
        <time>2016-10-22T09:00:43Z</time>
      </trkpt>
      <trkpt lat="42.463960000" lon="-2.414185000">
        <ele>367.40</ele>
        <time>2016-10-22T09:00:44Z</time>
      </trkpt>
      <trkpt lat="42.463983000" lon="-2.414189000">
        <ele>367.40</ele>
        <time>2016-10-22T09:00:45Z</time>
      </trkpt>
      <trkpt lat="42.464007000" lon="-2.414182000">
        <ele>367.30</ele>
        <time>2016-10-22T09:00:46Z</time>
      </trkpt>
      <trkpt lat="42.464032000" lon="-2.414170000">
        <ele>367.30</ele>
        <time>2016-10-22T09:00:47Z</time>
      </trkpt>
      <trkpt lat="42.464042000" lon="-2.414172000">
        <ele>367.30</ele>
        <time>2016-10-22T09:00:48Z</time>
      </trkpt>
      <trkpt lat="42.464048000" lon="-2.414172000">
        <ele>367.20</ele>
        <time>2016-10-22T09:00:49Z</time>
      </trkpt>
      <trkpt lat="42.464048000" lon="-2.414172000">
        <ele>367.10</ele>
        <time>2016-10-22T09:00:50Z</time>
      </trkpt>
      <trkpt lat="42.464048000" lon="-2.414172000">
        <ele>367.00</ele>
        <time>2016-10-22T09:00:51Z</time>
      </trkpt>
      <trkpt lat="42.464048000" lon="-2.414172000">
        <ele>367.00</ele>
        <time>2016-10-22T09:00:52Z</time>
      </trkpt>
      <trkpt lat="42.464048000" lon="-2.414172000">
        <ele>366.80</ele>
        <time>2016-10-22T09:00:53Z</time>
      </trkpt>
      <trkpt lat="42.464048000" lon="-2.414172000">
        <ele>366.60</ele>
        <time>2016-10-22T09:00:54Z</time>
      </trkpt>
      <trkpt lat="42.464048000" lon="-2.414172000">
        <ele>366.50</ele>
        <time>2016-10-22T09:00:55Z</time>
      </trkpt>
      <trkpt lat="42.464048000" lon="-2.414172000">
        <ele>366.40</ele>
        <time>2016-10-22T09:00:56Z</time>
      </trkpt>
      <trkpt lat="42.464048000" lon="-2.414172000">
        <ele>366.40</ele>
        <time>2016-10-22T09:00:57Z</time>
      </trkpt>
      <trkpt lat="42.464048000" lon="-2.414172000">
        <ele>366.30</ele>
        <time>2016-10-22T09:00:58Z</time>
      </trkpt>
      <trkpt lat="42.464048000" lon="-2.414172000">
        <ele>366.30</ele>
        <time>2016-10-22T09:00:59Z</time>
      </trkpt>
      <trkpt lat="42.464048000" lon="-2.414172000">
        <ele>366.30</ele>
        <time>2016-10-22T09:01:00Z</time>
      </trkpt>
      <trkpt lat="42.464048000" lon="-2.414172000">
        <ele>366.20</ele>
        <time>2016-10-22T09:01:01Z</time>
      </trkpt>
      <trkpt lat="42.464048000" lon="-2.414172000">
        <ele>366.20</ele>
        <time>2016-10-22T09:01:02Z</time>
      </trkpt>
      <trkpt lat="42.464048000" lon="-2.414172000">
        <ele>366.20</ele>
        <time>2016-10-22T09:01:03Z</time>
      </trkpt>
      <trkpt lat="42.464048000" lon="-2.414172000">
        <ele>366.20</ele>
        <time>2016-10-22T09:01:04Z</time>
      </trkpt>
      <trkpt lat="42.464048000" lon="-2.414172000">
        <ele>366.20</ele>
        <time>2016-10-22T09:01:05Z</time>
      </trkpt>
      <trkpt lat="42.464048000" lon="-2.414172000">
        <ele>366.20</ele>
        <time>2016-10-22T09:01:06Z</time>
      </trkpt>
      <trkpt lat="42.464048000" lon="-2.414172000">
        <ele>366.20</ele>
        <time>2016-10-22T09:01:07Z</time>
      </trkpt>
      <trkpt lat="42.464048000" lon="-2.414172000">
        <ele>366.20</ele>
        <time>2016-10-22T09:01:08Z</time>
      </trkpt>
      <trkpt lat="42.464048000" lon="-2.414172000">
        <ele>366.10</ele>
        <time>2016-10-22T09:01:09Z</time>
      </trkpt>
      <trkpt lat="42.464048000" lon="-2.414172000">
        <ele>366.10</ele>
        <time>2016-10-22T09:01:10Z</time>
      </trkpt>
      <trkpt lat="42.464048000" lon="-2.414172000">
        <ele>366.20</ele>
        <time>2016-10-22T09:01:11Z</time>
      </trkpt>
      <trkpt lat="42.464048000" lon="-2.414172000">
        <ele>366.30</ele>
        <time>2016-10-22T09:01:12Z</time>
      </trkpt>
      <trkpt lat="42.464048000" lon="-2.414172000">
        <ele>366.20</ele>
        <time>2016-10-22T09:01:13Z</time>
      </trkpt>
      <trkpt lat="42.464048000" lon="-2.414172000">
        <ele>366.10</ele>
        <time>2016-10-22T09:01:14Z</time>
      </trkpt>
      <trkpt lat="42.464048000" lon="-2.414172000">
        <ele>366.10</ele>
        <time>2016-10-22T09:01:15Z</time>
      </trkpt>
      <trkpt lat="42.464048000" lon="-2.414172000">
        <ele>366.00</ele>
        <time>2016-10-22T09:01:16Z</time>
      </trkpt>
      <trkpt lat="42.464048000" lon="-2.414172000">
        <ele>366.00</ele>
        <time>2016-10-22T09:01:17Z</time>
      </trkpt>
      <trkpt lat="42.464048000" lon="-2.414172000">
        <ele>366.00</ele>
        <time>2016-10-22T09:01:18Z</time>
      </trkpt>
      <trkpt lat="42.464048000" lon="-2.414172000">
        <ele>366.00</ele>
        <time>2016-10-22T09:01:19Z</time>
      </trkpt>
      <trkpt lat="42.464048000" lon="-2.414172000">
        <ele>366.00</ele>
        <time>2016-10-22T09:01:20Z</time>
      </trkpt>
      <trkpt lat="42.464048000" lon="-2.414172000">
        <ele>366.10</ele>
        <time>2016-10-22T09:01:21Z</time>
      </trkpt>
      <trkpt lat="42.464048000" lon="-2.414172000">
        <ele>366.00</ele>
        <time>2016-10-22T09:01:23Z</time>
      </trkpt>
      <trkpt lat="42.464048000" lon="-2.414172000">
        <ele>366.00</ele>
        <time>2016-10-22T09:01:24Z</time>
      </trkpt>
      <trkpt lat="42.464048000" lon="-2.414172000">
        <ele>365.90</ele>
        <time>2016-10-22T09:01:25Z</time>
      </trkpt>
      <trkpt lat="42.464048000" lon="-2.414172000">
        <ele>365.90</ele>
        <time>2016-10-22T09:01:26Z</time>
      </trkpt>
      <trkpt lat="42.464048000" lon="-2.414172000">
        <ele>366.10</ele>
        <time>2016-10-22T09:01:27Z</time>
      </trkpt>
      <trkpt lat="42.464048000" lon="-2.414172000">
        <ele>366.20</ele>
        <time>2016-10-22T09:01:28Z</time>
      </trkpt>
      <trkpt lat="42.464055000" lon="-2.414177000">
        <ele>366.30</ele>
        <time>2016-10-22T09:01:29Z</time>
      </trkpt>
      <trkpt lat="42.464055000" lon="-2.414177000">
        <ele>366.40</ele>
        <time>2016-10-22T09:01:30Z</time>
      </trkpt>
      <trkpt lat="42.464055000" lon="-2.414177000">
        <ele>366.40</ele>
        <time>2016-10-22T09:01:31Z</time>
      </trkpt>
      <trkpt lat="42.464055000" lon="-2.414177000">
        <ele>366.40</ele>
        <time>2016-10-22T09:01:32Z</time>
      </trkpt>
      <trkpt lat="42.464055000" lon="-2.414177000">
        <ele>366.30</ele>
        <time>2016-10-22T09:01:33Z</time>
      </trkpt>
      <trkpt lat="42.464055000" lon="-2.414177000">
        <ele>366.30</ele>
        <time>2016-10-22T09:01:34Z</time>
      </trkpt>
      <trkpt lat="42.464055000" lon="-2.414177000">
        <ele>366.20</ele>
        <time>2016-10-22T09:01:35Z</time>
      </trkpt>
      <trkpt lat="42.464055000" lon="-2.414177000">
        <ele>366.20</ele>
        <time>2016-10-22T09:01:36Z</time>
      </trkpt>
      <trkpt lat="42.464055000" lon="-2.414177000">
        <ele>366.20</ele>
        <time>2016-10-22T09:01:37Z</time>
      </trkpt>
      <trkpt lat="42.464055000" lon="-2.414177000">
        <ele>366.10</ele>
        <time>2016-10-22T09:01:38Z</time>
      </trkpt>
      <trkpt lat="42.464055000" lon="-2.414177000">
        <ele>366.10</ele>
        <time>2016-10-22T09:01:39Z</time>
      </trkpt>
      <trkpt lat="42.464055000" lon="-2.414177000">
        <ele>366.10</ele>
        <time>2016-10-22T09:01:40Z</time>
      </trkpt>
      <trkpt lat="42.464055000" lon="-2.414177000">
        <ele>366.10</ele>
        <time>2016-10-22T09:01:41Z</time>
      </trkpt>
      <trkpt lat="42.464055000" lon="-2.414177000">
        <ele>366.10</ele>
        <time>2016-10-22T09:01:42Z</time>
      </trkpt>
      <trkpt lat="42.464055000" lon="-2.414177000">
        <ele>366.00</ele>
        <time>2016-10-22T09:01:43Z</time>
      </trkpt>
      <trkpt lat="42.464055000" lon="-2.414177000">
        <ele>366.00</ele>
        <time>2016-10-22T09:01:44Z</time>
      </trkpt>
      <trkpt lat="42.464055000" lon="-2.414177000">
        <ele>365.90</ele>
        <time>2016-10-22T09:01:45Z</time>
      </trkpt>
      <trkpt lat="42.464055000" lon="-2.414177000">
        <ele>365.80</ele>
        <time>2016-10-22T09:01:46Z</time>
      </trkpt>
      <trkpt lat="42.464055000" lon="-2.414177000">
        <ele>365.80</ele>
        <time>2016-10-22T09:01:47Z</time>
      </trkpt>
      <trkpt lat="42.464055000" lon="-2.414177000">
        <ele>365.70</ele>
        <time>2016-10-22T09:01:48Z</time>
      </trkpt>
      <trkpt lat="42.464055000" lon="-2.414177000">
        <ele>365.70</ele>
        <time>2016-10-22T09:01:49Z</time>
      </trkpt>
      <trkpt lat="42.464055000" lon="-2.414177000">
        <ele>365.70</ele>
        <time>2016-10-22T09:01:50Z</time>
      </trkpt>
      <trkpt lat="42.464055000" lon="-2.414177000">
        <ele>365.70</ele>
        <time>2016-10-22T09:01:51Z</time>
      </trkpt>
      <trkpt lat="42.464055000" lon="-2.414177000">
        <ele>365.70</ele>
        <time>2016-10-22T09:01:52Z</time>
      </trkpt>
      <trkpt lat="42.464055000" lon="-2.414177000">
        <ele>365.70</ele>
        <time>2016-10-22T09:01:53Z</time>
      </trkpt>
      <trkpt lat="42.464055000" lon="-2.414177000">
        <ele>365.60</ele>
        <time>2016-10-22T09:01:54Z</time>
      </trkpt>
      <trkpt lat="42.464055000" lon="-2.414177000">
        <ele>365.70</ele>
        <time>2016-10-22T09:01:55Z</time>
      </trkpt>
      <trkpt lat="42.464055000" lon="-2.414177000">
        <ele>365.80</ele>
        <time>2016-10-22T09:01:56Z</time>
      </trkpt>
      <trkpt lat="42.464055000" lon="-2.414177000">
        <ele>365.90</ele>
        <time>2016-10-22T09:01:57Z</time>
      </trkpt>
      <trkpt lat="42.464055000" lon="-2.414177000">
        <ele>365.90</ele>
        <time>2016-10-22T09:01:58Z</time>
      </trkpt>
      <trkpt lat="42.464055000" lon="-2.414177000">
        <ele>366.00</ele>
        <time>2016-10-22T09:01:59Z</time>
      </trkpt>
      <trkpt lat="42.464055000" lon="-2.414177000">
        <ele>366.00</ele>
        <time>2016-10-22T09:02:00Z</time>
      </trkpt>
      <trkpt lat="42.464055000" lon="-2.414177000">
        <ele>366.10</ele>
        <time>2016-10-22T09:02:01Z</time>
      </trkpt>
      <trkpt lat="42.464055000" lon="-2.414177000">
        <ele>366.10</ele>
        <time>2016-10-22T09:02:02Z</time>
      </trkpt>
      <trkpt lat="42.464055000" lon="-2.414177000">
        <ele>366.10</ele>
        <time>2016-10-22T09:02:03Z</time>
      </trkpt>
      <trkpt lat="42.464055000" lon="-2.414177000">
        <ele>366.10</ele>
        <time>2016-10-22T09:02:04Z</time>
      </trkpt>
      <trkpt lat="42.464055000" lon="-2.414177000">
        <ele>366.00</ele>
        <time>2016-10-22T09:02:05Z</time>
      </trkpt>
      <trkpt lat="42.464055000" lon="-2.414177000">
        <ele>365.90</ele>
        <time>2016-10-22T09:02:06Z</time>
      </trkpt>
      <trkpt lat="42.464055000" lon="-2.414177000">
        <ele>365.80</ele>
        <time>2016-10-22T09:02:07Z</time>
      </trkpt>
      <trkpt lat="42.464055000" lon="-2.414177000">
        <ele>365.80</ele>
        <time>2016-10-22T09:02:08Z</time>
      </trkpt>
      <trkpt lat="42.464046000" lon="-2.414182000">
        <ele>365.90</ele>
        <time>2016-10-22T09:02:09Z</time>
      </trkpt>
      <trkpt lat="42.464046000" lon="-2.414182000">
        <ele>365.90</ele>
        <time>2016-10-22T09:02:10Z</time>
      </trkpt>
      <trkpt lat="42.464046000" lon="-2.414182000">
        <ele>366.00</ele>
        <time>2016-10-22T09:02:11Z</time>
      </trkpt>
      <trkpt lat="42.464046000" lon="-2.414182000">
        <ele>366.00</ele>
        <time>2016-10-22T09:02:12Z</time>
      </trkpt>
      <trkpt lat="42.464046000" lon="-2.414182000">
        <ele>366.00</ele>
        <time>2016-10-22T09:02:13Z</time>
      </trkpt>
      <trkpt lat="42.464046000" lon="-2.414182000">
        <ele>366.00</ele>
        <time>2016-10-22T09:02:14Z</time>
      </trkpt>
      <trkpt lat="42.464046000" lon="-2.414182000">
        <ele>365.90</ele>
        <time>2016-10-22T09:02:15Z</time>
      </trkpt>
      <trkpt lat="42.464046000" lon="-2.414182000">
        <ele>365.80</ele>
        <time>2016-10-22T09:02:16Z</time>
      </trkpt>
      <trkpt lat="42.464046000" lon="-2.414182000">
        <ele>365.80</ele>
        <time>2016-10-22T09:02:17Z</time>
      </trkpt>
      <trkpt lat="42.464046000" lon="-2.414182000">
        <ele>365.80</ele>
        <time>2016-10-22T09:02:18Z</time>
      </trkpt>
      <trkpt lat="42.464046000" lon="-2.414182000">
        <ele>365.80</ele>
        <time>2016-10-22T09:02:19Z</time>
      </trkpt>
      <trkpt lat="42.464046000" lon="-2.414182000">
        <ele>365.80</ele>
        <time>2016-10-22T09:02:20Z</time>
      </trkpt>
      <trkpt lat="42.464046000" lon="-2.414182000">
        <ele>365.90</ele>
        <time>2016-10-22T09:02:21Z</time>
      </trkpt>
      <trkpt lat="42.464046000" lon="-2.414182000">
        <ele>365.90</ele>
        <time>2016-10-22T09:02:22Z</time>
      </trkpt>
      <trkpt lat="42.464046000" lon="-2.414182000">
        <ele>365.90</ele>
        <time>2016-10-22T09:02:24Z</time>
      </trkpt>
      <trkpt lat="42.464046000" lon="-2.414182000">
        <ele>365.90</ele>
        <time>2016-10-22T09:02:25Z</time>
      </trkpt>
      <trkpt lat="42.464046000" lon="-2.414182000">
        <ele>365.90</ele>
        <time>2016-10-22T09:02:26Z</time>
      </trkpt>
      <trkpt lat="42.464046000" lon="-2.414182000">
        <ele>365.90</ele>
        <time>2016-10-22T09:02:27Z</time>
      </trkpt>
      <trkpt lat="42.464046000" lon="-2.414182000">
        <ele>365.90</ele>
        <time>2016-10-22T09:02:28Z</time>
      </trkpt>
      <trkpt lat="42.464046000" lon="-2.414182000">
        <ele>365.90</ele>
        <time>2016-10-22T09:02:29Z</time>
      </trkpt>
      <trkpt lat="42.464046000" lon="-2.414182000">
        <ele>365.90</ele>
        <time>2016-10-22T09:02:30Z</time>
      </trkpt>
      <trkpt lat="42.464046000" lon="-2.414182000">
        <ele>365.90</ele>
        <time>2016-10-22T09:02:31Z</time>
      </trkpt>
      <trkpt lat="42.464046000" lon="-2.414182000">
        <ele>365.90</ele>
        <time>2016-10-22T09:02:32Z</time>
      </trkpt>
      <trkpt lat="42.464046000" lon="-2.414182000">
        <ele>365.90</ele>
        <time>2016-10-22T09:02:33Z</time>
      </trkpt>
      <trkpt lat="42.464046000" lon="-2.414182000">
        <ele>365.90</ele>
        <time>2016-10-22T09:02:34Z</time>
      </trkpt>
      <trkpt lat="42.464046000" lon="-2.414182000">
        <ele>365.90</ele>
        <time>2016-10-22T09:02:35Z</time>
      </trkpt>
      <trkpt lat="42.464046000" lon="-2.414182000">
        <ele>365.90</ele>
        <time>2016-10-22T09:02:36Z</time>
      </trkpt>
      <trkpt lat="42.464046000" lon="-2.414182000">
        <ele>365.90</ele>
        <time>2016-10-22T09:02:37Z</time>
      </trkpt>
      <trkpt lat="42.464046000" lon="-2.414182000">
        <ele>365.90</ele>
        <time>2016-10-22T09:02:38Z</time>
      </trkpt>
      <trkpt lat="42.464046000" lon="-2.414182000">
        <ele>366.10</ele>
        <time>2016-10-22T09:02:39Z</time>
      </trkpt>
      <trkpt lat="42.464046000" lon="-2.414182000">
        <ele>366.20</ele>
        <time>2016-10-22T09:02:40Z</time>
      </trkpt>
      <trkpt lat="42.464046000" lon="-2.414182000">
        <ele>366.20</ele>
        <time>2016-10-22T09:02:41Z</time>
      </trkpt>
      <trkpt lat="42.464046000" lon="-2.414182000">
        <ele>366.20</ele>
        <time>2016-10-22T09:02:42Z</time>
      </trkpt>
      <trkpt lat="42.464046000" lon="-2.414182000">
        <ele>366.30</ele>
        <time>2016-10-22T09:02:43Z</time>
      </trkpt>
      <trkpt lat="42.464046000" lon="-2.414182000">
        <ele>366.50</ele>
        <time>2016-10-22T09:02:44Z</time>
      </trkpt>
      <trkpt lat="42.464046000" lon="-2.414182000">
        <ele>366.60</ele>
        <time>2016-10-22T09:02:45Z</time>
      </trkpt>
      <trkpt lat="42.464046000" lon="-2.414182000">
        <ele>366.80</ele>
        <time>2016-10-22T09:02:46Z</time>
      </trkpt>
      <trkpt lat="42.464046000" lon="-2.414182000">
        <ele>366.90</ele>
        <time>2016-10-22T09:02:47Z</time>
      </trkpt>
      <trkpt lat="42.464081000" lon="-2.414161000">
        <ele>366.90</ele>
        <time>2016-10-22T09:02:48Z</time>
      </trkpt>
      <trkpt lat="42.464097000" lon="-2.414129000">
        <ele>366.90</ele>
        <time>2016-10-22T09:02:49Z</time>
      </trkpt>
      <trkpt lat="42.464110000" lon="-2.414100000">
        <ele>366.90</ele>
        <time>2016-10-22T09:02:50Z</time>
      </trkpt>
      <trkpt lat="42.464126000" lon="-2.414073000">
        <ele>366.90</ele>
        <time>2016-10-22T09:02:51Z</time>
      </trkpt>
      <trkpt lat="42.464151000" lon="-2.414041000">
        <ele>366.90</ele>
        <time>2016-10-22T09:02:52Z</time>
      </trkpt>
      <trkpt lat="42.464183000" lon="-2.414011000">
        <ele>366.90</ele>
        <time>2016-10-22T09:02:53Z</time>
      </trkpt>
      <trkpt lat="42.464227000" lon="-2.413994000">
        <ele>366.90</ele>
        <time>2016-10-22T09:02:54Z</time>
      </trkpt>
      <trkpt lat="42.464279000" lon="-2.413980000">
        <ele>366.90</ele>
        <time>2016-10-22T09:02:55Z</time>
      </trkpt>
      <trkpt lat="42.464333000" lon="-2.413973000">
        <ele>366.90</ele>
        <time>2016-10-22T09:02:56Z</time>
      </trkpt>
      <trkpt lat="42.464387000" lon="-2.413965000">
        <ele>366.90</ele>
        <time>2016-10-22T09:02:57Z</time>
      </trkpt>
      <trkpt lat="42.464443000" lon="-2.413962000">
        <ele>366.90</ele>
        <time>2016-10-22T09:02:58Z</time>
      </trkpt>
      <trkpt lat="42.464500000" lon="-2.413955000">
        <ele>366.90</ele>
        <time>2016-10-22T09:02:59Z</time>
      </trkpt>
      <trkpt lat="42.464558000" lon="-2.413945000">
        <ele>366.90</ele>
        <time>2016-10-22T09:03:00Z</time>
      </trkpt>
      <trkpt lat="42.464616000" lon="-2.413930000">
        <ele>366.90</ele>
        <time>2016-10-22T09:03:01Z</time>
      </trkpt>
      <trkpt lat="42.464675000" lon="-2.413915000">
        <ele>366.90</ele>
        <time>2016-10-22T09:03:02Z</time>
      </trkpt>
      <trkpt lat="42.464734000" lon="-2.413899000">
        <ele>366.90</ele>
        <time>2016-10-22T09:03:03Z</time>
      </trkpt>
      <trkpt lat="42.464793000" lon="-2.413883000">
        <ele>366.80</ele>
        <time>2016-10-22T09:03:04Z</time>
      </trkpt>
      <trkpt lat="42.464852000" lon="-2.413869000">
        <ele>366.80</ele>
        <time>2016-10-22T09:03:05Z</time>
      </trkpt>
      <trkpt lat="42.464912000" lon="-2.413859000">
        <ele>366.70</ele>
        <time>2016-10-22T09:03:06Z</time>
      </trkpt>
      <trkpt lat="42.464974000" lon="-2.413851000">
        <ele>366.70</ele>
        <time>2016-10-22T09:03:07Z</time>
      </trkpt>
      <trkpt lat="42.465033000" lon="-2.413846000">
        <ele>366.40</ele>
        <time>2016-10-22T09:03:08Z</time>
      </trkpt>
      <trkpt lat="42.465094000" lon="-2.413848000">
        <ele>366.10</ele>
        <time>2016-10-22T09:03:09Z</time>
      </trkpt>
      <trkpt lat="42.465155000" lon="-2.413850000">
        <ele>366.00</ele>
        <time>2016-10-22T09:03:10Z</time>
      </trkpt>
      <trkpt lat="42.465215000" lon="-2.413854000">
        <ele>365.90</ele>
        <time>2016-10-22T09:03:11Z</time>
      </trkpt>
      <trkpt lat="42.465278000" lon="-2.413853000">
        <ele>365.90</ele>
        <time>2016-10-22T09:03:12Z</time>
      </trkpt>
      <trkpt lat="42.465340000" lon="-2.413848000">
        <ele>365.90</ele>
        <time>2016-10-22T09:03:13Z</time>
      </trkpt>
      <trkpt lat="42.465402000" lon="-2.413845000">
        <ele>365.90</ele>
        <time>2016-10-22T09:03:14Z</time>
      </trkpt>
      <trkpt lat="42.465462000" lon="-2.413838000">
        <ele>365.90</ele>
        <time>2016-10-22T09:03:15Z</time>
      </trkpt>
      <trkpt lat="42.465524000" lon="-2.413834000">
        <ele>366.00</ele>
        <time>2016-10-22T09:03:16Z</time>
      </trkpt>
      <trkpt lat="42.465584000" lon="-2.413823000">
        <ele>366.00</ele>
        <time>2016-10-22T09:03:17Z</time>
      </trkpt>
      <trkpt lat="42.465638000" lon="-2.413820000">
        <ele>366.00</ele>
        <time>2016-10-22T09:03:18Z</time>
      </trkpt>
      <trkpt lat="42.465690000" lon="-2.413826000">
        <ele>366.00</ele>
        <time>2016-10-22T09:03:19Z</time>
      </trkpt>
      <trkpt lat="42.465740000" lon="-2.413853000">
        <ele>365.90</ele>
        <time>2016-10-22T09:03:20Z</time>
      </trkpt>
      <trkpt lat="42.465781000" lon="-2.413906000">
        <ele>365.70</ele>
        <time>2016-10-22T09:03:21Z</time>
      </trkpt>
      <trkpt lat="42.465814000" lon="-2.413976000">
        <ele>365.60</ele>
        <time>2016-10-22T09:03:22Z</time>
      </trkpt>
      <trkpt lat="42.465844000" lon="-2.414044000">
        <ele>365.60</ele>
        <time>2016-10-22T09:03:23Z</time>
      </trkpt>
      <trkpt lat="42.465894000" lon="-2.414188000">
        <ele>365.50</ele>
        <time>2016-10-22T09:03:25Z</time>
      </trkpt>
      <trkpt lat="42.465909000" lon="-2.414272000">
        <ele>365.40</ele>
        <time>2016-10-22T09:03:26Z</time>
      </trkpt>
      <trkpt lat="42.465928000" lon="-2.414357000">
        <ele>365.50</ele>
        <time>2016-10-22T09:03:27Z</time>
      </trkpt>
      <trkpt lat="42.465948000" lon="-2.414440000">
        <ele>365.50</ele>
        <time>2016-10-22T09:03:28Z</time>
      </trkpt>
      <trkpt lat="42.465968000" lon="-2.414517000">
        <ele>365.40</ele>
        <time>2016-10-22T09:03:29Z</time>
      </trkpt>
      <trkpt lat="42.465987000" lon="-2.414598000">
        <ele>365.40</ele>
        <time>2016-10-22T09:03:30Z</time>
      </trkpt>
      <trkpt lat="42.466015000" lon="-2.414686000">
        <ele>365.40</ele>
        <time>2016-10-22T09:03:31Z</time>
      </trkpt>
      <trkpt lat="42.466046000" lon="-2.414773000">
        <ele>365.40</ele>
        <time>2016-10-22T09:03:32Z</time>
      </trkpt>
      <trkpt lat="42.466077000" lon="-2.414860000">
        <ele>365.40</ele>
        <time>2016-10-22T09:03:33Z</time>
      </trkpt>
      <trkpt lat="42.466108000" lon="-2.414944000">
        <ele>365.40</ele>
        <time>2016-10-22T09:03:34Z</time>
      </trkpt>
      <trkpt lat="42.466140000" lon="-2.415028000">
        <ele>365.40</ele>
        <time>2016-10-22T09:03:35Z</time>
      </trkpt>
      <trkpt lat="42.466166000" lon="-2.415116000">
        <ele>365.40</ele>
        <time>2016-10-22T09:03:36Z</time>
      </trkpt>
      <trkpt lat="42.466192000" lon="-2.415205000">
        <ele>365.50</ele>
        <time>2016-10-22T09:03:37Z</time>
      </trkpt>
      <trkpt lat="42.466215000" lon="-2.415296000">
        <ele>365.60</ele>
        <time>2016-10-22T09:03:38Z</time>
      </trkpt>
      <trkpt lat="42.466238000" lon="-2.415383000">
        <ele>365.70</ele>
        <time>2016-10-22T09:03:39Z</time>
      </trkpt>
      <trkpt lat="42.466262000" lon="-2.415464000">
        <ele>365.80</ele>
        <time>2016-10-22T09:03:40Z</time>
      </trkpt>
      <trkpt lat="42.466283000" lon="-2.415537000">
        <ele>365.80</ele>
        <time>2016-10-22T09:03:41Z</time>
      </trkpt>
      <trkpt lat="42.466303000" lon="-2.415601000">
        <ele>365.80</ele>
        <time>2016-10-22T09:03:42Z</time>
      </trkpt>
      <trkpt lat="42.466321000" lon="-2.415664000">
        <ele>365.90</ele>
        <time>2016-10-22T09:03:43Z</time>
      </trkpt>
      <trkpt lat="42.466345000" lon="-2.415736000">
        <ele>366.00</ele>
        <time>2016-10-22T09:03:44Z</time>
      </trkpt>
      <trkpt lat="42.466376000" lon="-2.415804000">
        <ele>366.20</ele>
        <time>2016-10-22T09:03:45Z</time>
      </trkpt>
      <trkpt lat="42.466406000" lon="-2.415870000">
        <ele>366.40</ele>
        <time>2016-10-22T09:03:46Z</time>
      </trkpt>
      <trkpt lat="42.466432000" lon="-2.415943000">
        <ele>366.60</ele>
        <time>2016-10-22T09:03:47Z</time>
      </trkpt>
      <trkpt lat="42.466458000" lon="-2.416016000">
        <ele>366.70</ele>
        <time>2016-10-22T09:03:48Z</time>
      </trkpt>
      <trkpt lat="42.466482000" lon="-2.416090000">
        <ele>366.70</ele>
        <time>2016-10-22T09:03:49Z</time>
      </trkpt>
      <trkpt lat="42.466507000" lon="-2.416164000">
        <ele>366.80</ele>
        <time>2016-10-22T09:03:50Z</time>
      </trkpt>
      <trkpt lat="42.466533000" lon="-2.416240000">
        <ele>366.80</ele>
        <time>2016-10-22T09:03:51Z</time>
      </trkpt>
      <trkpt lat="42.466560000" lon="-2.416315000">
        <ele>366.90</ele>
        <time>2016-10-22T09:03:52Z</time>
      </trkpt>
      <trkpt lat="42.466585000" lon="-2.416391000">
        <ele>366.90</ele>
        <time>2016-10-22T09:03:53Z</time>
      </trkpt>
      <trkpt lat="42.466610000" lon="-2.416470000">
        <ele>366.90</ele>
        <time>2016-10-22T09:03:54Z</time>
      </trkpt>
      <trkpt lat="42.466633000" lon="-2.416545000">
        <ele>366.90</ele>
        <time>2016-10-22T09:03:55Z</time>
      </trkpt>
      <trkpt lat="42.466654000" lon="-2.416616000">
        <ele>366.90</ele>
        <time>2016-10-22T09:03:56Z</time>
      </trkpt>
      <trkpt lat="42.466670000" lon="-2.416684000">
        <ele>367.00</ele>
        <time>2016-10-22T09:03:57Z</time>
      </trkpt>
      <trkpt lat="42.466683000" lon="-2.416746000">
        <ele>367.10</ele>
        <time>2016-10-22T09:03:58Z</time>
      </trkpt>
      <trkpt lat="42.466692000" lon="-2.416803000">
        <ele>367.30</ele>
        <time>2016-10-22T09:03:59Z</time>
      </trkpt>
      <trkpt lat="42.466702000" lon="-2.416851000">
        <ele>367.50</ele>
        <time>2016-10-22T09:04:00Z</time>
      </trkpt>
      <trkpt lat="42.466715000" lon="-2.416892000">
        <ele>367.60</ele>
        <time>2016-10-22T09:04:01Z</time>
      </trkpt>
      <trkpt lat="42.466733000" lon="-2.416931000">
        <ele>367.80</ele>
        <time>2016-10-22T09:04:02Z</time>
      </trkpt>
      <trkpt lat="42.466757000" lon="-2.416968000">
        <ele>368.00</ele>
        <time>2016-10-22T09:04:03Z</time>
      </trkpt>
      <trkpt lat="42.466784000" lon="-2.417007000">
        <ele>368.10</ele>
        <time>2016-10-22T09:04:04Z</time>
      </trkpt>
      <trkpt lat="42.466810000" lon="-2.417049000">
        <ele>368.10</ele>
        <time>2016-10-22T09:04:05Z</time>
      </trkpt>
      <trkpt lat="42.466836000" lon="-2.417093000">
        <ele>368.20</ele>
        <time>2016-10-22T09:04:06Z</time>
      </trkpt>
      <trkpt lat="42.466865000" lon="-2.417136000">
        <ele>368.30</ele>
        <time>2016-10-22T09:04:07Z</time>
      </trkpt>
      <trkpt lat="42.466891000" lon="-2.417181000">
        <ele>368.40</ele>
        <time>2016-10-22T09:04:08Z</time>
      </trkpt>
      <trkpt lat="42.466917000" lon="-2.417222000">
        <ele>368.40</ele>
        <time>2016-10-22T09:04:09Z</time>
      </trkpt>
      <trkpt lat="42.466941000" lon="-2.417266000">
        <ele>368.60</ele>
        <time>2016-10-22T09:04:10Z</time>
      </trkpt>
      <trkpt lat="42.466961000" lon="-2.417308000">
        <ele>368.70</ele>
        <time>2016-10-22T09:04:11Z</time>
      </trkpt>
      <trkpt lat="42.466982000" lon="-2.417353000">
        <ele>368.80</ele>
        <time>2016-10-22T09:04:12Z</time>
      </trkpt>
      <trkpt lat="42.467005000" lon="-2.417395000">
        <ele>368.80</ele>
        <time>2016-10-22T09:04:13Z</time>
      </trkpt>
      <trkpt lat="42.467030000" lon="-2.417437000">
        <ele>368.90</ele>
        <time>2016-10-22T09:04:14Z</time>
      </trkpt>
      <trkpt lat="42.467054000" lon="-2.417481000">
        <ele>368.90</ele>
        <time>2016-10-22T09:04:15Z</time>
      </trkpt>
      <trkpt lat="42.467075000" lon="-2.417523000">
        <ele>369.00</ele>
        <time>2016-10-22T09:04:16Z</time>
      </trkpt>
      <trkpt lat="42.467095000" lon="-2.417565000">
        <ele>369.10</ele>
        <time>2016-10-22T09:04:17Z</time>
      </trkpt>
      <trkpt lat="42.467115000" lon="-2.417604000">
        <ele>369.20</ele>
        <time>2016-10-22T09:04:18Z</time>
      </trkpt>
      <trkpt lat="42.467132000" lon="-2.417652000">
        <ele>369.30</ele>
        <time>2016-10-22T09:04:19Z</time>
      </trkpt>
      <trkpt lat="42.467154000" lon="-2.417696000">
        <ele>369.40</ele>
        <time>2016-10-22T09:04:20Z</time>
      </trkpt>
      <trkpt lat="42.467178000" lon="-2.417743000">
        <ele>369.40</ele>
        <time>2016-10-22T09:04:21Z</time>
      </trkpt>
      <trkpt lat="42.467202000" lon="-2.417791000">
        <ele>369.30</ele>
        <time>2016-10-22T09:04:22Z</time>
      </trkpt>
      <trkpt lat="42.467224000" lon="-2.417839000">
        <ele>369.30</ele>
        <time>2016-10-22T09:04:23Z</time>
      </trkpt>
      <trkpt lat="42.467241000" lon="-2.417890000">
        <ele>369.10</ele>
        <time>2016-10-22T09:04:24Z</time>
      </trkpt>
      <trkpt lat="42.467266000" lon="-2.417990000">
        <ele>369.00</ele>
        <time>2016-10-22T09:04:26Z</time>
      </trkpt>
      <trkpt lat="42.467276000" lon="-2.418042000">
        <ele>369.00</ele>
        <time>2016-10-22T09:04:27Z</time>
      </trkpt>
      <trkpt lat="42.467273000" lon="-2.418097000">
        <ele>369.00</ele>
        <time>2016-10-22T09:04:28Z</time>
      </trkpt>
      <trkpt lat="42.467256000" lon="-2.418152000">
        <ele>369.00</ele>
        <time>2016-10-22T09:04:29Z</time>
      </trkpt>
      <trkpt lat="42.467227000" lon="-2.418212000">
        <ele>369.00</ele>
        <time>2016-10-22T09:04:30Z</time>
      </trkpt>
      <trkpt lat="42.467189000" lon="-2.418258000">
        <ele>369.00</ele>
        <time>2016-10-22T09:04:31Z</time>
      </trkpt>
      <trkpt lat="42.467145000" lon="-2.418302000">
        <ele>368.80</ele>
        <time>2016-10-22T09:04:32Z</time>
      </trkpt>
      <trkpt lat="42.467124000" lon="-2.418337000">
        <ele>368.70</ele>
        <time>2016-10-22T09:04:33Z</time>
      </trkpt>
      <trkpt lat="42.467129000" lon="-2.418361000">
        <ele>368.50</ele>
        <time>2016-10-22T09:04:34Z</time>
      </trkpt>
      <trkpt lat="42.467150000" lon="-2.418376000">
        <ele>368.40</ele>
        <time>2016-10-22T09:04:35Z</time>
      </trkpt>
      <trkpt lat="42.467185000" lon="-2.418393000">
        <ele>368.20</ele>
        <time>2016-10-22T09:04:36Z</time>
      </trkpt>
      <trkpt lat="42.467227000" lon="-2.418417000">
        <ele>368.00</ele>
        <time>2016-10-22T09:04:37Z</time>
      </trkpt>
      <trkpt lat="42.467270000" lon="-2.418451000">
        <ele>367.60</ele>
        <time>2016-10-22T09:04:38Z</time>
      </trkpt>
      <trkpt lat="42.467307000" lon="-2.418488000">
        <ele>367.30</ele>
        <time>2016-10-22T09:04:39Z</time>
      </trkpt>
      <trkpt lat="42.467337000" lon="-2.418544000">
        <ele>366.90</ele>
        <time>2016-10-22T09:04:40Z</time>
      </trkpt>
      <trkpt lat="42.467365000" lon="-2.418606000">
        <ele>366.60</ele>
        <time>2016-10-22T09:04:41Z</time>
      </trkpt>
      <trkpt lat="42.467391000" lon="-2.418669000">
        <ele>366.40</ele>
        <time>2016-10-22T09:04:42Z</time>
      </trkpt>
      <trkpt lat="42.467407000" lon="-2.418729000">
        <ele>366.20</ele>
        <time>2016-10-22T09:04:43Z</time>
      </trkpt>
      <trkpt lat="42.467417000" lon="-2.418792000">
        <ele>366.00</ele>
        <time>2016-10-22T09:04:44Z</time>
      </trkpt>
      <trkpt lat="42.467428000" lon="-2.418851000">
        <ele>365.80</ele>
        <time>2016-10-22T09:04:45Z</time>
      </trkpt>
      <trkpt lat="42.467438000" lon="-2.418908000">
        <ele>365.90</ele>
        <time>2016-10-22T09:04:46Z</time>
      </trkpt>
      <trkpt lat="42.467449000" lon="-2.418965000">
        <ele>365.90</ele>
        <time>2016-10-22T09:04:47Z</time>
      </trkpt>
      <trkpt lat="42.467455000" lon="-2.419020000">
        <ele>366.00</ele>
        <time>2016-10-22T09:04:48Z</time>
      </trkpt>
      <trkpt lat="42.467458000" lon="-2.419078000">
        <ele>366.10</ele>
        <time>2016-10-22T09:04:49Z</time>
      </trkpt>
      <trkpt lat="42.467467000" lon="-2.419134000">
        <ele>366.30</ele>
        <time>2016-10-22T09:04:50Z</time>
      </trkpt>
      <trkpt lat="42.467475000" lon="-2.419189000">
        <ele>366.50</ele>
        <time>2016-10-22T09:04:51Z</time>
      </trkpt>
      <trkpt lat="42.467487000" lon="-2.419242000">
        <ele>366.90</ele>
        <time>2016-10-22T09:04:52Z</time>
      </trkpt>
      <trkpt lat="42.467502000" lon="-2.419302000">
        <ele>367.10</ele>
        <time>2016-10-22T09:04:53Z</time>
      </trkpt>
      <trkpt lat="42.467522000" lon="-2.419350000">
        <ele>367.40</ele>
        <time>2016-10-22T09:04:54Z</time>
      </trkpt>
      <trkpt lat="42.467549000" lon="-2.419398000">
        <ele>367.60</ele>
        <time>2016-10-22T09:04:55Z</time>
      </trkpt>
      <trkpt lat="42.467578000" lon="-2.419444000">
        <ele>367.90</ele>
        <time>2016-10-22T09:04:56Z</time>
      </trkpt>
      <trkpt lat="42.467607000" lon="-2.419489000">
        <ele>368.20</ele>
        <time>2016-10-22T09:04:57Z</time>
      </trkpt>
      <trkpt lat="42.467629000" lon="-2.419534000">
        <ele>368.40</ele>
        <time>2016-10-22T09:04:58Z</time>
      </trkpt>
      <trkpt lat="42.467646000" lon="-2.419578000">
        <ele>368.50</ele>
        <time>2016-10-22T09:04:59Z</time>
      </trkpt>
      <trkpt lat="42.467662000" lon="-2.419629000">
        <ele>368.80</ele>
        <time>2016-10-22T09:05:00Z</time>
      </trkpt>
      <trkpt lat="42.467679000" lon="-2.419686000">
        <ele>368.90</ele>
        <time>2016-10-22T09:05:01Z</time>
      </trkpt>
      <trkpt lat="42.467695000" lon="-2.419749000">
        <ele>369.20</ele>
        <time>2016-10-22T09:05:02Z</time>
      </trkpt>
      <trkpt lat="42.467710000" lon="-2.419813000">
        <ele>369.40</ele>
        <time>2016-10-22T09:05:03Z</time>
      </trkpt>
      <trkpt lat="42.467726000" lon="-2.419875000">
        <ele>369.50</ele>
        <time>2016-10-22T09:05:04Z</time>
      </trkpt>
      <trkpt lat="42.467747000" lon="-2.419933000">
        <ele>369.70</ele>
        <time>2016-10-22T09:05:05Z</time>
      </trkpt>
      <trkpt lat="42.467771000" lon="-2.419991000">
        <ele>369.70</ele>
        <time>2016-10-22T09:05:06Z</time>
      </trkpt>
      <trkpt lat="42.467797000" lon="-2.420048000">
        <ele>369.80</ele>
        <time>2016-10-22T09:05:07Z</time>
      </trkpt>
      <trkpt lat="42.467823000" lon="-2.420104000">
        <ele>369.70</ele>
        <time>2016-10-22T09:05:08Z</time>
      </trkpt>
      <trkpt lat="42.467851000" lon="-2.420159000">
        <ele>369.70</ele>
        <time>2016-10-22T09:05:09Z</time>
      </trkpt>
      <trkpt lat="42.467879000" lon="-2.420212000">
        <ele>369.80</ele>
        <time>2016-10-22T09:05:10Z</time>
      </trkpt>
      <trkpt lat="42.467910000" lon="-2.420268000">
        <ele>369.90</ele>
        <time>2016-10-22T09:05:11Z</time>
      </trkpt>
      <trkpt lat="42.467941000" lon="-2.420323000">
        <ele>370.00</ele>
        <time>2016-10-22T09:05:12Z</time>
      </trkpt>
      <trkpt lat="42.467970000" lon="-2.420381000">
        <ele>370.10</ele>
        <time>2016-10-22T09:05:13Z</time>
      </trkpt>
      <trkpt lat="42.467999000" lon="-2.420439000">
        <ele>370.10</ele>
        <time>2016-10-22T09:05:14Z</time>
      </trkpt>
      <trkpt lat="42.468027000" lon="-2.420497000">
        <ele>370.20</ele>
        <time>2016-10-22T09:05:15Z</time>
      </trkpt>
      <trkpt lat="42.468058000" lon="-2.420551000">
        <ele>370.20</ele>
        <time>2016-10-22T09:05:16Z</time>
      </trkpt>
      <trkpt lat="42.468091000" lon="-2.420602000">
        <ele>370.20</ele>
        <time>2016-10-22T09:05:17Z</time>
      </trkpt>
      <trkpt lat="42.468124000" lon="-2.420648000">
        <ele>370.20</ele>
        <time>2016-10-22T09:05:18Z</time>
      </trkpt>
      <trkpt lat="42.468156000" lon="-2.420698000">
        <ele>370.20</ele>
        <time>2016-10-22T09:05:19Z</time>
      </trkpt>
      <trkpt lat="42.468183000" lon="-2.420752000">
        <ele>370.20</ele>
        <time>2016-10-22T09:05:20Z</time>
      </trkpt>
      <trkpt lat="42.468203000" lon="-2.420813000">
        <ele>370.20</ele>
        <time>2016-10-22T09:05:21Z</time>
      </trkpt>
      <trkpt lat="42.468221000" lon="-2.420872000">
        <ele>370.20</ele>
        <time>2016-10-22T09:05:22Z</time>
      </trkpt>
      <trkpt lat="42.468237000" lon="-2.420934000">
        <ele>370.20</ele>
        <time>2016-10-22T09:05:23Z</time>
      </trkpt>
      <trkpt lat="42.468256000" lon="-2.420996000">
        <ele>370.20</ele>
        <time>2016-10-22T09:05:24Z</time>
      </trkpt>
      <trkpt lat="42.468276000" lon="-2.421059000">
        <ele>370.20</ele>
        <time>2016-10-22T09:05:25Z</time>
      </trkpt>
      <trkpt lat="42.468333000" lon="-2.421182000">
        <ele>370.30</ele>
        <time>2016-10-22T09:05:27Z</time>
      </trkpt>
      <trkpt lat="42.468366000" lon="-2.421238000">
        <ele>370.30</ele>
        <time>2016-10-22T09:05:28Z</time>
      </trkpt>
      <trkpt lat="42.468402000" lon="-2.421292000">
        <ele>370.30</ele>
        <time>2016-10-22T09:05:29Z</time>
      </trkpt>
      <trkpt lat="42.468434000" lon="-2.421349000">
        <ele>370.20</ele>
        <time>2016-10-22T09:05:30Z</time>
      </trkpt>
      <trkpt lat="42.468464000" lon="-2.421408000">
        <ele>370.10</ele>
        <time>2016-10-22T09:05:31Z</time>
      </trkpt>
      <trkpt lat="42.468491000" lon="-2.421470000">
        <ele>370.00</ele>
        <time>2016-10-22T09:05:32Z</time>
      </trkpt>
      <trkpt lat="42.468516000" lon="-2.421529000">
        <ele>370.00</ele>
        <time>2016-10-22T09:05:33Z</time>
      </trkpt>
      <trkpt lat="42.468543000" lon="-2.421586000">
        <ele>369.90</ele>
        <time>2016-10-22T09:05:34Z</time>
      </trkpt>
      <trkpt lat="42.468574000" lon="-2.421640000">
        <ele>369.90</ele>
        <time>2016-10-22T09:05:35Z</time>
      </trkpt>
      <trkpt lat="42.468609000" lon="-2.421692000">
        <ele>369.80</ele>
        <time>2016-10-22T09:05:36Z</time>
      </trkpt>
      <trkpt lat="42.468644000" lon="-2.421740000">
        <ele>369.80</ele>
        <time>2016-10-22T09:05:37Z</time>
      </trkpt>
      <trkpt lat="42.468678000" lon="-2.421791000">
        <ele>369.80</ele>
        <time>2016-10-22T09:05:38Z</time>
      </trkpt>
      <trkpt lat="42.468709000" lon="-2.421847000">
        <ele>369.80</ele>
        <time>2016-10-22T09:05:39Z</time>
      </trkpt>
      <trkpt lat="42.468734000" lon="-2.421908000">
        <ele>369.80</ele>
        <time>2016-10-22T09:05:40Z</time>
      </trkpt>
      <trkpt lat="42.468752000" lon="-2.421972000">
        <ele>369.80</ele>
        <time>2016-10-22T09:05:41Z</time>
      </trkpt>
      <trkpt lat="42.468766000" lon="-2.422037000">
        <ele>369.70</ele>
        <time>2016-10-22T09:05:42Z</time>
      </trkpt>
      <trkpt lat="42.468775000" lon="-2.422101000">
        <ele>369.60</ele>
        <time>2016-10-22T09:05:43Z</time>
      </trkpt>
      <trkpt lat="42.468776000" lon="-2.422164000">
        <ele>369.60</ele>
        <time>2016-10-22T09:05:44Z</time>
      </trkpt>
      <trkpt lat="42.468764000" lon="-2.422224000">
        <ele>369.60</ele>
        <time>2016-10-22T09:05:45Z</time>
      </trkpt>
      <trkpt lat="42.468744000" lon="-2.422280000">
        <ele>369.60</ele>
        <time>2016-10-22T09:05:46Z</time>
      </trkpt>
      <trkpt lat="42.468730000" lon="-2.422335000">
        <ele>369.60</ele>
        <time>2016-10-22T09:05:47Z</time>
      </trkpt>
      <trkpt lat="42.468724000" lon="-2.422391000">
        <ele>369.70</ele>
        <time>2016-10-22T09:05:48Z</time>
      </trkpt>
      <trkpt lat="42.468733000" lon="-2.422444000">
        <ele>369.80</ele>
        <time>2016-10-22T09:05:49Z</time>
      </trkpt>
      <trkpt lat="42.468759000" lon="-2.422499000">
        <ele>369.80</ele>
        <time>2016-10-22T09:05:50Z</time>
      </trkpt>
      <trkpt lat="42.468789000" lon="-2.422549000">
        <ele>369.80</ele>
        <time>2016-10-22T09:05:51Z</time>
      </trkpt>
      <trkpt lat="42.468824000" lon="-2.422597000">
        <ele>369.80</ele>
        <time>2016-10-22T09:05:52Z</time>
      </trkpt>
      <trkpt lat="42.468857000" lon="-2.422644000">
        <ele>369.90</ele>
        <time>2016-10-22T09:05:53Z</time>
      </trkpt>
      <trkpt lat="42.468890000" lon="-2.422689000">
        <ele>369.90</ele>
        <time>2016-10-22T09:05:54Z</time>
      </trkpt>
      <trkpt lat="42.468922000" lon="-2.422732000">
        <ele>369.90</ele>
        <time>2016-10-22T09:05:55Z</time>
      </trkpt>
      <trkpt lat="42.468955000" lon="-2.422778000">
        <ele>369.90</ele>
        <time>2016-10-22T09:05:56Z</time>
      </trkpt>
      <trkpt lat="42.468989000" lon="-2.422822000">
        <ele>370.00</ele>
        <time>2016-10-22T09:05:57Z</time>
      </trkpt>
      <trkpt lat="42.469022000" lon="-2.422870000">
        <ele>369.90</ele>
        <time>2016-10-22T09:05:58Z</time>
      </trkpt>
      <trkpt lat="42.469054000" lon="-2.422919000">
        <ele>369.90</ele>
        <time>2016-10-22T09:05:59Z</time>
      </trkpt>
      <trkpt lat="42.469086000" lon="-2.422969000">
        <ele>369.80</ele>
        <time>2016-10-22T09:06:00Z</time>
      </trkpt>
      <trkpt lat="42.469119000" lon="-2.423017000">
        <ele>369.80</ele>
        <time>2016-10-22T09:06:01Z</time>
      </trkpt>
      <trkpt lat="42.469153000" lon="-2.423068000">
        <ele>369.80</ele>
        <time>2016-10-22T09:06:02Z</time>
      </trkpt>
      <trkpt lat="42.469184000" lon="-2.423118000">
        <ele>369.80</ele>
        <time>2016-10-22T09:06:03Z</time>
      </trkpt>
      <trkpt lat="42.469213000" lon="-2.423167000">
        <ele>369.90</ele>
        <time>2016-10-22T09:06:04Z</time>
      </trkpt>
      <trkpt lat="42.469241000" lon="-2.423219000">
        <ele>370.10</ele>
        <time>2016-10-22T09:06:05Z</time>
      </trkpt>
      <trkpt lat="42.469272000" lon="-2.423269000">
        <ele>370.00</ele>
        <time>2016-10-22T09:06:06Z</time>
      </trkpt>
      <trkpt lat="42.469303000" lon="-2.423319000">
        <ele>370.00</ele>
        <time>2016-10-22T09:06:07Z</time>
      </trkpt>
      <trkpt lat="42.469330000" lon="-2.423375000">
        <ele>370.00</ele>
        <time>2016-10-22T09:06:08Z</time>
      </trkpt>
      <trkpt lat="42.469353000" lon="-2.423435000">
        <ele>370.10</ele>
        <time>2016-10-22T09:06:09Z</time>
      </trkpt>
      <trkpt lat="42.469375000" lon="-2.423496000">
        <ele>370.10</ele>
        <time>2016-10-22T09:06:10Z</time>
      </trkpt>
      <trkpt lat="42.469396000" lon="-2.423557000">
        <ele>370.10</ele>
        <time>2016-10-22T09:06:11Z</time>
      </trkpt>
      <trkpt lat="42.469413000" lon="-2.423619000">
        <ele>370.30</ele>
        <time>2016-10-22T09:06:12Z</time>
      </trkpt>
      <trkpt lat="42.469428000" lon="-2.423681000">
        <ele>370.40</ele>
        <time>2016-10-22T09:06:13Z</time>
      </trkpt>
      <trkpt lat="42.469442000" lon="-2.423743000">
        <ele>370.40</ele>
        <time>2016-10-22T09:06:14Z</time>
      </trkpt>
      <trkpt lat="42.469455000" lon="-2.423804000">
        <ele>370.50</ele>
        <time>2016-10-22T09:06:15Z</time>
      </trkpt>
      <trkpt lat="42.469468000" lon="-2.423867000">
        <ele>370.30</ele>
        <time>2016-10-22T09:06:16Z</time>
      </trkpt>
      <trkpt lat="42.469475000" lon="-2.423932000">
        <ele>370.10</ele>
        <time>2016-10-22T09:06:17Z</time>
      </trkpt>
      <trkpt lat="42.469478000" lon="-2.424000000">
        <ele>370.00</ele>
        <time>2016-10-22T09:06:18Z</time>
      </trkpt>
      <trkpt lat="42.469479000" lon="-2.424065000">
        <ele>369.90</ele>
        <time>2016-10-22T09:06:19Z</time>
      </trkpt>
      <trkpt lat="42.469477000" lon="-2.424132000">
        <ele>369.90</ele>
        <time>2016-10-22T09:06:20Z</time>
      </trkpt>
      <trkpt lat="42.469469000" lon="-2.424196000">
        <ele>369.90</ele>
        <time>2016-10-22T09:06:21Z</time>
      </trkpt>
      <trkpt lat="42.469464000" lon="-2.424265000">
        <ele>369.90</ele>
        <time>2016-10-22T09:06:22Z</time>
      </trkpt>
      <trkpt lat="42.469456000" lon="-2.424335000">
        <ele>369.90</ele>
        <time>2016-10-22T09:06:23Z</time>
      </trkpt>
      <trkpt lat="42.469453000" lon="-2.424402000">
        <ele>370.00</ele>
        <time>2016-10-22T09:06:24Z</time>
      </trkpt>
      <trkpt lat="42.469445000" lon="-2.424470000">
        <ele>370.00</ele>
        <time>2016-10-22T09:06:25Z</time>
      </trkpt>
      <trkpt lat="42.469434000" lon="-2.424536000">
        <ele>369.90</ele>
        <time>2016-10-22T09:06:26Z</time>
      </trkpt>
      <trkpt lat="42.469422000" lon="-2.424669000">
        <ele>369.90</ele>
        <time>2016-10-22T09:06:28Z</time>
      </trkpt>
      <trkpt lat="42.469414000" lon="-2.424736000">
        <ele>370.00</ele>
        <time>2016-10-22T09:06:29Z</time>
      </trkpt>
      <trkpt lat="42.469403000" lon="-2.424804000">
        <ele>370.00</ele>
        <time>2016-10-22T09:06:30Z</time>
      </trkpt>
      <trkpt lat="42.469395000" lon="-2.424868000">
        <ele>370.10</ele>
        <time>2016-10-22T09:06:31Z</time>
      </trkpt>
      <trkpt lat="42.469393000" lon="-2.424927000">
        <ele>370.30</ele>
        <time>2016-10-22T09:06:32Z</time>
      </trkpt>
      <trkpt lat="42.469386000" lon="-2.424989000">
        <ele>370.50</ele>
        <time>2016-10-22T09:06:33Z</time>
      </trkpt>
      <trkpt lat="42.469379000" lon="-2.425050000">
        <ele>370.60</ele>
        <time>2016-10-22T09:06:34Z</time>
      </trkpt>
      <trkpt lat="42.469371000" lon="-2.425106000">
        <ele>370.80</ele>
        <time>2016-10-22T09:06:35Z</time>
      </trkpt>
      <trkpt lat="42.469361000" lon="-2.425161000">
        <ele>371.20</ele>
        <time>2016-10-22T09:06:36Z</time>
      </trkpt>
      <trkpt lat="42.469354000" lon="-2.425216000">
        <ele>371.50</ele>
        <time>2016-10-22T09:06:37Z</time>
      </trkpt>
      <trkpt lat="42.469354000" lon="-2.425276000">
        <ele>372.00</ele>
        <time>2016-10-22T09:06:38Z</time>
      </trkpt>
      <trkpt lat="42.469366000" lon="-2.425336000">
        <ele>372.30</ele>
        <time>2016-10-22T09:06:39Z</time>
      </trkpt>
      <trkpt lat="42.469389000" lon="-2.425393000">
        <ele>372.60</ele>
        <time>2016-10-22T09:06:40Z</time>
      </trkpt>
      <trkpt lat="42.469416000" lon="-2.425451000">
        <ele>372.80</ele>
        <time>2016-10-22T09:06:41Z</time>
      </trkpt>
      <trkpt lat="42.469442000" lon="-2.425509000">
        <ele>373.10</ele>
        <time>2016-10-22T09:06:42Z</time>
      </trkpt>
      <trkpt lat="42.469464000" lon="-2.425569000">
        <ele>373.30</ele>
        <time>2016-10-22T09:06:43Z</time>
      </trkpt>
      <trkpt lat="42.469487000" lon="-2.425633000">
        <ele>373.40</ele>
        <time>2016-10-22T09:06:44Z</time>
      </trkpt>
      <trkpt lat="42.469510000" lon="-2.425696000">
        <ele>373.50</ele>
        <time>2016-10-22T09:06:45Z</time>
      </trkpt>
      <trkpt lat="42.469531000" lon="-2.425763000">
        <ele>373.70</ele>
        <time>2016-10-22T09:06:46Z</time>
      </trkpt>
      <trkpt lat="42.469553000" lon="-2.425829000">
        <ele>373.80</ele>
        <time>2016-10-22T09:06:47Z</time>
      </trkpt>
      <trkpt lat="42.469576000" lon="-2.425893000">
        <ele>373.90</ele>
        <time>2016-10-22T09:06:48Z</time>
      </trkpt>
      <trkpt lat="42.469600000" lon="-2.425953000">
        <ele>374.00</ele>
        <time>2016-10-22T09:06:49Z</time>
      </trkpt>
      <trkpt lat="42.469625000" lon="-2.426010000">
        <ele>374.10</ele>
        <time>2016-10-22T09:06:50Z</time>
      </trkpt>
      <trkpt lat="42.469644000" lon="-2.426073000">
        <ele>374.10</ele>
        <time>2016-10-22T09:06:51Z</time>
      </trkpt>
      <trkpt lat="42.469665000" lon="-2.426136000">
        <ele>373.90</ele>
        <time>2016-10-22T09:06:52Z</time>
      </trkpt>
      <trkpt lat="42.469686000" lon="-2.426198000">
        <ele>373.70</ele>
        <time>2016-10-22T09:06:53Z</time>
      </trkpt>
      <trkpt lat="42.469706000" lon="-2.426263000">
        <ele>373.70</ele>
        <time>2016-10-22T09:06:54Z</time>
      </trkpt>
      <trkpt lat="42.469728000" lon="-2.426328000">
        <ele>373.70</ele>
        <time>2016-10-22T09:06:55Z</time>
      </trkpt>
      <trkpt lat="42.469750000" lon="-2.426393000">
        <ele>373.60</ele>
        <time>2016-10-22T09:06:56Z</time>
      </trkpt>
      <trkpt lat="42.469772000" lon="-2.426458000">
        <ele>373.60</ele>
        <time>2016-10-22T09:06:57Z</time>
      </trkpt>
      <trkpt lat="42.469795000" lon="-2.426526000">
        <ele>373.70</ele>
        <time>2016-10-22T09:06:58Z</time>
      </trkpt>
      <trkpt lat="42.469817000" lon="-2.426593000">
        <ele>373.70</ele>
        <time>2016-10-22T09:06:59Z</time>
      </trkpt>
      <trkpt lat="42.469841000" lon="-2.426661000">
        <ele>373.70</ele>
        <time>2016-10-22T09:07:00Z</time>
      </trkpt>
      <trkpt lat="42.469863000" lon="-2.426725000">
        <ele>373.80</ele>
        <time>2016-10-22T09:07:01Z</time>
      </trkpt>
      <trkpt lat="42.469886000" lon="-2.426791000">
        <ele>373.80</ele>
        <time>2016-10-22T09:07:02Z</time>
      </trkpt>
      <trkpt lat="42.469909000" lon="-2.426856000">
        <ele>373.90</ele>
        <time>2016-10-22T09:07:03Z</time>
      </trkpt>
      <trkpt lat="42.469933000" lon="-2.426918000">
        <ele>373.90</ele>
        <time>2016-10-22T09:07:04Z</time>
      </trkpt>
      <trkpt lat="42.469956000" lon="-2.426983000">
        <ele>373.90</ele>
        <time>2016-10-22T09:07:05Z</time>
      </trkpt>
      <trkpt lat="42.469979000" lon="-2.427047000">
        <ele>373.90</ele>
        <time>2016-10-22T09:07:06Z</time>
      </trkpt>
      <trkpt lat="42.470004000" lon="-2.427111000">
        <ele>374.00</ele>
        <time>2016-10-22T09:07:07Z</time>
      </trkpt>
      <trkpt lat="42.470031000" lon="-2.427176000">
        <ele>374.00</ele>
        <time>2016-10-22T09:07:08Z</time>
      </trkpt>
      <trkpt lat="42.470055000" lon="-2.427242000">
        <ele>374.00</ele>
        <time>2016-10-22T09:07:09Z</time>
      </trkpt>
      <trkpt lat="42.470076000" lon="-2.427312000">
        <ele>374.00</ele>
        <time>2016-10-22T09:07:10Z</time>
      </trkpt>
      <trkpt lat="42.470097000" lon="-2.427380000">
        <ele>374.00</ele>
        <time>2016-10-22T09:07:11Z</time>
      </trkpt>
      <trkpt lat="42.470121000" lon="-2.427448000">
        <ele>374.10</ele>
        <time>2016-10-22T09:07:12Z</time>
      </trkpt>
      <trkpt lat="42.470142000" lon="-2.427517000">
        <ele>374.20</ele>
        <time>2016-10-22T09:07:13Z</time>
      </trkpt>
      <trkpt lat="42.470163000" lon="-2.427585000">
        <ele>374.20</ele>
        <time>2016-10-22T09:07:14Z</time>
      </trkpt>
      <trkpt lat="42.470185000" lon="-2.427653000">
        <ele>374.20</ele>
        <time>2016-10-22T09:07:15Z</time>
      </trkpt>
      <trkpt lat="42.470207000" lon="-2.427722000">
        <ele>374.30</ele>
        <time>2016-10-22T09:07:16Z</time>
      </trkpt>
      <trkpt lat="42.470232000" lon="-2.427789000">
        <ele>374.40</ele>
        <time>2016-10-22T09:07:17Z</time>
      </trkpt>
      <trkpt lat="42.470258000" lon="-2.427855000">
        <ele>374.50</ele>
        <time>2016-10-22T09:07:18Z</time>
      </trkpt>
      <trkpt lat="42.470285000" lon="-2.427926000">
        <ele>374.60</ele>
        <time>2016-10-22T09:07:19Z</time>
      </trkpt>
      <trkpt lat="42.470309000" lon="-2.427995000">
        <ele>374.70</ele>
        <time>2016-10-22T09:07:20Z</time>
      </trkpt>
      <trkpt lat="42.470333000" lon="-2.428066000">
        <ele>374.70</ele>
        <time>2016-10-22T09:07:21Z</time>
      </trkpt>
      <trkpt lat="42.470360000" lon="-2.428135000">
        <ele>374.70</ele>
        <time>2016-10-22T09:07:22Z</time>
      </trkpt>
      <trkpt lat="42.470385000" lon="-2.428204000">
        <ele>374.80</ele>
        <time>2016-10-22T09:07:23Z</time>
      </trkpt>
      <trkpt lat="42.470409000" lon="-2.428275000">
        <ele>374.70</ele>
        <time>2016-10-22T09:07:24Z</time>
      </trkpt>
      <trkpt lat="42.470434000" lon="-2.428343000">
        <ele>374.60</ele>
        <time>2016-10-22T09:07:25Z</time>
      </trkpt>
      <trkpt lat="42.470459000" lon="-2.428411000">
        <ele>374.50</ele>
        <time>2016-10-22T09:07:26Z</time>
      </trkpt>
      <trkpt lat="42.470483000" lon="-2.428480000">
        <ele>374.50</ele>
        <time>2016-10-22T09:07:27Z</time>
      </trkpt>
      <trkpt lat="42.470533000" lon="-2.428618000">
        <ele>374.40</ele>
        <time>2016-10-22T09:07:29Z</time>
      </trkpt>
      <trkpt lat="42.470559000" lon="-2.428689000">
        <ele>374.40</ele>
        <time>2016-10-22T09:07:30Z</time>
      </trkpt>
      <trkpt lat="42.470587000" lon="-2.428758000">
        <ele>374.50</ele>
        <time>2016-10-22T09:07:31Z</time>
      </trkpt>
      <trkpt lat="42.470615000" lon="-2.428826000">
        <ele>374.40</ele>
        <time>2016-10-22T09:07:32Z</time>
      </trkpt>
      <trkpt lat="42.470644000" lon="-2.428894000">
        <ele>374.30</ele>
        <time>2016-10-22T09:07:33Z</time>
      </trkpt>
      <trkpt lat="42.470672000" lon="-2.428964000">
        <ele>374.20</ele>
        <time>2016-10-22T09:07:34Z</time>
      </trkpt>
      <trkpt lat="42.470697000" lon="-2.429034000">
        <ele>374.20</ele>
        <time>2016-10-22T09:07:35Z</time>
      </trkpt>
      <trkpt lat="42.470724000" lon="-2.429105000">
        <ele>374.20</ele>
        <time>2016-10-22T09:07:36Z</time>
      </trkpt>
      <trkpt lat="42.470752000" lon="-2.429175000">
        <ele>374.10</ele>
        <time>2016-10-22T09:07:37Z</time>
      </trkpt>
      <trkpt lat="42.470780000" lon="-2.429244000">
        <ele>374.10</ele>
        <time>2016-10-22T09:07:38Z</time>
      </trkpt>
      <trkpt lat="42.470810000" lon="-2.429312000">
        <ele>374.10</ele>
        <time>2016-10-22T09:07:39Z</time>
      </trkpt>
      <trkpt lat="42.470837000" lon="-2.429378000">
        <ele>374.20</ele>
        <time>2016-10-22T09:07:40Z</time>
      </trkpt>
      <trkpt lat="42.470865000" lon="-2.429445000">
        <ele>374.20</ele>
        <time>2016-10-22T09:07:41Z</time>
      </trkpt>
      <trkpt lat="42.470889000" lon="-2.429510000">
        <ele>374.40</ele>
        <time>2016-10-22T09:07:42Z</time>
      </trkpt>
      <trkpt lat="42.470911000" lon="-2.429573000">
        <ele>374.50</ele>
        <time>2016-10-22T09:07:43Z</time>
      </trkpt>
      <trkpt lat="42.470929000" lon="-2.429629000">
        <ele>374.70</ele>
        <time>2016-10-22T09:07:44Z</time>
      </trkpt>
      <trkpt lat="42.470952000" lon="-2.429680000">
        <ele>374.90</ele>
        <time>2016-10-22T09:07:45Z</time>
      </trkpt>
      <trkpt lat="42.470975000" lon="-2.429728000">
        <ele>375.10</ele>
        <time>2016-10-22T09:07:46Z</time>
      </trkpt>
      <trkpt lat="42.470997000" lon="-2.429776000">
        <ele>375.20</ele>
        <time>2016-10-22T09:07:47Z</time>
      </trkpt>
      <trkpt lat="42.471025000" lon="-2.429825000">
        <ele>375.40</ele>
        <time>2016-10-22T09:07:48Z</time>
      </trkpt>
      <trkpt lat="42.471051000" lon="-2.429871000">
        <ele>375.60</ele>
        <time>2016-10-22T09:07:49Z</time>
      </trkpt>
      <trkpt lat="42.471077000" lon="-2.429918000">
        <ele>375.80</ele>
        <time>2016-10-22T09:07:50Z</time>
      </trkpt>
      <trkpt lat="42.471106000" lon="-2.429963000">
        <ele>375.90</ele>
        <time>2016-10-22T09:07:51Z</time>
      </trkpt>
      <trkpt lat="42.471134000" lon="-2.430007000">
        <ele>375.90</ele>
        <time>2016-10-22T09:07:52Z</time>
      </trkpt>
      <trkpt lat="42.471159000" lon="-2.430051000">
        <ele>376.00</ele>
        <time>2016-10-22T09:07:53Z</time>
      </trkpt>
      <trkpt lat="42.471186000" lon="-2.430095000">
        <ele>376.10</ele>
        <time>2016-10-22T09:07:54Z</time>
      </trkpt>
      <trkpt lat="42.471214000" lon="-2.430144000">
        <ele>376.20</ele>
        <time>2016-10-22T09:07:55Z</time>
      </trkpt>
      <trkpt lat="42.471242000" lon="-2.430193000">
        <ele>376.20</ele>
        <time>2016-10-22T09:07:56Z</time>
      </trkpt>
      <trkpt lat="42.471270000" lon="-2.430242000">
        <ele>376.30</ele>
        <time>2016-10-22T09:07:57Z</time>
      </trkpt>
      <trkpt lat="42.471300000" lon="-2.430295000">
        <ele>376.10</ele>
        <time>2016-10-22T09:07:58Z</time>
      </trkpt>
      <trkpt lat="42.471332000" lon="-2.430348000">
        <ele>376.00</ele>
        <time>2016-10-22T09:07:59Z</time>
      </trkpt>
      <trkpt lat="42.471365000" lon="-2.430403000">
        <ele>375.90</ele>
        <time>2016-10-22T09:08:00Z</time>
      </trkpt>
      <trkpt lat="42.471396000" lon="-2.430459000">
        <ele>375.80</ele>
        <time>2016-10-22T09:08:01Z</time>
      </trkpt>
      <trkpt lat="42.471429000" lon="-2.430512000">
        <ele>375.60</ele>
        <time>2016-10-22T09:08:02Z</time>
      </trkpt>
      <trkpt lat="42.471462000" lon="-2.430567000">
        <ele>375.50</ele>
        <time>2016-10-22T09:08:03Z</time>
      </trkpt>
      <trkpt lat="42.471493000" lon="-2.430628000">
        <ele>375.40</ele>
        <time>2016-10-22T09:08:04Z</time>
      </trkpt>
      <trkpt lat="42.471519000" lon="-2.430692000">
        <ele>375.40</ele>
        <time>2016-10-22T09:08:05Z</time>
      </trkpt>
      <trkpt lat="42.471542000" lon="-2.430762000">
        <ele>375.50</ele>
        <time>2016-10-22T09:08:06Z</time>
      </trkpt>
      <trkpt lat="42.471562000" lon="-2.430832000">
        <ele>375.60</ele>
        <time>2016-10-22T09:08:07Z</time>
      </trkpt>
      <trkpt lat="42.471578000" lon="-2.430904000">
        <ele>375.70</ele>
        <time>2016-10-22T09:08:08Z</time>
      </trkpt>
      <trkpt lat="42.471590000" lon="-2.430978000">
        <ele>375.80</ele>
        <time>2016-10-22T09:08:09Z</time>
      </trkpt>
      <trkpt lat="42.471602000" lon="-2.431051000">
        <ele>375.60</ele>
        <time>2016-10-22T09:08:10Z</time>
      </trkpt>
      <trkpt lat="42.471613000" lon="-2.431125000">
        <ele>375.40</ele>
        <time>2016-10-22T09:08:11Z</time>
      </trkpt>
      <trkpt lat="42.471622000" lon="-2.431200000">
        <ele>375.20</ele>
        <time>2016-10-22T09:08:12Z</time>
      </trkpt>
      <trkpt lat="42.471628000" lon="-2.431275000">
        <ele>375.10</ele>
        <time>2016-10-22T09:08:13Z</time>
      </trkpt>
      <trkpt lat="42.471634000" lon="-2.431351000">
        <ele>375.00</ele>
        <time>2016-10-22T09:08:14Z</time>
      </trkpt>
      <trkpt lat="42.471638000" lon="-2.431428000">
        <ele>374.90</ele>
        <time>2016-10-22T09:08:15Z</time>
      </trkpt>
      <trkpt lat="42.471646000" lon="-2.431504000">
        <ele>374.80</ele>
        <time>2016-10-22T09:08:16Z</time>
      </trkpt>
      <trkpt lat="42.471656000" lon="-2.431579000">
        <ele>374.80</ele>
        <time>2016-10-22T09:08:17Z</time>
      </trkpt>
      <trkpt lat="42.471665000" lon="-2.431656000">
        <ele>374.80</ele>
        <time>2016-10-22T09:08:18Z</time>
      </trkpt>
      <trkpt lat="42.471674000" lon="-2.431735000">
        <ele>374.70</ele>
        <time>2016-10-22T09:08:19Z</time>
      </trkpt>
      <trkpt lat="42.471684000" lon="-2.431816000">
        <ele>374.70</ele>
        <time>2016-10-22T09:08:20Z</time>
      </trkpt>
      <trkpt lat="42.471695000" lon="-2.431897000">
        <ele>374.60</ele>
        <time>2016-10-22T09:08:21Z</time>
      </trkpt>
      <trkpt lat="42.471703000" lon="-2.431979000">
        <ele>374.60</ele>
        <time>2016-10-22T09:08:22Z</time>
      </trkpt>
      <trkpt lat="42.471711000" lon="-2.432063000">
        <ele>374.60</ele>
        <time>2016-10-22T09:08:23Z</time>
      </trkpt>
      <trkpt lat="42.471719000" lon="-2.432148000">
        <ele>374.50</ele>
        <time>2016-10-22T09:08:24Z</time>
      </trkpt>
      <trkpt lat="42.471726000" lon="-2.432234000">
        <ele>374.50</ele>
        <time>2016-10-22T09:08:25Z</time>
      </trkpt>
      <trkpt lat="42.471735000" lon="-2.432318000">
        <ele>374.40</ele>
        <time>2016-10-22T09:08:26Z</time>
      </trkpt>
      <trkpt lat="42.471744000" lon="-2.432403000">
        <ele>374.30</ele>
        <time>2016-10-22T09:08:27Z</time>
      </trkpt>
      <trkpt lat="42.471750000" lon="-2.432493000">
        <ele>374.20</ele>
        <time>2016-10-22T09:08:28Z</time>
      </trkpt>
      <trkpt lat="42.471766000" lon="-2.432669000">
        <ele>374.10</ele>
        <time>2016-10-22T09:08:30Z</time>
      </trkpt>
      <trkpt lat="42.471775000" lon="-2.432757000">
        <ele>374.10</ele>
        <time>2016-10-22T09:08:31Z</time>
      </trkpt>
      <trkpt lat="42.471780000" lon="-2.432847000">
        <ele>374.00</ele>
        <time>2016-10-22T09:08:32Z</time>
      </trkpt>
      <trkpt lat="42.471789000" lon="-2.432936000">
        <ele>374.00</ele>
        <time>2016-10-22T09:08:33Z</time>
      </trkpt>
      <trkpt lat="42.471796000" lon="-2.433026000">
        <ele>374.00</ele>
        <time>2016-10-22T09:08:34Z</time>
      </trkpt>
      <trkpt lat="42.471805000" lon="-2.433113000">
        <ele>374.00</ele>
        <time>2016-10-22T09:08:35Z</time>
      </trkpt>
      <trkpt lat="42.471812000" lon="-2.433199000">
        <ele>374.00</ele>
        <time>2016-10-22T09:08:36Z</time>
      </trkpt>
      <trkpt lat="42.471817000" lon="-2.433285000">
        <ele>374.00</ele>
        <time>2016-10-22T09:08:37Z</time>
      </trkpt>
      <trkpt lat="42.471822000" lon="-2.433370000">
        <ele>373.90</ele>
        <time>2016-10-22T09:08:38Z</time>
      </trkpt>
      <trkpt lat="42.471827000" lon="-2.433453000">
        <ele>373.80</ele>
        <time>2016-10-22T09:08:39Z</time>
      </trkpt>
      <trkpt lat="42.471831000" lon="-2.433535000">
        <ele>373.60</ele>
        <time>2016-10-22T09:08:40Z</time>
      </trkpt>
      <trkpt lat="42.471835000" lon="-2.433617000">
        <ele>373.50</ele>
        <time>2016-10-22T09:08:41Z</time>
      </trkpt>
      <trkpt lat="42.471839000" lon="-2.433697000">
        <ele>373.40</ele>
        <time>2016-10-22T09:08:42Z</time>
      </trkpt>
      <trkpt lat="42.471843000" lon="-2.433776000">
        <ele>373.30</ele>
        <time>2016-10-22T09:08:43Z</time>
      </trkpt>
      <trkpt lat="42.471848000" lon="-2.433855000">
        <ele>373.10</ele>
        <time>2016-10-22T09:08:44Z</time>
      </trkpt>
      <trkpt lat="42.471855000" lon="-2.433932000">
        <ele>373.10</ele>
        <time>2016-10-22T09:08:45Z</time>
      </trkpt>
      <trkpt lat="42.471864000" lon="-2.434013000">
        <ele>373.00</ele>
        <time>2016-10-22T09:08:46Z</time>
      </trkpt>
      <trkpt lat="42.471875000" lon="-2.434089000">
        <ele>372.90</ele>
        <time>2016-10-22T09:08:47Z</time>
      </trkpt>
      <trkpt lat="42.471891000" lon="-2.434164000">
        <ele>372.80</ele>
        <time>2016-10-22T09:08:48Z</time>
      </trkpt>
      <trkpt lat="42.471907000" lon="-2.434242000">
        <ele>372.90</ele>
        <time>2016-10-22T09:08:49Z</time>
      </trkpt>
      <trkpt lat="42.471920000" lon="-2.434321000">
        <ele>373.00</ele>
        <time>2016-10-22T09:08:50Z</time>
      </trkpt>
      <trkpt lat="42.471937000" lon="-2.434399000">
        <ele>373.00</ele>
        <time>2016-10-22T09:08:51Z</time>
      </trkpt>
      <trkpt lat="42.471956000" lon="-2.434478000">
        <ele>373.00</ele>
        <time>2016-10-22T09:08:52Z</time>
      </trkpt>
      <trkpt lat="42.471975000" lon="-2.434557000">
        <ele>373.00</ele>
        <time>2016-10-22T09:08:53Z</time>
      </trkpt>
      <trkpt lat="42.471997000" lon="-2.434634000">
        <ele>373.00</ele>
        <time>2016-10-22T09:08:54Z</time>
      </trkpt>
      <trkpt lat="42.472016000" lon="-2.434713000">
        <ele>373.00</ele>
        <time>2016-10-22T09:08:55Z</time>
      </trkpt>
      <trkpt lat="42.472034000" lon="-2.434790000">
        <ele>373.00</ele>
        <time>2016-10-22T09:08:56Z</time>
      </trkpt>
      <trkpt lat="42.472051000" lon="-2.434870000">
        <ele>373.00</ele>
        <time>2016-10-22T09:08:57Z</time>
      </trkpt>
      <trkpt lat="42.472068000" lon="-2.434949000">
        <ele>373.00</ele>
        <time>2016-10-22T09:08:58Z</time>
      </trkpt>
      <trkpt lat="42.472083000" lon="-2.435028000">
        <ele>373.00</ele>
        <time>2016-10-22T09:08:59Z</time>
      </trkpt>
      <trkpt lat="42.472100000" lon="-2.435110000">
        <ele>373.00</ele>
        <time>2016-10-22T09:09:00Z</time>
      </trkpt>
      <trkpt lat="42.472120000" lon="-2.435192000">
        <ele>372.90</ele>
        <time>2016-10-22T09:09:01Z</time>
      </trkpt>
      <trkpt lat="42.472138000" lon="-2.435273000">
        <ele>373.00</ele>
        <time>2016-10-22T09:09:02Z</time>
      </trkpt>
      <trkpt lat="42.472156000" lon="-2.435353000">
        <ele>373.10</ele>
        <time>2016-10-22T09:09:03Z</time>
      </trkpt>
      <trkpt lat="42.472175000" lon="-2.435434000">
        <ele>373.00</ele>
        <time>2016-10-22T09:09:04Z</time>
      </trkpt>
      <trkpt lat="42.472192000" lon="-2.435513000">
        <ele>372.90</ele>
        <time>2016-10-22T09:09:05Z</time>
      </trkpt>
      <trkpt lat="42.472206000" lon="-2.435592000">
        <ele>372.90</ele>
        <time>2016-10-22T09:09:06Z</time>
      </trkpt>
      <trkpt lat="42.472226000" lon="-2.435670000">
        <ele>372.90</ele>
        <time>2016-10-22T09:09:07Z</time>
      </trkpt>
      <trkpt lat="42.472242000" lon="-2.435748000">
        <ele>372.80</ele>
        <time>2016-10-22T09:09:08Z</time>
      </trkpt>
      <trkpt lat="42.472259000" lon="-2.435824000">
        <ele>372.70</ele>
        <time>2016-10-22T09:09:09Z</time>
      </trkpt>
      <trkpt lat="42.472276000" lon="-2.435899000">
        <ele>372.70</ele>
        <time>2016-10-22T09:09:10Z</time>
      </trkpt>
      <trkpt lat="42.472292000" lon="-2.435975000">
        <ele>372.70</ele>
        <time>2016-10-22T09:09:11Z</time>
      </trkpt>
      <trkpt lat="42.472311000" lon="-2.436048000">
        <ele>372.50</ele>
        <time>2016-10-22T09:09:12Z</time>
      </trkpt>
      <trkpt lat="42.472338000" lon="-2.436111000">
        <ele>372.40</ele>
        <time>2016-10-22T09:09:13Z</time>
      </trkpt>
      <trkpt lat="42.472373000" lon="-2.436173000">
        <ele>372.30</ele>
        <time>2016-10-22T09:09:14Z</time>
      </trkpt>
      <trkpt lat="42.472413000" lon="-2.436234000">
        <ele>372.30</ele>
        <time>2016-10-22T09:09:15Z</time>
      </trkpt>
      <trkpt lat="42.472451000" lon="-2.436294000">
        <ele>372.30</ele>
        <time>2016-10-22T09:09:16Z</time>
      </trkpt>
      <trkpt lat="42.472488000" lon="-2.436354000">
        <ele>372.30</ele>
        <time>2016-10-22T09:09:17Z</time>
      </trkpt>
      <trkpt lat="42.472526000" lon="-2.436417000">
        <ele>372.30</ele>
        <time>2016-10-22T09:09:18Z</time>
      </trkpt>
      <trkpt lat="42.472563000" lon="-2.436482000">
        <ele>372.40</ele>
        <time>2016-10-22T09:09:19Z</time>
      </trkpt>
      <trkpt lat="42.472601000" lon="-2.436545000">
        <ele>372.40</ele>
        <time>2016-10-22T09:09:20Z</time>
      </trkpt>
      <trkpt lat="42.472634000" lon="-2.436609000">
        <ele>372.40</ele>
        <time>2016-10-22T09:09:21Z</time>
      </trkpt>
      <trkpt lat="42.472659000" lon="-2.436673000">
        <ele>372.40</ele>
        <time>2016-10-22T09:09:22Z</time>
      </trkpt>
      <trkpt lat="42.472675000" lon="-2.436729000">
        <ele>372.40</ele>
        <time>2016-10-22T09:09:23Z</time>
      </trkpt>
      <trkpt lat="42.472676000" lon="-2.436778000">
        <ele>372.20</ele>
        <time>2016-10-22T09:09:24Z</time>
      </trkpt>
      <trkpt lat="42.472664000" lon="-2.436824000">
        <ele>372.10</ele>
        <time>2016-10-22T09:09:25Z</time>
      </trkpt>
      <trkpt lat="42.472637000" lon="-2.436862000">
        <ele>372.00</ele>
        <time>2016-10-22T09:09:26Z</time>
      </trkpt>
      <trkpt lat="42.472601000" lon="-2.436896000">
        <ele>371.90</ele>
        <time>2016-10-22T09:09:27Z</time>
      </trkpt>
      <trkpt lat="42.472562000" lon="-2.436936000">
        <ele>371.80</ele>
        <time>2016-10-22T09:09:28Z</time>
      </trkpt>
      <trkpt lat="42.472524000" lon="-2.436981000">
        <ele>371.70</ele>
        <time>2016-10-22T09:09:29Z</time>
      </trkpt>
      <trkpt lat="42.472446000" lon="-2.437079000">
        <ele>371.70</ele>
        <time>2016-10-22T09:09:31Z</time>
      </trkpt>
      <trkpt lat="42.472404000" lon="-2.437129000">
        <ele>371.60</ele>
        <time>2016-10-22T09:09:32Z</time>
      </trkpt>
      <trkpt lat="42.472363000" lon="-2.437179000">
        <ele>371.60</ele>
        <time>2016-10-22T09:09:33Z</time>
      </trkpt>
      <trkpt lat="42.472320000" lon="-2.437227000">
        <ele>371.60</ele>
        <time>2016-10-22T09:09:34Z</time>
      </trkpt>
      <trkpt lat="42.472279000" lon="-2.437276000">
        <ele>371.60</ele>
        <time>2016-10-22T09:09:35Z</time>
      </trkpt>
      <trkpt lat="42.472238000" lon="-2.437323000">
        <ele>371.60</ele>
        <time>2016-10-22T09:09:36Z</time>
      </trkpt>
      <trkpt lat="42.472197000" lon="-2.437370000">
        <ele>371.60</ele>
        <time>2016-10-22T09:09:37Z</time>
      </trkpt>
      <trkpt lat="42.472156000" lon="-2.437420000">
        <ele>371.60</ele>
        <time>2016-10-22T09:09:38Z</time>
      </trkpt>
      <trkpt lat="42.472116000" lon="-2.437468000">
        <ele>371.70</ele>
        <time>2016-10-22T09:09:39Z</time>
      </trkpt>
      <trkpt lat="42.472076000" lon="-2.437517000">
        <ele>371.80</ele>
        <time>2016-10-22T09:09:40Z</time>
      </trkpt>
      <trkpt lat="42.472037000" lon="-2.437563000">
        <ele>371.90</ele>
        <time>2016-10-22T09:09:41Z</time>
      </trkpt>
      <trkpt lat="42.471997000" lon="-2.437609000">
        <ele>372.10</ele>
        <time>2016-10-22T09:09:42Z</time>
      </trkpt>
      <trkpt lat="42.471957000" lon="-2.437658000">
        <ele>372.30</ele>
        <time>2016-10-22T09:09:43Z</time>
      </trkpt>
      <trkpt lat="42.471915000" lon="-2.437706000">
        <ele>372.20</ele>
        <time>2016-10-22T09:09:44Z</time>
      </trkpt>
      <trkpt lat="42.471876000" lon="-2.437752000">
        <ele>372.20</ele>
        <time>2016-10-22T09:09:45Z</time>
      </trkpt>
      <trkpt lat="42.471836000" lon="-2.437801000">
        <ele>372.10</ele>
        <time>2016-10-22T09:09:46Z</time>
      </trkpt>
      <trkpt lat="42.471793000" lon="-2.437850000">
        <ele>372.00</ele>
        <time>2016-10-22T09:09:47Z</time>
      </trkpt>
      <trkpt lat="42.471753000" lon="-2.437899000">
        <ele>372.00</ele>
        <time>2016-10-22T09:09:48Z</time>
      </trkpt>
      <trkpt lat="42.471713000" lon="-2.437948000">
        <ele>371.90</ele>
        <time>2016-10-22T09:09:49Z</time>
      </trkpt>
      <trkpt lat="42.471674000" lon="-2.437999000">
        <ele>371.80</ele>
        <time>2016-10-22T09:09:50Z</time>
      </trkpt>
      <trkpt lat="42.471634000" lon="-2.438049000">
        <ele>371.70</ele>
        <time>2016-10-22T09:09:51Z</time>
      </trkpt>
      <trkpt lat="42.471592000" lon="-2.438098000">
        <ele>371.60</ele>
        <time>2016-10-22T09:09:52Z</time>
      </trkpt>
      <trkpt lat="42.471551000" lon="-2.438146000">
        <ele>371.50</ele>
        <time>2016-10-22T09:09:53Z</time>
      </trkpt>
      <trkpt lat="42.471509000" lon="-2.438195000">
        <ele>371.40</ele>
        <time>2016-10-22T09:09:54Z</time>
      </trkpt>
      <trkpt lat="42.471466000" lon="-2.438246000">
        <ele>371.30</ele>
        <time>2016-10-22T09:09:55Z</time>
      </trkpt>
      <trkpt lat="42.471423000" lon="-2.438299000">
        <ele>371.30</ele>
        <time>2016-10-22T09:09:56Z</time>
      </trkpt>
      <trkpt lat="42.471378000" lon="-2.438350000">
        <ele>371.30</ele>
        <time>2016-10-22T09:09:57Z</time>
      </trkpt>
      <trkpt lat="42.471334000" lon="-2.438402000">
        <ele>371.20</ele>
        <time>2016-10-22T09:09:58Z</time>
      </trkpt>
      <trkpt lat="42.471292000" lon="-2.438454000">
        <ele>371.20</ele>
        <time>2016-10-22T09:09:59Z</time>
      </trkpt>
      <trkpt lat="42.471252000" lon="-2.438504000">
        <ele>371.30</ele>
        <time>2016-10-22T09:10:00Z</time>
      </trkpt>
      <trkpt lat="42.471212000" lon="-2.438555000">
        <ele>371.30</ele>
        <time>2016-10-22T09:10:01Z</time>
      </trkpt>
      <trkpt lat="42.471175000" lon="-2.438603000">
        <ele>371.30</ele>
        <time>2016-10-22T09:10:02Z</time>
      </trkpt>
      <trkpt lat="42.471139000" lon="-2.438649000">
        <ele>371.20</ele>
        <time>2016-10-22T09:10:03Z</time>
      </trkpt>
      <trkpt lat="42.471103000" lon="-2.438693000">
        <ele>371.10</ele>
        <time>2016-10-22T09:10:04Z</time>
      </trkpt>
      <trkpt lat="42.471067000" lon="-2.438737000">
        <ele>371.10</ele>
        <time>2016-10-22T09:10:05Z</time>
      </trkpt>
      <trkpt lat="42.471033000" lon="-2.438779000">
        <ele>371.00</ele>
        <time>2016-10-22T09:10:06Z</time>
      </trkpt>
      <trkpt lat="42.470999000" lon="-2.438818000">
        <ele>371.00</ele>
        <time>2016-10-22T09:10:07Z</time>
      </trkpt>
      <trkpt lat="42.470968000" lon="-2.438857000">
        <ele>371.00</ele>
        <time>2016-10-22T09:10:08Z</time>
      </trkpt>
      <trkpt lat="42.470938000" lon="-2.438895000">
        <ele>371.00</ele>
        <time>2016-10-22T09:10:09Z</time>
      </trkpt>
      <trkpt lat="42.470907000" lon="-2.438936000">
        <ele>371.10</ele>
        <time>2016-10-22T09:10:10Z</time>
      </trkpt>
      <trkpt lat="42.470875000" lon="-2.438975000">
        <ele>371.20</ele>
        <time>2016-10-22T09:10:11Z</time>
      </trkpt>
      <trkpt lat="42.470842000" lon="-2.439016000">
        <ele>371.30</ele>
        <time>2016-10-22T09:10:12Z</time>
      </trkpt>
      <trkpt lat="42.470807000" lon="-2.439055000">
        <ele>371.40</ele>
        <time>2016-10-22T09:10:13Z</time>
      </trkpt>
      <trkpt lat="42.470773000" lon="-2.439099000">
        <ele>371.40</ele>
        <time>2016-10-22T09:10:14Z</time>
      </trkpt>
      <trkpt lat="42.470741000" lon="-2.439140000">
        <ele>371.50</ele>
        <time>2016-10-22T09:10:15Z</time>
      </trkpt>
      <trkpt lat="42.470723000" lon="-2.439190000">
        <ele>371.70</ele>
        <time>2016-10-22T09:10:16Z</time>
      </trkpt>
      <trkpt lat="42.470712000" lon="-2.439237000">
        <ele>371.90</ele>
        <time>2016-10-22T09:10:17Z</time>
      </trkpt>
      <trkpt lat="42.470707000" lon="-2.439284000">
        <ele>372.00</ele>
        <time>2016-10-22T09:10:18Z</time>
      </trkpt>
      <trkpt lat="42.470701000" lon="-2.439329000">
        <ele>372.20</ele>
        <time>2016-10-22T09:10:19Z</time>
      </trkpt>
      <trkpt lat="42.470689000" lon="-2.439370000">
        <ele>372.20</ele>
        <time>2016-10-22T09:10:20Z</time>
      </trkpt>
      <trkpt lat="42.470674000" lon="-2.439410000">
        <ele>372.20</ele>
        <time>2016-10-22T09:10:21Z</time>
      </trkpt>
      <trkpt lat="42.470653000" lon="-2.439450000">
        <ele>372.20</ele>
        <time>2016-10-22T09:10:22Z</time>
      </trkpt>
      <trkpt lat="42.470633000" lon="-2.439493000">
        <ele>372.20</ele>
        <time>2016-10-22T09:10:23Z</time>
      </trkpt>
      <trkpt lat="42.470612000" lon="-2.439538000">
        <ele>372.10</ele>
        <time>2016-10-22T09:10:24Z</time>
      </trkpt>
      <trkpt lat="42.470592000" lon="-2.439585000">
        <ele>372.10</ele>
        <time>2016-10-22T09:10:25Z</time>
      </trkpt>
      <trkpt lat="42.470571000" lon="-2.439631000">
        <ele>372.10</ele>
        <time>2016-10-22T09:10:26Z</time>
      </trkpt>
      <trkpt lat="42.470546000" lon="-2.439674000">
        <ele>372.10</ele>
        <time>2016-10-22T09:10:27Z</time>
      </trkpt>
      <trkpt lat="42.470521000" lon="-2.439720000">
        <ele>372.10</ele>
        <time>2016-10-22T09:10:28Z</time>
      </trkpt>
      <trkpt lat="42.470494000" lon="-2.439768000">
        <ele>372.00</ele>
        <time>2016-10-22T09:10:29Z</time>
      </trkpt>
      <trkpt lat="42.470470000" lon="-2.439819000">
        <ele>371.90</ele>
        <time>2016-10-22T09:10:30Z</time>
      </trkpt>
      <trkpt lat="42.470429000" lon="-2.439922000">
        <ele>371.80</ele>
        <time>2016-10-22T09:10:32Z</time>
      </trkpt>
      <trkpt lat="42.470408000" lon="-2.439978000">
        <ele>371.80</ele>
        <time>2016-10-22T09:10:33Z</time>
      </trkpt>
      <trkpt lat="42.470386000" lon="-2.440034000">
        <ele>371.70</ele>
        <time>2016-10-22T09:10:34Z</time>
      </trkpt>
      <trkpt lat="42.470367000" lon="-2.440094000">
        <ele>371.70</ele>
        <time>2016-10-22T09:10:35Z</time>
      </trkpt>
      <trkpt lat="42.470345000" lon="-2.440149000">
        <ele>371.70</ele>
        <time>2016-10-22T09:10:36Z</time>
      </trkpt>
      <trkpt lat="42.470322000" lon="-2.440205000">
        <ele>371.60</ele>
        <time>2016-10-22T09:10:37Z</time>
      </trkpt>
      <trkpt lat="42.470298000" lon="-2.440260000">
        <ele>371.60</ele>
        <time>2016-10-22T09:10:38Z</time>
      </trkpt>
      <trkpt lat="42.470274000" lon="-2.440315000">
        <ele>371.60</ele>
        <time>2016-10-22T09:10:39Z</time>
      </trkpt>
      <trkpt lat="42.470252000" lon="-2.440372000">
        <ele>371.50</ele>
        <time>2016-10-22T09:10:40Z</time>
      </trkpt>
      <trkpt lat="42.470227000" lon="-2.440427000">
        <ele>371.40</ele>
        <time>2016-10-22T09:10:41Z</time>
      </trkpt>
      <trkpt lat="42.470206000" lon="-2.440481000">
        <ele>371.20</ele>
        <time>2016-10-22T09:10:42Z</time>
      </trkpt>
      <trkpt lat="42.470183000" lon="-2.440533000">
        <ele>371.20</ele>
        <time>2016-10-22T09:10:43Z</time>
      </trkpt>
      <trkpt lat="42.470163000" lon="-2.440587000">
        <ele>371.10</ele>
        <time>2016-10-22T09:10:44Z</time>
      </trkpt>
      <trkpt lat="42.470140000" lon="-2.440640000">
        <ele>371.10</ele>
        <time>2016-10-22T09:10:45Z</time>
      </trkpt>
      <trkpt lat="42.470115000" lon="-2.440695000">
        <ele>371.10</ele>
        <time>2016-10-22T09:10:46Z</time>
      </trkpt>
      <trkpt lat="42.470091000" lon="-2.440748000">
        <ele>371.20</ele>
        <time>2016-10-22T09:10:47Z</time>
      </trkpt>
      <trkpt lat="42.470069000" lon="-2.440800000">
        <ele>371.20</ele>
        <time>2016-10-22T09:10:48Z</time>
      </trkpt>
      <trkpt lat="42.470047000" lon="-2.440854000">
        <ele>371.20</ele>
        <time>2016-10-22T09:10:49Z</time>
      </trkpt>
      <trkpt lat="42.470025000" lon="-2.440909000">
        <ele>371.40</ele>
        <time>2016-10-22T09:10:50Z</time>
      </trkpt>
      <trkpt lat="42.470002000" lon="-2.440964000">
        <ele>371.50</ele>
        <time>2016-10-22T09:10:51Z</time>
      </trkpt>
      <trkpt lat="42.469978000" lon="-2.441019000">
        <ele>371.40</ele>
        <time>2016-10-22T09:10:52Z</time>
      </trkpt>
      <trkpt lat="42.469952000" lon="-2.441075000">
        <ele>371.40</ele>
        <time>2016-10-22T09:10:53Z</time>
      </trkpt>
      <trkpt lat="42.469927000" lon="-2.441131000">
        <ele>371.60</ele>
        <time>2016-10-22T09:10:54Z</time>
      </trkpt>
      <trkpt lat="42.469902000" lon="-2.441185000">
        <ele>371.70</ele>
        <time>2016-10-22T09:10:55Z</time>
      </trkpt>
      <trkpt lat="42.469877000" lon="-2.441239000">
        <ele>371.70</ele>
        <time>2016-10-22T09:10:56Z</time>
      </trkpt>
      <trkpt lat="42.469853000" lon="-2.441293000">
        <ele>371.60</ele>
        <time>2016-10-22T09:10:57Z</time>
      </trkpt>
      <trkpt lat="42.469833000" lon="-2.441351000">
        <ele>371.60</ele>
        <time>2016-10-22T09:10:58Z</time>
      </trkpt>
      <trkpt lat="42.469810000" lon="-2.441404000">
        <ele>371.60</ele>
        <time>2016-10-22T09:10:59Z</time>
      </trkpt>
      <trkpt lat="42.469784000" lon="-2.441460000">
        <ele>371.50</ele>
        <time>2016-10-22T09:11:00Z</time>
      </trkpt>
      <trkpt lat="42.469759000" lon="-2.441513000">
        <ele>371.40</ele>
        <time>2016-10-22T09:11:01Z</time>
      </trkpt>
      <trkpt lat="42.469736000" lon="-2.441570000">
        <ele>371.30</ele>
        <time>2016-10-22T09:11:02Z</time>
      </trkpt>
      <trkpt lat="42.469712000" lon="-2.441623000">
        <ele>371.20</ele>
        <time>2016-10-22T09:11:03Z</time>
      </trkpt>
      <trkpt lat="42.469687000" lon="-2.441672000">
        <ele>371.50</ele>
        <time>2016-10-22T09:11:04Z</time>
      </trkpt>
      <trkpt lat="42.469664000" lon="-2.441722000">
        <ele>371.70</ele>
        <time>2016-10-22T09:11:05Z</time>
      </trkpt>
      <trkpt lat="42.469641000" lon="-2.441774000">
        <ele>371.90</ele>
        <time>2016-10-22T09:11:06Z</time>
      </trkpt>
      <trkpt lat="42.469618000" lon="-2.441826000">
        <ele>372.10</ele>
        <time>2016-10-22T09:11:07Z</time>
      </trkpt>
      <trkpt lat="42.469596000" lon="-2.441881000">
        <ele>372.20</ele>
        <time>2016-10-22T09:11:08Z</time>
      </trkpt>
      <trkpt lat="42.469572000" lon="-2.441934000">
        <ele>372.20</ele>
        <time>2016-10-22T09:11:09Z</time>
      </trkpt>
      <trkpt lat="42.469549000" lon="-2.441986000">
        <ele>372.10</ele>
        <time>2016-10-22T09:11:10Z</time>
      </trkpt>
      <trkpt lat="42.469523000" lon="-2.442036000">
        <ele>372.00</ele>
        <time>2016-10-22T09:11:11Z</time>
      </trkpt>
      <trkpt lat="42.469498000" lon="-2.442087000">
        <ele>372.00</ele>
        <time>2016-10-22T09:11:12Z</time>
      </trkpt>
      <trkpt lat="42.469475000" lon="-2.442138000">
        <ele>371.90</ele>
        <time>2016-10-22T09:11:13Z</time>
      </trkpt>
      <trkpt lat="42.469452000" lon="-2.442193000">
        <ele>371.80</ele>
        <time>2016-10-22T09:11:14Z</time>
      </trkpt>
      <trkpt lat="42.469431000" lon="-2.442250000">
        <ele>371.70</ele>
        <time>2016-10-22T09:11:15Z</time>
      </trkpt>
      <trkpt lat="42.469407000" lon="-2.442304000">
        <ele>371.70</ele>
        <time>2016-10-22T09:11:16Z</time>
      </trkpt>
      <trkpt lat="42.469383000" lon="-2.442357000">
        <ele>371.70</ele>
        <time>2016-10-22T09:11:17Z</time>
      </trkpt>
      <trkpt lat="42.469359000" lon="-2.442412000">
        <ele>371.70</ele>
        <time>2016-10-22T09:11:18Z</time>
      </trkpt>
      <trkpt lat="42.469336000" lon="-2.442464000">
        <ele>371.80</ele>
        <time>2016-10-22T09:11:19Z</time>
      </trkpt>
      <trkpt lat="42.469314000" lon="-2.442514000">
        <ele>371.80</ele>
        <time>2016-10-22T09:11:20Z</time>
      </trkpt>
      <trkpt lat="42.469295000" lon="-2.442565000">
        <ele>371.80</ele>
        <time>2016-10-22T09:11:21Z</time>
      </trkpt>
      <trkpt lat="42.469276000" lon="-2.442614000">
        <ele>371.90</ele>
        <time>2016-10-22T09:11:22Z</time>
      </trkpt>
      <trkpt lat="42.469256000" lon="-2.442661000">
        <ele>372.00</ele>
        <time>2016-10-22T09:11:23Z</time>
      </trkpt>
      <trkpt lat="42.469237000" lon="-2.442712000">
        <ele>372.10</ele>
        <time>2016-10-22T09:11:24Z</time>
      </trkpt>
      <trkpt lat="42.469220000" lon="-2.442764000">
        <ele>372.10</ele>
        <time>2016-10-22T09:11:25Z</time>
      </trkpt>
      <trkpt lat="42.469205000" lon="-2.442817000">
        <ele>372.20</ele>
        <time>2016-10-22T09:11:26Z</time>
      </trkpt>
      <trkpt lat="42.469189000" lon="-2.442868000">
        <ele>372.20</ele>
        <time>2016-10-22T09:11:27Z</time>
      </trkpt>
      <trkpt lat="42.469174000" lon="-2.442913000">
        <ele>372.20</ele>
        <time>2016-10-22T09:11:28Z</time>
      </trkpt>
      <trkpt lat="42.469162000" lon="-2.442956000">
        <ele>372.30</ele>
        <time>2016-10-22T09:11:29Z</time>
      </trkpt>
      <trkpt lat="42.469150000" lon="-2.442999000">
        <ele>372.30</ele>
        <time>2016-10-22T09:11:30Z</time>
      </trkpt>
      <trkpt lat="42.469139000" lon="-2.443038000">
        <ele>372.30</ele>
        <time>2016-10-22T09:11:31Z</time>
      </trkpt>
      <trkpt lat="42.469112000" lon="-2.443106000">
        <ele>372.30</ele>
        <time>2016-10-22T09:11:33Z</time>
      </trkpt>
      <trkpt lat="42.469109000" lon="-2.443139000">
        <ele>372.30</ele>
        <time>2016-10-22T09:11:34Z</time>
      </trkpt>
      <trkpt lat="42.469114000" lon="-2.443164000">
        <ele>372.30</ele>
        <time>2016-10-22T09:11:35Z</time>
      </trkpt>
      <trkpt lat="42.469113000" lon="-2.443184000">
        <ele>372.30</ele>
        <time>2016-10-22T09:11:36Z</time>
      </trkpt>
      <trkpt lat="42.469104000" lon="-2.443221000">
        <ele>372.30</ele>
        <time>2016-10-22T09:11:37Z</time>
      </trkpt>
      <trkpt lat="42.469095000" lon="-2.443260000">
        <ele>372.30</ele>
        <time>2016-10-22T09:11:38Z</time>
      </trkpt>
      <trkpt lat="42.469088000" lon="-2.443309000">
        <ele>372.30</ele>
        <time>2016-10-22T09:11:39Z</time>
      </trkpt>
      <trkpt lat="42.469096000" lon="-2.443359000">
        <ele>372.50</ele>
        <time>2016-10-22T09:11:40Z</time>
      </trkpt>
      <trkpt lat="42.469109000" lon="-2.443412000">
        <ele>372.60</ele>
        <time>2016-10-22T09:11:41Z</time>
      </trkpt>
      <trkpt lat="42.469123000" lon="-2.443464000">
        <ele>372.60</ele>
        <time>2016-10-22T09:11:42Z</time>
      </trkpt>
      <trkpt lat="42.469140000" lon="-2.443513000">
        <ele>372.70</ele>
        <time>2016-10-22T09:11:43Z</time>
      </trkpt>
      <trkpt lat="42.469157000" lon="-2.443561000">
        <ele>372.70</ele>
        <time>2016-10-22T09:11:44Z</time>
      </trkpt>
      <trkpt lat="42.469173000" lon="-2.443610000">
        <ele>372.80</ele>
        <time>2016-10-22T09:11:45Z</time>
      </trkpt>
      <trkpt lat="42.469189000" lon="-2.443661000">
        <ele>372.90</ele>
        <time>2016-10-22T09:11:46Z</time>
      </trkpt>
      <trkpt lat="42.469199000" lon="-2.443714000">
        <ele>373.00</ele>
        <time>2016-10-22T09:11:47Z</time>
      </trkpt>
      <trkpt lat="42.469204000" lon="-2.443769000">
        <ele>372.90</ele>
        <time>2016-10-22T09:11:48Z</time>
      </trkpt>
      <trkpt lat="42.469210000" lon="-2.443823000">
        <ele>372.80</ele>
        <time>2016-10-22T09:11:49Z</time>
      </trkpt>
      <trkpt lat="42.469214000" lon="-2.443880000">
        <ele>373.00</ele>
        <time>2016-10-22T09:11:50Z</time>
      </trkpt>
      <trkpt lat="42.469216000" lon="-2.443938000">
        <ele>373.10</ele>
        <time>2016-10-22T09:11:51Z</time>
      </trkpt>
      <trkpt lat="42.469213000" lon="-2.443997000">
        <ele>373.10</ele>
        <time>2016-10-22T09:11:52Z</time>
      </trkpt>
      <trkpt lat="42.469210000" lon="-2.444059000">
        <ele>373.10</ele>
        <time>2016-10-22T09:11:53Z</time>
      </trkpt>
      <trkpt lat="42.469206000" lon="-2.444117000">
        <ele>373.10</ele>
        <time>2016-10-22T09:11:54Z</time>
      </trkpt>
      <trkpt lat="42.469199000" lon="-2.444175000">
        <ele>373.20</ele>
        <time>2016-10-22T09:11:55Z</time>
      </trkpt>
      <trkpt lat="42.469195000" lon="-2.444232000">
        <ele>373.20</ele>
        <time>2016-10-22T09:11:56Z</time>
      </trkpt>
      <trkpt lat="42.469189000" lon="-2.444289000">
        <ele>373.10</ele>
        <time>2016-10-22T09:11:57Z</time>
      </trkpt>
      <trkpt lat="42.469183000" lon="-2.444346000">
        <ele>373.10</ele>
        <time>2016-10-22T09:11:58Z</time>
      </trkpt>
      <trkpt lat="42.469176000" lon="-2.444405000">
        <ele>373.00</ele>
        <time>2016-10-22T09:11:59Z</time>
      </trkpt>
      <trkpt lat="42.469171000" lon="-2.444465000">
        <ele>373.00</ele>
        <time>2016-10-22T09:12:00Z</time>
      </trkpt>
      <trkpt lat="42.469168000" lon="-2.444527000">
        <ele>372.90</ele>
        <time>2016-10-22T09:12:01Z</time>
      </trkpt>
      <trkpt lat="42.469167000" lon="-2.444586000">
        <ele>372.90</ele>
        <time>2016-10-22T09:12:02Z</time>
      </trkpt>
      <trkpt lat="42.469167000" lon="-2.444639000">
        <ele>372.90</ele>
        <time>2016-10-22T09:12:03Z</time>
      </trkpt>
      <trkpt lat="42.469165000" lon="-2.444697000">
        <ele>372.90</ele>
        <time>2016-10-22T09:12:04Z</time>
      </trkpt>
      <trkpt lat="42.469167000" lon="-2.444752000">
        <ele>373.00</ele>
        <time>2016-10-22T09:12:05Z</time>
      </trkpt>
      <trkpt lat="42.469169000" lon="-2.444810000">
        <ele>373.00</ele>
        <time>2016-10-22T09:12:06Z</time>
      </trkpt>
      <trkpt lat="42.469170000" lon="-2.444870000">
        <ele>373.00</ele>
        <time>2016-10-22T09:12:07Z</time>
      </trkpt>
      <trkpt lat="42.469173000" lon="-2.444932000">
        <ele>373.00</ele>
        <time>2016-10-22T09:12:08Z</time>
      </trkpt>
      <trkpt lat="42.469178000" lon="-2.444992000">
        <ele>373.00</ele>
        <time>2016-10-22T09:12:09Z</time>
      </trkpt>
      <trkpt lat="42.469182000" lon="-2.445053000">
        <ele>373.00</ele>
        <time>2016-10-22T09:12:10Z</time>
      </trkpt>
      <trkpt lat="42.469185000" lon="-2.445113000">
        <ele>373.00</ele>
        <time>2016-10-22T09:12:11Z</time>
      </trkpt>
      <trkpt lat="42.469191000" lon="-2.445174000">
        <ele>372.80</ele>
        <time>2016-10-22T09:12:12Z</time>
      </trkpt>
      <trkpt lat="42.469196000" lon="-2.445234000">
        <ele>372.70</ele>
        <time>2016-10-22T09:12:13Z</time>
      </trkpt>
      <trkpt lat="42.469200000" lon="-2.445290000">
        <ele>372.80</ele>
        <time>2016-10-22T09:12:14Z</time>
      </trkpt>
      <trkpt lat="42.469204000" lon="-2.445349000">
        <ele>372.80</ele>
        <time>2016-10-22T09:12:15Z</time>
      </trkpt>
      <trkpt lat="42.469203000" lon="-2.445410000">
        <ele>372.80</ele>
        <time>2016-10-22T09:12:16Z</time>
      </trkpt>
      <trkpt lat="42.469201000" lon="-2.445469000">
        <ele>372.80</ele>
        <time>2016-10-22T09:12:17Z</time>
      </trkpt>
      <trkpt lat="42.469198000" lon="-2.445528000">
        <ele>372.80</ele>
        <time>2016-10-22T09:12:18Z</time>
      </trkpt>
      <trkpt lat="42.469193000" lon="-2.445583000">
        <ele>372.80</ele>
        <time>2016-10-22T09:12:19Z</time>
      </trkpt>
      <trkpt lat="42.469189000" lon="-2.445641000">
        <ele>372.90</ele>
        <time>2016-10-22T09:12:20Z</time>
      </trkpt>
      <trkpt lat="42.469183000" lon="-2.445697000">
        <ele>372.90</ele>
        <time>2016-10-22T09:12:21Z</time>
      </trkpt>
      <trkpt lat="42.469177000" lon="-2.445755000">
        <ele>372.90</ele>
        <time>2016-10-22T09:12:22Z</time>
      </trkpt>
      <trkpt lat="42.469170000" lon="-2.445816000">
        <ele>373.00</ele>
        <time>2016-10-22T09:12:23Z</time>
      </trkpt>
      <trkpt lat="42.469161000" lon="-2.445874000">
        <ele>373.00</ele>
        <time>2016-10-22T09:12:24Z</time>
      </trkpt>
      <trkpt lat="42.469152000" lon="-2.445933000">
        <ele>373.00</ele>
        <time>2016-10-22T09:12:25Z</time>
      </trkpt>
      <trkpt lat="42.469141000" lon="-2.445993000">
        <ele>373.00</ele>
        <time>2016-10-22T09:12:26Z</time>
      </trkpt>
      <trkpt lat="42.469131000" lon="-2.446057000">
        <ele>373.00</ele>
        <time>2016-10-22T09:12:27Z</time>
      </trkpt>
      <trkpt lat="42.469127000" lon="-2.446126000">
        <ele>373.00</ele>
        <time>2016-10-22T09:12:28Z</time>
      </trkpt>
      <trkpt lat="42.469121000" lon="-2.446196000">
        <ele>373.00</ele>
        <time>2016-10-22T09:12:29Z</time>
      </trkpt>
      <trkpt lat="42.469116000" lon="-2.446268000">
        <ele>372.80</ele>
        <time>2016-10-22T09:12:30Z</time>
      </trkpt>
      <trkpt lat="42.469111000" lon="-2.446338000">
        <ele>372.70</ele>
        <time>2016-10-22T09:12:31Z</time>
      </trkpt>
      <trkpt lat="42.469110000" lon="-2.446407000">
        <ele>372.60</ele>
        <time>2016-10-22T09:12:32Z</time>
      </trkpt>
      <trkpt lat="42.469107000" lon="-2.446542000">
        <ele>372.40</ele>
        <time>2016-10-22T09:12:34Z</time>
      </trkpt>
      <trkpt lat="42.469104000" lon="-2.446608000">
        <ele>372.40</ele>
        <time>2016-10-22T09:12:35Z</time>
      </trkpt>
      <trkpt lat="42.469097000" lon="-2.446675000">
        <ele>372.30</ele>
        <time>2016-10-22T09:12:36Z</time>
      </trkpt>
      <trkpt lat="42.469095000" lon="-2.446731000">
        <ele>372.30</ele>
        <time>2016-10-22T09:12:37Z</time>
      </trkpt>
      <trkpt lat="42.469093000" lon="-2.446795000">
        <ele>372.20</ele>
        <time>2016-10-22T09:12:38Z</time>
      </trkpt>
      <trkpt lat="42.469097000" lon="-2.446854000">
        <ele>372.20</ele>
        <time>2016-10-22T09:12:39Z</time>
      </trkpt>
      <trkpt lat="42.469099000" lon="-2.446923000">
        <ele>372.20</ele>
        <time>2016-10-22T09:12:40Z</time>
      </trkpt>
      <trkpt lat="42.469103000" lon="-2.446992000">
        <ele>372.20</ele>
        <time>2016-10-22T09:12:41Z</time>
      </trkpt>
      <trkpt lat="42.469111000" lon="-2.447063000">
        <ele>372.30</ele>
        <time>2016-10-22T09:12:42Z</time>
      </trkpt>
      <trkpt lat="42.469116000" lon="-2.447135000">
        <ele>372.30</ele>
        <time>2016-10-22T09:12:43Z</time>
      </trkpt>
      <trkpt lat="42.469119000" lon="-2.447209000">
        <ele>372.40</ele>
        <time>2016-10-22T09:12:44Z</time>
      </trkpt>
      <trkpt lat="42.469123000" lon="-2.447275000">
        <ele>372.40</ele>
        <time>2016-10-22T09:12:45Z</time>
      </trkpt>
      <trkpt lat="42.469126000" lon="-2.447338000">
        <ele>372.50</ele>
        <time>2016-10-22T09:12:46Z</time>
      </trkpt>
      <trkpt lat="42.469125000" lon="-2.447404000">
        <ele>372.60</ele>
        <time>2016-10-22T09:12:47Z</time>
      </trkpt>
      <trkpt lat="42.469124000" lon="-2.447469000">
        <ele>372.70</ele>
        <time>2016-10-22T09:12:48Z</time>
      </trkpt>
      <trkpt lat="42.469126000" lon="-2.447532000">
        <ele>372.90</ele>
        <time>2016-10-22T09:12:49Z</time>
      </trkpt>
      <trkpt lat="42.469127000" lon="-2.447596000">
        <ele>373.00</ele>
        <time>2016-10-22T09:12:50Z</time>
      </trkpt>
      <trkpt lat="42.469128000" lon="-2.447663000">
        <ele>373.10</ele>
        <time>2016-10-22T09:12:51Z</time>
      </trkpt>
      <trkpt lat="42.469129000" lon="-2.447729000">
        <ele>373.10</ele>
        <time>2016-10-22T09:12:52Z</time>
      </trkpt>
      <trkpt lat="42.469131000" lon="-2.447796000">
        <ele>373.20</ele>
        <time>2016-10-22T09:12:53Z</time>
      </trkpt>
      <trkpt lat="42.469128000" lon="-2.447862000">
        <ele>373.10</ele>
        <time>2016-10-22T09:12:54Z</time>
      </trkpt>
      <trkpt lat="42.469129000" lon="-2.447927000">
        <ele>373.10</ele>
        <time>2016-10-22T09:12:55Z</time>
      </trkpt>
      <trkpt lat="42.469135000" lon="-2.447988000">
        <ele>373.10</ele>
        <time>2016-10-22T09:12:56Z</time>
      </trkpt>
      <trkpt lat="42.469142000" lon="-2.448046000">
        <ele>373.10</ele>
        <time>2016-10-22T09:12:57Z</time>
      </trkpt>
      <trkpt lat="42.469145000" lon="-2.448110000">
        <ele>373.10</ele>
        <time>2016-10-22T09:12:58Z</time>
      </trkpt>
      <trkpt lat="42.469147000" lon="-2.448174000">
        <ele>373.10</ele>
        <time>2016-10-22T09:12:59Z</time>
      </trkpt>
      <trkpt lat="42.469144000" lon="-2.448242000">
        <ele>373.00</ele>
        <time>2016-10-22T09:13:00Z</time>
      </trkpt>
      <trkpt lat="42.469139000" lon="-2.448308000">
        <ele>373.00</ele>
        <time>2016-10-22T09:13:01Z</time>
      </trkpt>
      <trkpt lat="42.469133000" lon="-2.448378000">
        <ele>373.00</ele>
        <time>2016-10-22T09:13:02Z</time>
      </trkpt>
      <trkpt lat="42.469127000" lon="-2.448448000">
        <ele>373.00</ele>
        <time>2016-10-22T09:13:03Z</time>
      </trkpt>
      <trkpt lat="42.469120000" lon="-2.448518000">
        <ele>373.00</ele>
        <time>2016-10-22T09:13:04Z</time>
      </trkpt>
      <trkpt lat="42.469115000" lon="-2.448585000">
        <ele>373.00</ele>
        <time>2016-10-22T09:13:05Z</time>
      </trkpt>
      <trkpt lat="42.469111000" lon="-2.448653000">
        <ele>373.20</ele>
        <time>2016-10-22T09:13:06Z</time>
      </trkpt>
      <trkpt lat="42.469107000" lon="-2.448720000">
        <ele>373.30</ele>
        <time>2016-10-22T09:13:07Z</time>
      </trkpt>
      <trkpt lat="42.469104000" lon="-2.448789000">
        <ele>373.30</ele>
        <time>2016-10-22T09:13:08Z</time>
      </trkpt>
      <trkpt lat="42.469100000" lon="-2.448858000">
        <ele>373.40</ele>
        <time>2016-10-22T09:13:09Z</time>
      </trkpt>
      <trkpt lat="42.469097000" lon="-2.448926000">
        <ele>373.40</ele>
        <time>2016-10-22T09:13:10Z</time>
      </trkpt>
      <trkpt lat="42.469097000" lon="-2.448993000">
        <ele>373.50</ele>
        <time>2016-10-22T09:13:11Z</time>
      </trkpt>
      <trkpt lat="42.469099000" lon="-2.449061000">
        <ele>373.50</ele>
        <time>2016-10-22T09:13:12Z</time>
      </trkpt>
      <trkpt lat="42.469101000" lon="-2.449131000">
        <ele>373.40</ele>
        <time>2016-10-22T09:13:13Z</time>
      </trkpt>
      <trkpt lat="42.469105000" lon="-2.449200000">
        <ele>373.40</ele>
        <time>2016-10-22T09:13:14Z</time>
      </trkpt>
      <trkpt lat="42.469105000" lon="-2.449266000">
        <ele>373.30</ele>
        <time>2016-10-22T09:13:15Z</time>
      </trkpt>
      <trkpt lat="42.469106000" lon="-2.449330000">
        <ele>373.30</ele>
        <time>2016-10-22T09:13:16Z</time>
      </trkpt>
      <trkpt lat="42.469109000" lon="-2.449398000">
        <ele>373.20</ele>
        <time>2016-10-22T09:13:17Z</time>
      </trkpt>
      <trkpt lat="42.469109000" lon="-2.449468000">
        <ele>373.10</ele>
        <time>2016-10-22T09:13:18Z</time>
      </trkpt>
      <trkpt lat="42.469110000" lon="-2.449537000">
        <ele>373.10</ele>
        <time>2016-10-22T09:13:19Z</time>
      </trkpt>
      <trkpt lat="42.469110000" lon="-2.449606000">
        <ele>372.90</ele>
        <time>2016-10-22T09:13:20Z</time>
      </trkpt>
      <trkpt lat="42.469105000" lon="-2.449677000">
        <ele>372.90</ele>
        <time>2016-10-22T09:13:21Z</time>
      </trkpt>
      <trkpt lat="42.469102000" lon="-2.449744000">
        <ele>372.80</ele>
        <time>2016-10-22T09:13:22Z</time>
      </trkpt>
      <trkpt lat="42.469094000" lon="-2.449812000">
        <ele>372.70</ele>
        <time>2016-10-22T09:13:23Z</time>
      </trkpt>
      <trkpt lat="42.469087000" lon="-2.449880000">
        <ele>372.90</ele>
        <time>2016-10-22T09:13:24Z</time>
      </trkpt>
      <trkpt lat="42.469080000" lon="-2.449948000">
        <ele>373.00</ele>
        <time>2016-10-22T09:13:25Z</time>
      </trkpt>
      <trkpt lat="42.469075000" lon="-2.450017000">
        <ele>373.10</ele>
        <time>2016-10-22T09:13:26Z</time>
      </trkpt>
      <trkpt lat="42.469073000" lon="-2.450083000">
        <ele>373.20</ele>
        <time>2016-10-22T09:13:27Z</time>
      </trkpt>
      <trkpt lat="42.469067000" lon="-2.450149000">
        <ele>373.20</ele>
        <time>2016-10-22T09:13:28Z</time>
      </trkpt>
      <trkpt lat="42.469064000" lon="-2.450218000">
        <ele>373.30</ele>
        <time>2016-10-22T09:13:29Z</time>
      </trkpt>
      <trkpt lat="42.469058000" lon="-2.450282000">
        <ele>373.20</ele>
        <time>2016-10-22T09:13:30Z</time>
      </trkpt>
      <trkpt lat="42.469052000" lon="-2.450347000">
        <ele>373.10</ele>
        <time>2016-10-22T09:13:31Z</time>
      </trkpt>
      <trkpt lat="42.469044000" lon="-2.450417000">
        <ele>373.20</ele>
        <time>2016-10-22T09:13:32Z</time>
      </trkpt>
      <trkpt lat="42.469037000" lon="-2.450486000">
        <ele>373.20</ele>
        <time>2016-10-22T09:13:33Z</time>
      </trkpt>
      <trkpt lat="42.469036000" lon="-2.450624000">
        <ele>373.30</ele>
        <time>2016-10-22T09:13:35Z</time>
      </trkpt>
      <trkpt lat="42.469041000" lon="-2.450691000">
        <ele>373.30</ele>
        <time>2016-10-22T09:13:36Z</time>
      </trkpt>
      <trkpt lat="42.469046000" lon="-2.450757000">
        <ele>373.30</ele>
        <time>2016-10-22T09:13:37Z</time>
      </trkpt>
      <trkpt lat="42.469051000" lon="-2.450823000">
        <ele>373.20</ele>
        <time>2016-10-22T09:13:38Z</time>
      </trkpt>
      <trkpt lat="42.469055000" lon="-2.450886000">
        <ele>373.20</ele>
        <time>2016-10-22T09:13:39Z</time>
      </trkpt>
      <trkpt lat="42.469055000" lon="-2.450952000">
        <ele>373.20</ele>
        <time>2016-10-22T09:13:40Z</time>
      </trkpt>
      <trkpt lat="42.469057000" lon="-2.451019000">
        <ele>373.10</ele>
        <time>2016-10-22T09:13:41Z</time>
      </trkpt>
      <trkpt lat="42.469060000" lon="-2.451083000">
        <ele>373.10</ele>
        <time>2016-10-22T09:13:42Z</time>
      </trkpt>
      <trkpt lat="42.469061000" lon="-2.451140000">
        <ele>373.10</ele>
        <time>2016-10-22T09:13:43Z</time>
      </trkpt>
      <trkpt lat="42.469064000" lon="-2.451199000">
        <ele>373.00</ele>
        <time>2016-10-22T09:13:44Z</time>
      </trkpt>
      <trkpt lat="42.469064000" lon="-2.451257000">
        <ele>372.90</ele>
        <time>2016-10-22T09:13:45Z</time>
      </trkpt>
      <trkpt lat="42.469063000" lon="-2.451313000">
        <ele>372.90</ele>
        <time>2016-10-22T09:13:46Z</time>
      </trkpt>
      <trkpt lat="42.469067000" lon="-2.451367000">
        <ele>372.90</ele>
        <time>2016-10-22T09:13:47Z</time>
      </trkpt>
      <trkpt lat="42.469069000" lon="-2.451424000">
        <ele>372.70</ele>
        <time>2016-10-22T09:13:48Z</time>
      </trkpt>
      <trkpt lat="42.469067000" lon="-2.451483000">
        <ele>372.60</ele>
        <time>2016-10-22T09:13:49Z</time>
      </trkpt>
      <trkpt lat="42.469054000" lon="-2.451542000">
        <ele>372.80</ele>
        <time>2016-10-22T09:13:50Z</time>
      </trkpt>
      <trkpt lat="42.469042000" lon="-2.451600000">
        <ele>372.90</ele>
        <time>2016-10-22T09:13:51Z</time>
      </trkpt>
      <trkpt lat="42.469029000" lon="-2.451657000">
        <ele>373.10</ele>
        <time>2016-10-22T09:13:52Z</time>
      </trkpt>
      <trkpt lat="42.469017000" lon="-2.451719000">
        <ele>373.30</ele>
        <time>2016-10-22T09:13:53Z</time>
      </trkpt>
      <trkpt lat="42.469007000" lon="-2.451773000">
        <ele>373.50</ele>
        <time>2016-10-22T09:13:54Z</time>
      </trkpt>
      <trkpt lat="42.469001000" lon="-2.451825000">
        <ele>373.60</ele>
        <time>2016-10-22T09:13:55Z</time>
      </trkpt>
      <trkpt lat="42.469007000" lon="-2.451876000">
        <ele>373.90</ele>
        <time>2016-10-22T09:13:56Z</time>
      </trkpt>
      <trkpt lat="42.469006000" lon="-2.451930000">
        <ele>374.10</ele>
        <time>2016-10-22T09:13:57Z</time>
      </trkpt>
      <trkpt lat="42.469004000" lon="-2.451986000">
        <ele>374.30</ele>
        <time>2016-10-22T09:13:58Z</time>
      </trkpt>
      <trkpt lat="42.468998000" lon="-2.452036000">
        <ele>374.50</ele>
        <time>2016-10-22T09:13:59Z</time>
      </trkpt>
      <trkpt lat="42.468988000" lon="-2.452082000">
        <ele>374.80</ele>
        <time>2016-10-22T09:14:00Z</time>
      </trkpt>
      <trkpt lat="42.468981000" lon="-2.452122000">
        <ele>375.00</ele>
        <time>2016-10-22T09:14:01Z</time>
      </trkpt>
      <trkpt lat="42.468970000" lon="-2.452161000">
        <ele>375.10</ele>
        <time>2016-10-22T09:14:02Z</time>
      </trkpt>
      <trkpt lat="42.468969000" lon="-2.452191000">
        <ele>375.20</ele>
        <time>2016-10-22T09:14:03Z</time>
      </trkpt>
      <trkpt lat="42.468967000" lon="-2.452220000">
        <ele>375.40</ele>
        <time>2016-10-22T09:14:04Z</time>
      </trkpt>
      <trkpt lat="42.468966000" lon="-2.452244000">
        <ele>375.50</ele>
        <time>2016-10-22T09:14:05Z</time>
      </trkpt>
      <trkpt lat="42.468968000" lon="-2.452262000">
        <ele>375.60</ele>
        <time>2016-10-22T09:14:06Z</time>
      </trkpt>
      <trkpt lat="42.468966000" lon="-2.452280000">
        <ele>375.60</ele>
        <time>2016-10-22T09:14:07Z</time>
      </trkpt>
      <trkpt lat="42.468957000" lon="-2.452303000">
        <ele>375.90</ele>
        <time>2016-10-22T09:14:08Z</time>
      </trkpt>
      <trkpt lat="42.468949000" lon="-2.452322000">
        <ele>376.00</ele>
        <time>2016-10-22T09:14:09Z</time>
      </trkpt>
      <trkpt lat="42.468945000" lon="-2.452348000">
        <ele>376.30</ele>
        <time>2016-10-22T09:14:10Z</time>
      </trkpt>
      <trkpt lat="42.468949000" lon="-2.452368000">
        <ele>376.50</ele>
        <time>2016-10-22T09:14:11Z</time>
      </trkpt>
      <trkpt lat="42.468962000" lon="-2.452391000">
        <ele>376.70</ele>
        <time>2016-10-22T09:14:12Z</time>
      </trkpt>
      <trkpt lat="42.468976000" lon="-2.452413000">
        <ele>376.80</ele>
        <time>2016-10-22T09:14:13Z</time>
      </trkpt>
      <trkpt lat="42.468997000" lon="-2.452434000">
        <ele>376.90</ele>
        <time>2016-10-22T09:14:14Z</time>
      </trkpt>
      <trkpt lat="42.469018000" lon="-2.452458000">
        <ele>377.00</ele>
        <time>2016-10-22T09:14:15Z</time>
      </trkpt>
      <trkpt lat="42.469039000" lon="-2.452482000">
        <ele>377.10</ele>
        <time>2016-10-22T09:14:16Z</time>
      </trkpt>
      <trkpt lat="42.469058000" lon="-2.452505000">
        <ele>377.10</ele>
        <time>2016-10-22T09:14:17Z</time>
      </trkpt>
      <trkpt lat="42.469076000" lon="-2.452533000">
        <ele>377.20</ele>
        <time>2016-10-22T09:14:18Z</time>
      </trkpt>
      <trkpt lat="42.469097000" lon="-2.452556000">
        <ele>377.20</ele>
        <time>2016-10-22T09:14:19Z</time>
      </trkpt>
      <trkpt lat="42.469110000" lon="-2.452580000">
        <ele>377.20</ele>
        <time>2016-10-22T09:14:20Z</time>
      </trkpt>
      <trkpt lat="42.469122000" lon="-2.452606000">
        <ele>377.20</ele>
        <time>2016-10-22T09:14:21Z</time>
      </trkpt>
      <trkpt lat="42.469131000" lon="-2.452636000">
        <ele>377.20</ele>
        <time>2016-10-22T09:14:22Z</time>
      </trkpt>
      <trkpt lat="42.469138000" lon="-2.452670000">
        <ele>377.20</ele>
        <time>2016-10-22T09:14:23Z</time>
      </trkpt>
      <trkpt lat="42.469144000" lon="-2.452705000">
        <ele>377.30</ele>
        <time>2016-10-22T09:14:24Z</time>
      </trkpt>
      <trkpt lat="42.469151000" lon="-2.452737000">
        <ele>377.30</ele>
        <time>2016-10-22T09:14:25Z</time>
      </trkpt>
      <trkpt lat="42.469155000" lon="-2.452773000">
        <ele>377.40</ele>
        <time>2016-10-22T09:14:26Z</time>
      </trkpt>
      <trkpt lat="42.469163000" lon="-2.452804000">
        <ele>377.50</ele>
        <time>2016-10-22T09:14:27Z</time>
      </trkpt>
      <trkpt lat="42.469169000" lon="-2.452836000">
        <ele>377.60</ele>
        <time>2016-10-22T09:14:28Z</time>
      </trkpt>
      <trkpt lat="42.469177000" lon="-2.452869000">
        <ele>377.60</ele>
        <time>2016-10-22T09:14:29Z</time>
      </trkpt>
      <trkpt lat="42.469185000" lon="-2.452902000">
        <ele>377.70</ele>
        <time>2016-10-22T09:14:30Z</time>
      </trkpt>
      <trkpt lat="42.469199000" lon="-2.452931000">
        <ele>377.80</ele>
        <time>2016-10-22T09:14:31Z</time>
      </trkpt>
      <trkpt lat="42.469211000" lon="-2.452965000">
        <ele>377.90</ele>
        <time>2016-10-22T09:14:32Z</time>
      </trkpt>
      <trkpt lat="42.469223000" lon="-2.453001000">
        <ele>378.00</ele>
        <time>2016-10-22T09:14:33Z</time>
      </trkpt>
      <trkpt lat="42.469241000" lon="-2.453034000">
        <ele>378.20</ele>
        <time>2016-10-22T09:14:34Z</time>
      </trkpt>
      <trkpt lat="42.469275000" lon="-2.453105000">
        <ele>378.30</ele>
        <time>2016-10-22T09:14:36Z</time>
      </trkpt>
      <trkpt lat="42.469289000" lon="-2.453144000">
        <ele>378.40</ele>
        <time>2016-10-22T09:14:37Z</time>
      </trkpt>
      <trkpt lat="42.469302000" lon="-2.453173000">
        <ele>378.50</ele>
        <time>2016-10-22T09:14:38Z</time>
      </trkpt>
      <trkpt lat="42.469316000" lon="-2.453206000">
        <ele>378.60</ele>
        <time>2016-10-22T09:14:39Z</time>
      </trkpt>
      <trkpt lat="42.469328000" lon="-2.453244000">
        <ele>378.70</ele>
        <time>2016-10-22T09:14:40Z</time>
      </trkpt>
      <trkpt lat="42.469342000" lon="-2.453279000">
        <ele>378.80</ele>
        <time>2016-10-22T09:14:41Z</time>
      </trkpt>
      <trkpt lat="42.469356000" lon="-2.453320000">
        <ele>378.90</ele>
        <time>2016-10-22T09:14:42Z</time>
      </trkpt>
      <trkpt lat="42.469369000" lon="-2.453358000">
        <ele>378.90</ele>
        <time>2016-10-22T09:14:43Z</time>
      </trkpt>
      <trkpt lat="42.469377000" lon="-2.453395000">
        <ele>379.00</ele>
        <time>2016-10-22T09:14:44Z</time>
      </trkpt>
      <trkpt lat="42.469385000" lon="-2.453433000">
        <ele>379.20</ele>
        <time>2016-10-22T09:14:45Z</time>
      </trkpt>
      <trkpt lat="42.469392000" lon="-2.453471000">
        <ele>379.40</ele>
        <time>2016-10-22T09:14:46Z</time>
      </trkpt>
      <trkpt lat="42.469399000" lon="-2.453508000">
        <ele>379.50</ele>
        <time>2016-10-22T09:14:47Z</time>
      </trkpt>
      <trkpt lat="42.469407000" lon="-2.453548000">
        <ele>379.60</ele>
        <time>2016-10-22T09:14:48Z</time>
      </trkpt>
      <trkpt lat="42.469409000" lon="-2.453586000">
        <ele>379.70</ele>
        <time>2016-10-22T09:14:49Z</time>
      </trkpt>
      <trkpt lat="42.469412000" lon="-2.453624000">
        <ele>379.90</ele>
        <time>2016-10-22T09:14:50Z</time>
      </trkpt>
      <trkpt lat="42.469418000" lon="-2.453659000">
        <ele>380.10</ele>
        <time>2016-10-22T09:14:51Z</time>
      </trkpt>
      <trkpt lat="42.469430000" lon="-2.453694000">
        <ele>380.20</ele>
        <time>2016-10-22T09:14:52Z</time>
      </trkpt>
      <trkpt lat="42.469440000" lon="-2.453726000">
        <ele>380.20</ele>
        <time>2016-10-22T09:14:53Z</time>
      </trkpt>
      <trkpt lat="42.469450000" lon="-2.453756000">
        <ele>380.30</ele>
        <time>2016-10-22T09:14:54Z</time>
      </trkpt>
      <trkpt lat="42.469456000" lon="-2.453788000">
        <ele>380.40</ele>
        <time>2016-10-22T09:14:55Z</time>
      </trkpt>
      <trkpt lat="42.469463000" lon="-2.453821000">
        <ele>380.50</ele>
        <time>2016-10-22T09:14:56Z</time>
      </trkpt>
      <trkpt lat="42.469473000" lon="-2.453856000">
        <ele>380.50</ele>
        <time>2016-10-22T09:14:57Z</time>
      </trkpt>
      <trkpt lat="42.469480000" lon="-2.453898000">
        <ele>380.60</ele>
        <time>2016-10-22T09:14:58Z</time>
      </trkpt>
      <trkpt lat="42.469490000" lon="-2.453943000">
        <ele>380.60</ele>
        <time>2016-10-22T09:14:59Z</time>
      </trkpt>
      <trkpt lat="42.469495000" lon="-2.453989000">
        <ele>380.70</ele>
        <time>2016-10-22T09:15:00Z</time>
      </trkpt>
      <trkpt lat="42.469500000" lon="-2.454034000">
        <ele>380.80</ele>
        <time>2016-10-22T09:15:01Z</time>
      </trkpt>
      <trkpt lat="42.469505000" lon="-2.454080000">
        <ele>380.90</ele>
        <time>2016-10-22T09:15:02Z</time>
      </trkpt>
      <trkpt lat="42.469513000" lon="-2.454124000">
        <ele>380.90</ele>
        <time>2016-10-22T09:15:03Z</time>
      </trkpt>
      <trkpt lat="42.469521000" lon="-2.454174000">
        <ele>381.00</ele>
        <time>2016-10-22T09:15:04Z</time>
      </trkpt>
      <trkpt lat="42.469525000" lon="-2.454223000">
        <ele>381.10</ele>
        <time>2016-10-22T09:15:05Z</time>
      </trkpt>
      <trkpt lat="42.469532000" lon="-2.454275000">
        <ele>381.20</ele>
        <time>2016-10-22T09:15:06Z</time>
      </trkpt>
      <trkpt lat="42.469540000" lon="-2.454327000">
        <ele>381.20</ele>
        <time>2016-10-22T09:15:07Z</time>
      </trkpt>
      <trkpt lat="42.469552000" lon="-2.454379000">
        <ele>381.20</ele>
        <time>2016-10-22T09:15:08Z</time>
      </trkpt>
      <trkpt lat="42.469564000" lon="-2.454436000">
        <ele>381.30</ele>
        <time>2016-10-22T09:15:09Z</time>
      </trkpt>
      <trkpt lat="42.469577000" lon="-2.454495000">
        <ele>381.40</ele>
        <time>2016-10-22T09:15:10Z</time>
      </trkpt>
      <trkpt lat="42.469587000" lon="-2.454558000">
        <ele>381.50</ele>
        <time>2016-10-22T09:15:11Z</time>
      </trkpt>
      <trkpt lat="42.469601000" lon="-2.454621000">
        <ele>381.60</ele>
        <time>2016-10-22T09:15:12Z</time>
      </trkpt>
      <trkpt lat="42.469615000" lon="-2.454685000">
        <ele>381.70</ele>
        <time>2016-10-22T09:15:13Z</time>
      </trkpt>
      <trkpt lat="42.469628000" lon="-2.454750000">
        <ele>381.40</ele>
        <time>2016-10-22T09:15:14Z</time>
      </trkpt>
      <trkpt lat="42.469640000" lon="-2.454818000">
        <ele>381.10</ele>
        <time>2016-10-22T09:15:15Z</time>
      </trkpt>
      <trkpt lat="42.469652000" lon="-2.454886000">
        <ele>380.90</ele>
        <time>2016-10-22T09:15:16Z</time>
      </trkpt>
      <trkpt lat="42.469664000" lon="-2.454955000">
        <ele>380.70</ele>
        <time>2016-10-22T09:15:17Z</time>
      </trkpt>
      <trkpt lat="42.469679000" lon="-2.455023000">
        <ele>380.50</ele>
        <time>2016-10-22T09:15:18Z</time>
      </trkpt>
      <trkpt lat="42.469696000" lon="-2.455090000">
        <ele>380.40</ele>
        <time>2016-10-22T09:15:19Z</time>
      </trkpt>
      <trkpt lat="42.469712000" lon="-2.455156000">
        <ele>380.30</ele>
        <time>2016-10-22T09:15:20Z</time>
      </trkpt>
      <trkpt lat="42.469727000" lon="-2.455221000">
        <ele>380.20</ele>
        <time>2016-10-22T09:15:21Z</time>
      </trkpt>
      <trkpt lat="42.469746000" lon="-2.455287000">
        <ele>379.90</ele>
        <time>2016-10-22T09:15:22Z</time>
      </trkpt>
      <trkpt lat="42.469766000" lon="-2.455351000">
        <ele>379.70</ele>
        <time>2016-10-22T09:15:23Z</time>
      </trkpt>
      <trkpt lat="42.469784000" lon="-2.455416000">
        <ele>379.50</ele>
        <time>2016-10-22T09:15:24Z</time>
      </trkpt>
      <trkpt lat="42.469800000" lon="-2.455483000">
        <ele>379.30</ele>
        <time>2016-10-22T09:15:25Z</time>
      </trkpt>
      <trkpt lat="42.469815000" lon="-2.455547000">
        <ele>379.20</ele>
        <time>2016-10-22T09:15:26Z</time>
      </trkpt>
      <trkpt lat="42.469829000" lon="-2.455612000">
        <ele>379.10</ele>
        <time>2016-10-22T09:15:27Z</time>
      </trkpt>
      <trkpt lat="42.469842000" lon="-2.455679000">
        <ele>379.10</ele>
        <time>2016-10-22T09:15:28Z</time>
      </trkpt>
      <trkpt lat="42.469855000" lon="-2.455747000">
        <ele>379.10</ele>
        <time>2016-10-22T09:15:29Z</time>
      </trkpt>
      <trkpt lat="42.469872000" lon="-2.455813000">
        <ele>379.10</ele>
        <time>2016-10-22T09:15:30Z</time>
      </trkpt>
      <trkpt lat="42.469887000" lon="-2.455877000">
        <ele>379.10</ele>
        <time>2016-10-22T09:15:31Z</time>
      </trkpt>
      <trkpt lat="42.469901000" lon="-2.455942000">
        <ele>378.90</ele>
        <time>2016-10-22T09:15:32Z</time>
      </trkpt>
      <trkpt lat="42.469913000" lon="-2.456003000">
        <ele>378.80</ele>
        <time>2016-10-22T09:15:33Z</time>
      </trkpt>
      <trkpt lat="42.469927000" lon="-2.456063000">
        <ele>378.60</ele>
        <time>2016-10-22T09:15:34Z</time>
      </trkpt>
      <trkpt lat="42.469938000" lon="-2.456122000">
        <ele>378.60</ele>
        <time>2016-10-22T09:15:35Z</time>
      </trkpt>
      <trkpt lat="42.469959000" lon="-2.456229000">
        <ele>378.50</ele>
        <time>2016-10-22T09:15:37Z</time>
      </trkpt>
      <trkpt lat="42.469970000" lon="-2.456283000">
        <ele>378.50</ele>
        <time>2016-10-22T09:15:38Z</time>
      </trkpt>
      <trkpt lat="42.469978000" lon="-2.456341000">
        <ele>378.60</ele>
        <time>2016-10-22T09:15:39Z</time>
      </trkpt>
      <trkpt lat="42.469987000" lon="-2.456399000">
        <ele>378.70</ele>
        <time>2016-10-22T09:15:40Z</time>
      </trkpt>
      <trkpt lat="42.469999000" lon="-2.456457000">
        <ele>378.70</ele>
        <time>2016-10-22T09:15:41Z</time>
      </trkpt>
      <trkpt lat="42.470013000" lon="-2.456516000">
        <ele>378.70</ele>
        <time>2016-10-22T09:15:42Z</time>
      </trkpt>
      <trkpt lat="42.470035000" lon="-2.456571000">
        <ele>378.80</ele>
        <time>2016-10-22T09:15:43Z</time>
      </trkpt>
      <trkpt lat="42.470064000" lon="-2.456624000">
        <ele>378.60</ele>
        <time>2016-10-22T09:15:44Z</time>
      </trkpt>
      <trkpt lat="42.470082000" lon="-2.456673000">
        <ele>378.50</ele>
        <time>2016-10-22T09:15:45Z</time>
      </trkpt>
      <trkpt lat="42.470079000" lon="-2.456729000">
        <ele>378.40</ele>
        <time>2016-10-22T09:15:46Z</time>
      </trkpt>
      <trkpt lat="42.470063000" lon="-2.456780000">
        <ele>378.30</ele>
        <time>2016-10-22T09:15:47Z</time>
      </trkpt>
      <trkpt lat="42.470039000" lon="-2.456828000">
        <ele>378.20</ele>
        <time>2016-10-22T09:15:48Z</time>
      </trkpt>
      <trkpt lat="42.470010000" lon="-2.456870000">
        <ele>378.10</ele>
        <time>2016-10-22T09:15:49Z</time>
      </trkpt>
      <trkpt lat="42.469977000" lon="-2.456913000">
        <ele>378.30</ele>
        <time>2016-10-22T09:15:50Z</time>
      </trkpt>
      <trkpt lat="42.469947000" lon="-2.456951000">
        <ele>378.40</ele>
        <time>2016-10-22T09:15:51Z</time>
      </trkpt>
      <trkpt lat="42.469914000" lon="-2.456994000">
        <ele>378.60</ele>
        <time>2016-10-22T09:15:52Z</time>
      </trkpt>
      <trkpt lat="42.469881000" lon="-2.457035000">
        <ele>378.70</ele>
        <time>2016-10-22T09:15:53Z</time>
      </trkpt>
      <trkpt lat="42.469849000" lon="-2.457074000">
        <ele>378.90</ele>
        <time>2016-10-22T09:15:54Z</time>
      </trkpt>
      <trkpt lat="42.469816000" lon="-2.457115000">
        <ele>379.00</ele>
        <time>2016-10-22T09:15:55Z</time>
      </trkpt>
      <trkpt lat="42.469783000" lon="-2.457153000">
        <ele>379.50</ele>
        <time>2016-10-22T09:15:56Z</time>
      </trkpt>
      <trkpt lat="42.469754000" lon="-2.457194000">
        <ele>379.90</ele>
        <time>2016-10-22T09:15:57Z</time>
      </trkpt>
      <trkpt lat="42.469728000" lon="-2.457235000">
        <ele>380.30</ele>
        <time>2016-10-22T09:15:58Z</time>
      </trkpt>
      <trkpt lat="42.469705000" lon="-2.457270000">
        <ele>380.60</ele>
        <time>2016-10-22T09:15:59Z</time>
      </trkpt>
      <trkpt lat="42.469685000" lon="-2.457299000">
        <ele>381.00</ele>
        <time>2016-10-22T09:16:00Z</time>
      </trkpt>
      <trkpt lat="42.469664000" lon="-2.457327000">
        <ele>381.20</ele>
        <time>2016-10-22T09:16:01Z</time>
      </trkpt>
      <trkpt lat="42.469649000" lon="-2.457352000">
        <ele>381.40</ele>
        <time>2016-10-22T09:16:02Z</time>
      </trkpt>
      <trkpt lat="42.469632000" lon="-2.457377000">
        <ele>381.50</ele>
        <time>2016-10-22T09:16:03Z</time>
      </trkpt>
      <trkpt lat="42.469614000" lon="-2.457400000">
        <ele>381.60</ele>
        <time>2016-10-22T09:16:04Z</time>
      </trkpt>
      <trkpt lat="42.469597000" lon="-2.457418000">
        <ele>381.80</ele>
        <time>2016-10-22T09:16:05Z</time>
      </trkpt>
      <trkpt lat="42.469590000" lon="-2.457439000">
        <ele>381.90</ele>
        <time>2016-10-22T09:16:06Z</time>
      </trkpt>
      <trkpt lat="42.469595000" lon="-2.457477000">
        <ele>382.00</ele>
        <time>2016-10-22T09:16:07Z</time>
      </trkpt>
      <trkpt lat="42.469607000" lon="-2.457521000">
        <ele>382.10</ele>
        <time>2016-10-22T09:16:08Z</time>
      </trkpt>
      <trkpt lat="42.469625000" lon="-2.457564000">
        <ele>382.20</ele>
        <time>2016-10-22T09:16:09Z</time>
      </trkpt>
      <trkpt lat="42.469644000" lon="-2.457608000">
        <ele>382.20</ele>
        <time>2016-10-22T09:16:10Z</time>
      </trkpt>
      <trkpt lat="42.469661000" lon="-2.457649000">
        <ele>382.30</ele>
        <time>2016-10-22T09:16:11Z</time>
      </trkpt>
      <trkpt lat="42.469673000" lon="-2.457682000">
        <ele>382.30</ele>
        <time>2016-10-22T09:16:12Z</time>
      </trkpt>
      <trkpt lat="42.469684000" lon="-2.457698000">
        <ele>382.30</ele>
        <time>2016-10-22T09:16:13Z</time>
      </trkpt>
      <trkpt lat="42.469687000" lon="-2.457728000">
        <ele>382.40</ele>
        <time>2016-10-22T09:16:14Z</time>
      </trkpt>
      <trkpt lat="42.469674000" lon="-2.457758000">
        <ele>382.40</ele>
        <time>2016-10-22T09:16:15Z</time>
      </trkpt>
      <trkpt lat="42.469660000" lon="-2.457768000">
        <ele>382.50</ele>
        <time>2016-10-22T09:16:16Z</time>
      </trkpt>
      <trkpt lat="42.469647000" lon="-2.457783000">
        <ele>382.50</ele>
        <time>2016-10-22T09:16:17Z</time>
      </trkpt>
      <trkpt lat="42.469634000" lon="-2.457805000">
        <ele>382.50</ele>
        <time>2016-10-22T09:16:18Z</time>
      </trkpt>
      <trkpt lat="42.469610000" lon="-2.457821000">
        <ele>382.50</ele>
        <time>2016-10-22T09:16:19Z</time>
      </trkpt>
      <trkpt lat="42.469587000" lon="-2.457849000">
        <ele>382.50</ele>
        <time>2016-10-22T09:16:20Z</time>
      </trkpt>
      <trkpt lat="42.469577000" lon="-2.457891000">
        <ele>382.40</ele>
        <time>2016-10-22T09:16:21Z</time>
      </trkpt>
      <trkpt lat="42.469585000" lon="-2.457923000">
        <ele>382.40</ele>
        <time>2016-10-22T09:16:22Z</time>
      </trkpt>
      <trkpt lat="42.469599000" lon="-2.457963000">
        <ele>382.40</ele>
        <time>2016-10-22T09:16:23Z</time>
      </trkpt>
      <trkpt lat="42.469618000" lon="-2.458001000">
        <ele>382.50</ele>
        <time>2016-10-22T09:16:24Z</time>
      </trkpt>
      <trkpt lat="42.469640000" lon="-2.458041000">
        <ele>382.60</ele>
        <time>2016-10-22T09:16:25Z</time>
      </trkpt>
      <trkpt lat="42.469659000" lon="-2.458080000">
        <ele>382.60</ele>
        <time>2016-10-22T09:16:26Z</time>
      </trkpt>
      <trkpt lat="42.469682000" lon="-2.458123000">
        <ele>382.70</ele>
        <time>2016-10-22T09:16:27Z</time>
      </trkpt>
      <trkpt lat="42.469703000" lon="-2.458165000">
        <ele>382.80</ele>
        <time>2016-10-22T09:16:28Z</time>
      </trkpt>
      <trkpt lat="42.469718000" lon="-2.458208000">
        <ele>382.90</ele>
        <time>2016-10-22T09:16:29Z</time>
      </trkpt>
      <trkpt lat="42.469721000" lon="-2.458252000">
        <ele>383.00</ele>
        <time>2016-10-22T09:16:30Z</time>
      </trkpt>
      <trkpt lat="42.469715000" lon="-2.458292000">
        <ele>383.10</ele>
        <time>2016-10-22T09:16:31Z</time>
      </trkpt>
      <trkpt lat="42.469705000" lon="-2.458331000">
        <ele>383.40</ele>
        <time>2016-10-22T09:16:32Z</time>
      </trkpt>
      <trkpt lat="42.469691000" lon="-2.458370000">
        <ele>383.50</ele>
        <time>2016-10-22T09:16:33Z</time>
      </trkpt>
      <trkpt lat="42.469671000" lon="-2.458406000">
        <ele>383.70</ele>
        <time>2016-10-22T09:16:34Z</time>
      </trkpt>
      <trkpt lat="42.469646000" lon="-2.458434000">
        <ele>383.80</ele>
        <time>2016-10-22T09:16:35Z</time>
      </trkpt>
      <trkpt lat="42.469615000" lon="-2.458462000">
        <ele>383.80</ele>
        <time>2016-10-22T09:16:36Z</time>
      </trkpt>
      <trkpt lat="42.469543000" lon="-2.458508000">
        <ele>383.90</ele>
        <time>2016-10-22T09:16:38Z</time>
      </trkpt>
      <trkpt lat="42.469508000" lon="-2.458530000">
        <ele>383.90</ele>
        <time>2016-10-22T09:16:39Z</time>
      </trkpt>
      <trkpt lat="42.469474000" lon="-2.458552000">
        <ele>384.00</ele>
        <time>2016-10-22T09:16:40Z</time>
      </trkpt>
      <trkpt lat="42.469438000" lon="-2.458577000">
        <ele>384.00</ele>
        <time>2016-10-22T09:16:41Z</time>
      </trkpt>
      <trkpt lat="42.469404000" lon="-2.458602000">
        <ele>384.10</ele>
        <time>2016-10-22T09:16:42Z</time>
      </trkpt>
      <trkpt lat="42.469367000" lon="-2.458630000">
        <ele>384.10</ele>
        <time>2016-10-22T09:16:43Z</time>
      </trkpt>
      <trkpt lat="42.469333000" lon="-2.458658000">
        <ele>384.40</ele>
        <time>2016-10-22T09:16:44Z</time>
      </trkpt>
      <trkpt lat="42.469299000" lon="-2.458684000">
        <ele>384.50</ele>
        <time>2016-10-22T09:16:45Z</time>
      </trkpt>
      <trkpt lat="42.469265000" lon="-2.458710000">
        <ele>384.70</ele>
        <time>2016-10-22T09:16:46Z</time>
      </trkpt>
      <trkpt lat="42.469235000" lon="-2.458741000">
        <ele>384.80</ele>
        <time>2016-10-22T09:16:47Z</time>
      </trkpt>
      <trkpt lat="42.469207000" lon="-2.458777000">
        <ele>384.70</ele>
        <time>2016-10-22T09:16:48Z</time>
      </trkpt>
      <trkpt lat="42.469184000" lon="-2.458818000">
        <ele>384.70</ele>
        <time>2016-10-22T09:16:49Z</time>
      </trkpt>
      <trkpt lat="42.469169000" lon="-2.458856000">
        <ele>384.60</ele>
        <time>2016-10-22T09:16:50Z</time>
      </trkpt>
      <trkpt lat="42.469155000" lon="-2.458900000">
        <ele>384.60</ele>
        <time>2016-10-22T09:16:51Z</time>
      </trkpt>
      <trkpt lat="42.469157000" lon="-2.458939000">
        <ele>384.70</ele>
        <time>2016-10-22T09:16:52Z</time>
      </trkpt>
      <trkpt lat="42.469164000" lon="-2.458981000">
        <ele>384.70</ele>
        <time>2016-10-22T09:16:53Z</time>
      </trkpt>
      <trkpt lat="42.469174000" lon="-2.459024000">
        <ele>384.80</ele>
        <time>2016-10-22T09:16:54Z</time>
      </trkpt>
      <trkpt lat="42.469183000" lon="-2.459078000">
        <ele>384.80</ele>
        <time>2016-10-22T09:16:55Z</time>
      </trkpt>
      <trkpt lat="42.469192000" lon="-2.459132000">
        <ele>385.10</ele>
        <time>2016-10-22T09:16:56Z</time>
      </trkpt>
      <trkpt lat="42.469197000" lon="-2.459192000">
        <ele>385.20</ele>
        <time>2016-10-22T09:16:57Z</time>
      </trkpt>
      <trkpt lat="42.469203000" lon="-2.459252000">
        <ele>385.40</ele>
        <time>2016-10-22T09:16:58Z</time>
      </trkpt>
      <trkpt lat="42.469208000" lon="-2.459308000">
        <ele>385.50</ele>
        <time>2016-10-22T09:16:59Z</time>
      </trkpt>
      <trkpt lat="42.469211000" lon="-2.459367000">
        <ele>385.50</ele>
        <time>2016-10-22T09:17:00Z</time>
      </trkpt>
      <trkpt lat="42.469215000" lon="-2.459423000">
        <ele>385.60</ele>
        <time>2016-10-22T09:17:01Z</time>
      </trkpt>
      <trkpt lat="42.469219000" lon="-2.459474000">
        <ele>385.50</ele>
        <time>2016-10-22T09:17:02Z</time>
      </trkpt>
      <trkpt lat="42.469226000" lon="-2.459525000">
        <ele>385.40</ele>
        <time>2016-10-22T09:17:03Z</time>
      </trkpt>
      <trkpt lat="42.469232000" lon="-2.459576000">
        <ele>385.40</ele>
        <time>2016-10-22T09:17:04Z</time>
      </trkpt>
      <trkpt lat="42.469227000" lon="-2.459633000">
        <ele>385.40</ele>
        <time>2016-10-22T09:17:05Z</time>
      </trkpt>
      <trkpt lat="42.469208000" lon="-2.459690000">
        <ele>385.30</ele>
        <time>2016-10-22T09:17:06Z</time>
      </trkpt>
      <trkpt lat="42.469180000" lon="-2.459733000">
        <ele>385.30</ele>
        <time>2016-10-22T09:17:07Z</time>
      </trkpt>
      <trkpt lat="42.469137000" lon="-2.459768000">
        <ele>385.30</ele>
        <time>2016-10-22T09:17:08Z</time>
      </trkpt>
      <trkpt lat="42.469088000" lon="-2.459788000">
        <ele>385.30</ele>
        <time>2016-10-22T09:17:09Z</time>
      </trkpt>
      <trkpt lat="42.469039000" lon="-2.459800000">
        <ele>385.50</ele>
        <time>2016-10-22T09:17:10Z</time>
      </trkpt>
      <trkpt lat="42.468991000" lon="-2.459807000">
        <ele>385.60</ele>
        <time>2016-10-22T09:17:11Z</time>
      </trkpt>
      <trkpt lat="42.468942000" lon="-2.459809000">
        <ele>385.80</ele>
        <time>2016-10-22T09:17:12Z</time>
      </trkpt>
      <trkpt lat="42.468898000" lon="-2.459814000">
        <ele>386.00</ele>
        <time>2016-10-22T09:17:13Z</time>
      </trkpt>
      <trkpt lat="42.468857000" lon="-2.459819000">
        <ele>386.20</ele>
        <time>2016-10-22T09:17:14Z</time>
      </trkpt>
      <trkpt lat="42.468814000" lon="-2.459822000">
        <ele>386.30</ele>
        <time>2016-10-22T09:17:15Z</time>
      </trkpt>
      <trkpt lat="42.468773000" lon="-2.459825000">
        <ele>386.40</ele>
        <time>2016-10-22T09:17:16Z</time>
      </trkpt>
      <trkpt lat="42.468731000" lon="-2.459842000">
        <ele>386.60</ele>
        <time>2016-10-22T09:17:17Z</time>
      </trkpt>
      <trkpt lat="42.468690000" lon="-2.459864000">
        <ele>386.70</ele>
        <time>2016-10-22T09:17:18Z</time>
      </trkpt>
      <trkpt lat="42.468653000" lon="-2.459897000">
        <ele>386.80</ele>
        <time>2016-10-22T09:17:19Z</time>
      </trkpt>
      <trkpt lat="42.468633000" lon="-2.459949000">
        <ele>386.70</ele>
        <time>2016-10-22T09:17:20Z</time>
      </trkpt>
      <trkpt lat="42.468627000" lon="-2.460013000">
        <ele>386.70</ele>
        <time>2016-10-22T09:17:21Z</time>
      </trkpt>
      <trkpt lat="42.468627000" lon="-2.460082000">
        <ele>386.60</ele>
        <time>2016-10-22T09:17:22Z</time>
      </trkpt>
      <trkpt lat="42.468630000" lon="-2.460158000">
        <ele>386.60</ele>
        <time>2016-10-22T09:17:23Z</time>
      </trkpt>
      <trkpt lat="42.468636000" lon="-2.460232000">
        <ele>386.60</ele>
        <time>2016-10-22T09:17:24Z</time>
      </trkpt>
      <trkpt lat="42.468642000" lon="-2.460307000">
        <ele>386.60</ele>
        <time>2016-10-22T09:17:25Z</time>
      </trkpt>
      <trkpt lat="42.468649000" lon="-2.460379000">
        <ele>386.60</ele>
        <time>2016-10-22T09:17:26Z</time>
      </trkpt>
      <trkpt lat="42.468655000" lon="-2.460449000">
        <ele>386.60</ele>
        <time>2016-10-22T09:17:27Z</time>
      </trkpt>
      <trkpt lat="42.468659000" lon="-2.460517000">
        <ele>386.60</ele>
        <time>2016-10-22T09:17:28Z</time>
      </trkpt>
      <trkpt lat="42.468663000" lon="-2.460581000">
        <ele>386.70</ele>
        <time>2016-10-22T09:17:29Z</time>
      </trkpt>
      <trkpt lat="42.468670000" lon="-2.460641000">
        <ele>386.80</ele>
        <time>2016-10-22T09:17:30Z</time>
      </trkpt>
      <trkpt lat="42.468676000" lon="-2.460702000">
        <ele>387.00</ele>
        <time>2016-10-22T09:17:31Z</time>
      </trkpt>
      <trkpt lat="42.468681000" lon="-2.460761000">
        <ele>387.00</ele>
        <time>2016-10-22T09:17:32Z</time>
      </trkpt>
      <trkpt lat="42.468686000" lon="-2.460821000">
        <ele>387.10</ele>
        <time>2016-10-22T09:17:33Z</time>
      </trkpt>
      <trkpt lat="42.468689000" lon="-2.460880000">
        <ele>387.20</ele>
        <time>2016-10-22T09:17:34Z</time>
      </trkpt>
      <trkpt lat="42.468693000" lon="-2.460939000">
        <ele>387.20</ele>
        <time>2016-10-22T09:17:35Z</time>
      </trkpt>
      <trkpt lat="42.468696000" lon="-2.460997000">
        <ele>387.20</ele>
        <time>2016-10-22T09:17:36Z</time>
      </trkpt>
      <trkpt lat="42.468701000" lon="-2.461054000">
        <ele>387.30</ele>
        <time>2016-10-22T09:17:37Z</time>
      </trkpt>
      <trkpt lat="42.468706000" lon="-2.461170000">
        <ele>387.40</ele>
        <time>2016-10-22T09:17:39Z</time>
      </trkpt>
      <trkpt lat="42.468710000" lon="-2.461230000">
        <ele>387.50</ele>
        <time>2016-10-22T09:17:40Z</time>
      </trkpt>
      <trkpt lat="42.468713000" lon="-2.461287000">
        <ele>387.50</ele>
        <time>2016-10-22T09:17:41Z</time>
      </trkpt>
      <trkpt lat="42.468717000" lon="-2.461341000">
        <ele>387.50</ele>
        <time>2016-10-22T09:17:42Z</time>
      </trkpt>
      <trkpt lat="42.468721000" lon="-2.461397000">
        <ele>387.50</ele>
        <time>2016-10-22T09:17:43Z</time>
      </trkpt>
      <trkpt lat="42.468724000" lon="-2.461455000">
        <ele>387.50</ele>
        <time>2016-10-22T09:17:44Z</time>
      </trkpt>
      <trkpt lat="42.468727000" lon="-2.461511000">
        <ele>387.60</ele>
        <time>2016-10-22T09:17:45Z</time>
      </trkpt>
      <trkpt lat="42.468731000" lon="-2.461566000">
        <ele>387.80</ele>
        <time>2016-10-22T09:17:46Z</time>
      </trkpt>
      <trkpt lat="42.468735000" lon="-2.461617000">
        <ele>387.90</ele>
        <time>2016-10-22T09:17:47Z</time>
      </trkpt>
      <trkpt lat="42.468738000" lon="-2.461665000">
        <ele>388.00</ele>
        <time>2016-10-22T09:17:48Z</time>
      </trkpt>
      <trkpt lat="42.468739000" lon="-2.461709000">
        <ele>388.10</ele>
        <time>2016-10-22T09:17:49Z</time>
      </trkpt>
      <trkpt lat="42.468734000" lon="-2.461742000">
        <ele>388.20</ele>
        <time>2016-10-22T09:17:50Z</time>
      </trkpt>
      <trkpt lat="42.468722000" lon="-2.461765000">
        <ele>388.20</ele>
        <time>2016-10-22T09:17:51Z</time>
      </trkpt>
      <trkpt lat="42.468704000" lon="-2.461784000">
        <ele>388.20</ele>
        <time>2016-10-22T09:17:52Z</time>
      </trkpt>
      <trkpt lat="42.468690000" lon="-2.461796000">
        <ele>388.20</ele>
        <time>2016-10-22T09:17:53Z</time>
      </trkpt>
      <trkpt lat="42.468679000" lon="-2.461808000">
        <ele>388.20</ele>
        <time>2016-10-22T09:17:54Z</time>
      </trkpt>
      <trkpt lat="42.468667000" lon="-2.461827000">
        <ele>388.30</ele>
        <time>2016-10-22T09:17:55Z</time>
      </trkpt>
      <trkpt lat="42.468654000" lon="-2.461838000">
        <ele>388.20</ele>
        <time>2016-10-22T09:17:56Z</time>
      </trkpt>
      <trkpt lat="42.468644000" lon="-2.461847000">
        <ele>388.20</ele>
        <time>2016-10-22T09:17:57Z</time>
      </trkpt>
      <trkpt lat="42.468630000" lon="-2.461856000">
        <ele>388.30</ele>
        <time>2016-10-22T09:17:58Z</time>
      </trkpt>
      <trkpt lat="42.468630000" lon="-2.461856000">
        <ele>388.40</ele>
        <time>2016-10-22T09:17:59Z</time>
      </trkpt>
      <trkpt lat="42.468630000" lon="-2.461856000">
        <ele>388.30</ele>
        <time>2016-10-22T09:18:00Z</time>
      </trkpt>
      <trkpt lat="42.468631000" lon="-2.461879000">
        <ele>388.30</ele>
        <time>2016-10-22T09:18:01Z</time>
      </trkpt>
      <trkpt lat="42.468634000" lon="-2.461900000">
        <ele>388.40</ele>
        <time>2016-10-22T09:18:02Z</time>
      </trkpt>
      <trkpt lat="42.468635000" lon="-2.461927000">
        <ele>388.40</ele>
        <time>2016-10-22T09:18:03Z</time>
      </trkpt>
      <trkpt lat="42.468633000" lon="-2.461955000">
        <ele>388.40</ele>
        <time>2016-10-22T09:18:04Z</time>
      </trkpt>
      <trkpt lat="42.468631000" lon="-2.461977000">
        <ele>388.40</ele>
        <time>2016-10-22T09:18:05Z</time>
      </trkpt>
      <trkpt lat="42.468632000" lon="-2.462000000">
        <ele>388.50</ele>
        <time>2016-10-22T09:18:06Z</time>
      </trkpt>
      <trkpt lat="42.468637000" lon="-2.462016000">
        <ele>388.60</ele>
        <time>2016-10-22T09:18:07Z</time>
      </trkpt>
      <trkpt lat="42.468638000" lon="-2.462038000">
        <ele>388.60</ele>
        <time>2016-10-22T09:18:08Z</time>
      </trkpt>
      <trkpt lat="42.468640000" lon="-2.462059000">
        <ele>388.70</ele>
        <time>2016-10-22T09:18:09Z</time>
      </trkpt>
      <trkpt lat="42.468644000" lon="-2.462074000">
        <ele>388.70</ele>
        <time>2016-10-22T09:18:10Z</time>
      </trkpt>
      <trkpt lat="42.468656000" lon="-2.462093000">
        <ele>388.70</ele>
        <time>2016-10-22T09:18:11Z</time>
      </trkpt>
      <trkpt lat="42.468665000" lon="-2.462113000">
        <ele>388.70</ele>
        <time>2016-10-22T09:18:12Z</time>
      </trkpt>
      <trkpt lat="42.468671000" lon="-2.462132000">
        <ele>388.80</ele>
        <time>2016-10-22T09:18:13Z</time>
      </trkpt>
      <trkpt lat="42.468676000" lon="-2.462144000">
        <ele>388.80</ele>
        <time>2016-10-22T09:18:14Z</time>
      </trkpt>
      <trkpt lat="42.468676000" lon="-2.462144000">
        <ele>388.80</ele>
        <time>2016-10-22T09:18:15Z</time>
      </trkpt>
      <trkpt lat="42.468676000" lon="-2.462144000">
        <ele>388.80</ele>
        <time>2016-10-22T09:18:16Z</time>
      </trkpt>
      <trkpt lat="42.468676000" lon="-2.462144000">
        <ele>388.80</ele>
        <time>2016-10-22T09:18:17Z</time>
      </trkpt>
      <trkpt lat="42.468676000" lon="-2.462144000">
        <ele>389.00</ele>
        <time>2016-10-22T09:18:18Z</time>
      </trkpt>
      <trkpt lat="42.468676000" lon="-2.462144000">
        <ele>389.10</ele>
        <time>2016-10-22T09:18:19Z</time>
      </trkpt>
      <trkpt lat="42.468676000" lon="-2.462144000">
        <ele>389.20</ele>
        <time>2016-10-22T09:18:20Z</time>
      </trkpt>
      <trkpt lat="42.468676000" lon="-2.462144000">
        <ele>389.30</ele>
        <time>2016-10-22T09:18:21Z</time>
      </trkpt>
      <trkpt lat="42.468676000" lon="-2.462144000">
        <ele>389.30</ele>
        <time>2016-10-22T09:18:22Z</time>
      </trkpt>
      <trkpt lat="42.468676000" lon="-2.462144000">
        <ele>389.40</ele>
        <time>2016-10-22T09:18:23Z</time>
      </trkpt>
      <trkpt lat="42.468676000" lon="-2.462144000">
        <ele>389.40</ele>
        <time>2016-10-22T09:18:24Z</time>
      </trkpt>
      <trkpt lat="42.468676000" lon="-2.462144000">
        <ele>389.40</ele>
        <time>2016-10-22T09:18:25Z</time>
      </trkpt>
      <trkpt lat="42.468676000" lon="-2.462144000">
        <ele>389.40</ele>
        <time>2016-10-22T09:18:26Z</time>
      </trkpt>
      <trkpt lat="42.468676000" lon="-2.462144000">
        <ele>389.50</ele>
        <time>2016-10-22T09:18:27Z</time>
      </trkpt>
      <trkpt lat="42.468676000" lon="-2.462144000">
        <ele>389.40</ele>
        <time>2016-10-22T09:18:28Z</time>
      </trkpt>
      <trkpt lat="42.468676000" lon="-2.462144000">
        <ele>389.40</ele>
        <time>2016-10-22T09:18:29Z</time>
      </trkpt>
      <trkpt lat="42.468676000" lon="-2.462132000">
        <ele>389.40</ele>
        <time>2016-10-22T09:18:30Z</time>
      </trkpt>
      <trkpt lat="42.468669000" lon="-2.462121000">
        <ele>389.40</ele>
        <time>2016-10-22T09:18:31Z</time>
      </trkpt>
      <trkpt lat="42.468658000" lon="-2.462106000">
        <ele>389.40</ele>
        <time>2016-10-22T09:18:32Z</time>
      </trkpt>
      <trkpt lat="42.468634000" lon="-2.462106000">
        <ele>389.30</ele>
        <time>2016-10-22T09:18:33Z</time>
      </trkpt>
      <trkpt lat="42.468611000" lon="-2.462114000">
        <ele>389.30</ele>
        <time>2016-10-22T09:18:34Z</time>
      </trkpt>
      <trkpt lat="42.468585000" lon="-2.462120000">
        <ele>389.30</ele>
        <time>2016-10-22T09:18:35Z</time>
      </trkpt>
      <trkpt lat="42.468552000" lon="-2.462124000">
        <ele>389.40</ele>
        <time>2016-10-22T09:18:36Z</time>
      </trkpt>
      <trkpt lat="42.468524000" lon="-2.462126000">
        <ele>389.40</ele>
        <time>2016-10-22T09:18:37Z</time>
      </trkpt>
      <trkpt lat="42.468492000" lon="-2.462130000">
        <ele>389.50</ele>
        <time>2016-10-22T09:18:38Z</time>
      </trkpt>
      <trkpt lat="42.468429000" lon="-2.462142000">
        <ele>389.50</ele>
        <time>2016-10-22T09:18:40Z</time>
      </trkpt>
      <trkpt lat="42.468401000" lon="-2.462148000">
        <ele>389.50</ele>
        <time>2016-10-22T09:18:41Z</time>
      </trkpt>
      <trkpt lat="42.468372000" lon="-2.462155000">
        <ele>389.50</ele>
        <time>2016-10-22T09:18:42Z</time>
      </trkpt>
      <trkpt lat="42.468342000" lon="-2.462163000">
        <ele>389.40</ele>
        <time>2016-10-22T09:18:43Z</time>
      </trkpt>
      <trkpt lat="42.468308000" lon="-2.462170000">
        <ele>389.30</ele>
        <time>2016-10-22T09:18:44Z</time>
      </trkpt>
      <trkpt lat="42.468272000" lon="-2.462176000">
        <ele>389.30</ele>
        <time>2016-10-22T09:18:45Z</time>
      </trkpt>
      <trkpt lat="42.468235000" lon="-2.462179000">
        <ele>389.10</ele>
        <time>2016-10-22T09:18:46Z</time>
      </trkpt>
      <trkpt lat="42.468199000" lon="-2.462179000">
        <ele>389.00</ele>
        <time>2016-10-22T09:18:47Z</time>
      </trkpt>
      <trkpt lat="42.468162000" lon="-2.462182000">
        <ele>388.90</ele>
        <time>2016-10-22T09:18:48Z</time>
      </trkpt>
      <trkpt lat="42.468122000" lon="-2.462184000">
        <ele>388.80</ele>
        <time>2016-10-22T09:18:49Z</time>
      </trkpt>
      <trkpt lat="42.468087000" lon="-2.462187000">
        <ele>389.00</ele>
        <time>2016-10-22T09:18:50Z</time>
      </trkpt>
      <trkpt lat="42.468050000" lon="-2.462191000">
        <ele>389.20</ele>
        <time>2016-10-22T09:18:51Z</time>
      </trkpt>
      <trkpt lat="42.468012000" lon="-2.462187000">
        <ele>389.30</ele>
        <time>2016-10-22T09:18:52Z</time>
      </trkpt>
      <trkpt lat="42.467980000" lon="-2.462187000">
        <ele>389.30</ele>
        <time>2016-10-22T09:18:53Z</time>
      </trkpt>
      <trkpt lat="42.467944000" lon="-2.462190000">
        <ele>389.40</ele>
        <time>2016-10-22T09:18:54Z</time>
      </trkpt>
      <trkpt lat="42.467906000" lon="-2.462199000">
        <ele>389.50</ele>
        <time>2016-10-22T09:18:55Z</time>
      </trkpt>
      <trkpt lat="42.467866000" lon="-2.462204000">
        <ele>389.60</ele>
        <time>2016-10-22T09:18:56Z</time>
      </trkpt>
      <trkpt lat="42.467827000" lon="-2.462208000">
        <ele>389.70</ele>
        <time>2016-10-22T09:18:57Z</time>
      </trkpt>
      <trkpt lat="42.467791000" lon="-2.462216000">
        <ele>389.80</ele>
        <time>2016-10-22T09:18:58Z</time>
      </trkpt>
      <trkpt lat="42.467754000" lon="-2.462218000">
        <ele>389.90</ele>
        <time>2016-10-22T09:18:59Z</time>
      </trkpt>
      <trkpt lat="42.467720000" lon="-2.462228000">
        <ele>389.90</ele>
        <time>2016-10-22T09:19:00Z</time>
      </trkpt>
      <trkpt lat="42.467682000" lon="-2.462236000">
        <ele>390.00</ele>
        <time>2016-10-22T09:19:01Z</time>
      </trkpt>
      <trkpt lat="42.467645000" lon="-2.462243000">
        <ele>390.00</ele>
        <time>2016-10-22T09:19:02Z</time>
      </trkpt>
      <trkpt lat="42.467612000" lon="-2.462247000">
        <ele>390.00</ele>
        <time>2016-10-22T09:19:03Z</time>
      </trkpt>
      <trkpt lat="42.467580000" lon="-2.462246000">
        <ele>390.20</ele>
        <time>2016-10-22T09:19:04Z</time>
      </trkpt>
      <trkpt lat="42.467547000" lon="-2.462251000">
        <ele>390.30</ele>
        <time>2016-10-22T09:19:05Z</time>
      </trkpt>
      <trkpt lat="42.467519000" lon="-2.462267000">
        <ele>390.40</ele>
        <time>2016-10-22T09:19:06Z</time>
      </trkpt>
      <trkpt lat="42.467487000" lon="-2.462286000">
        <ele>390.40</ele>
        <time>2016-10-22T09:19:07Z</time>
      </trkpt>
      <trkpt lat="42.467459000" lon="-2.462311000">
        <ele>390.60</ele>
        <time>2016-10-22T09:19:08Z</time>
      </trkpt>
      <trkpt lat="42.467433000" lon="-2.462342000">
        <ele>390.70</ele>
        <time>2016-10-22T09:19:09Z</time>
      </trkpt>
      <trkpt lat="42.467406000" lon="-2.462370000">
        <ele>390.90</ele>
        <time>2016-10-22T09:19:10Z</time>
      </trkpt>
      <trkpt lat="42.467367000" lon="-2.462381000">
        <ele>391.00</ele>
        <time>2016-10-22T09:19:11Z</time>
      </trkpt>
      <trkpt lat="42.467325000" lon="-2.462384000">
        <ele>391.10</ele>
        <time>2016-10-22T09:19:12Z</time>
      </trkpt>
      <trkpt lat="42.467281000" lon="-2.462382000">
        <ele>391.20</ele>
        <time>2016-10-22T09:19:13Z</time>
      </trkpt>
      <trkpt lat="42.467239000" lon="-2.462375000">
        <ele>391.20</ele>
        <time>2016-10-22T09:19:14Z</time>
      </trkpt>
      <trkpt lat="42.467195000" lon="-2.462360000">
        <ele>391.30</ele>
        <time>2016-10-22T09:19:15Z</time>
      </trkpt>
      <trkpt lat="42.467150000" lon="-2.462344000">
        <ele>391.30</ele>
        <time>2016-10-22T09:19:16Z</time>
      </trkpt>
      <trkpt lat="42.467101000" lon="-2.462331000">
        <ele>391.30</ele>
        <time>2016-10-22T09:19:17Z</time>
      </trkpt>
      <trkpt lat="42.467055000" lon="-2.462324000">
        <ele>391.40</ele>
        <time>2016-10-22T09:19:18Z</time>
      </trkpt>
      <trkpt lat="42.467011000" lon="-2.462326000">
        <ele>391.40</ele>
        <time>2016-10-22T09:19:19Z</time>
      </trkpt>
      <trkpt lat="42.466964000" lon="-2.462344000">
        <ele>391.50</ele>
        <time>2016-10-22T09:19:20Z</time>
      </trkpt>
      <trkpt lat="42.466916000" lon="-2.462362000">
        <ele>391.50</ele>
        <time>2016-10-22T09:19:21Z</time>
      </trkpt>
      <trkpt lat="42.466870000" lon="-2.462378000">
        <ele>391.60</ele>
        <time>2016-10-22T09:19:22Z</time>
      </trkpt>
      <trkpt lat="42.466824000" lon="-2.462397000">
        <ele>391.70</ele>
        <time>2016-10-22T09:19:23Z</time>
      </trkpt>
      <trkpt lat="42.466781000" lon="-2.462421000">
        <ele>391.70</ele>
        <time>2016-10-22T09:19:24Z</time>
      </trkpt>
      <trkpt lat="42.466740000" lon="-2.462446000">
        <ele>391.70</ele>
        <time>2016-10-22T09:19:25Z</time>
      </trkpt>
      <trkpt lat="42.466699000" lon="-2.462474000">
        <ele>391.70</ele>
        <time>2016-10-22T09:19:26Z</time>
      </trkpt>
      <trkpt lat="42.466657000" lon="-2.462496000">
        <ele>391.70</ele>
        <time>2016-10-22T09:19:27Z</time>
      </trkpt>
      <trkpt lat="42.466614000" lon="-2.462516000">
        <ele>391.60</ele>
        <time>2016-10-22T09:19:28Z</time>
      </trkpt>
      <trkpt lat="42.466571000" lon="-2.462537000">
        <ele>391.50</ele>
        <time>2016-10-22T09:19:29Z</time>
      </trkpt>
      <trkpt lat="42.466529000" lon="-2.462560000">
        <ele>391.50</ele>
        <time>2016-10-22T09:19:30Z</time>
      </trkpt>
      <trkpt lat="42.466487000" lon="-2.462575000">
        <ele>391.40</ele>
        <time>2016-10-22T09:19:31Z</time>
      </trkpt>
      <trkpt lat="42.466446000" lon="-2.462592000">
        <ele>391.50</ele>
        <time>2016-10-22T09:19:32Z</time>
      </trkpt>
      <trkpt lat="42.466407000" lon="-2.462607000">
        <ele>391.60</ele>
        <time>2016-10-22T09:19:33Z</time>
      </trkpt>
      <trkpt lat="42.466367000" lon="-2.462623000">
        <ele>391.70</ele>
        <time>2016-10-22T09:19:34Z</time>
      </trkpt>
      <trkpt lat="42.466333000" lon="-2.462634000">
        <ele>391.70</ele>
        <time>2016-10-22T09:19:35Z</time>
      </trkpt>
      <trkpt lat="42.466296000" lon="-2.462652000">
        <ele>391.70</ele>
        <time>2016-10-22T09:19:36Z</time>
      </trkpt>
      <trkpt lat="42.466258000" lon="-2.462664000">
        <ele>391.80</ele>
        <time>2016-10-22T09:19:37Z</time>
      </trkpt>
      <trkpt lat="42.466218000" lon="-2.462672000">
        <ele>391.80</ele>
        <time>2016-10-22T09:19:38Z</time>
      </trkpt>
      <trkpt lat="42.466175000" lon="-2.462681000">
        <ele>391.80</ele>
        <time>2016-10-22T09:19:39Z</time>
      </trkpt>
      <trkpt lat="42.466091000" lon="-2.462691000">
        <ele>391.60</ele>
        <time>2016-10-22T09:19:41Z</time>
      </trkpt>
      <trkpt lat="42.466048000" lon="-2.462696000">
        <ele>391.50</ele>
        <time>2016-10-22T09:19:42Z</time>
      </trkpt>
      <trkpt lat="42.466007000" lon="-2.462707000">
        <ele>391.50</ele>
        <time>2016-10-22T09:19:43Z</time>
      </trkpt>
      <trkpt lat="42.465973000" lon="-2.462721000">
        <ele>391.40</ele>
        <time>2016-10-22T09:19:44Z</time>
      </trkpt>
      <trkpt lat="42.465932000" lon="-2.462735000">
        <ele>391.40</ele>
        <time>2016-10-22T09:19:45Z</time>
      </trkpt>
      <trkpt lat="42.465887000" lon="-2.462742000">
        <ele>391.60</ele>
        <time>2016-10-22T09:19:46Z</time>
      </trkpt>
      <trkpt lat="42.465842000" lon="-2.462749000">
        <ele>391.70</ele>
        <time>2016-10-22T09:19:47Z</time>
      </trkpt>
      <trkpt lat="42.465792000" lon="-2.462759000">
        <ele>391.80</ele>
        <time>2016-10-22T09:19:48Z</time>
      </trkpt>
      <trkpt lat="42.465740000" lon="-2.462765000">
        <ele>391.90</ele>
        <time>2016-10-22T09:19:49Z</time>
      </trkpt>
      <trkpt lat="42.465689000" lon="-2.462772000">
        <ele>391.90</ele>
        <time>2016-10-22T09:19:50Z</time>
      </trkpt>
      <trkpt lat="42.465640000" lon="-2.462782000">
        <ele>392.00</ele>
        <time>2016-10-22T09:19:51Z</time>
      </trkpt>
      <trkpt lat="42.465594000" lon="-2.462797000">
        <ele>392.10</ele>
        <time>2016-10-22T09:19:52Z</time>
      </trkpt>
      <trkpt lat="42.465550000" lon="-2.462803000">
        <ele>392.10</ele>
        <time>2016-10-22T09:19:53Z</time>
      </trkpt>
      <trkpt lat="42.465505000" lon="-2.462817000">
        <ele>392.30</ele>
        <time>2016-10-22T09:19:54Z</time>
      </trkpt>
      <trkpt lat="42.465460000" lon="-2.462833000">
        <ele>392.40</ele>
        <time>2016-10-22T09:19:55Z</time>
      </trkpt>
      <trkpt lat="42.465415000" lon="-2.462847000">
        <ele>392.50</ele>
        <time>2016-10-22T09:19:56Z</time>
      </trkpt>
      <trkpt lat="42.465373000" lon="-2.462854000">
        <ele>392.60</ele>
        <time>2016-10-22T09:19:57Z</time>
      </trkpt>
      <trkpt lat="42.465334000" lon="-2.462864000">
        <ele>392.70</ele>
        <time>2016-10-22T09:19:58Z</time>
      </trkpt>
      <trkpt lat="42.465294000" lon="-2.462876000">
        <ele>392.80</ele>
        <time>2016-10-22T09:19:59Z</time>
      </trkpt>
      <trkpt lat="42.465252000" lon="-2.462883000">
        <ele>392.90</ele>
        <time>2016-10-22T09:20:00Z</time>
      </trkpt>
      <trkpt lat="42.465212000" lon="-2.462886000">
        <ele>393.00</ele>
        <time>2016-10-22T09:20:01Z</time>
      </trkpt>
      <trkpt lat="42.465170000" lon="-2.462886000">
        <ele>393.10</ele>
        <time>2016-10-22T09:20:02Z</time>
      </trkpt>
      <trkpt lat="42.465126000" lon="-2.462892000">
        <ele>393.20</ele>
        <time>2016-10-22T09:20:03Z</time>
      </trkpt>
      <trkpt lat="42.465083000" lon="-2.462894000">
        <ele>393.00</ele>
        <time>2016-10-22T09:20:04Z</time>
      </trkpt>
      <trkpt lat="42.465041000" lon="-2.462893000">
        <ele>392.90</ele>
        <time>2016-10-22T09:20:05Z</time>
      </trkpt>
      <trkpt lat="42.464998000" lon="-2.462890000">
        <ele>392.90</ele>
        <time>2016-10-22T09:20:06Z</time>
      </trkpt>
      <trkpt lat="42.464957000" lon="-2.462886000">
        <ele>392.90</ele>
        <time>2016-10-22T09:20:07Z</time>
      </trkpt>
      <trkpt lat="42.464911000" lon="-2.462885000">
        <ele>392.90</ele>
        <time>2016-10-22T09:20:08Z</time>
      </trkpt>
      <trkpt lat="42.464865000" lon="-2.462873000">
        <ele>392.90</ele>
        <time>2016-10-22T09:20:09Z</time>
      </trkpt>
      <trkpt lat="42.464818000" lon="-2.462860000">
        <ele>392.90</ele>
        <time>2016-10-22T09:20:10Z</time>
      </trkpt>
      <trkpt lat="42.464772000" lon="-2.462842000">
        <ele>392.90</ele>
        <time>2016-10-22T09:20:11Z</time>
      </trkpt>
      <trkpt lat="42.464722000" lon="-2.462825000">
        <ele>392.90</ele>
        <time>2016-10-22T09:20:12Z</time>
      </trkpt>
      <trkpt lat="42.464666000" lon="-2.462805000">
        <ele>392.90</ele>
        <time>2016-10-22T09:20:13Z</time>
      </trkpt>
      <trkpt lat="42.464619000" lon="-2.462772000">
        <ele>393.00</ele>
        <time>2016-10-22T09:20:14Z</time>
      </trkpt>
      <trkpt lat="42.464577000" lon="-2.462740000">
        <ele>393.10</ele>
        <time>2016-10-22T09:20:15Z</time>
      </trkpt>
      <trkpt lat="42.464537000" lon="-2.462706000">
        <ele>393.20</ele>
        <time>2016-10-22T09:20:16Z</time>
      </trkpt>
      <trkpt lat="42.464495000" lon="-2.462678000">
        <ele>393.20</ele>
        <time>2016-10-22T09:20:17Z</time>
      </trkpt>
      <trkpt lat="42.464455000" lon="-2.462648000">
        <ele>393.20</ele>
        <time>2016-10-22T09:20:18Z</time>
      </trkpt>
      <trkpt lat="42.464413000" lon="-2.462614000">
        <ele>393.30</ele>
        <time>2016-10-22T09:20:19Z</time>
      </trkpt>
      <trkpt lat="42.464374000" lon="-2.462582000">
        <ele>393.20</ele>
        <time>2016-10-22T09:20:20Z</time>
      </trkpt>
      <trkpt lat="42.464334000" lon="-2.462554000">
        <ele>393.20</ele>
        <time>2016-10-22T09:20:21Z</time>
      </trkpt>
      <trkpt lat="42.464295000" lon="-2.462522000">
        <ele>393.10</ele>
        <time>2016-10-22T09:20:22Z</time>
      </trkpt>
      <trkpt lat="42.464256000" lon="-2.462489000">
        <ele>393.00</ele>
        <time>2016-10-22T09:20:23Z</time>
      </trkpt>
      <trkpt lat="42.464215000" lon="-2.462459000">
        <ele>393.00</ele>
        <time>2016-10-22T09:20:24Z</time>
      </trkpt>
      <trkpt lat="42.464177000" lon="-2.462432000">
        <ele>392.90</ele>
        <time>2016-10-22T09:20:25Z</time>
      </trkpt>
      <trkpt lat="42.464137000" lon="-2.462407000">
        <ele>392.90</ele>
        <time>2016-10-22T09:20:26Z</time>
      </trkpt>
      <trkpt lat="42.464097000" lon="-2.462380000">
        <ele>393.00</ele>
        <time>2016-10-22T09:20:27Z</time>
      </trkpt>
      <trkpt lat="42.464059000" lon="-2.462356000">
        <ele>393.00</ele>
        <time>2016-10-22T09:20:28Z</time>
      </trkpt>
      <trkpt lat="42.464020000" lon="-2.462334000">
        <ele>393.00</ele>
        <time>2016-10-22T09:20:29Z</time>
      </trkpt>
      <trkpt lat="42.463981000" lon="-2.462310000">
        <ele>393.10</ele>
        <time>2016-10-22T09:20:30Z</time>
      </trkpt>
      <trkpt lat="42.463950000" lon="-2.462279000">
        <ele>393.10</ele>
        <time>2016-10-22T09:20:31Z</time>
      </trkpt>
      <trkpt lat="42.463918000" lon="-2.462256000">
        <ele>393.20</ele>
        <time>2016-10-22T09:20:32Z</time>
      </trkpt>
      <trkpt lat="42.463884000" lon="-2.462232000">
        <ele>393.20</ele>
        <time>2016-10-22T09:20:33Z</time>
      </trkpt>
      <trkpt lat="42.463851000" lon="-2.462208000">
        <ele>393.30</ele>
        <time>2016-10-22T09:20:34Z</time>
      </trkpt>
      <trkpt lat="42.463823000" lon="-2.462190000">
        <ele>393.40</ele>
        <time>2016-10-22T09:20:35Z</time>
      </trkpt>
      <trkpt lat="42.463795000" lon="-2.462179000">
        <ele>393.40</ele>
        <time>2016-10-22T09:20:36Z</time>
      </trkpt>
      <trkpt lat="42.463770000" lon="-2.462179000">
        <ele>393.50</ele>
        <time>2016-10-22T09:20:37Z</time>
      </trkpt>
      <trkpt lat="42.463756000" lon="-2.462175000">
        <ele>393.50</ele>
        <time>2016-10-22T09:20:38Z</time>
      </trkpt>
      <trkpt lat="42.463745000" lon="-2.462168000">
        <ele>393.50</ele>
        <time>2016-10-22T09:20:39Z</time>
      </trkpt>
      <trkpt lat="42.463740000" lon="-2.462168000">
        <ele>393.50</ele>
        <time>2016-10-22T09:20:40Z</time>
      </trkpt>
      <trkpt lat="42.463740000" lon="-2.462168000">
        <ele>393.70</ele>
        <time>2016-10-22T09:20:42Z</time>
      </trkpt>
      <trkpt lat="42.463740000" lon="-2.462168000">
        <ele>393.80</ele>
        <time>2016-10-22T09:20:43Z</time>
      </trkpt>
      <trkpt lat="42.463740000" lon="-2.462168000">
        <ele>393.90</ele>
        <time>2016-10-22T09:20:44Z</time>
      </trkpt>
      <trkpt lat="42.463740000" lon="-2.462168000">
        <ele>393.90</ele>
        <time>2016-10-22T09:20:45Z</time>
      </trkpt>
      <trkpt lat="42.463740000" lon="-2.462168000">
        <ele>394.00</ele>
        <time>2016-10-22T09:20:46Z</time>
      </trkpt>
      <trkpt lat="42.463740000" lon="-2.462168000">
        <ele>394.10</ele>
        <time>2016-10-22T09:20:47Z</time>
      </trkpt>
      <trkpt lat="42.463740000" lon="-2.462168000">
        <ele>394.20</ele>
        <time>2016-10-22T09:20:48Z</time>
      </trkpt>
      <trkpt lat="42.463718000" lon="-2.462162000">
        <ele>394.20</ele>
        <time>2016-10-22T09:20:49Z</time>
      </trkpt>
      <trkpt lat="42.463691000" lon="-2.462159000">
        <ele>394.20</ele>
        <time>2016-10-22T09:20:50Z</time>
      </trkpt>
      <trkpt lat="42.463656000" lon="-2.462158000">
        <ele>394.20</ele>
        <time>2016-10-22T09:20:51Z</time>
      </trkpt>
      <trkpt lat="42.463623000" lon="-2.462170000">
        <ele>394.10</ele>
        <time>2016-10-22T09:20:52Z</time>
      </trkpt>
      <trkpt lat="42.463601000" lon="-2.462185000">
        <ele>394.10</ele>
        <time>2016-10-22T09:20:53Z</time>
      </trkpt>
      <trkpt lat="42.463601000" lon="-2.462185000">
        <ele>394.10</ele>
        <time>2016-10-22T09:20:54Z</time>
      </trkpt>
      <trkpt lat="42.463601000" lon="-2.462185000">
        <ele>394.10</ele>
        <time>2016-10-22T09:20:55Z</time>
      </trkpt>
      <trkpt lat="42.463560000" lon="-2.462230000">
        <ele>394.10</ele>
        <time>2016-10-22T09:20:56Z</time>
      </trkpt>
      <trkpt lat="42.463520000" lon="-2.462271000">
        <ele>394.10</ele>
        <time>2016-10-22T09:20:57Z</time>
      </trkpt>
      <trkpt lat="42.463489000" lon="-2.462317000">
        <ele>394.20</ele>
        <time>2016-10-22T09:20:58Z</time>
      </trkpt>
      <trkpt lat="42.463447000" lon="-2.462314000">
        <ele>394.20</ele>
        <time>2016-10-22T09:20:59Z</time>
      </trkpt>
      <trkpt lat="42.463406000" lon="-2.462289000">
        <ele>394.40</ele>
        <time>2016-10-22T09:21:00Z</time>
      </trkpt>
      <trkpt lat="42.463368000" lon="-2.462251000">
        <ele>394.50</ele>
        <time>2016-10-22T09:21:01Z</time>
      </trkpt>
      <trkpt lat="42.463335000" lon="-2.462203000">
        <ele>394.60</ele>
        <time>2016-10-22T09:21:02Z</time>
      </trkpt>
      <trkpt lat="42.463301000" lon="-2.462164000">
        <ele>394.70</ele>
        <time>2016-10-22T09:21:03Z</time>
      </trkpt>
      <trkpt lat="42.463261000" lon="-2.462129000">
        <ele>394.70</ele>
        <time>2016-10-22T09:21:04Z</time>
      </trkpt>
      <trkpt lat="42.463217000" lon="-2.462099000">
        <ele>394.70</ele>
        <time>2016-10-22T09:21:05Z</time>
      </trkpt>
      <trkpt lat="42.463166000" lon="-2.462079000">
        <ele>394.70</ele>
        <time>2016-10-22T09:21:06Z</time>
      </trkpt>
      <trkpt lat="42.463114000" lon="-2.462063000">
        <ele>394.80</ele>
        <time>2016-10-22T09:21:07Z</time>
      </trkpt>
      <trkpt lat="42.463063000" lon="-2.462048000">
        <ele>394.80</ele>
        <time>2016-10-22T09:21:08Z</time>
      </trkpt>
      <trkpt lat="42.463014000" lon="-2.462029000">
        <ele>394.80</ele>
        <time>2016-10-22T09:21:09Z</time>
      </trkpt>
      <trkpt lat="42.462967000" lon="-2.462012000">
        <ele>394.60</ele>
        <time>2016-10-22T09:21:10Z</time>
      </trkpt>
      <trkpt lat="42.462919000" lon="-2.461994000">
        <ele>394.60</ele>
        <time>2016-10-22T09:21:11Z</time>
      </trkpt>
      <trkpt lat="42.462870000" lon="-2.461970000">
        <ele>394.50</ele>
        <time>2016-10-22T09:21:12Z</time>
      </trkpt>
      <trkpt lat="42.462819000" lon="-2.461951000">
        <ele>394.40</ele>
        <time>2016-10-22T09:21:13Z</time>
      </trkpt>
      <trkpt lat="42.462770000" lon="-2.461931000">
        <ele>394.60</ele>
        <time>2016-10-22T09:21:14Z</time>
      </trkpt>
      <trkpt lat="42.462722000" lon="-2.461912000">
        <ele>394.80</ele>
        <time>2016-10-22T09:21:15Z</time>
      </trkpt>
      <trkpt lat="42.462672000" lon="-2.461893000">
        <ele>394.90</ele>
        <time>2016-10-22T09:21:16Z</time>
      </trkpt>
      <trkpt lat="42.462624000" lon="-2.461870000">
        <ele>395.00</ele>
        <time>2016-10-22T09:21:17Z</time>
      </trkpt>
      <trkpt lat="42.462577000" lon="-2.461847000">
        <ele>395.00</ele>
        <time>2016-10-22T09:21:18Z</time>
      </trkpt>
      <trkpt lat="42.462531000" lon="-2.461823000">
        <ele>394.90</ele>
        <time>2016-10-22T09:21:19Z</time>
      </trkpt>
      <trkpt lat="42.462484000" lon="-2.461804000">
        <ele>394.80</ele>
        <time>2016-10-22T09:21:20Z</time>
      </trkpt>
      <trkpt lat="42.462439000" lon="-2.461785000">
        <ele>394.80</ele>
        <time>2016-10-22T09:21:21Z</time>
      </trkpt>
      <trkpt lat="42.462396000" lon="-2.461763000">
        <ele>394.70</ele>
        <time>2016-10-22T09:21:22Z</time>
      </trkpt>
      <trkpt lat="42.462352000" lon="-2.461742000">
        <ele>394.70</ele>
        <time>2016-10-22T09:21:23Z</time>
      </trkpt>
      <trkpt lat="42.462305000" lon="-2.461733000">
        <ele>394.60</ele>
        <time>2016-10-22T09:21:24Z</time>
      </trkpt>
      <trkpt lat="42.462258000" lon="-2.461723000">
        <ele>394.70</ele>
        <time>2016-10-22T09:21:25Z</time>
      </trkpt>
      <trkpt lat="42.462212000" lon="-2.461709000">
        <ele>394.80</ele>
        <time>2016-10-22T09:21:26Z</time>
      </trkpt>
      <trkpt lat="42.462167000" lon="-2.461692000">
        <ele>394.90</ele>
        <time>2016-10-22T09:21:27Z</time>
      </trkpt>
      <trkpt lat="42.462124000" lon="-2.461672000">
        <ele>395.00</ele>
        <time>2016-10-22T09:21:28Z</time>
      </trkpt>
      <trkpt lat="42.462084000" lon="-2.461658000">
        <ele>395.10</ele>
        <time>2016-10-22T09:21:29Z</time>
      </trkpt>
      <trkpt lat="42.462043000" lon="-2.461648000">
        <ele>395.20</ele>
        <time>2016-10-22T09:21:30Z</time>
      </trkpt>
      <trkpt lat="42.462003000" lon="-2.461638000">
        <ele>395.20</ele>
        <time>2016-10-22T09:21:31Z</time>
      </trkpt>
      <trkpt lat="42.461964000" lon="-2.461631000">
        <ele>395.20</ele>
        <time>2016-10-22T09:21:32Z</time>
      </trkpt>
      <trkpt lat="42.461925000" lon="-2.461621000">
        <ele>395.20</ele>
        <time>2016-10-22T09:21:33Z</time>
      </trkpt>
      <trkpt lat="42.461886000" lon="-2.461610000">
        <ele>395.10</ele>
        <time>2016-10-22T09:21:34Z</time>
      </trkpt>
      <trkpt lat="42.461847000" lon="-2.461587000">
        <ele>395.10</ele>
        <time>2016-10-22T09:21:35Z</time>
      </trkpt>
      <trkpt lat="42.461807000" lon="-2.461566000">
        <ele>395.10</ele>
        <time>2016-10-22T09:21:36Z</time>
      </trkpt>
      <trkpt lat="42.461765000" lon="-2.461543000">
        <ele>395.10</ele>
        <time>2016-10-22T09:21:37Z</time>
      </trkpt>
      <trkpt lat="42.461723000" lon="-2.461523000">
        <ele>395.10</ele>
        <time>2016-10-22T09:21:38Z</time>
      </trkpt>
      <trkpt lat="42.461681000" lon="-2.461506000">
        <ele>395.10</ele>
        <time>2016-10-22T09:21:39Z</time>
      </trkpt>
      <trkpt lat="42.461644000" lon="-2.461486000">
        <ele>395.00</ele>
        <time>2016-10-22T09:21:40Z</time>
      </trkpt>
      <trkpt lat="42.461601000" lon="-2.461472000">
        <ele>395.00</ele>
        <time>2016-10-22T09:21:41Z</time>
      </trkpt>
      <trkpt lat="42.461538000" lon="-2.461458000">
        <ele>395.30</ele>
        <time>2016-10-22T09:21:43Z</time>
      </trkpt>
      <trkpt lat="42.461504000" lon="-2.461448000">
        <ele>395.40</ele>
        <time>2016-10-22T09:21:44Z</time>
      </trkpt>
      <trkpt lat="42.461470000" lon="-2.461436000">
        <ele>395.60</ele>
        <time>2016-10-22T09:21:45Z</time>
      </trkpt>
      <trkpt lat="42.461437000" lon="-2.461415000">
        <ele>395.80</ele>
        <time>2016-10-22T09:21:46Z</time>
      </trkpt>
      <trkpt lat="42.461405000" lon="-2.461393000">
        <ele>395.90</ele>
        <time>2016-10-22T09:21:47Z</time>
      </trkpt>
      <trkpt lat="42.461367000" lon="-2.461372000">
        <ele>396.00</ele>
        <time>2016-10-22T09:21:48Z</time>
      </trkpt>
      <trkpt lat="42.461326000" lon="-2.461350000">
        <ele>395.90</ele>
        <time>2016-10-22T09:21:49Z</time>
      </trkpt>
      <trkpt lat="42.461289000" lon="-2.461327000">
        <ele>395.80</ele>
        <time>2016-10-22T09:21:50Z</time>
      </trkpt>
      <trkpt lat="42.461251000" lon="-2.461305000">
        <ele>395.70</ele>
        <time>2016-10-22T09:21:51Z</time>
      </trkpt>
      <trkpt lat="42.461220000" lon="-2.461277000">
        <ele>395.60</ele>
        <time>2016-10-22T09:21:52Z</time>
      </trkpt>
      <trkpt lat="42.461188000" lon="-2.461245000">
        <ele>395.70</ele>
        <time>2016-10-22T09:21:53Z</time>
      </trkpt>
      <trkpt lat="42.461163000" lon="-2.461210000">
        <ele>395.70</ele>
        <time>2016-10-22T09:21:54Z</time>
      </trkpt>
      <trkpt lat="42.461128000" lon="-2.461196000">
        <ele>395.70</ele>
        <time>2016-10-22T09:21:55Z</time>
      </trkpt>
      <trkpt lat="42.461105000" lon="-2.461193000">
        <ele>395.70</ele>
        <time>2016-10-22T09:21:56Z</time>
      </trkpt>
      <trkpt lat="42.461080000" lon="-2.461215000">
        <ele>395.80</ele>
        <time>2016-10-22T09:21:57Z</time>
      </trkpt>
      <trkpt lat="42.461061000" lon="-2.461249000">
        <ele>395.80</ele>
        <time>2016-10-22T09:21:58Z</time>
      </trkpt>
      <trkpt lat="42.461046000" lon="-2.461290000">
        <ele>395.90</ele>
        <time>2016-10-22T09:21:59Z</time>
      </trkpt>
      <trkpt lat="42.461031000" lon="-2.461334000">
        <ele>395.90</ele>
        <time>2016-10-22T09:22:00Z</time>
      </trkpt>
      <trkpt lat="42.461018000" lon="-2.461376000">
        <ele>396.00</ele>
        <time>2016-10-22T09:22:01Z</time>
      </trkpt>
      <trkpt lat="42.461007000" lon="-2.461415000">
        <ele>396.10</ele>
        <time>2016-10-22T09:22:02Z</time>
      </trkpt>
      <trkpt lat="42.460991000" lon="-2.461455000">
        <ele>396.10</ele>
        <time>2016-10-22T09:22:03Z</time>
      </trkpt>
      <trkpt lat="42.460974000" lon="-2.461490000">
        <ele>396.20</ele>
        <time>2016-10-22T09:22:04Z</time>
      </trkpt>
      <trkpt lat="42.460955000" lon="-2.461522000">
        <ele>396.20</ele>
        <time>2016-10-22T09:22:05Z</time>
      </trkpt>
      <trkpt lat="42.460934000" lon="-2.461546000">
        <ele>396.20</ele>
        <time>2016-10-22T09:22:06Z</time>
      </trkpt>
      <trkpt lat="42.460915000" lon="-2.461580000">
        <ele>396.20</ele>
        <time>2016-10-22T09:22:07Z</time>
      </trkpt>
      <trkpt lat="42.460892000" lon="-2.461611000">
        <ele>396.20</ele>
        <time>2016-10-22T09:22:08Z</time>
      </trkpt>
      <trkpt lat="42.460870000" lon="-2.461646000">
        <ele>396.20</ele>
        <time>2016-10-22T09:22:09Z</time>
      </trkpt>
      <trkpt lat="42.460845000" lon="-2.461671000">
        <ele>396.10</ele>
        <time>2016-10-22T09:22:10Z</time>
      </trkpt>
      <trkpt lat="42.460821000" lon="-2.461698000">
        <ele>396.40</ele>
        <time>2016-10-22T09:22:11Z</time>
      </trkpt>
      <trkpt lat="42.460797000" lon="-2.461723000">
        <ele>396.50</ele>
        <time>2016-10-22T09:22:12Z</time>
      </trkpt>
      <trkpt lat="42.460769000" lon="-2.461745000">
        <ele>396.50</ele>
        <time>2016-10-22T09:22:13Z</time>
      </trkpt>
      <trkpt lat="42.460745000" lon="-2.461765000">
        <ele>396.50</ele>
        <time>2016-10-22T09:22:14Z</time>
      </trkpt>
      <trkpt lat="42.460717000" lon="-2.461786000">
        <ele>396.50</ele>
        <time>2016-10-22T09:22:15Z</time>
      </trkpt>
      <trkpt lat="42.460690000" lon="-2.461808000">
        <ele>396.50</ele>
        <time>2016-10-22T09:22:16Z</time>
      </trkpt>
      <trkpt lat="42.460661000" lon="-2.461827000">
        <ele>396.50</ele>
        <time>2016-10-22T09:22:17Z</time>
      </trkpt>
      <trkpt lat="42.460634000" lon="-2.461847000">
        <ele>396.50</ele>
        <time>2016-10-22T09:22:18Z</time>
      </trkpt>
      <trkpt lat="42.460612000" lon="-2.461871000">
        <ele>396.80</ele>
        <time>2016-10-22T09:22:19Z</time>
      </trkpt>
      <trkpt lat="42.460591000" lon="-2.461899000">
        <ele>397.00</ele>
        <time>2016-10-22T09:22:20Z</time>
      </trkpt>
      <trkpt lat="42.460573000" lon="-2.461929000">
        <ele>397.10</ele>
        <time>2016-10-22T09:22:21Z</time>
      </trkpt>
      <trkpt lat="42.460555000" lon="-2.461964000">
        <ele>397.20</ele>
        <time>2016-10-22T09:22:22Z</time>
      </trkpt>
      <trkpt lat="42.460537000" lon="-2.461998000">
        <ele>397.30</ele>
        <time>2016-10-22T09:22:23Z</time>
      </trkpt>
      <trkpt lat="42.460518000" lon="-2.462030000">
        <ele>397.40</ele>
        <time>2016-10-22T09:22:24Z</time>
      </trkpt>
      <trkpt lat="42.460495000" lon="-2.462051000">
        <ele>397.40</ele>
        <time>2016-10-22T09:22:25Z</time>
      </trkpt>
      <trkpt lat="42.460472000" lon="-2.462048000">
        <ele>397.50</ele>
        <time>2016-10-22T09:22:26Z</time>
      </trkpt>
      <trkpt lat="42.460454000" lon="-2.462035000">
        <ele>397.70</ele>
        <time>2016-10-22T09:22:27Z</time>
      </trkpt>
      <trkpt lat="42.460433000" lon="-2.462022000">
        <ele>397.80</ele>
        <time>2016-10-22T09:22:28Z</time>
      </trkpt>
      <trkpt lat="42.460418000" lon="-2.462007000">
        <ele>397.90</ele>
        <time>2016-10-22T09:22:29Z</time>
      </trkpt>
      <trkpt lat="42.460406000" lon="-2.461993000">
        <ele>398.00</ele>
        <time>2016-10-22T09:22:30Z</time>
      </trkpt>
      <trkpt lat="42.460381000" lon="-2.462006000">
        <ele>398.30</ele>
        <time>2016-10-22T09:22:31Z</time>
      </trkpt>
      <trkpt lat="42.460360000" lon="-2.462030000">
        <ele>398.50</ele>
        <time>2016-10-22T09:22:32Z</time>
      </trkpt>
      <trkpt lat="42.460339000" lon="-2.462054000">
        <ele>398.60</ele>
        <time>2016-10-22T09:22:33Z</time>
      </trkpt>
      <trkpt lat="42.460321000" lon="-2.462077000">
        <ele>398.70</ele>
        <time>2016-10-22T09:22:34Z</time>
      </trkpt>
      <trkpt lat="42.460303000" lon="-2.462107000">
        <ele>398.80</ele>
        <time>2016-10-22T09:22:35Z</time>
      </trkpt>
      <trkpt lat="42.460289000" lon="-2.462140000">
        <ele>398.90</ele>
        <time>2016-10-22T09:22:36Z</time>
      </trkpt>
      <trkpt lat="42.460275000" lon="-2.462171000">
        <ele>399.00</ele>
        <time>2016-10-22T09:22:37Z</time>
      </trkpt>
      <trkpt lat="42.460261000" lon="-2.462197000">
        <ele>399.10</ele>
        <time>2016-10-22T09:22:38Z</time>
      </trkpt>
      <trkpt lat="42.460245000" lon="-2.462223000">
        <ele>399.20</ele>
        <time>2016-10-22T09:22:39Z</time>
      </trkpt>
      <trkpt lat="42.460229000" lon="-2.462246000">
        <ele>399.30</ele>
        <time>2016-10-22T09:22:40Z</time>
      </trkpt>
      <trkpt lat="42.460215000" lon="-2.462264000">
        <ele>399.60</ele>
        <time>2016-10-22T09:22:41Z</time>
      </trkpt>
      <trkpt lat="42.460199000" lon="-2.462286000">
        <ele>399.90</ele>
        <time>2016-10-22T09:22:42Z</time>
      </trkpt>
      <trkpt lat="42.460218000" lon="-2.462350000">
        <ele>400.40</ele>
        <time>2016-10-22T09:22:44Z</time>
      </trkpt>
      <trkpt lat="42.460225000" lon="-2.462391000">
        <ele>400.60</ele>
        <time>2016-10-22T09:22:45Z</time>
      </trkpt>
      <trkpt lat="42.460235000" lon="-2.462429000">
        <ele>400.80</ele>
        <time>2016-10-22T09:22:46Z</time>
      </trkpt>
      <trkpt lat="42.460246000" lon="-2.462470000">
        <ele>400.90</ele>
        <time>2016-10-22T09:22:47Z</time>
      </trkpt>
      <trkpt lat="42.460258000" lon="-2.462506000">
        <ele>401.00</ele>
        <time>2016-10-22T09:22:48Z</time>
      </trkpt>
      <trkpt lat="42.460272000" lon="-2.462540000">
        <ele>401.10</ele>
        <time>2016-10-22T09:22:49Z</time>
      </trkpt>
      <trkpt lat="42.460285000" lon="-2.462574000">
        <ele>401.10</ele>
        <time>2016-10-22T09:22:50Z</time>
      </trkpt>
      <trkpt lat="42.460299000" lon="-2.462610000">
        <ele>401.10</ele>
        <time>2016-10-22T09:22:51Z</time>
      </trkpt>
      <trkpt lat="42.460309000" lon="-2.462649000">
        <ele>401.20</ele>
        <time>2016-10-22T09:22:52Z</time>
      </trkpt>
      <trkpt lat="42.460323000" lon="-2.462688000">
        <ele>401.10</ele>
        <time>2016-10-22T09:22:53Z</time>
      </trkpt>
      <trkpt lat="42.460334000" lon="-2.462724000">
        <ele>401.10</ele>
        <time>2016-10-22T09:22:54Z</time>
      </trkpt>
      <trkpt lat="42.460349000" lon="-2.462764000">
        <ele>401.10</ele>
        <time>2016-10-22T09:22:55Z</time>
      </trkpt>
      <trkpt lat="42.460366000" lon="-2.462803000">
        <ele>401.10</ele>
        <time>2016-10-22T09:22:56Z</time>
      </trkpt>
      <trkpt lat="42.460382000" lon="-2.462843000">
        <ele>401.10</ele>
        <time>2016-10-22T09:22:57Z</time>
      </trkpt>
      <trkpt lat="42.460395000" lon="-2.462884000">
        <ele>401.10</ele>
        <time>2016-10-22T09:22:58Z</time>
      </trkpt>
      <trkpt lat="42.460411000" lon="-2.462920000">
        <ele>401.10</ele>
        <time>2016-10-22T09:22:59Z</time>
      </trkpt>
      <trkpt lat="42.460424000" lon="-2.462956000">
        <ele>401.10</ele>
        <time>2016-10-22T09:23:00Z</time>
      </trkpt>
      <trkpt lat="42.460440000" lon="-2.462993000">
        <ele>401.20</ele>
        <time>2016-10-22T09:23:01Z</time>
      </trkpt>
      <trkpt lat="42.460454000" lon="-2.463031000">
        <ele>401.20</ele>
        <time>2016-10-22T09:23:02Z</time>
      </trkpt>
      <trkpt lat="42.460470000" lon="-2.463069000">
        <ele>401.20</ele>
        <time>2016-10-22T09:23:03Z</time>
      </trkpt>
      <trkpt lat="42.460482000" lon="-2.463108000">
        <ele>401.20</ele>
        <time>2016-10-22T09:23:04Z</time>
      </trkpt>
      <trkpt lat="42.460494000" lon="-2.463147000">
        <ele>401.20</ele>
        <time>2016-10-22T09:23:05Z</time>
      </trkpt>
      <trkpt lat="42.460506000" lon="-2.463188000">
        <ele>401.20</ele>
        <time>2016-10-22T09:23:06Z</time>
      </trkpt>
      <trkpt lat="42.460521000" lon="-2.463236000">
        <ele>401.20</ele>
        <time>2016-10-22T09:23:07Z</time>
      </trkpt>
      <trkpt lat="42.460541000" lon="-2.463284000">
        <ele>401.10</ele>
        <time>2016-10-22T09:23:08Z</time>
      </trkpt>
      <trkpt lat="42.460564000" lon="-2.463329000">
        <ele>401.10</ele>
        <time>2016-10-22T09:23:09Z</time>
      </trkpt>
      <trkpt lat="42.460585000" lon="-2.463377000">
        <ele>401.10</ele>
        <time>2016-10-22T09:23:10Z</time>
      </trkpt>
      <trkpt lat="42.460605000" lon="-2.463431000">
        <ele>401.00</ele>
        <time>2016-10-22T09:23:11Z</time>
      </trkpt>
      <trkpt lat="42.460626000" lon="-2.463484000">
        <ele>401.00</ele>
        <time>2016-10-22T09:23:12Z</time>
      </trkpt>
      <trkpt lat="42.460649000" lon="-2.463541000">
        <ele>400.70</ele>
        <time>2016-10-22T09:23:13Z</time>
      </trkpt>
      <trkpt lat="42.460677000" lon="-2.463591000">
        <ele>400.50</ele>
        <time>2016-10-22T09:23:14Z</time>
      </trkpt>
      <trkpt lat="42.460708000" lon="-2.463627000">
        <ele>400.30</ele>
        <time>2016-10-22T09:23:15Z</time>
      </trkpt>
      <trkpt lat="42.460746000" lon="-2.463646000">
        <ele>400.10</ele>
        <time>2016-10-22T09:23:16Z</time>
      </trkpt>
      <trkpt lat="42.460785000" lon="-2.463662000">
        <ele>399.80</ele>
        <time>2016-10-22T09:23:17Z</time>
      </trkpt>
      <trkpt lat="42.460823000" lon="-2.463681000">
        <ele>399.50</ele>
        <time>2016-10-22T09:23:18Z</time>
      </trkpt>
      <trkpt lat="42.460857000" lon="-2.463697000">
        <ele>399.30</ele>
        <time>2016-10-22T09:23:19Z</time>
      </trkpt>
      <trkpt lat="42.460890000" lon="-2.463712000">
        <ele>399.20</ele>
        <time>2016-10-22T09:23:20Z</time>
      </trkpt>
      <trkpt lat="42.460924000" lon="-2.463729000">
        <ele>399.10</ele>
        <time>2016-10-22T09:23:21Z</time>
      </trkpt>
      <trkpt lat="42.460959000" lon="-2.463744000">
        <ele>399.00</ele>
        <time>2016-10-22T09:23:22Z</time>
      </trkpt>
      <trkpt lat="42.460987000" lon="-2.463756000">
        <ele>398.90</ele>
        <time>2016-10-22T09:23:23Z</time>
      </trkpt>
      <trkpt lat="42.461009000" lon="-2.463773000">
        <ele>398.80</ele>
        <time>2016-10-22T09:23:24Z</time>
      </trkpt>
      <trkpt lat="42.461016000" lon="-2.463801000">
        <ele>398.70</ele>
        <time>2016-10-22T09:23:25Z</time>
      </trkpt>
      <trkpt lat="42.461016000" lon="-2.463831000">
        <ele>398.60</ele>
        <time>2016-10-22T09:23:26Z</time>
      </trkpt>
      <trkpt lat="42.461014000" lon="-2.463857000">
        <ele>398.40</ele>
        <time>2016-10-22T09:23:27Z</time>
      </trkpt>
      <trkpt lat="42.461009000" lon="-2.463875000">
        <ele>398.30</ele>
        <time>2016-10-22T09:23:28Z</time>
      </trkpt>
      <trkpt lat="42.461004000" lon="-2.463893000">
        <ele>397.90</ele>
        <time>2016-10-22T09:23:29Z</time>
      </trkpt>
      <trkpt lat="42.461004000" lon="-2.463893000">
        <ele>397.90</ele>
        <time>2016-10-22T09:23:29Z</time>
      </trkpt>
    </trkseg>
  </trk>
</gpx>
